<?xml version="1.0" encoding="UTF-8"?>
<gpx version="1.1" creator="https://www.youtrack.es" xsi:schemaLocation="http://www.topografix.com/GPX/1/1 http://www.topografix.com/GPX/1/1/gpx.xsd http://www.garmin.com/xmlschemas/GpxExtensions/v3 http://www.garmin.com/xmlschemas/GpxExtensionsv3.xsd http://www.garmin.com/xmlschemas/TrackPointExtension/v1 http://www.garmin.com/xmlschemas/TrackPointExtensionv1.xsd" xmlns:gpxtpx="http://www.garmin.com/xmlschemas/TrackPointExtension/v1" xmlns:gpxx="http://www.garmin.com/xmlschemas/GpxExtensions/v3" xmlns:xsi="http://www.w3.org/2001/XMLSchema-instance">
  <metadata>
    <author>
      <name>jhon ganisa</name>
      <email id="marvima589" domain="gmail.com"/>
    </author>
    <link href="https://www.youtrack.es">
      <text>YouTrack.es</text>
    </link>
    <time>2026-05-08T02:19:55Z</time>
  </metadata>
  <trk>
    <src>https://www.youtrack.es</src>
    <link href="https://www.youtrack.es/ruta/28616-tbuena">
      <text>YouTrack.es</text>
    </link>
    <trkseg>
      <trkpt lat="41.89963803626597" lon="2.768111201003194">
        <ele>123.34995402814124</ele>
        <time>2021-07-28T17:59:23.000Z</time>
      </trkpt>
      <trkpt lat="41.899538123980165" lon="2.7680611610412598">
        <ele>123.12515083558091</ele>
        <time>2021-07-28T17:59:23.002Z</time>
      </trkpt>
      <trkpt lat="41.89953804016113" lon="2.7680611610412598">
        <ele>122.97073718914444</ele>
        <time>2021-07-28T17:59:23.004Z</time>
      </trkpt>
      <trkpt lat="41.899452209472656" lon="2.7680718898773193">
        <ele>122.7889340801273</ele>
        <time>2021-07-28T17:59:23.007Z</time>
      </trkpt>
      <trkpt lat="41.89936637878418" lon="2.768125534057617">
        <ele>122.61423330861885</ele>
        <time>2021-07-28T17:59:23.012Z</time>
      </trkpt>
      <trkpt lat="41.89931281842291" lon="2.7682113647460938">
        <ele>122.49602493793644</ele>
        <time>2021-07-28T17:59:23.018Z</time>
      </trkpt>
      <trkpt lat="41.899269903078675" lon="2.7683186531066895">
        <ele>122.45131953290596</ele>
        <time>2021-07-28T17:59:23.025Z</time>
      </trkpt>
      <trkpt lat="41.899259090423584" lon="2.768404483795166">
        <ele>122.5490275641784</ele>
        <time>2021-07-28T17:59:23.033Z</time>
      </trkpt>
      <trkpt lat="41.89929127693176" lon="2.7685654163360596">
        <ele>122.8303540520042</ele>
        <time>2021-07-28T17:59:23.043Z</time>
      </trkpt>
      <trkpt lat="41.89932346343994" lon="2.768629789352417">
        <ele>123.25595036479336</ele>
        <time>2021-07-28T17:59:23.054Z</time>
      </trkpt>
      <trkpt lat="41.89939856529236" lon="2.7687156200408936">
        <ele>123.84112197232655</ele>
        <time>2021-07-28T17:59:23.067Z</time>
      </trkpt>
      <trkpt lat="41.89945229329169" lon="2.7687370777130127">
        <ele>124.54264869053797</ele>
        <time>2021-07-28T17:59:23.081Z</time>
      </trkpt>
      <trkpt lat="41.89953804016113" lon="2.7687478065490723">
        <ele>125.37290273417543</ele>
        <time>2021-07-28T17:59:23.096Z</time>
      </trkpt>
      <trkpt lat="41.89960241317749" lon="2.7687370777130127">
        <ele>126.29351678951812</ele>
        <time>2021-07-28T17:59:23.112Z</time>
      </trkpt>
      <trkpt lat="41.89966678619385" lon="2.768704891204834">
        <ele>127.29786807134886</ele>
        <time>2021-07-28T17:59:23.129Z</time>
      </trkpt>
      <trkpt lat="41.89972051419318" lon="2.768608331680298">
        <ele>128.36651805591765</ele>
        <time>2021-07-28T17:59:23.148Z</time>
      </trkpt>
      <trkpt lat="41.899720430374146" lon="2.768608331680298">
        <ele>129.46075028035648</ele>
        <time>2021-07-28T17:59:23.167Z</time>
      </trkpt>
      <trkpt lat="41.899752616882324" lon="2.7685546875">
        <ele>130.60348331777186</ele>
        <time>2021-07-28T17:59:23.187Z</time>
      </trkpt>
      <trkpt lat="41.89987063407898" lon="2.768479585647583">
        <ele>131.81271912833967</ele>
        <time>2021-07-28T17:59:23.209Z</time>
      </trkpt>
      <trkpt lat="41.899956464767456" lon="2.7684473991394043">
        <ele>133.02889123149822</ele>
        <time>2021-07-28T17:59:23.232Z</time>
      </trkpt>
      <trkpt lat="41.90011739730835" lon="2.7684473991394043">
        <ele>134.2830447140526</ele>
        <time>2021-07-28T17:59:23.258Z</time>
      </trkpt>
      <trkpt lat="41.90242409706116" lon="2.770078182220459">
        <ele>136.40165717760576</ele>
        <time>2021-07-28T17:59:23.325Z</time>
      </trkpt>
      <trkpt lat="41.902735233306885" lon="2.7701961994171143">
        <ele>137.7493031565425</ele>
        <time>2021-07-28T17:59:23.398Z</time>
      </trkpt>
      <trkpt lat="41.90591105259955" lon="2.770979404449463">
        <ele>139.30246825057466</ele>
        <time>2021-07-28T17:59:23.522Z</time>
      </trkpt>
      <trkpt lat="41.90656542778015" lon="2.7711188793182373">
        <ele>140.38196944215628</ele>
        <time>2021-07-28T17:59:23.657Z</time>
      </trkpt>
      <trkpt lat="41.906758546829224" lon="2.771129608154297">
        <ele>141.21009112623767</ele>
        <time>2021-07-28T17:59:23.795Z</time>
      </trkpt>
      <trkpt lat="41.90709114074707" lon="2.7711188793182373">
        <ele>141.73592970832982</ele>
        <time>2021-07-28T17:59:23.938Z</time>
      </trkpt>
      <trkpt lat="41.90754175186157" lon="2.7710115909576416">
        <ele>141.93110152497658</ele>
        <time>2021-07-28T17:59:24.089Z</time>
      </trkpt>
      <trkpt lat="41.90791726112366" lon="2.7708399295806885">
        <ele>141.917811897689</ele>
        <time>2021-07-28T17:59:24.246Z</time>
      </trkpt>
      <trkpt lat="41.90812119282782" lon="2.770721912384033">
        <ele>141.64013554262024</ele>
        <time>2021-07-28T17:59:24.406Z</time>
      </trkpt>
      <trkpt lat="41.90812110900879" lon="2.770721912384033">
        <ele>141.1630222426619</ele>
        <time>2021-07-28T17:59:24.566Z</time>
      </trkpt>
      <trkpt lat="41.909236991778016" lon="2.770078182220459">
        <ele>140.32106422852348</ele>
        <time>2021-07-28T17:59:24.746Z</time>
      </trkpt>
      <trkpt lat="41.91201567649841" lon="2.7685439586639404">
        <ele>139.28581866081169</ele>
        <time>2021-07-28T17:59:24.974Z</time>
      </trkpt>
      <trkpt lat="41.91236981190741" lon="2.7685546875">
        <ele>138.20994892427836</ele>
        <time>2021-07-28T17:59:25.208Z</time>
      </trkpt>
      <trkpt lat="41.91263794898987" lon="2.7685654163360596">
        <ele>136.96632961492244</ele>
        <time>2021-07-28T17:59:25.446Z</time>
      </trkpt>
      <trkpt lat="41.91357144154608" lon="2.768855094909668">
        <ele>135.3030999488102</ele>
        <time>2021-07-28T17:59:25.699Z</time>
      </trkpt>
      <trkpt lat="41.91527724266052" lon="2.7693700790405273">
        <ele>133.7592007487036</ele>
        <time>2021-07-28T17:59:25.980Z</time>
      </trkpt>
      <trkpt lat="41.91556692123413" lon="2.7695095539093018">
        <ele>132.4500633334165</ele>
        <time>2021-07-28T17:59:26.266Z</time>
      </trkpt>
      <trkpt lat="41.91585668362677" lon="2.769724130630493">
        <ele>131.19054657095387</ele>
        <time>2021-07-28T17:59:26.557Z</time>
      </trkpt>
      <trkpt lat="41.917680501937866" lon="2.771505117416382">
        <ele>130.23572355814713</ele>
        <time>2021-07-28T17:59:26.885Z</time>
      </trkpt>
      <trkpt lat="41.917959451675415" lon="2.7717196941375732">
        <ele>129.27404316134255</ele>
        <time>2021-07-28T17:59:27.218Z</time>
      </trkpt>
      <trkpt lat="41.918206214904785" lon="2.7718377113342285">
        <ele>128.47565865630975</ele>
        <time>2021-07-28T17:59:27.555Z</time>
      </trkpt>
      <trkpt lat="41.91831350326538" lon="2.7718698978424072">
        <ele>127.7829675229868</ele>
        <time>2021-07-28T17:59:27.894Z</time>
      </trkpt>
      <trkpt lat="41.918206214904785" lon="2.772771120071411">
        <ele>126.88900912081189</ele>
        <time>2021-07-28T17:59:28.244Z</time>
      </trkpt>
      <trkpt lat="41.918184757232666" lon="2.7734899520874023">
        <ele>126.26125473546097</ele>
        <time>2021-07-28T17:59:28.602Z</time>
      </trkpt>
      <trkpt lat="41.91814184188843" lon="2.7736616134643555">
        <ele>125.69856183660505</ele>
        <time>2021-07-28T17:59:28.962Z</time>
      </trkpt>
      <trkpt lat="41.91809892654419" lon="2.7737367153167725">
        <ele>125.18130004267698</ele>
        <time>2021-07-28T17:59:29.323Z</time>
      </trkpt>
      <trkpt lat="41.918023908510804" lon="2.7738118171691895">
        <ele>124.69970361439371</ele>
        <time>2021-07-28T17:59:29.686Z</time>
      </trkpt>
      <trkpt lat="41.91759467124939" lon="2.7740800380706787">
        <ele>124.1529385995221</ele>
        <time>2021-07-28T17:59:30.057Z</time>
      </trkpt>
      <trkpt lat="41.91759475506842" lon="2.7740800380706787">
        <ele>123.71950876334415</ele>
        <time>2021-07-28T17:59:30.428Z</time>
      </trkpt>
      <trkpt lat="41.91751956939697" lon="2.774176597595215">
        <ele>123.27833334813542</ele>
        <time>2021-07-28T17:59:30.800Z</time>
      </trkpt>
      <trkpt lat="41.917455196380615" lon="2.774369716644287">
        <ele>122.86613296760598</ele>
        <time>2021-07-28T17:59:31.175Z</time>
      </trkpt>
      <trkpt lat="41.91738017834723" lon="2.7748847007751465">
        <ele>122.52354142606553</ele>
        <time>2021-07-28T17:59:31.556Z</time>
      </trkpt>
      <trkpt lat="41.91711187362671" lon="2.7767837047576904">
        <ele>121.87732106309241</ele>
        <time>2021-07-28T17:59:31.960Z</time>
      </trkpt>
      <trkpt lat="41.9168758392334" lon="2.7772128582000732">
        <ele>121.4849231409827</ele>
        <time>2021-07-28T17:59:32.370Z</time>
      </trkpt>
      <trkpt lat="41.91660761833191" lon="2.7775561809539795">
        <ele>120.99241437573372</ele>
        <time>2021-07-28T17:59:32.786Z</time>
      </trkpt>
      <trkpt lat="41.91639304161072" lon="2.7781569957733154">
        <ele>120.63290302003956</ele>
        <time>2021-07-28T17:59:33.210Z</time>
      </trkpt>
      <trkpt lat="41.91633939743042" lon="2.778639793395996">
        <ele>119.90514415041203</ele>
        <time>2021-07-28T17:59:33.640Z</time>
      </trkpt>
      <trkpt lat="41.91640377044678" lon="2.77929425239563">
        <ele>119.11270812616215</ele>
        <time>2021-07-28T17:59:34.078Z</time>
      </trkpt>
      <trkpt lat="41.91650032997131" lon="2.7800345420837402">
        <ele>118.38575507553107</ele>
        <time>2021-07-28T17:59:34.525Z</time>
      </trkpt>
      <trkpt lat="41.91652178764343" lon="2.7806997299194336">
        <ele>117.88652828452032</ele>
        <time>2021-07-28T17:59:34.980Z</time>
      </trkpt>
      <trkpt lat="41.916478956118226" lon="2.781343460083008">
        <ele>117.45446930880364</ele>
        <time>2021-07-28T17:59:35.443Z</time>
      </trkpt>
      <trkpt lat="41.91642531193793" lon="2.7817726135253906">
        <ele>116.94719585917252</ele>
        <time>2021-07-28T17:59:35.911Z</time>
      </trkpt>
      <trkpt lat="41.91640385426581" lon="2.7819550037384033">
        <ele>116.38284276274132</ele>
        <time>2021-07-28T17:59:36.381Z</time>
      </trkpt>
      <trkpt lat="41.91636093892157" lon="2.782212495803833">
        <ele>115.80772743050635</ele>
        <time>2021-07-28T17:59:36.854Z</time>
      </trkpt>
      <trkpt lat="41.91633939743042" lon="2.782437801361084">
        <ele>115.29816005131468</ele>
        <time>2021-07-28T17:59:37.330Z</time>
      </trkpt>
      <trkpt lat="41.91633948124945" lon="2.782437801361084">
        <ele>114.85591194516611</ele>
        <time>2021-07-28T17:59:37.806Z</time>
      </trkpt>
      <trkpt lat="41.9163179397583" lon="2.7826309204101562">
        <ele>114.45301715469006</ele>
        <time>2021-07-28T17:59:38.284Z</time>
      </trkpt>
      <trkpt lat="41.91609263420105" lon="2.783939838409424">
        <ele>114.04981162311483</ele>
        <time>2021-07-28T17:59:38.778Z</time>
      </trkpt>
      <trkpt lat="41.91600680351257" lon="2.7847445011138916">
        <ele>113.5327533657525</ele>
        <time>2021-07-28T17:59:39.282Z</time>
      </trkpt>
      <trkpt lat="41.9158136844635" lon="2.7898192405700684">
        <ele>113.36817047507249</ele>
        <time>2021-07-28T17:59:39.847Z</time>
      </trkpt>
      <trkpt lat="41.91564202308655" lon="2.7898406982421875">
        <ele>113.14962839635024</ele>
        <time>2021-07-28T17:59:40.415Z</time>
      </trkpt>
      <trkpt lat="41.91560983657837" lon="2.789905071258545">
        <ele>113.10846648814531</ele>
        <time>2021-07-28T17:59:40.983Z</time>
      </trkpt>
      <trkpt lat="41.91559910774231" lon="2.790076732635498">
        <ele>113.18869488169236</ele>
        <time>2021-07-28T17:59:41.553Z</time>
      </trkpt>
      <trkpt lat="41.91564202308655" lon="2.7908170223236084">
        <ele>113.17453918757042</ele>
        <time>2021-07-28T17:59:42.132Z</time>
      </trkpt>
      <trkpt lat="41.91563137806952" lon="2.7910315990448">
        <ele>113.42275728270877</ele>
        <time>2021-07-28T17:59:42.714Z</time>
      </trkpt>
      <trkpt lat="41.91554554738104" lon="2.791750431060791">
        <ele>113.69386785319281</ele>
        <time>2021-07-28T17:59:43.305Z</time>
      </trkpt>
      <trkpt lat="41.915534818544984" lon="2.7919864654541016">
        <ele>114.0038161825719</ele>
        <time>2021-07-28T17:59:43.898Z</time>
      </trkpt>
      <trkpt lat="41.91610336303711" lon="2.7919328212738037">
        <ele>114.73337809965426</ele>
        <time>2021-07-28T17:59:44.501Z</time>
      </trkpt>
      <trkpt lat="41.91629648208618" lon="2.7919435501098633">
        <ele>115.34505787065726</ele>
        <time>2021-07-28T17:59:45.107Z</time>
      </trkpt>
      <trkpt lat="41.916489601135254" lon="2.7919650077819824">
        <ele>116.01708475761151</ele>
        <time>2021-07-28T17:59:45.716Z</time>
      </trkpt>
      <trkpt lat="41.91780933178961" lon="2.7922439575195312">
        <ele>116.91601311572617</ele>
        <time>2021-07-28T17:59:46.346Z</time>
      </trkpt>
      <trkpt lat="41.91955804824829" lon="2.792619466781616">
        <ele>117.90588440617225</ele>
        <time>2021-07-28T17:59:47.004Z</time>
      </trkpt>
      <trkpt lat="41.92145713604987" lon="2.792994976043701">
        <ele>119.21784253700378</ele>
        <time>2021-07-28T17:59:47.693Z</time>
      </trkpt>
      <trkpt lat="41.92154296673834" lon="2.7930057048797607">
        <ele>119.96684252907959</ele>
        <time>2021-07-28T17:59:48.384Z</time>
      </trkpt>
      <trkpt lat="41.92154288291931" lon="2.7930057048797607">
        <ele>120.63121399981861</ele>
        <time>2021-07-28T17:59:49.075Z</time>
      </trkpt>
      <trkpt lat="41.92163952626288" lon="2.79302716255188">
        <ele>121.20011752049838</ele>
        <time>2021-07-28T17:59:49.767Z</time>
      </trkpt>
      <trkpt lat="41.922487020492554" lon="2.7931666374206543">
        <ele>121.5254685018964</ele>
        <time>2021-07-28T17:59:50.473Z</time>
      </trkpt>
      <trkpt lat="41.92355990409851" lon="2.7934348583221436">
        <ele>121.62303377283507</ele>
        <time>2021-07-28T17:59:51.196Z</time>
      </trkpt>
      <trkpt lat="41.92378520965576" lon="2.7934885025024414">
        <ele>121.99736310705033</ele>
        <time>2021-07-28T17:59:51.923Z</time>
      </trkpt>
      <trkpt lat="41.92412853240967" lon="2.793649435043335">
        <ele>122.29351812559379</ele>
        <time>2021-07-28T17:59:52.656Z</time>
      </trkpt>
      <trkpt lat="41.92442902363837" lon="2.793724536895752">
        <ele>122.42685302942701</ele>
        <time>2021-07-28T17:59:53.394Z</time>
      </trkpt>
      <trkpt lat="41.92485809326172" lon="2.793799638748169">
        <ele>122.57908893452128</ele>
        <time>2021-07-28T17:59:54.139Z</time>
      </trkpt>
      <trkpt lat="41.92515858449042" lon="2.793971300125122">
        <ele>122.42311755496397</ele>
        <time>2021-07-28T17:59:54.889Z</time>
      </trkpt>
      <trkpt lat="41.92515850067139" lon="2.793971300125122">
        <ele>122.2093752913812</ele>
        <time>2021-07-28T17:59:55.639Z</time>
      </trkpt>
      <trkpt lat="41.925448179244995" lon="2.7941536903381348">
        <ele>121.81270406370732</ele>
        <time>2021-07-28T17:59:56.394Z</time>
      </trkpt>
      <trkpt lat="41.92581295967102" lon="2.7944648265838623">
        <ele>121.32892291388964</ele>
        <time>2021-07-28T17:59:57.156Z</time>
      </trkpt>
      <trkpt lat="41.92609190940857" lon="2.7946150302886963">
        <ele>120.81000296335031</ele>
        <time>2021-07-28T17:59:57.923Z</time>
      </trkpt>
      <trkpt lat="41.92630648612976" lon="2.7946579456329346">
        <ele>120.19615900868479</ele>
        <time>2021-07-28T17:59:58.693Z</time>
      </trkpt>
      <trkpt lat="41.92651033401489" lon="2.7946794033050537">
        <ele>119.49783372642581</ele>
        <time>2021-07-28T17:59:59.466Z</time>
      </trkpt>
      <trkpt lat="41.926681995391846" lon="2.7947330474853516">
        <ele>118.71607625452735</ele>
        <time>2021-07-28T18:00:00.242Z</time>
      </trkpt>
      <trkpt lat="41.92681074142456" lon="2.794797420501709">
        <ele>117.87901397043328</ele>
        <time>2021-07-28T18:00:01.020Z</time>
      </trkpt>
      <trkpt lat="41.92700386047363" lon="2.7950119972229004">
        <ele>116.98353315344383</ele>
        <time>2021-07-28T18:00:01.802Z</time>
      </trkpt>
      <trkpt lat="41.92707896232605" lon="2.7951622009277344">
        <ele>116.0713329518664</ele>
        <time>2021-07-28T18:00:02.587Z</time>
      </trkpt>
      <trkpt lat="41.927454471588135" lon="2.795720100402832">
        <ele>114.99954984747951</ele>
        <time>2021-07-28T18:00:03.380Z</time>
      </trkpt>
      <trkpt lat="41.92755103111267" lon="2.7959024906158447">
        <ele>114.06914864874923</ele>
        <time>2021-07-28T18:00:04.176Z</time>
      </trkpt>
      <trkpt lat="41.92760467529297" lon="2.7960634231567383">
        <ele>113.19180603285334</ele>
        <time>2021-07-28T18:00:04.974Z</time>
      </trkpt>
      <trkpt lat="41.927679777145386" lon="2.796374559402466">
        <ele>112.30486597690702</ele>
        <time>2021-07-28T18:00:05.776Z</time>
      </trkpt>
      <trkpt lat="41.927690505981445" lon="2.796567678451538">
        <ele>111.5105682944726</ele>
        <time>2021-07-28T18:00:06.580Z</time>
      </trkpt>
      <trkpt lat="41.92764759063721" lon="2.796921730041504">
        <ele>110.79227427188192</ele>
        <time>2021-07-28T18:00:07.389Z</time>
      </trkpt>
      <trkpt lat="41.92750811576843" lon="2.79752254486084">
        <ele>110.062273154597</ele>
        <time>2021-07-28T18:00:08.205Z</time>
      </trkpt>
      <trkpt lat="41.927454471588135" lon="2.7978873252868652">
        <ele>109.53558047942877</ele>
        <time>2021-07-28T18:00:09.026Z</time>
      </trkpt>
      <trkpt lat="41.927454471588135" lon="2.798112630844116">
        <ele>109.15035187073391</ele>
        <time>2021-07-28T18:00:09.849Z</time>
      </trkpt>
      <trkpt lat="41.92751884460449" lon="2.798316478729248">
        <ele>108.9129646140061</ele>
        <time>2021-07-28T18:00:10.675Z</time>
      </trkpt>
      <trkpt lat="41.92760467529297" lon="2.7984774112701416">
        <ele>108.84461558103287</ele>
        <time>2021-07-28T18:00:11.503Z</time>
      </trkpt>
      <trkpt lat="41.927711963653564" lon="2.7985739707946777">
        <ele>108.9271463927951</ele>
        <time>2021-07-28T18:00:12.333Z</time>
      </trkpt>
      <trkpt lat="41.9278085231781" lon="2.798638343811035">
        <ele>109.13638913984141</ele>
        <time>2021-07-28T18:00:13.165Z</time>
      </trkpt>
      <trkpt lat="41.927980184555054" lon="2.7986598014831543">
        <ele>109.48767142325522</ele>
        <time>2021-07-28T18:00:14.000Z</time>
      </trkpt>
      <trkpt lat="41.92813038825989" lon="2.798616886138916">
        <ele>109.9475978966788</ele>
        <time>2021-07-28T18:00:14.837Z</time>
      </trkpt>
      <trkpt lat="41.92833423614502" lon="2.7984988689422607">
        <ele>110.55574431259731</ele>
        <time>2021-07-28T18:00:15.678Z</time>
      </trkpt>
      <trkpt lat="41.92855954170227" lon="2.7983486652374268">
        <ele>111.28271631859135</ele>
        <time>2021-07-28T18:00:16.523Z</time>
      </trkpt>
      <trkpt lat="41.92890286445618" lon="2.7980268001556396">
        <ele>112.12190352307164</ele>
        <time>2021-07-28T18:00:17.375Z</time>
      </trkpt>
      <trkpt lat="41.92912817001343" lon="2.797790765762329">
        <ele>112.91102259984092</ele>
        <time>2021-07-28T18:00:18.231Z</time>
      </trkpt>
      <trkpt lat="41.92939639091492" lon="2.7974259853363037">
        <ele>113.78040179226971</ele>
        <time>2021-07-28T18:00:19.093Z</time>
      </trkpt>
      <trkpt lat="41.92954659461975" lon="2.7972006797790527">
        <ele>114.7217535985389</ele>
        <time>2021-07-28T18:00:19.959Z</time>
      </trkpt>
      <trkpt lat="41.92973971366882" lon="2.796846628189087">
        <ele>115.62231033773355</ele>
        <time>2021-07-28T18:00:20.830Z</time>
      </trkpt>
      <trkpt lat="41.929922103881836" lon="2.796417474746704">
        <ele>116.57700518931713</ele>
        <time>2021-07-28T18:00:21.707Z</time>
      </trkpt>
      <trkpt lat="41.93002939224243" lon="2.7961277961730957">
        <ele>117.5533630985823</ele>
        <time>2021-07-28T18:00:22.588Z</time>
      </trkpt>
      <trkpt lat="41.930168867111206" lon="2.7956342697143555">
        <ele>118.55931405977002</ele>
        <time>2021-07-28T18:00:23.475Z</time>
      </trkpt>
      <trkpt lat="41.93029761314392" lon="2.795301675796509">
        <ele>119.51820749853019</ele>
        <time>2021-07-28T18:00:24.367Z</time>
      </trkpt>
      <trkpt lat="41.93034052848816" lon="2.795226573944092">
        <ele>120.31773403826894</ele>
        <time>2021-07-28T18:00:25.260Z</time>
      </trkpt>
      <trkpt lat="41.930426359176636" lon="2.7951836585998535">
        <ele>121.05548563028492</ele>
        <time>2021-07-28T18:00:26.154Z</time>
      </trkpt>
      <trkpt lat="41.93049073219299" lon="2.7951085567474365">
        <ele>121.72255192803671</ele>
        <time>2021-07-28T18:00:27.050Z</time>
      </trkpt>
      <trkpt lat="41.93064093589783" lon="2.7950656414031982">
        <ele>122.31504162975249</ele>
        <time>2021-07-28T18:00:27.948Z</time>
      </trkpt>
      <trkpt lat="41.93073749542236" lon="2.7950870990753174">
        <ele>122.81269205025899</ele>
        <time>2021-07-28T18:00:28.848Z</time>
      </trkpt>
      <trkpt lat="41.93085551261902" lon="2.795226573944092">
        <ele>123.24141211161871</ele>
        <time>2021-07-28T18:00:29.750Z</time>
      </trkpt>
      <trkpt lat="41.930919885635376" lon="2.7952802181243896">
        <ele>123.56612911151686</ele>
        <time>2021-07-28T18:00:30.653Z</time>
      </trkpt>
      <trkpt lat="41.93156369961798" lon="2.795473337173462">
        <ele>123.84184671118764</ele>
        <time>2021-07-28T18:00:31.567Z</time>
      </trkpt>
      <trkpt lat="41.93212159909308" lon="2.795623540878296">
        <ele>123.94687425589498</ele>
        <time>2021-07-28T18:00:32.490Z</time>
      </trkpt>
      <trkpt lat="41.9323468208313" lon="2.7956771850585938">
        <ele>123.94475574053234</ele>
        <time>2021-07-28T18:00:33.417Z</time>
      </trkpt>
      <trkpt lat="41.93264722824097" lon="2.7957844734191895">
        <ele>123.83049980986291</ele>
        <time>2021-07-28T18:00:34.349Z</time>
      </trkpt>
      <trkpt lat="41.932926177978516" lon="2.7959346771240234">
        <ele>123.63934897926792</ele>
        <time>2021-07-28T18:00:35.286Z</time>
      </trkpt>
      <trkpt lat="41.93325877189636" lon="2.796149253845215">
        <ele>123.36786209736763</ele>
        <time>2021-07-28T18:00:36.228Z</time>
      </trkpt>
      <trkpt lat="41.93348407745361" lon="2.796342372894287">
        <ele>123.01772932737728</ele>
        <time>2021-07-28T18:00:37.175Z</time>
      </trkpt>
      <trkpt lat="41.93364509381354" lon="2.7965140342712402">
        <ele>122.60680219087877</ele>
        <time>2021-07-28T18:00:38.125Z</time>
      </trkpt>
      <trkpt lat="41.93431028164923" lon="2.797243595123291">
        <ele>122.01111905842956</ele>
        <time>2021-07-28T18:00:39.089Z</time>
      </trkpt>
      <trkpt lat="41.93483599461615" lon="2.7978122234344482">
        <ele>121.40565539456344</ele>
        <time>2021-07-28T18:00:40.064Z</time>
      </trkpt>
      <trkpt lat="41.935211420059204" lon="2.7982306480407715">
        <ele>120.78902761038987</ele>
        <time>2021-07-28T18:00:41.046Z</time>
      </trkpt>
      <trkpt lat="41.93529725074768" lon="2.798295021057129">
        <ele>120.1506773911899</ele>
        <time>2021-07-28T18:00:42.030Z</time>
      </trkpt>
      <trkpt lat="41.93532943725586" lon="2.7983486652374268">
        <ele>119.48785989430385</ele>
        <time>2021-07-28T18:00:43.015Z</time>
      </trkpt>
      <trkpt lat="41.93537243641913" lon="2.798391580581665">
        <ele>118.79824528942603</ele>
        <time>2021-07-28T18:00:44.001Z</time>
      </trkpt>
      <trkpt lat="41.935468995943666" lon="2.7984023094177246">
        <ele>118.08027524468284</ele>
        <time>2021-07-28T18:00:44.988Z</time>
      </trkpt>
      <trkpt lat="41.93549036979675" lon="2.7984023094177246">
        <ele>117.3641215402811</ele>
        <time>2021-07-28T18:00:45.976Z</time>
      </trkpt>
      <trkpt lat="41.93558692932129" lon="2.7984559535980225">
        <ele>116.64426211069551</ele>
        <time>2021-07-28T18:00:46.965Z</time>
      </trkpt>
      <trkpt lat="41.935683488845825" lon="2.7985525131225586">
        <ele>115.94062986739013</ele>
        <time>2021-07-28T18:00:47.956Z</time>
      </trkpt>
      <trkpt lat="41.93703532218933" lon="2.8000009059906006">
        <ele>115.10526920169804</ele>
        <time>2021-07-28T18:00:48.975Z</time>
      </trkpt>
      <trkpt lat="41.93755030632019" lon="2.800537347793579">
        <ele>114.41916972441808</ele>
        <time>2021-07-28T18:00:50.004Z</time>
      </trkpt>
      <trkpt lat="41.9378399848938" lon="2.800816297531128">
        <ele>113.81171462891345</ele>
        <time>2021-07-28T18:00:51.039Z</time>
      </trkpt>
      <trkpt lat="41.938430070877075" lon="2.801309823989868">
        <ele>113.24668841914675</ele>
        <time>2021-07-28T18:00:52.085Z</time>
      </trkpt>
      <trkpt lat="41.94031842984259" lon="2.8025972843170166">
        <ele>112.6552660314314</ele>
        <time>2021-07-28T18:00:53.165Z</time>
      </trkpt>
      <trkpt lat="41.940447092056274" lon="2.8026723861694336">
        <ele>112.22813931047817</ele>
        <time>2021-07-28T18:00:54.247Z</time>
      </trkpt>
      <trkpt lat="41.94054365158081" lon="2.8028225898742676">
        <ele>111.89253760570179</ele>
        <time>2021-07-28T18:00:55.332Z</time>
      </trkpt>
      <trkpt lat="41.94054365158081" lon="2.8029298782348633">
        <ele>111.67877770935713</ele>
        <time>2021-07-28T18:00:56.418Z</time>
      </trkpt>
      <trkpt lat="41.94057583808899" lon="2.80301570892334">
        <ele>111.5724379420135</ele>
        <time>2021-07-28T18:00:57.505Z</time>
      </trkpt>
      <trkpt lat="41.94062948226929" lon="2.803090810775757">
        <ele>111.58166782349272</ele>
        <time>2021-07-28T18:00:58.593Z</time>
      </trkpt>
      <trkpt lat="41.940693939104676" lon="2.803133726119995">
        <ele>111.71586611041556</ele>
        <time>2021-07-28T18:00:59.682Z</time>
      </trkpt>
      <trkpt lat="41.9408118724823" lon="2.8031444549560547">
        <ele>111.96636839675807</ele>
        <time>2021-07-28T18:01:00.773Z</time>
      </trkpt>
      <trkpt lat="41.940919160842896" lon="2.8031980991363525">
        <ele>112.34300435848041</ele>
        <time>2021-07-28T18:01:01.866Z</time>
      </trkpt>
      <trkpt lat="41.94100499153137" lon="2.803283929824829">
        <ele>112.85347378884737</ele>
        <time>2021-07-28T18:01:02.961Z</time>
      </trkpt>
      <trkpt lat="41.94213151931763" lon="2.805086374282837">
        <ele>113.44630900250934</ele>
        <time>2021-07-28T18:01:04.084Z</time>
      </trkpt>
      <trkpt lat="41.942185163497925" lon="2.8053224086761475">
        <ele>114.26327898115302</ele>
        <time>2021-07-28T18:01:05.210Z</time>
      </trkpt>
      <trkpt lat="41.942174434661865" lon="2.805429697036743">
        <ele>115.18827331409122</ele>
        <time>2021-07-28T18:01:06.337Z</time>
      </trkpt>
      <trkpt lat="41.942185163497925" lon="2.805536985397339">
        <ele>116.20655171855026</ele>
        <time>2021-07-28T18:01:07.465Z</time>
      </trkpt>
      <trkpt lat="41.942431926727295" lon="2.8060734272003174">
        <ele>117.42157594428923</ele>
        <time>2021-07-28T18:01:08.601Z</time>
      </trkpt>
      <trkpt lat="41.9413161277771" lon="2.8070068359375">
        <ele>119.27478823958123</ele>
        <time>2021-07-28T18:01:09.758Z</time>
      </trkpt>
      <trkpt lat="41.94064021110535" lon="2.8075432777404785">
        <ele>120.5594748824938</ele>
        <time>2021-07-28T18:01:10.928Z</time>
      </trkpt>
      <trkpt lat="41.940726125612855" lon="2.807725667953491">
        <ele>121.76579361340373</ele>
        <time>2021-07-28T18:01:12.100Z</time>
      </trkpt>
      <trkpt lat="41.940940702334046" lon="2.808229923248291">
        <ele>122.95639913832815</ele>
        <time>2021-07-28T18:01:13.279Z</time>
      </trkpt>
      <trkpt lat="41.94108009338379" lon="2.8085410594940186">
        <ele>124.02594434675743</ele>
        <time>2021-07-28T18:01:14.462Z</time>
      </trkpt>
      <trkpt lat="41.941230380907655" lon="2.8087234497070312">
        <ele>124.99808042714665</ele>
        <time>2021-07-28T18:01:15.649Z</time>
      </trkpt>
      <trkpt lat="41.94226034916937" lon="2.809903621673584">
        <ele>125.88651562628567</ele>
        <time>2021-07-28T18:01:16.857Z</time>
      </trkpt>
      <trkpt lat="41.94255002774298" lon="2.8102147579193115">
        <ele>126.69749576648078</ele>
        <time>2021-07-28T18:01:18.071Z</time>
      </trkpt>
      <trkpt lat="41.94260367192328" lon="2.810279130935669">
        <ele>127.40267114995798</ele>
        <time>2021-07-28T18:01:19.286Z</time>
      </trkpt>
      <trkpt lat="41.942957639694214" lon="2.8107190132141113">
        <ele>128.0382569938732</ele>
        <time>2021-07-28T18:01:20.509Z</time>
      </trkpt>
      <trkpt lat="41.94332250393927" lon="2.81125545501709">
        <ele>128.52584489365825</ele>
        <time>2021-07-28T18:01:21.741Z</time>
      </trkpt>
      <trkpt lat="41.94376238621771" lon="2.811856269836426">
        <ele>128.89885011501474</ele>
        <time>2021-07-28T18:01:22.983Z</time>
      </trkpt>
      <trkpt lat="41.94376230239868" lon="2.811856269836426">
        <ele>129.2001193706941</ele>
        <time>2021-07-28T18:01:24.225Z</time>
      </trkpt>
      <trkpt lat="41.94381594657898" lon="2.8119421005249023">
        <ele>129.40027417675782</ele>
        <time>2021-07-28T18:01:25.468Z</time>
      </trkpt>
      <trkpt lat="41.944223726168275" lon="2.8123068809509277">
        <ele>129.48613805645195</ele>
        <time>2021-07-28T18:01:26.719Z</time>
      </trkpt>
      <trkpt lat="41.94450259208679" lon="2.8125">
        <ele>129.50127476987677</ele>
        <time>2021-07-28T18:01:27.975Z</time>
      </trkpt>
      <trkpt lat="41.94506049156189" lon="2.812854051589966">
        <ele>129.53235903089765</ele>
        <time>2021-07-28T18:01:29.241Z</time>
      </trkpt>
      <trkpt lat="41.94526442326605" lon="2.812972068786621">
        <ele>129.52915561118715</ele>
        <time>2021-07-28T18:01:30.511Z</time>
      </trkpt>
      <trkpt lat="41.94528588093817" lon="2.8129827976226807">
        <ele>129.39289999220043</ele>
        <time>2021-07-28T18:01:31.781Z</time>
      </trkpt>
      <trkpt lat="41.946144104003906" lon="2.813422679901123">
        <ele>129.31231101423108</ele>
        <time>2021-07-28T18:01:33.066Z</time>
      </trkpt>
      <trkpt lat="41.94647669792175" lon="2.813647985458374">
        <ele>128.98209199363674</ele>
        <time>2021-07-28T18:01:34.357Z</time>
      </trkpt>
      <trkpt lat="41.94661617279053" lon="2.813894748687744">
        <ele>128.64579356578096</ele>
        <time>2021-07-28T18:01:35.651Z</time>
      </trkpt>
      <trkpt lat="41.946659088134766" lon="2.8139591217041016">
        <ele>128.33733939551044</ele>
        <time>2021-07-28T18:01:36.946Z</time>
      </trkpt>
      <trkpt lat="41.946702003479004" lon="2.8139805793762207">
        <ele>128.03048618704386</ele>
        <time>2021-07-28T18:01:38.242Z</time>
      </trkpt>
      <trkpt lat="41.94674491882324" lon="2.813969850540161">
        <ele>127.73577612106146</ele>
        <time>2021-07-28T18:01:39.539Z</time>
      </trkpt>
      <trkpt lat="41.946905851364136" lon="2.8139805793762207">
        <ele>127.4274671137997</ele>
        <time>2021-07-28T18:01:40.838Z</time>
      </trkpt>
      <trkpt lat="41.94701313972473" lon="2.8140664100646973">
        <ele>127.15159980118989</ele>
        <time>2021-07-28T18:01:42.139Z</time>
      </trkpt>
      <trkpt lat="41.947195529937744" lon="2.814195156097412">
        <ele>126.89375377201684</ele>
        <time>2021-07-28T18:01:43.444Z</time>
      </trkpt>
      <trkpt lat="41.94734573364258" lon="2.8142595291137695">
        <ele>126.686263294632</ele>
        <time>2021-07-28T18:01:44.751Z</time>
      </trkpt>
      <trkpt lat="41.94757103919983" lon="2.814323902130127">
        <ele>126.62158183376584</ele>
        <time>2021-07-28T18:01:46.062Z</time>
      </trkpt>
      <trkpt lat="41.94782853126526" lon="2.8143346309661865">
        <ele>126.6603074393318</ele>
        <time>2021-07-28T18:01:47.377Z</time>
      </trkpt>
      <trkpt lat="41.948193395510316" lon="2.8144311904907227">
        <ele>126.7634023043519</ele>
        <time>2021-07-28T18:01:48.698Z</time>
      </trkpt>
      <trkpt lat="41.948493802919984" lon="2.8145599365234375">
        <ele>126.98399758952453</ele>
        <time>2021-07-28T18:01:50.024Z</time>
      </trkpt>
      <trkpt lat="41.94849371910095" lon="2.8145599365234375">
        <ele>127.21096419870469</ele>
        <time>2021-07-28T18:01:51.350Z</time>
      </trkpt>
      <trkpt lat="41.94878348149359" lon="2.814699411392212">
        <ele>127.57043022882857</ele>
        <time>2021-07-28T18:01:52.681Z</time>
      </trkpt>
      <trkpt lat="41.94899797439575" lon="2.8147637844085693">
        <ele>127.97264097739243</ele>
        <time>2021-07-28T18:01:54.015Z</time>
      </trkpt>
      <trkpt lat="41.94924473762512" lon="2.814795970916748">
        <ele>128.46316487277457</ele>
        <time>2021-07-28T18:01:55.353Z</time>
      </trkpt>
      <trkpt lat="41.949427127838135" lon="2.814871072769165">
        <ele>129.0012428217958</ele>
        <time>2021-07-28T18:01:56.694Z</time>
      </trkpt>
      <trkpt lat="41.949909925460815" lon="2.815150022506714">
        <ele>129.65080368983286</ele>
        <time>2021-07-28T18:01:58.044Z</time>
      </trkpt>
      <trkpt lat="41.95024251937866" lon="2.815343141555786">
        <ele>130.3363066382165</ele>
        <time>2021-07-28T18:01:59.400Z</time>
      </trkpt>
      <trkpt lat="41.95045709609985" lon="2.8155040740966797">
        <ele>131.02153125988517</ele>
        <time>2021-07-28T18:02:00.760Z</time>
      </trkpt>
      <trkpt lat="41.95058584213257" lon="2.8156328201293945">
        <ele>131.72031808551844</ele>
        <time>2021-07-28T18:02:02.122Z</time>
      </trkpt>
      <trkpt lat="41.95099353790283" lon="2.816190719604492">
        <ele>132.37952360545924</ele>
        <time>2021-07-28T18:02:03.493Z</time>
      </trkpt>
      <trkpt lat="41.95111163891852" lon="2.8164589405059814">
        <ele>133.0632691168674</ele>
        <time>2021-07-28T18:02:04.868Z</time>
      </trkpt>
      <trkpt lat="41.95125102996826" lon="2.8167378902435303">
        <ele>133.76409992650147</ele>
        <time>2021-07-28T18:02:06.247Z</time>
      </trkpt>
      <trkpt lat="41.951433420181274" lon="2.816973924636841">
        <ele>134.5776577334246</ele>
        <time>2021-07-28T18:02:07.630Z</time>
      </trkpt>
      <trkpt lat="41.95157289505005" lon="2.817070484161377">
        <ele>135.3174752142307</ele>
        <time>2021-07-28T18:02:09.016Z</time>
      </trkpt>
      <trkpt lat="41.951884031295776" lon="2.8172099590301514">
        <ele>136.0833401389997</ele>
        <time>2021-07-28T18:02:10.407Z</time>
      </trkpt>
      <trkpt lat="41.952173709869385" lon="2.8173816204071045">
        <ele>136.85743057909576</ele>
        <time>2021-07-28T18:02:11.803Z</time>
      </trkpt>
      <trkpt lat="41.952677965164185" lon="2.817789316177368">
        <ele>137.61505930700457</ele>
        <time>2021-07-28T18:02:13.208Z</time>
      </trkpt>
      <trkpt lat="41.95279598236084" lon="2.8179073333740234">
        <ele>138.2567389043196</ele>
        <time>2021-07-28T18:02:14.616Z</time>
      </trkpt>
      <trkpt lat="41.95279606617987" lon="2.8179073333740234">
        <ele>138.8489213139435</ele>
        <time>2021-07-28T18:02:16.024Z</time>
      </trkpt>
      <trkpt lat="41.95309638977051" lon="2.8180789947509766">
        <ele>139.3917717071664</ele>
        <time>2021-07-28T18:02:17.437Z</time>
      </trkpt>
      <trkpt lat="41.95324659347534" lon="2.8181111812591553">
        <ele>139.86352329845832</ele>
        <time>2021-07-28T18:02:18.852Z</time>
      </trkpt>
      <trkpt lat="41.95348262786865" lon="2.818218469619751">
        <ele>140.29184582497714</ele>
        <time>2021-07-28T18:02:20.271Z</time>
      </trkpt>
      <trkpt lat="41.953922593966126" lon="2.8185617923736572">
        <ele>140.67033595937335</ele>
        <time>2021-07-28T18:02:21.699Z</time>
      </trkpt>
      <trkpt lat="41.95436239242554" lon="2.8189265727996826">
        <ele>140.95385855542173</ele>
        <time>2021-07-28T18:02:23.135Z</time>
      </trkpt>
      <trkpt lat="41.95509203709662" lon="2.8194522857666016">
        <ele>141.05470886152654</ele>
        <time>2021-07-28T18:02:24.584Z</time>
      </trkpt>
      <trkpt lat="41.95537090301514" lon="2.8196561336517334">
        <ele>140.87588016408438</ele>
        <time>2021-07-28T18:02:26.038Z</time>
      </trkpt>
      <trkpt lat="41.95561775006354" lon="2.8197526931762695">
        <ele>140.57114543798934</ele>
        <time>2021-07-28T18:02:27.496Z</time>
      </trkpt>
      <trkpt lat="41.955885887145996" lon="2.8198277950286865">
        <ele>140.17922889315264</ele>
        <time>2021-07-28T18:02:28.959Z</time>
      </trkpt>
      <trkpt lat="41.956712091341615" lon="2.8199243545532227">
        <ele>139.68389599924325</ele>
        <time>2021-07-28T18:02:30.435Z</time>
      </trkpt>
      <trkpt lat="41.95685148239136" lon="2.8199350833892822">
        <ele>139.01377987743098</ele>
        <time>2021-07-28T18:02:31.913Z</time>
      </trkpt>
      <trkpt lat="41.95685156621039" lon="2.8199350833892822">
        <ele>138.2168632787786</ele>
        <time>2021-07-28T18:02:33.391Z</time>
      </trkpt>
      <trkpt lat="41.95750594139099" lon="2.819892168045044">
        <ele>137.1602542361527</ele>
        <time>2021-07-28T18:02:34.880Z</time>
      </trkpt>
      <trkpt lat="41.95782780647278" lon="2.8198599815368652">
        <ele>136.01467980217785</ele>
        <time>2021-07-28T18:02:36.374Z</time>
      </trkpt>
      <trkpt lat="41.959683978930116" lon="2.819795608520508">
        <ele>134.7622008573412</ele>
        <time>2021-07-28T18:02:37.898Z</time>
      </trkpt>
      <trkpt lat="41.959683895111084" lon="2.819795608520508">
        <ele>133.39938834207453</ele>
        <time>2021-07-28T18:02:39.422Z</time>
      </trkpt>
      <trkpt lat="41.960424184799194" lon="2.819763422012329">
        <ele>131.8524622967253</ele>
        <time>2021-07-28T18:02:40.957Z</time>
      </trkpt>
      <trkpt lat="41.960874795913696" lon="2.819795608520508">
        <ele>130.1462981939165</ele>
        <time>2021-07-28T18:02:42.500Z</time>
      </trkpt>
      <trkpt lat="41.961400508880615" lon="2.819838523864746">
        <ele>128.26490451532374</ele>
        <time>2021-07-28T18:02:44.051Z</time>
      </trkpt>
      <trkpt lat="41.96215161122382" lon="2.8199779987335205">
        <ele>126.22145880872283</ele>
        <time>2021-07-28T18:02:45.614Z</time>
      </trkpt>
      <trkpt lat="41.96276315487921" lon="2.820117473602295">
        <ele>124.19544854796729</ele>
        <time>2021-07-28T18:02:47.187Z</time>
      </trkpt>
      <trkpt lat="41.96276307106018" lon="2.820117473602295">
        <ele>122.33350840707382</ele>
        <time>2021-07-28T18:02:48.760Z</time>
      </trkpt>
      <trkpt lat="41.962902545928955" lon="2.820160388946533">
        <ele>120.42157920547021</ele>
        <time>2021-07-28T18:02:50.335Z</time>
      </trkpt>
      <trkpt lat="41.96363219060004" lon="2.82049298286438">
        <ele>118.25280972833613</ele>
        <time>2021-07-28T18:02:51.923Z</time>
      </trkpt>
      <trkpt lat="41.96403980255127" lon="2.820643186569214">
        <ele>116.13972522932629</ele>
        <time>2021-07-28T18:02:53.517Z</time>
      </trkpt>
      <trkpt lat="41.96460851468146" lon="2.820793390274048">
        <ele>114.1539611560661</ele>
        <time>2021-07-28T18:02:55.121Z</time>
      </trkpt>
      <trkpt lat="41.9648015499115" lon="2.8208255767822266">
        <ele>112.38830377649614</ele>
        <time>2021-07-28T18:02:56.728Z</time>
      </trkpt>
      <trkpt lat="41.96525224484503" lon="2.820868492126465">
        <ele>110.582719251029</ele>
        <time>2021-07-28T18:02:58.342Z</time>
      </trkpt>
      <trkpt lat="41.965252161026" lon="2.820868492126465">
        <ele>109.09076124824833</ele>
        <time>2021-07-28T18:02:59.956Z</time>
      </trkpt>
      <trkpt lat="41.965906620025635" lon="2.8208792209625244">
        <ele>107.44815969836736</ele>
        <time>2021-07-28T18:03:01.581Z</time>
      </trkpt>
      <trkpt lat="41.96604617871344" lon="2.820868492126465">
        <ele>106.16458750380826</ele>
        <time>2021-07-28T18:03:03.208Z</time>
      </trkpt>
      <trkpt lat="41.96604609489441" lon="2.820868492126465">
        <ele>105.02813566403789</ele>
        <time>2021-07-28T18:03:04.835Z</time>
      </trkpt>
      <trkpt lat="41.96606755256653" lon="2.82098650932312">
        <ele>104.04137592737212</ele>
        <time>2021-07-28T18:03:06.463Z</time>
      </trkpt>
      <trkpt lat="41.96611046791077" lon="2.821040153503418">
        <ele>103.13032538267223</ele>
        <time>2021-07-28T18:03:08.092Z</time>
      </trkpt>
      <trkpt lat="41.966153383255005" lon="2.8210508823394775">
        <ele>102.29394457447833</ele>
        <time>2021-07-28T18:03:09.722Z</time>
      </trkpt>
      <trkpt lat="41.966196382418275" lon="2.8212332725524902">
        <ele>101.58809315653073</ele>
        <time>2021-07-28T18:03:11.354Z</time>
      </trkpt>
      <trkpt lat="41.96631439961493" lon="2.821662425994873">
        <ele>100.94083135281969</ele>
        <time>2021-07-28T18:03:12.992Z</time>
      </trkpt>
      <trkpt lat="41.96647524833679" lon="2.8221237659454346">
        <ele>100.20737115322795</ele>
        <time>2021-07-28T18:03:14.636Z</time>
      </trkpt>
      <trkpt lat="41.966625452041626" lon="2.8224563598632812">
        <ele>99.4822468676749</ele>
        <time>2021-07-28T18:03:16.284Z</time>
      </trkpt>
      <trkpt lat="41.96674355305731" lon="2.8226816654205322">
        <ele>98.78428458809901</ele>
        <time>2021-07-28T18:03:17.936Z</time>
      </trkpt>
      <trkpt lat="41.96674346923828" lon="2.8226816654205322">
        <ele>98.17329097272973</ele>
        <time>2021-07-28T18:03:19.588Z</time>
      </trkpt>
      <trkpt lat="41.966882944107056" lon="2.822906970977783">
        <ele>97.47505637189734</ele>
        <time>2021-07-28T18:03:21.243Z</time>
      </trkpt>
      <trkpt lat="41.96707606315613" lon="2.823164463043213">
        <ele>96.7280547690529</ele>
        <time>2021-07-28T18:03:22.902Z</time>
      </trkpt>
      <trkpt lat="41.96727991104126" lon="2.823357582092285">
        <ele>95.98033632036694</ele>
        <time>2021-07-28T18:03:24.565Z</time>
      </trkpt>
      <trkpt lat="41.967473113909364" lon="2.823507785797119">
        <ele>95.23755097081917</ele>
        <time>2021-07-28T18:03:26.232Z</time>
      </trkpt>
      <trkpt lat="41.96747303009033" lon="2.823507785797119">
        <ele>94.52997082936608</ele>
        <time>2021-07-28T18:03:27.899Z</time>
      </trkpt>
      <trkpt lat="41.967612504959106" lon="2.823561429977417">
        <ele>93.73756622575884</ele>
        <time>2021-07-28T18:03:29.568Z</time>
      </trkpt>
      <trkpt lat="41.967655420303345" lon="2.823636531829834">
        <ele>92.93294221570986</ele>
        <time>2021-07-28T18:03:31.238Z</time>
      </trkpt>
      <trkpt lat="41.967698419466615" lon="2.8236687183380127">
        <ele>92.08543752620439</ele>
        <time>2021-07-28T18:03:32.909Z</time>
      </trkpt>
      <trkpt lat="41.96773052215576" lon="2.8236794471740723">
        <ele>91.19521596520187</ele>
        <time>2021-07-28T18:03:34.581Z</time>
      </trkpt>
      <trkpt lat="41.96778416633606" lon="2.823636531829834">
        <ele>90.25005004042629</ele>
        <time>2021-07-28T18:03:36.254Z</time>
      </trkpt>
      <trkpt lat="41.96784853935242" lon="2.823657989501953">
        <ele>89.25712392909136</ele>
        <time>2021-07-28T18:03:37.928Z</time>
      </trkpt>
      <trkpt lat="41.968460166826844" lon="2.823861837387085">
        <ele>87.94889276680074</ele>
        <time>2021-07-28T18:03:39.612Z</time>
      </trkpt>
      <trkpt lat="41.96846008300781" lon="2.823861837387085">
        <ele>86.92091810602066</ele>
        <time>2021-07-28T18:03:41.296Z</time>
      </trkpt>
      <trkpt lat="41.96858882904053" lon="2.8239047527313232">
        <ele>85.79350157110275</ele>
        <time>2021-07-28T18:03:42.982Z</time>
      </trkpt>
      <trkpt lat="41.96954377926886" lon="2.8241515159606934">
        <ele>84.48144680801865</ele>
        <time>2021-07-28T18:03:44.684Z</time>
      </trkpt>
      <trkpt lat="41.97006949223578" lon="2.824205160140991">
        <ele>83.42492482049428</ele>
        <time>2021-07-28T18:03:46.394Z</time>
      </trkpt>
      <trkpt lat="41.97078832425177" lon="2.8242909908294678">
        <ele>82.2429055143197</ele>
        <time>2021-07-28T18:03:48.116Z</time>
      </trkpt>
      <trkpt lat="41.97078824043274" lon="2.8242909908294678">
        <ele>81.27420732680794</ele>
        <time>2021-07-28T18:03:49.838Z</time>
      </trkpt>
      <trkpt lat="41.97206505574286" lon="2.824430465698242">
        <ele>80.16067709582681</ele>
        <time>2021-07-28T18:03:51.580Z</time>
      </trkpt>
      <trkpt lat="41.972622871398926" lon="2.82448410987854">
        <ele>79.28387797921219</ele>
        <time>2021-07-28T18:03:53.331Z</time>
      </trkpt>
      <trkpt lat="41.97281607426703" lon="2.8244733810424805">
        <ele>78.46199104996948</ele>
        <time>2021-07-28T18:03:55.085Z</time>
      </trkpt>
      <trkpt lat="41.97295546531677" lon="2.8244197368621826">
        <ele>77.72220392076423</ele>
        <time>2021-07-28T18:03:56.841Z</time>
      </trkpt>
      <trkpt lat="41.973191583529115" lon="2.8243982791900635">
        <ele>77.04560384365541</ele>
        <time>2021-07-28T18:03:58.601Z</time>
      </trkpt>
      <trkpt lat="41.973427617922425" lon="2.824409008026123">
        <ele>76.42602160819916</ele>
        <time>2021-07-28T18:04:00.365Z</time>
      </trkpt>
      <trkpt lat="41.973652839660645" lon="2.8244411945343018">
        <ele>75.89084660217941</ele>
        <time>2021-07-28T18:04:02.133Z</time>
      </trkpt>
      <trkpt lat="41.97376021184027" lon="2.82448410987854">
        <ele>75.43513411475016</ele>
        <time>2021-07-28T18:04:03.902Z</time>
      </trkpt>
      <trkpt lat="41.97376012802124" lon="2.82448410987854">
        <ele>75.05901521664896</ele>
        <time>2021-07-28T18:04:05.671Z</time>
      </trkpt>
      <trkpt lat="41.973867416381836" lon="2.824537754058838">
        <ele>74.73293232608737</ele>
        <time>2021-07-28T18:04:07.442Z</time>
      </trkpt>
      <trkpt lat="41.973867416381836" lon="2.8246450424194336">
        <ele>74.47016921003569</ele>
        <time>2021-07-28T18:04:09.215Z</time>
      </trkpt>
      <trkpt lat="41.973888874053955" lon="2.82473087310791">
        <ele>74.26146200252495</ele>
        <time>2021-07-28T18:04:10.989Z</time>
      </trkpt>
      <trkpt lat="41.97393178939819" lon="2.8248167037963867">
        <ele>74.09990067142928</ele>
        <time>2021-07-28T18:04:12.764Z</time>
      </trkpt>
      <trkpt lat="41.97400689125061" lon="2.8248918056488037">
        <ele>73.9802218167373</ele>
        <time>2021-07-28T18:04:14.540Z</time>
      </trkpt>
      <trkpt lat="41.974135637283325" lon="2.8249454498291016">
        <ele>73.90088811952248</ele>
        <time>2021-07-28T18:04:16.318Z</time>
      </trkpt>
      <trkpt lat="41.97424292564392" lon="2.824913263320923">
        <ele>73.8675806703905</ele>
        <time>2021-07-28T18:04:18.098Z</time>
      </trkpt>
      <trkpt lat="41.97431802749634" lon="2.824838161468506">
        <ele>73.8653154443773</ele>
        <time>2021-07-28T18:04:19.880Z</time>
      </trkpt>
      <trkpt lat="41.974382400512695" lon="2.8247201442718506">
        <ele>73.88869320109862</ele>
        <time>2021-07-28T18:04:21.663Z</time>
      </trkpt>
      <trkpt lat="41.97450050152838" lon="2.824763059616089">
        <ele>73.91586541180592</ele>
        <time>2021-07-28T18:04:23.448Z</time>
      </trkpt>
      <trkpt lat="41.9745219592005" lon="2.8247737884521484">
        <ele>73.95832928728174</ele>
        <time>2021-07-28T18:04:25.234Z</time>
      </trkpt>
      <trkpt lat="41.97454341687262" lon="2.8246772289276123">
        <ele>74.01712399587566</ele>
        <time>2021-07-28T18:04:27.021Z</time>
      </trkpt>
      <trkpt lat="41.97456479072571" lon="2.8246021270751953">
        <ele>74.06492571827863</ele>
        <time>2021-07-28T18:04:28.809Z</time>
      </trkpt>
      <trkpt lat="41.97472580708563" lon="2.82473087310791">
        <ele>74.10943490268275</ele>
        <time>2021-07-28T18:04:30.600Z</time>
      </trkpt>
      <trkpt lat="41.97503685951233" lon="2.82498836517334">
        <ele>74.17162050480687</ele>
        <time>2021-07-28T18:04:32.397Z</time>
      </trkpt>
      <trkpt lat="41.97509050369263" lon="2.825009822845459">
        <ele>74.23894291315872</ele>
        <time>2021-07-28T18:04:34.195Z</time>
      </trkpt>
      <trkpt lat="41.97521924972534" lon="2.824913263320923">
        <ele>74.3011472810808</ele>
        <time>2021-07-28T18:04:35.995Z</time>
      </trkpt>
      <trkpt lat="41.97530516423285" lon="2.8248167037963867">
        <ele>74.35762730476787</ele>
        <time>2021-07-28T18:04:37.797Z</time>
      </trkpt>
      <trkpt lat="41.97530508041382" lon="2.8248167037963867">
        <ele>74.41274009539673</ele>
        <time>2021-07-28T18:04:39.599Z</time>
      </trkpt>
      <trkpt lat="41.97555184364319" lon="2.824580669403076">
        <ele>74.46694548706648</ele>
        <time>2021-07-28T18:04:41.406Z</time>
      </trkpt>
      <trkpt lat="41.9757878780365" lon="2.824387550354004">
        <ele>74.51260769423959</ele>
        <time>2021-07-28T18:04:43.217Z</time>
      </trkpt>
      <trkpt lat="41.976163387298584" lon="2.8242266178131104">
        <ele>74.52443280011606</ele>
        <time>2021-07-28T18:04:45.034Z</time>
      </trkpt>
      <trkpt lat="41.97654962539673" lon="2.8241515159606934">
        <ele>74.56168531421463</ele>
        <time>2021-07-28T18:04:46.858Z</time>
      </trkpt>
      <trkpt lat="41.97680711746216" lon="2.824162244796753">
        <ele>74.59302905170844</ele>
        <time>2021-07-28T18:04:48.686Z</time>
      </trkpt>
      <trkpt lat="41.97732218541205" lon="2.824215888977051">
        <ele>74.6138887788681</ele>
        <time>2021-07-28T18:04:50.522Z</time>
      </trkpt>
      <trkpt lat="41.97732210159302" lon="2.824215888977051">
        <ele>74.68988472673496</ele>
        <time>2021-07-28T18:04:52.358Z</time>
      </trkpt>
      <trkpt lat="41.97757967747748" lon="2.82423734664917">
        <ele>74.82089027468706</ele>
        <time>2021-07-28T18:04:54.198Z</time>
      </trkpt>
      <trkpt lat="41.97774052619934" lon="2.8242480754852295">
        <ele>74.96393769050212</ele>
        <time>2021-07-28T18:04:56.041Z</time>
      </trkpt>
      <trkpt lat="41.97774061001837" lon="2.824333906173706">
        <ele>75.05727940995052</ele>
        <time>2021-07-28T18:04:57.885Z</time>
      </trkpt>
      <trkpt lat="41.97777279652655" lon="2.8243446350097656">
        <ele>75.16207040135656</ele>
        <time>2021-07-28T18:04:59.729Z</time>
      </trkpt>
      <trkpt lat="41.97777271270752" lon="2.8243446350097656">
        <ele>75.25455666071588</ele>
        <time>2021-07-28T18:05:01.573Z</time>
      </trkpt>
      <trkpt lat="41.97803020477295" lon="2.8243768215179443">
        <ele>75.42724144738742</ele>
        <time>2021-07-28T18:05:03.421Z</time>
      </trkpt>
      <trkpt lat="41.978116035461426" lon="2.824409008026123">
        <ele>75.53467142003959</ele>
        <time>2021-07-28T18:05:05.271Z</time>
      </trkpt>
      <trkpt lat="41.978137493133545" lon="2.824387550354004">
        <ele>75.60908638110968</ele>
        <time>2021-07-28T18:05:07.121Z</time>
      </trkpt>
      <trkpt lat="41.97851300239563" lon="2.8244197368621826">
        <ele>75.71458786883323</ele>
        <time>2021-07-28T18:05:08.977Z</time>
      </trkpt>
      <trkpt lat="41.97853446006775" lon="2.824409008026123">
        <ele>75.74267394743515</ele>
        <time>2021-07-28T18:05:10.834Z</time>
      </trkpt>
      <trkpt lat="41.978910053148866" lon="2.824462652206421">
        <ele>75.69444827918433</ele>
        <time>2021-07-28T18:05:12.697Z</time>
      </trkpt>
      <trkpt lat="41.97948932647705" lon="2.824409008026123">
        <ele>75.68615019406744</ele>
        <time>2021-07-28T18:05:14.569Z</time>
      </trkpt>
      <trkpt lat="41.980186784639955" lon="2.824312448501587">
        <ele>75.64331607109844</ele>
        <time>2021-07-28T18:05:16.452Z</time>
      </trkpt>
      <trkpt lat="41.98028326034546" lon="2.8242909908294678">
        <ele>75.62681535609701</ele>
        <time>2021-07-28T18:05:18.337Z</time>
      </trkpt>
      <trkpt lat="41.98050864972174" lon="2.8241729736328125">
        <ele>75.58223917438825</ele>
        <time>2021-07-28T18:05:20.226Z</time>
      </trkpt>
      <trkpt lat="41.98053002357483" lon="2.824162244796753">
        <ele>75.56252555639458</ele>
        <time>2021-07-28T18:05:22.115Z</time>
      </trkpt>
      <trkpt lat="41.98054083622992" lon="2.8241944313049316">
        <ele>75.5385641822421</ele>
        <time>2021-07-28T18:05:24.004Z</time>
      </trkpt>
      <trkpt lat="41.98054075241089" lon="2.8241944313049316">
        <ele>75.51109227835238</ele>
        <time>2021-07-28T18:05:25.893Z</time>
      </trkpt>
      <trkpt lat="41.98054075241089" lon="2.824215888977051">
        <ele>75.48142150391277</ele>
        <time>2021-07-28T18:05:27.783Z</time>
      </trkpt>
      <trkpt lat="41.98061593808234" lon="2.824183702468872">
        <ele>75.45575995660428</ele>
        <time>2021-07-28T18:05:29.674Z</time>
      </trkpt>
      <trkpt lat="41.98103436268866" lon="2.823936939239502">
        <ele>75.54936708561591</ele>
        <time>2021-07-28T18:05:31.572Z</time>
      </trkpt>
      <trkpt lat="41.981163108721375" lon="2.823840379714966">
        <ele>75.55658376980631</ele>
        <time>2021-07-28T18:05:33.473Z</time>
      </trkpt>
      <trkpt lat="41.98122748173773" lon="2.823786735534668">
        <ele>75.48766789180752</ele>
        <time>2021-07-28T18:05:35.375Z</time>
      </trkpt>
      <trkpt lat="41.98144197463989" lon="2.823690176010132">
        <ele>75.3255734611421</ele>
        <time>2021-07-28T18:05:37.280Z</time>
      </trkpt>
      <trkpt lat="41.98176383972168" lon="2.823657989501953">
        <ele>75.21428941256829</ele>
        <time>2021-07-28T18:05:39.191Z</time>
      </trkpt>
      <trkpt lat="41.98196768760681" lon="2.8236687183380127">
        <ele>75.17775528346922</ele>
        <time>2021-07-28T18:05:41.105Z</time>
      </trkpt>
      <trkpt lat="41.982375383377075" lon="2.8237438201904297">
        <ele>75.19089068236039</ele>
        <time>2021-07-28T18:05:43.025Z</time>
      </trkpt>
      <trkpt lat="41.98249348439276" lon="2.823786735534668">
        <ele>75.14868553829902</ele>
        <time>2021-07-28T18:05:44.947Z</time>
      </trkpt>
      <trkpt lat="41.98275089263916" lon="2.8238189220428467">
        <ele>75.0629216837284</ele>
        <time>2021-07-28T18:05:46.874Z</time>
      </trkpt>
      <trkpt lat="41.98326596058905" lon="2.823936939239502">
        <ele>74.95339972212099</ele>
        <time>2021-07-28T18:05:48.809Z</time>
      </trkpt>
      <trkpt lat="41.98326587677002" lon="2.823936939239502">
        <ele>74.94386314934218</ele>
        <time>2021-07-28T18:05:50.744Z</time>
      </trkpt>
      <trkpt lat="41.98352345265448" lon="2.8240013122558594">
        <ele>74.92731693233414</ele>
        <time>2021-07-28T18:05:52.683Z</time>
      </trkpt>
      <trkpt lat="41.98377013206482" lon="2.8240764141082764">
        <ele>74.93038460840691</ele>
        <time>2021-07-28T18:05:54.626Z</time>
      </trkpt>
      <trkpt lat="41.9839955214411" lon="2.8241729736328125">
        <ele>74.95721309217272</ele>
        <time>2021-07-28T18:05:56.573Z</time>
      </trkpt>
      <trkpt lat="41.98427438735962" lon="2.824312448501587">
        <ele>75.0226101144934</ele>
        <time>2021-07-28T18:05:58.525Z</time>
      </trkpt>
      <trkpt lat="41.984413946047425" lon="2.8243660926818848">
        <ele>75.07965088868161</ele>
        <time>2021-07-28T18:06:00.479Z</time>
      </trkpt>
      <trkpt lat="41.98455333709717" lon="2.824409008026123">
        <ele>75.13178975673631</ele>
        <time>2021-07-28T18:06:02.435Z</time>
      </trkpt>
      <trkpt lat="41.98530435562134" lon="2.8247737884521484">
        <ele>75.32775652190413</ele>
        <time>2021-07-28T18:06:04.404Z</time>
      </trkpt>
      <trkpt lat="41.98530435562134" lon="2.824859619140625">
        <ele>75.40832783084574</ele>
        <time>2021-07-28T18:06:06.374Z</time>
      </trkpt>
      <trkpt lat="41.98533654212952" lon="2.8249669075012207">
        <ele>75.47951295861577</ele>
        <time>2021-07-28T18:06:08.346Z</time>
      </trkpt>
      <trkpt lat="41.985594034194946" lon="2.82498836517334">
        <ele>75.47308282720309</ele>
        <time>2021-07-28T18:06:10.322Z</time>
      </trkpt>
      <trkpt lat="41.98577642440796" lon="2.8249454498291016">
        <ele>75.40002572950132</ele>
        <time>2021-07-28T18:06:12.301Z</time>
      </trkpt>
      <trkpt lat="41.986645460128784" lon="2.8245699405670166">
        <ele>75.32414256890544</ele>
        <time>2021-07-28T18:06:14.294Z</time>
      </trkpt>
      <trkpt lat="41.9867205619812" lon="2.8245270252227783">
        <ele>75.17457666949352</ele>
        <time>2021-07-28T18:06:16.289Z</time>
      </trkpt>
      <trkpt lat="41.98675283230841" lon="2.824505567550659">
        <ele>75.00556513989352</ele>
        <time>2021-07-28T18:06:18.284Z</time>
      </trkpt>
      <trkpt lat="41.98683866299689" lon="2.824462652206421">
        <ele>74.78878296770577</ele>
        <time>2021-07-28T18:06:20.281Z</time>
      </trkpt>
      <trkpt lat="41.986892223358154" lon="2.824387550354004">
        <ele>74.48883798114716</ele>
        <time>2021-07-28T18:06:22.279Z</time>
      </trkpt>
      <trkpt lat="41.98708534240723" lon="2.8243231773376465">
        <ele>74.15813666620716</ele>
        <time>2021-07-28T18:06:24.280Z</time>
      </trkpt>
      <trkpt lat="41.98726781643927" lon="2.824280261993408">
        <ele>73.8404835649582</ele>
        <time>2021-07-28T18:06:26.284Z</time>
      </trkpt>
      <trkpt lat="41.98732137680054" lon="2.824258804321289">
        <ele>73.56227675952675</ele>
        <time>2021-07-28T18:06:28.289Z</time>
      </trkpt>
      <trkpt lat="41.987396478652954" lon="2.824183702468872">
        <ele>73.26355184197483</ele>
        <time>2021-07-28T18:06:30.295Z</time>
      </trkpt>
      <trkpt lat="41.98754668235779" lon="2.824140787124634">
        <ele>73.02027571502487</ele>
        <time>2021-07-28T18:06:32.304Z</time>
      </trkpt>
      <trkpt lat="41.98793292045593" lon="2.824205160140991">
        <ele>72.78803886028808</ele>
        <time>2021-07-28T18:06:34.319Z</time>
      </trkpt>
      <trkpt lat="41.98796510696411" lon="2.824215888977051">
        <ele>72.56503305922342</ele>
        <time>2021-07-28T18:06:36.335Z</time>
      </trkpt>
      <trkpt lat="41.98802947998047" lon="2.82423734664917">
        <ele>72.36224071052291</ele>
        <time>2021-07-28T18:06:38.352Z</time>
      </trkpt>
      <trkpt lat="41.98805102147162" lon="2.824258804321289">
        <ele>72.17080593762816</ele>
        <time>2021-07-28T18:06:40.369Z</time>
      </trkpt>
      <trkpt lat="41.988158226013184" lon="2.824258804321289">
        <ele>71.97146391987417</ele>
        <time>2021-07-28T18:06:42.388Z</time>
      </trkpt>
      <trkpt lat="41.98859819211066" lon="2.8243768215179443">
        <ele>71.74488859697624</ele>
        <time>2021-07-28T18:06:44.414Z</time>
      </trkpt>
      <trkpt lat="41.98873766697943" lon="2.824462652206421">
        <ele>71.55673125492311</ele>
        <time>2021-07-28T18:06:46.442Z</time>
      </trkpt>
      <trkpt lat="41.9887375831604" lon="2.824462652206421">
        <ele>71.36205233328812</ele>
        <time>2021-07-28T18:06:48.470Z</time>
      </trkpt>
      <trkpt lat="41.988877058029175" lon="2.8245699405670166">
        <ele>71.1750348273498</ele>
        <time>2021-07-28T18:06:50.501Z</time>
      </trkpt>
      <trkpt lat="41.98893070220947" lon="2.8246235847473145">
        <ele>70.97608125208197</ele>
        <time>2021-07-28T18:06:52.533Z</time>
      </trkpt>
      <trkpt lat="41.98901653289795" lon="2.8247416019439697">
        <ele>70.78100627286256</ele>
        <time>2021-07-28T18:06:54.567Z</time>
      </trkpt>
      <trkpt lat="41.989145362749696" lon="2.824956178665161">
        <ele>70.6003133434095</ele>
        <time>2021-07-28T18:06:56.604Z</time>
      </trkpt>
      <trkpt lat="41.989145278930664" lon="2.824956178665161">
        <ele>70.34628053555784</ele>
        <time>2021-07-28T18:06:58.641Z</time>
      </trkpt>
      <trkpt lat="41.98917746543884" lon="2.8250205516815186">
        <ele>70.09095189650425</ele>
        <time>2021-07-28T18:07:00.679Z</time>
      </trkpt>
      <trkpt lat="41.98923119343817" lon="2.8249239921569824">
        <ele>69.76144477484168</ele>
        <time>2021-07-28T18:07:02.719Z</time>
      </trkpt>
      <trkpt lat="41.989402854815125" lon="2.824580669403076">
        <ele>69.32476240169656</ele>
        <time>2021-07-28T18:07:04.764Z</time>
      </trkpt>
      <trkpt lat="41.98944568634033" lon="2.8244948387145996">
        <ele>68.98793730160034</ele>
        <time>2021-07-28T18:07:06.810Z</time>
      </trkpt>
      <trkpt lat="41.98958524502814" lon="2.8242695331573486">
        <ele>68.63757419205176</ele>
        <time>2021-07-28T18:07:08.859Z</time>
      </trkpt>
      <trkpt lat="41.989585161209106" lon="2.8242695331573486">
        <ele>68.31359585686619</ele>
        <time>2021-07-28T18:07:10.908Z</time>
      </trkpt>
      <trkpt lat="41.989649534225464" lon="2.8241729736328125">
        <ele>67.97795684911975</ele>
        <time>2021-07-28T18:07:12.959Z</time>
      </trkpt>
      <trkpt lat="41.98955305851996" lon="2.8239047527313232">
        <ele>67.57839613882932</ele>
        <time>2021-07-28T18:07:15.013Z</time>
      </trkpt>
      <trkpt lat="41.98949941433966" lon="2.823636531829834">
        <ele>67.21883116123547</ele>
        <time>2021-07-28T18:07:17.071Z</time>
      </trkpt>
      <trkpt lat="41.98949933052063" lon="2.823615074157715">
        <ele>66.96378133572907</ele>
        <time>2021-07-28T18:07:19.129Z</time>
      </trkpt>
      <trkpt lat="41.98949941433966" lon="2.8235721588134766">
        <ele>66.74094405086882</ele>
        <time>2021-07-28T18:07:21.187Z</time>
      </trkpt>
      <trkpt lat="41.98949933052063" lon="2.823539972305298">
        <ele>66.56381262241106</ele>
        <time>2021-07-28T18:07:23.246Z</time>
      </trkpt>
      <trkpt lat="41.98946714401245" lon="2.822831869125366">
        <ele>66.48193159038738</ele>
        <time>2021-07-28T18:07:25.313Z</time>
      </trkpt>
      <trkpt lat="41.98946722783148" lon="2.822810411453247">
        <ele>66.41310858533095</ele>
        <time>2021-07-28T18:07:27.381Z</time>
      </trkpt>
      <trkpt lat="41.989392125979066" lon="2.822542190551758">
        <ele>66.41224804922174</ele>
        <time>2021-07-28T18:07:29.452Z</time>
      </trkpt>
      <trkpt lat="41.98945641517639" lon="2.82248854637146">
        <ele>66.46137565300937</ele>
        <time>2021-07-28T18:07:31.524Z</time>
      </trkpt>
      <trkpt lat="41.98952087201178" lon="2.822413444519043">
        <ele>66.57034983391875</ele>
        <time>2021-07-28T18:07:33.598Z</time>
      </trkpt>
      <trkpt lat="41.98955297470093" lon="2.822316884994507">
        <ele>66.73791271056493</ele>
        <time>2021-07-28T18:07:35.673Z</time>
      </trkpt>
      <trkpt lat="41.98956378735602" lon="2.822188138961792">
        <ele>66.96914754112217</ele>
        <time>2021-07-28T18:07:37.749Z</time>
      </trkpt>
      <trkpt lat="41.98954224586487" lon="2.822016477584839">
        <ele>67.28440736693841</ele>
        <time>2021-07-28T18:07:39.827Z</time>
      </trkpt>
      <trkpt lat="41.989896381273866" lon="2.8212010860443115">
        <ele>67.9200986982654</ele>
        <time>2021-07-28T18:07:41.917Z</time>
      </trkpt>
      <trkpt lat="41.99002504348755" lon="2.8209006786346436">
        <ele>68.25797844676241</ele>
        <time>2021-07-28T18:07:44.011Z</time>
      </trkpt>
      <trkpt lat="41.990132331848145" lon="2.820793390274048">
        <ele>68.55150316526095</ele>
        <time>2021-07-28T18:07:46.107Z</time>
      </trkpt>
      <trkpt lat="41.99022897519171" lon="2.820761203765869">
        <ele>68.93844923006691</ele>
        <time>2021-07-28T18:07:48.205Z</time>
      </trkpt>
      <trkpt lat="41.99022889137268" lon="2.820761203765869">
        <ele>69.51683163742766</ele>
        <time>2021-07-28T18:07:50.303Z</time>
      </trkpt>
      <trkpt lat="41.99087270535529" lon="2.820535898208618">
        <ele>69.7198931711377</ele>
        <time>2021-07-28T18:07:52.411Z</time>
      </trkpt>
      <trkpt lat="41.99134477414191" lon="2.8203535079956055">
        <ele>70.70926161148361</ele>
        <time>2021-07-28T18:07:54.527Z</time>
      </trkpt>
      <trkpt lat="41.99328660964966" lon="2.8196239471435547">
        <ele>71.94734640308118</ele>
        <time>2021-07-28T18:07:56.675Z</time>
      </trkpt>
      <trkpt lat="41.993662202730775" lon="2.8195273876190186">
        <ele>72.88322965868747</ele>
        <time>2021-07-28T18:07:58.829Z</time>
      </trkpt>
      <trkpt lat="41.99366211891174" lon="2.8195273876190186">
        <ele>73.73728257089616</ele>
        <time>2021-07-28T18:08:00.983Z</time>
      </trkpt>
      <trkpt lat="41.993898237124085" lon="2.819463014602661">
        <ele>74.71499374085343</ele>
        <time>2021-07-28T18:08:03.141Z</time>
      </trkpt>
      <trkpt lat="41.993898153305054" lon="2.819463014602661">
        <ele>75.58715536297757</ele>
        <time>2021-07-28T18:08:05.299Z</time>
      </trkpt>
      <trkpt lat="41.994638526812196" lon="2.8194093704223633">
        <ele>76.5484696345857</ele>
        <time>2021-07-28T18:08:07.469Z</time>
      </trkpt>
      <trkpt lat="41.994638442993164" lon="2.8194093704223633">
        <ele>77.38711177248867</ele>
        <time>2021-07-28T18:08:09.639Z</time>
      </trkpt>
      <trkpt lat="41.99486383236945" lon="2.819387912750244">
        <ele>78.21641037204571</ele>
        <time>2021-07-28T18:08:11.813Z</time>
      </trkpt>
      <trkpt lat="41.994863748550415" lon="2.819387912750244">
        <ele>78.97384273579463</ele>
        <time>2021-07-28T18:08:13.987Z</time>
      </trkpt>
      <trkpt lat="41.995668495073915" lon="2.819366455078125">
        <ele>79.89646237190357</ele>
        <time>2021-07-28T18:08:16.174Z</time>
      </trkpt>
      <trkpt lat="41.99626922607422" lon="2.819344997406006">
        <ele>80.5958863824983</ele>
        <time>2021-07-28T18:08:18.370Z</time>
      </trkpt>
      <trkpt lat="41.996430242434144" lon="2.8193342685699463">
        <ele>81.16136915250978</ele>
        <time>2021-07-28T18:08:20.569Z</time>
      </trkpt>
      <trkpt lat="41.99646242894232" lon="2.8193342685699463">
        <ele>81.6187568410138</ele>
        <time>2021-07-28T18:08:22.768Z</time>
      </trkpt>
      <trkpt lat="41.99653753079474" lon="2.8193342685699463">
        <ele>81.98388032882161</ele>
        <time>2021-07-28T18:08:24.969Z</time>
      </trkpt>
      <trkpt lat="41.996644819155335" lon="2.8193235397338867">
        <ele>82.28972969741609</ele>
        <time>2021-07-28T18:08:27.171Z</time>
      </trkpt>
      <trkpt lat="41.996687734499574" lon="2.8193235397338867">
        <ele>82.47149218630278</ele>
        <time>2021-07-28T18:08:29.374Z</time>
      </trkpt>
      <trkpt lat="41.99726709164679" lon="2.819312810897827">
        <ele>82.67262874256465</ele>
        <time>2021-07-28T18:08:31.586Z</time>
      </trkpt>
      <trkpt lat="41.997621059417725" lon="2.819269895553589">
        <ele>82.5454344954195</ele>
        <time>2021-07-28T18:08:33.804Z</time>
      </trkpt>
      <trkpt lat="41.99805029667914" lon="2.8191518783569336">
        <ele>82.22213965373753</ele>
        <time>2021-07-28T18:08:36.029Z</time>
      </trkpt>
      <trkpt lat="41.998382890596986" lon="2.8190016746520996">
        <ele>81.92076211897664</ele>
        <time>2021-07-28T18:08:38.260Z</time>
      </trkpt>
      <trkpt lat="41.998382806777954" lon="2.8190016746520996">
        <ele>81.61692310709789</ele>
        <time>2021-07-28T18:08:40.491Z</time>
      </trkpt>
      <trkpt lat="41.99868321418762" lon="2.8187763690948486">
        <ele>81.25362403272</ele>
        <time>2021-07-28T18:08:42.727Z</time>
      </trkpt>
      <trkpt lat="41.998854875564575" lon="2.818636894226074">
        <ele>80.67356029671905</ele>
        <time>2021-07-28T18:08:44.966Z</time>
      </trkpt>
      <trkpt lat="41.999144554138184" lon="2.8183257579803467">
        <ele>80.01952919652669</ele>
        <time>2021-07-28T18:08:47.211Z</time>
      </trkpt>
      <trkpt lat="41.99942350387573" lon="2.8179931640625">
        <ele>79.62282998191193</ele>
        <time>2021-07-28T18:08:49.462Z</time>
      </trkpt>
      <trkpt lat="41.99958452023566" lon="2.817864418029785">
        <ele>79.08710675295771</ele>
        <time>2021-07-28T18:08:51.716Z</time>
      </trkpt>
      <trkpt lat="41.99976682662964" lon="2.817821502685547">
        <ele>78.51172193114826</ele>
        <time>2021-07-28T18:08:53.973Z</time>
      </trkpt>
      <trkpt lat="41.99982055462897" lon="2.8178322315216064">
        <ele>77.95488038703482</ele>
        <time>2021-07-28T18:08:56.231Z</time>
      </trkpt>
      <trkpt lat="41.999884927645326" lon="2.8178107738494873">
        <ele>77.38393222831456</ele>
        <time>2021-07-28T18:08:58.490Z</time>
      </trkpt>
      <trkpt lat="41.99998140335083" lon="2.8177356719970703">
        <ele>76.80587468512978</ele>
        <time>2021-07-28T18:09:00.751Z</time>
      </trkpt>
      <trkpt lat="42.00003513135016" lon="2.817596197128296">
        <ele>76.22772972163</ele>
        <time>2021-07-28T18:09:03.014Z</time>
      </trkpt>
      <trkpt lat="42.00004577636719" lon="2.8175318241119385">
        <ele>75.66468775536511</ele>
        <time>2021-07-28T18:09:05.278Z</time>
      </trkpt>
      <trkpt lat="42.000142335891724" lon="2.817199230194092">
        <ele>75.11438578706203</ele>
        <time>2021-07-28T18:09:07.546Z</time>
      </trkpt>
      <trkpt lat="42.0002818107605" lon="2.8169846534729004">
        <ele>74.55395305544744</ele>
        <time>2021-07-28T18:09:09.817Z</time>
      </trkpt>
      <trkpt lat="42.00048565864563" lon="2.8168129920959473">
        <ele>73.95714395171086</ele>
        <time>2021-07-28T18:09:12.092Z</time>
      </trkpt>
      <trkpt lat="42.00080752372742" lon="2.816566228866577">
        <ele>73.33923204830913</ele>
        <time>2021-07-28T18:09:14.373Z</time>
      </trkpt>
      <trkpt lat="42.00123676098883" lon="2.8163623809814453">
        <ele>72.69903870843847</ele>
        <time>2021-07-28T18:09:16.661Z</time>
      </trkpt>
      <trkpt lat="42.0012366771698" lon="2.8163623809814453">
        <ele>72.17279966577777</ele>
        <time>2021-07-28T18:09:18.949Z</time>
      </trkpt>
      <trkpt lat="42.00150489807129" lon="2.8162765502929688">
        <ele>71.65890157633493</ele>
        <time>2021-07-28T18:09:21.242Z</time>
      </trkpt>
      <trkpt lat="42.001891219988465" lon="2.816190719604492">
        <ele>71.08221976070661</ele>
        <time>2021-07-28T18:09:23.541Z</time>
      </trkpt>
      <trkpt lat="42.001891136169434" lon="2.816190719604492">
        <ele>70.5954743954776</ele>
        <time>2021-07-28T18:09:25.840Z</time>
      </trkpt>
      <trkpt lat="42.00270652770996" lon="2.8160297870635986">
        <ele>70.02639492281449</ele>
        <time>2021-07-28T18:09:28.152Z</time>
      </trkpt>
      <trkpt lat="42.0029426459223" lon="2.8160083293914795">
        <ele>69.575563223141</ele>
        <time>2021-07-28T18:09:30.468Z</time>
      </trkpt>
      <trkpt lat="42.003178680315614" lon="2.8160297870635986">
        <ele>69.12953181835081</ele>
        <time>2021-07-28T18:09:32.788Z</time>
      </trkpt>
      <trkpt lat="42.00380086898804" lon="2.8161370754241943">
        <ele>68.7179818497005</ele>
        <time>2021-07-28T18:09:35.118Z</time>
      </trkpt>
      <trkpt lat="42.004112005233765" lon="2.816373109817505">
        <ele>68.2829803670825</ele>
        <time>2021-07-28T18:09:37.453Z</time>
      </trkpt>
      <trkpt lat="42.004133546724916" lon="2.816373109817505">
        <ele>67.88044303562918</ele>
        <time>2021-07-28T18:09:39.789Z</time>
      </trkpt>
      <trkpt lat="42.004927480593324" lon="2.8165018558502197">
        <ele>67.4355859972076</ele>
        <time>2021-07-28T18:09:42.138Z</time>
      </trkpt>
      <trkpt lat="42.00502404011786" lon="2.8165125846862793">
        <ele>67.06656593441701</ele>
        <time>2021-07-28T18:09:44.488Z</time>
      </trkpt>
      <trkpt lat="42.005109786987305" lon="2.816523313522339">
        <ele>66.7103998314227</ele>
        <time>2021-07-28T18:09:46.839Z</time>
      </trkpt>
      <trkpt lat="42.00514197349548" lon="2.8164803981781006">
        <ele>66.37328932027495</ele>
        <time>2021-07-28T18:09:49.191Z</time>
      </trkpt>
      <trkpt lat="42.005882347002625" lon="2.816598415374756">
        <ele>66.03116689750159</ele>
        <time>2021-07-28T18:09:51.555Z</time>
      </trkpt>
      <trkpt lat="42.00601109303534" lon="2.816598415374756">
        <ele>65.68829333410817</ele>
        <time>2021-07-28T18:09:53.921Z</time>
      </trkpt>
      <trkpt lat="42.00829633511603" lon="2.8169524669647217">
        <ele>65.05950978652602</ele>
        <time>2021-07-28T18:09:56.324Z</time>
      </trkpt>
      <trkpt lat="42.00850018300116" lon="2.8169846534729004">
        <ele>64.81701435587561</ele>
        <time>2021-07-28T18:09:58.730Z</time>
      </trkpt>
      <trkpt lat="42.008671844378114" lon="2.8170275688171387">
        <ele>64.58981997401679</ele>
        <time>2021-07-28T18:10:01.139Z</time>
      </trkpt>
      <trkpt lat="42.008854150772095" lon="2.81724214553833">
        <ele>64.38595354877904</ele>
        <time>2021-07-28T18:10:03.552Z</time>
      </trkpt>
      <trkpt lat="42.009197473526" lon="2.8174996376037598">
        <ele>64.2717870096705</ele>
        <time>2021-07-28T18:10:05.971Z</time>
      </trkpt>
      <trkpt lat="42.00921893119812" lon="2.817521095275879">
        <ele>64.1912909111014</ele>
        <time>2021-07-28T18:10:08.391Z</time>
      </trkpt>
      <trkpt lat="42.00926184654236" lon="2.817445993423462">
        <ele>64.16627195817254</ele>
        <time>2021-07-28T18:10:10.812Z</time>
      </trkpt>
      <trkpt lat="42.0094979647547" lon="2.817617654800415">
        <ele>64.23237931379253</ele>
        <time>2021-07-28T18:10:13.237Z</time>
      </trkpt>
      <trkpt lat="42.00949788093567" lon="2.817617654800415">
        <ele>64.2373904037321</ele>
        <time>2021-07-28T18:10:15.662Z</time>
      </trkpt>
      <trkpt lat="42.012126529589295" lon="2.8195488452911377">
        <ele>64.44249381301282</ele>
        <time>2021-07-28T18:10:18.135Z</time>
      </trkpt>
      <trkpt lat="42.012126445770264" lon="2.8195488452911377">
        <ele>64.47763499728097</ele>
        <time>2021-07-28T18:10:20.608Z</time>
      </trkpt>
      <trkpt lat="42.01246976852417" lon="2.819838523864746">
        <ele>64.57943253362686</ele>
        <time>2021-07-28T18:10:23.088Z</time>
      </trkpt>
      <trkpt lat="42.01370358467102" lon="2.8212976455688477">
        <ele>64.50061450823432</ele>
        <time>2021-07-28T18:10:25.594Z</time>
      </trkpt>
      <trkpt lat="42.01376795768738" lon="2.821458578109741">
        <ele>64.56284853632204</ele>
        <time>2021-07-28T18:10:28.102Z</time>
      </trkpt>
      <trkpt lat="42.01378949917853" lon="2.821587324142456">
        <ele>64.61500355917504</ele>
        <time>2021-07-28T18:10:30.612Z</time>
      </trkpt>
      <trkpt lat="42.013864601030946" lon="2.82198429107666">
        <ele>64.65425308840885</ele>
        <time>2021-07-28T18:10:33.126Z</time>
      </trkpt>
      <trkpt lat="42.0139826182276" lon="2.822638750076294">
        <ele>64.65776712412759</ele>
        <time>2021-07-28T18:10:35.649Z</time>
      </trkpt>
      <trkpt lat="42.0141327381134" lon="2.823336124420166">
        <ele>64.58222910884582</ele>
        <time>2021-07-28T18:10:38.180Z</time>
      </trkpt>
      <trkpt lat="42.01425083912909" lon="2.8237009048461914">
        <ele>64.65979642293205</ele>
        <time>2021-07-28T18:10:40.716Z</time>
      </trkpt>
      <trkpt lat="42.01425075531006" lon="2.8237009048461914">
        <ele>64.76863414922455</ele>
        <time>2021-07-28T18:10:43.252Z</time>
      </trkpt>
      <trkpt lat="42.01441168785095" lon="2.82423734664917">
        <ele>64.87479147241426</ele>
        <time>2021-07-28T18:10:45.795Z</time>
      </trkpt>
      <trkpt lat="42.01447614468634" lon="2.824387550354004">
        <ele>65.01485998801863</ele>
        <time>2021-07-28T18:10:48.340Z</time>
      </trkpt>
      <trkpt lat="42.01450833119452" lon="2.8244733810424805">
        <ele>65.17732652761319</ele>
        <time>2021-07-28T18:10:50.886Z</time>
      </trkpt>
      <trkpt lat="42.014626264572144" lon="2.8246665000915527">
        <ele>65.36545328699621</ele>
        <time>2021-07-28T18:10:53.435Z</time>
      </trkpt>
      <trkpt lat="42.01473363675177" lon="2.8246772289276123">
        <ele>65.6062835256838</ele>
        <time>2021-07-28T18:10:55.986Z</time>
      </trkpt>
      <trkpt lat="42.015098333358765" lon="2.8247416019439697">
        <ele>65.94433507811559</ele>
        <time>2021-07-28T18:10:58.543Z</time>
      </trkpt>
      <trkpt lat="42.01546311378479" lon="2.824709415435791">
        <ele>66.29597060277325</ele>
        <time>2021-07-28T18:11:01.105Z</time>
      </trkpt>
      <trkpt lat="42.015624046325684" lon="2.824687957763672">
        <ele>66.53392536039324</ele>
        <time>2021-07-28T18:11:03.670Z</time>
      </trkpt>
      <trkpt lat="42.01596745289862" lon="2.824709415435791">
        <ele>66.72900818332872</ele>
        <time>2021-07-28T18:11:06.241Z</time>
      </trkpt>
      <trkpt lat="42.01617121696472" lon="2.8247523307800293">
        <ele>66.8464191899415</ele>
        <time>2021-07-28T18:11:08.815Z</time>
      </trkpt>
      <trkpt lat="42.01702952384949" lon="2.825084924697876">
        <ele>66.88554588885472</ele>
        <time>2021-07-28T18:11:11.403Z</time>
      </trkpt>
      <trkpt lat="42.01768406666815" lon="2.825331687927246">
        <ele>66.9153487209491</ele>
        <time>2021-07-28T18:11:14.002Z</time>
      </trkpt>
      <trkpt lat="42.01768398284912" lon="2.825331687927246">
        <ele>66.92894348393858</ele>
        <time>2021-07-28T18:11:16.601Z</time>
      </trkpt>
      <trkpt lat="42.01830633915961" lon="2.825535535812378">
        <ele>66.88238103191222</ele>
        <time>2021-07-28T18:11:19.210Z</time>
      </trkpt>
      <trkpt lat="42.01854228973389" lon="2.8256213665008545">
        <ele>66.79506283024813</ele>
        <time>2021-07-28T18:11:21.823Z</time>
      </trkpt>
      <trkpt lat="42.018606746569276" lon="2.825632095336914">
        <ele>66.6939017740566</ele>
        <time>2021-07-28T18:11:24.437Z</time>
      </trkpt>
      <trkpt lat="42.01919674873352" lon="2.8258252143859863">
        <ele>66.4942984315329</ele>
        <time>2021-07-28T18:11:27.061Z</time>
      </trkpt>
      <trkpt lat="42.01927185058594" lon="2.825835943222046">
        <ele>66.3282226036782</ele>
        <time>2021-07-28T18:11:29.686Z</time>
      </trkpt>
      <trkpt lat="42.019325494766235" lon="2.825835943222046">
        <ele>66.14365681295783</ele>
        <time>2021-07-28T18:11:32.312Z</time>
      </trkpt>
      <trkpt lat="42.01933630742133" lon="2.8258144855499268">
        <ele>65.94857215900376</ele>
        <time>2021-07-28T18:11:34.938Z</time>
      </trkpt>
      <trkpt lat="42.019357681274414" lon="2.8257715702056885">
        <ele>65.73760050182031</ele>
        <time>2021-07-28T18:11:37.565Z</time>
      </trkpt>
      <trkpt lat="42.019346952438354" lon="2.82572865486145">
        <ele>65.51941421134501</ele>
        <time>2021-07-28T18:11:40.192Z</time>
      </trkpt>
      <trkpt lat="42.01940059661865" lon="2.8256642818450928">
        <ele>65.283354638189</ele>
        <time>2021-07-28T18:11:42.821Z</time>
      </trkpt>
      <trkpt lat="42.0201301574707" lon="2.825331687927246">
        <ele>64.97033421447999</ele>
        <time>2021-07-28T18:11:45.462Z</time>
      </trkpt>
      <trkpt lat="42.02054866589606" lon="2.8251278400421143">
        <ele>64.71513314834695</ele>
        <time>2021-07-28T18:11:48.110Z</time>
      </trkpt>
      <trkpt lat="42.020548582077026" lon="2.8251278400421143">
        <ele>64.48178369528833</ele>
        <time>2021-07-28T18:11:50.758Z</time>
      </trkpt>
      <trkpt lat="42.02120312489569" lon="2.8248274326324463">
        <ele>64.22652597879934</ele>
        <time>2021-07-28T18:11:53.417Z</time>
      </trkpt>
      <trkpt lat="42.02123522758484" lon="2.8248167037963867">
        <ele>64.01084419850858</ele>
        <time>2021-07-28T18:11:56.077Z</time>
      </trkpt>
      <trkpt lat="42.02146053314209" lon="2.824763059616089">
        <ele>63.81870565336341</ele>
        <time>2021-07-28T18:11:58.740Z</time>
      </trkpt>
      <trkpt lat="42.021600091829896" lon="2.8247737884521484">
        <ele>63.64438478392426</ele>
        <time>2021-07-28T18:12:01.406Z</time>
      </trkpt>
      <trkpt lat="42.02170729637146" lon="2.824784517288208">
        <ele>63.48445769392946</ele>
        <time>2021-07-28T18:12:04.073Z</time>
      </trkpt>
      <trkpt lat="42.02319868840277" lon="2.8260934352874756">
        <ele>63.33765449321493</ele>
        <time>2021-07-28T18:12:06.769Z</time>
      </trkpt>
      <trkpt lat="42.023327350616455" lon="2.8262221813201904">
        <ele>63.17462122264122</ele>
        <time>2021-07-28T18:12:09.467Z</time>
      </trkpt>
      <trkpt lat="42.023316621780396" lon="2.8263187408447266">
        <ele>63.04463400324498</ele>
        <time>2021-07-28T18:12:12.166Z</time>
      </trkpt>
      <trkpt lat="42.02331670559943" lon="2.8264260292053223">
        <ele>62.936101377215536</ele>
        <time>2021-07-28T18:12:14.867Z</time>
      </trkpt>
      <trkpt lat="42.023359537124634" lon="2.826533317565918">
        <ele>62.85104342200529</ele>
        <time>2021-07-28T18:12:17.569Z</time>
      </trkpt>
      <trkpt lat="42.02342391014099" lon="2.826608419418335">
        <ele>62.800741182859184</ele>
        <time>2021-07-28T18:12:20.273Z</time>
      </trkpt>
      <trkpt lat="42.02348828315735" lon="2.8266406059265137">
        <ele>62.79042095665139</ele>
        <time>2021-07-28T18:12:22.978Z</time>
      </trkpt>
      <trkpt lat="42.023552656173706" lon="2.8266513347625732">
        <ele>62.81455274367421</ele>
        <time>2021-07-28T18:12:25.684Z</time>
      </trkpt>
      <trkpt lat="42.02364921569824" lon="2.8265976905822754">
        <ele>62.87976073280656</ele>
        <time>2021-07-28T18:12:28.391Z</time>
      </trkpt>
      <trkpt lat="42.02374577522278" lon="2.8266191482543945">
        <ele>62.951795811095295</ele>
        <time>2021-07-28T18:12:31.100Z</time>
      </trkpt>
      <trkpt lat="42.02422857284546" lon="2.8269410133361816">
        <ele>62.98667328981672</ele>
        <time>2021-07-28T18:12:33.818Z</time>
      </trkpt>
      <trkpt lat="42.024593353271484" lon="2.827134132385254">
        <ele>63.13285632313955</ele>
        <time>2021-07-28T18:12:36.542Z</time>
      </trkpt>
      <trkpt lat="42.02467918395996" lon="2.827134132385254">
        <ele>63.27258262987102</ele>
        <time>2021-07-28T18:12:39.267Z</time>
      </trkpt>
      <trkpt lat="42.02475436963141" lon="2.8271985054016113">
        <ele>63.41793774795413</ele>
        <time>2021-07-28T18:12:41.994Z</time>
      </trkpt>
      <trkpt lat="42.0249689463526" lon="2.8273379802703857">
        <ele>63.56813813200027</ele>
        <time>2021-07-28T18:12:44.724Z</time>
      </trkpt>
      <trkpt lat="42.0252799987793" lon="2.8275418281555176">
        <ele>63.74847232084676</ele>
        <time>2021-07-28T18:12:47.460Z</time>
      </trkpt>
      <trkpt lat="42.02569850720465" lon="2.827852964401245">
        <ele>63.82347116172504</ele>
        <time>2021-07-28T18:12:50.204Z</time>
      </trkpt>
      <trkpt lat="42.02656754292548" lon="2.8285717964172363">
        <ele>63.850079348814376</ele>
        <time>2021-07-28T18:12:52.964Z</time>
      </trkpt>
      <trkpt lat="42.02696442604065" lon="2.8290224075317383">
        <ele>64.18542487155409</ele>
        <time>2021-07-28T18:12:55.732Z</time>
      </trkpt>
      <trkpt lat="42.0272433757782" lon="2.8293871879577637">
        <ele>64.30191752651</ele>
        <time>2021-07-28T18:12:58.507Z</time>
      </trkpt>
      <trkpt lat="42.02724345959723" lon="2.8293871879577637">
        <ele>64.17510482935074</ele>
        <time>2021-07-28T18:13:01.282Z</time>
      </trkpt>
      <trkpt lat="42.02741503715515" lon="2.829655408859253">
        <ele>63.986366631670556</ele>
        <time>2021-07-28T18:13:04.061Z</time>
      </trkpt>
      <trkpt lat="42.0274902228266" lon="2.8298377990722656">
        <ele>63.66323696929757</ele>
        <time>2021-07-28T18:13:06.842Z</time>
      </trkpt>
      <trkpt lat="42.027812004089355" lon="2.8305137157440186">
        <ele>63.19809385004588</ele>
        <time>2021-07-28T18:13:09.633Z</time>
      </trkpt>
      <trkpt lat="42.027865732088685" lon="2.830653190612793">
        <ele>62.68468620238708</ele>
        <time>2021-07-28T18:13:12.426Z</time>
      </trkpt>
      <trkpt lat="42.028091037645936" lon="2.8313398361206055">
        <ele>61.8452220216609</ele>
        <time>2021-07-28T18:13:15.228Z</time>
      </trkpt>
      <trkpt lat="42.02826261520386" lon="2.831779718399048">
        <ele>61.05192237561395</ele>
        <time>2021-07-28T18:13:18.036Z</time>
      </trkpt>
      <trkpt lat="42.028337717056274" lon="2.8319621086120605">
        <ele>60.33457102439117</ele>
        <time>2021-07-28T18:13:20.846Z</time>
      </trkpt>
      <trkpt lat="42.02844500541687" lon="2.8321659564971924">
        <ele>59.60198280969358</ele>
        <time>2021-07-28T18:13:23.659Z</time>
      </trkpt>
      <trkpt lat="42.02870258130133" lon="2.8326058387756348">
        <ele>58.86953868751196</ele>
        <time>2021-07-28T18:13:26.479Z</time>
      </trkpt>
      <trkpt lat="42.0287024974823" lon="2.8326058387756348">
        <ele>58.12147765344601</ele>
        <time>2021-07-28T18:13:29.299Z</time>
      </trkpt>
      <trkpt lat="42.028831243515015" lon="2.832798957824707">
        <ele>57.42992470177548</ele>
        <time>2021-07-28T18:13:32.122Z</time>
      </trkpt>
      <trkpt lat="42.02901363372803" lon="2.8331851959228516">
        <ele>56.7359780639571</ele>
        <time>2021-07-28T18:13:34.950Z</time>
      </trkpt>
      <trkpt lat="42.02923902310431" lon="2.8339362144470215">
        <ele>55.96344938674982</ele>
        <time>2021-07-28T18:13:37.788Z</time>
      </trkpt>
      <trkpt lat="42.02928193844855" lon="2.8340864181518555">
        <ele>55.32883261178594</ele>
        <time>2021-07-28T18:13:40.628Z</time>
      </trkpt>
      <trkpt lat="42.029571533203125" lon="2.8350412845611572">
        <ele>54.62988526903191</ele>
        <time>2021-07-28T18:13:43.480Z</time>
      </trkpt>
      <trkpt lat="42.02972173690796" lon="2.8354382514953613">
        <ele>54.262426511493516</ele>
        <time>2021-07-28T18:13:46.337Z</time>
      </trkpt>
      <trkpt lat="42.02991493977606" lon="2.835867404937744">
        <ele>54.05438157342188</ele>
        <time>2021-07-28T18:13:49.200Z</time>
      </trkpt>
      <trkpt lat="42.02991485595703" lon="2.835867404937744">
        <ele>53.90167786151538</ele>
        <time>2021-07-28T18:13:52.063Z</time>
      </trkpt>
      <trkpt lat="42.03022607602179" lon="2.8364038467407227">
        <ele>53.889355657875306</ele>
        <time>2021-07-28T18:13:54.934Z</time>
      </trkpt>
      <trkpt lat="42.03048356808722" lon="2.8367364406585693">
        <ele>54.061612932433704</ele>
        <time>2021-07-28T18:13:57.811Z</time>
      </trkpt>
      <trkpt lat="42.03052639961243" lon="2.8367793560028076">
        <ele>54.45349497044167</ele>
        <time>2021-07-28T18:14:00.689Z</time>
      </trkpt>
      <trkpt lat="42.03075170516968" lon="2.837015390396118">
        <ele>55.04979466933547</ele>
        <time>2021-07-28T18:14:03.572Z</time>
      </trkpt>
      <trkpt lat="42.030859077349305" lon="2.8371119499206543">
        <ele>55.92498952306413</ele>
        <time>2021-07-28T18:14:06.457Z</time>
      </trkpt>
      <trkpt lat="42.03085899353027" lon="2.8371119499206543">
        <ele>57.0223943723563</ele>
        <time>2021-07-28T18:14:09.342Z</time>
      </trkpt>
      <trkpt lat="42.0311164855957" lon="2.8373265266418457">
        <ele>58.440316710709695</ele>
        <time>2021-07-28T18:14:12.232Z</time>
      </trkpt>
      <trkpt lat="42.03165292739868" lon="2.837691307067871">
        <ele>60.17796872063849</ele>
        <time>2021-07-28T18:14:15.131Z</time>
      </trkpt>
      <trkpt lat="42.03252204693854" lon="2.838238477706909">
        <ele>62.12602246611612</ele>
        <time>2021-07-28T18:14:18.046Z</time>
      </trkpt>
      <trkpt lat="42.03277945518494" lon="2.8383994102478027">
        <ele>64.2804205201634</ele>
        <time>2021-07-28T18:14:20.965Z</time>
      </trkpt>
      <trkpt lat="42.03300476074219" lon="2.8385066986083984">
        <ele>66.68110673336726</ele>
        <time>2021-07-28T18:14:23.888Z</time>
      </trkpt>
      <trkpt lat="42.033605659380555" lon="2.838817834854126">
        <ele>69.63556040929993</ele>
        <time>2021-07-28T18:14:26.821Z</time>
      </trkpt>
      <trkpt lat="42.03360557556152" lon="2.838817834854126">
        <ele>72.46354000035063</ele>
        <time>2021-07-28T18:14:29.754Z</time>
      </trkpt>
      <trkpt lat="42.03389525413513" lon="2.8389251232147217">
        <ele>75.73917065821713</ele>
        <time>2021-07-28T18:14:32.692Z</time>
      </trkpt>
      <trkpt lat="42.035032510757446" lon="2.839311361312866">
        <ele>79.78820466319965</ele>
        <time>2021-07-28T18:14:35.649Z</time>
      </trkpt>
      <trkpt lat="42.0352041721344" lon="2.839418649673462">
        <ele>83.11269111143424</ele>
        <time>2021-07-28T18:14:38.609Z</time>
      </trkpt>
      <trkpt lat="42.03535437583923" lon="2.839536666870117">
        <ele>86.47407238544608</ele>
        <time>2021-07-28T18:14:41.572Z</time>
      </trkpt>
      <trkpt lat="42.036073291674256" lon="2.840341329574585">
        <ele>90.00692348782539</ele>
        <time>2021-07-28T18:14:44.550Z</time>
      </trkpt>
      <trkpt lat="42.03619122505188" lon="2.8404593467712402">
        <ele>93.43626043940407</ele>
        <time>2021-07-28T18:14:47.530Z</time>
      </trkpt>
      <trkpt lat="42.03636288642883" lon="2.8405559062957764">
        <ele>96.85722839521512</ele>
        <time>2021-07-28T18:14:50.513Z</time>
      </trkpt>
      <trkpt lat="42.037092447280884" lon="2.8408455848693848">
        <ele>100.56160505384712</ele>
        <time>2021-07-28T18:14:53.508Z</time>
      </trkpt>
      <trkpt lat="42.037328481674194" lon="2.8410065174102783">
        <ele>103.78789179010028</ele>
        <time>2021-07-28T18:14:56.507Z</time>
      </trkpt>
      <trkpt lat="42.03750014305115" lon="2.8411996364593506">
        <ele>106.80938710474484</ele>
        <time>2021-07-28T18:14:59.510Z</time>
      </trkpt>
      <trkpt lat="42.03787565231323" lon="2.841789722442627">
        <ele>109.81745942273247</ele>
        <time>2021-07-28T18:15:02.522Z</time>
      </trkpt>
      <trkpt lat="42.038068771362305" lon="2.842111587524414">
        <ele>112.48666200977247</ele>
        <time>2021-07-28T18:15:05.539Z</time>
      </trkpt>
      <trkpt lat="42.03818678855896" lon="2.8422510623931885">
        <ele>114.76260074709609</ele>
        <time>2021-07-28T18:15:08.559Z</time>
      </trkpt>
      <trkpt lat="42.038358533754945" lon="2.8424012660980225">
        <ele>116.68698560978339</ele>
        <time>2021-07-28T18:15:11.582Z</time>
      </trkpt>
      <trkpt lat="42.03835844993591" lon="2.8424012660980225">
        <ele>118.18001959077475</ele>
        <time>2021-07-28T18:15:14.605Z</time>
      </trkpt>
      <trkpt lat="42.038562297821045" lon="2.842583656311035">
        <ele>119.36090073477557</ele>
        <time>2021-07-28T18:15:17.632Z</time>
      </trkpt>
      <trkpt lat="42.038787603378296" lon="2.8429055213928223">
        <ele>120.16280935856919</ele>
        <time>2021-07-28T18:15:20.664Z</time>
      </trkpt>
      <trkpt lat="42.03889489173889" lon="2.843109369277954">
        <ele>120.58254625867755</ele>
        <time>2021-07-28T18:15:23.699Z</time>
      </trkpt>
      <trkpt lat="42.039055824279785" lon="2.8435492515563965">
        <ele>120.69259522733151</ele>
        <time>2021-07-28T18:15:26.740Z</time>
      </trkpt>
      <trkpt lat="42.03909873962402" lon="2.8437530994415283">
        <ele>120.34872399770141</ele>
        <time>2021-07-28T18:15:29.783Z</time>
      </trkpt>
      <trkpt lat="42.0391309261322" lon="2.8440213203430176">
        <ele>119.69386426977552</ele>
        <time>2021-07-28T18:15:32.830Z</time>
      </trkpt>
      <trkpt lat="42.03916319645941" lon="2.8449654579162598">
        <ele>118.38669448066665</ele>
        <time>2021-07-28T18:15:35.888Z</time>
      </trkpt>
      <trkpt lat="42.03919529914856" lon="2.8451478481292725">
        <ele>116.82506898150898</ele>
        <time>2021-07-28T18:15:38.948Z</time>
      </trkpt>
      <trkpt lat="42.03924894332886" lon="2.8453731536865234">
        <ele>114.92133827855474</ele>
        <time>2021-07-28T18:15:42.011Z</time>
      </trkpt>
      <trkpt lat="42.039313316345215" lon="2.8455233573913574">
        <ele>112.79628357806742</ele>
        <time>2021-07-28T18:15:45.076Z</time>
      </trkpt>
      <trkpt lat="42.03940987586975" lon="2.8456950187683105">
        <ele>110.40114173435448</ele>
        <time>2021-07-28T18:15:48.144Z</time>
      </trkpt>
      <trkpt lat="42.03949570655823" lon="2.8458023071289062">
        <ele>107.81967422895389</ele>
        <time>2021-07-28T18:15:51.213Z</time>
      </trkpt>
      <trkpt lat="42.03962445259094" lon="2.845909595489502">
        <ele>105.03629972885014</ele>
        <time>2021-07-28T18:15:54.285Z</time>
      </trkpt>
      <trkpt lat="42.040826082229614" lon="2.846810817718506">
        <ele>101.34914526744517</ele>
        <time>2021-07-28T18:15:57.379Z</time>
      </trkpt>
      <trkpt lat="42.04118013381958" lon="2.8470468521118164">
        <ele>98.15388090567396</ele>
        <time>2021-07-28T18:16:00.479Z</time>
      </trkpt>
      <trkpt lat="42.04118021763861" lon="2.8470468521118164">
        <ele>95.0892551661853</ele>
        <time>2021-07-28T18:16:03.579Z</time>
      </trkpt>
      <trkpt lat="42.041555643081665" lon="2.8472721576690674">
        <ele>91.79628606285061</ele>
        <time>2021-07-28T18:16:06.686Z</time>
      </trkpt>
      <trkpt lat="42.04242467880249" lon="2.8477442264556885">
        <ele>88.03316766829442</ele>
        <time>2021-07-28T18:16:09.808Z</time>
      </trkpt>
      <trkpt lat="42.04242476262152" lon="2.8477442264556885">
        <ele>84.96943340799722</ele>
        <time>2021-07-28T18:16:12.930Z</time>
      </trkpt>
      <trkpt lat="42.04254277981818" lon="2.847830057144165">
        <ele>81.9491747282776</ele>
        <time>2021-07-28T18:16:16.054Z</time>
      </trkpt>
      <trkpt lat="42.0427143573761" lon="2.8480124473571777">
        <ele>78.96936052976127</ele>
        <time>2021-07-28T18:16:19.181Z</time>
      </trkpt>
      <trkpt lat="42.042853916063905" lon="2.8482377529144287">
        <ele>76.05610113824571</ele>
        <time>2021-07-28T18:16:22.312Z</time>
      </trkpt>
      <trkpt lat="42.04293966293335" lon="2.8484201431274414">
        <ele>73.27239265724326</ele>
        <time>2021-07-28T18:16:25.445Z</time>
      </trkpt>
      <trkpt lat="42.04293974675238" lon="2.8484201431274414">
        <ele>70.69295031146208</ele>
        <time>2021-07-28T18:16:28.578Z</time>
      </trkpt>
      <trkpt lat="42.04300403594971" lon="2.8486239910125732">
        <ele>68.17973800457601</ele>
        <time>2021-07-28T18:16:31.714Z</time>
      </trkpt>
      <trkpt lat="42.043036222457886" lon="2.8488171100616455">
        <ele>65.80695921209525</ele>
        <time>2021-07-28T18:16:34.852Z</time>
      </trkpt>
      <trkpt lat="42.043046951293945" lon="2.849181890487671">
        <ele>63.485271584224165</ele>
        <time>2021-07-28T18:16:37.995Z</time>
      </trkpt>
      <trkpt lat="42.04275735653937" lon="2.8512954711914062">
        <ele>60.59859095326725</ele>
        <time>2021-07-28T18:16:41.163Z</time>
      </trkpt>
      <trkpt lat="42.042607152834535" lon="2.8523576259613037">
        <ele>58.71805543784481</ele>
        <time>2021-07-28T18:16:44.344Z</time>
      </trkpt>
      <trkpt lat="42.042521238327026" lon="2.8529155254364014">
        <ele>57.21088209268962</ele>
        <time>2021-07-28T18:16:47.532Z</time>
      </trkpt>
      <trkpt lat="42.04241394996643" lon="2.853323221206665">
        <ele>55.856991937091195</ele>
        <time>2021-07-28T18:16:50.725Z</time>
      </trkpt>
      <trkpt lat="42.042295932769775" lon="2.8536880016326904">
        <ele>54.667178209906865</ele>
        <time>2021-07-28T18:16:53.923Z</time>
      </trkpt>
      <trkpt lat="42.04219937324524" lon="2.8538918495178223">
        <ele>53.65393773270219</ele>
        <time>2021-07-28T18:16:57.124Z</time>
      </trkpt>
      <trkpt lat="42.04196342267096" lon="2.8542673587799072">
        <ele>52.79578218514238</ele>
        <time>2021-07-28T18:17:00.331Z</time>
      </trkpt>
      <trkpt lat="42.04196333885193" lon="2.8542673587799072">
        <ele>52.152497171544496</ele>
        <time>2021-07-28T18:17:03.538Z</time>
      </trkpt>
      <trkpt lat="42.04163074493408" lon="2.854642868041992">
        <ele>51.624572355939996</ele>
        <time>2021-07-28T18:17:06.752Z</time>
      </trkpt>
      <trkpt lat="42.04136252403259" lon="2.8548896312713623">
        <ele>51.29516203453484</ele>
        <time>2021-07-28T18:17:09.971Z</time>
      </trkpt>
      <trkpt lat="42.04124450683594" lon="2.855018377304077">
        <ele>51.068451911566086</ele>
        <time>2021-07-28T18:17:13.192Z</time>
      </trkpt>
      <trkpt lat="42.0410943031311" lon="2.8552865982055664">
        <ele>50.92111659146788</ele>
        <time>2021-07-28T18:17:16.417Z</time>
      </trkpt>
      <trkpt lat="42.04101920127869" lon="2.855597734451294">
        <ele>50.90856194247843</ele>
        <time>2021-07-28T18:17:19.646Z</time>
      </trkpt>
      <trkpt lat="42.04099774360657" lon="2.8557801246643066">
        <ele>50.990559100866776</ele>
        <time>2021-07-28T18:17:22.877Z</time>
      </trkpt>
      <trkpt lat="42.04099774360657" lon="2.8559088706970215">
        <ele>51.13663807629861</ele>
        <time>2021-07-28T18:17:26.110Z</time>
      </trkpt>
      <trkpt lat="42.04101920127869" lon="2.856069803237915">
        <ele>51.298128682713376</ele>
        <time>2021-07-28T18:17:29.345Z</time>
      </trkpt>
      <trkpt lat="42.041051387786865" lon="2.856220006942749">
        <ele>51.510881262868295</ele>
        <time>2021-07-28T18:17:32.582Z</time>
      </trkpt>
      <trkpt lat="42.04110503196716" lon="2.8563809394836426">
        <ele>51.76459160731498</ele>
        <time>2021-07-28T18:17:35.821Z</time>
      </trkpt>
      <trkpt lat="42.04119086265564" lon="2.856541872024536">
        <ele>52.04527279216596</ele>
        <time>2021-07-28T18:17:39.062Z</time>
      </trkpt>
      <trkpt lat="42.04130896367133" lon="2.856670618057251">
        <ele>52.34819853927698</ele>
        <time>2021-07-28T18:17:42.306Z</time>
      </trkpt>
      <trkpt lat="42.041308879852295" lon="2.856670618057251">
        <ele>52.654838977397816</ele>
        <time>2021-07-28T18:17:45.550Z</time>
      </trkpt>
      <trkpt lat="42.04150199890137" lon="2.856820821762085">
        <ele>52.97687708921183</ele>
        <time>2021-07-28T18:17:48.797Z</time>
      </trkpt>
      <trkpt lat="42.04164147377014" lon="2.856895923614502">
        <ele>53.27458489008049</ele>
        <time>2021-07-28T18:17:52.047Z</time>
      </trkpt>
      <trkpt lat="42.04216718673706" lon="2.857024669647217">
        <ele>53.624561044507345</ele>
        <time>2021-07-28T18:17:55.305Z</time>
      </trkpt>
      <trkpt lat="42.0422637462616" lon="2.8570783138275146">
        <ele>53.863857681376004</ele>
        <time>2021-07-28T18:17:58.565Z</time>
      </trkpt>
      <trkpt lat="42.04241394996643" lon="2.8571856021881104">
        <ele>54.06380572613365</ele>
        <time>2021-07-28T18:18:01.828Z</time>
      </trkpt>
      <trkpt lat="42.042564153671265" lon="2.8573358058929443">
        <ele>54.217554306702866</ele>
        <time>2021-07-28T18:18:05.094Z</time>
      </trkpt>
      <trkpt lat="42.04270371235907" lon="2.857518196105957">
        <ele>54.31104574356157</ele>
        <time>2021-07-28T18:18:08.363Z</time>
      </trkpt>
      <trkpt lat="42.04270362854004" lon="2.857518196105957">
        <ele>54.360443027445775</ele>
        <time>2021-07-28T18:18:11.632Z</time>
      </trkpt>
      <trkpt lat="42.0432186126709" lon="2.858247756958008">
        <ele>54.336143668226796</ele>
        <time>2021-07-28T18:18:14.913Z</time>
      </trkpt>
      <trkpt lat="42.04348691739142" lon="2.85868763923645">
        <ele>54.252514930042366</ele>
        <time>2021-07-28T18:18:18.200Z</time>
      </trkpt>
      <trkpt lat="42.04348683357239" lon="2.85868763923645">
        <ele>54.17692204380603</ele>
        <time>2021-07-28T18:18:21.487Z</time>
      </trkpt>
      <trkpt lat="42.04393744468689" lon="2.8594279289245605">
        <ele>54.02288596720956</ele>
        <time>2021-07-28T18:18:24.786Z</time>
      </trkpt>
      <trkpt lat="42.04413056373596" lon="2.8598034381866455">
        <ele>53.83382539451387</ele>
        <time>2021-07-28T18:18:28.090Z</time>
      </trkpt>
      <trkpt lat="42.04440951347351" lon="2.8603827953338623">
        <ele>53.635239182049034</ele>
        <time>2021-07-28T18:18:31.403Z</time>
      </trkpt>
      <trkpt lat="42.04460263252258" lon="2.8608334064483643">
        <ele>53.41628185163652</ele>
        <time>2021-07-28T18:18:34.722Z</time>
      </trkpt>
      <trkpt lat="42.044677734375" lon="2.860962152481079">
        <ele>53.24890431508004</ele>
        <time>2021-07-28T18:18:38.043Z</time>
      </trkpt>
      <trkpt lat="42.044817293062806" lon="2.8612732887268066">
        <ele>53.09922864082628</ele>
        <time>2021-07-28T18:18:41.368Z</time>
      </trkpt>
      <trkpt lat="42.044817209243774" lon="2.8612732887268066">
        <ele>52.94481889965273</ele>
        <time>2021-07-28T18:18:44.693Z</time>
      </trkpt>
      <trkpt lat="42.04493531025946" lon="2.861562967300415">
        <ele>52.81046542961954</ele>
        <time>2021-07-28T18:18:48.022Z</time>
      </trkpt>
      <trkpt lat="42.04513915814459" lon="2.8620779514312744">
        <ele>52.656220836774125</ele>
        <time>2021-07-28T18:18:51.358Z</time>
      </trkpt>
      <trkpt lat="42.045321548357606" lon="2.8625285625457764">
        <ele>52.4969702744925</ele>
        <time>2021-07-28T18:18:54.700Z</time>
      </trkpt>
      <trkpt lat="42.04567551612854" lon="2.86344051361084">
        <ele>52.32269154503689</ele>
        <time>2021-07-28T18:18:58.054Z</time>
      </trkpt>
      <trkpt lat="42.046104753389955" lon="2.8645241260528564">
        <ele>52.284957521319754</ele>
        <time>2021-07-28T18:19:01.423Z</time>
      </trkpt>
      <trkpt lat="42.04610466957092" lon="2.8645241260528564">
        <ele>52.22578998062876</ele>
        <time>2021-07-28T18:19:04.792Z</time>
      </trkpt>
      <trkpt lat="42.04663046635687" lon="2.8658008575439453">
        <ele>52.22416779972782</ele>
        <time>2021-07-28T18:19:08.178Z</time>
      </trkpt>
      <trkpt lat="42.04684495925903" lon="2.8663158416748047">
        <ele>52.22609081153918</ele>
        <time>2021-07-28T18:19:11.571Z</time>
      </trkpt>
      <trkpt lat="42.047080993652344" lon="2.866905927658081">
        <ele>52.23678581121588</ele>
        <time>2021-07-28T18:19:14.972Z</time>
      </trkpt>
      <trkpt lat="42.04726346768439" lon="2.867259979248047">
        <ele>52.23808375898321</ele>
        <time>2021-07-28T18:19:18.378Z</time>
      </trkpt>
      <trkpt lat="42.04773553647101" lon="2.868107557296753">
        <ele>52.24195731285659</ele>
        <time>2021-07-28T18:19:21.797Z</time>
      </trkpt>
      <trkpt lat="42.04789638519287" lon="2.868407964706421">
        <ele>52.19974878124185</ele>
        <time>2021-07-28T18:19:25.220Z</time>
      </trkpt>
      <trkpt lat="42.048776149749756" lon="2.8698456287384033">
        <ele>52.198277878104435</ele>
        <time>2021-07-28T18:19:28.666Z</time>
      </trkpt>
      <trkpt lat="42.049076640978456" lon="2.8703606128692627">
        <ele>52.069330249329965</ele>
        <time>2021-07-28T18:19:32.119Z</time>
      </trkpt>
      <trkpt lat="42.049323404207826" lon="2.8708434104919434">
        <ele>52.04065072645651</ele>
        <time>2021-07-28T18:19:35.579Z</time>
      </trkpt>
      <trkpt lat="42.04943060874939" lon="2.871079444885254">
        <ele>51.895367193986075</ele>
        <time>2021-07-28T18:19:39.043Z</time>
      </trkpt>
      <trkpt lat="42.04954870976508" lon="2.8712940216064453">
        <ele>51.738339375941536</ele>
        <time>2021-07-28T18:19:42.510Z</time>
      </trkpt>
      <trkpt lat="42.04987049102783" lon="2.871905565261841">
        <ele>51.513685762944704</ele>
        <time>2021-07-28T18:19:45.986Z</time>
      </trkpt>
      <trkpt lat="42.050353372469544" lon="2.872645854949951">
        <ele>51.20492964834471</ele>
        <time>2021-07-28T18:19:49.474Z</time>
      </trkpt>
      <trkpt lat="42.05035328865051" lon="2.872645854949951">
        <ele>51.017178374421974</ele>
        <time>2021-07-28T18:19:52.962Z</time>
      </trkpt>
      <trkpt lat="42.05126532353461" lon="2.873944044113159">
        <ele>50.57599351722011</ele>
        <time>2021-07-28T18:19:56.471Z</time>
      </trkpt>
      <trkpt lat="42.05164074897766" lon="2.874394655227661">
        <ele>50.41459294429491</ele>
        <time>2021-07-28T18:19:59.988Z</time>
      </trkpt>
      <trkpt lat="42.05247768200934" lon="2.8752851486206055">
        <ele>50.43351251509296</ele>
        <time>2021-07-28T18:20:03.522Z</time>
      </trkpt>
      <trkpt lat="42.05301412381232" lon="2.875821590423584">
        <ele>50.16074386501579</ele>
        <time>2021-07-28T18:20:07.067Z</time>
      </trkpt>
      <trkpt lat="42.053014039993286" lon="2.875821590423584">
        <ele>50.04195915222713</ele>
        <time>2021-07-28T18:20:10.612Z</time>
      </trkpt>
      <trkpt lat="42.05338954925537" lon="2.876218557357788">
        <ele>49.85823576914157</ele>
        <time>2021-07-28T18:20:14.164Z</time>
      </trkpt>
      <trkpt lat="42.053604209795594" lon="2.8764760494232178">
        <ele>49.76441952859433</ele>
        <time>2021-07-28T18:20:17.721Z</time>
      </trkpt>
      <trkpt lat="42.054033279418945" lon="2.87691593170166">
        <ele>49.71411981776033</ele>
        <time>2021-07-28T18:20:21.287Z</time>
      </trkpt>
      <trkpt lat="42.05422639846802" lon="2.8772377967834473">
        <ele>49.76315030946023</ele>
        <time>2021-07-28T18:20:24.857Z</time>
      </trkpt>
      <trkpt lat="42.054365957155824" lon="2.877495288848877">
        <ele>49.825822345544616</ele>
        <time>2021-07-28T18:20:28.431Z</time>
      </trkpt>
      <trkpt lat="42.05444097518921" lon="2.877838611602783">
        <ele>49.86465141322321</ele>
        <time>2021-07-28T18:20:32.010Z</time>
      </trkpt>
      <trkpt lat="42.05448389053345" lon="2.8782248497009277">
        <ele>49.88793250021722</ele>
        <time>2021-07-28T18:20:35.593Z</time>
      </trkpt>
      <trkpt lat="42.05458045005798" lon="2.878621816635132">
        <ele>49.91185090537198</ele>
        <time>2021-07-28T18:20:39.181Z</time>
      </trkpt>
      <trkpt lat="42.05490231513977" lon="2.879437208175659">
        <ele>49.98727940761514</ele>
        <time>2021-07-28T18:20:42.780Z</time>
      </trkpt>
      <trkpt lat="42.055084789171815" lon="2.8798985481262207">
        <ele>50.0179287207882</ele>
        <time>2021-07-28T18:20:46.385Z</time>
      </trkpt>
      <trkpt lat="42.05508470535278" lon="2.8798985481262207">
        <ele>49.944129616914395</ele>
        <time>2021-07-28T18:20:49.990Z</time>
      </trkpt>
      <trkpt lat="42.05623269081116" lon="2.88266658782959">
        <ele>49.538497694175014</ele>
        <time>2021-07-28T18:20:53.633Z</time>
      </trkpt>
      <trkpt lat="42.057015895843506" lon="2.884640693664551">
        <ele>49.48141600306165</ele>
        <time>2021-07-28T18:20:57.303Z</time>
      </trkpt>
      <trkpt lat="42.05765962600708" lon="2.8861641883850098">
        <ele>49.279444540679535</ele>
        <time>2021-07-28T18:21:00.994Z</time>
      </trkpt>
      <trkpt lat="42.059333408251405" lon="2.8902411460876465">
        <ele>49.059684332464585</ele>
        <time>2021-07-28T18:21:04.740Z</time>
      </trkpt>
      <trkpt lat="42.05933332443237" lon="2.8902411460876465">
        <ele>48.829728026566315</ele>
        <time>2021-07-28T18:21:08.486Z</time>
      </trkpt>
      <trkpt lat="42.05974110402167" lon="2.8912603855133057">
        <ele>48.517315047938766</ele>
        <time>2021-07-28T18:21:12.246Z</time>
      </trkpt>
      <trkpt lat="42.060041511431336" lon="2.892000675201416">
        <ele>48.159490095248074</ele>
        <time>2021-07-28T18:21:16.016Z</time>
      </trkpt>
      <trkpt lat="42.060041427612305" lon="2.892000675201416">
        <ele>47.8410073234852</ele>
        <time>2021-07-28T18:21:19.786Z</time>
      </trkpt>
      <trkpt lat="42.06261643208563" lon="2.8969359397888184">
        <ele>47.65837239328481</ele>
        <time>2021-07-28T18:21:23.628Z</time>
      </trkpt>
      <trkpt lat="42.065255641937256" lon="2.9020321369171143">
        <ele>46.971913158560874</ele>
        <time>2021-07-28T18:21:27.544Z</time>
      </trkpt>
      <trkpt lat="42.06568479537964" lon="2.90289044380188">
        <ele>46.534564486521575</ele>
        <time>2021-07-28T18:21:31.472Z</time>
      </trkpt>
      <trkpt lat="42.06571698188782" lon="2.903083562850952">
        <ele>46.11384613072699</ele>
        <time>2021-07-28T18:21:35.402Z</time>
      </trkpt>
      <trkpt lat="42.06571698188782" lon="2.9032444953918457">
        <ele>45.67974721387489</ele>
        <time>2021-07-28T18:21:39.334Z</time>
      </trkpt>
      <trkpt lat="42.06564196385443" lon="2.903437614440918">
        <ele>45.232133301961355</ele>
        <time>2021-07-28T18:21:43.269Z</time>
      </trkpt>
      <trkpt lat="42.065513134002686" lon="2.9036736488342285">
        <ele>44.78878316727402</ele>
        <time>2021-07-28T18:21:47.207Z</time>
      </trkpt>
      <trkpt lat="42.06543803215027" lon="2.903834581375122">
        <ele>44.3130141392042</ele>
        <time>2021-07-28T18:21:51.148Z</time>
      </trkpt>
      <trkpt lat="42.06536301411688" lon="2.904113531112671">
        <ele>43.77829861642324</ele>
        <time>2021-07-28T18:21:55.092Z</time>
      </trkpt>
      <trkpt lat="42.06537365913391" lon="2.904456853866577">
        <ele>43.21001485123432</ele>
        <time>2021-07-28T18:21:59.040Z</time>
      </trkpt>
      <trkpt lat="42.06540592946112" lon="2.9047465324401855">
        <ele>42.62930343663027</ele>
        <time>2021-07-28T18:22:02.992Z</time>
      </trkpt>
      <trkpt lat="42.0654381159693" lon="2.9050469398498535">
        <ele>42.04761847584679</ele>
        <time>2021-07-28T18:22:06.947Z</time>
      </trkpt>
      <trkpt lat="42.065513134002686" lon="2.9056155681610107">
        <ele>41.449474744784396</ele>
        <time>2021-07-28T18:22:10.909Z</time>
      </trkpt>
      <trkpt lat="42.06568487919867" lon="2.9069888591766357">
        <ele>40.66888618330493</ele>
        <time>2021-07-28T18:22:14.888Z</time>
      </trkpt>
      <trkpt lat="42.06611403264105" lon="2.9101216793060303">
        <ele>40.04865201329244</ele>
        <time>2021-07-28T18:22:18.905Z</time>
      </trkpt>
      <trkpt lat="42.06611394882202" lon="2.9101216793060303">
        <ele>39.43859607319979</ele>
        <time>2021-07-28T18:22:22.922Z</time>
      </trkpt>
      <trkpt lat="42.06616767682135" lon="2.910550832748413">
        <ele>38.81361784604323</ele>
        <time>2021-07-28T18:22:26.944Z</time>
      </trkpt>
      <trkpt lat="42.06623204983771" lon="2.9111087322235107">
        <ele>38.2601690646639</ele>
        <time>2021-07-28T18:22:30.973Z</time>
      </trkpt>
      <trkpt lat="42.06638216972351" lon="2.9123425483703613">
        <ele>37.62646207926619</ele>
        <time>2021-07-28T18:22:35.017Z</time>
      </trkpt>
      <trkpt lat="42.06674703396857" lon="2.9151320457458496">
        <ele>36.980861735318996</ele>
        <time>2021-07-28T18:22:39.094Z</time>
      </trkpt>
      <trkpt lat="42.066993713378906" lon="2.9170632362365723">
        <ele>36.393571713988834</ele>
        <time>2021-07-28T18:22:43.195Z</time>
      </trkpt>
      <trkpt lat="42.06862458027899" lon="2.92985200881958">
        <ele>35.668887536115136</ele>
        <time>2021-07-28T18:22:47.450Z</time>
      </trkpt>
      <trkpt lat="42.06862449645996" lon="2.92985200881958">
        <ele>35.349148817897174</ele>
        <time>2021-07-28T18:22:51.705Z</time>
      </trkpt>
      <trkpt lat="42.06897854804993" lon="2.93259859085083">
        <ele>35.44792874901785</ele>
        <time>2021-07-28T18:22:55.994Z</time>
      </trkpt>
      <trkpt lat="42.06901081837714" lon="2.9330384731292725">
        <ele>35.30214402593617</ele>
        <time>2021-07-28T18:23:00.288Z</time>
      </trkpt>
      <trkpt lat="42.06918239593506" lon="2.934443950653076">
        <ele>35.2485725082408</ele>
        <time>2021-07-28T18:23:04.599Z</time>
      </trkpt>
      <trkpt lat="42.069257497787476" lon="2.934701442718506">
        <ele>35.26558057284272</ele>
        <time>2021-07-28T18:23:08.913Z</time>
      </trkpt>
      <trkpt lat="42.070738077163696" lon="2.9462242126464844">
        <ele>35.29120561068694</ele>
        <time>2021-07-28T18:23:13.367Z</time>
      </trkpt>
      <trkpt lat="42.07084536552429" lon="2.947061061859131">
        <ele>35.57502312092555</ele>
        <time>2021-07-28T18:23:17.831Z</time>
      </trkpt>
      <trkpt lat="42.07082390785217" lon="2.947307825088501">
        <ele>35.850552191922205</ele>
        <time>2021-07-28T18:23:22.298Z</time>
      </trkpt>
      <trkpt lat="42.070791721343994" lon="2.947404384613037">
        <ele>36.1867407057007</ele>
        <time>2021-07-28T18:23:26.766Z</time>
      </trkpt>
      <trkpt lat="42.070759534835815" lon="2.9474472999572754">
        <ele>36.598005348382145</ele>
        <time>2021-07-28T18:23:31.235Z</time>
      </trkpt>
      <trkpt lat="42.07069516181946" lon="2.947511672973633">
        <ele>37.08281275850511</ele>
        <time>2021-07-28T18:23:35.705Z</time>
      </trkpt>
      <trkpt lat="42.07067370414734" lon="2.947554588317871">
        <ele>37.649809937116316</ele>
        <time>2021-07-28T18:23:40.176Z</time>
      </trkpt>
      <trkpt lat="42.07066297531128" lon="2.9476511478424072">
        <ele>38.28104932458251</ele>
        <time>2021-07-28T18:23:44.648Z</time>
      </trkpt>
      <trkpt lat="42.07069516181946" lon="2.9477477073669434">
        <ele>38.98911213004415</ele>
        <time>2021-07-28T18:23:49.121Z</time>
      </trkpt>
      <trkpt lat="42.07070589065552" lon="2.9478979110717773">
        <ele>39.72911642493514</ele>
        <time>2021-07-28T18:23:53.596Z</time>
      </trkpt>
      <trkpt lat="42.07069516181946" lon="2.948101758956909">
        <ele>40.48867674922727</ele>
        <time>2021-07-28T18:23:58.073Z</time>
      </trkpt>
      <trkpt lat="42.070555770769715" lon="2.948702573776245">
        <ele>41.334166845554776</ele>
        <time>2021-07-28T18:24:02.558Z</time>
      </trkpt>
      <trkpt lat="42.07039483822882" lon="2.949357032775879">
        <ele>42.28683742781436</ele>
        <time>2021-07-28T18:24:07.051Z</time>
      </trkpt>
      <trkpt lat="42.07023390568793" lon="2.9499900341033936">
        <ele>43.28350512036309</ele>
        <time>2021-07-28T18:24:11.552Z</time>
      </trkpt>
      <trkpt lat="42.07018026150763" lon="2.9501938819885254">
        <ele>44.045771580322544</ele>
        <time>2021-07-28T18:24:16.055Z</time>
      </trkpt>
      <trkpt lat="42.07010507583618" lon="2.950483560562134">
        <ele>44.712665644878</ele>
        <time>2021-07-28T18:24:20.562Z</time>
      </trkpt>
      <trkpt lat="42.07009434700012" lon="2.9506874084472656">
        <ele>45.317806086454524</ele>
        <time>2021-07-28T18:24:25.072Z</time>
      </trkpt>
      <trkpt lat="42.07014799118042" lon="2.950880527496338">
        <ele>45.879606691335965</ele>
        <time>2021-07-28T18:24:29.584Z</time>
      </trkpt>
      <trkpt lat="42.070534229278564" lon="2.9515886306762695">
        <ele>46.534057719228215</ele>
        <time>2021-07-28T18:24:34.106Z</time>
      </trkpt>
      <trkpt lat="42.070534313097596" lon="2.9515886306762695">
        <ele>46.68701680663918</ele>
        <time>2021-07-28T18:24:38.628Z</time>
      </trkpt>
      <trkpt lat="42.07062005996704" lon="2.9517924785614014">
        <ele>46.73245804386106</ele>
        <time>2021-07-28T18:24:43.153Z</time>
      </trkpt>
      <trkpt lat="42.07066297531128" lon="2.952028512954712">
        <ele>46.551355032080664</ele>
        <time>2021-07-28T18:24:47.681Z</time>
      </trkpt>
      <trkpt lat="42.07060941495001" lon="2.953702211380005">
        <ele>46.26079080226773</ele>
        <time>2021-07-28T18:24:52.229Z</time>
      </trkpt>
      <trkpt lat="42.07058787345886" lon="2.954699993133545">
        <ele>45.451277108972505</ele>
        <time>2021-07-28T18:24:56.789Z</time>
      </trkpt>
      <trkpt lat="42.070587957277894" lon="2.954699993133545">
        <ele>44.67731127345486</ele>
        <time>2021-07-28T18:25:01.349Z</time>
      </trkpt>
      <trkpt lat="42.07043766975403" lon="2.9589593410491943">
        <ele>43.245494287241044</ele>
        <time>2021-07-28T18:25:05.960Z</time>
      </trkpt>
      <trkpt lat="42.07043775357306" lon="2.9589593410491943">
        <ele>42.17187310278348</ele>
        <time>2021-07-28T18:25:10.571Z</time>
      </trkpt>
      <trkpt lat="42.07043766975403" lon="2.959195375442505">
        <ele>40.96567738277929</ele>
        <time>2021-07-28T18:25:15.185Z</time>
      </trkpt>
      <trkpt lat="42.07269072532654" lon="2.9589056968688965">
        <ele>39.2592799464106</ele>
        <time>2021-07-28T18:25:19.835Z</time>
      </trkpt>
      <trkpt lat="42.07287311553955" lon="2.9600000381469727">
        <ele>37.629529136958574</ele>
        <time>2021-07-28T18:25:24.498Z</time>
      </trkpt>
      <trkpt lat="42.073570573702455" lon="2.9619526863098145">
        <ele>36.339553438507465</ele>
        <time>2021-07-28T18:25:29.187Z</time>
      </trkpt>
      <trkpt lat="42.07361348904669" lon="2.962167263031006">
        <ele>34.963111901570834</ele>
        <time>2021-07-28T18:25:33.879Z</time>
      </trkpt>
      <trkpt lat="42.073742151260376" lon="2.962939739227295">
        <ele>33.564403959904745</ele>
        <time>2021-07-28T18:25:38.580Z</time>
      </trkpt>
      <trkpt lat="42.07380652427673" lon="2.963658571243286">
        <ele>32.16082572401393</ele>
        <time>2021-07-28T18:25:43.290Z</time>
      </trkpt>
      <trkpt lat="42.07399972714484" lon="2.964484691619873">
        <ele>30.937516215292973</ele>
        <time>2021-07-28T18:25:48.010Z</time>
      </trkpt>
      <trkpt lat="42.07399972714484" lon="2.964656352996826">
        <ele>29.75700834462433</ele>
        <time>2021-07-28T18:25:52.732Z</time>
      </trkpt>
      <trkpt lat="42.07464337348938" lon="2.9675209522247314">
        <ele>28.60572279448904</ele>
        <time>2021-07-28T18:25:57.490Z</time>
      </trkpt>
      <trkpt lat="42.07467555999756" lon="2.9677140712738037">
        <ele>27.54371773099888</ele>
        <time>2021-07-28T18:26:02.250Z</time>
      </trkpt>
      <trkpt lat="42.07474001683295" lon="2.9677462577819824">
        <ele>26.598518077349645</ele>
        <time>2021-07-28T18:26:07.011Z</time>
      </trkpt>
      <trkpt lat="42.078001499176025" lon="2.9692375659942627">
        <ele>25.598977807627243</ele>
        <time>2021-07-28T18:26:11.827Z</time>
      </trkpt>
      <trkpt lat="42.081509828567505" lon="2.9707932472229004">
        <ele>24.860833013339374</ele>
        <time>2021-07-28T18:26:16.702Z</time>
      </trkpt>
      <trkpt lat="42.08150991238654" lon="2.9707932472229004">
        <ele>24.311539171700666</ele>
        <time>2021-07-28T18:26:21.577Z</time>
      </trkpt>
      <trkpt lat="42.08229303359985" lon="2.971125841140747">
        <ele>23.883758064034883</ele>
        <time>2021-07-28T18:26:26.466Z</time>
      </trkpt>
      <trkpt lat="42.08238959312439" lon="2.9711365699768066">
        <ele>23.591164651800895</ele>
        <time>2021-07-28T18:26:31.356Z</time>
      </trkpt>
      <trkpt lat="42.08243250846863" lon="2.971147298812866">
        <ele>23.423587757837346</ele>
        <time>2021-07-28T18:26:36.247Z</time>
      </trkpt>
      <trkpt lat="42.082539796829224" lon="2.971158027648926">
        <ele>23.376002440383196</ele>
        <time>2021-07-28T18:26:41.140Z</time>
      </trkpt>
      <trkpt lat="42.08271154202521" lon="2.971125841140747">
        <ele>23.447037060398905</ele>
        <time>2021-07-28T18:26:46.035Z</time>
      </trkpt>
      <trkpt lat="42.083001136779785" lon="2.971147298812866">
        <ele>23.639050287671758</ele>
        <time>2021-07-28T18:26:50.935Z</time>
      </trkpt>
      <trkpt lat="42.08311915397644" lon="2.9711902141571045">
        <ele>23.90915768606959</ele>
        <time>2021-07-28T18:26:55.837Z</time>
      </trkpt>
      <trkpt lat="42.083280086517334" lon="2.971276044845581">
        <ele>24.264338560883687</ele>
        <time>2021-07-28T18:27:00.742Z</time>
      </trkpt>
      <trkpt lat="42.08346247673035" lon="2.971404790878296">
        <ele>24.714830880648336</ele>
        <time>2021-07-28T18:27:05.650Z</time>
      </trkpt>
      <trkpt lat="42.08391308784485" lon="2.9718124866485596">
        <ele>25.263926809199905</ele>
        <time>2021-07-28T18:27:10.567Z</time>
      </trkpt>
      <trkpt lat="42.084041917696595" lon="2.971876859664917">
        <ele>25.80149688229102</ele>
        <time>2021-07-28T18:27:15.486Z</time>
      </trkpt>
      <trkpt lat="42.08412774838507" lon="2.9719626903533936">
        <ele>26.356100753562853</ele>
        <time>2021-07-28T18:27:20.407Z</time>
      </trkpt>
      <trkpt lat="42.084277868270874" lon="2.972123622894287">
        <ele>26.949577248671673</ele>
        <time>2021-07-28T18:27:25.331Z</time>
      </trkpt>
      <trkpt lat="42.08455681800842" lon="2.9724669456481934">
        <ele>27.57506663294467</ele>
        <time>2021-07-28T18:27:30.261Z</time>
      </trkpt>
      <trkpt lat="42.08468556404114" lon="2.9726815223693848">
        <ele>28.119480613845923</ele>
        <time>2021-07-28T18:27:35.194Z</time>
      </trkpt>
      <trkpt lat="42.0848894957453" lon="2.9731428623199463">
        <ele>28.61008409180329</ele>
        <time>2021-07-28T18:27:40.133Z</time>
      </trkpt>
      <trkpt lat="42.08505034446716" lon="2.9736578464508057">
        <ele>29.114961476651615</ele>
        <time>2021-07-28T18:27:45.079Z</time>
      </trkpt>
      <trkpt lat="42.08515763282776" lon="2.9742157459259033">
        <ele>29.495875346832825</ele>
        <time>2021-07-28T18:27:50.032Z</time>
      </trkpt>
      <trkpt lat="42.08522208966315" lon="2.974752187728882">
        <ele>29.924846698329603</ele>
        <time>2021-07-28T18:27:54.991Z</time>
      </trkpt>
      <trkpt lat="42.08535075187683" lon="2.9758143424987793">
        <ele>30.31973622001616</ele>
        <time>2021-07-28T18:27:59.963Z</time>
      </trkpt>
      <trkpt lat="42.08569407463074" lon="2.9773592948913574">
        <ele>30.376608751984563</ele>
        <time>2021-07-28T18:28:04.954Z</time>
      </trkpt>
      <trkpt lat="42.08570488728583" lon="2.977595329284668">
        <ele>30.42820221870437</ele>
        <time>2021-07-28T18:28:09.948Z</time>
      </trkpt>
      <trkpt lat="42.085715532302856" lon="2.9777348041534424">
        <ele>30.44961367504803</ele>
        <time>2021-07-28T18:28:14.944Z</time>
      </trkpt>
      <trkpt lat="42.08566188812256" lon="2.9781317710876465">
        <ele>30.453426889480824</ele>
        <time>2021-07-28T18:28:19.945Z</time>
      </trkpt>
      <trkpt lat="42.085565412417054" lon="2.9784321784973145">
        <ele>30.2687273135777</ele>
        <time>2021-07-28T18:28:24.950Z</time>
      </trkpt>
      <trkpt lat="42.08556532859802" lon="2.9784321784973145">
        <ele>30.052567611212222</ele>
        <time>2021-07-28T18:28:29.955Z</time>
      </trkpt>
      <trkpt lat="42.085522413253784" lon="2.9785823822021484">
        <ele>29.855960668398794</ele>
        <time>2021-07-28T18:28:34.961Z</time>
      </trkpt>
      <trkpt lat="42.08492159843445" lon="2.9799234867095947">
        <ele>29.346541808667958</ele>
        <time>2021-07-28T18:28:39.986Z</time>
      </trkpt>
      <trkpt lat="42.08466410636902" lon="2.980717420578003">
        <ele>29.26843746711011</ele>
        <time>2021-07-28T18:28:45.021Z</time>
      </trkpt>
      <trkpt lat="42.08446025848389" lon="2.981511354446411">
        <ele>28.75139564583445</ele>
        <time>2021-07-28T18:28:50.066Z</time>
      </trkpt>
      <trkpt lat="42.08437451161444" lon="2.9819834232330322">
        <ele>28.35979614756122</ele>
        <time>2021-07-28T18:28:55.117Z</time>
      </trkpt>
      <trkpt lat="42.084299409762025" lon="2.982391119003296">
        <ele>28.159863571287232</ele>
        <time>2021-07-28T18:29:00.173Z</time>
      </trkpt>
      <trkpt lat="42.08417057991028" lon="2.98303484916687">
        <ele>27.87589779155583</ele>
        <time>2021-07-28T18:29:05.237Z</time>
      </trkpt>
      <trkpt lat="42.084771394729614" lon="2.983067035675049">
        <ele>28.07057719216335</ele>
        <time>2021-07-28T18:29:10.311Z</time>
      </trkpt>
      <trkpt lat="42.086015939712524" lon="2.983109951019287">
        <ele>28.42869309020709</ele>
        <time>2021-07-28T18:29:15.405Z</time>
      </trkpt>
      <trkpt lat="42.086016023531556" lon="2.983109951019287">
        <ele>28.856820711282587</ele>
        <time>2021-07-28T18:29:20.499Z</time>
      </trkpt>
      <trkpt lat="42.08853721618652" lon="2.9832065105438232">
        <ele>29.543576803703438</ele>
        <time>2021-07-28T18:29:25.633Z</time>
      </trkpt>
      <trkpt lat="42.09172376431525" lon="2.983367443084717">
        <ele>30.494437242896232</ele>
        <time>2021-07-28T18:29:30.818Z</time>
      </trkpt>
      <trkpt lat="42.09296830929816" lon="2.983431816101074">
        <ele>31.52458140894299</ele>
        <time>2021-07-28T18:29:36.023Z</time>
      </trkpt>
      <trkpt lat="42.09319353103638" lon="2.983485460281372">
        <ele>32.694417767099054</ele>
        <time>2021-07-28T18:29:41.232Z</time>
      </trkpt>
      <trkpt lat="42.094470262527466" lon="2.9842793941497803">
        <ele>33.96284201596851</ele>
        <time>2021-07-28T18:29:46.463Z</time>
      </trkpt>
      <trkpt lat="42.0944703463465" lon="2.9842793941497803">
        <ele>35.41682651976162</ele>
        <time>2021-07-28T18:29:51.694Z</time>
      </trkpt>
      <trkpt lat="42.09559679031372" lon="2.984987497329712">
        <ele>37.389174853315076</ele>
        <time>2021-07-28T18:29:56.945Z</time>
      </trkpt>
      <trkpt lat="42.098515033721924" lon="2.9866933822631836">
        <ele>39.70725473793689</ele>
        <time>2021-07-28T18:30:02.247Z</time>
      </trkpt>
      <trkpt lat="42.09920176304877" lon="2.9871654510498047">
        <ele>41.735313151668734</ele>
        <time>2021-07-28T18:30:07.561Z</time>
      </trkpt>
      <trkpt lat="42.09941625595093" lon="2.9874014854431152">
        <ele>43.64595599492772</ele>
        <time>2021-07-28T18:30:12.880Z</time>
      </trkpt>
      <trkpt lat="42.099995613098145" lon="2.9882383346557617">
        <ele>45.701429173800264</ele>
        <time>2021-07-28T18:30:18.212Z</time>
      </trkpt>
      <trkpt lat="42.099995696917176" lon="2.9882383346557617">
        <ele>47.663573237622494</ele>
        <time>2021-07-28T18:30:23.544Z</time>
      </trkpt>
      <trkpt lat="42.10054278373718" lon="2.9889893531799316">
        <ele>49.92531706761906</ele>
        <time>2021-07-28T18:30:28.889Z</time>
      </trkpt>
      <trkpt lat="42.10092902183533" lon="2.989407777786255">
        <ele>52.03860372856442</ele>
        <time>2021-07-28T18:30:34.242Z</time>
      </trkpt>
      <trkpt lat="42.10192680358887" lon="2.9903948307037354">
        <ele>54.060121527266126</ele>
        <time>2021-07-28T18:30:39.615Z</time>
      </trkpt>
      <trkpt lat="42.10217365063727" lon="2.990630865097046">
        <ele>56.06945840170286</ele>
        <time>2021-07-28T18:30:44.992Z</time>
      </trkpt>
      <trkpt lat="42.102806651964784" lon="2.991253137588501">
        <ele>58.27415839660754</ele>
        <time>2021-07-28T18:30:50.382Z</time>
      </trkpt>
      <trkpt lat="42.10284956730902" lon="2.9912853240966797">
        <ele>60.26173972336631</ele>
        <time>2021-07-28T18:30:55.773Z</time>
      </trkpt>
      <trkpt lat="42.103010416030884" lon="2.9914677143096924">
        <ele>62.30815325887485</ele>
        <time>2021-07-28T18:31:01.167Z</time>
      </trkpt>
      <trkpt lat="42.103289449587464" lon="2.9918861389160156">
        <ele>64.4116349520336</ele>
        <time>2021-07-28T18:31:06.568Z</time>
      </trkpt>
      <trkpt lat="42.10339673794806" lon="2.992047071456909">
        <ele>66.41016062567624</ele>
        <time>2021-07-28T18:31:11.971Z</time>
      </trkpt>
      <trkpt lat="42.103997468948364" lon="2.993044853210449">
        <ele>68.71963133626204</ele>
        <time>2021-07-28T18:31:17.390Z</time>
      </trkpt>
      <trkpt lat="42.103997552767396" lon="2.993044853210449">
        <ele>70.60252772749914</ele>
        <time>2021-07-28T18:31:22.809Z</time>
      </trkpt>
      <trkpt lat="42.10413694381714" lon="2.9932916164398193">
        <ele>72.54629402405705</ele>
        <time>2021-07-28T18:31:28.231Z</time>
      </trkpt>
      <trkpt lat="42.104222774505615" lon="2.9934096336364746">
        <ele>74.44188287688281</ele>
        <time>2021-07-28T18:31:33.655Z</time>
      </trkpt>
      <trkpt lat="42.1043945197016" lon="2.993570566177368">
        <ele>76.36583134893529</ele>
        <time>2021-07-28T18:31:39.083Z</time>
      </trkpt>
      <trkpt lat="42.1045982837677" lon="2.9937314987182617">
        <ele>78.30837424800367</ele>
        <time>2021-07-28T18:31:44.514Z</time>
      </trkpt>
      <trkpt lat="42.10466274060309" lon="2.9937851428985596">
        <ele>80.19359350865199</ele>
        <time>2021-07-28T18:31:49.947Z</time>
      </trkpt>
      <trkpt lat="42.10540294647217" lon="2.994375228881836">
        <ele>82.34711724113328</ele>
        <time>2021-07-28T18:31:55.393Z</time>
      </trkpt>
      <trkpt lat="42.10552096366882" lon="2.994450330734253">
        <ele>84.2514220788037</ele>
        <time>2021-07-28T18:32:00.842Z</time>
      </trkpt>
      <trkpt lat="42.105746269226074" lon="2.994546890258789">
        <ele>86.21535771572869</ele>
        <time>2021-07-28T18:32:06.294Z</time>
      </trkpt>
      <trkpt lat="42.105993032455444" lon="2.9945898056030273">
        <ele>88.1702380597828</ele>
        <time>2021-07-28T18:32:11.750Z</time>
      </trkpt>
      <trkpt lat="42.10740923881531" lon="2.9947829246520996">
        <ele>90.59921332861757</ele>
        <time>2021-07-28T18:32:17.229Z</time>
      </trkpt>
      <trkpt lat="42.10886836051941" lon="2.9949867725372314">
        <ele>92.88814133847825</ele>
        <time>2021-07-28T18:32:22.732Z</time>
      </trkpt>
      <trkpt lat="42.1090292930603" lon="2.9950404167175293">
        <ele>94.79066539672426</ele>
        <time>2021-07-28T18:32:28.237Z</time>
      </trkpt>
      <trkpt lat="42.1090829372406" lon="2.995094060897827">
        <ele>96.62594366647146</ele>
        <time>2021-07-28T18:32:33.743Z</time>
      </trkpt>
      <trkpt lat="42.10914731025696" lon="2.9951798915863037">
        <ele>98.4839722624308</ele>
        <time>2021-07-28T18:32:39.251Z</time>
      </trkpt>
      <trkpt lat="42.109211683273315" lon="2.9953408241271973">
        <ele>100.32591776171537</ele>
        <time>2021-07-28T18:32:44.761Z</time>
      </trkpt>
      <trkpt lat="42.10928678512573" lon="2.996124029159546">
        <ele>102.21099581094843</ele>
        <time>2021-07-28T18:32:50.280Z</time>
      </trkpt>
      <trkpt lat="42.10927605628967" lon="2.9964029788970947">
        <ele>104.06263351618372</ele>
        <time>2021-07-28T18:32:55.803Z</time>
      </trkpt>
      <trkpt lat="42.10915803909302" lon="2.996896505355835">
        <ele>105.88743110968393</ele>
        <time>2021-07-28T18:33:01.332Z</time>
      </trkpt>
      <trkpt lat="42.10914739407599" lon="2.9969394207000732">
        <ele>107.62109712869534</ele>
        <time>2021-07-28T18:33:06.861Z</time>
      </trkpt>
      <trkpt lat="42.1090829372406" lon="2.997196912765503">
        <ele>109.34885727044316</ele>
        <time>2021-07-28T18:33:12.394Z</time>
      </trkpt>
      <trkpt lat="42.10906147956848" lon="2.9973256587982178">
        <ele>111.06606964106825</ele>
        <time>2021-07-28T18:33:17.928Z</time>
      </trkpt>
      <trkpt lat="42.10906147956848" lon="2.9974758625030518">
        <ele>112.76367917617321</ele>
        <time>2021-07-28T18:33:23.464Z</time>
      </trkpt>
      <trkpt lat="42.1091365814209" lon="2.9984521865844727">
        <ele>114.84756929005472</ele>
        <time>2021-07-28T18:33:29.012Z</time>
      </trkpt>
      <trkpt lat="42.10915803909302" lon="2.998570203781128">
        <ele>116.42997551993894</ele>
        <time>2021-07-28T18:33:34.561Z</time>
      </trkpt>
      <trkpt lat="42.109233140945435" lon="2.9987525939941406">
        <ele>117.96179105615698</ele>
        <time>2021-07-28T18:33:40.113Z</time>
      </trkpt>
      <trkpt lat="42.10937261581421" lon="2.998870611190796">
        <ele>119.44171321869727</ele>
        <time>2021-07-28T18:33:45.667Z</time>
      </trkpt>
      <trkpt lat="42.109469175338745" lon="2.9989027976989746">
        <ele>120.79840505793993</ele>
        <time>2021-07-28T18:33:51.223Z</time>
      </trkpt>
      <trkpt lat="42.11234458722174" lon="2.9997289180755615">
        <ele>123.06417002977662</ele>
        <time>2021-07-28T18:33:56.826Z</time>
      </trkpt>
      <trkpt lat="42.11313852109015" lon="2.9999542236328125">
        <ele>124.10237876877966</ele>
        <time>2021-07-28T18:34:02.442Z</time>
      </trkpt>
      <trkpt lat="42.11366423405707" lon="3.0001044273376465">
        <ele>124.89467956500941</ele>
        <time>2021-07-28T18:34:08.066Z</time>
      </trkpt>
      <trkpt lat="42.11366415023804" lon="3.0001044273376465">
        <ele>125.49143528996768</ele>
        <time>2021-07-28T18:34:13.690Z</time>
      </trkpt>
      <trkpt lat="42.11464055813849" lon="3.0003833770751953">
        <ele>125.759895875985</ele>
        <time>2021-07-28T18:34:19.330Z</time>
      </trkpt>
      <trkpt lat="42.114962339401245" lon="3.000437021255493">
        <ele>125.95174881396888</ele>
        <time>2021-07-28T18:34:24.976Z</time>
      </trkpt>
      <trkpt lat="42.11616405285895" lon="3.000469207763672">
        <ele>126.12006348029671</ele>
        <time>2021-07-28T18:34:30.641Z</time>
      </trkpt>
      <trkpt lat="42.11655020713806" lon="3.0004799365997314">
        <ele>125.86588448426085</ele>
        <time>2021-07-28T18:34:36.312Z</time>
      </trkpt>
      <trkpt lat="42.11680778302252" lon="3.000394105911255">
        <ele>125.34819326506528</ele>
        <time>2021-07-28T18:34:41.987Z</time>
      </trkpt>
      <trkpt lat="42.11791276931763" lon="2.9999005794525146">
        <ele>124.36568303645434</ele>
        <time>2021-07-28T18:34:47.681Z</time>
      </trkpt>
      <trkpt lat="42.11806305684149" lon="2.9998576641082764">
        <ele>123.56230762121785</ele>
        <time>2021-07-28T18:34:53.377Z</time>
      </trkpt>
      <trkpt lat="42.11834192276001" lon="2.9998791217803955">
        <ele>122.58735657672736</ele>
        <time>2021-07-28T18:34:59.078Z</time>
      </trkpt>
      <trkpt lat="42.11959719657898" lon="3.0002009868621826">
        <ele>121.44145892556273</ele>
        <time>2021-07-28T18:35:04.799Z</time>
      </trkpt>
      <trkpt lat="42.11975812911987" lon="3.0002975463867188">
        <ele>120.3427740239201</ele>
        <time>2021-07-28T18:35:10.523Z</time>
      </trkpt>
      <trkpt lat="42.11984395980835" lon="3.0003726482391357">
        <ele>119.24174211448485</ele>
        <time>2021-07-28T18:35:16.249Z</time>
      </trkpt>
      <trkpt lat="42.12078809738159" lon="3.0015313625335693">
        <ele>117.88205654227508</ele>
        <time>2021-07-28T18:35:21.995Z</time>
      </trkpt>
      <trkpt lat="42.12083109654486" lon="3.001585006713867">
        <ele>116.84117072307384</ele>
        <time>2021-07-28T18:35:27.742Z</time>
      </trkpt>
      <trkpt lat="42.12100267410278" lon="3.0017459392547607">
        <ele>115.77776038942795</ele>
        <time>2021-07-28T18:35:33.492Z</time>
      </trkpt>
      <trkpt lat="42.12109923362732" lon="3.0017995834350586">
        <ele>114.88650437506575</ele>
        <time>2021-07-28T18:35:39.244Z</time>
      </trkpt>
      <trkpt lat="42.121185064315796" lon="3.001842498779297">
        <ele>114.10904268875916</ele>
        <time>2021-07-28T18:35:44.998Z</time>
      </trkpt>
      <trkpt lat="42.12135672569275" lon="3.0018532276153564">
        <ele>113.47638307965624</ele>
        <time>2021-07-28T18:35:50.754Z</time>
      </trkpt>
      <trkpt lat="42.121453285217285" lon="3.001842498779297">
        <ele>112.98461248131929</ele>
        <time>2021-07-28T18:35:56.512Z</time>
      </trkpt>
      <trkpt lat="42.12158203125" lon="3.001788854598999">
        <ele>112.65371256644491</ele>
        <time>2021-07-28T18:36:02.272Z</time>
      </trkpt>
      <trkpt lat="42.122225845232606" lon="3.001391887664795">
        <ele>112.4354544989053</ele>
        <time>2021-07-28T18:36:08.043Z</time>
      </trkpt>
      <trkpt lat="42.12232240475714" lon="3.0013275146484375">
        <ele>112.27234443623325</ele>
        <time>2021-07-28T18:36:13.816Z</time>
      </trkpt>
      <trkpt lat="42.122740829363465" lon="3.001070022583008">
        <ele>112.2750082022365</ele>
        <time>2021-07-28T18:36:19.596Z</time>
      </trkpt>
      <trkpt lat="42.123266542330384" lon="3.0007588863372803">
        <ele>112.36261625333884</ele>
        <time>2021-07-28T18:36:25.386Z</time>
      </trkpt>
      <trkpt lat="42.12379217147827" lon="3.0004477500915527">
        <ele>112.71594079695468</ele>
        <time>2021-07-28T18:36:31.185Z</time>
      </trkpt>
      <trkpt lat="42.123985290527344" lon="3.0002975463867188">
        <ele>112.75056149263827</ele>
        <time>2021-07-28T18:36:36.987Z</time>
      </trkpt>
      <trkpt lat="42.12409257888794" lon="3.0001580715179443">
        <ele>112.89947484453353</ele>
        <time>2021-07-28T18:36:42.792Z</time>
      </trkpt>
      <trkpt lat="42.12414622306824" lon="3.0000507831573486">
        <ele>113.10755365533308</ele>
        <time>2021-07-28T18:36:48.598Z</time>
      </trkpt>
      <trkpt lat="42.12417849339545" lon="2.999868392944336">
        <ele>113.39475000238681</ele>
        <time>2021-07-28T18:36:54.407Z</time>
      </trkpt>
      <trkpt lat="42.124232053756714" lon="2.999567985534668">
        <ele>113.72769663039092</ele>
        <time>2021-07-28T18:37:00.219Z</time>
      </trkpt>
      <trkpt lat="42.12427496910095" lon="2.999396324157715">
        <ele>113.92852956625136</ele>
        <time>2021-07-28T18:37:06.033Z</time>
      </trkpt>
      <trkpt lat="42.12437152862549" lon="2.999289035797119">
        <ele>113.93490469210741</ele>
        <time>2021-07-28T18:37:11.849Z</time>
      </trkpt>
      <trkpt lat="42.12441444396973" lon="2.999267578125">
        <ele>113.89934814333238</ele>
        <time>2021-07-28T18:37:17.666Z</time>
      </trkpt>
      <trkpt lat="42.124478816986084" lon="2.9992568492889404">
        <ele>113.76857817845479</ele>
        <time>2021-07-28T18:37:23.484Z</time>
      </trkpt>
      <trkpt lat="42.12461829185486" lon="2.999267578125">
        <ele>113.47551128982636</ele>
        <time>2021-07-28T18:37:29.304Z</time>
      </trkpt>
      <trkpt lat="42.12504744529724" lon="2.999342679977417">
        <ele>112.89836520813554</ele>
        <time>2021-07-28T18:37:35.131Z</time>
      </trkpt>
      <trkpt lat="42.125208377838135" lon="2.9993319511413574">
        <ele>112.66324361577239</ele>
        <time>2021-07-28T18:37:40.961Z</time>
      </trkpt>
      <trkpt lat="42.12531566619873" lon="2.999289035797119">
        <ele>112.3896190136416</ele>
        <time>2021-07-28T18:37:46.793Z</time>
      </trkpt>
      <trkpt lat="42.12812662124634" lon="2.9980123043060303">
        <ele>112.68313617983871</ele>
        <time>2021-07-28T18:37:52.672Z</time>
      </trkpt>
      <trkpt lat="42.129671573638916" lon="2.997293472290039">
        <ele>111.70592530522379</ele>
        <time>2021-07-28T18:37:58.577Z</time>
      </trkpt>
      <trkpt lat="42.129961252212524" lon="2.997164726257324">
        <ele>111.16819626390009</ele>
        <time>2021-07-28T18:38:04.487Z</time>
      </trkpt>
      <trkpt lat="42.13012218475342" lon="2.997100353240967">
        <ele>110.58882553517415</ele>
        <time>2021-07-28T18:38:10.400Z</time>
      </trkpt>
      <trkpt lat="42.13024020195007" lon="2.9970896244049072">
        <ele>109.99406043090481</ele>
        <time>2021-07-28T18:38:16.315Z</time>
      </trkpt>
      <trkpt lat="42.13030457496643" lon="2.997121810913086">
        <ele>109.39029844840849</ele>
        <time>2021-07-28T18:38:22.231Z</time>
      </trkpt>
      <trkpt lat="42.13035830296576" lon="2.9971861839294434">
        <ele>108.75555192332547</ele>
        <time>2021-07-28T18:38:28.148Z</time>
      </trkpt>
      <trkpt lat="42.130465507507324" lon="2.9972612857818604">
        <ele>108.05766280590964</ele>
        <time>2021-07-28T18:38:34.067Z</time>
      </trkpt>
      <trkpt lat="42.13059425354004" lon="2.9972612857818604">
        <ele>107.31961704829983</ele>
        <time>2021-07-28T18:38:39.988Z</time>
      </trkpt>
      <trkpt lat="42.130712270736694" lon="2.997164726257324">
        <ele>106.54814137815187</ele>
        <time>2021-07-28T18:38:45.911Z</time>
      </trkpt>
      <trkpt lat="42.13077664375305" lon="2.9970037937164307">
        <ele>105.75188847140707</ele>
        <time>2021-07-28T18:38:51.836Z</time>
      </trkpt>
      <trkpt lat="42.13084101676941" lon="2.996875047683716">
        <ele>104.91388621189105</ele>
        <time>2021-07-28T18:38:57.763Z</time>
      </trkpt>
      <trkpt lat="42.13099122047424" lon="2.9967355728149414">
        <ele>103.97338182815619</ele>
        <time>2021-07-28T18:39:03.693Z</time>
      </trkpt>
      <trkpt lat="42.131216526031494" lon="2.996596097946167">
        <ele>102.9521135180448</ele>
        <time>2021-07-28T18:39:09.627Z</time>
      </trkpt>
      <trkpt lat="42.13413485325873" lon="2.99527645111084">
        <ele>101.50950046473866</ele>
        <time>2021-07-28T18:39:15.610Z</time>
      </trkpt>
      <trkpt lat="42.13433870114386" lon="2.9951798915863037">
        <ele>100.39131028269989</ele>
        <time>2021-07-28T18:39:21.597Z</time>
      </trkpt>
      <trkpt lat="42.135164737701416" lon="2.9948043823242188">
        <ele>99.28688960689432</ele>
        <time>2021-07-28T18:39:27.598Z</time>
      </trkpt>
      <trkpt lat="42.13535785675049" lon="2.9947614669799805">
        <ele>98.09348984933396</ele>
        <time>2021-07-28T18:39:33.602Z</time>
      </trkpt>
      <trkpt lat="42.13702082633972" lon="2.994546890258789">
        <ele>96.83845434013132</ele>
        <time>2021-07-28T18:39:39.633Z</time>
      </trkpt>
      <trkpt lat="42.13725686073303" lon="2.9944825172424316">
        <ele>95.35548546580645</ele>
        <time>2021-07-28T18:39:45.667Z</time>
      </trkpt>
      <trkpt lat="42.13889837265015" lon="2.993323802947998">
        <ele>93.6116283182294</ele>
        <time>2021-07-28T18:39:51.731Z</time>
      </trkpt>
      <trkpt lat="42.13905930519104" lon="2.993248701095581">
        <ele>92.01416832644264</ele>
        <time>2021-07-28T18:39:57.798Z</time>
      </trkpt>
      <trkpt lat="42.13933825492859" lon="2.9931843280792236">
        <ele>90.34817381783708</ele>
        <time>2021-07-28T18:40:03.869Z</time>
      </trkpt>
      <trkpt lat="42.14014291763306" lon="2.993077039718628">
        <ele>88.56675599172681</ele>
        <time>2021-07-28T18:40:09.953Z</time>
      </trkpt>
      <trkpt lat="42.14210629463196" lon="2.9927337169647217">
        <ele>86.43741738813422</ele>
        <time>2021-07-28T18:40:16.069Z</time>
      </trkpt>
      <trkpt lat="42.142406702041626" lon="2.992626428604126">
        <ele>84.4247320525225</ele>
        <time>2021-07-28T18:40:22.190Z</time>
      </trkpt>
      <trkpt lat="42.143157720565796" lon="2.9921329021453857">
        <ele>82.39044880997108</ele>
        <time>2021-07-28T18:40:28.324Z</time>
      </trkpt>
      <trkpt lat="42.143425941467285" lon="2.992004156112671">
        <ele>80.21670142853718</ele>
        <time>2021-07-28T18:40:34.463Z</time>
      </trkpt>
      <trkpt lat="42.1440589427948" lon="2.991607189178467">
        <ele>78.25157197118818</ele>
        <time>2021-07-28T18:40:40.613Z</time>
      </trkpt>
      <trkpt lat="42.14460611343384" lon="2.990974187850952">
        <ele>75.90604270031115</ele>
        <time>2021-07-28T18:40:46.775Z</time>
      </trkpt>
      <trkpt lat="42.144702672958374" lon="2.990899085998535">
        <ele>73.88540701408586</ele>
        <time>2021-07-28T18:40:52.938Z</time>
      </trkpt>
      <trkpt lat="42.14485287666321" lon="2.9908668994903564">
        <ele>71.88656475025957</ele>
        <time>2021-07-28T18:40:59.104Z</time>
      </trkpt>
      <trkpt lat="42.14503526687622" lon="2.9908668994903564">
        <ele>69.93977170526074</ele>
        <time>2021-07-28T18:41:05.273Z</time>
      </trkpt>
      <trkpt lat="42.145893573760986" lon="2.9909098148345947">
        <ele>67.93014740696717</ele>
        <time>2021-07-28T18:41:11.455Z</time>
      </trkpt>
      <trkpt lat="42.14605459012091" lon="2.990856170654297">
        <ele>66.11728094247334</ele>
        <time>2021-07-28T18:41:17.640Z</time>
      </trkpt>
      <trkpt lat="42.146194064989686" lon="2.990705966949463">
        <ele>64.28599245484045</ele>
        <time>2021-07-28T18:41:23.828Z</time>
      </trkpt>
      <trkpt lat="42.1464729309082" lon="2.9902124404907227">
        <ele>62.170646407573585</ele>
        <time>2021-07-28T18:41:30.023Z</time>
      </trkpt>
      <trkpt lat="42.14660167694092" lon="2.990105152130127">
        <ele>60.33125748552122</ele>
        <time>2021-07-28T18:41:36.221Z</time>
      </trkpt>
      <trkpt lat="42.14679479598999" lon="2.9900407791137695">
        <ele>58.573961896350255</ele>
        <time>2021-07-28T18:41:42.422Z</time>
      </trkpt>
      <trkpt lat="42.146977186203" lon="2.99003005027771">
        <ele>56.905051504067934</ele>
        <time>2021-07-28T18:41:48.626Z</time>
      </trkpt>
      <trkpt lat="42.14810379780829" lon="2.9901480674743652">
        <ele>55.074548180977686</ele>
        <time>2021-07-28T18:41:54.848Z</time>
      </trkpt>
      <trkpt lat="42.149412631988525" lon="2.9902875423431396">
        <ele>53.09014103676569</ele>
        <time>2021-07-28T18:42:01.091Z</time>
      </trkpt>
      <trkpt lat="42.14962720870972" lon="2.990330457687378">
        <ele>51.65589103133285</ele>
        <time>2021-07-28T18:42:07.337Z</time>
      </trkpt>
      <trkpt lat="42.15057134628296" lon="2.990577220916748">
        <ele>50.1200314423465</ele>
        <time>2021-07-28T18:42:13.599Z</time>
      </trkpt>
      <trkpt lat="42.152019739151" lon="2.990931272506714">
        <ele>48.867324103763664</ele>
        <time>2021-07-28T18:42:19.884Z</time>
      </trkpt>
      <trkpt lat="42.152180755510926" lon="2.990974187850952">
        <ele>47.749156439094705</ele>
        <time>2021-07-28T18:42:26.172Z</time>
      </trkpt>
      <trkpt lat="42.15228796005249" lon="2.9909956455230713">
        <ele>46.703246675289094</ele>
        <time>2021-07-28T18:42:32.462Z</time>
      </trkpt>
      <trkpt lat="42.15241678990424" lon="2.990974187850952">
        <ele>45.72969658263244</ele>
        <time>2021-07-28T18:42:38.754Z</time>
      </trkpt>
      <trkpt lat="42.152416706085205" lon="2.990974187850952">
        <ele>44.81967139529242</ele>
        <time>2021-07-28T18:42:45.046Z</time>
      </trkpt>
      <trkpt lat="42.154723489657044" lon="2.989600896835327">
        <ele>43.81777728902736</ele>
        <time>2021-07-28T18:42:51.378Z</time>
      </trkpt>
      <trkpt lat="42.15472340583801" lon="2.989600896835327">
        <ele>43.054109407554094</ele>
        <time>2021-07-28T18:42:57.710Z</time>
      </trkpt>
      <trkpt lat="42.1548415068537" lon="2.9895365238189697">
        <ele>42.31294413327448</ele>
        <time>2021-07-28T18:43:04.044Z</time>
      </trkpt>
      <trkpt lat="42.15554961003363" lon="2.989107370376587">
        <ele>41.73912085996446</ele>
        <time>2021-07-28T18:43:10.391Z</time>
      </trkpt>
      <trkpt lat="42.1555495262146" lon="2.989107370376587">
        <ele>41.17997507588743</ele>
        <time>2021-07-28T18:43:16.738Z</time>
      </trkpt>
      <trkpt lat="42.155903577804565" lon="2.9888927936553955">
        <ele>40.483050165960336</ele>
        <time>2021-07-28T18:43:23.091Z</time>
      </trkpt>
      <trkpt lat="42.15609669685364" lon="2.9887211322784424">
        <ele>39.895055882850286</ele>
        <time>2021-07-28T18:43:29.448Z</time>
      </trkpt>
      <trkpt lat="42.15633273124695" lon="2.988452911376953">
        <ele>39.37019542765372</ele>
        <time>2021-07-28T18:43:35.809Z</time>
      </trkpt>
      <trkpt lat="42.156440019607544" lon="2.988356351852417">
        <ele>39.091519762540386</ele>
        <time>2021-07-28T18:43:42.173Z</time>
      </trkpt>
      <trkpt lat="42.15649374760687" lon="2.988334894180298">
        <ele>38.922066907261154</ele>
        <time>2021-07-28T18:43:48.537Z</time>
      </trkpt>
      <trkpt lat="42.15654730796814" lon="2.9883134365081787">
        <ele>38.81829580895698</ele>
        <time>2021-07-28T18:43:54.902Z</time>
      </trkpt>
      <trkpt lat="42.15661176480353" lon="2.988334894180298">
        <ele>38.79624347307944</ele>
        <time>2021-07-28T18:44:01.268Z</time>
      </trkpt>
      <trkpt lat="42.15666540898383" lon="2.988356351852417">
        <ele>38.84188245760478</ele>
        <time>2021-07-28T18:44:07.635Z</time>
      </trkpt>
      <trkpt lat="42.15726613998413" lon="2.988506555557251">
        <ele>38.77861069490385</ele>
        <time>2021-07-28T18:44:14.012Z</time>
      </trkpt>
      <trkpt lat="42.15778120793402" lon="2.9885709285736084">
        <ele>39.033985440661965</ele>
        <time>2021-07-28T18:44:20.397Z</time>
      </trkpt>
      <trkpt lat="42.15778112411499" lon="2.9885709285736084">
        <ele>39.27201925489545</ele>
        <time>2021-07-28T18:44:26.782Z</time>
      </trkpt>
      <trkpt lat="42.158167362213135" lon="2.9886245727539062">
        <ele>39.65055213268987</ele>
        <time>2021-07-28T18:44:33.174Z</time>
      </trkpt>
      <trkpt lat="42.15882182121277" lon="2.9887425899505615">
        <ele>40.05115696477009</ele>
        <time>2021-07-28T18:44:39.576Z</time>
      </trkpt>
      <trkpt lat="42.15929388999939" lon="2.988882064819336">
        <ele>40.315170959006934</ele>
        <time>2021-07-28T18:44:45.986Z</time>
      </trkpt>
      <trkpt lat="42.16073155403137" lon="2.9894936084747314">
        <ele>40.73403917871405</ele>
        <time>2021-07-28T18:44:52.420Z</time>
      </trkpt>
      <trkpt lat="42.16236242093146" lon="2.9902660846710205">
        <ele>41.55531845376522</ele>
        <time>2021-07-28T18:44:58.882Z</time>
      </trkpt>
      <trkpt lat="42.16236233711243" lon="2.9902660846710205">
        <ele>41.73814196257642</ele>
        <time>2021-07-28T18:45:05.344Z</time>
      </trkpt>
      <trkpt lat="42.16300615109503" lon="2.990598678588867">
        <ele>41.63084003225151</ele>
        <time>2021-07-28T18:45:11.817Z</time>
      </trkpt>
      <trkpt lat="42.16303833760321" lon="2.9906201362609863">
        <ele>41.65213378208129</ele>
        <time>2021-07-28T18:45:18.290Z</time>
      </trkpt>
      <trkpt lat="42.16303825378418" lon="2.9906201362609863">
        <ele>41.60645293036361</ele>
        <time>2021-07-28T18:45:24.763Z</time>
      </trkpt>
      <trkpt lat="42.16369271278381" lon="2.9909098148345947">
        <ele>41.164119762802414</ele>
        <time>2021-07-28T18:45:31.247Z</time>
      </trkpt>
      <trkpt lat="42.16383218765259" lon="2.9910600185394287">
        <ele>40.92693037808373</ele>
        <time>2021-07-28T18:45:37.734Z</time>
      </trkpt>
      <trkpt lat="42.163918102160096" lon="2.991253137588501">
        <ele>40.687622118495824</ele>
        <time>2021-07-28T18:45:44.224Z</time>
      </trkpt>
      <trkpt lat="42.164132595062256" lon="2.9918324947357178">
        <ele>40.44515343911803</ele>
        <time>2021-07-28T18:45:50.721Z</time>
      </trkpt>
      <trkpt lat="42.16420769691467" lon="2.9919075965881348">
        <ele>40.09520392494493</ele>
        <time>2021-07-28T18:45:57.220Z</time>
      </trkpt>
      <trkpt lat="42.16432571411133" lon="2.9919612407684326">
        <ele>39.67101580388697</ele>
        <time>2021-07-28T18:46:03.721Z</time>
      </trkpt>
      <trkpt lat="42.16445446014404" lon="2.9919826984405518">
        <ele>39.214565151682166</ele>
        <time>2021-07-28T18:46:10.224Z</time>
      </trkpt>
      <trkpt lat="42.164980256929994" lon="2.9919397830963135">
        <ele>38.435514242713495</ele>
        <time>2021-07-28T18:46:16.735Z</time>
      </trkpt>
      <trkpt lat="42.166675413027406" lon="2.9915964603424072">
        <ele>37.610237323606924</ele>
        <time>2021-07-28T18:46:23.274Z</time>
      </trkpt>
      <trkpt lat="42.16861733235419" lon="2.9912102222442627">
        <ele>37.4596633257321</ele>
        <time>2021-07-28T18:46:29.844Z</time>
      </trkpt>
      <trkpt lat="42.168617248535156" lon="2.9912102222442627">
        <ele>37.16930040216688</ele>
        <time>2021-07-28T18:46:36.414Z</time>
      </trkpt>
      <trkpt lat="42.16936835087836" lon="2.9910600185394287">
        <ele>37.55530393726868</ele>
        <time>2021-07-28T18:46:42.996Z</time>
      </trkpt>
      <trkpt lat="42.170666456222534" lon="2.990802526473999">
        <ele>37.526769653224136</ele>
        <time>2021-07-28T18:46:49.599Z</time>
      </trkpt>
      <trkpt lat="42.17084884643555" lon="2.9907166957855225">
        <ele>37.17029660380611</ele>
        <time>2021-07-28T18:46:56.206Z</time>
      </trkpt>
      <trkpt lat="42.1710205078125" lon="2.990577220916748">
        <ele>36.71665863402261</ele>
        <time>2021-07-28T18:47:02.816Z</time>
      </trkpt>
      <trkpt lat="42.17135318554938" lon="2.9902124404907227">
        <ele>36.37819594655264</ele>
        <time>2021-07-28T18:47:09.433Z</time>
      </trkpt>
      <trkpt lat="42.17135310173035" lon="2.9902124404907227">
        <ele>36.05451886049789</ele>
        <time>2021-07-28T18:47:16.050Z</time>
      </trkpt>
      <trkpt lat="42.171439016237855" lon="2.9901158809661865">
        <ele>35.740440003783945</ele>
        <time>2021-07-28T18:47:22.668Z</time>
      </trkpt>
      <trkpt lat="42.17159986495972" lon="2.989976406097412">
        <ele>35.36857258935867</ele>
        <time>2021-07-28T18:47:29.289Z</time>
      </trkpt>
      <trkpt lat="42.17176079750061" lon="2.989879846572876">
        <ele>34.93945704095753</ele>
        <time>2021-07-28T18:47:35.913Z</time>
      </trkpt>
      <trkpt lat="42.17201837338507" lon="2.9897618293762207">
        <ele>34.441810841090685</ele>
        <time>2021-07-28T18:47:42.542Z</time>
      </trkpt>
      <trkpt lat="42.17224359512329" lon="2.989654541015625">
        <ele>33.90710062296006</ele>
        <time>2021-07-28T18:47:49.174Z</time>
      </trkpt>
      <trkpt lat="42.17244744300842" lon="2.989504337310791">
        <ele>33.366374812182805</ele>
        <time>2021-07-28T18:47:55.810Z</time>
      </trkpt>
      <trkpt lat="42.17273712158203" lon="2.989407777786255">
        <ele>32.85635417967876</ele>
        <time>2021-07-28T18:48:02.451Z</time>
      </trkpt>
      <trkpt lat="42.172887325286865" lon="2.9893863201141357">
        <ele>32.31903085331277</ele>
        <time>2021-07-28T18:48:09.094Z</time>
      </trkpt>
      <trkpt lat="42.17300534248352" lon="2.9894614219665527">
        <ele>31.75979011014388</ele>
        <time>2021-07-28T18:48:15.739Z</time>
      </trkpt>
      <trkpt lat="42.17324137687683" lon="2.9897725582122803">
        <ele>31.128651504004516</ele>
        <time>2021-07-28T18:48:22.390Z</time>
      </trkpt>
      <trkpt lat="42.17332729138434" lon="2.989879846572876">
        <ele>30.605334850427376</ele>
        <time>2021-07-28T18:48:29.043Z</time>
      </trkpt>
      <trkpt lat="42.1733916644007" lon="2.989976406097412">
        <ele>30.120742640316664</ele>
        <time>2021-07-28T18:48:35.697Z</time>
      </trkpt>
      <trkpt lat="42.17354186810553" lon="2.9902124404907227">
        <ele>29.663798745243056</ele>
        <time>2021-07-28T18:48:42.355Z</time>
      </trkpt>
      <trkpt lat="42.17374571599066" lon="2.9906845092773438">
        <ele>29.244200244219925</ele>
        <time>2021-07-28T18:48:49.019Z</time>
      </trkpt>
      <trkpt lat="42.17402466572821" lon="2.991253137588501">
        <ele>28.891664535952398</ele>
        <time>2021-07-28T18:48:55.691Z</time>
      </trkpt>
      <trkpt lat="42.17424997128546" lon="2.991800308227539">
        <ele>28.618702766484546</ele>
        <time>2021-07-28T18:49:02.371Z</time>
      </trkpt>
      <trkpt lat="42.17448600567877" lon="2.992347478866577">
        <ele>28.39619184594652</ele>
        <time>2021-07-28T18:49:09.058Z</time>
      </trkpt>
      <trkpt lat="42.174925804138184" lon="2.9932165145874023">
        <ele>28.213352107892348</ele>
        <time>2021-07-28T18:49:15.758Z</time>
      </trkpt>
      <trkpt lat="42.1753013972193" lon="2.994171380996704">
        <ele>28.023348390111508</ele>
        <time>2021-07-28T18:49:22.471Z</time>
      </trkpt>
      <trkpt lat="42.17530131340027" lon="2.994171380996704">
        <ele>28.132423092641993</ele>
        <time>2021-07-28T18:49:29.184Z</time>
      </trkpt>
      <trkpt lat="42.17571973800659" lon="2.9952871799468994">
        <ele>28.182812535629783</ele>
        <time>2021-07-28T18:49:35.912Z</time>
      </trkpt>
      <trkpt lat="42.17602022923529" lon="2.9961347579956055">
        <ele>28.610965529225123</ele>
        <time>2021-07-28T18:49:42.651Z</time>
      </trkpt>
      <trkpt lat="42.17607378959656" lon="2.996467351913452">
        <ele>29.083952376896473</ele>
        <time>2021-07-28T18:49:49.394Z</time>
      </trkpt>
      <trkpt lat="42.17609524726868" lon="2.9967784881591797">
        <ele>29.652680316402403</ele>
        <time>2021-07-28T18:49:56.141Z</time>
      </trkpt>
      <trkpt lat="42.17605233192444" lon="2.997175455093384">
        <ele>30.337663723055663</ele>
        <time>2021-07-28T18:50:02.892Z</time>
      </trkpt>
      <trkpt lat="42.17593431472778" lon="2.9975831508636475">
        <ele>31.084673169129356</ele>
        <time>2021-07-28T18:50:09.649Z</time>
      </trkpt>
      <trkpt lat="42.17584856785834" lon="2.99776554107666">
        <ele>31.846409711497675</ele>
        <time>2021-07-28T18:50:16.408Z</time>
      </trkpt>
      <trkpt lat="42.17580556869507" lon="2.9978621006011963">
        <ele>32.630925248090335</ele>
        <time>2021-07-28T18:50:23.168Z</time>
      </trkpt>
      <trkpt lat="42.175623178482056" lon="2.9981303215026855">
        <ele>33.46517264610248</ele>
        <time>2021-07-28T18:50:29.933Z</time>
      </trkpt>
      <trkpt lat="42.175365686416626" lon="2.9983341693878174">
        <ele>34.31065101999393</ele>
        <time>2021-07-28T18:50:36.703Z</time>
      </trkpt>
      <trkpt lat="42.17461475171149" lon="2.9988276958465576">
        <ele>35.393242593832994</ele>
        <time>2021-07-28T18:50:43.486Z</time>
      </trkpt>
      <trkpt lat="42.173992395401" lon="2.999246120452881">
        <ele>36.129618770292254</ele>
        <time>2021-07-28T18:50:50.280Z</time>
      </trkpt>
      <trkpt lat="42.17355251312256" lon="2.9996109008789062">
        <ele>36.565192763805385</ele>
        <time>2021-07-28T18:50:57.082Z</time>
      </trkpt>
      <trkpt lat="42.173370122909546" lon="2.999814748764038">
        <ele>36.80405892127288</ele>
        <time>2021-07-28T18:51:03.888Z</time>
      </trkpt>
      <trkpt lat="42.17319846153259" lon="3.000136613845825">
        <ele>36.88237723203591</ele>
        <time>2021-07-28T18:51:10.699Z</time>
      </trkpt>
      <trkpt lat="42.17308052815497" lon="3.0004262924194336">
        <ele>36.764936018687095</ele>
        <time>2021-07-28T18:51:17.514Z</time>
      </trkpt>
      <trkpt lat="42.17301615513861" lon="3.0005764961242676">
        <ele>36.4524214394579</ele>
        <time>2021-07-28T18:51:24.331Z</time>
      </trkpt>
      <trkpt lat="42.172887325286865" lon="3.0008554458618164">
        <ele>35.88542624318437</ele>
        <time>2021-07-28T18:51:31.152Z</time>
      </trkpt>
      <trkpt lat="42.17190035618842" lon="3.0035805702209473">
        <ele>35.131722282136764</ele>
        <time>2021-07-28T18:51:38.009Z</time>
      </trkpt>
      <trkpt lat="42.171900272369385" lon="3.0035805702209473">
        <ele>34.23739594935729</ele>
        <time>2021-07-28T18:51:44.866Z</time>
      </trkpt>
      <trkpt lat="42.170634269714355" lon="3.007110357284546">
        <ele>32.72509827831184</ele>
        <time>2021-07-28T18:51:51.769Z</time>
      </trkpt>
      <trkpt lat="42.17024803161621" lon="3.008236885070801">
        <ele>31.494741081806048</ele>
        <time>2021-07-28T18:51:58.687Z</time>
      </trkpt>
      <trkpt lat="42.170140743255615" lon="3.0087196826934814">
        <ele>30.19221113978389</ele>
        <time>2021-07-28T18:52:05.611Z</time>
      </trkpt>
      <trkpt lat="42.17005491256714" lon="3.009406328201294">
        <ele>28.885277263328096</ele>
        <time>2021-07-28T18:52:12.543Z</time>
      </trkpt>
      <trkpt lat="42.16988333500922" lon="3.014878034591675">
        <ele>26.260284416860795</ele>
        <time>2021-07-28T18:52:19.541Z</time>
      </trkpt>
      <trkpt lat="42.169883251190186" lon="3.014878034591675">
        <ele>24.717885843939747</ele>
        <time>2021-07-28T18:52:26.539Z</time>
      </trkpt>
      <trkpt lat="42.16976531781256" lon="3.0183756351470947">
        <ele>23.052522090891333</ele>
        <time>2021-07-28T18:52:33.578Z</time>
      </trkpt>
      <trkpt lat="42.16976523399353" lon="3.0183756351470947">
        <ele>21.54037709946399</ele>
        <time>2021-07-28T18:52:40.617Z</time>
      </trkpt>
      <trkpt lat="42.16973313130438" lon="3.0198025703430176">
        <ele>20.034072731413957</ele>
        <time>2021-07-28T18:52:47.673Z</time>
      </trkpt>
      <trkpt lat="42.16973304748535" lon="3.0198025703430176">
        <ele>18.63184919432987</ele>
        <time>2021-07-28T18:52:54.729Z</time>
      </trkpt>
      <trkpt lat="42.16970086097717" lon="3.020564317703247">
        <ele>17.278036829473265</ele>
        <time>2021-07-28T18:53:01.794Z</time>
      </trkpt>
      <trkpt lat="42.16977596282959" lon="3.0213260650634766">
        <ele>16.024825543769</ele>
        <time>2021-07-28T18:53:08.868Z</time>
      </trkpt>
      <trkpt lat="42.16984041966498" lon="3.021637201309204">
        <ele>14.857478475795947</ele>
        <time>2021-07-28T18:53:15.946Z</time>
      </trkpt>
      <trkpt lat="42.16984033584595" lon="3.021637201309204">
        <ele>13.800301330910688</ele>
        <time>2021-07-28T18:53:23.024Z</time>
      </trkpt>
      <trkpt lat="42.17073082923889" lon="3.026411533355713">
        <ele>12.752018055282283</ele>
        <time>2021-07-28T18:53:30.161Z</time>
      </trkpt>
      <trkpt lat="42.17097759246826" lon="3.027859926223755">
        <ele>11.81466425065361</ele>
        <time>2021-07-28T18:53:37.316Z</time>
      </trkpt>
      <trkpt lat="42.17136391438544" lon="3.0287182331085205">
        <ele>10.956661082279687</ele>
        <time>2021-07-28T18:53:44.483Z</time>
      </trkpt>
      <trkpt lat="42.17203974723816" lon="3.0298125743865967">
        <ele>10.296015773860377</ele>
        <time>2021-07-28T18:53:51.666Z</time>
      </trkpt>
      <trkpt lat="42.17228651046753" lon="3.0303168296813965">
        <ele>9.730888391458002</ele>
        <time>2021-07-28T18:53:58.857Z</time>
      </trkpt>
      <trkpt lat="42.17244744300842" lon="3.030756711959839">
        <ele>9.188410069273942</ele>
        <time>2021-07-28T18:54:06.053Z</time>
      </trkpt>
      <trkpt lat="42.1725869178772" lon="3.0312716960906982">
        <ele>8.823876010493137</ele>
        <time>2021-07-28T18:54:13.256Z</time>
      </trkpt>
      <trkpt lat="42.172672832384706" lon="3.031797409057617">
        <ele>8.584330194366359</ele>
        <time>2021-07-28T18:54:20.465Z</time>
      </trkpt>
      <trkpt lat="42.17271566390991" lon="3.0323874950408936">
        <ele>8.453541573984282</ele>
        <time>2021-07-28T18:54:27.681Z</time>
      </trkpt>
      <trkpt lat="42.17271566390991" lon="3.032623529434204">
        <ele>8.337602785488865</ele>
        <time>2021-07-28T18:54:34.900Z</time>
      </trkpt>
      <trkpt lat="42.172651290893555" lon="3.0328595638275146">
        <ele>8.225224818787208</ele>
        <time>2021-07-28T18:54:42.122Z</time>
      </trkpt>
      <trkpt lat="42.17259764671326" lon="3.032956123352051">
        <ele>8.161827912544467</ele>
        <time>2021-07-28T18:54:49.346Z</time>
      </trkpt>
      <trkpt lat="42.17254400253296" lon="3.033020496368408">
        <ele>8.142119691690997</ele>
        <time>2021-07-28T18:54:56.571Z</time>
      </trkpt>
      <trkpt lat="42.17251181602478" lon="3.033095598220825">
        <ele>8.152844659842694</ele>
        <time>2021-07-28T18:55:03.797Z</time>
      </trkpt>
      <trkpt lat="42.17250108718872" lon="3.0331921577453613">
        <ele>8.186992570265605</ele>
        <time>2021-07-28T18:55:11.024Z</time>
      </trkpt>
      <trkpt lat="42.17252262867987" lon="3.033277988433838">
        <ele>8.245587810463647</ele>
        <time>2021-07-28T18:55:18.252Z</time>
      </trkpt>
      <trkpt lat="42.17256546020508" lon="3.033353090286255">
        <ele>8.325190283777337</ele>
        <time>2021-07-28T18:55:25.481Z</time>
      </trkpt>
      <trkpt lat="42.172619104385376" lon="3.033396005630493">
        <ele>8.426617395364943</ele>
        <time>2021-07-28T18:55:32.711Z</time>
      </trkpt>
      <trkpt lat="42.17283368110657" lon="3.033653497695923">
        <ele>8.545189117566593</ele>
        <time>2021-07-28T18:55:39.946Z</time>
      </trkpt>
      <trkpt lat="42.172919511795044" lon="3.033921718597412">
        <ele>8.680907496811123</ele>
        <time>2021-07-28T18:55:47.184Z</time>
      </trkpt>
      <trkpt lat="42.17294096946716" lon="3.0340182781219482">
        <ele>8.828341417970307</ele>
        <time>2021-07-28T18:55:54.423Z</time>
      </trkpt>
      <trkpt lat="42.173134088516235" lon="3.0347800254821777">
        <ele>8.986861843790305</ele>
        <time>2021-07-28T18:56:01.672Z</time>
      </trkpt>
      <trkpt lat="42.17332729138434" lon="3.0356812477111816">
        <ele>9.20088176888264</ele>
        <time>2021-07-28T18:56:08.932Z</time>
      </trkpt>
      <trkpt lat="42.173466766253114" lon="3.0365395545959473">
        <ele>9.33812349514784</ele>
        <time>2021-07-28T18:56:16.203Z</time>
      </trkpt>
      <trkpt lat="42.17346668243408" lon="3.0365395545959473">
        <ele>9.529320170290868</ele>
        <time>2021-07-28T18:56:23.474Z</time>
      </trkpt>
      <trkpt lat="42.17350959777832" lon="3.036850690841675">
        <ele>9.719578473462434</ele>
        <time>2021-07-28T18:56:30.748Z</time>
      </trkpt>
      <trkpt lat="42.17355251312256" lon="3.0374515056610107">
        <ele>9.913737513844515</ele>
        <time>2021-07-28T18:56:38.030Z</time>
      </trkpt>
      <trkpt lat="42.17355251312256" lon="3.037741184234619">
        <ele>10.159977907197767</ele>
        <time>2021-07-28T18:56:45.315Z</time>
      </trkpt>
      <trkpt lat="42.17353113926947" lon="3.038266897201538">
        <ele>10.422471287489005</ele>
        <time>2021-07-28T18:56:52.606Z</time>
      </trkpt>
      <trkpt lat="42.17350968159735" lon="3.038438558578491">
        <ele>10.679446701674975</ele>
        <time>2021-07-28T18:56:59.899Z</time>
      </trkpt>
      <trkpt lat="42.17346668243408" lon="3.039017915725708">
        <ele>10.978345593801823</ele>
        <time>2021-07-28T18:57:07.199Z</time>
      </trkpt>
      <trkpt lat="42.173402309417725" lon="3.039189577102661">
        <ele>11.269782434425135</ele>
        <time>2021-07-28T18:57:14.502Z</time>
      </trkpt>
      <trkpt lat="42.17333793640137" lon="3.0393075942993164">
        <ele>11.562272114173865</ele>
        <time>2021-07-28T18:57:21.806Z</time>
      </trkpt>
      <trkpt lat="42.17327356338501" lon="3.039393424987793">
        <ele>11.857517639108002</ele>
        <time>2021-07-28T18:57:29.112Z</time>
      </trkpt>
      <trkpt lat="42.17324146069586" lon="3.0395007133483887">
        <ele>12.167921433262777</ele>
        <time>2021-07-28T18:57:36.419Z</time>
      </trkpt>
      <trkpt lat="42.17327364720404" lon="3.0396509170532227">
        <ele>12.471541188237914</ele>
        <time>2021-07-28T18:57:43.728Z</time>
      </trkpt>
      <trkpt lat="42.17333793640137" lon="3.0397260189056396">
        <ele>12.779655411620737</ele>
        <time>2021-07-28T18:57:51.038Z</time>
      </trkpt>
      <trkpt lat="42.173380851745605" lon="3.0399727821350098">
        <ele>13.07100247004399</ele>
        <time>2021-07-28T18:57:58.351Z</time>
      </trkpt>
      <trkpt lat="42.172908782958984" lon="3.0454766750335693">
        <ele>13.386553975095563</ele>
        <time>2021-07-28T18:58:05.730Z</time>
      </trkpt>
      <trkpt lat="42.172898054122925" lon="3.0458414554595947">
        <ele>13.648084135635155</ele>
        <time>2021-07-28T18:58:13.114Z</time>
      </trkpt>
      <trkpt lat="42.17294096946716" lon="3.046184778213501">
        <ele>13.977426154426276</ele>
        <time>2021-07-28T18:58:20.502Z</time>
      </trkpt>
      <trkpt lat="42.1730375289917" lon="3.046538829803467">
        <ele>14.298050796038837</ele>
        <time>2021-07-28T18:58:27.894Z</time>
      </trkpt>
      <trkpt lat="42.173123359680176" lon="3.0467963218688965">
        <ele>14.457200757391401</ele>
        <time>2021-07-28T18:58:35.290Z</time>
      </trkpt>
      <trkpt lat="42.17323064804077" lon="3.047010898590088">
        <ele>14.458575299812566</ele>
        <time>2021-07-28T18:58:42.689Z</time>
      </trkpt>
      <trkpt lat="42.173380851745605" lon="3.0472469329833984">
        <ele>14.316181468761744</ele>
        <time>2021-07-28T18:58:50.091Z</time>
      </trkpt>
      <trkpt lat="42.17347749508917" lon="3.0473756790161133">
        <ele>14.080485378234059</ele>
        <time>2021-07-28T18:58:57.496Z</time>
      </trkpt>
      <trkpt lat="42.17372417449951" lon="3.047633171081543">
        <ele>13.701918941369485</ele>
        <time>2021-07-28T18:59:04.906Z</time>
      </trkpt>
      <trkpt lat="42.17394948005676" lon="3.0477941036224365">
        <ele>13.257600355078942</ele>
        <time>2021-07-28T18:59:12.320Z</time>
      </trkpt>
      <trkpt lat="42.17422842979431" lon="3.047912120819092">
        <ele>12.742773644403234</ele>
        <time>2021-07-28T18:59:19.738Z</time>
      </trkpt>
      <trkpt lat="42.174636125564575" lon="3.0480194091796875">
        <ele>12.13250695480339</ele>
        <time>2021-07-28T18:59:27.163Z</time>
      </trkpt>
      <trkpt lat="42.174958074465394" lon="3.0481374263763428">
        <ele>11.51117434415505</ele>
        <time>2021-07-28T18:59:34.593Z</time>
      </trkpt>
      <trkpt lat="42.17520475387573" lon="3.0482447147369385">
        <ele>10.979949113608818</ele>
        <time>2021-07-28T18:59:42.027Z</time>
      </trkpt>
      <trkpt lat="42.1754515171051" lon="3.048384189605713">
        <ele>10.437578958671397</ele>
        <time>2021-07-28T18:59:49.466Z</time>
      </trkpt>
      <trkpt lat="42.175623178482056" lon="3.0485129356384277">
        <ele>9.916947332964606</ele>
        <time>2021-07-28T18:59:56.908Z</time>
      </trkpt>
      <trkpt lat="42.17597723007202" lon="3.048877716064453">
        <ele>9.430499302602708</ele>
        <time>2021-07-28T19:00:04.357Z</time>
      </trkpt>
      <trkpt lat="42.17618107795715" lon="3.0491673946380615">
        <ele>8.96220404624702</ele>
        <time>2021-07-28T19:00:11.811Z</time>
      </trkpt>
      <trkpt lat="42.1764600276947" lon="3.049628734588623">
        <ele>8.4619186707547</ele>
        <time>2021-07-28T19:00:19.272Z</time>
      </trkpt>
      <trkpt lat="42.176631689071655" lon="3.0500149726867676">
        <ele>7.967926582031742</ele>
        <time>2021-07-28T19:00:26.738Z</time>
      </trkpt>
      <trkpt lat="42.17676043510437" lon="3.050379753112793">
        <ele>7.526382048196149</ele>
        <time>2021-07-28T19:00:34.209Z</time>
      </trkpt>
      <trkpt lat="42.176889181137085" lon="3.050851821899414">
        <ele>7.11030105911647</ele>
        <time>2021-07-28T19:00:41.686Z</time>
      </trkpt>
      <trkpt lat="42.17755436897278" lon="3.0537915229797363">
        <ele>6.788848060368585</ele>
        <time>2021-07-28T19:00:49.200Z</time>
      </trkpt>
      <trkpt lat="42.177672469988465" lon="3.0541348457336426">
        <ele>6.41600089616964</ele>
        <time>2021-07-28T19:00:56.718Z</time>
      </trkpt>
      <trkpt lat="42.17958220280707" lon="3.060293197631836">
        <ele>5.956406544827968</ele>
        <time>2021-07-28T19:01:04.315Z</time>
      </trkpt>
      <trkpt lat="42.17958211898804" lon="3.060293197631836">
        <ele>5.631141498017051</ele>
        <time>2021-07-28T19:01:11.912Z</time>
      </trkpt>
      <trkpt lat="42.18031176365912" lon="3.0626213550567627">
        <ele>5.32694198320239</ele>
        <time>2021-07-28T19:01:19.540Z</time>
      </trkpt>
      <trkpt lat="42.181105613708496" lon="3.0652284622192383">
        <ele>5.012503385244781</ele>
        <time>2021-07-28T19:01:27.201Z</time>
      </trkpt>
      <trkpt lat="42.18181371688843" lon="3.067803382873535">
        <ele>4.765602435317812</ele>
        <time>2021-07-28T19:01:34.895Z</time>
      </trkpt>
      <trkpt lat="42.182167768478394" lon="3.0690371990203857">
        <ele>4.49748744994438</ele>
        <time>2021-07-28T19:01:42.604Z</time>
      </trkpt>
      <trkpt lat="42.182414615526795" lon="3.0697453022003174">
        <ele>4.310929713062416</ele>
        <time>2021-07-28T19:01:50.323Z</time>
      </trkpt>
      <trkpt lat="42.182650566101074" lon="3.0703461170196533">
        <ele>4.151125118084004</ele>
        <time>2021-07-28T19:01:58.050Z</time>
      </trkpt>
      <trkpt lat="42.18410977162421" lon="3.0736613273620605">
        <ele>4.011052389314762</ele>
        <time>2021-07-28T19:02:05.823Z</time>
      </trkpt>
      <trkpt lat="42.18436726368964" lon="3.0742299556732178">
        <ele>3.8708007228643844</ele>
        <time>2021-07-28T19:02:13.604Z</time>
      </trkpt>
      <trkpt lat="42.184367179870605" lon="3.0742299556732178">
        <ele>3.8093908762438966</ele>
        <time>2021-07-28T19:02:21.385Z</time>
      </trkpt>
      <trkpt lat="42.18566536903381" lon="3.0771803855895996">
        <ele>3.6932819007103834</ele>
        <time>2021-07-28T19:02:29.206Z</time>
      </trkpt>
      <trkpt lat="42.18571901321411" lon="3.07741641998291">
        <ele>3.66765929539535</ele>
        <time>2021-07-28T19:02:37.030Z</time>
      </trkpt>
      <trkpt lat="42.1857298258692" lon="3.0776095390319824">
        <ele>3.689819963751952</ele>
        <time>2021-07-28T19:02:44.857Z</time>
      </trkpt>
      <trkpt lat="42.18575128354132" lon="3.0779850482940674">
        <ele>3.776459209762688</ele>
        <time>2021-07-28T19:02:52.688Z</time>
      </trkpt>
      <trkpt lat="42.18577274121344" lon="3.0785322189331055">
        <ele>3.908122691443029</ele>
        <time>2021-07-28T19:03:00.526Z</time>
      </trkpt>
      <trkpt lat="42.18580484390259" lon="3.079315423965454">
        <ele>4.123117884494378</ele>
        <time>2021-07-28T19:03:08.373Z</time>
      </trkpt>
      <trkpt lat="42.18580484390259" lon="3.080195188522339">
        <ele>4.177860498618697</ele>
        <time>2021-07-28T19:03:16.230Z</time>
      </trkpt>
      <trkpt lat="42.185901487246156" lon="3.0806779861450195">
        <ele>4.357894073021688</ele>
        <time>2021-07-28T19:03:24.093Z</time>
      </trkpt>
      <trkpt lat="42.185901403427124" lon="3.0806779861450195">
        <ele>4.461319157015108</ele>
        <time>2021-07-28T19:03:31.956Z</time>
      </trkpt>
      <trkpt lat="42.18599796295166" lon="3.0808818340301514">
        <ele>4.579495681201896</ele>
        <time>2021-07-28T19:03:39.822Z</time>
      </trkpt>
      <trkpt lat="42.186094522476196" lon="3.081021308898926">
        <ele>4.685927228120031</ele>
        <time>2021-07-28T19:03:47.690Z</time>
      </trkpt>
      <trkpt lat="42.18622326850891" lon="3.081042766571045">
        <ele>4.738175556956776</ele>
        <time>2021-07-28T19:03:55.561Z</time>
      </trkpt>
      <trkpt lat="42.186416471377015" lon="3.081010580062866">
        <ele>4.743979972957177</ele>
        <time>2021-07-28T19:04:03.435Z</time>
      </trkpt>
      <trkpt lat="42.18683481216431" lon="3.0809247493743896">
        <ele>4.726837949272923</ele>
        <time>2021-07-28T19:04:11.315Z</time>
      </trkpt>
      <trkpt lat="42.18711384572089" lon="3.0808818340301514">
        <ele>4.732042819577995</ele>
        <time>2021-07-28T19:04:19.200Z</time>
      </trkpt>
      <trkpt lat="42.187650287523866" lon="3.0808818340301514">
        <ele>4.691514967565995</ele>
        <time>2021-07-28T19:04:27.093Z</time>
      </trkpt>
      <trkpt lat="42.18770393170416" lon="3.080871105194092">
        <ele>4.6168848900288895</ele>
        <time>2021-07-28T19:04:34.987Z</time>
      </trkpt>
      <trkpt lat="42.18801498413086" lon="3.080871105194092">
        <ele>4.499733701258393</ele>
        <time>2021-07-28T19:04:42.886Z</time>
      </trkpt>
      <trkpt lat="42.188090085983276" lon="3.0808281898498535">
        <ele>4.3749202647594005</ele>
        <time>2021-07-28T19:04:50.787Z</time>
      </trkpt>
      <trkpt lat="42.18896985054016" lon="3.081085681915283">
        <ele>4.19153703763176</ele>
        <time>2021-07-28T19:04:58.702Z</time>
      </trkpt>
      <trkpt lat="42.18927034176886" lon="3.081139326095581">
        <ele>4.0150273255936</ele>
        <time>2021-07-28T19:05:06.622Z</time>
      </trkpt>
      <trkpt lat="42.189645767211914" lon="3.0813217163085938">
        <ele>3.8080910306812576</ele>
        <time>2021-07-28T19:05:14.548Z</time>
      </trkpt>
      <trkpt lat="42.18972086906433" lon="3.0813539028167725">
        <ele>3.64959475848198</ele>
        <time>2021-07-28T19:05:22.476Z</time>
      </trkpt>
      <trkpt lat="42.189903343096375" lon="3.081386089324951">
        <ele>3.4764190314056713</ele>
        <time>2021-07-28T19:05:30.406Z</time>
      </trkpt>
      <trkpt lat="42.19060071744025" lon="3.0815041065216064">
        <ele>3.3921234006292833</ele>
        <time>2021-07-28T19:05:38.348Z</time>
      </trkpt>
      <trkpt lat="42.19150185585022" lon="3.081643581390381">
        <ele>3.2219514511114236</ele>
        <time>2021-07-28T19:05:46.304Z</time>
      </trkpt>
      <trkpt lat="42.19149112701416" lon="3.0820083618164062">
        <ele>3.0934053584722743</ele>
        <time>2021-07-28T19:05:54.265Z</time>
      </trkpt>
      <trkpt lat="42.191426837816834" lon="3.082137107849121">
        <ele>2.990095506063072</ele>
        <time>2021-07-28T19:06:02.227Z</time>
      </trkpt>
      <trkpt lat="42.19136246480048" lon="3.0822014808654785">
        <ele>2.897921034280113</ele>
        <time>2021-07-28T19:06:10.191Z</time>
      </trkpt>
      <trkpt lat="42.191340923309326" lon="3.082287311553955">
        <ele>2.8128942727092214</ele>
        <time>2021-07-28T19:06:18.156Z</time>
      </trkpt>
      <trkpt lat="42.191351652145386" lon="3.082362413406372">
        <ele>2.7349828854614042</ele>
        <time>2021-07-28T19:06:26.122Z</time>
      </trkpt>
      <trkpt lat="42.191416108980775" lon="3.0824267864227295">
        <ele>2.6611524757364764</ele>
        <time>2021-07-28T19:06:34.089Z</time>
      </trkpt>
      <trkpt lat="42.19148048199713" lon="3.082437515258789">
        <ele>2.594262929416892</ele>
        <time>2021-07-28T19:06:42.057Z</time>
      </trkpt>
      <trkpt lat="42.19155550003052" lon="3.082362413406372">
        <ele>2.5315305741733107</ele>
        <time>2021-07-28T19:06:50.026Z</time>
      </trkpt>
      <trkpt lat="42.19169497489929" lon="3.0823516845703125">
        <ele>2.4858903983842975</ele>
        <time>2021-07-28T19:06:57.998Z</time>
      </trkpt>
      <trkpt lat="42.19201692380011" lon="3.08241605758667">
        <ele>2.4849809492445756</ele>
        <time>2021-07-28T19:07:05.975Z</time>
      </trkpt>
      <trkpt lat="42.19302543438971" lon="3.0825984477996826">
        <ele>2.49813681420222</ele>
        <time>2021-07-28T19:07:13.968Z</time>
      </trkpt>
      <trkpt lat="42.19302535057068" lon="3.0825984477996826">
        <ele>2.432648754385343</ele>
        <time>2021-07-28T19:07:21.961Z</time>
      </trkpt>
      <trkpt lat="42.193433130159974" lon="3.08266282081604">
        <ele>2.3331716750473137</ele>
        <time>2021-07-28T19:07:29.961Z</time>
      </trkpt>
      <trkpt lat="42.19343304634094" lon="3.08266282081604">
        <ele>2.2489444829712495</ele>
        <time>2021-07-28T19:07:37.961Z</time>
      </trkpt>
      <trkpt lat="42.19406613148749" lon="3.082759380340576">
        <ele>2.051791343717375</ele>
        <time>2021-07-28T19:07:45.971Z</time>
      </trkpt>
      <trkpt lat="42.19406604766846" lon="3.082759380340576">
        <ele>1.9529404248735467</ele>
        <time>2021-07-28T19:07:53.981Z</time>
      </trkpt>
      <trkpt lat="42.19498872756958" lon="3.082866668701172">
        <ele>1.8227787268646864</ele>
        <time>2021-07-28T19:08:02.006Z</time>
      </trkpt>
      <trkpt lat="42.19565391540527" lon="3.082941770553589">
        <ele>1.6774226444135891</ele>
        <time>2021-07-28T19:08:10.041Z</time>
      </trkpt>
      <trkpt lat="42.2002459410578" lon="3.083692789077759">
        <ele>1.5857715645468686</ele>
        <time>2021-07-28T19:08:18.150Z</time>
      </trkpt>
      <trkpt lat="42.20024585723877" lon="3.083692789077759">
        <ele>1.4820578704662593</ele>
        <time>2021-07-28T19:08:26.259Z</time>
      </trkpt>
      <trkpt lat="42.20052489079535" lon="3.083757162094116">
        <ele>1.3524497137770184</ele>
        <time>2021-07-28T19:08:34.373Z</time>
      </trkpt>
      <trkpt lat="42.201147163286805" lon="3.083864450454712">
        <ele>1.28444971697696</ele>
        <time>2021-07-28T19:08:42.497Z</time>
      </trkpt>
      <trkpt lat="42.20150121487677" lon="3.0839180946350098">
        <ele>1.2255232572132606</ele>
        <time>2021-07-28T19:08:50.627Z</time>
      </trkpt>
      <trkpt lat="42.2022093180567" lon="3.084036111831665">
        <ele>1.0478702570917071</ele>
        <time>2021-07-28T19:08:58.768Z</time>
      </trkpt>
      <trkpt lat="42.20320709981024" lon="3.084207773208618">
        <ele>0.986825045279552</ele>
        <time>2021-07-28T19:09:06.925Z</time>
      </trkpt>
      <trkpt lat="42.20331438817084" lon="3.0842292308807373">
        <ele>0.9186567674114939</ele>
        <time>2021-07-28T19:09:15.084Z</time>
      </trkpt>
      <trkpt lat="42.20331430435181" lon="3.0842292308807373">
        <ele>0.8483972754129819</ele>
        <time>2021-07-28T19:09:23.243Z</time>
      </trkpt>
      <trkpt lat="42.20649012364447" lon="3.0847549438476562">
        <ele>0.7319387421420579</ele>
        <time>2021-07-28T19:09:31.453Z</time>
      </trkpt>
      <trkpt lat="42.20649003982544" lon="3.0847549438476562">
        <ele>0.6771690768012434</ele>
        <time>2021-07-28T19:09:39.663Z</time>
      </trkpt>
      <trkpt lat="42.20821738243103" lon="3.0850446224212646">
        <ele>0.6870423166354851</ele>
        <time>2021-07-28T19:09:47.901Z</time>
      </trkpt>
      <trkpt lat="42.20844268798828" lon="3.0850768089294434">
        <ele>0.628740851124051</ele>
        <time>2021-07-28T19:09:56.143Z</time>
      </trkpt>
      <trkpt lat="42.20954784192145" lon="3.085280656814575">
        <ele>0.5655134315807532</ele>
        <time>2021-07-28T19:10:04.402Z</time>
      </trkpt>
      <trkpt lat="42.211575508117676" lon="3.085634708404541">
        <ele>0.6469943780040701</ele>
        <time>2021-07-28T19:10:12.694Z</time>
      </trkpt>
      <trkpt lat="42.211843729019165" lon="3.0857419967651367">
        <ele>0.609651672574004</ele>
        <time>2021-07-28T19:10:20.991Z</time>
      </trkpt>
      <trkpt lat="42.21256264485419" lon="3.0862033367156982">
        <ele>0.5058574655345249</ele>
        <time>2021-07-28T19:10:29.300Z</time>
      </trkpt>
      <trkpt lat="42.212616205215454" lon="3.086235523223877">
        <ele>0.4932879853864364</ele>
        <time>2021-07-28T19:10:37.610Z</time>
      </trkpt>
      <trkpt lat="42.21503027714789" lon="3.087855577468872">
        <ele>0.5186687402665507</ele>
        <time>2021-07-28T19:10:45.963Z</time>
      </trkpt>
      <trkpt lat="42.21617826260626" lon="3.088606595993042">
        <ele>0.4761563471167006</ele>
        <time>2021-07-28T19:10:54.337Z</time>
      </trkpt>
      <trkpt lat="42.21638202667236" lon="3.0886924266815186">
        <ele>0.4953160578891095</ele>
        <time>2021-07-28T19:11:02.714Z</time>
      </trkpt>
      <trkpt lat="42.216618061065674" lon="3.088735342025757">
        <ele>0.5282558978966758</ele>
        <time>2021-07-28T19:11:11.095Z</time>
      </trkpt>
      <trkpt lat="42.21680053509772" lon="3.088735342025757">
        <ele>0.5378037950488578</ele>
        <time>2021-07-28T19:11:19.479Z</time>
      </trkpt>
      <trkpt lat="42.21695073880255" lon="3.088703155517578">
        <ele>0.5596632829711127</ele>
        <time>2021-07-28T19:11:27.865Z</time>
      </trkpt>
      <trkpt lat="42.21741199493408" lon="3.088552951812744">
        <ele>0.5727963544623458</ele>
        <time>2021-07-28T19:11:36.259Z</time>
      </trkpt>
      <trkpt lat="42.21774458885193" lon="3.088477849960327">
        <ele>0.6451364351064371</ele>
        <time>2021-07-28T19:11:44.658Z</time>
      </trkpt>
      <trkpt lat="42.21801289357245" lon="3.0884671211242676">
        <ele>0.7189312013008695</ele>
        <time>2021-07-28T19:11:53.062Z</time>
      </trkpt>
      <trkpt lat="42.21801280975342" lon="3.0884671211242676">
        <ele>0.7731741690255545</ele>
        <time>2021-07-28T19:12:01.466Z</time>
      </trkpt>
      <trkpt lat="42.21974023617804" lon="3.088606595993042">
        <ele>0.837140054515469</ele>
        <time>2021-07-28T19:12:09.897Z</time>
      </trkpt>
      <trkpt lat="42.2199547290802" lon="3.0886173248291016">
        <ele>0.9106345868907061</ele>
        <time>2021-07-28T19:12:18.332Z</time>
      </trkpt>
      <trkpt lat="42.22015857696533" lon="3.0885744094848633">
        <ele>0.9530291864030824</ele>
        <time>2021-07-28T19:12:26.770Z</time>
      </trkpt>
      <trkpt lat="42.220405424013734" lon="3.0884671211242676">
        <ele>1.0124590055160407</ele>
        <time>2021-07-28T19:12:35.212Z</time>
      </trkpt>
      <trkpt lat="42.2204053401947" lon="3.0884671211242676">
        <ele>1.0578686028471629</ele>
        <time>2021-07-28T19:12:43.654Z</time>
      </trkpt>
      <trkpt lat="42.221800088882446" lon="3.0875980854034424">
        <ele>1.1141620994869132</ele>
        <time>2021-07-28T19:12:52.121Z</time>
      </trkpt>
      <trkpt lat="42.22203612327576" lon="3.0874907970428467">
        <ele>1.154747859202543</ele>
        <time>2021-07-28T19:13:00.592Z</time>
      </trkpt>
      <trkpt lat="42.22225069999695" lon="3.0874478816986084">
        <ele>1.1886962924111828</ele>
        <time>2021-07-28T19:13:09.066Z</time>
      </trkpt>
      <trkpt lat="42.22266912460327" lon="3.0874264240264893">
        <ele>1.212055610709261</ele>
        <time>2021-07-28T19:13:17.547Z</time>
      </trkpt>
      <trkpt lat="42.22344160079956" lon="3.087587356567383">
        <ele>1.2213859785782253</ele>
        <time>2021-07-28T19:13:26.041Z</time>
      </trkpt>
      <trkpt lat="42.22401022911072" lon="3.0877268314361572">
        <ele>1.2057490171866285</ele>
        <time>2021-07-28T19:13:34.544Z</time>
      </trkpt>
      <trkpt lat="42.22424626350403" lon="3.0877482891082764">
        <ele>1.1566308699462295</ele>
        <time>2021-07-28T19:13:43.051Z</time>
      </trkpt>
      <trkpt lat="42.22465395927429" lon="3.0876946449279785">
        <ele>1.086624832166657</ele>
        <time>2021-07-28T19:13:51.564Z</time>
      </trkpt>
      <trkpt lat="42.224814891815186" lon="3.0876517295837402">
        <ele>1.0300592018913943</ele>
        <time>2021-07-28T19:14:00.080Z</time>
      </trkpt>
      <trkpt lat="42.225093841552734" lon="3.0874693393707275">
        <ele>0.9491784077883092</ele>
        <time>2021-07-28T19:14:08.601Z</time>
      </trkpt>
      <trkpt lat="42.22565174102783" lon="3.087061643600464">
        <ele>0.8920443418712765</ele>
        <time>2021-07-28T19:14:17.132Z</time>
      </trkpt>
      <trkpt lat="42.2258985042572" lon="3.0869221687316895">
        <ele>0.8573089756703226</ele>
        <time>2021-07-28T19:14:25.667Z</time>
      </trkpt>
      <trkpt lat="42.226606607437134" lon="3.0865895748138428">
        <ele>0.7885285752924642</ele>
        <time>2021-07-28T19:14:34.214Z</time>
      </trkpt>
      <trkpt lat="42.227046489715576" lon="3.0863535404205322">
        <ele>0.7123932237061217</ele>
        <time>2021-07-28T19:14:42.769Z</time>
      </trkpt>
      <trkpt lat="42.228130185976624" lon="3.085634708404541">
        <ele>0.6655848639070114</ele>
        <time>2021-07-28T19:14:51.343Z</time>
      </trkpt>
      <trkpt lat="42.22813010215759" lon="3.085634708404541">
        <ele>0.6227537866043974</ele>
        <time>2021-07-28T19:14:59.917Z</time>
      </trkpt>
      <trkpt lat="42.22874164581299" lon="3.085184097290039">
        <ele>0.6120672341011159</ele>
        <time>2021-07-28T19:15:08.502Z</time>
      </trkpt>
      <trkpt lat="42.22972869873047" lon="3.0844974517822266">
        <ele>0.5436990649643318</ele>
        <time>2021-07-28T19:15:17.105Z</time>
      </trkpt>
      <trkpt lat="42.230619275942445" lon="3.0839931964874268">
        <ele>0.5247371692085987</ele>
        <time>2021-07-28T19:15:25.723Z</time>
      </trkpt>
      <trkpt lat="42.230855226516724" lon="3.083864450454712">
        <ele>0.5035673846713736</ele>
        <time>2021-07-28T19:15:34.345Z</time>
      </trkpt>
      <trkpt lat="42.231338024139404" lon="3.08366060256958">
        <ele>0.5280772118424918</ele>
        <time>2021-07-28T19:15:42.976Z</time>
      </trkpt>
      <trkpt lat="42.23175644874573" lon="3.0835211277008057">
        <ele>0.6215618716136394</ele>
        <time>2021-07-28T19:15:51.613Z</time>
      </trkpt>
      <trkpt lat="42.23191746510565" lon="3.0834996700286865">
        <ele>0.6561347911073804</ele>
        <time>2021-07-28T19:16:00.253Z</time>
      </trkpt>
      <trkpt lat="42.232046127319336" lon="3.083488941192627">
        <ele>0.7027742891343676</ele>
        <time>2021-07-28T19:16:08.895Z</time>
      </trkpt>
      <trkpt lat="42.232625568285584" lon="3.083488941192627">
        <ele>0.7520529830919199</ele>
        <time>2021-07-28T19:16:17.546Z</time>
      </trkpt>
      <trkpt lat="42.23324775695801" lon="3.083488941192627">
        <ele>0.770280533511194</ele>
        <time>2021-07-28T19:16:26.207Z</time>
      </trkpt>
      <trkpt lat="42.23366618156433" lon="3.0834460258483887">
        <ele>0.8691639800857025</ele>
        <time>2021-07-28T19:16:34.875Z</time>
      </trkpt>
      <trkpt lat="42.234084606170654" lon="3.0833065509796143">
        <ele>0.9906463460678283</ele>
        <time>2021-07-28T19:16:43.550Z</time>
      </trkpt>
      <trkpt lat="42.2350287437439" lon="3.082866668701172">
        <ele>1.165359882903607</ele>
        <time>2021-07-28T19:16:52.241Z</time>
      </trkpt>
      <trkpt lat="42.23541506566107" lon="3.082684278488159">
        <ele>1.2695620795698472</ele>
        <time>2021-07-28T19:17:00.938Z</time>
      </trkpt>
      <trkpt lat="42.23553308285773" lon="3.0826306343078613">
        <ele>1.377751877843804</ele>
        <time>2021-07-28T19:17:09.637Z</time>
      </trkpt>
      <trkpt lat="42.23565101623535" lon="3.0825769901275635">
        <ele>1.4874485779073603</ele>
        <time>2021-07-28T19:17:18.338Z</time>
      </trkpt>
      <trkpt lat="42.235844135284424" lon="3.0824482440948486">
        <ele>1.6075753183560222</ele>
        <time>2021-07-28T19:17:27.043Z</time>
      </trkpt>
      <trkpt lat="42.23675608634949" lon="3.0816972255706787">
        <ele>1.7876175363537619</ele>
        <time>2021-07-28T19:17:35.765Z</time>
      </trkpt>
      <trkpt lat="42.237077951431274" lon="3.0814826488494873">
        <ele>1.9042041443454738</ele>
        <time>2021-07-28T19:17:44.493Z</time>
      </trkpt>
      <trkpt lat="42.23761439323425" lon="3.081214427947998">
        <ele>1.9639590713190551</ele>
        <time>2021-07-28T19:17:53.230Z</time>
      </trkpt>
      <trkpt lat="42.23801136016846" lon="3.080946207046509">
        <ele>2.0308846849187137</ele>
        <time>2021-07-28T19:18:01.974Z</time>
      </trkpt>
      <trkpt lat="42.23870873451233" lon="3.0803990364074707">
        <ele>2.202929382822532</ele>
        <time>2021-07-28T19:18:10.731Z</time>
      </trkpt>
      <trkpt lat="42.23936319351196" lon="3.07991623878479">
        <ele>2.408623155804422</ele>
        <time>2021-07-28T19:18:19.500Z</time>
      </trkpt>
      <trkpt lat="42.239813804626465" lon="3.0796587467193604">
        <ele>2.5612730260693466</ele>
        <time>2021-07-28T19:18:28.277Z</time>
      </trkpt>
      <trkpt lat="42.24028595723212" lon="3.07942271232605">
        <ele>2.6951047615598904</ele>
        <time>2021-07-28T19:18:37.062Z</time>
      </trkpt>
      <trkpt lat="42.240285873413086" lon="3.07942271232605">
        <ele>2.8425272333014275</ele>
        <time>2021-07-28T19:18:45.847Z</time>
      </trkpt>
      <trkpt lat="42.24249601364136" lon="3.078296184539795">
        <ele>2.9730468159175443</ele>
        <time>2021-07-28T19:18:54.670Z</time>
      </trkpt>
      <trkpt lat="42.24321484565735" lon="3.077899217605591">
        <ele>3.1413845991143674</ele>
        <time>2021-07-28T19:19:03.505Z</time>
      </trkpt>
      <trkpt lat="42.24346160888672" lon="3.077749013900757">
        <ele>3.3461099887025414</ele>
        <time>2021-07-28T19:19:12.344Z</time>
      </trkpt>
      <trkpt lat="42.244523763656616" lon="3.077019453048706">
        <ele>3.46862205284459</ele>
        <time>2021-07-28T19:19:21.202Z</time>
      </trkpt>
      <trkpt lat="42.2454035282135" lon="3.07641863822937">
        <ele>3.69954257858956</ele>
        <time>2021-07-28T19:19:30.076Z</time>
      </trkpt>
      <trkpt lat="42.24574685096741" lon="3.076075315475464">
        <ele>3.9054758665483025</ele>
        <time>2021-07-28T19:19:38.957Z</time>
      </trkpt>
      <trkpt lat="42.24617600440979" lon="3.0756139755249023">
        <ele>4.267929007910175</ele>
        <time>2021-07-28T19:19:47.847Z</time>
      </trkpt>
      <trkpt lat="42.24628337658942" lon="3.075517416000366">
        <ele>4.519102903608564</ele>
        <time>2021-07-28T19:19:56.739Z</time>
      </trkpt>
      <trkpt lat="42.24643349647522" lon="3.0753886699676514">
        <ele>4.755472185424983</ele>
        <time>2021-07-28T19:20:05.634Z</time>
      </trkpt>
      <trkpt lat="42.24692702293396" lon="3.075120449066162">
        <ele>4.948521453354472</ele>
        <time>2021-07-28T19:20:14.537Z</time>
      </trkpt>
      <trkpt lat="42.24724888801575" lon="3.075045347213745">
        <ele>5.118390665077293</ele>
        <time>2021-07-28T19:20:23.445Z</time>
      </trkpt>
      <trkpt lat="42.247581481933594" lon="3.0749917030334473">
        <ele>5.328971114089542</ele>
        <time>2021-07-28T19:20:32.359Z</time>
      </trkpt>
      <trkpt lat="42.24791407585144" lon="3.0749917030334473">
        <ele>5.571129523525229</ele>
        <time>2021-07-28T19:20:41.278Z</time>
      </trkpt>
      <trkpt lat="42.24823594093323" lon="3.075023889541626">
        <ele>5.817351846941255</ele>
        <time>2021-07-28T19:20:50.202Z</time>
      </trkpt>
      <trkpt lat="42.24984526634216" lon="3.0753564834594727">
        <ele>6.230601502706031</ele>
        <time>2021-07-28T19:20:59.152Z</time>
      </trkpt>
      <trkpt lat="42.250070571899414" lon="3.07542085647583">
        <ele>6.494662007521795</ele>
        <time>2021-07-28T19:21:08.106Z</time>
      </trkpt>
      <trkpt lat="42.25023158825934" lon="3.075495958328247">
        <ele>6.734594183099896</ele>
        <time>2021-07-28T19:21:17.063Z</time>
      </trkpt>
      <trkpt lat="42.25023150444031" lon="3.075495958328247">
        <ele>6.956092596242173</ele>
        <time>2021-07-28T19:21:26.020Z</time>
      </trkpt>
      <trkpt lat="42.25047826766968" lon="3.075646162033081">
        <ele>7.171774626631448</ele>
        <time>2021-07-28T19:21:34.981Z</time>
      </trkpt>
      <trkpt lat="42.25074648857117" lon="3.0758392810821533">
        <ele>7.36577280155096</ele>
        <time>2021-07-28T19:21:43.947Z</time>
      </trkpt>
      <trkpt lat="42.25088596343994" lon="3.075968027114868">
        <ele>7.552946959878436</ele>
        <time>2021-07-28T19:21:52.916Z</time>
      </trkpt>
      <trkpt lat="42.2509503364563" lon="3.076075315475464">
        <ele>7.728159210694329</ele>
        <time>2021-07-28T19:22:01.886Z</time>
      </trkpt>
      <trkpt lat="42.25099333561957" lon="3.0761826038360596">
        <ele>7.874126832903665</ele>
        <time>2021-07-28T19:22:10.858Z</time>
      </trkpt>
      <trkpt lat="42.251014709472656" lon="3.076300621032715">
        <ele>7.991384101088276</ele>
        <time>2021-07-28T19:22:19.831Z</time>
      </trkpt>
      <trkpt lat="42.2509503364563" lon="3.076450824737549">
        <ele>8.0708328727381</ele>
        <time>2021-07-28T19:22:28.806Z</time>
      </trkpt>
      <trkpt lat="42.25086450576782" lon="3.0765581130981445">
        <ele>8.116346814480456</ele>
        <time>2021-07-28T19:22:37.783Z</time>
      </trkpt>
      <trkpt lat="42.250821590423584" lon="3.076697587966919">
        <ele>8.14468417888843</ele>
        <time>2021-07-28T19:22:46.762Z</time>
      </trkpt>
      <trkpt lat="42.25085377693176" lon="3.0768370628356934">
        <ele>8.141178481766172</ele>
        <time>2021-07-28T19:22:55.743Z</time>
      </trkpt>
      <trkpt lat="42.25096106529236" lon="3.0770516395568848">
        <ele>8.103147340837603</ele>
        <time>2021-07-28T19:23:04.727Z</time>
      </trkpt>
      <trkpt lat="42.251068353652954" lon="3.077319860458374">
        <ele>8.035785905840434</ele>
        <time>2021-07-28T19:23:13.714Z</time>
      </trkpt>
      <trkpt lat="42.25115418434143" lon="3.0776524543762207">
        <ele>7.942733028966829</ele>
        <time>2021-07-28T19:23:22.706Z</time>
      </trkpt>
      <trkpt lat="42.25121855735779" lon="3.078263998031616">
        <ele>7.869039301590659</ele>
        <time>2021-07-28T19:23:31.705Z</time>
      </trkpt>
      <trkpt lat="42.251272201538086" lon="3.0791115760803223">
        <ele>7.706849700318726</ele>
        <time>2021-07-28T19:23:40.714Z</time>
      </trkpt>
      <trkpt lat="42.251282930374146" lon="3.079615831375122">
        <ele>7.557750110762635</ele>
        <time>2021-07-28T19:23:49.729Z</time>
      </trkpt>
      <trkpt lat="42.2513473033905" lon="3.080366849899292">
        <ele>7.428116388034519</ele>
        <time>2021-07-28T19:23:58.753Z</time>
      </trkpt>
      <trkpt lat="42.2514545917511" lon="3.080946207046509">
        <ele>7.253299799693762</ele>
        <time>2021-07-28T19:24:07.784Z</time>
      </trkpt>
      <trkpt lat="42.25166916847229" lon="3.0818474292755127">
        <ele>7.195796598570691</ele>
        <time>2021-07-28T19:24:16.826Z</time>
      </trkpt>
      <trkpt lat="42.252548933029175" lon="3.08465838432312">
        <ele>6.7863369686579995</ele>
        <time>2021-07-28T19:24:25.905Z</time>
      </trkpt>
      <trkpt lat="42.25272059440613" lon="3.085055351257324">
        <ele>6.567862334339855</ele>
        <time>2021-07-28T19:24:34.989Z</time>
      </trkpt>
      <trkpt lat="42.25288152694702" lon="3.0853450298309326">
        <ele>6.39297715649377</ele>
        <time>2021-07-28T19:24:44.077Z</time>
      </trkpt>
      <trkpt lat="42.253053188323975" lon="3.0855917930603027">
        <ele>6.218304229051809</ele>
        <time>2021-07-28T19:24:53.169Z</time>
      </trkpt>
      <trkpt lat="42.25343951024115" lon="3.086031675338745">
        <ele>6.051418039015065</ele>
        <time>2021-07-28T19:25:02.269Z</time>
      </trkpt>
      <trkpt lat="42.25375056266785" lon="3.086235523223877">
        <ele>5.872896842768581</ele>
        <time>2021-07-28T19:25:11.375Z</time>
      </trkpt>
      <trkpt lat="42.25411534309387" lon="3.0865466594696045">
        <ele>5.701139844432788</ele>
        <time>2021-07-28T19:25:20.488Z</time>
      </trkpt>
      <trkpt lat="42.25424408912659" lon="3.0865681171417236">
        <ele>5.5182462544710145</ele>
        <time>2021-07-28T19:25:29.603Z</time>
      </trkpt>
      <trkpt lat="42.254362190142274" lon="3.0866217613220215">
        <ele>5.346276761636369</ele>
        <time>2021-07-28T19:25:38.720Z</time>
      </trkpt>
      <trkpt lat="42.25439429283142" lon="3.086782693862915">
        <ele>5.202788268135167</ele>
        <time>2021-07-28T19:25:47.839Z</time>
      </trkpt>
      <trkpt lat="42.25438356399536" lon="3.087083101272583">
        <ele>5.088175862165734</ele>
        <time>2021-07-28T19:25:56.961Z</time>
      </trkpt>
      <trkpt lat="42.25423336029053" lon="3.0876410007476807">
        <ele>4.875841484783551</ele>
        <time>2021-07-28T19:26:06.091Z</time>
      </trkpt>
      <trkpt lat="42.25423336029053" lon="3.087887763977051">
        <ele>4.780779697420002</ele>
        <time>2021-07-28T19:26:15.223Z</time>
      </trkpt>
      <trkpt lat="42.254319190979004" lon="3.0879950523376465">
        <ele>4.709758595994667</ele>
        <time>2021-07-28T19:26:24.357Z</time>
      </trkpt>
      <trkpt lat="42.25465178489685" lon="3.0881989002227783">
        <ele>4.656728408168957</ele>
        <time>2021-07-28T19:26:33.497Z</time>
      </trkpt>
      <trkpt lat="42.25471615791321" lon="3.088209629058838">
        <ele>4.6203987933988575</ele>
        <time>2021-07-28T19:26:42.638Z</time>
      </trkpt>
      <trkpt lat="42.254823446273804" lon="3.088102340698242">
        <ele>4.614616679776664</ele>
        <time>2021-07-28T19:26:51.781Z</time>
      </trkpt>
      <trkpt lat="42.25495219230652" lon="3.0877912044525146">
        <ele>4.639910847016423</ele>
        <time>2021-07-28T19:27:00.929Z</time>
      </trkpt>
      <trkpt lat="42.25512385368347" lon="3.087533712387085">
        <ele>4.672961649376008</ele>
        <time>2021-07-28T19:27:10.081Z</time>
      </trkpt>
      <trkpt lat="42.2552312258631" lon="3.087329864501953">
        <ele>4.670110961576137</ele>
        <time>2021-07-28T19:27:19.236Z</time>
      </trkpt>
      <trkpt lat="42.25546726025641" lon="3.0869758129119873">
        <ele>4.7010034329007535</ele>
        <time>2021-07-28T19:27:28.396Z</time>
      </trkpt>
      <trkpt lat="42.25546717643738" lon="3.0869758129119873">
        <ele>4.69318280459608</ele>
        <time>2021-07-28T19:27:37.556Z</time>
      </trkpt>
      <trkpt lat="42.25437291897833" lon="3.090226650238037">
        <ele>4.565899308710206</ele>
        <time>2021-07-28T19:27:46.759Z</time>
      </trkpt>
      <trkpt lat="42.254008054733276" lon="3.0913102626800537">
        <ele>4.6884517046127225</ele>
        <time>2021-07-28T19:27:55.976Z</time>
      </trkpt>
      <trkpt lat="42.25275278091431" lon="3.0947327613830566">
        <ele>4.595691647381553</ele>
        <time>2021-07-28T19:28:05.238Z</time>
      </trkpt>
      <trkpt lat="42.25251683034003" lon="3.0954086780548096">
        <ele>4.552569458403799</ele>
        <time>2021-07-28T19:28:14.509Z</time>
      </trkpt>
      <trkpt lat="42.252516746520996" lon="3.0954086780548096">
        <ele>4.527034312603796</ele>
        <time>2021-07-28T19:28:23.780Z</time>
      </trkpt>
      <trkpt lat="42.25198030471802" lon="3.0968892574310303">
        <ele>4.449293206776252</ele>
        <time>2021-07-28T19:28:33.071Z</time>
      </trkpt>
      <trkpt lat="42.25191593170166" lon="3.0972325801849365">
        <ele>4.449247462246337</ele>
        <time>2021-07-28T19:28:42.366Z</time>
      </trkpt>
      <trkpt lat="42.25191601552069" lon="3.097844123840332">
        <ele>4.4743056880964245</ele>
        <time>2021-07-28T19:28:51.668Z</time>
      </trkpt>
      <trkpt lat="42.25191601552069" lon="3.0982625484466553">
        <ele>4.397759830625661</ele>
        <time>2021-07-28T19:29:00.975Z</time>
      </trkpt>
      <trkpt lat="42.25192674435675" lon="3.0994534492492676">
        <ele>4.398793896777394</ele>
        <time>2021-07-28T19:29:10.296Z</time>
      </trkpt>
      <trkpt lat="42.25194820202887" lon="3.100118637084961">
        <ele>4.25129299749107</ele>
        <time>2021-07-28T19:29:19.625Z</time>
      </trkpt>
      <trkpt lat="42.25196965970099" lon="3.100816011428833">
        <ele>4.176817180573383</ele>
        <time>2021-07-28T19:29:28.962Z</time>
      </trkpt>
      <trkpt lat="42.25199111737311" lon="3.1012988090515137">
        <ele>4.134849950191388</ele>
        <time>2021-07-28T19:29:38.305Z</time>
      </trkpt>
      <trkpt lat="42.25200184620917" lon="3.1017708778381348">
        <ele>4.064288516850889</ele>
        <time>2021-07-28T19:29:47.654Z</time>
      </trkpt>
      <trkpt lat="42.25200176239014" lon="3.1017708778381348">
        <ele>4.047321572568635</ele>
        <time>2021-07-28T19:29:57.003Z</time>
      </trkpt>
      <trkpt lat="42.25203403271735" lon="3.102768659591675">
        <ele>4.014122387977795</ele>
        <time>2021-07-28T19:30:06.364Z</time>
      </trkpt>
      <trkpt lat="42.252066219225526" lon="3.1036269664764404">
        <ele>4.09563061033542</ele>
        <time>2021-07-28T19:30:15.735Z</time>
      </trkpt>
      <trkpt lat="42.25199103355408" lon="3.103841543197632">
        <ele>4.13212079183285</ele>
        <time>2021-07-28T19:30:25.109Z</time>
      </trkpt>
      <trkpt lat="42.25191593170166" lon="3.103959560394287">
        <ele>4.098300584954293</ele>
        <time>2021-07-28T19:30:34.485Z</time>
      </trkpt>
      <trkpt lat="42.25178726948798" lon="3.104066848754883">
        <ele>4.065784623569323</ele>
        <time>2021-07-28T19:30:43.863Z</time>
      </trkpt>
      <trkpt lat="42.25074648857117" lon="3.1044960021972656">
        <ele>4.011595445442756</ele>
        <time>2021-07-28T19:30:53.258Z</time>
      </trkpt>
      <trkpt lat="42.2507465723902" lon="3.1044960021972656">
        <ele>4.0190123338896395</ele>
        <time>2021-07-28T19:31:02.653Z</time>
      </trkpt>
      <trkpt lat="42.250306690111756" lon="3.1047749519348145">
        <ele>4.107493648798304</ele>
        <time>2021-07-28T19:31:12.056Z</time>
      </trkpt>
      <trkpt lat="42.25001701153815" lon="3.104957342147827">
        <ele>4.139714660296383</ele>
        <time>2021-07-28T19:31:21.464Z</time>
      </trkpt>
      <trkpt lat="42.24974870681763" lon="3.105107545852661">
        <ele>4.089043301746466</ele>
        <time>2021-07-28T19:31:30.877Z</time>
      </trkpt>
      <trkpt lat="42.24974879063666" lon="3.105107545852661">
        <ele>4.015105742868502</ele>
        <time>2021-07-28T19:31:40.290Z</time>
      </trkpt>
      <trkpt lat="42.249276638031006" lon="3.1054723262786865">
        <ele>3.889049991302016</ele>
        <time>2021-07-28T19:31:49.712Z</time>
      </trkpt>
      <trkpt lat="42.24879392422736" lon="3.1058156490325928">
        <ele>3.757685719449216</ele>
        <time>2021-07-28T19:31:59.142Z</time>
      </trkpt>
      <trkpt lat="42.24847197532654" lon="3.106105327606201">
        <ele>3.653816190026779</ele>
        <time>2021-07-28T19:32:08.579Z</time>
      </trkpt>
      <trkpt lat="42.24798917770386" lon="3.1065773963928223">
        <ele>3.3674863490565166</ele>
        <time>2021-07-28T19:32:18.025Z</time>
      </trkpt>
      <trkpt lat="42.24794626235962" lon="3.1065237522125244">
        <ele>3.247897510467975</ele>
        <time>2021-07-28T19:32:27.472Z</time>
      </trkpt>
      <trkpt lat="42.24790334701538" lon="3.1065022945404053">
        <ele>3.114122480819069</ele>
        <time>2021-07-28T19:32:36.920Z</time>
      </trkpt>
      <trkpt lat="42.247817600145936" lon="3.1065237522125244">
        <ele>2.970118576638975</ele>
        <time>2021-07-28T19:32:46.369Z</time>
      </trkpt>
      <trkpt lat="42.247774600982666" lon="3.1065773963928223">
        <ele>2.8105652622065205</ele>
        <time>2021-07-28T19:32:55.819Z</time>
      </trkpt>
      <trkpt lat="42.247763872146606" lon="3.1066417694091797">
        <ele>2.641444868226836</ele>
        <time>2021-07-28T19:33:05.270Z</time>
      </trkpt>
      <trkpt lat="42.247763872146606" lon="3.106738328933716">
        <ele>2.4661876643106737</ele>
        <time>2021-07-28T19:33:14.722Z</time>
      </trkpt>
      <trkpt lat="42.247806871309876" lon="3.1068027019500732">
        <ele>2.2917448355738985</ele>
        <time>2021-07-28T19:33:24.175Z</time>
      </trkpt>
      <trkpt lat="42.2478711605072" lon="3.106834888458252">
        <ele>2.1240993215209527</ele>
        <time>2021-07-28T19:33:33.629Z</time>
      </trkpt>
      <trkpt lat="42.2479248046875" lon="3.106834888458252">
        <ele>1.970075382732778</ele>
        <time>2021-07-28T19:33:43.084Z</time>
      </trkpt>
      <trkpt lat="42.2479784488678" lon="3.106781244277954">
        <ele>1.8342661318926936</ele>
        <time>2021-07-28T19:33:52.540Z</time>
      </trkpt>
      <trkpt lat="42.24840768612921" lon="3.1075000762939453">
        <ele>1.6314733955316842</ele>
        <time>2021-07-28T19:34:02.007Z</time>
      </trkpt>
      <trkpt lat="42.25002774037421" lon="3.11012864112854">
        <ele>1.5687657268473387</ele>
        <time>2021-07-28T19:34:11.515Z</time>
      </trkpt>
      <trkpt lat="42.250553453341126" lon="3.1109654903411865">
        <ele>1.4755316131595615</ele>
        <time>2021-07-28T19:34:21.036Z</time>
      </trkpt>
      <trkpt lat="42.250853860750794" lon="3.1115341186523438">
        <ele>1.6576210700885166</ele>
        <time>2021-07-28T19:34:30.565Z</time>
      </trkpt>
      <trkpt lat="42.251272201538086" lon="3.1121349334716797">
        <ele>1.7407403264389303</ele>
        <time>2021-07-28T19:34:40.104Z</time>
      </trkpt>
      <trkpt lat="42.25146540440619" lon="3.1124353408813477">
        <ele>1.7919693115426165</ele>
        <time>2021-07-28T19:34:49.648Z</time>
      </trkpt>
      <trkpt lat="42.25142240524292" lon="3.112521171569824">
        <ele>1.8693893810774362</ele>
        <time>2021-07-28T19:34:59.193Z</time>
      </trkpt>
      <trkpt lat="42.25142240524292" lon="3.112607002258301">
        <ele>1.97163488425935</ele>
        <time>2021-07-28T19:35:08.739Z</time>
      </trkpt>
      <trkpt lat="42.25144386291504" lon="3.112649917602539">
        <ele>2.0960979186560724</ele>
        <time>2021-07-28T19:35:18.285Z</time>
      </trkpt>
      <trkpt lat="42.251304388046265" lon="3.11287522315979">
        <ele>2.2383217748890267</ele>
        <time>2021-07-28T19:35:27.835Z</time>
      </trkpt>
      <trkpt lat="42.250864589586854" lon="3.1134653091430664">
        <ele>2.4535850836972903</ele>
        <time>2021-07-28T19:35:37.395Z</time>
      </trkpt>
      <trkpt lat="42.25014575757086" lon="3.114570379257202">
        <ele>2.5416028228026546</ele>
        <time>2021-07-28T19:35:46.972Z</time>
      </trkpt>
      <trkpt lat="42.24945902824402" lon="3.115718364715576">
        <ele>2.641238659997093</ele>
        <time>2021-07-28T19:35:56.567Z</time>
      </trkpt>
      <trkpt lat="42.24945911206305" lon="3.115718364715576">
        <ele>2.689523980805319</ele>
        <time>2021-07-28T19:36:06.162Z</time>
      </trkpt>
      <trkpt lat="42.24897623062134" lon="3.116694688796997">
        <ele>2.915515979273326</ele>
        <time>2021-07-28T19:36:15.771Z</time>
      </trkpt>
      <trkpt lat="42.248525619506836" lon="3.117671012878418">
        <ele>2.385308680845018</ele>
        <time>2021-07-28T19:36:25.393Z</time>
      </trkpt>
      <trkpt lat="42.24798917770386" lon="3.1190764904022217">
        <ele>2.131206434912777</ele>
        <time>2021-07-28T19:36:35.034Z</time>
      </trkpt>
      <trkpt lat="42.24798926152289" lon="3.1190764904022217">
        <ele>2.118054410460363</ele>
        <time>2021-07-28T19:36:44.675Z</time>
      </trkpt>
      <trkpt lat="42.24796772003174" lon="3.11911940574646">
        <ele>2.1119252230869208</ele>
        <time>2021-07-28T19:36:54.317Z</time>
      </trkpt>
      <trkpt lat="42.24796780385077" lon="3.11911940574646">
        <ele>2.1259556593211104</ele>
        <time>2021-07-28T19:37:03.959Z</time>
      </trkpt>
      <trkpt lat="42.24769949913025" lon="3.1199240684509277">
        <ele>2.1853378809504784</ele>
        <time>2021-07-28T19:37:13.611Z</time>
      </trkpt>
      <trkpt lat="42.24769958294928" lon="3.1199240684509277">
        <ele>2.189811550671482</ele>
        <time>2021-07-28T19:37:23.263Z</time>
      </trkpt>
      <trkpt lat="42.24767250940204" lon="3.1200116593390703">
        <ele>2.2215647775120666</ele>
        <time>2021-07-28T19:37:32.916Z</time>
      </trkpt>
      <trkpt lat="42.25162625312805" lon="3.11262845993042">
        <ele>1.7554416116764782</ele>
        <time>2021-07-20T09:51:05.000Z</time>
      </trkpt>
      <trkpt lat="42.25163698196411" lon="3.1125426292419434">
        <ele>1.8072651675743727</ele>
        <time>2021-07-20T09:51:05.001Z</time>
      </trkpt>
      <trkpt lat="42.251615608111024" lon="3.1124675273895264">
        <ele>1.8427011153048478</ele>
        <time>2021-07-20T09:51:05.003Z</time>
      </trkpt>
      <trkpt lat="42.25159406661987" lon="3.1124353408813477">
        <ele>1.8849376461822007</ele>
        <time>2021-07-20T09:51:05.006Z</time>
      </trkpt>
      <trkpt lat="42.251529693603516" lon="3.112403154373169">
        <ele>1.9342892448510627</ele>
        <time>2021-07-20T09:51:05.010Z</time>
      </trkpt>
      <trkpt lat="42.25146532058716" lon="3.1124353408813477">
        <ele>1.9910188696839448</ele>
        <time>2021-07-20T09:51:05.015Z</time>
      </trkpt>
      <trkpt lat="42.251272201538086" lon="3.1121349334716797">
        <ele>2.0553221683793224</ele>
        <time>2021-07-20T09:51:05.024Z</time>
      </trkpt>
      <trkpt lat="42.250853860750794" lon="3.1115341186523438">
        <ele>2.0593121591738024</ele>
        <time>2021-07-20T09:51:05.043Z</time>
      </trkpt>
      <trkpt lat="42.250553453341126" lon="3.1109654903411865">
        <ele>1.9141008998217772</ele>
        <time>2021-07-20T09:51:05.070Z</time>
      </trkpt>
      <trkpt lat="42.25002774037421" lon="3.11012864112854">
        <ele>2.026532392871088</ele>
        <time>2021-07-20T09:51:05.111Z</time>
      </trkpt>
      <trkpt lat="42.24840768612921" lon="3.1075000762939453">
        <ele>2.1183057235055154</ele>
        <time>2021-07-20T09:51:05.192Z</time>
      </trkpt>
      <trkpt lat="42.2479784488678" lon="3.106781244277954">
        <ele>2.356325151811927</ele>
        <time>2021-07-20T09:51:05.284Z</time>
      </trkpt>
      <trkpt lat="42.24799990653992" lon="3.1067276000976562">
        <ele>2.536901615369529</ele>
        <time>2021-07-20T09:51:05.377Z</time>
      </trkpt>
      <trkpt lat="42.24801063537598" lon="3.1066417694091797">
        <ele>2.7224402435855546</ele>
        <time>2021-07-20T09:51:05.471Z</time>
      </trkpt>
      <trkpt lat="42.24798917770386" lon="3.1065773963928223">
        <ele>2.9063393399206507</ele>
        <time>2021-07-20T09:51:05.566Z</time>
      </trkpt>
      <trkpt lat="42.24847197532654" lon="3.106105327606201">
        <ele>3.2717314043925123</ele>
        <time>2021-07-20T09:51:05.670Z</time>
      </trkpt>
      <trkpt lat="42.24879392422736" lon="3.1058156490325928">
        <ele>3.472437460633086</ele>
        <time>2021-07-20T09:51:05.780Z</time>
      </trkpt>
      <trkpt lat="42.249276638031006" lon="3.1054723262786865">
        <ele>3.689464181126092</ele>
        <time>2021-07-20T09:51:05.899Z</time>
      </trkpt>
      <trkpt lat="42.24974879063666" lon="3.105107545852661">
        <ele>3.899691020128053</ele>
        <time>2021-07-20T09:51:06.027Z</time>
      </trkpt>
      <trkpt lat="42.24974870681763" lon="3.105107545852661">
        <ele>4.052218195544006</ele>
        <time>2021-07-20T09:51:06.155Z</time>
      </trkpt>
      <trkpt lat="42.25001701153815" lon="3.104957342147827">
        <ele>4.168737745007058</ele>
        <time>2021-07-20T09:51:06.287Z</time>
      </trkpt>
      <trkpt lat="42.250306690111756" lon="3.1047749519348145">
        <ele>4.182292701645485</ele>
        <time>2021-07-20T09:51:06.425Z</time>
      </trkpt>
      <trkpt lat="42.2507465723902" lon="3.1044960021972656">
        <ele>4.106193714655134</ele>
        <time>2021-07-20T09:51:06.570Z</time>
      </trkpt>
      <trkpt lat="42.25074648857117" lon="3.1044960021972656">
        <ele>4.084636279988321</ele>
        <time>2021-07-20T09:51:06.715Z</time>
      </trkpt>
      <trkpt lat="42.251787185668945" lon="3.104066848754883">
        <ele>4.124751456234197</ele>
        <time>2021-07-20T09:51:06.878Z</time>
      </trkpt>
      <trkpt lat="42.25191593170166" lon="3.103959560394287">
        <ele>4.152999892273944</ele>
        <time>2021-07-20T09:51:07.043Z</time>
      </trkpt>
      <trkpt lat="42.25199103355408" lon="3.103841543197632">
        <ele>4.186107029542408</ele>
        <time>2021-07-20T09:51:07.210Z</time>
      </trkpt>
      <trkpt lat="42.252066219225526" lon="3.1036269664764404">
        <ele>4.14660899720285</ele>
        <time>2021-07-20T09:51:07.380Z</time>
      </trkpt>
      <trkpt lat="42.25203403271735" lon="3.102768659591675">
        <ele>4.0433325038581955</ele>
        <time>2021-07-20T09:51:07.560Z</time>
      </trkpt>
      <trkpt lat="42.25200176239014" lon="3.1017708778381348">
        <ele>4.0351668255267965</ele>
        <time>2021-07-20T09:51:07.752Z</time>
      </trkpt>
      <trkpt lat="42.25200184620917" lon="3.1017708778381348">
        <ele>4.0140278883974885</ele>
        <time>2021-07-20T09:51:07.944Z</time>
      </trkpt>
      <trkpt lat="42.25199111737311" lon="3.1012988090515137">
        <ele>4.046793859207651</ele>
        <time>2021-07-20T09:51:08.142Z</time>
      </trkpt>
      <trkpt lat="42.25196965970099" lon="3.100816011428833">
        <ele>4.059675872605094</ele>
        <time>2021-07-20T09:51:08.345Z</time>
      </trkpt>
      <trkpt lat="42.25194820202887" lon="3.100118637084961">
        <ele>4.107284284940023</ele>
        <time>2021-07-20T09:51:08.557Z</time>
      </trkpt>
      <trkpt lat="42.25192674435675" lon="3.0994534492492676">
        <ele>4.237538620634492</ele>
        <time>2021-07-20T09:51:08.777Z</time>
      </trkpt>
      <trkpt lat="42.25191601552069" lon="3.0982625484466553">
        <ele>4.240393549136467</ele>
        <time>2021-07-20T09:51:09.011Z</time>
      </trkpt>
      <trkpt lat="42.25191601552069" lon="3.097844123840332">
        <ele>4.311385366801742</ele>
        <time>2021-07-20T09:51:09.250Z</time>
      </trkpt>
      <trkpt lat="42.25191593170166" lon="3.0972325801849365">
        <ele>4.288855019244954</ele>
        <time>2021-07-20T09:51:09.496Z</time>
      </trkpt>
      <trkpt lat="42.25198030471802" lon="3.0968892574310303">
        <ele>4.279548830551532</ele>
        <time>2021-07-20T09:51:09.746Z</time>
      </trkpt>
      <trkpt lat="42.252516746520996" lon="3.0954086780548096">
        <ele>4.343265894209801</ele>
        <time>2021-07-20T09:51:10.016Z</time>
      </trkpt>
      <trkpt lat="42.25251683034003" lon="3.0954086780548096">
        <ele>4.3684004460974215</ele>
        <time>2021-07-20T09:51:10.286Z</time>
      </trkpt>
      <trkpt lat="42.25275278091431" lon="3.0947327613830566">
        <ele>4.413820125240459</ele>
        <time>2021-07-20T09:51:10.565Z</time>
      </trkpt>
      <trkpt lat="42.254008054733276" lon="3.0913102626800537">
        <ele>4.515058218367123</ele>
        <time>2021-07-20T09:51:10.889Z</time>
      </trkpt>
      <trkpt lat="42.25437291897833" lon="3.090226650238037">
        <ele>4.423813381095568</ele>
        <time>2021-07-20T09:51:11.227Z</time>
      </trkpt>
      <trkpt lat="42.25546717643738" lon="3.0869758129119873">
        <ele>4.551766250119547</ele>
        <time>2021-07-20T09:51:11.607Z</time>
      </trkpt>
      <trkpt lat="42.25546726025641" lon="3.0869758129119873">
        <ele>4.588774449823504</ele>
        <time>2021-07-20T09:51:11.987Z</time>
      </trkpt>
      <trkpt lat="42.25587487220764" lon="3.0861711502075195">
        <ele>4.685392965523588</ele>
        <time>2021-07-20T09:51:12.379Z</time>
      </trkpt>
      <trkpt lat="42.25614309310913" lon="3.085806369781494">
        <ele>4.695818664449922</ele>
        <time>2021-07-20T09:51:12.777Z</time>
      </trkpt>
      <trkpt lat="42.25637912750244" lon="3.08565616607666">
        <ele>4.696319388876096</ele>
        <time>2021-07-20T09:51:13.179Z</time>
      </trkpt>
      <trkpt lat="42.257065773010254" lon="3.0853664875030518">
        <ele>4.717336084901371</ele>
        <time>2021-07-20T09:51:13.593Z</time>
      </trkpt>
      <trkpt lat="42.25796699523926" lon="3.085184097290039">
        <ele>4.854482978914066</ele>
        <time>2021-07-20T09:51:14.021Z</time>
      </trkpt>
      <trkpt lat="42.25797772407532" lon="3.085237741470337">
        <ele>4.913833130954564</ele>
        <time>2021-07-20T09:51:14.450Z</time>
      </trkpt>
      <trkpt lat="42.258042097091675" lon="3.0853235721588135">
        <ele>4.976957040814164</ele>
        <time>2021-07-20T09:51:14.881Z</time>
      </trkpt>
      <trkpt lat="42.25808501243591" lon="3.0853450298309326">
        <ele>5.053707963330878</ele>
        <time>2021-07-20T09:51:15.312Z</time>
      </trkpt>
      <trkpt lat="42.25817092694342" lon="3.085334300994873">
        <ele>5.145371465685963</ele>
        <time>2021-07-20T09:51:15.745Z</time>
      </trkpt>
      <trkpt lat="42.25820302963257" lon="3.0852913856506348">
        <ele>5.255371796432176</ele>
        <time>2021-07-20T09:51:16.178Z</time>
      </trkpt>
      <trkpt lat="42.25824602879584" lon="3.0851733684539795">
        <ele>5.390518892042435</ele>
        <time>2021-07-20T09:51:16.613Z</time>
      </trkpt>
      <trkpt lat="42.25822448730469" lon="3.085066080093384">
        <ele>5.5382123865648385</ele>
        <time>2021-07-20T09:51:17.049Z</time>
      </trkpt>
      <trkpt lat="42.25819230079651" lon="3.0850231647491455">
        <ele>5.701709492827388</ele>
        <time>2021-07-20T09:51:17.486Z</time>
      </trkpt>
      <trkpt lat="42.25814938545227" lon="3.084990978240967">
        <ele>5.893871134887261</ele>
        <time>2021-07-20T09:51:17.924Z</time>
      </trkpt>
      <trkpt lat="42.25807428359985" lon="3.084990978240967">
        <ele>6.123294447089478</ele>
        <time>2021-07-20T09:51:18.363Z</time>
      </trkpt>
      <trkpt lat="42.258052825927734" lon="3.084840774536133">
        <ele>6.354652189290249</ele>
        <time>2021-07-20T09:51:18.804Z</time>
      </trkpt>
      <trkpt lat="42.25788116455078" lon="3.0842292308807373">
        <ele>6.579620558569252</ele>
        <time>2021-07-20T09:51:19.253Z</time>
      </trkpt>
      <trkpt lat="42.25697994232178" lon="3.0806779861450195">
        <ele>6.939604440923915</ele>
        <time>2021-07-20T09:51:19.746Z</time>
      </trkpt>
      <trkpt lat="42.2576452139765" lon="3.0795836448669434">
        <ele>7.362868224989075</ele>
        <time>2021-07-20T09:51:20.256Z</time>
      </trkpt>
      <trkpt lat="42.25764513015747" lon="3.0795836448669434">
        <ele>7.783950886742876</ele>
        <time>2021-07-20T09:51:20.766Z</time>
      </trkpt>
      <trkpt lat="42.25796707905829" lon="3.0790579319000244">
        <ele>8.21482200048274</ele>
        <time>2021-07-20T09:51:21.284Z</time>
      </trkpt>
      <trkpt lat="42.258321130648255" lon="3.0784785747528076">
        <ele>8.77275717275254</ele>
        <time>2021-07-20T09:51:21.811Z</time>
      </trkpt>
      <trkpt lat="42.258567810058594" lon="3.078070878982544">
        <ele>9.309843817688105</ele>
        <time>2021-07-20T09:51:22.344Z</time>
      </trkpt>
      <trkpt lat="42.25844979286194" lon="3.0776095390319824">
        <ele>9.959520015347683</ele>
        <time>2021-07-20T09:51:22.883Z</time>
      </trkpt>
      <trkpt lat="42.25844987668097" lon="3.0771589279174805">
        <ele>10.675558746600016</ele>
        <time>2021-07-20T09:51:23.427Z</time>
      </trkpt>
      <trkpt lat="42.258535623550415" lon="3.0771374702453613">
        <ele>11.333000619081332</ele>
        <time>2021-07-20T09:51:23.973Z</time>
      </trkpt>
      <trkpt lat="42.25858926773071" lon="3.0765795707702637">
        <ele>12.234088046914882</ele>
        <time>2021-07-20T09:51:24.525Z</time>
      </trkpt>
      <trkpt lat="42.258321046829224" lon="3.0765902996063232">
        <ele>12.841616473987052</ele>
        <time>2021-07-20T09:51:25.082Z</time>
      </trkpt>
      <trkpt lat="42.258256673812866" lon="3.0763542652130127">
        <ele>13.577546080680966</ele>
        <time>2021-07-20T09:51:25.642Z</time>
      </trkpt>
      <trkpt lat="42.25822448730469" lon="3.0759787559509277">
        <ele>14.355223370502404</ele>
        <time>2021-07-20T09:51:26.206Z</time>
      </trkpt>
      <trkpt lat="42.25823521614075" lon="3.0759143829345703">
        <ele>15.070451226543595</ele>
        <time>2021-07-20T09:51:26.771Z</time>
      </trkpt>
      <trkpt lat="42.25819230079651" lon="3.075850009918213">
        <ele>15.777534274154771</ele>
        <time>2021-07-20T09:51:27.337Z</time>
      </trkpt>
      <trkpt lat="42.258063554763794" lon="3.075742721557617">
        <ele>16.476705848975705</ele>
        <time>2021-07-20T09:51:27.905Z</time>
      </trkpt>
      <trkpt lat="42.258031368255615" lon="3.075528144836426">
        <ele>17.193823341535694</ele>
        <time>2021-07-20T09:51:28.476Z</time>
      </trkpt>
      <trkpt lat="42.258256673812866" lon="3.0754101276397705">
        <ele>17.846200472574086</ele>
        <time>2021-07-20T09:51:29.051Z</time>
      </trkpt>
      <trkpt lat="42.258299589157104" lon="3.075399398803711">
        <ele>18.424818867159257</ele>
        <time>2021-07-20T09:51:29.627Z</time>
      </trkpt>
      <trkpt lat="42.25847125053406" lon="3.0752813816070557">
        <ele>19.042235611748794</ele>
        <time>2021-07-20T09:51:30.206Z</time>
      </trkpt>
      <trkpt lat="42.25833177566528" lon="3.0747127532958984">
        <ele>19.60358613149743</ele>
        <time>2021-07-20T09:51:30.792Z</time>
      </trkpt>
      <trkpt lat="42.25843906402588" lon="3.074648380279541">
        <ele>20.069110667620794</ele>
        <time>2021-07-20T09:51:31.380Z</time>
      </trkpt>
      <trkpt lat="42.25862145423889" lon="3.074594736099243">
        <ele>20.490316143690364</ele>
        <time>2021-07-20T09:51:31.971Z</time>
      </trkpt>
      <trkpt lat="42.25868582725525" lon="3.074551820755005">
        <ele>20.802956027530463</ele>
        <time>2021-07-20T09:51:32.563Z</time>
      </trkpt>
      <trkpt lat="42.258750200271606" lon="3.0745410919189453">
        <ele>21.050478698844206</ele>
        <time>2021-07-20T09:51:33.156Z</time>
      </trkpt>
      <trkpt lat="42.2587610129267" lon="3.0745410919189453">
        <ele>21.23195898056438</ele>
        <time>2021-07-20T09:51:33.749Z</time>
      </trkpt>
      <trkpt lat="42.258793199434876" lon="3.0745303630828857">
        <ele>21.3463843595692</ele>
        <time>2021-07-20T09:51:34.343Z</time>
      </trkpt>
      <trkpt lat="42.258836114779115" lon="3.074519634246826">
        <ele>21.395650349895686</ele>
        <time>2021-07-20T09:51:34.937Z</time>
      </trkpt>
      <trkpt lat="42.25883603096008" lon="3.074519634246826">
        <ele>21.38243851965739</ele>
        <time>2021-07-20T09:51:35.531Z</time>
      </trkpt>
      <trkpt lat="42.25893259048462" lon="3.0744874477386475">
        <ele>21.306430593969203</ele>
        <time>2021-07-20T09:51:36.127Z</time>
      </trkpt>
      <trkpt lat="42.25912570953369" lon="3.0744659900665283">
        <ele>21.17365990099978</ele>
        <time>2021-07-20T09:51:36.726Z</time>
      </trkpt>
      <trkpt lat="42.259318828582764" lon="3.0744123458862305">
        <ele>20.986668471253253</ele>
        <time>2021-07-20T09:51:37.328Z</time>
      </trkpt>
      <trkpt lat="42.259297370910645" lon="3.074326515197754">
        <ele>20.72736076929739</ele>
        <time>2021-07-20T09:51:37.931Z</time>
      </trkpt>
      <trkpt lat="42.25935101509094" lon="3.0743157863616943">
        <ele>20.432593145012174</ele>
        <time>2021-07-20T09:51:38.535Z</time>
      </trkpt>
      <trkpt lat="42.259565591812134" lon="3.074004650115967">
        <ele>19.909559524326184</ele>
        <time>2021-07-20T09:51:39.144Z</time>
      </trkpt>
      <trkpt lat="42.25962996482849" lon="3.073951005935669">
        <ele>19.503363387468426</ele>
        <time>2021-07-20T09:51:39.754Z</time>
      </trkpt>
      <trkpt lat="42.25972652435303" lon="3.0739080905914307">
        <ele>19.1037535471928</ele>
        <time>2021-07-20T09:51:40.366Z</time>
      </trkpt>
      <trkpt lat="42.25972660817206" lon="3.0739080905914307">
        <ele>18.696581661833502</ele>
        <time>2021-07-20T09:51:40.978Z</time>
      </trkpt>
      <trkpt lat="42.25982308387756" lon="3.073704242706299">
        <ele>18.228190504258812</ele>
        <time>2021-07-20T09:51:41.593Z</time>
      </trkpt>
      <trkpt lat="42.26025232113898" lon="3.073146343231201">
        <ele>17.675172898607087</ele>
        <time>2021-07-20T09:51:42.217Z</time>
      </trkpt>
      <trkpt lat="42.26090669631958" lon="3.072298765182495">
        <ele>17.207861446426737</ele>
        <time>2021-07-20T09:51:42.856Z</time>
      </trkpt>
      <trkpt lat="42.26175435818732" lon="3.071225881576538">
        <ele>16.90708701774721</ele>
        <time>2021-07-20T09:51:43.513Z</time>
      </trkpt>
      <trkpt lat="42.261754274368286" lon="3.071225881576538">
        <ele>16.478266734908907</ele>
        <time>2021-07-20T09:51:44.170Z</time>
      </trkpt>
      <trkpt lat="42.261807918548584" lon="3.0711400508880615">
        <ele>16.06553114882262</ele>
        <time>2021-07-20T09:51:44.829Z</time>
      </trkpt>
      <trkpt lat="42.262076223269105" lon="3.0708396434783936">
        <ele>15.664439046364777</ele>
        <time>2021-07-20T09:51:45.493Z</time>
      </trkpt>
      <trkpt lat="42.26207613945007" lon="3.0708396434783936">
        <ele>15.248426756881146</ele>
        <time>2021-07-20T09:51:46.157Z</time>
      </trkpt>
      <trkpt lat="42.262505292892456" lon="3.070378303527832">
        <ele>14.831821709619794</ele>
        <time>2021-07-20T09:51:46.830Z</time>
      </trkpt>
      <trkpt lat="42.26253756321967" lon="3.070378303527832">
        <ele>14.429465888656157</ele>
        <time>2021-07-20T09:51:47.504Z</time>
      </trkpt>
      <trkpt lat="42.26266630925238" lon="3.0702924728393555">
        <ele>14.040571747459895</ele>
        <time>2021-07-20T09:51:48.180Z</time>
      </trkpt>
      <trkpt lat="42.26266622543335" lon="3.0702924728393555">
        <ele>13.646187762776577</ele>
        <time>2021-07-20T09:51:48.856Z</time>
      </trkpt>
      <trkpt lat="42.26269841194153" lon="3.0701959133148193">
        <ele>13.265021814073586</ele>
        <time>2021-07-20T09:51:49.533Z</time>
      </trkpt>
      <trkpt lat="42.26269841194153" lon="3.0701100826263428">
        <ele>12.885507931136168</ele>
        <time>2021-07-20T09:51:50.211Z</time>
      </trkpt>
      <trkpt lat="42.26284861564636" lon="3.0699706077575684">
        <ele>12.5369791076122</ele>
        <time>2021-07-20T09:51:50.892Z</time>
      </trkpt>
      <trkpt lat="42.263792837038636" lon="3.068908452987671">
        <ele>11.929309484937182</ele>
        <time>2021-07-20T09:51:51.593Z</time>
      </trkpt>
      <trkpt lat="42.26390012539923" lon="3.068779706954956">
        <ele>11.566347365244464</ele>
        <time>2021-07-20T09:51:52.296Z</time>
      </trkpt>
      <trkpt lat="42.2639000415802" lon="3.068779706954956">
        <ele>11.232730270932578</ele>
        <time>2021-07-20T09:51:52.999Z</time>
      </trkpt>
      <trkpt lat="42.26598143577576" lon="3.0662262439727783">
        <ele>10.768486030430047</ele>
        <time>2021-07-20T09:51:53.747Z</time>
      </trkpt>
      <trkpt lat="42.26736545562744" lon="3.0645203590393066">
        <ele>10.353486648291808</ele>
        <time>2021-07-20T09:51:54.525Z</time>
      </trkpt>
      <trkpt lat="42.26920008659363" lon="3.0623745918273926">
        <ele>10.205713681237523</ele>
        <time>2021-07-20T09:51:55.342Z</time>
      </trkpt>
      <trkpt lat="42.270487546920776" lon="3.059542179107666">
        <ele>10.09534804226017</ele>
        <time>2021-07-20T09:51:56.199Z</time>
      </trkpt>
      <trkpt lat="42.27134585380554" lon="3.0574285984039307">
        <ele>9.793295599744749</ele>
        <time>2021-07-20T09:51:57.084Z</time>
      </trkpt>
      <trkpt lat="42.271345937624574" lon="3.0574285984039307">
        <ele>9.615640808913653</ele>
        <time>2021-07-20T09:51:57.969Z</time>
      </trkpt>
      <trkpt lat="42.27189302444458" lon="3.0566024780273438">
        <ele>9.474745156247405</ele>
        <time>2021-07-20T09:51:58.867Z</time>
      </trkpt>
      <trkpt lat="42.27232217788696" lon="3.056023120880127">
        <ele>9.339522632448531</ele>
        <time>2021-07-20T09:51:59.775Z</time>
      </trkpt>
      <trkpt lat="42.27340579032898" lon="3.0549073219299316">
        <ele>9.173369632095902</ele>
        <time>2021-07-20T09:52:00.705Z</time>
      </trkpt>
      <trkpt lat="42.27412462234497" lon="3.053920269012451">
        <ele>9.208707254705828</ele>
        <time>2021-07-20T09:52:01.651Z</time>
      </trkpt>
      <trkpt lat="42.274779081344604" lon="3.05269718170166">
        <ele>9.195783881998107</ele>
        <time>2021-07-20T09:52:02.615Z</time>
      </trkpt>
      <trkpt lat="42.275240421295166" lon="3.05169939994812">
        <ele>9.049946092211764</ele>
        <time>2021-07-20T09:52:03.593Z</time>
      </trkpt>
      <trkpt lat="42.27615237236023" lon="3.049253225326538">
        <ele>9.157646443068973</ele>
        <time>2021-07-20T09:52:04.604Z</time>
      </trkpt>
      <trkpt lat="42.27733254432678" lon="3.046259880065918">
        <ele>9.143658388383695</ele>
        <time>2021-07-20T09:52:05.655Z</time>
      </trkpt>
      <trkpt lat="42.277547121047974" lon="3.045787811279297">
        <ele>9.146725079747185</ele>
        <time>2021-07-20T09:52:06.712Z</time>
      </trkpt>
      <trkpt lat="42.277740240097046" lon="3.0454230308532715">
        <ele>9.15779816502146</ele>
        <time>2021-07-20T09:52:07.775Z</time>
      </trkpt>
      <trkpt lat="42.278480529785156" lon="3.0444252490997314">
        <ele>9.11181821304083</ele>
        <time>2021-07-20T09:52:08.855Z</time>
      </trkpt>
      <trkpt lat="42.27858781814575" lon="3.0443179607391357">
        <ele>9.168008779362323</ele>
        <time>2021-07-20T09:52:09.937Z</time>
      </trkpt>
      <trkpt lat="42.27870583534241" lon="3.044232130050659">
        <ele>9.221335908087847</ele>
        <time>2021-07-20T09:52:11.021Z</time>
      </trkpt>
      <trkpt lat="42.27859854698181" lon="3.044114112854004">
        <ele>9.23655134774849</ele>
        <time>2021-07-20T09:52:12.107Z</time>
      </trkpt>
      <trkpt lat="42.278019273653626" lon="3.043792247772217">
        <ele>9.22771242463514</ele>
        <time>2021-07-20T09:52:13.203Z</time>
      </trkpt>
      <trkpt lat="42.27782607078552" lon="3.0437707901000977">
        <ele>9.258788411266318</ele>
        <time>2021-07-20T09:52:14.302Z</time>
      </trkpt>
      <trkpt lat="42.27771878242493" lon="3.043792247772217">
        <ele>9.29106400100654</ele>
        <time>2021-07-20T09:52:15.403Z</time>
      </trkpt>
      <trkpt lat="42.27760076522827" lon="3.0437815189361572">
        <ele>9.324222657575834</ele>
        <time>2021-07-20T09:52:16.506Z</time>
      </trkpt>
      <trkpt lat="42.277504205703735" lon="3.0437171459198">
        <ele>9.35806939732144</ele>
        <time>2021-07-20T09:52:17.611Z</time>
      </trkpt>
      <trkpt lat="42.277278900146484" lon="3.0434703826904297">
        <ele>9.404491694604083</ele>
        <time>2021-07-20T09:52:18.720Z</time>
      </trkpt>
      <trkpt lat="42.27719306945801" lon="3.043416738510132">
        <ele>9.444813699224298</ele>
        <time>2021-07-20T09:52:19.831Z</time>
      </trkpt>
      <trkpt lat="42.277042865753174" lon="3.043416738510132">
        <ele>9.490466491772063</ele>
        <time>2021-07-20T09:52:20.944Z</time>
      </trkpt>
      <trkpt lat="42.27642059326172" lon="3.043609857559204">
        <ele>9.527492966168086</ele>
        <time>2021-07-20T09:52:22.067Z</time>
      </trkpt>
      <trkpt lat="42.276281118392944" lon="3.043684959411621">
        <ele>9.547538824067862</ele>
        <time>2021-07-20T09:52:23.193Z</time>
      </trkpt>
      <trkpt lat="42.27615237236023" lon="3.043813705444336">
        <ele>9.570714520430252</ele>
        <time>2021-07-20T09:52:24.321Z</time>
      </trkpt>
      <trkpt lat="42.27606654167175" lon="3.0438244342803955">
        <ele>9.602192260222637</ele>
        <time>2021-07-20T09:52:25.451Z</time>
      </trkpt>
      <trkpt lat="42.275991439819336" lon="3.043738603591919">
        <ele>9.638842005486975</ele>
        <time>2021-07-20T09:52:26.582Z</time>
      </trkpt>
      <trkpt lat="42.275776863098145" lon="3.0433201789855957">
        <ele>9.675103245570396</ele>
        <time>2021-07-20T09:52:27.719Z</time>
      </trkpt>
      <trkpt lat="42.27580904960632" lon="3.0432558059692383">
        <ele>9.733652983588808</ele>
        <time>2021-07-20T09:52:28.857Z</time>
      </trkpt>
      <trkpt lat="42.275980710983276" lon="3.0431056022644043">
        <ele>9.828266064534894</ele>
        <time>2021-07-20T09:52:29.998Z</time>
      </trkpt>
      <trkpt lat="42.27618455886841" lon="3.042987585067749">
        <ele>9.931669048959929</ele>
        <time>2021-07-20T09:52:31.143Z</time>
      </trkpt>
      <trkpt lat="42.276774644851685" lon="3.0427193641662598">
        <ele>9.982151967790333</ele>
        <time>2021-07-20T09:52:32.298Z</time>
      </trkpt>
      <trkpt lat="42.2769033908844" lon="3.0426442623138428">
        <ele>10.051119948945871</ele>
        <time>2021-07-20T09:52:33.455Z</time>
      </trkpt>
      <trkpt lat="42.277032136917114" lon="3.042536973953247">
        <ele>10.128193051143299</ele>
        <time>2021-07-20T09:52:34.615Z</time>
      </trkpt>
      <trkpt lat="42.2773003578186" lon="3.0422580242156982">
        <ele>10.23955801581327</ele>
        <time>2021-07-20T09:52:35.780Z</time>
      </trkpt>
      <trkpt lat="42.27789044380188" lon="3.041560649871826">
        <ele>10.392688941748222</ele>
        <time>2021-07-20T09:52:36.958Z</time>
      </trkpt>
      <trkpt lat="42.277997732162476" lon="3.0414533615112305">
        <ele>10.481786297161928</ele>
        <time>2021-07-20T09:52:38.138Z</time>
      </trkpt>
      <trkpt lat="42.27816939353943" lon="3.041335344314575">
        <ele>10.567588953003172</ele>
        <time>2021-07-20T09:52:39.321Z</time>
      </trkpt>
      <trkpt lat="42.2789740562439" lon="3.0408740043640137">
        <ele>10.652183460856694</ele>
        <time>2021-07-20T09:52:40.518Z</time>
      </trkpt>
      <trkpt lat="42.280261516571045" lon="3.039811849594116">
        <ele>10.95111578927882</ele>
        <time>2021-07-20T09:52:41.739Z</time>
      </trkpt>
      <trkpt lat="42.28031516075134" lon="3.0397260189056396">
        <ele>11.088583589259173</ele>
        <time>2021-07-20T09:52:42.961Z</time>
      </trkpt>
      <trkpt lat="42.28033661842346" lon="3.0396294593811035">
        <ele>11.228911266073514</ele>
        <time>2021-07-20T09:52:44.185Z</time>
      </trkpt>
      <trkpt lat="42.27899559773505" lon="3.0355846881866455">
        <ele>11.294530879429214</ele>
        <time>2021-07-20T09:52:45.461Z</time>
      </trkpt>
      <trkpt lat="42.27889895439148" lon="3.0353593826293945">
        <ele>11.439724009564387</ele>
        <time>2021-07-20T09:52:46.740Z</time>
      </trkpt>
      <trkpt lat="42.27859854698181" lon="3.034876585006714">
        <ele>11.6039209428297</ele>
        <time>2021-07-20T09:52:48.027Z</time>
      </trkpt>
      <trkpt lat="42.27683901786804" lon="3.029683828353882">
        <ele>11.763593894048485</ele>
        <time>2021-07-20T09:52:49.382Z</time>
      </trkpt>
      <trkpt lat="42.276517152786255" lon="3.028825521469116">
        <ele>11.890634140499184</ele>
        <time>2021-07-20T09:52:50.748Z</time>
      </trkpt>
      <trkpt lat="42.27616310119629" lon="3.02797794342041">
        <ele>12.008874462797497</ele>
        <time>2021-07-20T09:52:52.125Z</time>
      </trkpt>
      <trkpt lat="42.276045083999634" lon="3.0276453495025635">
        <ele>12.160021693122701</ele>
        <time>2021-07-20T09:52:53.507Z</time>
      </trkpt>
      <trkpt lat="42.275991439819336" lon="3.0273020267486572">
        <ele>12.342688945727142</ele>
        <time>2021-07-20T09:52:54.893Z</time>
      </trkpt>
      <trkpt lat="42.275980710983276" lon="3.027055263519287">
        <ele>12.517509247980374</ele>
        <time>2021-07-20T09:52:56.282Z</time>
      </trkpt>
      <trkpt lat="42.27616310119629" lon="3.019019365310669">
        <ele>12.632532753807435</ele>
        <time>2021-07-20T09:52:57.766Z</time>
      </trkpt>
      <trkpt lat="42.27615237236023" lon="3.018869161605835">
        <ele>12.773332165950553</ele>
        <time>2021-07-20T09:52:59.252Z</time>
      </trkpt>
      <trkpt lat="42.27612018585205" lon="3.0187511444091797">
        <ele>12.914104037737763</ele>
        <time>2021-07-20T09:53:00.740Z</time>
      </trkpt>
      <trkpt lat="42.27605581283569" lon="3.018622398376465">
        <ele>13.055277028203278</ele>
        <time>2021-07-20T09:53:02.230Z</time>
      </trkpt>
      <trkpt lat="42.27591633796692" lon="3.0184078216552734">
        <ele>13.198520656922366</ele>
        <time>2021-07-20T09:53:03.723Z</time>
      </trkpt>
      <trkpt lat="42.27591642178595" lon="3.0184078216552734">
        <ele>13.331236266824082</ele>
        <time>2021-07-20T09:53:05.216Z</time>
      </trkpt>
      <trkpt lat="42.274800539016724" lon="3.016648292541504">
        <ele>13.397089787648826</ele>
        <time>2021-07-20T09:53:06.736Z</time>
      </trkpt>
      <trkpt lat="42.273995876312256" lon="3.0154037475585938">
        <ele>13.687267938167313</ele>
        <time>2021-07-20T09:53:08.276Z</time>
      </trkpt>
      <trkpt lat="42.27335214614868" lon="3.0142879486083984">
        <ele>13.871232616250552</ele>
        <time>2021-07-20T09:53:09.833Z</time>
      </trkpt>
      <trkpt lat="42.27291226387024" lon="3.013429641723633">
        <ele>13.891945919685774</ele>
        <time>2021-07-20T09:53:11.402Z</time>
      </trkpt>
      <trkpt lat="42.27291234768927" lon="3.013429641723633">
        <ele>14.003242591166517</ele>
        <time>2021-07-20T09:53:12.971Z</time>
      </trkpt>
      <trkpt lat="42.27289080619812" lon="3.0133867263793945">
        <ele>14.107941851935392</ele>
        <time>2021-07-20T09:53:14.541Z</time>
      </trkpt>
      <trkpt lat="42.272804975509644" lon="3.0129897594451904">
        <ele>14.208876282493708</ele>
        <time>2021-07-20T09:53:16.116Z</time>
      </trkpt>
      <trkpt lat="42.272740602493286" lon="3.0125606060028076">
        <ele>14.288625325453308</ele>
        <time>2021-07-20T09:53:17.696Z</time>
      </trkpt>
      <trkpt lat="42.27267622947693" lon="3.0120456218719482">
        <ele>14.416805771751593</ele>
        <time>2021-07-20T09:53:19.282Z</time>
      </trkpt>
      <trkpt lat="42.27267622947693" lon="3.0117452144622803">
        <ele>14.508337013364802</ele>
        <time>2021-07-20T09:53:20.872Z</time>
      </trkpt>
      <trkpt lat="42.272804975509644" lon="3.0111443996429443">
        <ele>14.573428722197555</ele>
        <time>2021-07-20T09:53:22.469Z</time>
      </trkpt>
      <trkpt lat="42.27289080619812" lon="3.010876178741455">
        <ele>14.639338102021494</ele>
        <time>2021-07-20T09:53:24.070Z</time>
      </trkpt>
      <trkpt lat="42.27293372154236" lon="3.010650873184204">
        <ele>14.706419130365314</ele>
        <time>2021-07-20T09:53:25.673Z</time>
      </trkpt>
      <trkpt lat="42.27296590805054" lon="3.0104148387908936">
        <ele>14.79296043065257</ele>
        <time>2021-07-20T09:53:27.279Z</time>
      </trkpt>
      <trkpt lat="42.27295517921448" lon="3.010232448577881">
        <ele>14.88054571170996</ele>
        <time>2021-07-20T09:53:28.887Z</time>
      </trkpt>
      <trkpt lat="42.27271914482117" lon="3.0096638202667236">
        <ele>14.959185173486501</ele>
        <time>2021-07-20T09:53:30.503Z</time>
      </trkpt>
      <trkpt lat="42.2724187374115" lon="3.0090415477752686">
        <ele>15.014218163315284</ele>
        <time>2021-07-20T09:53:32.128Z</time>
      </trkpt>
      <trkpt lat="42.27216124534607" lon="3.0083978176116943">
        <ele>15.064340288551602</ele>
        <time>2021-07-20T09:53:33.762Z</time>
      </trkpt>
      <trkpt lat="42.27206468582153" lon="3.008054494857788">
        <ele>15.109612540823203</ele>
        <time>2021-07-20T09:53:35.400Z</time>
      </trkpt>
      <trkpt lat="42.27192521095276" lon="3.0073142051696777">
        <ele>15.20517214417631</ele>
        <time>2021-07-20T09:53:37.047Z</time>
      </trkpt>
      <trkpt lat="42.27171063423157" lon="3.006337881088257">
        <ele>15.2755923161245</ele>
        <time>2021-07-20T09:53:38.706Z</time>
      </trkpt>
      <trkpt lat="42.27164626121521" lon="3.005887269973755">
        <ele>15.319213454140105</ele>
        <time>2021-07-20T09:53:40.371Z</time>
      </trkpt>
      <trkpt lat="42.27164626121521" lon="3.005383014678955">
        <ele>15.312494590298236</ele>
        <time>2021-07-20T09:53:42.042Z</time>
      </trkpt>
      <trkpt lat="42.27181792259216" lon="3.00400972366333">
        <ele>15.23569000508666</ele>
        <time>2021-07-20T09:53:43.729Z</time>
      </trkpt>
      <trkpt lat="42.27185010910034" lon="3.0036234855651855">
        <ele>15.230906146801425</ele>
        <time>2021-07-20T09:53:45.421Z</time>
      </trkpt>
      <trkpt lat="42.2718608379364" lon="3.0029797554016113">
        <ele>15.292663623573407</ele>
        <time>2021-07-20T09:53:47.120Z</time>
      </trkpt>
      <trkpt lat="42.27185010910034" lon="3.002164363861084">
        <ele>15.297237968584827</ele>
        <time>2021-07-20T09:53:48.829Z</time>
      </trkpt>
      <trkpt lat="42.271989583969116" lon="2.9999756813049316">
        <ele>15.34627000136162</ele>
        <time>2021-07-20T09:53:50.564Z</time>
      </trkpt>
      <trkpt lat="42.271989583969116" lon="2.999267578125">
        <ele>15.370545293131505</ele>
        <time>2021-07-20T09:53:52.308Z</time>
      </trkpt>
      <trkpt lat="42.27195739746094" lon="2.998570203781128">
        <ele>15.397182475953873</ele>
        <time>2021-07-20T09:53:54.060Z</time>
      </trkpt>
      <trkpt lat="42.27188229560852" lon="2.9977118968963623">
        <ele>15.471482350256</ele>
        <time>2021-07-20T09:53:55.822Z</time>
      </trkpt>
      <trkpt lat="42.27185010910034" lon="2.9974758625030518">
        <ele>15.511913158483054</ele>
        <time>2021-07-20T09:53:57.587Z</time>
      </trkpt>
      <trkpt lat="42.271785736083984" lon="2.9972612857818604">
        <ele>15.547021362720688</ele>
        <time>2021-07-20T09:53:59.355Z</time>
      </trkpt>
      <trkpt lat="42.271785819903016" lon="2.9972612857818604">
        <ele>15.585405237416671</ele>
        <time>2021-07-20T09:54:01.123Z</time>
      </trkpt>
      <trkpt lat="42.271270751953125" lon="2.995727062225342">
        <ele>15.585253139602095</ele>
        <time>2021-07-20T09:54:02.911Z</time>
      </trkpt>
      <trkpt lat="42.27127083577216" lon="2.9957163333892822">
        <ele>15.63129831695407</ele>
        <time>2021-07-20T09:54:04.699Z</time>
      </trkpt>
      <trkpt lat="42.27117419242859" lon="2.9954588413238525">
        <ele>15.673125706755972</ele>
        <time>2021-07-20T09:54:06.490Z</time>
      </trkpt>
      <trkpt lat="42.2709596157074" lon="2.9950618743896484">
        <ele>15.730540339299335</ele>
        <time>2021-07-20T09:54:08.287Z</time>
      </trkpt>
      <trkpt lat="42.27087378501892" lon="2.9948794841766357">
        <ele>15.79358352186996</ele>
        <time>2021-07-20T09:54:10.087Z</time>
      </trkpt>
      <trkpt lat="42.27080941200256" lon="2.9947292804718018">
        <ele>15.862144529356874</ele>
        <time>2021-07-20T09:54:11.889Z</time>
      </trkpt>
      <trkpt lat="42.27049835957587" lon="2.9938817024230957">
        <ele>15.982650990504233</ele>
        <time>2021-07-20T09:54:13.702Z</time>
      </trkpt>
      <trkpt lat="42.27035888470709" lon="2.99352765083313">
        <ele>16.105731274114092</ele>
        <time>2021-07-20T09:54:15.520Z</time>
      </trkpt>
      <trkpt lat="42.27042325772345" lon="2.9927444458007812">
        <ele>16.205791378280583</ele>
        <time>2021-07-20T09:54:17.347Z</time>
      </trkpt>
      <trkpt lat="42.27043390274048" lon="2.9926371574401855">
        <ele>16.281056144496578</ele>
        <time>2021-07-20T09:54:19.175Z</time>
      </trkpt>
      <trkpt lat="42.270519733428955" lon="2.992154359817505">
        <ele>16.316941928680738</ele>
        <time>2021-07-20T09:54:21.009Z</time>
      </trkpt>
      <trkpt lat="42.27041244506836" lon="2.991671562194824">
        <ele>16.399512119422255</ele>
        <time>2021-07-20T09:54:22.849Z</time>
      </trkpt>
      <trkpt lat="42.27041252888739" lon="2.991671562194824">
        <ele>16.48894268251045</ele>
        <time>2021-07-20T09:54:24.689Z</time>
      </trkpt>
      <trkpt lat="42.27039098739624" lon="2.9915964603424072">
        <ele>16.575104834529167</ele>
        <time>2021-07-20T09:54:26.530Z</time>
      </trkpt>
      <trkpt lat="42.27039107121527" lon="2.9915964603424072">
        <ele>16.66700900374957</ele>
        <time>2021-07-20T09:54:28.371Z</time>
      </trkpt>
      <trkpt lat="42.27033734321594" lon="2.991328239440918">
        <ele>16.742120906183033</ele>
        <time>2021-07-20T09:54:30.216Z</time>
      </trkpt>
      <trkpt lat="42.27023005485535" lon="2.990502119064331">
        <ele>16.89417130017177</ele>
        <time>2021-07-20T09:54:32.071Z</time>
      </trkpt>
      <trkpt lat="42.27011203765869" lon="2.9901158809661865">
        <ele>17.003156288998483</ele>
        <time>2021-07-20T09:54:33.931Z</time>
      </trkpt>
      <trkpt lat="42.269736528396606" lon="2.989128828048706">
        <ele>17.122012175961565</ele>
        <time>2021-07-20T09:54:35.804Z</time>
      </trkpt>
      <trkpt lat="42.269543409347534" lon="2.9885494709014893">
        <ele>17.20550710722849</ele>
        <time>2021-07-20T09:54:37.684Z</time>
      </trkpt>
      <trkpt lat="42.269543493166566" lon="2.9885494709014893">
        <ele>17.280579448062007</ele>
        <time>2021-07-20T09:54:39.564Z</time>
      </trkpt>
      <trkpt lat="42.26925381459296" lon="2.9877448081970215">
        <ele>17.401255223659348</ele>
        <time>2021-07-20T09:54:41.455Z</time>
      </trkpt>
      <trkpt lat="42.26921081542969" lon="2.987605333328247">
        <ele>17.469412129517977</ele>
        <time>2021-07-20T09:54:43.348Z</time>
      </trkpt>
      <trkpt lat="42.26921089924872" lon="2.987605333328247">
        <ele>17.521132916739898</ele>
        <time>2021-07-20T09:54:45.241Z</time>
      </trkpt>
      <trkpt lat="42.26921081542969" lon="2.9874980449676514">
        <ele>17.548431966200425</ele>
        <time>2021-07-20T09:54:47.135Z</time>
      </trkpt>
      <trkpt lat="42.26923227310181" lon="2.987380027770996">
        <ele>17.558251813344896</ele>
        <time>2021-07-20T09:54:49.030Z</time>
      </trkpt>
      <trkpt lat="42.269285917282104" lon="2.987208366394043">
        <ele>17.546487740603645</ele>
        <time>2021-07-20T09:54:50.928Z</time>
      </trkpt>
      <trkpt lat="42.269350374117494" lon="2.987058162689209">
        <ele>17.531341626310017</ele>
        <time>2021-07-20T09:54:52.828Z</time>
      </trkpt>
      <trkpt lat="42.26938256062567" lon="2.986929416656494">
        <ele>17.52409157792304</ele>
        <time>2021-07-20T09:54:54.729Z</time>
      </trkpt>
      <trkpt lat="42.26939328946173" lon="2.9867470264434814">
        <ele>17.51330921320711</ele>
        <time>2021-07-20T09:54:56.632Z</time>
      </trkpt>
      <trkpt lat="42.26938256062567" lon="2.9863929748535156">
        <ele>17.591029412763966</ele>
        <time>2021-07-20T09:54:58.540Z</time>
      </trkpt>
      <trkpt lat="42.269328916445374" lon="2.985234260559082">
        <ele>17.72489927870854</ele>
        <time>2021-07-20T09:55:00.461Z</time>
      </trkpt>
      <trkpt lat="42.269264459609985" lon="2.984107732772827">
        <ele>17.634416646471557</ele>
        <time>2021-07-20T09:55:02.396Z</time>
      </trkpt>
      <trkpt lat="42.26926454342902" lon="2.984107732772827">
        <ele>17.631061028240083</ele>
        <time>2021-07-20T09:55:04.331Z</time>
      </trkpt>
      <trkpt lat="42.26920008659363" lon="2.9828739166259766">
        <ele>17.657496710396167</ele>
        <time>2021-07-20T09:55:06.281Z</time>
      </trkpt>
      <trkpt lat="42.26918935775757" lon="2.982659339904785">
        <ele>17.674789885003662</ele>
        <time>2021-07-20T09:55:08.233Z</time>
      </trkpt>
      <trkpt lat="42.26914652623236" lon="2.9813826084136963">
        <ele>17.669635865514216</ele>
        <time>2021-07-20T09:55:10.200Z</time>
      </trkpt>
      <trkpt lat="42.26923227310181" lon="2.980341911315918">
        <ele>17.65030434014919</ele>
        <time>2021-07-20T09:55:12.180Z</time>
      </trkpt>
      <trkpt lat="42.26923235692084" lon="2.980341911315918">
        <ele>17.634261875372808</ele>
        <time>2021-07-20T09:55:14.160Z</time>
      </trkpt>
      <trkpt lat="42.269286001101136" lon="2.9796016216278076">
        <ele>17.635181732380396</ele>
        <time>2021-07-20T09:55:16.149Z</time>
      </trkpt>
      <trkpt lat="42.269296646118164" lon="2.979397773742676">
        <ele>17.620834622654506</ele>
        <time>2021-07-20T09:55:18.140Z</time>
      </trkpt>
      <trkpt lat="42.269296729937196" lon="2.979397773742676">
        <ele>17.61041713924334</ele>
        <time>2021-07-20T09:55:20.131Z</time>
      </trkpt>
      <trkpt lat="42.26937174797058" lon="2.9782497882843018">
        <ele>17.575445782702367</ele>
        <time>2021-07-20T09:55:22.136Z</time>
      </trkpt>
      <trkpt lat="42.26937183178961" lon="2.9782497882843018">
        <ele>17.578730118065295</ele>
        <time>2021-07-20T09:55:24.141Z</time>
      </trkpt>
      <trkpt lat="42.26946830749512" lon="2.977970838546753">
        <ele>17.598014049599115</ele>
        <time>2021-07-20T09:55:26.149Z</time>
      </trkpt>
      <trkpt lat="42.269532764330506" lon="2.9777348041534424">
        <ele>17.631511857348016</ele>
        <time>2021-07-20T09:55:28.160Z</time>
      </trkpt>
      <trkpt lat="42.269564950838685" lon="2.9776060581207275">
        <ele>17.677542508293413</ele>
        <time>2021-07-20T09:55:30.173Z</time>
      </trkpt>
      <trkpt lat="42.26960778236389" lon="2.9774129390716553">
        <ele>17.733417845290482</ele>
        <time>2021-07-20T09:55:32.188Z</time>
      </trkpt>
      <trkpt lat="42.26970434188843" lon="2.9774129390716553">
        <ele>17.801042406942578</ele>
        <time>2021-07-20T09:55:34.205Z</time>
      </trkpt>
      <trkpt lat="42.269768714904785" lon="2.977348566055298">
        <ele>17.89563164230141</ele>
        <time>2021-07-20T09:55:36.223Z</time>
      </trkpt>
      <trkpt lat="42.269811714068055" lon="2.9772520065307617">
        <ele>18.018302825287137</ele>
        <time>2021-07-20T09:55:38.243Z</time>
      </trkpt>
      <trkpt lat="42.26981163024902" lon="2.9772520065307617">
        <ele>18.174087553960845</ele>
        <time>2021-07-20T09:55:40.263Z</time>
      </trkpt>
      <trkpt lat="42.26981163024902" lon="2.9771125316619873">
        <ele>18.359476519167174</ele>
        <time>2021-07-20T09:55:42.284Z</time>
      </trkpt>
      <trkpt lat="42.269757986068726" lon="2.977015972137451">
        <ele>18.582961346726783</ele>
        <time>2021-07-20T09:55:44.307Z</time>
      </trkpt>
      <trkpt lat="42.26969361305237" lon="2.9769623279571533">
        <ele>18.84035154430798</ele>
        <time>2021-07-20T09:55:46.331Z</time>
      </trkpt>
      <trkpt lat="42.26967215538025" lon="2.976694107055664">
        <ele>19.125701816174598</ele>
        <time>2021-07-20T09:55:48.358Z</time>
      </trkpt>
      <trkpt lat="42.26970434188843" lon="2.9764795303344727">
        <ele>19.439326787071984</ele>
        <time>2021-07-20T09:55:50.388Z</time>
      </trkpt>
      <trkpt lat="42.26971515454352" lon="2.9761791229248047">
        <ele>19.828091457038582</ele>
        <time>2021-07-20T09:55:52.421Z</time>
      </trkpt>
      <trkpt lat="42.2696400526911" lon="2.9748916625976562">
        <ele>20.257710947686355</ele>
        <time>2021-07-20T09:55:54.470Z</time>
      </trkpt>
      <trkpt lat="42.26963996887207" lon="2.9748916625976562">
        <ele>20.673500372520948</ele>
        <time>2021-07-20T09:55:56.519Z</time>
      </trkpt>
      <trkpt lat="42.26952203549445" lon="2.9733145236968994">
        <ele>21.28528273556985</ele>
        <time>2021-07-20T09:55:58.586Z</time>
      </trkpt>
      <trkpt lat="42.269521951675415" lon="2.9733145236968994">
        <ele>21.758889696636746</ele>
        <time>2021-07-20T09:56:00.653Z</time>
      </trkpt>
      <trkpt lat="42.269500494003296" lon="2.9729175567626953">
        <ele>22.32719092872803</ele>
        <time>2021-07-20T09:56:02.725Z</time>
      </trkpt>
      <trkpt lat="42.269500494003296" lon="2.9722845554351807">
        <ele>22.86809400711705</ele>
        <time>2021-07-20T09:56:04.805Z</time>
      </trkpt>
      <trkpt lat="42.26942539215088" lon="2.971748113632202">
        <ele>23.441482036947445</ele>
        <time>2021-07-20T09:56:06.891Z</time>
      </trkpt>
      <trkpt lat="42.269307458773255" lon="2.971082925796509">
        <ele>24.035520610237075</ele>
        <time>2021-07-20T09:56:08.985Z</time>
      </trkpt>
      <trkpt lat="42.269296729937196" lon="2.97105073928833">
        <ele>24.62162375591097</ele>
        <time>2021-07-20T09:56:11.080Z</time>
      </trkpt>
      <trkpt lat="42.26926454342902" lon="2.970954179763794">
        <ele>25.233301073310344</ele>
        <time>2021-07-20T09:56:13.176Z</time>
      </trkpt>
      <trkpt lat="42.269243001937866" lon="2.9707610607147217">
        <ele>25.855930834163303</ele>
        <time>2021-07-20T09:56:15.274Z</time>
      </trkpt>
      <trkpt lat="42.269285917282104" lon="2.9705893993377686">
        <ele>26.47913016141682</ele>
        <time>2021-07-20T09:56:17.374Z</time>
      </trkpt>
      <trkpt lat="42.26921081542969" lon="2.9704713821411133">
        <ele>27.139545236943654</ele>
        <time>2021-07-20T09:56:19.476Z</time>
      </trkpt>
      <trkpt lat="42.26896413601935" lon="2.970203161239624">
        <ele>27.81492221924009</ele>
        <time>2021-07-20T09:56:21.583Z</time>
      </trkpt>
      <trkpt lat="42.26858854293823" lon="2.969881296157837">
        <ele>28.524267710844995</ele>
        <time>2021-07-20T09:56:23.697Z</time>
      </trkpt>
      <trkpt lat="42.268545711413026" lon="2.9697954654693604">
        <ele>29.22262063187977</ele>
        <time>2021-07-20T09:56:25.813Z</time>
      </trkpt>
      <trkpt lat="42.268545627593994" lon="2.9697954654693604">
        <ele>29.91283731602488</ele>
        <time>2021-07-20T09:56:27.929Z</time>
      </trkpt>
      <trkpt lat="42.26849206723273" lon="2.969505786895752">
        <ele>30.664296198834233</ele>
        <time>2021-07-20T09:56:30.048Z</time>
      </trkpt>
      <trkpt lat="42.26822384633124" lon="2.9680895805358887">
        <ele>31.576394692062625</ele>
        <time>2021-07-20T09:56:32.185Z</time>
      </trkpt>
      <trkpt lat="42.268052184954286" lon="2.9672205448150635">
        <ele>32.330563158005226</ele>
        <time>2021-07-20T09:56:34.332Z</time>
      </trkpt>
      <trkpt lat="42.268052101135254" lon="2.9672205448150635">
        <ele>33.02211406635548</ele>
        <time>2021-07-20T09:56:36.479Z</time>
      </trkpt>
      <trkpt lat="42.26795562542975" lon="2.9666733741760254">
        <ele>33.73493277414058</ele>
        <time>2021-07-20T09:56:38.633Z</time>
      </trkpt>
      <trkpt lat="42.26788052357733" lon="2.966287136077881">
        <ele>34.45517658494356</ele>
        <time>2021-07-20T09:56:40.792Z</time>
      </trkpt>
      <trkpt lat="42.267783964052796" lon="2.9658257961273193">
        <ele>35.17785613708295</ele>
        <time>2021-07-20T09:56:42.956Z</time>
      </trkpt>
      <trkpt lat="42.26769804954529" lon="2.9652786254882812">
        <ele>35.812077385095755</ele>
        <time>2021-07-20T09:56:45.127Z</time>
      </trkpt>
      <trkpt lat="42.2674834728241" lon="2.964581251144409">
        <ele>36.4404393667069</ele>
        <time>2021-07-20T09:56:47.307Z</time>
      </trkpt>
      <trkpt lat="42.26735481061041" lon="2.9641199111938477">
        <ele>37.0613822166853</ele>
        <time>2021-07-20T09:56:49.493Z</time>
      </trkpt>
      <trkpt lat="42.26735472679138" lon="2.9641199111938477">
        <ele>37.66434674289353</ele>
        <time>2021-07-20T09:56:51.679Z</time>
      </trkpt>
      <trkpt lat="42.267301166430116" lon="2.963958978652954">
        <ele>38.275339526952706</ele>
        <time>2021-07-20T09:56:53.867Z</time>
      </trkpt>
      <trkpt lat="42.26725825108588" lon="2.963840961456299">
        <ele>38.863801406405514</ele>
        <time>2021-07-20T09:56:56.057Z</time>
      </trkpt>
      <trkpt lat="42.26723670959473" lon="2.963765859603882">
        <ele>39.428412514351464</ele>
        <time>2021-07-20T09:56:58.247Z</time>
      </trkpt>
      <trkpt lat="42.26715096272528" lon="2.963486909866333">
        <ele>40.00524125748793</ele>
        <time>2021-07-20T09:57:00.441Z</time>
      </trkpt>
      <trkpt lat="42.267075860872865" lon="2.963283061981201">
        <ele>40.561088511804385</ele>
        <time>2021-07-20T09:57:02.638Z</time>
      </trkpt>
      <trkpt lat="42.26673245429993" lon="2.962510585784912">
        <ele>41.21657743518183</ele>
        <time>2021-07-20T09:57:04.845Z</time>
      </trkpt>
      <trkpt lat="42.26663589477539" lon="2.9621458053588867">
        <ele>41.667586242075416</ele>
        <time>2021-07-20T09:57:07.057Z</time>
      </trkpt>
      <trkpt lat="42.26662524975836" lon="2.9620707035064697">
        <ele>42.1138234113532</ele>
        <time>2021-07-20T09:57:09.270Z</time>
      </trkpt>
      <trkpt lat="42.26662516593933" lon="2.9620707035064697">
        <ele>42.541496052230045</ele>
        <time>2021-07-20T09:57:11.483Z</time>
      </trkpt>
      <trkpt lat="42.266560876742005" lon="2.9618024826049805">
        <ele>42.92871303883615</ele>
        <time>2021-07-20T09:57:13.699Z</time>
      </trkpt>
      <trkpt lat="42.266550147905946" lon="2.9617059230804443">
        <ele>43.313076379797764</ele>
        <time>2021-07-20T09:57:15.916Z</time>
      </trkpt>
      <trkpt lat="42.266539419069886" lon="2.9616737365722656">
        <ele>43.67663686449389</ele>
        <time>2021-07-20T09:57:18.134Z</time>
      </trkpt>
      <trkpt lat="42.26649650372565" lon="2.9610514640808105">
        <ele>44.12864224009546</ele>
        <time>2021-07-20T09:57:20.359Z</time>
      </trkpt>
      <trkpt lat="42.26643204689026" lon="2.9603111743927">
        <ele>44.55190474924882</ele>
        <time>2021-07-20T09:57:22.593Z</time>
      </trkpt>
      <trkpt lat="42.26639986038208" lon="2.9601287841796875">
        <ele>44.857770754910376</ele>
        <time>2021-07-20T09:57:24.829Z</time>
      </trkpt>
      <trkpt lat="42.26649650372565" lon="2.960042953491211">
        <ele>45.109402524985555</ele>
        <time>2021-07-20T09:57:27.067Z</time>
      </trkpt>
      <trkpt lat="42.26667889393866" lon="2.9598605632781982">
        <ele>45.35649002393196</ele>
        <time>2021-07-20T09:57:29.309Z</time>
      </trkpt>
      <trkpt lat="42.26667881011963" lon="2.9598605632781982">
        <ele>45.557512478749345</ele>
        <time>2021-07-20T09:57:31.551Z</time>
      </trkpt>
      <trkpt lat="42.266839826479554" lon="2.9596781730651855">
        <ele>45.78702416312872</ele>
        <time>2021-07-20T09:57:33.796Z</time>
      </trkpt>
      <trkpt lat="42.26693630218506" lon="2.95957088470459">
        <ele>45.97297009216244</ele>
        <time>2021-07-20T09:57:36.043Z</time>
      </trkpt>
      <trkpt lat="42.26688265800476" lon="2.9592597484588623">
        <ele>46.11360777499003</ele>
        <time>2021-07-20T09:57:38.294Z</time>
      </trkpt>
      <trkpt lat="42.266743183135986" lon="2.9581868648529053">
        <ele>46.21870896611692</ele>
        <time>2021-07-20T09:57:40.558Z</time>
      </trkpt>
      <trkpt lat="42.26673253811896" lon="2.958090305328369">
        <ele>46.31845599203672</ele>
        <time>2021-07-20T09:57:42.823Z</time>
      </trkpt>
      <trkpt lat="42.26665743626654" lon="2.9581117630004883">
        <ele>46.38084287807561</ele>
        <time>2021-07-20T09:57:45.089Z</time>
      </trkpt>
      <trkpt lat="42.266314113512635" lon="2.958143949508667">
        <ele>46.4061482569526</ele>
        <time>2021-07-20T09:57:47.361Z</time>
      </trkpt>
      <trkpt lat="42.266056621447206" lon="2.9581761360168457">
        <ele>46.487730982579386</ele>
        <time>2021-07-20T09:57:49.637Z</time>
      </trkpt>
      <trkpt lat="42.26593852043152" lon="2.9581761360168457">
        <ele>46.58079060262057</ele>
        <time>2021-07-20T09:57:51.915Z</time>
      </trkpt>
      <trkpt lat="42.26587414741516" lon="2.958090305328369">
        <ele>46.677685854686715</ele>
        <time>2021-07-20T09:57:54.194Z</time>
      </trkpt>
      <trkpt lat="42.26583123207092" lon="2.9579615592956543">
        <ele>46.78620432713812</ele>
        <time>2021-07-20T09:57:56.475Z</time>
      </trkpt>
      <trkpt lat="42.26584196090698" lon="2.95782208442688">
        <ele>46.91650746801268</ele>
        <time>2021-07-20T09:57:58.758Z</time>
      </trkpt>
      <trkpt lat="42.26583123207092" lon="2.9577255249023438">
        <ele>47.07412430890979</ele>
        <time>2021-07-20T09:58:01.042Z</time>
      </trkpt>
      <trkpt lat="42.2657669428736" lon="2.957618236541748">
        <ele>47.261762845032806</ele>
        <time>2021-07-20T09:58:03.327Z</time>
      </trkpt>
      <trkpt lat="42.26570256985724" lon="2.9575753211975098">
        <ele>47.497615293738725</ele>
        <time>2021-07-20T09:58:05.614Z</time>
      </trkpt>
      <trkpt lat="42.26563811302185" lon="2.9575753211975098">
        <ele>47.76751915544391</ele>
        <time>2021-07-20T09:58:07.902Z</time>
      </trkpt>
      <trkpt lat="42.265541553497314" lon="2.9575002193450928">
        <ele>48.09359371712997</ele>
        <time>2021-07-20T09:58:10.191Z</time>
      </trkpt>
      <trkpt lat="42.265509366989136" lon="2.957392930984497">
        <ele>48.43934971890867</ele>
        <time>2021-07-20T09:58:12.482Z</time>
      </trkpt>
      <trkpt lat="42.26545572280884" lon="2.9571783542633057">
        <ele>48.832571052464516</ele>
        <time>2021-07-20T09:58:14.776Z</time>
      </trkpt>
      <trkpt lat="42.265294874086976" lon="2.9567384719848633">
        <ele>49.29137033264293</ele>
        <time>2021-07-20T09:58:17.075Z</time>
      </trkpt>
      <trkpt lat="42.265262603759766" lon="2.9566526412963867">
        <ele>49.68512368112045</ele>
        <time>2021-07-20T09:58:19.375Z</time>
      </trkpt>
      <trkpt lat="42.2652626875788" lon="2.9566526412963867">
        <ele>50.081203533285304</ele>
        <time>2021-07-20T09:58:21.675Z</time>
      </trkpt>
      <trkpt lat="42.26466178894043" lon="2.955193519592285">
        <ele>50.67847594438619</ele>
        <time>2021-07-20T09:58:23.995Z</time>
      </trkpt>
      <trkpt lat="42.26410388946533" lon="2.9538416862487793">
        <ele>51.139815231275634</ele>
        <time>2021-07-20T09:58:26.334Z</time>
      </trkpt>
      <trkpt lat="42.264007329940796" lon="2.9536378383636475">
        <ele>51.51499012967888</ele>
        <time>2021-07-20T09:58:28.676Z</time>
      </trkpt>
      <trkpt lat="42.26387858390808" lon="2.9534554481506348">
        <ele>51.916787661429076</ele>
        <time>2021-07-20T09:58:31.021Z</time>
      </trkpt>
      <trkpt lat="42.26364254951477" lon="2.953197956085205">
        <ele>52.42732573396724</ele>
        <time>2021-07-20T09:58:33.370Z</time>
      </trkpt>
      <trkpt lat="42.2636426333338" lon="2.953197956085205">
        <ele>52.8513369436222</ele>
        <time>2021-07-20T09:58:35.719Z</time>
      </trkpt>
      <trkpt lat="42.26353534497321" lon="2.9530692100524902">
        <ele>53.31871163732279</ele>
        <time>2021-07-20T09:58:38.071Z</time>
      </trkpt>
      <trkpt lat="42.263074005022645" lon="2.952597141265869">
        <ele>53.866932822609876</ele>
        <time>2021-07-20T09:58:40.432Z</time>
      </trkpt>
      <trkpt lat="42.26260185241699" lon="2.952125072479248">
        <ele>54.27354177831784</ele>
        <time>2021-07-20T09:58:42.802Z</time>
      </trkpt>
      <trkpt lat="42.262601936236024" lon="2.952125072479248">
        <ele>54.667366016421894</ele>
        <time>2021-07-20T09:58:45.172Z</time>
      </trkpt>
      <trkpt lat="42.262591207399964" lon="2.952103614807129">
        <ele>55.04996235579963</ele>
        <time>2021-07-20T09:58:47.543Z</time>
      </trkpt>
      <trkpt lat="42.26215132512152" lon="2.951653003692627">
        <ele>55.36756840287294</ele>
        <time>2021-07-20T09:58:49.923Z</time>
      </trkpt>
      <trkpt lat="42.26188310422003" lon="2.9513847827911377">
        <ele>55.73526719250564</ele>
        <time>2021-07-20T09:58:52.308Z</time>
      </trkpt>
      <trkpt lat="42.26168998517096" lon="2.951202392578125">
        <ele>56.09601573125084</ele>
        <time>2021-07-20T09:58:54.697Z</time>
      </trkpt>
      <trkpt lat="42.26159334182739" lon="2.951127290725708">
        <ele>56.44940587424569</ele>
        <time>2021-07-20T09:58:57.087Z</time>
      </trkpt>
      <trkpt lat="42.26152905263007" lon="2.951052188873291">
        <ele>56.80301884290592</ele>
        <time>2021-07-20T09:58:59.479Z</time>
      </trkpt>
      <trkpt lat="42.26142168045044" lon="2.9509449005126953">
        <ele>57.15244168896602</ele>
        <time>2021-07-20T09:59:01.873Z</time>
      </trkpt>
      <trkpt lat="42.26142168045044" lon="2.9509127140045166">
        <ele>57.51452098798143</ele>
        <time>2021-07-20T09:59:04.267Z</time>
      </trkpt>
      <trkpt lat="42.26138949394226" lon="2.950848340988159">
        <ele>57.88546372303564</ele>
        <time>2021-07-20T09:59:06.662Z</time>
      </trkpt>
      <trkpt lat="42.261335933580995" lon="2.950805425643921">
        <ele>58.25189963005071</ele>
        <time>2021-07-20T09:59:09.058Z</time>
      </trkpt>
      <trkpt lat="42.2613251209259" lon="2.950805425643921">
        <ele>58.62105346143755</ele>
        <time>2021-07-20T09:59:11.454Z</time>
      </trkpt>
      <trkpt lat="42.26112127304077" lon="2.9505908489227295">
        <ele>59.01404507587952</ele>
        <time>2021-07-20T09:59:13.855Z</time>
      </trkpt>
      <trkpt lat="42.261067628860474" lon="2.950558662414551">
        <ele>59.395495638813415</ele>
        <time>2021-07-20T09:59:16.256Z</time>
      </trkpt>
      <trkpt lat="42.26102479733527" lon="2.9505157470703125">
        <ele>59.78761949323098</ele>
        <time>2021-07-20T09:59:18.658Z</time>
      </trkpt>
      <trkpt lat="42.26098188199103" lon="2.950472831726074">
        <ele>60.184787116077615</ele>
        <time>2021-07-20T09:59:21.061Z</time>
      </trkpt>
      <trkpt lat="42.260574186220765" lon="2.9500436782836914">
        <ele>60.63006348245956</ele>
        <time>2021-07-20T09:59:23.472Z</time>
      </trkpt>
      <trkpt lat="42.26050981320441" lon="2.9499900341033936">
        <ele>61.0380380678254</ele>
        <time>2021-07-20T09:59:25.885Z</time>
      </trkpt>
      <trkpt lat="42.26019867695868" lon="2.949657440185547">
        <ele>61.50153953868106</ele>
        <time>2021-07-20T09:59:28.304Z</time>
      </trkpt>
      <trkpt lat="42.260080659762025" lon="2.9495394229888916">
        <ele>61.91603080975738</ele>
        <time>2021-07-20T09:59:30.725Z</time>
      </trkpt>
      <trkpt lat="42.260016202926636" lon="2.949475049972534">
        <ele>62.311116795519034</ele>
        <time>2021-07-20T09:59:33.148Z</time>
      </trkpt>
      <trkpt lat="42.26001628674567" lon="2.949475049972534">
        <ele>62.68089255729795</ele>
        <time>2021-07-20T09:59:35.571Z</time>
      </trkpt>
      <trkpt lat="42.259576404467225" lon="2.9490244388580322">
        <ele>63.14170857033352</ele>
        <time>2021-07-20T09:59:38.003Z</time>
      </trkpt>
      <trkpt lat="42.259329641237855" lon="2.9487669467926025">
        <ele>63.52047532552746</ele>
        <time>2021-07-20T09:59:40.440Z</time>
      </trkpt>
      <trkpt lat="42.259093606844544" lon="2.9485201835632324">
        <ele>63.87151287507831</ele>
        <time>2021-07-20T09:59:42.881Z</time>
      </trkpt>
      <trkpt lat="42.25892194546759" lon="2.948359251022339">
        <ele>64.17003443393385</ele>
        <time>2021-07-20T09:59:45.326Z</time>
      </trkpt>
      <trkpt lat="42.25887903012335" lon="2.948305606842041">
        <ele>64.40195398971287</ele>
        <time>2021-07-20T09:59:47.772Z</time>
      </trkpt>
      <trkpt lat="42.25882530212402" lon="2.948251962661743">
        <ele>64.59426882728599</ele>
        <time>2021-07-20T09:59:50.219Z</time>
      </trkpt>
      <trkpt lat="42.258567893877625" lon="2.9479408264160156">
        <ele>64.73980856028791</ele>
        <time>2021-07-20T09:59:52.671Z</time>
      </trkpt>
      <trkpt lat="42.258567810058594" lon="2.9479408264160156">
        <ele>64.84276187883115</ele>
        <time>2021-07-20T09:59:55.123Z</time>
      </trkpt>
      <trkpt lat="42.25812801159918" lon="2.947479486465454">
        <ele>64.897649299887</ele>
        <time>2021-07-20T09:59:57.584Z</time>
      </trkpt>
      <trkpt lat="42.25808501243591" lon="2.947436571121216">
        <ele>64.90486970554998</ele>
        <time>2021-07-20T10:00:00.046Z</time>
      </trkpt>
      <trkpt lat="42.258009910583496" lon="2.947286367416382">
        <ele>64.8675260998263</ele>
        <time>2021-07-20T10:00:02.510Z</time>
      </trkpt>
      <trkpt lat="42.258020639419556" lon="2.9472219944000244">
        <ele>64.77635903529395</ele>
        <time>2021-07-20T10:00:04.975Z</time>
      </trkpt>
      <trkpt lat="42.258020639419556" lon="2.947157621383667">
        <ele>64.63101516593102</ele>
        <time>2021-07-20T10:00:07.441Z</time>
      </trkpt>
      <trkpt lat="42.25798853673041" lon="2.9470717906951904">
        <ele>64.43274298567063</ele>
        <time>2021-07-20T10:00:09.908Z</time>
      </trkpt>
      <trkpt lat="42.25797772407532" lon="2.9470503330230713">
        <ele>64.1745106606188</ele>
        <time>2021-07-20T10:00:12.375Z</time>
      </trkpt>
      <trkpt lat="42.25793480873108" lon="2.9470181465148926">
        <ele>63.863652288823644</ele>
        <time>2021-07-20T10:00:14.843Z</time>
      </trkpt>
      <trkpt lat="42.257838333025575" lon="2.947007417678833">
        <ele>63.49661826306668</ele>
        <time>2021-07-20T10:00:17.312Z</time>
      </trkpt>
      <trkpt lat="42.257816791534424" lon="2.947007417678833">
        <ele>63.08560385126847</ele>
        <time>2021-07-20T10:00:19.782Z</time>
      </trkpt>
      <trkpt lat="42.25769877433777" lon="2.947007417678833">
        <ele>62.626226098265874</ele>
        <time>2021-07-20T10:00:22.254Z</time>
      </trkpt>
      <trkpt lat="42.25760221481323" lon="2.9469645023345947">
        <ele>62.13555546641778</ele>
        <time>2021-07-20T10:00:24.727Z</time>
      </trkpt>
      <trkpt lat="42.25725897587836" lon="2.946631908416748">
        <ele>61.64111302518026</ele>
        <time>2021-07-20T10:00:27.207Z</time>
      </trkpt>
      <trkpt lat="42.2570013999939" lon="2.946406602859497">
        <ele>61.1139421222219</ele>
        <time>2021-07-20T10:00:29.692Z</time>
      </trkpt>
      <trkpt lat="42.25534915924072" lon="2.944689989089966">
        <ele>60.49095709902228</ele>
        <time>2021-07-20T10:00:32.210Z</time>
      </trkpt>
      <trkpt lat="42.255349243059754" lon="2.944689989089966">
        <ele>59.89513215959947</ele>
        <time>2021-07-20T10:00:34.728Z</time>
      </trkpt>
      <trkpt lat="42.25449093617499" lon="2.9437780380249023">
        <ele>59.11991684148565</ele>
        <time>2021-07-20T10:00:37.264Z</time>
      </trkpt>
      <trkpt lat="42.253353679552674" lon="2.94258713722229">
        <ele>58.278661951069225</ele>
        <time>2021-07-20T10:00:39.823Z</time>
      </trkpt>
      <trkpt lat="42.25202330388129" lon="2.9412031173706055">
        <ele>57.67611382180143</ele>
        <time>2021-07-20T10:00:42.409Z</time>
      </trkpt>
      <trkpt lat="42.25149759091437" lon="2.940666675567627">
        <ele>57.08506059891471</ele>
        <time>2021-07-20T10:00:45.005Z</time>
      </trkpt>
      <trkpt lat="42.251368844881654" lon="2.940516471862793">
        <ele>56.52543931052419</ele>
        <time>2021-07-20T10:00:47.604Z</time>
      </trkpt>
      <trkpt lat="42.251325929537416" lon="2.9404735565185547">
        <ele>56.04797401974831</ele>
        <time>2021-07-20T10:00:50.204Z</time>
      </trkpt>
      <trkpt lat="42.25116491317749" lon="2.940312623977661">
        <ele>55.58183769578312</ele>
        <time>2021-07-20T10:00:52.807Z</time>
      </trkpt>
      <trkpt lat="42.25116499699652" lon="2.940312623977661">
        <ele>55.2409944083759</ele>
        <time>2021-07-20T10:00:55.410Z</time>
      </trkpt>
      <trkpt lat="42.250821590423584" lon="2.9399478435516357">
        <ele>54.84614591939531</ele>
        <time>2021-07-20T10:00:58.020Z</time>
      </trkpt>
      <trkpt lat="42.250821674242616" lon="2.9399478435516357">
        <ele>54.65180850746839</ele>
        <time>2021-07-20T10:01:00.630Z</time>
      </trkpt>
      <trkpt lat="42.24937319755554" lon="2.9384350776672363">
        <ele>54.52800953175369</ele>
        <time>2021-07-20T10:01:03.269Z</time>
      </trkpt>
      <trkpt lat="42.2491801623255" lon="2.9382312297821045">
        <ele>54.506778601071844</ele>
        <time>2021-07-20T10:01:05.912Z</time>
      </trkpt>
      <trkpt lat="42.249126518145204" lon="2.938166856765747">
        <ele>54.56096107434797</ele>
        <time>2021-07-20T10:01:08.557Z</time>
      </trkpt>
      <trkpt lat="42.24865436553955" lon="2.937673330307007">
        <ele>54.75361226826425</ele>
        <time>2021-07-20T10:01:11.211Z</time>
      </trkpt>
      <trkpt lat="42.24865444935858" lon="2.937673330307007">
        <ele>54.963401589232035</ele>
        <time>2021-07-20T10:01:13.865Z</time>
      </trkpt>
      <trkpt lat="42.24783897399902" lon="2.936825752258301">
        <ele>55.40058178918994</ele>
        <time>2021-07-20T10:01:16.536Z</time>
      </trkpt>
      <trkpt lat="42.247839057818055" lon="2.936825752258301">
        <ele>55.75280069206649</ele>
        <time>2021-07-20T10:01:19.207Z</time>
      </trkpt>
      <trkpt lat="42.24722751416266" lon="2.936192750930786">
        <ele>56.216891840361335</ele>
        <time>2021-07-20T10:01:21.890Z</time>
      </trkpt>
      <trkpt lat="42.24662661552429" lon="2.935570478439331">
        <ele>56.70326141801743</ele>
        <time>2021-07-20T10:01:24.585Z</time>
      </trkpt>
      <trkpt lat="42.246626699343324" lon="2.935570478439331">
        <ele>57.220766508701246</ele>
        <time>2021-07-20T10:01:27.280Z</time>
      </trkpt>
      <trkpt lat="42.245822036638856" lon="2.9347336292266846">
        <ele>57.86260100843337</ele>
        <time>2021-07-20T10:01:29.991Z</time>
      </trkpt>
      <trkpt lat="42.245532274246216" lon="2.9344117641448975">
        <ele>58.56426793590012</ele>
        <time>2021-07-20T10:01:32.708Z</time>
      </trkpt>
      <trkpt lat="42.24541425704956" lon="2.9342401027679443">
        <ele>59.23019889902119</ele>
        <time>2021-07-20T10:01:35.428Z</time>
      </trkpt>
      <trkpt lat="42.245317697525024" lon="2.934068441390991">
        <ele>59.8613878226785</ele>
        <time>2021-07-20T10:01:38.151Z</time>
      </trkpt>
      <trkpt lat="42.24519968032837" lon="2.9337573051452637">
        <ele>60.49199523299571</ele>
        <time>2021-07-20T10:01:40.878Z</time>
      </trkpt>
      <trkpt lat="42.24515676498413" lon="2.9335641860961914">
        <ele>61.12006449506737</ele>
        <time>2021-07-20T10:01:43.607Z</time>
      </trkpt>
      <trkpt lat="42.24515684880316" lon="2.9335641860961914">
        <ele>61.73343869339446</ele>
        <time>2021-07-20T10:01:46.336Z</time>
      </trkpt>
      <trkpt lat="42.24511384963989" lon="2.933295965194702">
        <ele>62.362323804883715</ele>
        <time>2021-07-20T10:01:49.068Z</time>
      </trkpt>
      <trkpt lat="42.24510312080383" lon="2.9328346252441406">
        <ele>62.989555071830985</ele>
        <time>2021-07-20T10:01:51.806Z</time>
      </trkpt>
      <trkpt lat="42.245124662294984" lon="2.9321372509002686">
        <ele>63.564167547991175</ele>
        <time>2021-07-20T10:01:54.552Z</time>
      </trkpt>
      <trkpt lat="42.2451461199671" lon="2.930699586868286">
        <ele>64.14667636791812</ele>
        <time>2021-07-20T10:01:57.315Z</time>
      </trkpt>
      <trkpt lat="42.24515684880316" lon="2.930130958557129">
        <ele>64.65415247685787</ele>
        <time>2021-07-20T10:02:00.085Z</time>
      </trkpt>
      <trkpt lat="42.24516757763922" lon="2.9293477535247803">
        <ele>65.12081642770738</ele>
        <time>2021-07-20T10:02:02.864Z</time>
      </trkpt>
      <trkpt lat="42.24517830647528" lon="2.9288113117218018">
        <ele>65.5041411648773</ele>
        <time>2021-07-20T10:02:05.650Z</time>
      </trkpt>
      <trkpt lat="42.24521049298346" lon="2.9272449016571045">
        <ele>65.65313110103283</ele>
        <time>2021-07-20T10:02:08.454Z</time>
      </trkpt>
      <trkpt lat="42.24526413716376" lon="2.925753593444824">
        <ele>65.93346632328716</ele>
        <time>2021-07-20T10:02:11.276Z</time>
      </trkpt>
      <trkpt lat="42.245285511016846" lon="2.925539016723633">
        <ele>66.07852330950108</ele>
        <time>2021-07-20T10:02:14.101Z</time>
      </trkpt>
      <trkpt lat="42.24528559483588" lon="2.925539016723633">
        <ele>66.15819843513705</ele>
        <time>2021-07-20T10:02:16.926Z</time>
      </trkpt>
      <trkpt lat="42.24540361203253" lon="2.923908233642578">
        <ele>66.20866147277336</ele>
        <time>2021-07-20T10:02:19.770Z</time>
      </trkpt>
      <trkpt lat="42.2454571723938" lon="2.923210859298706">
        <ele>66.03364341999743</ele>
        <time>2021-07-20T10:02:22.623Z</time>
      </trkpt>
      <trkpt lat="42.24548935890198" lon="2.922942638397217">
        <ele>65.9012090803786</ele>
        <time>2021-07-20T10:02:25.479Z</time>
      </trkpt>
      <trkpt lat="42.24559664726257" lon="2.9216766357421875">
        <ele>65.74954379684893</ele>
        <time>2021-07-20T10:02:28.350Z</time>
      </trkpt>
      <trkpt lat="42.24567174911499" lon="2.9206573963165283">
        <ele>65.57061066141534</ele>
        <time>2021-07-20T10:02:31.233Z</time>
      </trkpt>
      <trkpt lat="42.24569320678711" lon="2.920271158218384">
        <ele>65.31694789073059</ele>
        <time>2021-07-20T10:02:34.121Z</time>
      </trkpt>
      <trkpt lat="42.24574685096741" lon="2.9199814796447754">
        <ele>65.04069103436436</ele>
        <time>2021-07-20T10:02:37.012Z</time>
      </trkpt>
      <trkpt lat="42.24577912129462" lon="2.919895648956299">
        <ele>64.74921547350044</ele>
        <time>2021-07-20T10:02:39.904Z</time>
      </trkpt>
      <trkpt lat="42.245800495147705" lon="2.9197561740875244">
        <ele>64.42827755292161</ele>
        <time>2021-07-20T10:02:42.798Z</time>
      </trkpt>
      <trkpt lat="42.2457576636225" lon="2.919638156890869">
        <ele>64.0782700273588</ele>
        <time>2021-07-20T10:02:45.694Z</time>
      </trkpt>
      <trkpt lat="42.24575757980347" lon="2.919638156890869">
        <ele>63.74169642686907</ele>
        <time>2021-07-20T10:02:48.590Z</time>
      </trkpt>
      <trkpt lat="42.24573612213135" lon="2.9196059703826904">
        <ele>63.39829324126382</ele>
        <time>2021-07-20T10:02:51.486Z</time>
      </trkpt>
      <trkpt lat="42.24562883377075" lon="2.919412851333618">
        <ele>63.027637315432344</ele>
        <time>2021-07-20T10:02:54.385Z</time>
      </trkpt>
      <trkpt lat="42.245564544573426" lon="2.9192090034484863">
        <ele>62.688890858218535</ele>
        <time>2021-07-20T10:02:57.287Z</time>
      </trkpt>
      <trkpt lat="42.24539288319647" lon="2.918393611907959">
        <ele>62.248600485482044</ele>
        <time>2021-07-20T10:03:00.199Z</time>
      </trkpt>
      <trkpt lat="42.2453498840332" lon="2.9182541370391846">
        <ele>61.973785683255365</ele>
        <time>2021-07-20T10:03:03.113Z</time>
      </trkpt>
      <trkpt lat="42.245317697525024" lon="2.918093204498291">
        <ele>61.74249078717855</ele>
        <time>2021-07-20T10:03:06.028Z</time>
      </trkpt>
      <trkpt lat="42.245317781344056" lon="2.918093204498291">
        <ele>61.600470902234925</ele>
        <time>2021-07-20T10:03:08.943Z</time>
      </trkpt>
      <trkpt lat="42.245092475786805" lon="2.9170525074005127">
        <ele>61.45534870424842</ele>
        <time>2021-07-20T10:03:11.871Z</time>
      </trkpt>
      <trkpt lat="42.24502810277045" lon="2.916773557662964">
        <ele>61.477369207358414</ele>
        <time>2021-07-20T10:03:14.803Z</time>
      </trkpt>
      <trkpt lat="42.244824254885316" lon="2.915850877761841">
        <ele>61.71356697751223</ele>
        <time>2021-07-20T10:03:17.746Z</time>
      </trkpt>
      <trkpt lat="42.24442720413208" lon="2.9140806198120117">
        <ele>62.00250992722917</ele>
        <time>2021-07-20T10:03:20.711Z</time>
      </trkpt>
      <trkpt lat="42.24413752555847" lon="2.912921905517578">
        <ele>62.16747912534852</ele>
        <time>2021-07-20T10:03:23.691Z</time>
      </trkpt>
      <trkpt lat="42.2441376093775" lon="2.912921905517578">
        <ele>62.40974397736825</ele>
        <time>2021-07-20T10:03:26.671Z</time>
      </trkpt>
      <trkpt lat="42.24391222000122" lon="2.9120635986328125">
        <ele>62.75380586040605</ele>
        <time>2021-07-20T10:03:29.662Z</time>
      </trkpt>
      <trkpt lat="42.24297889508307" lon="2.9092419147491455">
        <ele>63.25645827069236</ele>
        <time>2021-07-20T10:03:32.689Z</time>
      </trkpt>
      <trkpt lat="42.242785776034" lon="2.9086732864379883">
        <ele>63.73028493958245</ele>
        <time>2021-07-20T10:03:35.724Z</time>
      </trkpt>
      <trkpt lat="42.242571115493774" lon="2.907986640930176">
        <ele>64.25203544355215</ele>
        <time>2021-07-20T10:03:38.768Z</time>
      </trkpt>
      <trkpt lat="42.242571199312806" lon="2.907986640930176">
        <ele>64.83626935004048</ele>
        <time>2021-07-20T10:03:41.812Z</time>
      </trkpt>
      <trkpt lat="42.242335081100464" lon="2.907278537750244">
        <ele>65.51103176912179</ele>
        <time>2021-07-20T10:03:44.865Z</time>
      </trkpt>
      <trkpt lat="42.242281436920166" lon="2.9070425033569336">
        <ele>66.2604436261459</ele>
        <time>2021-07-20T10:03:47.921Z</time>
      </trkpt>
      <trkpt lat="42.24201329983771" lon="2.9061520099639893">
        <ele>67.08681588194703</ele>
        <time>2021-07-20T10:03:50.988Z</time>
      </trkpt>
      <trkpt lat="42.241627061739564" lon="2.9049718379974365">
        <ele>68.10431164793036</ele>
        <time>2021-07-20T10:03:54.071Z</time>
      </trkpt>
      <trkpt lat="42.24140167236328" lon="2.90438175201416">
        <ele>69.11389077656527</ele>
        <time>2021-07-20T10:03:57.161Z</time>
      </trkpt>
      <trkpt lat="42.241294384002686" lon="2.904156446456909">
        <ele>70.14819372025866</ele>
        <time>2021-07-20T10:04:00.255Z</time>
      </trkpt>
      <trkpt lat="42.24115490913391" lon="2.903716564178467">
        <ele>71.23031434116328</ele>
        <time>2021-07-20T10:04:03.354Z</time>
      </trkpt>
      <trkpt lat="42.24115499295294" lon="2.903716564178467">
        <ele>72.40345669254697</ele>
        <time>2021-07-20T10:04:06.453Z</time>
      </trkpt>
      <trkpt lat="42.240275144577026" lon="2.9010558128356934">
        <ele>73.77219973940244</ele>
        <time>2021-07-20T10:04:09.587Z</time>
      </trkpt>
      <trkpt lat="42.24018931388855" lon="2.9007339477539062">
        <ele>75.09310925397725</ele>
        <time>2021-07-20T10:04:12.725Z</time>
      </trkpt>
      <trkpt lat="42.239867532625794" lon="2.8997039794921875">
        <ele>76.59070455686768</ele>
        <time>2021-07-20T10:04:15.876Z</time>
      </trkpt>
      <trkpt lat="42.23979243077338" lon="2.8994572162628174">
        <ele>78.11632403080037</ele>
        <time>2021-07-20T10:04:19.030Z</time>
      </trkpt>
      <trkpt lat="42.239792346954346" lon="2.8994572162628174">
        <ele>79.66379920074533</ele>
        <time>2021-07-20T10:04:22.184Z</time>
      </trkpt>
      <trkpt lat="42.23972805775702" lon="2.899264097213745">
        <ele>81.32247508537938</ele>
        <time>2021-07-20T10:04:25.341Z</time>
      </trkpt>
      <trkpt lat="42.23938465118408" lon="2.898298501968384">
        <ele>83.27051963397105</ele>
        <time>2021-07-20T10:04:28.511Z</time>
      </trkpt>
      <trkpt lat="42.239298820495605" lon="2.8981053829193115">
        <ele>85.03683453933043</ele>
        <time>2021-07-20T10:04:31.683Z</time>
      </trkpt>
      <trkpt lat="42.23917007446289" lon="2.897740602493286">
        <ele>86.8651005891708</ele>
        <time>2021-07-20T10:04:34.860Z</time>
      </trkpt>
      <trkpt lat="42.23873027600348" lon="2.8964102268218994">
        <ele>88.78775426490097</ele>
        <time>2021-07-20T10:04:38.054Z</time>
      </trkpt>
      <trkpt lat="42.23821529187262" lon="2.8948652744293213">
        <ele>90.82730061443274</ele>
        <time>2021-07-20T10:04:41.269Z</time>
      </trkpt>
      <trkpt lat="42.23775395192206" lon="2.893449068069458">
        <ele>93.01424711304438</ele>
        <time>2021-07-20T10:04:44.502Z</time>
      </trkpt>
      <trkpt lat="42.23744281567633" lon="2.892526388168335">
        <ele>95.06207512865385</ele>
        <time>2021-07-20T10:04:47.747Z</time>
      </trkpt>
      <trkpt lat="42.237356984987855" lon="2.8922581672668457">
        <ele>97.0726983323999</ele>
        <time>2021-07-20T10:04:50.995Z</time>
      </trkpt>
      <trkpt lat="42.236831272020936" lon="2.890702486038208">
        <ele>99.21724224037817</ele>
        <time>2021-07-20T10:04:54.264Z</time>
      </trkpt>
      <trkpt lat="42.23621964454651" lon="2.888857126235962">
        <ele>101.57417762378387</ele>
        <time>2021-07-20T10:04:57.557Z</time>
      </trkpt>
      <trkpt lat="42.23621972836554" lon="2.888857126235962">
        <ele>103.57517705036564</ele>
        <time>2021-07-20T10:05:00.850Z</time>
      </trkpt>
      <trkpt lat="42.23549008369446" lon="2.88665771484375">
        <ele>106.16276157532383</ele>
        <time>2021-07-20T10:05:04.171Z</time>
      </trkpt>
      <trkpt lat="42.2352755907923" lon="2.8860676288604736">
        <ele>108.0817342164597</ele>
        <time>2021-07-20T10:05:07.500Z</time>
      </trkpt>
      <trkpt lat="42.2347176913172" lon="2.8846514225006104">
        <ele>110.11452931377713</ele>
        <time>2021-07-20T10:05:10.848Z</time>
      </trkpt>
      <trkpt lat="42.23427780903876" lon="2.8835785388946533">
        <ele>111.96579855962119</ele>
        <time>2021-07-20T10:05:14.211Z</time>
      </trkpt>
      <trkpt lat="42.23420270718634" lon="2.8834068775177">
        <ele>113.82957977617363</ele>
        <time>2021-07-20T10:05:17.576Z</time>
      </trkpt>
      <trkpt lat="42.23337650299072" lon="2.8814542293548584">
        <ele>115.41705546198015</ele>
        <time>2021-07-20T10:05:20.968Z</time>
      </trkpt>
      <trkpt lat="42.23318338394165" lon="2.880992889404297">
        <ele>117.20413879927986</ele>
        <time>2021-07-20T10:05:24.366Z</time>
      </trkpt>
      <trkpt lat="42.23318346776068" lon="2.880992889404297">
        <ele>119.00483877783628</ele>
        <time>2021-07-20T10:05:27.764Z</time>
      </trkpt>
      <trkpt lat="42.233097553253174" lon="2.880789041519165">
        <ele>120.79871037851584</ele>
        <time>2021-07-20T10:05:31.165Z</time>
      </trkpt>
      <trkpt lat="42.23302245140076" lon="2.880563735961914">
        <ele>122.60127450531002</ele>
        <time>2021-07-20T10:05:34.569Z</time>
      </trkpt>
      <trkpt lat="42.23241099156439" lon="2.879093885421753">
        <ele>124.70981818675637</ele>
        <time>2021-07-20T10:05:37.993Z</time>
      </trkpt>
      <trkpt lat="42.23172434605658" lon="2.8774523735046387">
        <ele>126.5422723940842</ele>
        <time>2021-07-20T10:05:41.439Z</time>
      </trkpt>
      <trkpt lat="42.23116636276245" lon="2.876121997833252">
        <ele>128.28065590465314</ele>
        <time>2021-07-20T10:05:44.903Z</time>
      </trkpt>
      <trkpt lat="42.23100543022156" lon="2.8757894039154053">
        <ele>129.90527795452778</ele>
        <time>2021-07-20T10:05:48.372Z</time>
      </trkpt>
      <trkpt lat="42.230554819107056" lon="2.8747057914733887">
        <ele>131.53722132391266</ele>
        <time>2021-07-20T10:05:51.856Z</time>
      </trkpt>
      <trkpt lat="42.23043688572943" lon="2.87442684173584">
        <ele>133.10382301136102</ele>
        <time>2021-07-20T10:05:55.344Z</time>
      </trkpt>
      <trkpt lat="42.229836070910096" lon="2.873021364212036">
        <ele>134.77749180382267</ele>
        <time>2021-07-20T10:05:58.851Z</time>
      </trkpt>
      <trkpt lat="42.22929962910712" lon="2.8717339038848877">
        <ele>136.42329116870513</ele>
        <time>2021-07-20T10:06:02.376Z</time>
      </trkpt>
      <trkpt lat="42.22904213704169" lon="2.871100902557373">
        <ele>137.85545434450344</ele>
        <time>2021-07-20T10:06:05.909Z</time>
      </trkpt>
      <trkpt lat="42.228623712435365" lon="2.870124578475952">
        <ele>139.3892308609132</ele>
        <time>2021-07-20T10:06:09.456Z</time>
      </trkpt>
      <trkpt lat="42.227883422747254" lon="2.868332862854004">
        <ele>140.73865842143027</ele>
        <time>2021-07-20T10:06:13.027Z</time>
      </trkpt>
      <trkpt lat="42.227647388353944" lon="2.8677213191986084">
        <ele>141.81370000341468</ele>
        <time>2021-07-20T10:06:16.606Z</time>
      </trkpt>
      <trkpt lat="42.22748637199402" lon="2.8672492504119873">
        <ele>142.76322562912574</ele>
        <time>2021-07-20T10:06:20.191Z</time>
      </trkpt>
      <trkpt lat="42.227357625961304" lon="2.866702079772949">
        <ele>143.60195344610602</ele>
        <time>2021-07-20T10:06:23.783Z</time>
      </trkpt>
      <trkpt lat="42.22726106643677" lon="2.866208553314209">
        <ele>144.3180109699477</ele>
        <time>2021-07-20T10:06:27.381Z</time>
      </trkpt>
      <trkpt lat="42.22721823491156" lon="2.865779399871826">
        <ele>144.90982120876583</ele>
        <time>2021-07-20T10:06:30.984Z</time>
      </trkpt>
      <trkpt lat="42.22718604840338" lon="2.865414619445801">
        <ele>145.4091384613078</ele>
        <time>2021-07-20T10:06:34.592Z</time>
      </trkpt>
      <trkpt lat="42.22718596458435" lon="2.864588499069214">
        <ele>145.88141421318386</ele>
        <time>2021-07-20T10:06:38.210Z</time>
      </trkpt>
      <trkpt lat="42.22723960876465" lon="2.863783836364746">
        <ele>146.26886282043012</ele>
        <time>2021-07-20T10:06:41.837Z</time>
      </trkpt>
      <trkpt lat="42.22723969258368" lon="2.863783836364746">
        <ele>146.47946231010627</ele>
        <time>2021-07-20T10:06:45.464Z</time>
      </trkpt>
      <trkpt lat="42.22737908363342" lon="2.861992120742798">
        <ele>146.77987456982012</ele>
        <time>2021-07-20T10:06:49.113Z</time>
      </trkpt>
      <trkpt lat="42.22740054130554" lon="2.861412763595581">
        <ele>146.85880291046914</ele>
        <time>2021-07-20T10:06:52.768Z</time>
      </trkpt>
      <trkpt lat="42.22738981246948" lon="2.8604793548583984">
        <ele>146.83680648560917</ele>
        <time>2021-07-20T10:06:56.435Z</time>
      </trkpt>
      <trkpt lat="42.227346897125244" lon="2.859889268875122">
        <ele>146.6576516761162</ele>
        <time>2021-07-20T10:07:00.109Z</time>
      </trkpt>
      <trkpt lat="42.227346980944276" lon="2.859889268875122">
        <ele>146.4490398390006</ele>
        <time>2021-07-20T10:07:03.783Z</time>
      </trkpt>
      <trkpt lat="42.22727179527283" lon="2.8590738773345947">
        <ele>146.07007099670756</ele>
        <time>2021-07-20T10:07:07.466Z</time>
      </trkpt>
      <trkpt lat="42.227110862731934" lon="2.858119010925293">
        <ele>145.5215960968855</ele>
        <time>2021-07-20T10:07:11.161Z</time>
      </trkpt>
      <trkpt lat="42.22702503204346" lon="2.8576576709747314">
        <ele>145.04907885993356</ele>
        <time>2021-07-20T10:07:14.862Z</time>
      </trkpt>
      <trkpt lat="42.226853370666504" lon="2.8569817543029785">
        <ele>144.54275447841508</ele>
        <time>2021-07-20T10:07:18.571Z</time>
      </trkpt>
      <trkpt lat="42.22670316696167" lon="2.856498956680298">
        <ele>144.1328850545534</ele>
        <time>2021-07-20T10:07:22.286Z</time>
      </trkpt>
      <trkpt lat="42.226338470354676" lon="2.8554582595825195">
        <ele>143.79390608725933</ele>
        <time>2021-07-20T10:07:26.015Z</time>
      </trkpt>
      <trkpt lat="42.22616672515869" lon="2.8550291061401367">
        <ele>143.49382634102506</ele>
        <time>2021-07-20T10:07:29.750Z</time>
      </trkpt>
      <trkpt lat="42.22598441876471" lon="2.8546106815338135">
        <ele>143.34946916056163</ele>
        <time>2021-07-20T10:07:33.491Z</time>
      </trkpt>
      <trkpt lat="42.225887859240174" lon="2.854417562484741">
        <ele>143.16648440741142</ele>
        <time>2021-07-20T10:07:37.234Z</time>
      </trkpt>
      <trkpt lat="42.22574830055237" lon="2.854127883911133">
        <ele>143.04826344865802</ele>
        <time>2021-07-20T10:07:40.981Z</time>
      </trkpt>
      <trkpt lat="42.2257483843714" lon="2.854127883911133">
        <ele>142.88044371771463</ele>
        <time>2021-07-20T10:07:44.728Z</time>
      </trkpt>
      <trkpt lat="42.22545862197876" lon="2.853548526763916">
        <ele>142.9250557902655</ele>
        <time>2021-07-20T10:07:48.484Z</time>
      </trkpt>
      <trkpt lat="42.22499736584723" lon="2.852529287338257">
        <ele>143.0699519320034</ele>
        <time>2021-07-20T10:07:52.254Z</time>
      </trkpt>
      <trkpt lat="42.22471833229065" lon="2.8517138957977295">
        <ele>143.05265689894395</ele>
        <time>2021-07-20T10:07:56.035Z</time>
      </trkpt>
      <trkpt lat="42.22462177276611" lon="2.8512632846832275">
        <ele>143.0324488994218</ele>
        <time>2021-07-20T10:07:59.821Z</time>
      </trkpt>
      <trkpt lat="42.22453602589667" lon="2.8508341312408447">
        <ele>143.09638311697483</ele>
        <time>2021-07-20T10:08:03.613Z</time>
      </trkpt>
      <trkpt lat="42.2244930267334" lon="2.850501537322998">
        <ele>143.21026961461777</ele>
        <time>2021-07-20T10:08:07.409Z</time>
      </trkpt>
      <trkpt lat="42.224385822191834" lon="2.849031686782837">
        <ele>143.42445685286472</ele>
        <time>2021-07-20T10:08:11.222Z</time>
      </trkpt>
      <trkpt lat="42.224342906847596" lon="2.8484630584716797">
        <ele>143.69864010287353</ele>
        <time>2021-07-20T10:08:15.042Z</time>
      </trkpt>
      <trkpt lat="42.22429999150336" lon="2.8477871417999268">
        <ele>144.1918986124033</ele>
        <time>2021-07-20T10:08:18.870Z</time>
      </trkpt>
      <trkpt lat="42.22401031292975" lon="2.8437423706054688">
        <ele>144.74587306663707</ele>
        <time>2021-07-20T10:08:22.746Z</time>
      </trkpt>
      <trkpt lat="42.22397812642157" lon="2.8433024883270264">
        <ele>145.296233248634</ele>
        <time>2021-07-20T10:08:26.628Z</time>
      </trkpt>
      <trkpt lat="42.22395666874945" lon="2.842916250228882">
        <ele>145.88208104941725</ele>
        <time>2021-07-20T10:08:30.514Z</time>
      </trkpt>
      <trkpt lat="42.223870838060975" lon="2.8417468070983887">
        <ele>146.35524000396745</ele>
        <time>2021-07-20T10:08:34.414Z</time>
      </trkpt>
      <trkpt lat="42.223849380388856" lon="2.84146785736084">
        <ele>147.19123034843446</ele>
        <time>2021-07-20T10:08:38.317Z</time>
      </trkpt>
      <trkpt lat="42.22365617752075" lon="2.8386998176574707">
        <ele>147.93820880121228</ele>
        <time>2021-07-20T10:08:42.253Z</time>
      </trkpt>
      <trkpt lat="42.223656261339784" lon="2.8386998176574707">
        <ele>149.00395799493566</ele>
        <time>2021-07-20T10:08:46.189Z</time>
      </trkpt>
      <trkpt lat="42.22349524497986" lon="2.8363072872161865">
        <ele>150.0212778071052</ele>
        <time>2021-07-20T10:08:50.154Z</time>
      </trkpt>
      <trkpt lat="42.22349532879889" lon="2.8363072872161865">
        <ele>151.30823098491425</ele>
        <time>2021-07-20T10:08:54.119Z</time>
      </trkpt>
      <trkpt lat="42.223398769274354" lon="2.8349125385284424">
        <ele>152.954050036875</ele>
        <time>2021-07-20T10:08:58.101Z</time>
      </trkpt>
      <trkpt lat="42.22325921058655" lon="2.833120822906494">
        <ele>155.06151424583368</ele>
        <time>2021-07-20T10:09:02.104Z</time>
      </trkpt>
      <trkpt lat="42.22318419255316" lon="2.832520008087158">
        <ele>156.77385754834802</ele>
        <time>2021-07-20T10:09:06.114Z</time>
      </trkpt>
      <trkpt lat="42.22306617535651" lon="2.8317689895629883">
        <ele>158.3470197245597</ele>
        <time>2021-07-20T10:09:10.133Z</time>
      </trkpt>
      <trkpt lat="42.222883785143495" lon="2.8309214115142822">
        <ele>160.12889535144348</ele>
        <time>2021-07-20T10:09:14.163Z</time>
      </trkpt>
      <trkpt lat="42.222604835405946" lon="2.829709053039551">
        <ele>162.04183302890388</ele>
        <time>2021-07-20T10:09:18.208Z</time>
      </trkpt>
      <trkpt lat="42.2224223613739" lon="2.8289794921875">
        <ele>163.8870954354432</ele>
        <time>2021-07-20T10:09:22.262Z</time>
      </trkpt>
      <trkpt lat="42.22242244519293" lon="2.8289794921875">
        <ele>165.5342532279701</ele>
        <time>2021-07-20T10:09:26.316Z</time>
      </trkpt>
      <trkpt lat="42.22207912243903" lon="2.8274667263031006">
        <ele>167.80405229901493</ele>
        <time>2021-07-20T10:09:30.389Z</time>
      </trkpt>
      <trkpt lat="42.22174652852118" lon="2.8260505199432373">
        <ele>169.4879631113718</ele>
        <time>2021-07-20T10:09:34.480Z</time>
      </trkpt>
      <trkpt lat="42.221596324816346" lon="2.825385332107544">
        <ele>170.94318077256816</ele>
        <time>2021-07-20T10:09:38.579Z</time>
      </trkpt>
      <trkpt lat="42.22130664624274" lon="2.824108600616455">
        <ele>172.30196757861435</ele>
        <time>2021-07-20T10:09:42.694Z</time>
      </trkpt>
      <trkpt lat="42.2212637308985" lon="2.8238725662231445">
        <ele>173.6895220304944</ele>
        <time>2021-07-20T10:09:46.812Z</time>
      </trkpt>
      <trkpt lat="42.221102714538574" lon="2.8229498863220215">
        <ele>174.9625493887729</ele>
        <time>2021-07-20T10:09:50.941Z</time>
      </trkpt>
      <trkpt lat="42.221081256866455" lon="2.822660207748413">
        <ele>176.17851064416328</ele>
        <time>2021-07-20T10:09:55.073Z</time>
      </trkpt>
      <trkpt lat="42.22094186581671" lon="2.8215229511260986">
        <ele>177.12345678986358</ele>
        <time>2021-07-20T10:09:59.219Z</time>
      </trkpt>
      <trkpt lat="42.22093113698065" lon="2.8214478492736816">
        <ele>178.17622613376392</ele>
        <time>2021-07-20T10:10:03.366Z</time>
      </trkpt>
      <trkpt lat="42.22092040814459" lon="2.8213083744049072">
        <ele>179.15301293718977</ele>
        <time>2021-07-20T10:10:07.515Z</time>
      </trkpt>
      <trkpt lat="42.220866680145264" lon="2.8208577632904053">
        <ele>180.01363567977612</ele>
        <time>2021-07-20T10:10:11.669Z</time>
      </trkpt>
      <trkpt lat="42.220823764801025" lon="2.820761203765869">
        <ele>180.87230599819193</ele>
        <time>2021-07-20T10:10:15.824Z</time>
      </trkpt>
      <trkpt lat="42.22079157829285" lon="2.820460796356201">
        <ele>181.67911395697732</ele>
        <time>2021-07-20T10:10:19.983Z</time>
      </trkpt>
      <trkpt lat="42.2207594756037" lon="2.820417881011963">
        <ele>182.4557090968914</ele>
        <time>2021-07-20T10:10:24.143Z</time>
      </trkpt>
      <trkpt lat="42.22070574760437" lon="2.8204071521759033">
        <ele>183.19462484634838</ele>
        <time>2021-07-20T10:10:28.304Z</time>
      </trkpt>
      <trkpt lat="42.220619916915894" lon="2.8204071521759033">
        <ele>183.89771133575684</ele>
        <time>2021-07-20T10:10:32.466Z</time>
      </trkpt>
      <trkpt lat="42.220598543062806" lon="2.820417881011963">
        <ele>184.5219602180578</ele>
        <time>2021-07-20T10:10:36.628Z</time>
      </trkpt>
      <trkpt lat="42.22053408622742" lon="2.8204715251922607">
        <ele>185.11436198221566</ele>
        <time>2021-07-20T10:10:40.792Z</time>
      </trkpt>
      <trkpt lat="42.21996545791626" lon="2.8206324577331543">
        <ele>185.66184313791683</ele>
        <time>2021-07-20T10:10:44.965Z</time>
      </trkpt>
      <trkpt lat="42.219353914260864" lon="2.8208255767822266">
        <ele>186.06353938222458</ele>
        <time>2021-07-20T10:10:49.148Z</time>
      </trkpt>
      <trkpt lat="42.21920371055603" lon="2.820836305618286">
        <ele>186.45227880044263</ele>
        <time>2021-07-20T10:10:53.333Z</time>
      </trkpt>
      <trkpt lat="42.219085693359375" lon="2.820814847946167">
        <ele>186.79365624809367</ele>
        <time>2021-07-20T10:10:57.520Z</time>
      </trkpt>
      <trkpt lat="42.21888184547424" lon="2.8207290172576904">
        <ele>187.07346364790646</ele>
        <time>2021-07-20T10:11:01.711Z</time>
      </trkpt>
      <trkpt lat="42.21874237060547" lon="2.820643186569214">
        <ele>187.29096521928838</ele>
        <time>2021-07-20T10:11:05.904Z</time>
      </trkpt>
      <trkpt lat="42.21827030181885" lon="2.8202462196350098">
        <ele>187.5813994282097</ele>
        <time>2021-07-20T10:11:10.106Z</time>
      </trkpt>
      <trkpt lat="42.21816301345825" lon="2.820192575454712">
        <ele>187.63625528185048</ele>
        <time>2021-07-20T10:11:14.310Z</time>
      </trkpt>
      <trkpt lat="42.218077182769775" lon="2.820160388946533">
        <ele>187.56800267479025</ele>
        <time>2021-07-20T10:11:18.515Z</time>
      </trkpt>
      <trkpt lat="42.21798062324524" lon="2.8201496601104736">
        <ele>187.36925268777372</ele>
        <time>2021-07-20T10:11:22.722Z</time>
      </trkpt>
      <trkpt lat="42.2175407409668" lon="2.820160388946533">
        <ele>187.05824849538857</ele>
        <time>2021-07-20T10:11:26.936Z</time>
      </trkpt>
      <trkpt lat="42.21729397773743" lon="2.8201067447662354">
        <ele>186.65599650530407</ele>
        <time>2021-07-20T10:11:31.154Z</time>
      </trkpt>
      <trkpt lat="42.21691846847534" lon="2.8198599815368652">
        <ele>186.05610242984272</ele>
        <time>2021-07-20T10:11:35.379Z</time>
      </trkpt>
      <trkpt lat="42.216596603393555" lon="2.819688320159912">
        <ele>185.27503066848698</ele>
        <time>2021-07-20T10:11:39.609Z</time>
      </trkpt>
      <trkpt lat="42.21646785736084" lon="2.8196561336517334">
        <ele>184.3081761216605</ele>
        <time>2021-07-20T10:11:43.841Z</time>
      </trkpt>
      <trkpt lat="42.216124534606934" lon="2.819645404815674">
        <ele>183.12376423850725</ele>
        <time>2021-07-20T10:11:48.079Z</time>
      </trkpt>
      <trkpt lat="42.21600651741028" lon="2.8196239471435547">
        <ele>181.86688719322692</ele>
        <time>2021-07-20T10:11:52.319Z</time>
      </trkpt>
      <trkpt lat="42.215856313705444" lon="2.8195595741271973">
        <ele>180.42856181918194</ele>
        <time>2021-07-20T10:11:56.561Z</time>
      </trkpt>
      <trkpt lat="42.215416431427" lon="2.819269895553589">
        <ele>178.76129443311405</ele>
        <time>2021-07-20T10:12:00.811Z</time>
      </trkpt>
      <trkpt lat="42.21516966819763" lon="2.819141149520874">
        <ele>176.99791233176</ele>
        <time>2021-07-20T10:12:05.065Z</time>
      </trkpt>
      <trkpt lat="42.215062379837036" lon="2.819119691848755">
        <ele>175.1339150787357</ele>
        <time>2021-07-20T10:12:09.321Z</time>
      </trkpt>
      <trkpt lat="42.214869260787964" lon="2.819141149520874">
        <ele>173.1658147505832</ele>
        <time>2021-07-20T10:12:13.580Z</time>
      </trkpt>
      <trkpt lat="42.21479415893555" lon="2.8191733360290527">
        <ele>171.02604040688203</ele>
        <time>2021-07-20T10:12:17.840Z</time>
      </trkpt>
      <trkpt lat="42.21453666687012" lon="2.8193986415863037">
        <ele>168.79923781764944</ele>
        <time>2021-07-20T10:12:22.105Z</time>
      </trkpt>
      <trkpt lat="42.21423625946045" lon="2.819570302963257">
        <ele>166.36979066840686</ele>
        <time>2021-07-20T10:12:26.375Z</time>
      </trkpt>
      <trkpt lat="42.21364617347717" lon="2.81974196434021">
        <ele>163.72225714009676</ele>
        <time>2021-07-20T10:12:30.655Z</time>
      </trkpt>
      <trkpt lat="42.21348524093628" lon="2.819817066192627">
        <ele>160.99540928198712</ele>
        <time>2021-07-20T10:12:34.938Z</time>
      </trkpt>
      <trkpt lat="42.21295952796936" lon="2.820160388946533">
        <ele>158.03385370651495</ele>
        <time>2021-07-20T10:12:39.230Z</time>
      </trkpt>
      <trkpt lat="42.21224069595337" lon="2.820289134979248">
        <ele>154.91768300108873</ele>
        <time>2021-07-20T10:12:43.534Z</time>
      </trkpt>
      <trkpt lat="42.2116828802973" lon="2.8202998638153076">
        <ele>151.8343729741867</ele>
        <time>2021-07-20T10:12:47.847Z</time>
      </trkpt>
      <trkpt lat="42.21148976124823" lon="2.8203535079956055">
        <ele>148.9375273369452</ele>
        <time>2021-07-20T10:12:52.163Z</time>
      </trkpt>
      <trkpt lat="42.210631370544434" lon="2.8206753730773926">
        <ele>145.74454963155964</ele>
        <time>2021-07-20T10:12:56.493Z</time>
      </trkpt>
      <trkpt lat="42.210062742233276" lon="2.8208577632904053">
        <ele>142.7965484569536</ele>
        <time>2021-07-20T10:13:00.832Z</time>
      </trkpt>
      <trkpt lat="42.20977306365967" lon="2.8208470344543457">
        <ele>140.10992201252796</ele>
        <time>2021-07-20T10:13:05.176Z</time>
      </trkpt>
      <trkpt lat="42.207123041152954" lon="2.8205573558807373">
        <ele>136.94711163801713</ele>
        <time>2021-07-20T10:13:09.563Z</time>
      </trkpt>
      <trkpt lat="42.20670461654663" lon="2.82049298286438">
        <ele>134.4812295989567</ele>
        <time>2021-07-20T10:13:13.956Z</time>
      </trkpt>
      <trkpt lat="42.20651149749756" lon="2.820417881011963">
        <ele>132.2109637942652</ele>
        <time>2021-07-20T10:13:18.353Z</time>
      </trkpt>
      <trkpt lat="42.206329107284546" lon="2.8202998638153076">
        <ele>130.10072116393366</ele>
        <time>2021-07-20T10:13:22.753Z</time>
      </trkpt>
      <trkpt lat="42.20552444458008" lon="2.819666862487793">
        <ele>128.28064965879554</ele>
        <time>2021-07-20T10:13:27.168Z</time>
      </trkpt>
      <trkpt lat="42.205138206481934" lon="2.819366455078125">
        <ele>126.87962516919617</ele>
        <time>2021-07-20T10:13:31.590Z</time>
      </trkpt>
      <trkpt lat="42.20503091812134" lon="2.8193771839141846">
        <ele>125.3864205984741</ele>
        <time>2021-07-20T10:13:36.014Z</time>
      </trkpt>
      <trkpt lat="42.20495581626892" lon="2.8194308280944824">
        <ele>124.01887154463284</ele>
        <time>2021-07-20T10:13:40.439Z</time>
      </trkpt>
      <trkpt lat="42.204848527908325" lon="2.8195595741271973">
        <ele>122.78233354329993</ele>
        <time>2021-07-20T10:13:44.866Z</time>
      </trkpt>
      <trkpt lat="42.20468759536743" lon="2.8198277950286865">
        <ele>121.654031391449</ele>
        <time>2021-07-20T10:13:49.297Z</time>
      </trkpt>
      <trkpt lat="42.204601764678955" lon="2.8199565410614014">
        <ele>120.84435643234971</ele>
        <time>2021-07-20T10:13:53.730Z</time>
      </trkpt>
      <trkpt lat="42.20446228981018" lon="2.820117473602295">
        <ele>120.20138039173433</ele>
        <time>2021-07-20T10:13:58.166Z</time>
      </trkpt>
      <trkpt lat="42.204387187957764" lon="2.8201711177825928">
        <ele>119.69210423389659</ele>
        <time>2021-07-20T10:14:02.604Z</time>
      </trkpt>
      <trkpt lat="42.20424771308899" lon="2.8201818466186523">
        <ele>119.38711121190613</ele>
        <time>2021-07-20T10:14:07.044Z</time>
      </trkpt>
      <trkpt lat="42.20405459403992" lon="2.820138931274414">
        <ele>119.25226664557718</ele>
        <time>2021-07-20T10:14:11.487Z</time>
      </trkpt>
      <trkpt lat="42.203367948532104" lon="2.819838523864746">
        <ele>119.13443622639403</ele>
        <time>2021-07-20T10:14:15.942Z</time>
      </trkpt>
      <trkpt lat="42.20315337181091" lon="2.8197097778320312">
        <ele>119.1021003371443</ele>
        <time>2021-07-20T10:14:20.400Z</time>
      </trkpt>
      <trkpt lat="42.20298171043396" lon="2.819570302963257">
        <ele>119.1706272259126</ele>
        <time>2021-07-20T10:14:24.862Z</time>
      </trkpt>
      <trkpt lat="42.20242381095886" lon="2.818969488143921">
        <ele>119.29874519946738</ele>
        <time>2021-07-20T10:14:29.335Z</time>
      </trkpt>
      <trkpt lat="42.20218777656555" lon="2.8187549114227295">
        <ele>119.50704213828683</ele>
        <time>2021-07-20T10:14:33.813Z</time>
      </trkpt>
      <trkpt lat="42.20174797810614" lon="2.818465232849121">
        <ele>119.75548727079739</ele>
        <time>2021-07-20T10:14:38.298Z</time>
      </trkpt>
      <trkpt lat="42.20078229904175" lon="2.8179287910461426">
        <ele>119.97739636610405</ele>
        <time>2021-07-20T10:14:42.800Z</time>
      </trkpt>
      <trkpt lat="42.200610637664795" lon="2.817864418029785">
        <ele>120.46218689559274</ele>
        <time>2021-07-20T10:14:47.305Z</time>
      </trkpt>
      <trkpt lat="42.200385332107544" lon="2.817842960357666">
        <ele>121.01194290612811</ele>
        <time>2021-07-20T10:14:51.814Z</time>
      </trkpt>
      <trkpt lat="42.20020294189453" lon="2.817789316177368">
        <ele>121.61296628385534</ele>
        <time>2021-07-20T10:14:56.326Z</time>
      </trkpt>
      <trkpt lat="42.19977387227118" lon="2.8174996376037598">
        <ele>122.32383294401536</ele>
        <time>2021-07-20T10:15:00.845Z</time>
      </trkpt>
      <trkpt lat="42.19950565136969" lon="2.8173065185546875">
        <ele>123.09378402181767</ele>
        <time>2021-07-20T10:15:05.369Z</time>
      </trkpt>
      <trkpt lat="42.19940900802612" lon="2.8171885013580322">
        <ele>123.83238579150542</ele>
        <time>2021-07-20T10:15:09.895Z</time>
      </trkpt>
      <trkpt lat="42.199376821517944" lon="2.8170812129974365">
        <ele>124.56924401535292</ele>
        <time>2021-07-20T10:15:14.423Z</time>
      </trkpt>
      <trkpt lat="42.199355363845825" lon="2.81699538230896">
        <ele>125.31282476808644</ele>
        <time>2021-07-20T10:15:18.952Z</time>
      </trkpt>
      <trkpt lat="42.19930171966553" lon="2.816448211669922">
        <ele>126.03649301836066</ele>
        <time>2021-07-20T10:15:23.487Z</time>
      </trkpt>
      <trkpt lat="42.19926953315735" lon="2.8163623809814453">
        <ele>126.77015329012616</ele>
        <time>2021-07-20T10:15:28.023Z</time>
      </trkpt>
      <trkpt lat="42.19922661781311" lon="2.8162872791290283">
        <ele>127.49935486225488</ele>
        <time>2021-07-20T10:15:32.560Z</time>
      </trkpt>
      <trkpt lat="42.199097871780396" lon="2.816190719604492">
        <ele>128.2417620420427</ele>
        <time>2021-07-20T10:15:37.100Z</time>
      </trkpt>
      <trkpt lat="42.19894766807556" lon="2.816147804260254">
        <ele>128.97535191746846</ele>
        <time>2021-07-20T10:15:41.642Z</time>
      </trkpt>
      <trkpt lat="42.198593616485596" lon="2.81624436378479">
        <ele>129.76418683397776</ele>
        <time>2021-07-20T10:15:46.190Z</time>
      </trkpt>
      <trkpt lat="42.198368310928345" lon="2.8163087368011475">
        <ele>130.41539656091598</ele>
        <time>2021-07-20T10:15:50.742Z</time>
      </trkpt>
      <trkpt lat="42.19817519187927" lon="2.8163087368011475">
        <ele>131.02691911992798</ele>
        <time>2021-07-20T10:15:55.297Z</time>
      </trkpt>
      <trkpt lat="42.197831869125366" lon="2.8162336349487305">
        <ele>131.6370355798459</ele>
        <time>2021-07-20T10:15:59.857Z</time>
      </trkpt>
      <trkpt lat="42.19695218838751" lon="2.81599760055542">
        <ele>132.10390443362508</ele>
        <time>2021-07-20T10:16:04.432Z</time>
      </trkpt>
      <trkpt lat="42.1967697981745" lon="2.815901041030884">
        <ele>132.49427825871533</ele>
        <time>2021-07-20T10:16:09.010Z</time>
      </trkpt>
      <trkpt lat="42.196640968322754" lon="2.8157830238342285">
        <ele>132.88618866919182</ele>
        <time>2021-07-20T10:16:13.590Z</time>
      </trkpt>
      <trkpt lat="42.19657667912543" lon="2.8156864643096924">
        <ele>133.20382432211923</ele>
        <time>2021-07-20T10:16:18.172Z</time>
      </trkpt>
      <trkpt lat="42.196426475420594" lon="2.815418243408203">
        <ele>133.4985735681033</ele>
        <time>2021-07-20T10:16:22.758Z</time>
      </trkpt>
      <trkpt lat="42.196136713027954" lon="2.8148603439331055">
        <ele>133.74806350380732</ele>
        <time>2021-07-20T10:16:27.352Z</time>
      </trkpt>
      <trkpt lat="42.19602950848639" lon="2.814699411392212">
        <ele>133.82857507557304</ele>
        <time>2021-07-20T10:16:31.949Z</time>
      </trkpt>
      <trkpt lat="42.19552516937256" lon="2.814227342605591">
        <ele>133.67563833080456</ele>
        <time>2021-07-20T10:16:36.555Z</time>
      </trkpt>
      <trkpt lat="42.195332050323486" lon="2.81400203704834">
        <ele>133.6295443825627</ele>
        <time>2021-07-20T10:16:41.165Z</time>
      </trkpt>
      <trkpt lat="42.19520330429077" lon="2.8138089179992676">
        <ele>133.5795296263601</ele>
        <time>2021-07-20T10:16:45.779Z</time>
      </trkpt>
      <trkpt lat="42.19448447227478" lon="2.8125429153442383">
        <ele>133.42097393211543</ele>
        <time>2021-07-20T10:16:50.411Z</time>
      </trkpt>
      <trkpt lat="42.19430208206177" lon="2.8122103214263916">
        <ele>133.37080876575408</ele>
        <time>2021-07-20T10:16:55.048Z</time>
      </trkpt>
      <trkpt lat="42.19422698020935" lon="2.8119635581970215">
        <ele>133.30714400991835</ele>
        <time>2021-07-20T10:16:59.689Z</time>
      </trkpt>
      <trkpt lat="42.194151878356934" lon="2.8112125396728516">
        <ele>133.26223985019885</ele>
        <time>2021-07-20T10:17:04.339Z</time>
      </trkpt>
      <trkpt lat="42.19410904683173" lon="2.811030149459839">
        <ele>133.16963968002688</ele>
        <time>2021-07-20T10:17:08.991Z</time>
      </trkpt>
      <trkpt lat="42.19404458999634" lon="2.8109121322631836">
        <ele>133.07781620700138</ele>
        <time>2021-07-20T10:17:13.645Z</time>
      </trkpt>
      <trkpt lat="42.193894386291504" lon="2.81075119972229">
        <ele>132.97237716303195</ele>
        <time>2021-07-20T10:17:18.302Z</time>
      </trkpt>
      <trkpt lat="42.19375491142273" lon="2.810622453689575">
        <ele>132.87369509445236</ele>
        <time>2021-07-20T10:17:22.961Z</time>
      </trkpt>
      <trkpt lat="42.19350814819336" lon="2.8104186058044434">
        <ele>132.7853007491036</ele>
        <time>2021-07-20T10:17:27.625Z</time>
      </trkpt>
      <trkpt lat="42.19329357147217" lon="2.8102147579193115">
        <ele>132.71210779794012</ele>
        <time>2021-07-20T10:17:32.293Z</time>
      </trkpt>
      <trkpt lat="42.19318628311157" lon="2.8100860118865967">
        <ele>132.64445666324383</ele>
        <time>2021-07-20T10:17:36.964Z</time>
      </trkpt>
      <trkpt lat="42.19305753707886" lon="2.8098714351654053">
        <ele>132.6200871465353</ele>
        <time>2021-07-20T10:17:41.638Z</time>
      </trkpt>
      <trkpt lat="42.19280004501343" lon="2.8093671798706055">
        <ele>132.63178988868438</ele>
        <time>2021-07-20T10:17:46.319Z</time>
      </trkpt>
      <trkpt lat="42.19269275665283" lon="2.809109687805176">
        <ele>132.6902208098623</ele>
        <time>2021-07-20T10:17:51.004Z</time>
      </trkpt>
      <trkpt lat="42.19207048416138" lon="2.8074145317077637">
        <ele>132.87290460154017</ele>
        <time>2021-07-20T10:17:55.711Z</time>
      </trkpt>
      <trkpt lat="42.191898822784424" lon="2.806985378265381">
        <ele>132.9747630239316</ele>
        <time>2021-07-20T10:18:00.424Z</time>
      </trkpt>
      <trkpt lat="42.19181299209595" lon="2.806835174560547">
        <ele>133.09600915987374</ele>
        <time>2021-07-20T10:18:05.139Z</time>
      </trkpt>
      <trkpt lat="42.19067573547363" lon="2.805204391479492">
        <ele>133.15523008572927</ele>
        <time>2021-07-20T10:18:09.881Z</time>
      </trkpt>
      <trkpt lat="42.18975305557251" lon="2.803788185119629">
        <ele>133.34895080282973</ele>
        <time>2021-07-20T10:18:14.645Z</time>
      </trkpt>
      <trkpt lat="42.18948483467102" lon="2.8033268451690674">
        <ele>133.55934613454588</ele>
        <time>2021-07-20T10:18:19.416Z</time>
      </trkpt>
      <trkpt lat="42.18928098678589" lon="2.8029191493988037">
        <ele>133.8032661626918</ele>
        <time>2021-07-20T10:18:24.193Z</time>
      </trkpt>
      <trkpt lat="42.18879818916321" lon="2.801867723464966">
        <ele>134.1631155487459</ele>
        <time>2021-07-20T10:18:28.985Z</time>
      </trkpt>
      <trkpt lat="42.18859442509711" lon="2.8013312816619873">
        <ele>134.53741970638714</ele>
        <time>2021-07-20T10:18:33.784Z</time>
      </trkpt>
      <trkpt lat="42.18831539154053" lon="2.8006017208099365">
        <ele>134.93576657604757</ele>
        <time>2021-07-20T10:18:38.593Z</time>
      </trkpt>
      <trkpt lat="42.188100814819336" lon="2.8000009059906006">
        <ele>135.30103598877776</ele>
        <time>2021-07-20T10:18:43.409Z</time>
      </trkpt>
      <trkpt lat="42.18810089863837" lon="2.8000009059906006">
        <ele>135.64309345498148</ele>
        <time>2021-07-20T10:18:48.225Z</time>
      </trkpt>
      <trkpt lat="42.18806862831116" lon="2.7999043464660645">
        <ele>135.99679848005064</ele>
        <time>2021-07-20T10:18:53.043Z</time>
      </trkpt>
      <trkpt lat="42.18801498413086" lon="2.7998292446136475">
        <ele>136.34255175219272</ele>
        <time>2021-07-20T10:18:57.862Z</time>
      </trkpt>
      <trkpt lat="42.18791842460632" lon="2.7997756004333496">
        <ele>136.673593726295</ele>
        <time>2021-07-20T10:19:02.683Z</time>
      </trkpt>
      <trkpt lat="42.18769311904907" lon="2.799711227416992">
        <ele>136.98314023863546</ele>
        <time>2021-07-20T10:19:07.507Z</time>
      </trkpt>
      <trkpt lat="42.187607288360596" lon="2.7997219562530518">
        <ele>137.27188427184478</ele>
        <time>2021-07-20T10:19:12.333Z</time>
      </trkpt>
      <trkpt lat="42.18712457455695" lon="2.7998828887939453">
        <ele>137.54308007240203</ele>
        <time>2021-07-20T10:19:17.167Z</time>
      </trkpt>
      <trkpt lat="42.18692064285278" lon="2.7999043464660645">
        <ele>137.7747894292221</ele>
        <time>2021-07-20T10:19:22.004Z</time>
      </trkpt>
      <trkpt lat="42.18649157322943" lon="2.7998828887939453">
        <ele>137.99077933024924</ele>
        <time>2021-07-20T10:19:26.848Z</time>
      </trkpt>
      <trkpt lat="42.185611724853516" lon="2.7998077869415283">
        <ele>138.26624555701665</ele>
        <time>2021-07-20T10:19:31.706Z</time>
      </trkpt>
      <trkpt lat="42.185375690460205" lon="2.7998292446136475">
        <ele>138.4385073856675</ele>
        <time>2021-07-20T10:19:36.568Z</time>
      </trkpt>
      <trkpt lat="42.18525767326355" lon="2.7998721599578857">
        <ele>138.4918593806492</ele>
        <time>2021-07-20T10:19:41.432Z</time>
      </trkpt>
      <trkpt lat="42.18507528305054" lon="2.8000009059906006">
        <ele>138.44526742947875</ele>
        <time>2021-07-20T10:19:46.299Z</time>
      </trkpt>
      <trkpt lat="42.18507536686957" lon="2.8000009059906006">
        <ele>138.3683989031451</ele>
        <time>2021-07-20T10:19:51.166Z</time>
      </trkpt>
      <trkpt lat="42.18469977378845" lon="2.8002798557281494">
        <ele>138.3707954944242</ele>
        <time>2021-07-20T10:19:56.040Z</time>
      </trkpt>
      <trkpt lat="42.18384146690369" lon="2.8008270263671875">
        <ele>138.1993008952507</ele>
        <time>2021-07-20T10:20:00.929Z</time>
      </trkpt>
      <trkpt lat="42.183412313461304" lon="2.8011810779571533">
        <ele>137.8894526943267</ele>
        <time>2021-07-20T10:20:05.826Z</time>
      </trkpt>
      <trkpt lat="42.182886600494385" lon="2.801642417907715">
        <ele>137.27549313683852</ele>
        <time>2021-07-20T10:20:10.733Z</time>
      </trkpt>
      <trkpt lat="42.18267202377319" lon="2.8018784523010254">
        <ele>136.79725536799072</ele>
        <time>2021-07-20T10:20:15.645Z</time>
      </trkpt>
      <trkpt lat="42.18255400657654" lon="2.802093029022217">
        <ele>136.25487767699343</ele>
        <time>2021-07-20T10:20:20.560Z</time>
      </trkpt>
      <trkpt lat="42.18230724334717" lon="2.8027045726776123">
        <ele>135.48411621543644</ele>
        <time>2021-07-20T10:20:25.483Z</time>
      </trkpt>
      <trkpt lat="42.18224287033081" lon="2.8028762340545654">
        <ele>134.77026784996093</ele>
        <time>2021-07-20T10:20:30.408Z</time>
      </trkpt>
      <trkpt lat="42.18221076764166" lon="2.8031980991363525">
        <ele>133.98531937491478</ele>
        <time>2021-07-20T10:20:35.337Z</time>
      </trkpt>
      <trkpt lat="42.18217849731445" lon="2.803412675857544">
        <ele>133.2157346491822</ele>
        <time>2021-07-20T10:20:40.269Z</time>
      </trkpt>
      <trkpt lat="42.182157039642334" lon="2.80350923538208">
        <ele>132.41543428609873</ele>
        <time>2021-07-20T10:20:45.202Z</time>
      </trkpt>
      <trkpt lat="42.182103395462036" lon="2.803562879562378">
        <ele>131.55742434086557</ele>
        <time>2021-07-20T10:20:50.136Z</time>
      </trkpt>
      <trkpt lat="42.18204975128174" lon="2.803584337234497">
        <ele>130.6532635098151</ele>
        <time>2021-07-20T10:20:55.071Z</time>
      </trkpt>
      <trkpt lat="42.1819531917572" lon="2.8035736083984375">
        <ele>129.69477967250901</ele>
        <time>2021-07-20T10:21:00.007Z</time>
      </trkpt>
      <trkpt lat="42.181910276412964" lon="2.803541421890259">
        <ele>128.71005309586602</ele>
        <time>2021-07-20T10:21:04.944Z</time>
      </trkpt>
      <trkpt lat="42.181878089904785" lon="2.803487777709961">
        <ele>127.6910728089002</ele>
        <time>2021-07-20T10:21:09.882Z</time>
      </trkpt>
      <trkpt lat="42.18181380070746" lon="2.803337574005127">
        <ele>126.63114667571594</ele>
        <time>2021-07-20T10:21:14.822Z</time>
      </trkpt>
      <trkpt lat="42.181652784347534" lon="2.8027474880218506">
        <ele>125.55863635123403</ele>
        <time>2021-07-20T10:21:19.770Z</time>
      </trkpt>
      <trkpt lat="42.18133091926575" lon="2.8015029430389404">
        <ele>124.37750611941607</ele>
        <time>2021-07-20T10:21:24.733Z</time>
      </trkpt>
      <trkpt lat="42.18133091926575" lon="2.8011703491210938">
        <ele>123.25828834399243</ele>
        <time>2021-07-20T10:21:29.700Z</time>
      </trkpt>
      <trkpt lat="42.18138464726508" lon="2.8005266189575195">
        <ele>122.15486793146496</ele>
        <time>2021-07-20T10:21:34.675Z</time>
      </trkpt>
      <trkpt lat="42.18142747879028" lon="2.8000009059906006">
        <ele>120.98686708638415</ele>
        <time>2021-07-20T10:21:39.656Z</time>
      </trkpt>
      <trkpt lat="42.181427562609315" lon="2.8000009059906006">
        <ele>119.84025706087027</ele>
        <time>2021-07-20T10:21:44.637Z</time>
      </trkpt>
      <trkpt lat="42.18143820762634" lon="2.7997970581054688">
        <ele>118.68181278868616</ele>
        <time>2021-07-20T10:21:49.621Z</time>
      </trkpt>
      <trkpt lat="42.181406021118164" lon="2.799636125564575">
        <ele>117.50697990070745</ele>
        <time>2021-07-20T10:21:54.607Z</time>
      </trkpt>
      <trkpt lat="42.18134164810181" lon="2.79951810836792">
        <ele>116.3114059642269</ele>
        <time>2021-07-20T10:21:59.594Z</time>
      </trkpt>
      <trkpt lat="42.18121298588812" lon="2.7994322776794434">
        <ele>115.0667801866017</ele>
        <time>2021-07-20T10:22:04.584Z</time>
      </trkpt>
      <trkpt lat="42.181137800216675" lon="2.799410820007324">
        <ele>113.92704207005713</ele>
        <time>2021-07-20T10:22:09.575Z</time>
      </trkpt>
      <trkpt lat="42.18100905418396" lon="2.7994322776794434">
        <ele>112.77498985967418</ele>
        <time>2021-07-20T10:22:14.568Z</time>
      </trkpt>
      <trkpt lat="42.180354595184326" lon="2.7997756004333496">
        <ele>111.592775918185</ele>
        <time>2021-07-20T10:22:19.572Z</time>
      </trkpt>
      <trkpt lat="42.17988261021674" lon="2.8000009059906006">
        <ele>110.68995036370154</ele>
        <time>2021-07-20T10:22:24.584Z</time>
      </trkpt>
      <trkpt lat="42.17979677952826" lon="2.800043821334839">
        <ele>109.92731894924559</ele>
        <time>2021-07-20T10:22:29.598Z</time>
      </trkpt>
      <trkpt lat="42.17979669570923" lon="2.800043821334839">
        <ele>109.25859525901322</ele>
        <time>2021-07-20T10:22:34.612Z</time>
      </trkpt>
      <trkpt lat="42.17928171157837" lon="2.8003013134002686">
        <ele>108.63036236835308</ele>
        <time>2021-07-20T10:22:39.634Z</time>
      </trkpt>
      <trkpt lat="42.179120779037476" lon="2.800344228744507">
        <ele>108.15569495822149</ele>
        <time>2021-07-20T10:22:44.659Z</time>
      </trkpt>
      <trkpt lat="42.178959930315614" lon="2.8003549575805664">
        <ele>107.7870575592533</ele>
        <time>2021-07-20T10:22:49.687Z</time>
      </trkpt>
      <trkpt lat="42.178852558135986" lon="2.800365686416626">
        <ele>107.54780309635271</ele>
        <time>2021-07-20T10:22:54.716Z</time>
      </trkpt>
      <trkpt lat="42.17874526977539" lon="2.800344228744507">
        <ele>107.43069550832818</ele>
        <time>2021-07-20T10:22:59.747Z</time>
      </trkpt>
      <trkpt lat="42.178659439086914" lon="2.800290584564209">
        <ele>107.44083928038495</ele>
        <time>2021-07-20T10:23:04.780Z</time>
      </trkpt>
      <trkpt lat="42.178605794906616" lon="2.8002476692199707">
        <ele>107.57979438824748</ele>
        <time>2021-07-20T10:23:09.814Z</time>
      </trkpt>
      <trkpt lat="42.1785306930542" lon="2.800086736679077">
        <ele>107.83528552867173</ele>
        <time>2021-07-20T10:23:14.850Z</time>
      </trkpt>
      <trkpt lat="42.17851996421814" lon="2.8000009059906006">
        <ele>108.20759732418485</ele>
        <time>2021-07-20T10:23:19.887Z</time>
      </trkpt>
      <trkpt lat="42.17852004803717" lon="2.8000009059906006">
        <ele>108.70628369958803</ele>
        <time>2021-07-20T10:23:24.924Z</time>
      </trkpt>
      <trkpt lat="42.17845559120178" lon="2.7993035316467285">
        <ele>109.11510473636511</ele>
        <time>2021-07-20T10:23:29.969Z</time>
      </trkpt>
      <trkpt lat="42.17825174331665" lon="2.7974796295166016">
        <ele>110.27085026093627</ele>
        <time>2021-07-20T10:23:35.036Z</time>
      </trkpt>
      <trkpt lat="42.17829465866089" lon="2.7972114086151123">
        <ele>111.28813514999139</ele>
        <time>2021-07-20T10:23:40.107Z</time>
      </trkpt>
      <trkpt lat="42.17832684516907" lon="2.7971255779266357">
        <ele>112.20469688582631</ele>
        <time>2021-07-20T10:23:45.179Z</time>
      </trkpt>
      <trkpt lat="42.178380489349365" lon="2.7970612049102783">
        <ele>113.14447823569304</ele>
        <time>2021-07-20T10:23:50.252Z</time>
      </trkpt>
      <trkpt lat="42.17850923538208" lon="2.7969539165496826">
        <ele>114.12921215613096</ele>
        <time>2021-07-20T10:23:55.327Z</time>
      </trkpt>
      <trkpt lat="42.17882037162781" lon="2.7967822551727295">
        <ele>114.96244581983983</ele>
        <time>2021-07-20T10:24:00.408Z</time>
      </trkpt>
      <trkpt lat="42.178906202316284" lon="2.796717882156372">
        <ele>115.9311083372651</ele>
        <time>2021-07-20T10:24:05.490Z</time>
      </trkpt>
      <trkpt lat="42.17920660972595" lon="2.7964067459106445">
        <ele>117.14962031638657</ele>
        <time>2021-07-20T10:24:10.578Z</time>
      </trkpt>
      <trkpt lat="42.17929244041443" lon="2.796299457550049">
        <ele>118.27699565672506</ele>
        <time>2021-07-20T10:24:15.668Z</time>
      </trkpt>
      <trkpt lat="42.17930316925049" lon="2.796224355697632">
        <ele>119.35421412449253</ele>
        <time>2021-07-20T10:24:20.759Z</time>
      </trkpt>
      <trkpt lat="42.17930316925049" lon="2.7961599826812744">
        <ele>120.38793133370189</ele>
        <time>2021-07-20T10:24:25.851Z</time>
      </trkpt>
      <trkpt lat="42.17927098274231" lon="2.796095609664917">
        <ele>121.38308707768357</ele>
        <time>2021-07-20T10:24:30.944Z</time>
      </trkpt>
      <trkpt lat="42.17923879623413" lon="2.7960634231567383">
        <ele>122.28443476563615</ele>
        <time>2021-07-20T10:24:36.037Z</time>
      </trkpt>
      <trkpt lat="42.17927106656134" lon="2.7960097789764404">
        <ele>123.12194048343702</ele>
        <time>2021-07-20T10:24:41.131Z</time>
      </trkpt>
      <trkpt lat="42.17929244041443" lon="2.7959561347961426">
        <ele>123.8610592511644</ele>
        <time>2021-07-20T10:24:46.226Z</time>
      </trkpt>
      <trkpt lat="42.17945337295532" lon="2.79577374458313">
        <ele>124.5121266525225</ele>
        <time>2021-07-20T10:24:51.324Z</time>
      </trkpt>
      <trkpt lat="42.179850339889526" lon="2.795194387435913">
        <ele>125.01148544787752</ele>
        <time>2021-07-20T10:24:56.432Z</time>
      </trkpt>
      <trkpt lat="42.18032240867615" lon="2.7943789958953857">
        <ele>125.61543405645452</ele>
        <time>2021-07-20T10:25:01.552Z</time>
      </trkpt>
      <trkpt lat="42.18055852688849" lon="2.793917655944824">
        <ele>126.04432121267291</ele>
        <time>2021-07-20T10:25:06.679Z</time>
      </trkpt>
      <trkpt lat="42.18055844306946" lon="2.793917655944824">
        <ele>126.37451446693612</ele>
        <time>2021-07-20T10:25:11.806Z</time>
      </trkpt>
      <trkpt lat="42.180622816085815" lon="2.7937889099121094">
        <ele>126.57019342546101</ele>
        <time>2021-07-20T10:25:16.934Z</time>
      </trkpt>
      <trkpt lat="42.18076229095459" lon="2.7933812141418457">
        <ele>126.70757276568114</ele>
        <time>2021-07-20T10:25:22.068Z</time>
      </trkpt>
      <trkpt lat="42.180880308151245" lon="2.7930915355682373">
        <ele>126.94061144290578</ele>
        <time>2021-07-20T10:25:27.206Z</time>
      </trkpt>
      <trkpt lat="42.18097695149481" lon="2.792973518371582">
        <ele>126.98992041949161</ele>
        <time>2021-07-20T10:25:32.346Z</time>
      </trkpt>
      <trkpt lat="42.18106269836426" lon="2.7928555011749268">
        <ele>126.9814327609372</ele>
        <time>2021-07-20T10:25:37.488Z</time>
      </trkpt>
      <trkpt lat="42.18127727508545" lon="2.792694568634033">
        <ele>126.64399211948128</ele>
        <time>2021-07-20T10:25:42.634Z</time>
      </trkpt>
      <trkpt lat="42.18128800392151" lon="2.7926409244537354">
        <ele>126.49308802098068</ele>
        <time>2021-07-20T10:25:47.780Z</time>
      </trkpt>
      <trkpt lat="42.18134164810181" lon="2.792426347732544">
        <ele>126.31509966307996</ele>
        <time>2021-07-20T10:25:52.929Z</time>
      </trkpt>
      <trkpt lat="42.18134164810181" lon="2.79202938079834">
        <ele>126.21052390060528</ele>
        <time>2021-07-20T10:25:58.083Z</time>
      </trkpt>
      <trkpt lat="42.18137391842902" lon="2.7915680408477783">
        <ele>126.03666490934772</ele>
        <time>2021-07-20T10:26:03.242Z</time>
      </trkpt>
      <trkpt lat="42.181373834609985" lon="2.7915680408477783">
        <ele>125.76703381041236</ele>
        <time>2021-07-20T10:26:08.401Z</time>
      </trkpt>
      <trkpt lat="42.18183517456055" lon="2.7904629707336426">
        <ele>124.97136289822873</ele>
        <time>2021-07-20T10:26:13.575Z</time>
      </trkpt>
      <trkpt lat="42.182414531707764" lon="2.7889931201934814">
        <ele>124.4764035216342</ele>
        <time>2021-07-20T10:26:18.769Z</time>
      </trkpt>
      <trkpt lat="42.18248963356018" lon="2.7886712551116943">
        <ele>124.15629446416807</ele>
        <time>2021-07-20T10:26:23.967Z</time>
      </trkpt>
      <trkpt lat="42.18250036239624" lon="2.7882957458496094">
        <ele>123.90272041546268</ele>
        <time>2021-07-20T10:26:29.170Z</time>
      </trkpt>
      <trkpt lat="42.18248971737921" lon="2.7881884574890137">
        <ele>123.72287093197465</ele>
        <time>2021-07-20T10:26:34.374Z</time>
      </trkpt>
      <trkpt lat="42.18247890472412" lon="2.7880489826202393">
        <ele>123.58406377959</ele>
        <time>2021-07-20T10:26:39.580Z</time>
      </trkpt>
      <trkpt lat="42.18228578567505" lon="2.787501811981201">
        <ele>123.5807326517591</ele>
        <time>2021-07-20T10:26:44.793Z</time>
      </trkpt>
      <trkpt lat="42.18228578567505" lon="2.7872872352600098">
        <ele>123.62737571458487</ele>
        <time>2021-07-20T10:26:50.008Z</time>
      </trkpt>
      <trkpt lat="42.182393074035645" lon="2.7867937088012695">
        <ele>123.64173028430982</ele>
        <time>2021-07-20T10:26:55.229Z</time>
      </trkpt>
      <trkpt lat="42.182414531707764" lon="2.7865684032440186">
        <ele>123.76034515755185</ele>
        <time>2021-07-20T10:27:00.453Z</time>
      </trkpt>
      <trkpt lat="42.18230724334717" lon="2.784186601638794">
        <ele>124.55778492088055</ele>
        <time>2021-07-20T10:27:05.706Z</time>
      </trkpt>
      <trkpt lat="42.182350158691406" lon="2.783907651901245">
        <ele>124.70755008369139</ele>
        <time>2021-07-20T10:27:10.962Z</time>
      </trkpt>
      <trkpt lat="42.18242526054382" lon="2.7836501598358154">
        <ele>124.66665753005663</ele>
        <time>2021-07-20T10:27:16.221Z</time>
      </trkpt>
      <trkpt lat="42.18254327774048" lon="2.783360481262207">
        <ele>124.78403871533696</ele>
        <time>2021-07-20T10:27:21.484Z</time>
      </trkpt>
      <trkpt lat="42.182607650756836" lon="2.7830922603607178">
        <ele>125.0685474311831</ele>
        <time>2021-07-20T10:27:26.751Z</time>
      </trkpt>
      <trkpt lat="42.182596921920776" lon="2.782866954803467">
        <ele>125.33951439353363</ele>
        <time>2021-07-20T10:27:32.020Z</time>
      </trkpt>
      <trkpt lat="42.182650566101074" lon="2.7825450897216797">
        <ele>125.46612492510351</ele>
        <time>2021-07-20T10:27:37.293Z</time>
      </trkpt>
      <trkpt lat="42.18281149864197" lon="2.7818799018859863">
        <ele>125.61724634563075</ele>
        <time>2021-07-20T10:27:42.574Z</time>
      </trkpt>
      <trkpt lat="42.18292951583862" lon="2.7816009521484375">
        <ele>125.45669029704578</ele>
        <time>2021-07-20T10:27:47.859Z</time>
      </trkpt>
      <trkpt lat="42.18305826187134" lon="2.7813971042633057">
        <ele>125.4319560997618</ele>
        <time>2021-07-20T10:27:53.147Z</time>
      </trkpt>
      <trkpt lat="42.183380126953125" lon="2.7810752391815186">
        <ele>125.52563009660346</ele>
        <time>2021-07-20T10:27:58.442Z</time>
      </trkpt>
      <trkpt lat="42.1834659576416" lon="2.7810323238372803">
        <ele>125.56558832471646</ele>
        <time>2021-07-20T10:28:03.738Z</time>
      </trkpt>
      <trkpt lat="42.18353033065796" lon="2.7810001373291016">
        <ele>125.44388903684745</ele>
        <time>2021-07-20T10:28:09.035Z</time>
      </trkpt>
      <trkpt lat="42.183648347854614" lon="2.7810001373291016">
        <ele>125.25642085837825</ele>
        <time>2021-07-20T10:28:14.334Z</time>
      </trkpt>
      <trkpt lat="42.18376636505127" lon="2.7809250354766846">
        <ele>125.02435072875625</ele>
        <time>2021-07-20T10:28:19.635Z</time>
      </trkpt>
      <trkpt lat="42.18427062034607" lon="2.78078556060791">
        <ele>124.74378592105816</ele>
        <time>2021-07-20T10:28:24.945Z</time>
      </trkpt>
      <trkpt lat="42.18436726368964" lon="2.780742645263672">
        <ele>124.69505280710521</ele>
        <time>2021-07-20T10:28:30.256Z</time>
      </trkpt>
      <trkpt lat="42.184367179870605" lon="2.780742645263672">
        <ele>124.56465110824915</ele>
        <time>2021-07-20T10:28:35.567Z</time>
      </trkpt>
      <trkpt lat="42.184871435165405" lon="2.780442237854004">
        <ele>124.59660557414324</ele>
        <time>2021-07-20T10:28:40.887Z</time>
      </trkpt>
      <trkpt lat="42.185386419296265" lon="2.7800559997558594">
        <ele>124.35569938563955</ele>
        <time>2021-07-20T10:28:46.217Z</time>
      </trkpt>
      <trkpt lat="42.18566536903381" lon="2.779819965362549">
        <ele>124.20311430623102</ele>
        <time>2021-07-20T10:28:51.552Z</time>
      </trkpt>
      <trkpt lat="42.186115980148315" lon="2.779262065887451">
        <ele>124.09694307499973</ele>
        <time>2021-07-20T10:28:56.897Z</time>
      </trkpt>
      <trkpt lat="42.18624472618103" lon="2.779015302658081">
        <ele>124.0117512499919</ele>
        <time>2021-07-20T10:29:02.245Z</time>
      </trkpt>
      <trkpt lat="42.186394929885864" lon="2.778489589691162">
        <ele>123.72279930714072</ele>
        <time>2021-07-20T10:29:07.600Z</time>
      </trkpt>
      <trkpt lat="42.18647011555731" lon="2.778114080429077">
        <ele>123.41622397640465</ele>
        <time>2021-07-20T10:29:12.959Z</time>
      </trkpt>
      <trkpt lat="42.1864914894104" lon="2.777920961380005">
        <ele>123.21935821062107</ele>
        <time>2021-07-20T10:29:18.321Z</time>
      </trkpt>
      <trkpt lat="42.18629837036133" lon="2.7773523330688477">
        <ele>123.47589810148509</ele>
        <time>2021-07-20T10:29:23.690Z</time>
      </trkpt>
      <trkpt lat="42.18626618385315" lon="2.776966094970703">
        <ele>123.43928845811388</ele>
        <time>2021-07-20T10:29:29.064Z</time>
      </trkpt>
      <trkpt lat="42.18625545501709" lon="2.7765262126922607">
        <ele>123.38189638752452</ele>
        <time>2021-07-20T10:29:34.443Z</time>
      </trkpt>
      <trkpt lat="42.18627691268921" lon="2.7760541439056396">
        <ele>123.36353222967571</ele>
        <time>2021-07-20T10:29:39.828Z</time>
      </trkpt>
      <trkpt lat="42.18637355603278" lon="2.775850296020508">
        <ele>123.23695862709141</ele>
        <time>2021-07-20T10:29:45.216Z</time>
      </trkpt>
      <trkpt lat="42.18650221824646" lon="2.7756142616271973">
        <ele>123.14278567426358</ele>
        <time>2021-07-20T10:29:50.607Z</time>
      </trkpt>
      <trkpt lat="42.18702793121338" lon="2.7748525142669678">
        <ele>123.11911515718126</ele>
        <time>2021-07-20T10:29:56.010Z</time>
      </trkpt>
      <trkpt lat="42.187156677246094" lon="2.774519920349121">
        <ele>123.11072232707815</ele>
        <time>2021-07-20T10:30:01.418Z</time>
      </trkpt>
      <trkpt lat="42.18721032142639" lon="2.7743053436279297">
        <ele>123.11710581283333</ele>
        <time>2021-07-20T10:30:06.829Z</time>
      </trkpt>
      <trkpt lat="42.187199676409364" lon="2.7740049362182617">
        <ele>123.2589709167091</ele>
        <time>2021-07-20T10:30:12.243Z</time>
      </trkpt>
      <trkpt lat="42.18719959259033" lon="2.7740049362182617">
        <ele>123.32160399195214</ele>
        <time>2021-07-20T10:30:17.657Z</time>
      </trkpt>
      <trkpt lat="42.187135219573975" lon="2.7734148502349854">
        <ele>123.6118118138216</ele>
        <time>2021-07-20T10:30:23.078Z</time>
      </trkpt>
      <trkpt lat="42.1870493888855" lon="2.7729320526123047">
        <ele>123.95321677916695</ele>
        <time>2021-07-20T10:30:28.505Z</time>
      </trkpt>
      <trkpt lat="42.187103033065796" lon="2.772728204727173">
        <ele>124.03219987933008</ele>
        <time>2021-07-20T10:30:33.935Z</time>
      </trkpt>
      <trkpt lat="42.187639474868774" lon="2.771848440170288">
        <ele>123.94902988910627</ele>
        <time>2021-07-20T10:30:39.378Z</time>
      </trkpt>
      <trkpt lat="42.18787559308112" lon="2.771505117416382">
        <ele>123.9343053760139</ele>
        <time>2021-07-20T10:30:44.827Z</time>
      </trkpt>
      <trkpt lat="42.187875509262085" lon="2.771505117416382">
        <ele>124.02039527854632</ele>
        <time>2021-07-20T10:30:50.276Z</time>
      </trkpt>
      <trkpt lat="42.18803644180298" lon="2.7712905406951904">
        <ele>124.04001274968024</ele>
        <time>2021-07-20T10:30:55.728Z</time>
      </trkpt>
      <trkpt lat="42.18821883201599" lon="2.7711832523345947">
        <ele>124.00129538253555</ele>
        <time>2021-07-20T10:31:01.184Z</time>
      </trkpt>
      <trkpt lat="42.188369035720825" lon="2.7710115909576416">
        <ele>124.06466706332515</ele>
        <time>2021-07-20T10:31:06.643Z</time>
      </trkpt>
      <trkpt lat="42.18847632408142" lon="2.7708399295806885">
        <ele>124.1304486484482</ele>
        <time>2021-07-20T10:31:12.104Z</time>
      </trkpt>
      <trkpt lat="42.1885085105896" lon="2.770700454711914">
        <ele>124.24931833871338</ele>
        <time>2021-07-20T10:31:17.567Z</time>
      </trkpt>
      <trkpt lat="42.18852996826172" lon="2.7703678607940674">
        <ele>124.3926168185487</ele>
        <time>2021-07-20T10:31:23.034Z</time>
      </trkpt>
      <trkpt lat="42.18849778175354" lon="2.77005672454834">
        <ele>124.57926205820655</ele>
        <time>2021-07-20T10:31:28.505Z</time>
      </trkpt>
      <trkpt lat="42.18843340873718" lon="2.769874334335327">
        <ele>124.82006451542068</ele>
        <time>2021-07-20T10:31:33.978Z</time>
      </trkpt>
      <trkpt lat="42.18791842460632" lon="2.7685868740081787">
        <ele>125.34321076153009</ele>
        <time>2021-07-20T10:31:39.469Z</time>
      </trkpt>
      <trkpt lat="42.187896966934204" lon="2.7681899070739746">
        <ele>125.41825827295754</ele>
        <time>2021-07-20T10:31:44.964Z</time>
      </trkpt>
      <trkpt lat="42.18781122006476" lon="2.7678680419921875">
        <ele>125.59918412581807</ele>
        <time>2021-07-20T10:31:50.464Z</time>
      </trkpt>
      <trkpt lat="42.187596559524536" lon="2.767159938812256">
        <ele>125.71169339238602</ele>
        <time>2021-07-20T10:31:55.973Z</time>
      </trkpt>
      <trkpt lat="42.18742489814758" lon="2.7666878700256348">
        <ele>125.83309819862666</ele>
        <time>2021-07-20T10:32:01.488Z</time>
      </trkpt>
      <trkpt lat="42.18727469444275" lon="2.7663660049438477">
        <ele>125.97196340589404</ele>
        <time>2021-07-20T10:32:07.007Z</time>
      </trkpt>
      <trkpt lat="42.18707084655762" lon="2.7661514282226562">
        <ele>126.20817995850214</ele>
        <time>2021-07-20T10:32:12.531Z</time>
      </trkpt>
      <trkpt lat="42.18656659126282" lon="2.7657973766326904">
        <ele>126.63588747692145</ele>
        <time>2021-07-20T10:32:18.064Z</time>
      </trkpt>
      <trkpt lat="42.18618035316467" lon="2.765454053878784">
        <ele>126.94043293620538</ele>
        <time>2021-07-20T10:32:23.604Z</time>
      </trkpt>
      <trkpt lat="42.18607306480408" lon="2.76530385017395">
        <ele>127.03756431344527</ele>
        <time>2021-07-20T10:32:29.147Z</time>
      </trkpt>
      <trkpt lat="42.18575119972229" lon="2.764488458633423">
        <ele>127.07864187727345</ele>
        <time>2021-07-20T10:32:34.701Z</time>
      </trkpt>
      <trkpt lat="42.18579411506653" lon="2.7637696266174316">
        <ele>126.88017510205098</ele>
        <time>2021-07-20T10:32:40.263Z</time>
      </trkpt>
      <trkpt lat="42.18576192855835" lon="2.763007879257202">
        <ele>126.80080087183075</ele>
        <time>2021-07-20T10:32:45.834Z</time>
      </trkpt>
      <trkpt lat="42.18566536903381" lon="2.762385606765747">
        <ele>126.75943839114221</ele>
        <time>2021-07-20T10:32:51.413Z</time>
      </trkpt>
      <trkpt lat="42.185633182525635" lon="2.7621495723724365">
        <ele>126.67046762432619</ele>
        <time>2021-07-20T10:32:56.995Z</time>
      </trkpt>
      <trkpt lat="42.18579411506653" lon="2.7616453170776367">
        <ele>126.39862943749648</ele>
        <time>2021-07-20T10:33:02.583Z</time>
      </trkpt>
      <trkpt lat="42.18580484390259" lon="2.761484384536743">
        <ele>126.08484572690175</ele>
        <time>2021-07-20T10:33:08.173Z</time>
      </trkpt>
      <trkpt lat="42.18579411506653" lon="2.761259078979492">
        <ele>125.73473737517156</ele>
        <time>2021-07-20T10:33:13.766Z</time>
      </trkpt>
      <trkpt lat="42.18567609786987" lon="2.7610015869140625">
        <ele>125.41167354016932</ele>
        <time>2021-07-20T10:33:19.362Z</time>
      </trkpt>
      <trkpt lat="42.18556880950928" lon="2.76056170463562">
        <ele>124.8414154335519</ele>
        <time>2021-07-20T10:33:24.964Z</time>
      </trkpt>
      <trkpt lat="42.18555808067322" lon="2.7604758739471436">
        <ele>124.35596313864878</ele>
        <time>2021-07-20T10:33:30.567Z</time>
      </trkpt>
      <trkpt lat="42.18556880950928" lon="2.7602827548980713">
        <ele>123.78341426202854</ele>
        <time>2021-07-20T10:33:36.172Z</time>
      </trkpt>
      <trkpt lat="42.18554735183716" lon="2.7601754665374756">
        <ele>123.25492314009037</ele>
        <time>2021-07-20T10:33:41.778Z</time>
      </trkpt>
      <trkpt lat="42.18544006347656" lon="2.759993076324463">
        <ele>122.71539500461282</ele>
        <time>2021-07-20T10:33:47.387Z</time>
      </trkpt>
      <trkpt lat="42.18485006131232" lon="2.7598965167999268">
        <ele>122.40146983156092</ele>
        <time>2021-07-20T10:33:53.006Z</time>
      </trkpt>
      <trkpt lat="42.18479633331299" lon="2.759842872619629">
        <ele>121.90215928286294</ele>
        <time>2021-07-20T10:33:58.626Z</time>
      </trkpt>
      <trkpt lat="42.18476414680481" lon="2.7597784996032715">
        <ele>121.41444894980506</ele>
        <time>2021-07-20T10:34:04.247Z</time>
      </trkpt>
      <trkpt lat="42.18474268913269" lon="2.759692668914795">
        <ele>120.94320037331579</ele>
        <time>2021-07-20T10:34:09.869Z</time>
      </trkpt>
      <trkpt lat="42.18472123146057" lon="2.759542465209961">
        <ele>120.47336717473198</ele>
        <time>2021-07-20T10:34:15.493Z</time>
      </trkpt>
      <trkpt lat="42.18472123146057" lon="2.75931715965271">
        <ele>120.00684421739606</ele>
        <time>2021-07-20T10:34:21.119Z</time>
      </trkpt>
      <trkpt lat="42.1847749594599" lon="2.7591240406036377">
        <ele>119.71188008759124</ele>
        <time>2021-07-20T10:34:26.748Z</time>
      </trkpt>
      <trkpt lat="42.18477487564087" lon="2.7591240406036377">
        <ele>119.52881593122659</ele>
        <time>2021-07-20T10:34:32.377Z</time>
      </trkpt>
      <trkpt lat="42.184860706329346" lon="2.7591025829315186">
        <ele>119.42668018017685</ele>
        <time>2021-07-20T10:34:38.007Z</time>
      </trkpt>
      <trkpt lat="42.184978723526" lon="2.759145498275757">
        <ele>119.39320314287205</ele>
        <time>2021-07-20T10:34:43.639Z</time>
      </trkpt>
      <trkpt lat="42.1850323677063" lon="2.7591240406036377">
        <ele>119.50420416056292</ele>
        <time>2021-07-20T10:34:49.272Z</time>
      </trkpt>
      <trkpt lat="42.18504309654236" lon="2.7590596675872803">
        <ele>119.72324356999383</ele>
        <time>2021-07-20T10:34:54.906Z</time>
      </trkpt>
      <trkpt lat="42.18502163887024" lon="2.759016752243042">
        <ele>120.03219353563838</ele>
        <time>2021-07-20T10:35:00.540Z</time>
      </trkpt>
      <trkpt lat="42.18498945236206" lon="2.7589845657348633">
        <ele>120.44322136907681</ele>
        <time>2021-07-20T10:35:06.175Z</time>
      </trkpt>
      <trkpt lat="42.18474268913269" lon="2.7589845657348633">
        <ele>120.98896272028074</ele>
        <time>2021-07-20T10:35:11.814Z</time>
      </trkpt>
      <trkpt lat="42.184635400772095" lon="2.758941650390625">
        <ele>121.65048352836257</ele>
        <time>2021-07-20T10:35:17.455Z</time>
      </trkpt>
      <trkpt lat="42.1844208240509" lon="2.758737802505493">
        <ele>122.50450871629201</ele>
        <time>2021-07-20T10:35:23.100Z</time>
      </trkpt>
      <trkpt lat="42.18423843383789" lon="2.7585339546203613">
        <ele>123.45942731967736</ele>
        <time>2021-07-20T10:35:28.749Z</time>
      </trkpt>
      <trkpt lat="42.18425989151001" lon="2.7583730220794678">
        <ele>124.45956456737458</ele>
        <time>2021-07-20T10:35:34.400Z</time>
      </trkpt>
      <trkpt lat="42.184356451034546" lon="2.758190631866455">
        <ele>125.51277361462702</ele>
        <time>2021-07-20T10:35:40.053Z</time>
      </trkpt>
      <trkpt lat="42.18445301055908" lon="2.7578043937683105">
        <ele>126.73916483802753</ele>
        <time>2021-07-20T10:35:45.711Z</time>
      </trkpt>
      <trkpt lat="42.184613943099976" lon="2.7575576305389404">
        <ele>128.19877524601412</ele>
        <time>2021-07-20T10:35:51.373Z</time>
      </trkpt>
      <trkpt lat="42.18476414680481" lon="2.7574610710144043">
        <ele>129.53128544998486</ele>
        <time>2021-07-20T10:35:57.038Z</time>
      </trkpt>
      <trkpt lat="42.18481779098511" lon="2.757364511489868">
        <ele>130.91056518547182</ele>
        <time>2021-07-20T10:36:02.704Z</time>
      </trkpt>
      <trkpt lat="42.18482851982117" lon="2.7572035789489746">
        <ele>132.39656906218693</ele>
        <time>2021-07-20T10:36:08.372Z</time>
      </trkpt>
      <trkpt lat="42.18481779098511" lon="2.7571070194244385">
        <ele>133.8907549712194</ele>
        <time>2021-07-20T10:36:14.041Z</time>
      </trkpt>
      <trkpt lat="42.18483924865723" lon="2.7569568157196045">
        <ele>135.4861541885088</ele>
        <time>2021-07-20T10:36:19.712Z</time>
      </trkpt>
      <trkpt lat="42.184903621673584" lon="2.7567636966705322">
        <ele>137.1826121752975</ele>
        <time>2021-07-20T10:36:25.386Z</time>
      </trkpt>
      <trkpt lat="42.184914350509644" lon="2.756474018096924">
        <ele>138.8864483759806</ele>
        <time>2021-07-20T10:36:31.063Z</time>
      </trkpt>
      <trkpt lat="42.18482851982117" lon="2.7559375762939453">
        <ele>140.59932177742553</ele>
        <time>2021-07-20T10:36:36.747Z</time>
      </trkpt>
      <trkpt lat="42.18476414680481" lon="2.755615711212158">
        <ele>142.27284595113375</ele>
        <time>2021-07-20T10:36:42.435Z</time>
      </trkpt>
      <trkpt lat="42.18466758728027" lon="2.7553367614746094">
        <ele>143.8971865043257</ele>
        <time>2021-07-20T10:36:48.126Z</time>
      </trkpt>
      <trkpt lat="42.18458184041083" lon="2.7551329135894775">
        <ele>145.5212703307425</ele>
        <time>2021-07-20T10:36:53.820Z</time>
      </trkpt>
      <trkpt lat="42.184377908706665" lon="2.7545857429504395">
        <ele>147.17633006631786</ele>
        <time>2021-07-20T10:36:59.521Z</time>
      </trkpt>
      <trkpt lat="42.18433499336243" lon="2.754424810409546">
        <ele>148.86648081159746</ele>
        <time>2021-07-20T10:37:05.224Z</time>
      </trkpt>
      <trkpt lat="42.18425989151001" lon="2.753952741622925">
        <ele>150.6916102328443</ele>
        <time>2021-07-20T10:37:10.933Z</time>
      </trkpt>
      <trkpt lat="42.18404531478882" lon="2.753094434738159">
        <ele>152.60368622501966</ele>
        <time>2021-07-20T10:37:16.653Z</time>
      </trkpt>
      <trkpt lat="42.1840238571167" lon="2.7529120445251465">
        <ele>154.2571438469801</ele>
        <time>2021-07-20T10:37:22.375Z</time>
      </trkpt>
      <trkpt lat="42.184077501297" lon="2.752654552459717">
        <ele>155.95410405895637</ele>
        <time>2021-07-20T10:37:28.100Z</time>
      </trkpt>
      <trkpt lat="42.18408823013306" lon="2.7524077892303467">
        <ele>157.580654289385</ele>
        <time>2021-07-20T10:37:33.828Z</time>
      </trkpt>
      <trkpt lat="42.184077501297" lon="2.752021551132202">
        <ele>159.15405402016466</ele>
        <time>2021-07-20T10:37:39.561Z</time>
      </trkpt>
      <trkpt lat="42.18398094177246" lon="2.751528024673462">
        <ele>160.7156916720735</ele>
        <time>2021-07-20T10:37:45.300Z</time>
      </trkpt>
      <trkpt lat="42.183873653411865" lon="2.7512919902801514">
        <ele>162.1767189266491</ele>
        <time>2021-07-20T10:37:51.042Z</time>
      </trkpt>
      <trkpt lat="42.18376636505127" lon="2.751152515411377">
        <ele>163.55578692316953</ele>
        <time>2021-07-20T10:37:56.787Z</time>
      </trkpt>
      <trkpt lat="42.183637619018555" lon="2.7509164810180664">
        <ele>164.88171600910385</ele>
        <time>2021-07-20T10:38:02.535Z</time>
      </trkpt>
      <trkpt lat="42.183358669281006" lon="2.7503156661987305">
        <ele>166.33236295994726</ele>
        <time>2021-07-20T10:38:08.291Z</time>
      </trkpt>
      <trkpt lat="42.18322992324829" lon="2.74983286857605">
        <ele>167.5944368160816</ele>
        <time>2021-07-20T10:38:14.054Z</time>
      </trkpt>
      <trkpt lat="42.18305826187134" lon="2.749006748199463">
        <ele>168.67464366624876</ele>
        <time>2021-07-20T10:38:19.827Z</time>
      </trkpt>
      <trkpt lat="42.18292951583862" lon="2.748556137084961">
        <ele>169.5750113664793</ele>
        <time>2021-07-20T10:38:25.606Z</time>
      </trkpt>
      <trkpt lat="42.18275785446167" lon="2.7483415603637695">
        <ele>170.41031284070357</ele>
        <time>2021-07-20T10:38:31.388Z</time>
      </trkpt>
      <trkpt lat="42.18248963356018" lon="2.7478909492492676">
        <ele>171.15277728342838</ele>
        <time>2021-07-20T10:38:37.177Z</time>
      </trkpt>
      <trkpt lat="42.182135581970215" lon="2.746936082839966">
        <ele>171.74866768707176</ele>
        <time>2021-07-20T10:38:42.979Z</time>
      </trkpt>
      <trkpt lat="42.18206056393683" lon="2.746560573577881">
        <ele>172.24825589837957</ele>
        <time>2021-07-20T10:38:48.785Z</time>
      </trkpt>
      <trkpt lat="42.1820604801178" lon="2.746560573577881">
        <ele>172.62758686552564</ele>
        <time>2021-07-20T10:38:54.591Z</time>
      </trkpt>
      <trkpt lat="42.1820068359375" lon="2.7462708950042725">
        <ele>172.91435014960388</ele>
        <time>2021-07-20T10:39:00.401Z</time>
      </trkpt>
      <trkpt lat="42.181845903396606" lon="2.745809555053711">
        <ele>173.10845740328455</ele>
        <time>2021-07-20T10:39:06.217Z</time>
      </trkpt>
      <trkpt lat="42.18176007270813" lon="2.745487689971924">
        <ele>173.0938890029342</ele>
        <time>2021-07-20T10:39:12.037Z</time>
      </trkpt>
      <trkpt lat="42.18168497085571" lon="2.7450692653656006">
        <ele>172.95310175653725</ele>
        <time>2021-07-20T10:39:17.862Z</time>
      </trkpt>
      <trkpt lat="42.181663513183594" lon="2.744661569595337">
        <ele>172.68238460154163</ele>
        <time>2021-07-20T10:39:23.692Z</time>
      </trkpt>
      <trkpt lat="42.18167424201965" lon="2.744307518005371">
        <ele>172.29683702396912</ele>
        <time>2021-07-20T10:39:29.526Z</time>
      </trkpt>
      <trkpt lat="42.18151330947876" lon="2.743384838104248">
        <ele>171.80867338524286</ele>
        <time>2021-07-20T10:39:35.372Z</time>
      </trkpt>
      <trkpt lat="42.18145966529846" lon="2.7432453632354736">
        <ele>171.27410369815024</ele>
        <time>2021-07-20T10:39:41.219Z</time>
      </trkpt>
      <trkpt lat="42.1813524607569" lon="2.7430951595306396">
        <ele>170.61913239734048</ele>
        <time>2021-07-20T10:39:47.069Z</time>
      </trkpt>
      <trkpt lat="42.18143820762634" lon="2.7429234981536865">
        <ele>169.77500922016424</ele>
        <time>2021-07-20T10:39:52.921Z</time>
      </trkpt>
      <trkpt lat="42.18149193562567" lon="2.742762565612793">
        <ele>168.8246005099132</ele>
        <time>2021-07-20T10:39:58.775Z</time>
      </trkpt>
      <trkpt lat="42.18156695365906" lon="2.742440700531006">
        <ele>167.79273760317568</ele>
        <time>2021-07-20T10:40:04.634Z</time>
      </trkpt>
      <trkpt lat="42.18156703747809" lon="2.742440700531006">
        <ele>166.63369661797677</ele>
        <time>2021-07-20T10:40:10.493Z</time>
      </trkpt>
      <trkpt lat="42.181652784347534" lon="2.741914987564087">
        <ele>165.36247429817803</ele>
        <time>2021-07-20T10:40:16.358Z</time>
      </trkpt>
      <trkpt lat="42.18176007270813" lon="2.740809917449951">
        <ele>163.86877354221747</ele>
        <time>2021-07-20T10:40:22.236Z</time>
      </trkpt>
      <trkpt lat="42.18182444572449" lon="2.740241289138794">
        <ele>162.3692336600107</ele>
        <time>2021-07-20T10:40:28.121Z</time>
      </trkpt>
      <trkpt lat="42.18192100524902" lon="2.7397048473358154">
        <ele>160.7063754004078</ele>
        <time>2021-07-20T10:40:34.013Z</time>
      </trkpt>
      <trkpt lat="42.1820068359375" lon="2.73934006690979">
        <ele>158.97437741881095</ele>
        <time>2021-07-20T10:40:39.909Z</time>
      </trkpt>
      <trkpt lat="42.182135581970215" lon="2.7389538288116455">
        <ele>157.18343959427318</ele>
        <time>2021-07-20T10:40:45.810Z</time>
      </trkpt>
      <trkpt lat="42.18228578567505" lon="2.73858904838562">
        <ele>155.3599531750158</ele>
        <time>2021-07-20T10:40:51.716Z</time>
      </trkpt>
      <trkpt lat="42.18248963356018" lon="2.7381813526153564">
        <ele>153.49581564464128</ele>
        <time>2021-07-20T10:40:57.628Z</time>
      </trkpt>
      <trkpt lat="42.18275785446167" lon="2.7377843856811523">
        <ele>151.675435664895</ele>
        <time>2021-07-20T10:41:03.546Z</time>
      </trkpt>
      <trkpt lat="42.183122634887695" lon="2.73734450340271">
        <ele>149.6112193100107</ele>
        <time>2021-07-20T10:41:09.472Z</time>
      </trkpt>
      <trkpt lat="42.1834659576416" lon="2.7370762825012207">
        <ele>147.64175006288588</ele>
        <time>2021-07-20T10:41:15.405Z</time>
      </trkpt>
      <trkpt lat="42.18371272087097" lon="2.7369046211242676">
        <ele>145.71873099984964</ele>
        <time>2021-07-20T10:41:21.342Z</time>
      </trkpt>
      <trkpt lat="42.18405604362488" lon="2.736722230911255">
        <ele>143.67993504753997</ele>
        <time>2021-07-20T10:41:27.285Z</time>
      </trkpt>
      <trkpt lat="42.18451738357544" lon="2.7365505695343018">
        <ele>141.70301323813865</ele>
        <time>2021-07-20T10:41:33.236Z</time>
      </trkpt>
      <trkpt lat="42.18468904495239" lon="2.7365505695343018">
        <ele>139.865914752291</ele>
        <time>2021-07-20T10:41:39.189Z</time>
      </trkpt>
      <trkpt lat="42.18551524914801" lon="2.7363359928131104">
        <ele>137.92047996762483</ele>
        <time>2021-07-20T10:41:45.156Z</time>
      </trkpt>
      <trkpt lat="42.18551516532898" lon="2.7363359928131104">
        <ele>136.30113555778343</ele>
        <time>2021-07-20T10:41:51.123Z</time>
      </trkpt>
      <trkpt lat="42.18651294708252" lon="2.736067771911621">
        <ele>134.66262808786735</ele>
        <time>2021-07-20T10:41:57.106Z</time>
      </trkpt>
      <trkpt lat="42.18680262565613" lon="2.735949754714966">
        <ele>133.20770238569676</ele>
        <time>2021-07-20T10:42:03.094Z</time>
      </trkpt>
      <trkpt lat="42.18726396560669" lon="2.7357029914855957">
        <ele>131.72995468384323</ele>
        <time>2021-07-20T10:42:09.090Z</time>
      </trkpt>
      <trkpt lat="42.1875" lon="2.7355098724365234">
        <ele>130.53665912952417</ele>
        <time>2021-07-20T10:42:15.090Z</time>
      </trkpt>
      <trkpt lat="42.18768239021301" lon="2.735316753387451">
        <ele>129.5041482860325</ele>
        <time>2021-07-20T10:42:21.094Z</time>
      </trkpt>
      <trkpt lat="42.187886238098145" lon="2.7350914478302">
        <ele>128.41218235873225</ele>
        <time>2021-07-20T10:42:27.102Z</time>
      </trkpt>
      <trkpt lat="42.188090085983276" lon="2.73484468460083">
        <ele>127.51385799185292</ele>
        <time>2021-07-20T10:42:33.115Z</time>
      </trkpt>
      <trkpt lat="42.188444221392274" lon="2.73435115814209">
        <ele>126.75573826621704</ele>
        <time>2021-07-20T10:42:39.136Z</time>
      </trkpt>
      <trkpt lat="42.18933471478522" lon="2.7330422401428223">
        <ele>126.46050966339371</ele>
        <time>2021-07-20T10:42:45.178Z</time>
      </trkpt>
      <trkpt lat="42.18942046165466" lon="2.7329349517822266">
        <ele>126.07815280986557</ele>
        <time>2021-07-20T10:42:51.222Z</time>
      </trkpt>
      <trkpt lat="42.190160835161805" lon="2.731980085372925">
        <ele>125.54596727629615</ele>
        <time>2021-07-20T10:42:57.282Z</time>
      </trkpt>
      <trkpt lat="42.19016075134277" lon="2.731980085372925">
        <ele>125.36217427030911</ele>
        <time>2021-07-20T10:43:03.342Z</time>
      </trkpt>
      <trkpt lat="42.190343141555786" lon="2.7317655086517334">
        <ele>125.25160924599484</ele>
        <time>2021-07-20T10:43:09.406Z</time>
      </trkpt>
      <trkpt lat="42.19043970108032" lon="2.7315938472747803">
        <ele>125.39323138217418</ele>
        <time>2021-07-20T10:43:15.473Z</time>
      </trkpt>
      <trkpt lat="42.190901041030884" lon="2.7310895919799805">
        <ele>125.44643869876384</ele>
        <time>2021-07-20T10:43:21.549Z</time>
      </trkpt>
      <trkpt lat="42.19095468521118" lon="2.7310144901275635">
        <ele>125.74012625408601</ele>
        <time>2021-07-20T10:43:27.626Z</time>
      </trkpt>
      <trkpt lat="42.19098695553839" lon="2.7309179306030273">
        <ele>126.11206958707918</ele>
        <time>2021-07-20T10:43:33.705Z</time>
      </trkpt>
      <trkpt lat="42.191147804260254" lon="2.730531692504883">
        <ele>126.95340482595385</ele>
        <time>2021-07-20T10:43:39.789Z</time>
      </trkpt>
      <trkpt lat="42.191362380981445" lon="2.7301347255706787">
        <ele>127.53811593173911</ele>
        <time>2021-07-20T10:43:45.879Z</time>
      </trkpt>
      <trkpt lat="42.19190955162048" lon="2.7293193340301514">
        <ele>128.32207952180886</ele>
        <time>2021-07-20T10:43:51.982Z</time>
      </trkpt>
      <trkpt lat="42.19226360321045" lon="2.7286970615386963">
        <ele>128.8714709011832</ele>
        <time>2021-07-20T10:43:58.094Z</time>
      </trkpt>
      <trkpt lat="42.19298243522644" lon="2.727334499359131">
        <ele>129.5668164782561</ele>
        <time>2021-07-20T10:44:04.226Z</time>
      </trkpt>
      <trkpt lat="42.19323992729187" lon="2.7267444133758545">
        <ele>130.10306340769236</ele>
        <time>2021-07-20T10:44:10.366Z</time>
      </trkpt>
      <trkpt lat="42.19345458783209" lon="2.726132869720459">
        <ele>131.0254859010616</ele>
        <time>2021-07-20T10:44:16.514Z</time>
      </trkpt>
      <trkpt lat="42.19365835189819" lon="2.7254998683929443">
        <ele>132.19990882597935</ele>
        <time>2021-07-20T10:44:22.670Z</time>
      </trkpt>
      <trkpt lat="42.193872928619385" lon="2.724512815475464">
        <ele>133.22873187010285</ele>
        <time>2021-07-20T10:44:28.839Z</time>
      </trkpt>
      <trkpt lat="42.19393730163574" lon="2.724062204360962">
        <ele>134.2454204570635</ele>
        <time>2021-07-20T10:44:35.013Z</time>
      </trkpt>
      <trkpt lat="42.19410904683173" lon="2.7226030826568604">
        <ele>134.94851546802258</ele>
        <time>2021-07-20T10:44:41.205Z</time>
      </trkpt>
      <trkpt lat="42.19431289471686" lon="2.7211010456085205">
        <ele>135.8644618980522</ele>
        <time>2021-07-20T10:44:47.415Z</time>
      </trkpt>
      <trkpt lat="42.194581031799316" lon="2.7198565006256104">
        <ele>136.82310446246532</ele>
        <time>2021-07-20T10:44:53.640Z</time>
      </trkpt>
      <trkpt lat="42.19477415084839" lon="2.7191054821014404">
        <ele>137.93435486219062</ele>
        <time>2021-07-20T10:44:59.875Z</time>
      </trkpt>
      <trkpt lat="42.19524630345404" lon="2.717571258544922">
        <ele>139.12953363933136</ele>
        <time>2021-07-20T10:45:06.129Z</time>
      </trkpt>
      <trkpt lat="42.195686185732484" lon="2.71612286567688">
        <ele>139.947669671099</ele>
        <time>2021-07-20T10:45:12.402Z</time>
      </trkpt>
      <trkpt lat="42.19568610191345" lon="2.71612286567688">
        <ele>140.78363098088255</ele>
        <time>2021-07-20T10:45:18.675Z</time>
      </trkpt>
      <trkpt lat="42.19605088233948" lon="2.714942693710327">
        <ele>141.74502995314714</ele>
        <time>2021-07-20T10:45:24.963Z</time>
      </trkpt>
      <trkpt lat="42.19710239209235" lon="2.711606025695801">
        <ele>142.38950185389425</ele>
        <time>2021-07-20T10:45:31.294Z</time>
      </trkpt>
      <trkpt lat="42.19761737622321" lon="2.709932327270508">
        <ele>143.16023108024336</ele>
        <time>2021-07-20T10:45:37.647Z</time>
      </trkpt>
      <trkpt lat="42.197660291567445" lon="2.7097928524017334">
        <ele>143.7876248314032</ele>
        <time>2021-07-20T10:45:44.002Z</time>
      </trkpt>
      <trkpt lat="42.19794997014105" lon="2.7088379859924316">
        <ele>144.25984003391295</ele>
        <time>2021-07-20T10:45:50.369Z</time>
      </trkpt>
      <trkpt lat="42.19802498817444" lon="2.7085912227630615">
        <ele>144.82292669405842</ele>
        <time>2021-07-20T10:45:56.739Z</time>
      </trkpt>
      <trkpt lat="42.19817519187927" lon="2.7081406116485596">
        <ele>145.39492252954784</ele>
        <time>2021-07-20T10:46:03.115Z</time>
      </trkpt>
      <trkpt lat="42.19831475056708" lon="2.7076148986816406">
        <ele>145.92496082139945</ele>
        <time>2021-07-20T10:46:09.498Z</time>
      </trkpt>
      <trkpt lat="42.198368394747376" lon="2.707335948944092">
        <ele>146.24218658593935</ele>
        <time>2021-07-20T10:46:15.884Z</time>
      </trkpt>
      <trkpt lat="42.19845414161682" lon="2.706810235977173">
        <ele>146.45597953011725</ele>
        <time>2021-07-20T10:46:22.276Z</time>
      </trkpt>
      <trkpt lat="42.19849705696106" lon="2.7064132690429688">
        <ele>146.5719940214185</ele>
        <time>2021-07-20T10:46:28.673Z</time>
      </trkpt>
      <trkpt lat="42.19852932728827" lon="2.7059519290924072">
        <ele>146.65215794382715</ele>
        <time>2021-07-20T10:46:35.076Z</time>
      </trkpt>
      <trkpt lat="42.19852924346924" lon="2.7059519290924072">
        <ele>146.75903394400075</ele>
        <time>2021-07-20T10:46:41.479Z</time>
      </trkpt>
      <trkpt lat="42.19854005612433" lon="2.705812454223633">
        <ele>146.82507715622512</ele>
        <time>2021-07-20T10:46:47.883Z</time>
      </trkpt>
      <trkpt lat="42.19858297146857" lon="2.7051687240600586">
        <ele>146.8040086351376</ele>
        <time>2021-07-20T10:46:54.295Z</time>
      </trkpt>
      <trkpt lat="42.198636615648866" lon="2.7043533325195312">
        <ele>146.86237389921854</ele>
        <time>2021-07-20T10:47:00.717Z</time>
      </trkpt>
      <trkpt lat="42.198636531829834" lon="2.7043533325195312">
        <ele>146.82908854024615</ele>
        <time>2021-07-20T10:47:07.139Z</time>
      </trkpt>
      <trkpt lat="42.198647260665894" lon="2.7040958404541016">
        <ele>146.78961422421446</ele>
        <time>2021-07-20T10:47:13.564Z</time>
      </trkpt>
      <trkpt lat="42.19869017601013" lon="2.703956365585327">
        <ele>146.72611482726478</ele>
        <time>2021-07-20T10:47:19.991Z</time>
      </trkpt>
      <trkpt lat="42.19872236251831" lon="2.7038705348968506">
        <ele>146.64461927578876</ele>
        <time>2021-07-20T10:47:26.419Z</time>
      </trkpt>
      <trkpt lat="42.1987868193537" lon="2.7038168907165527">
        <ele>146.55050307078466</ele>
        <time>2021-07-20T10:47:32.848Z</time>
      </trkpt>
      <trkpt lat="42.19881892204285" lon="2.703763246536255">
        <ele>146.44783365262958</ele>
        <time>2021-07-20T10:47:39.278Z</time>
      </trkpt>
      <trkpt lat="42.19882973469794" lon="2.7036666870117188">
        <ele>146.34540972468517</ele>
        <time>2021-07-20T10:47:45.709Z</time>
      </trkpt>
      <trkpt lat="42.19881892204285" lon="2.7036023139953613">
        <ele>146.2478809748617</ele>
        <time>2021-07-20T10:47:52.141Z</time>
      </trkpt>
      <trkpt lat="42.19878673553467" lon="2.7035272121429443">
        <ele>146.15978442981657</ele>
        <time>2021-07-20T10:47:58.574Z</time>
      </trkpt>
      <trkpt lat="42.19876527786255" lon="2.70338773727417">
        <ele>146.08551190967734</ele>
        <time>2021-07-20T10:48:05.008Z</time>
      </trkpt>
      <trkpt lat="42.19875454902649" lon="2.7032268047332764">
        <ele>146.0381810080479</ele>
        <time>2021-07-20T10:48:11.444Z</time>
      </trkpt>
      <trkpt lat="42.19879754818976" lon="2.7031409740448">
        <ele>146.00931849437933</ele>
        <time>2021-07-20T10:48:17.882Z</time>
      </trkpt>
      <trkpt lat="42.19879746437073" lon="2.7031409740448">
        <ele>146.0006670628987</ele>
        <time>2021-07-20T10:48:24.320Z</time>
      </trkpt>
      <trkpt lat="42.198840379714966" lon="2.7030444145202637">
        <ele>146.00966893774748</ele>
        <time>2021-07-20T10:48:30.759Z</time>
      </trkpt>
      <trkpt lat="42.19900139607489" lon="2.702840566635132">
        <ele>145.9370117430451</ele>
        <time>2021-07-20T10:48:37.201Z</time>
      </trkpt>
      <trkpt lat="42.19900131225586" lon="2.702840566635132">
        <ele>146.02734391237567</ele>
        <time>2021-07-20T10:48:43.643Z</time>
      </trkpt>
      <trkpt lat="42.19902276992798" lon="2.7028191089630127">
        <ele>146.1419400425973</ele>
        <time>2021-07-20T10:48:50.086Z</time>
      </trkpt>
      <trkpt lat="42.20032095909119" lon="2.701735496520996">
        <ele>146.14422458519883</ele>
        <time>2021-07-20T10:48:56.553Z</time>
      </trkpt>
      <trkpt lat="42.20040678977966" lon="2.701617479324341">
        <ele>146.45427649050544</ele>
        <time>2021-07-20T10:49:03.022Z</time>
      </trkpt>
      <trkpt lat="42.20049262046814" lon="2.7014458179473877">
        <ele>146.87738000666363</ele>
        <time>2021-07-20T10:49:09.494Z</time>
      </trkpt>
      <trkpt lat="42.20052489079535" lon="2.701338529586792">
        <ele>147.19792118734665</ele>
        <time>2021-07-20T10:49:15.967Z</time>
      </trkpt>
      <trkpt lat="42.20053561963141" lon="2.701241970062256">
        <ele>147.5350291812132</ele>
        <time>2021-07-20T10:49:22.441Z</time>
      </trkpt>
      <trkpt lat="42.20053553581238" lon="2.7010703086853027">
        <ele>147.9213458296635</ele>
        <time>2021-07-20T10:49:28.917Z</time>
      </trkpt>
      <trkpt lat="42.20043897628784" lon="2.6999759674072266">
        <ele>148.70807741789605</ele>
        <time>2021-07-20T10:49:35.406Z</time>
      </trkpt>
      <trkpt lat="42.20043897628784" lon="2.6995575428009033">
        <ele>149.10176447384504</ele>
        <time>2021-07-20T10:49:41.900Z</time>
      </trkpt>
      <trkpt lat="42.20050343312323" lon="2.6990747451782227">
        <ele>149.4219396013006</ele>
        <time>2021-07-20T10:49:48.400Z</time>
      </trkpt>
      <trkpt lat="42.20049270428717" lon="2.6989030838012695">
        <ele>149.80307247338226</ele>
        <time>2021-07-20T10:49:54.902Z</time>
      </trkpt>
      <trkpt lat="42.20049262046814" lon="2.6988279819488525">
        <ele>150.22460219228773</ele>
        <time>2021-07-20T10:50:01.405Z</time>
      </trkpt>
      <trkpt lat="42.20040678977966" lon="2.6985061168670654">
        <ele>150.69992430726194</ele>
        <time>2021-07-20T10:50:07.912Z</time>
      </trkpt>
      <trkpt lat="42.200363874435425" lon="2.6982271671295166">
        <ele>151.14422479727392</ele>
        <time>2021-07-20T10:50:14.423Z</time>
      </trkpt>
      <trkpt lat="42.20036395825446" lon="2.6982271671295166">
        <ele>151.57331533702745</ele>
        <time>2021-07-20T10:50:20.934Z</time>
      </trkpt>
      <trkpt lat="42.2003532294184" lon="2.69814133644104">
        <ele>152.00240211749838</ele>
        <time>2021-07-20T10:50:27.446Z</time>
      </trkpt>
      <trkpt lat="42.20031023025513" lon="2.6978516578674316">
        <ele>152.46411904155698</ele>
        <time>2021-07-20T10:50:33.961Z</time>
      </trkpt>
      <trkpt lat="42.20023512840271" lon="2.697272300720215">
        <ele>153.0641009789539</ele>
        <time>2021-07-20T10:50:40.483Z</time>
      </trkpt>
      <trkpt lat="42.20023512840271" lon="2.6971542835235596">
        <ele>153.47538365030124</ele>
        <time>2021-07-20T10:50:47.007Z</time>
      </trkpt>
      <trkpt lat="42.20023521222174" lon="2.6971542835235596">
        <ele>153.88943549174894</ele>
        <time>2021-07-20T10:50:53.531Z</time>
      </trkpt>
      <trkpt lat="42.2002459410578" lon="2.6956629753112793">
        <ele>154.39076075377153</ele>
        <time>2021-07-20T10:51:00.072Z</time>
      </trkpt>
      <trkpt lat="42.20024585723877" lon="2.695620059967041">
        <ele>154.79551094702816</ele>
        <time>2021-07-20T10:51:06.614Z</time>
      </trkpt>
      <trkpt lat="42.20028877258301" lon="2.695448398590088">
        <ele>155.21629288485383</ele>
        <time>2021-07-20T10:51:13.158Z</time>
      </trkpt>
      <trkpt lat="42.20032095909119" lon="2.69539475440979">
        <ele>155.63959364838553</ele>
        <time>2021-07-20T10:51:19.703Z</time>
      </trkpt>
      <trkpt lat="42.200331687927246" lon="2.695319652557373">
        <ele>156.04113234040915</ele>
        <time>2021-07-20T10:51:26.249Z</time>
      </trkpt>
      <trkpt lat="42.200385415926576" lon="2.695223093032837">
        <ele>156.4648158550741</ele>
        <time>2021-07-20T10:51:32.796Z</time>
      </trkpt>
      <trkpt lat="42.200385332107544" lon="2.695223093032837">
        <ele>156.90871255370232</ele>
        <time>2021-07-20T10:51:39.343Z</time>
      </trkpt>
      <trkpt lat="42.20041751861572" lon="2.695169448852539">
        <ele>157.3726621477835</ele>
        <time>2021-07-20T10:51:45.891Z</time>
      </trkpt>
      <trkpt lat="42.20054634846747" lon="2.694922685623169">
        <ele>157.87897271223991</ele>
        <time>2021-07-20T10:51:52.443Z</time>
      </trkpt>
      <trkpt lat="42.20097550190985" lon="2.694171667098999">
        <ele>158.3450524173815</ele>
        <time>2021-07-20T10:51:59.006Z</time>
      </trkpt>
      <trkpt lat="42.20128663815558" lon="2.6936137676239014">
        <ele>158.9072085352627</ele>
        <time>2021-07-20T10:52:05.577Z</time>
      </trkpt>
      <trkpt lat="42.201619232073426" lon="2.6930558681488037">
        <ele>159.5730615492752</ele>
        <time>2021-07-20T10:52:12.157Z</time>
      </trkpt>
      <trkpt lat="42.201876640319824" lon="2.692594528198242">
        <ele>160.2313032949171</ele>
        <time>2021-07-20T10:52:18.743Z</time>
      </trkpt>
      <trkpt lat="42.201876724138856" lon="2.692594528198242">
        <ele>160.9309704633883</ele>
        <time>2021-07-20T10:52:25.329Z</time>
      </trkpt>
      <trkpt lat="42.20215559005737" lon="2.692122459411621">
        <ele>161.68040015085523</ele>
        <time>2021-07-20T10:52:31.923Z</time>
      </trkpt>
      <trkpt lat="42.202155673876405" lon="2.692122459411621">
        <ele>162.48733219934914</ele>
        <time>2021-07-20T10:52:38.517Z</time>
      </trkpt>
      <trkpt lat="42.202391708269715" lon="2.6917147636413574">
        <ele>163.4277334844843</ele>
        <time>2021-07-20T10:52:45.117Z</time>
      </trkpt>
      <trkpt lat="42.20279932022095" lon="2.6910173892974854">
        <ele>164.4793064604244</ele>
        <time>2021-07-20T10:52:51.727Z</time>
      </trkpt>
      <trkpt lat="42.20279940403998" lon="2.6910173892974854">
        <ele>165.44974062003655</ele>
        <time>2021-07-20T10:52:58.337Z</time>
      </trkpt>
      <trkpt lat="42.20303535461426" lon="2.6906204223632812">
        <ele>166.48913088765397</ele>
        <time>2021-07-20T10:53:04.953Z</time>
      </trkpt>
      <trkpt lat="42.20303543843329" lon="2.6906204223632812">
        <ele>167.55833676407784</ele>
        <time>2021-07-20T10:53:11.569Z</time>
      </trkpt>
      <trkpt lat="42.20330365933478" lon="2.6901161670684814">
        <ele>168.78322197180358</ele>
        <time>2021-07-20T10:53:18.193Z</time>
      </trkpt>
      <trkpt lat="42.20331438817084" lon="2.6900947093963623">
        <ele>169.9372352295457</ele>
        <time>2021-07-20T10:53:24.817Z</time>
      </trkpt>
      <trkpt lat="42.20368981361389" lon="2.689450979232788">
        <ele>171.22391763003066</ele>
        <time>2021-07-20T10:53:31.451Z</time>
      </trkpt>
      <trkpt lat="42.20406540669501" lon="2.6887965202331543">
        <ele>172.68682428658275</ele>
        <time>2021-07-20T10:53:38.095Z</time>
      </trkpt>
      <trkpt lat="42.20469840802252" lon="2.6876699924468994">
        <ele>174.34090214939727</ele>
        <time>2021-07-20T10:53:44.755Z</time>
      </trkpt>
      <trkpt lat="42.20496654510498" lon="2.6871979236602783">
        <ele>175.52886769965647</ele>
        <time>2021-07-20T10:53:51.423Z</time>
      </trkpt>
      <trkpt lat="42.205084562301636" lon="2.6869189739227295">
        <ele>176.80149730546674</ele>
        <time>2021-07-20T10:53:58.094Z</time>
      </trkpt>
      <trkpt lat="42.20514893531799" lon="2.6866614818573">
        <ele>178.0266548057977</ele>
        <time>2021-07-20T10:54:04.769Z</time>
      </trkpt>
      <trkpt lat="42.20518112182617" lon="2.6863932609558105">
        <ele>179.23188067643366</ele>
        <time>2021-07-20T10:54:11.447Z</time>
      </trkpt>
      <trkpt lat="42.205181205645204" lon="2.686082124710083">
        <ele>180.40531152411688</ele>
        <time>2021-07-20T10:54:18.128Z</time>
      </trkpt>
      <trkpt lat="42.205170476809144" lon="2.685856819152832">
        <ele>181.564594282227</ele>
        <time>2021-07-20T10:54:24.812Z</time>
      </trkpt>
      <trkpt lat="42.205084562301636" lon="2.685288190841675">
        <ele>182.756521599654</ele>
        <time>2021-07-20T10:54:31.503Z</time>
      </trkpt>
      <trkpt lat="42.20506318844855" lon="2.6850521564483643">
        <ele>183.86620978798302</ele>
        <time>2021-07-20T10:54:38.197Z</time>
      </trkpt>
      <trkpt lat="42.205106019973755" lon="2.6845908164978027">
        <ele>184.93584922024974</ele>
        <time>2021-07-20T10:54:44.896Z</time>
      </trkpt>
      <trkpt lat="42.20514893531799" lon="2.68440842628479">
        <ele>185.9706941438053</ele>
        <time>2021-07-20T10:54:51.598Z</time>
      </trkpt>
      <trkpt lat="42.20524549484253" lon="2.6841509342193604">
        <ele>186.98835395941168</ele>
        <time>2021-07-20T10:54:58.303Z</time>
      </trkpt>
      <trkpt lat="42.2054386138916" lon="2.6838290691375732">
        <ele>188.02383659322987</ele>
        <time>2021-07-20T10:55:05.013Z</time>
      </trkpt>
      <trkpt lat="42.20576047897339" lon="2.683507204055786">
        <ele>188.97171740124622</ele>
        <time>2021-07-20T10:55:11.729Z</time>
      </trkpt>
      <trkpt lat="42.20596432685852" lon="2.683335542678833">
        <ele>189.9750600018011</ele>
        <time>2021-07-20T10:55:18.449Z</time>
      </trkpt>
      <trkpt lat="42.20647931098938" lon="2.6828742027282715">
        <ele>191.05013930032942</ele>
        <time>2021-07-20T10:55:25.179Z</time>
      </trkpt>
      <trkpt lat="42.20658668316901" lon="2.682756185531616">
        <ele>191.81211730296067</ele>
        <time>2021-07-20T10:55:31.911Z</time>
      </trkpt>
      <trkpt lat="42.2066939715296" lon="2.6826274394989014">
        <ele>192.59637869623867</ele>
        <time>2021-07-20T10:55:38.646Z</time>
      </trkpt>
      <trkpt lat="42.20696210861206" lon="2.6821768283843994">
        <ele>193.41975786899997</ele>
        <time>2021-07-20T10:55:45.388Z</time>
      </trkpt>
      <trkpt lat="42.20714449882507" lon="2.6816940307617188">
        <ele>193.96323313219682</ele>
        <time>2021-07-20T10:55:52.136Z</time>
      </trkpt>
      <trkpt lat="42.20725178718567" lon="2.681243419647217">
        <ele>194.3587166181677</ele>
        <time>2021-07-20T10:55:58.890Z</time>
      </trkpt>
      <trkpt lat="42.207348346710205" lon="2.6807498931884766">
        <ele>194.66120571546682</ele>
        <time>2021-07-20T10:56:05.650Z</time>
      </trkpt>
      <trkpt lat="42.207369804382324" lon="2.6802241802215576">
        <ele>195.07115347923246</ele>
        <time>2021-07-20T10:56:12.416Z</time>
      </trkpt>
      <trkpt lat="42.20741271972656" lon="2.680041790008545">
        <ele>195.5310306476452</ele>
        <time>2021-07-20T10:56:19.184Z</time>
      </trkpt>
      <trkpt lat="42.2075092792511" lon="2.67991304397583">
        <ele>196.04839683766346</ele>
        <time>2021-07-20T10:56:25.954Z</time>
      </trkpt>
      <trkpt lat="42.2075629234314" lon="2.6798808574676514">
        <ele>196.51359460931332</ele>
        <time>2021-07-20T10:56:32.725Z</time>
      </trkpt>
      <trkpt lat="42.207605838775635" lon="2.679795026779175">
        <ele>196.9661672433471</ele>
        <time>2021-07-20T10:56:39.498Z</time>
      </trkpt>
      <trkpt lat="42.20763802528381" lon="2.6797091960906982">
        <ele>197.39599993146356</ele>
        <time>2021-07-20T10:56:46.272Z</time>
      </trkpt>
      <trkpt lat="42.207627296447754" lon="2.6795804500579834">
        <ele>197.79613429050073</ele>
        <time>2021-07-20T10:56:53.047Z</time>
      </trkpt>
      <trkpt lat="42.20765948295593" lon="2.6793980598449707">
        <ele>198.20917398765516</ele>
        <time>2021-07-20T10:56:59.825Z</time>
      </trkpt>
      <trkpt lat="42.20773458480835" lon="2.6791727542877197">
        <ele>198.79413422929252</ele>
        <time>2021-07-20T10:57:06.605Z</time>
      </trkpt>
      <trkpt lat="42.20780968666077" lon="2.6789581775665283">
        <ele>199.19551920046825</ele>
        <time>2021-07-20T10:57:13.388Z</time>
      </trkpt>
      <trkpt lat="42.20785268582404" lon="2.6787328720092773">
        <ele>199.52504918883102</ele>
        <time>2021-07-20T10:57:20.174Z</time>
      </trkpt>
      <trkpt lat="42.207863330841064" lon="2.678496837615967">
        <ele>199.75556714995798</ele>
        <time>2021-07-20T10:57:26.963Z</time>
      </trkpt>
      <trkpt lat="42.207841873168945" lon="2.6778852939605713">
        <ele>199.91331015042977</ele>
        <time>2021-07-20T10:57:33.759Z</time>
      </trkpt>
      <trkpt lat="42.207841873168945" lon="2.6773059368133545">
        <ele>199.96285995942543</ele>
        <time>2021-07-20T10:57:40.562Z</time>
      </trkpt>
      <trkpt lat="42.20802426338196" lon="2.676544189453125">
        <ele>200.10769749232202</ele>
        <time>2021-07-20T10:57:47.375Z</time>
      </trkpt>
      <trkpt lat="42.208313941955566" lon="2.6757609844207764">
        <ele>200.20310149303214</ele>
        <time>2021-07-20T10:57:54.198Z</time>
      </trkpt>
      <trkpt lat="42.20852851867676" lon="2.6752567291259766">
        <ele>200.2973997438732</ele>
        <time>2021-07-20T10:58:01.028Z</time>
      </trkpt>
      <trkpt lat="42.209858894348145" lon="2.6727139949798584">
        <ele>200.54653499865174</ele>
        <time>2021-07-20T10:58:07.895Z</time>
      </trkpt>
      <trkpt lat="42.21030950546265" lon="2.6718878746032715">
        <ele>200.2694882261082</ele>
        <time>2021-07-20T10:58:14.774Z</time>
      </trkpt>
      <trkpt lat="42.210609912872314" lon="2.671276330947876">
        <ele>200.03366079589566</ele>
        <time>2021-07-20T10:58:21.662Z</time>
      </trkpt>
      <trkpt lat="42.21078157424927" lon="2.670879364013672">
        <ele>199.80166613958937</ele>
        <time>2021-07-20T10:58:28.555Z</time>
      </trkpt>
      <trkpt lat="42.21151121892035" lon="2.6687657833099365">
        <ele>199.49953941918173</ele>
        <time>2021-07-20T10:58:35.476Z</time>
      </trkpt>
      <trkpt lat="42.211629152297974" lon="2.6683473587036133">
        <ele>199.24755410432078</ele>
        <time>2021-07-20T10:58:42.402Z</time>
      </trkpt>
      <trkpt lat="42.21168279647827" lon="2.6678109169006348">
        <ele>198.97130401201224</ele>
        <time>2021-07-20T10:58:49.335Z</time>
      </trkpt>
      <trkpt lat="42.21170425415039" lon="2.6671993732452393">
        <ele>198.6138756260206</ele>
        <time>2021-07-20T10:58:56.275Z</time>
      </trkpt>
      <trkpt lat="42.21173644065857" lon="2.666909694671631">
        <ele>198.22981687695574</ele>
        <time>2021-07-20T10:59:03.218Z</time>
      </trkpt>
      <trkpt lat="42.211811542510986" lon="2.666555643081665">
        <ele>197.80544516931428</ele>
        <time>2021-07-20T10:59:10.166Z</time>
      </trkpt>
      <trkpt lat="42.211993932724" lon="2.666062116622925">
        <ele>197.41755274713626</ele>
        <time>2021-07-20T10:59:17.120Z</time>
      </trkpt>
      <trkpt lat="42.212347984313965" lon="2.665235996246338">
        <ele>197.00494920766062</ele>
        <time>2021-07-20T10:59:24.086Z</time>
      </trkpt>
      <trkpt lat="42.212594747543335" lon="2.6647746562957764">
        <ele>196.2938987087575</ele>
        <time>2021-07-20T10:59:31.058Z</time>
      </trkpt>
      <trkpt lat="42.21273422241211" lon="2.6645708084106445">
        <ele>195.58977308867986</ele>
        <time>2021-07-20T10:59:38.034Z</time>
      </trkpt>
      <trkpt lat="42.212862968444824" lon="2.66443133354187">
        <ele>194.92839479781583</ele>
        <time>2021-07-20T10:59:45.012Z</time>
      </trkpt>
      <trkpt lat="42.213335037231445" lon="2.6640450954437256">
        <ele>194.21521207248486</ele>
        <time>2021-07-20T10:59:51.999Z</time>
      </trkpt>
      <trkpt lat="42.214611768722534" lon="2.663358449935913">
        <ele>193.1599906478168</ele>
        <time>2021-07-20T10:59:59.008Z</time>
      </trkpt>
      <trkpt lat="42.21479415893555" lon="2.6632297039031982">
        <ele>192.43089151335823</ele>
        <time>2021-07-20T11:00:06.021Z</time>
      </trkpt>
      <trkpt lat="42.214869260787964" lon="2.6631438732147217">
        <ele>191.80652920881812</ele>
        <time>2021-07-20T11:00:13.035Z</time>
      </trkpt>
      <trkpt lat="42.21493363380432" lon="2.6630258560180664">
        <ele>191.18890522482977</ele>
        <time>2021-07-20T11:00:20.051Z</time>
      </trkpt>
      <trkpt lat="42.21523404121399" lon="2.661792039871216">
        <ele>190.77951949770875</ele>
        <time>2021-07-20T11:00:27.082Z</time>
      </trkpt>
      <trkpt lat="42.21524477005005" lon="2.6615989208221436">
        <ele>190.39749625187545</ele>
        <time>2021-07-20T11:00:34.116Z</time>
      </trkpt>
      <trkpt lat="42.21518039703369" lon="2.6613199710845947">
        <ele>190.0352064080689</ele>
        <time>2021-07-20T11:00:41.153Z</time>
      </trkpt>
      <trkpt lat="42.215083837509155" lon="2.661041021347046">
        <ele>189.68067620204118</ele>
        <time>2021-07-20T11:00:48.194Z</time>
      </trkpt>
      <trkpt lat="42.21487998962402" lon="2.6605474948883057">
        <ele>189.27616225876665</ele>
        <time>2021-07-20T11:00:55.241Z</time>
      </trkpt>
      <trkpt lat="42.21477270126343" lon="2.660236358642578">
        <ele>188.83177631687602</ele>
        <time>2021-07-20T11:01:02.292Z</time>
      </trkpt>
      <trkpt lat="42.21471905708313" lon="2.6599466800689697">
        <ele>188.3832720975701</ele>
        <time>2021-07-20T11:01:09.347Z</time>
      </trkpt>
      <trkpt lat="42.21469759941101" lon="2.6597213745117188">
        <ele>187.92300626017152</ele>
        <time>2021-07-20T11:01:16.405Z</time>
      </trkpt>
      <trkpt lat="42.21470832824707" lon="2.6594531536102295">
        <ele>187.59707256053082</ele>
        <time>2021-07-20T11:01:23.466Z</time>
      </trkpt>
      <trkpt lat="42.21474051475525" lon="2.6592278480529785">
        <ele>187.28361272157485</ele>
        <time>2021-07-20T11:01:30.530Z</time>
      </trkpt>
      <trkpt lat="42.214847803115845" lon="2.6588737964630127">
        <ele>186.8623679029214</ele>
        <time>2021-07-20T11:01:37.598Z</time>
      </trkpt>
      <trkpt lat="42.21499800682068" lon="2.65844464302063">
        <ele>186.4874187936094</ele>
        <time>2021-07-20T11:01:44.672Z</time>
      </trkpt>
      <trkpt lat="42.215588092803955" lon="2.656792402267456">
        <ele>185.7662557681226</ele>
        <time>2021-07-20T11:01:51.768Z</time>
      </trkpt>
      <trkpt lat="42.21624255180359" lon="2.654850482940674">
        <ele>185.39654436072266</ele>
        <time>2021-07-20T11:01:58.889Z</time>
      </trkpt>
      <trkpt lat="42.216306924819946" lon="2.6545608043670654">
        <ele>185.02377534500096</ele>
        <time>2021-07-20T11:02:06.014Z</time>
      </trkpt>
      <trkpt lat="42.216349840164185" lon="2.6542603969573975">
        <ele>184.54284878202373</ele>
        <time>2021-07-20T11:02:13.142Z</time>
      </trkpt>
      <trkpt lat="42.216360569000244" lon="2.653874158859253">
        <ele>184.17109696990832</ele>
        <time>2021-07-20T11:02:20.275Z</time>
      </trkpt>
      <trkpt lat="42.21638202667236" lon="2.653498649597168">
        <ele>183.81817611945436</ele>
        <time>2021-07-20T11:02:27.412Z</time>
      </trkpt>
      <trkpt lat="42.21643567085266" lon="2.65344500541687">
        <ele>183.52808202546606</ele>
        <time>2021-07-20T11:02:34.550Z</time>
      </trkpt>
      <trkpt lat="42.21645712852478" lon="2.653369903564453">
        <ele>183.2224284922873</ele>
        <time>2021-07-20T11:02:41.689Z</time>
      </trkpt>
      <trkpt lat="42.21646785736084" lon="2.6532840728759766">
        <ele>182.93613783705322</ele>
        <time>2021-07-20T11:02:48.829Z</time>
      </trkpt>
      <trkpt lat="42.21644639968872" lon="2.6532089710235596">
        <ele>182.63844374319558</ele>
        <time>2021-07-20T11:02:55.970Z</time>
      </trkpt>
      <trkpt lat="42.21641421318054" lon="2.6531338691711426">
        <ele>182.35187718421213</ele>
        <time>2021-07-20T11:03:03.112Z</time>
      </trkpt>
      <trkpt lat="42.216360569000244" lon="2.6530909538269043">
        <ele>182.05861539418322</ele>
        <time>2021-07-20T11:03:10.255Z</time>
      </trkpt>
      <trkpt lat="42.21626400947571" lon="2.652994394302368">
        <ele>181.7583979222178</ele>
        <time>2021-07-20T11:03:17.400Z</time>
      </trkpt>
      <trkpt lat="42.21613526344299" lon="2.652769088745117">
        <ele>181.48435120040455</ele>
        <time>2021-07-20T11:03:24.549Z</time>
      </trkpt>
      <trkpt lat="42.21596368588507" lon="2.652372121810913">
        <ele>181.28827565428122</ele>
        <time>2021-07-20T11:03:31.703Z</time>
      </trkpt>
      <trkpt lat="42.21572756767273" lon="2.6518142223358154">
        <ele>181.2384128527614</ele>
        <time>2021-07-20T11:03:38.865Z</time>
      </trkpt>
      <trkpt lat="42.21564173698425" lon="2.6515889167785645">
        <ele>181.1491099867365</ele>
        <time>2021-07-20T11:03:46.030Z</time>
      </trkpt>
      <trkpt lat="42.215577363967896" lon="2.6513636112213135">
        <ele>181.07927570383416</ele>
        <time>2021-07-20T11:03:53.198Z</time>
      </trkpt>
      <trkpt lat="42.2155237197876" lon="2.6509666442871094">
        <ele>181.11376781072693</ele>
        <time>2021-07-20T11:04:00.370Z</time>
      </trkpt>
      <trkpt lat="42.21549153327942" lon="2.650505304336548">
        <ele>181.0785600864835</ele>
        <time>2021-07-20T11:04:07.548Z</time>
      </trkpt>
      <trkpt lat="42.21555599011481" lon="2.649378776550293">
        <ele>180.87920318521523</ele>
        <time>2021-07-20T11:04:14.739Z</time>
      </trkpt>
      <trkpt lat="42.21558817662299" lon="2.648906707763672">
        <ele>180.9240203123319</ele>
        <time>2021-07-20T11:04:21.936Z</time>
      </trkpt>
      <trkpt lat="42.215598821640015" lon="2.648777961730957">
        <ele>181.05170599242885</ele>
        <time>2021-07-20T11:04:29.135Z</time>
      </trkpt>
      <trkpt lat="42.21563100814819" lon="2.6486921310424805">
        <ele>181.22666345645814</ele>
        <time>2021-07-20T11:04:36.335Z</time>
      </trkpt>
      <trkpt lat="42.21567400731146" lon="2.6486170291900635">
        <ele>181.44689690150994</ele>
        <time>2021-07-20T11:04:43.536Z</time>
      </trkpt>
      <trkpt lat="42.21598505973816" lon="2.6481986045837402">
        <ele>181.84530519807709</ele>
        <time>2021-07-20T11:04:50.744Z</time>
      </trkpt>
      <trkpt lat="42.216070890426636" lon="2.6479947566986084">
        <ele>182.20451446538186</ele>
        <time>2021-07-20T11:04:57.955Z</time>
      </trkpt>
      <trkpt lat="42.216092348098755" lon="2.647855281829834">
        <ele>182.56129441446393</ele>
        <time>2021-07-20T11:05:05.167Z</time>
      </trkpt>
      <trkpt lat="42.216081619262695" lon="2.647683620452881">
        <ele>182.9823296201509</ele>
        <time>2021-07-20T11:05:12.381Z</time>
      </trkpt>
      <trkpt lat="42.216070890426636" lon="2.6475870609283447">
        <ele>183.40033470366723</ele>
        <time>2021-07-20T11:05:19.597Z</time>
      </trkpt>
      <trkpt lat="42.21598505973816" lon="2.6473617553710938">
        <ele>183.78487058412094</ele>
        <time>2021-07-20T11:05:26.816Z</time>
      </trkpt>
      <trkpt lat="42.21568465232849" lon="2.6468253135681152">
        <ele>184.06676653642506</ele>
        <time>2021-07-20T11:05:34.043Z</time>
      </trkpt>
      <trkpt lat="42.21566319465637" lon="2.6467180252075195">
        <ele>184.51403630222455</ele>
        <time>2021-07-20T11:05:41.271Z</time>
      </trkpt>
      <trkpt lat="42.21566319465637" lon="2.6465463638305664">
        <ele>185.01332730907075</ele>
        <time>2021-07-20T11:05:48.501Z</time>
      </trkpt>
      <trkpt lat="42.21568465232849" lon="2.646428346633911">
        <ele>185.54725337660625</ele>
        <time>2021-07-20T11:05:55.732Z</time>
      </trkpt>
      <trkpt lat="42.21566319465637" lon="2.6463210582733154">
        <ele>186.08441525548062</ele>
        <time>2021-07-20T11:06:02.965Z</time>
      </trkpt>
      <trkpt lat="42.21566319465637" lon="2.6461493968963623">
        <ele>186.66133682782998</ele>
        <time>2021-07-20T11:06:10.200Z</time>
      </trkpt>
      <trkpt lat="42.21567392349243" lon="2.64595627784729">
        <ele>187.26296795281144</ele>
        <time>2021-07-20T11:06:17.437Z</time>
      </trkpt>
      <trkpt lat="42.21577048301697" lon="2.645537853240967">
        <ele>187.89361785992875</ele>
        <time>2021-07-20T11:06:24.679Z</time>
      </trkpt>
      <trkpt lat="42.215813398361206" lon="2.6452481746673584">
        <ele>188.50149025641656</ele>
        <time>2021-07-20T11:06:31.925Z</time>
      </trkpt>
      <trkpt lat="42.215856313705444" lon="2.6444756984710693">
        <ele>189.06924759481961</ele>
        <time>2021-07-20T11:06:39.180Z</time>
      </trkpt>
      <trkpt lat="42.215856397524476" lon="2.6444756984710693">
        <ele>189.6632738562159</ele>
        <time>2021-07-20T11:06:46.435Z</time>
      </trkpt>
      <trkpt lat="42.2159206867218" lon="2.6433920860290527">
        <ele>190.3458786658267</ele>
        <time>2021-07-20T11:06:53.703Z</time>
      </trkpt>
      <trkpt lat="42.21592077054083" lon="2.6433920860290527">
        <ele>190.9356976177387</ele>
        <time>2021-07-20T11:07:00.971Z</time>
      </trkpt>
      <trkpt lat="42.21599587239325" lon="2.642233371734619">
        <ele>191.53071636408248</ele>
        <time>2021-07-20T11:07:08.253Z</time>
      </trkpt>
      <trkpt lat="42.2160279750824" lon="2.6416540145874023">
        <ele>192.1137959927219</ele>
        <time>2021-07-20T11:07:15.542Z</time>
      </trkpt>
      <trkpt lat="42.216060161590576" lon="2.6414072513580322">
        <ele>192.6593159442234</ele>
        <time>2021-07-20T11:07:22.834Z</time>
      </trkpt>
      <trkpt lat="42.216596603393555" lon="2.641535997390747">
        <ele>193.3110374975363</ele>
        <time>2021-07-20T11:07:30.134Z</time>
      </trkpt>
      <trkpt lat="42.21670389175415" lon="2.6415467262268066">
        <ele>193.89073249706888</ele>
        <time>2021-07-20T11:07:37.436Z</time>
      </trkpt>
      <trkpt lat="42.216875636950135" lon="2.641535997390747">
        <ele>194.5040451090876</ele>
        <time>2021-07-20T11:07:44.741Z</time>
      </trkpt>
      <trkpt lat="42.217036485672" lon="2.64146089553833">
        <ele>195.05471107243886</ele>
        <time>2021-07-20T11:07:52.048Z</time>
      </trkpt>
      <trkpt lat="42.217100858688354" lon="2.6414072513580322">
        <ele>195.48925782151548</ele>
        <time>2021-07-20T11:07:59.357Z</time>
      </trkpt>
      <trkpt lat="42.21722960472107" lon="2.641267776489258">
        <ele>195.88502718973155</ele>
        <time>2021-07-20T11:08:06.668Z</time>
      </trkpt>
      <trkpt lat="42.2173369769007" lon="2.6410961151123047">
        <ele>196.19831661932483</ele>
        <time>2021-07-20T11:08:13.982Z</time>
      </trkpt>
      <trkpt lat="42.21741199493408" lon="2.6409029960632324">
        <ele>196.4342568804882</ele>
        <time>2021-07-20T11:08:21.299Z</time>
      </trkpt>
      <trkpt lat="42.21745491027832" lon="2.640688419342041">
        <ele>196.60553500283515</ele>
        <time>2021-07-20T11:08:28.618Z</time>
      </trkpt>
      <trkpt lat="42.217551469802856" lon="2.6404309272766113">
        <ele>196.77925219568317</ele>
        <time>2021-07-20T11:08:35.941Z</time>
      </trkpt>
      <trkpt lat="42.217605113983154" lon="2.640388011932373">
        <ele>196.94371040591614</ele>
        <time>2021-07-20T11:08:43.265Z</time>
      </trkpt>
      <trkpt lat="42.21764802932739" lon="2.640312910079956">
        <ele>197.05285840800587</ele>
        <time>2021-07-20T11:08:50.590Z</time>
      </trkpt>
      <trkpt lat="42.2176802996546" lon="2.6402270793914795">
        <ele>197.110843143068</ele>
        <time>2021-07-20T11:08:57.916Z</time>
      </trkpt>
      <trkpt lat="42.21766948699951" lon="2.6401305198669434">
        <ele>197.08236014665403</ele>
        <time>2021-07-20T11:09:05.243Z</time>
      </trkpt>
      <trkpt lat="42.217648113146424" lon="2.6400554180145264">
        <ele>197.04366988106432</ele>
        <time>2021-07-20T11:09:12.571Z</time>
      </trkpt>
      <trkpt lat="42.217605113983154" lon="2.639991044998169">
        <ele>197.00982632415133</ele>
        <time>2021-07-20T11:09:19.900Z</time>
      </trkpt>
      <trkpt lat="42.217551469802856" lon="2.6399481296539307">
        <ele>196.98777695587532</ele>
        <time>2021-07-20T11:09:27.230Z</time>
      </trkpt>
      <trkpt lat="42.2174334526062" lon="2.6397335529327393">
        <ele>196.9352738613931</ele>
        <time>2021-07-20T11:09:34.563Z</time>
      </trkpt>
      <trkpt lat="42.2172833327204" lon="2.639390230178833">
        <ele>196.8854275226475</ele>
        <time>2021-07-20T11:09:41.901Z</time>
      </trkpt>
      <trkpt lat="42.21718668937683" lon="2.639164924621582">
        <ele>196.88587451688278</ele>
        <time>2021-07-20T11:09:49.242Z</time>
      </trkpt>
      <trkpt lat="42.217090129852295" lon="2.6388323307037354">
        <ele>196.95147588573266</ele>
        <time>2021-07-20T11:09:56.587Z</time>
      </trkpt>
      <trkpt lat="42.21691846847534" lon="2.6380062103271484">
        <ele>197.14149599609303</ele>
        <time>2021-07-20T11:10:03.943Z</time>
      </trkpt>
      <trkpt lat="42.216832637786865" lon="2.6373839378356934">
        <ele>197.22432321201393</ele>
        <time>2021-07-20T11:10:11.306Z</time>
      </trkpt>
      <trkpt lat="42.21675753593445" lon="2.636590003967285">
        <ele>197.23152112147105</ele>
        <time>2021-07-20T11:10:18.679Z</time>
      </trkpt>
      <trkpt lat="42.21674680709839" lon="2.635999917984009">
        <ele>197.50729506189816</ele>
        <time>2021-07-20T11:10:26.059Z</time>
      </trkpt>
      <trkpt lat="42.21674689091742" lon="2.635999917984009">
        <ele>197.757678897847</ele>
        <time>2021-07-20T11:10:33.439Z</time>
      </trkpt>
      <trkpt lat="42.21674680709839" lon="2.6352596282958984">
        <ele>198.046621903554</ele>
        <time>2021-07-20T11:10:40.827Z</time>
      </trkpt>
      <trkpt lat="42.21676826477051" lon="2.633875608444214">
        <ele>198.41917187752014</ele>
        <time>2021-07-20T11:10:48.232Z</time>
      </trkpt>
      <trkpt lat="42.21675753593445" lon="2.6334786415100098">
        <ele>198.88602543347145</ele>
        <time>2021-07-20T11:10:55.642Z</time>
      </trkpt>
      <trkpt lat="42.21669316291809" lon="2.6326310634613037">
        <ele>199.25650587583416</ele>
        <time>2021-07-20T11:11:03.062Z</time>
      </trkpt>
      <trkpt lat="42.21656450070441" lon="2.631622552871704">
        <ele>199.7555036327753</ele>
        <time>2021-07-20T11:11:10.494Z</time>
      </trkpt>
      <trkpt lat="42.21651077270508" lon="2.631300687789917">
        <ele>200.2366846165466</ele>
        <time>2021-07-20T11:11:17.930Z</time>
      </trkpt>
      <trkpt lat="42.216328382492065" lon="2.6306354999542236">
        <ele>200.7846835216202</ele>
        <time>2021-07-20T11:11:25.374Z</time>
      </trkpt>
      <trkpt lat="42.21617817878723" lon="2.630249261856079">
        <ele>201.23803199535837</ele>
        <time>2021-07-20T11:11:32.823Z</time>
      </trkpt>
      <trkpt lat="42.21594214439392" lon="2.6297128200531006">
        <ele>201.6975522244189</ele>
        <time>2021-07-20T11:11:40.280Z</time>
      </trkpt>
      <trkpt lat="42.21574902534485" lon="2.6293158531188965">
        <ele>202.0710984511806</ele>
        <time>2021-07-20T11:11:47.742Z</time>
      </trkpt>
      <trkpt lat="42.215416431427" lon="2.6287150382995605">
        <ele>202.31209824625356</ele>
        <time>2021-07-20T11:11:55.213Z</time>
      </trkpt>
      <trkpt lat="42.214611768722534" lon="2.6274490356445312">
        <ele>202.4254275702445</ele>
        <time>2021-07-20T11:12:02.704Z</time>
      </trkpt>
      <trkpt lat="42.21448302268982" lon="2.6272237300872803">
        <ele>202.53078147714658</ele>
        <time>2021-07-20T11:12:10.199Z</time>
      </trkpt>
      <trkpt lat="42.21428990364075" lon="2.6267945766448975">
        <ele>202.57148731706945</ele>
        <time>2021-07-20T11:12:17.700Z</time>
      </trkpt>
      <trkpt lat="42.213850021362305" lon="2.6257002353668213">
        <ele>202.5950419082779</ele>
        <time>2021-07-20T11:12:25.215Z</time>
      </trkpt>
      <trkpt lat="42.213560342788696" lon="2.625002861022949">
        <ele>202.5323182599177</ele>
        <time>2021-07-20T11:12:32.740Z</time>
      </trkpt>
      <trkpt lat="42.21338868141174" lon="2.6246917247772217">
        <ele>202.36053017393306</ele>
        <time>2021-07-20T11:12:40.269Z</time>
      </trkpt>
      <trkpt lat="42.21324920654297" lon="2.6245415210723877">
        <ele>202.1616323685577</ele>
        <time>2021-07-20T11:12:47.801Z</time>
      </trkpt>
      <trkpt lat="42.21298098564148" lon="2.624305486679077">
        <ele>201.88611268934426</ele>
        <time>2021-07-20T11:12:55.338Z</time>
      </trkpt>
      <trkpt lat="42.21277713775635" lon="2.624187469482422">
        <ele>201.58613210653976</ele>
        <time>2021-07-20T11:13:02.879Z</time>
      </trkpt>
      <trkpt lat="42.21277722157538" lon="2.624187469482422">
        <ele>201.30024570468493</ele>
        <time>2021-07-20T11:13:10.420Z</time>
      </trkpt>
      <trkpt lat="42.21250891685486" lon="2.6239943504333496">
        <ele>200.94033986710204</ele>
        <time>2021-07-20T11:13:17.966Z</time>
      </trkpt>
      <trkpt lat="42.21233733929694" lon="2.623811960220337">
        <ele>200.51202412097936</ele>
        <time>2021-07-20T11:13:25.515Z</time>
      </trkpt>
      <trkpt lat="42.2122944239527" lon="2.6237475872039795">
        <ele>200.08903813239613</ele>
        <time>2021-07-20T11:13:33.065Z</time>
      </trkpt>
      <trkpt lat="42.21220850944519" lon="2.623629570007324">
        <ele>199.61175645742654</ele>
        <time>2021-07-20T11:13:40.617Z</time>
      </trkpt>
      <trkpt lat="42.212122678756714" lon="2.623436450958252">
        <ele>199.11661039716805</ele>
        <time>2021-07-20T11:13:48.172Z</time>
      </trkpt>
      <trkpt lat="42.212069034576416" lon="2.6233184337615967">
        <ele>198.59699924975513</ele>
        <time>2021-07-20T11:13:55.729Z</time>
      </trkpt>
      <trkpt lat="42.211993932724" lon="2.6230287551879883">
        <ele>198.050020569337</ele>
        <time>2021-07-20T11:14:03.289Z</time>
      </trkpt>
      <trkpt lat="42.2119402885437" lon="2.622556686401367">
        <ele>197.51330519991222</ele>
        <time>2021-07-20T11:14:10.855Z</time>
      </trkpt>
      <trkpt lat="42.21190810203552" lon="2.6220738887786865">
        <ele>197.02208509973946</ele>
        <time>2021-07-20T11:14:18.427Z</time>
      </trkpt>
      <trkpt lat="42.211897457018495" lon="2.6210010051727295">
        <ele>196.49616846524788</ele>
        <time>2021-07-20T11:14:26.011Z</time>
      </trkpt>
      <trkpt lat="42.21197247505188" lon="2.620067596435547">
        <ele>195.81721787071353</ele>
        <time>2021-07-20T11:14:33.607Z</time>
      </trkpt>
      <trkpt lat="42.212101304903626" lon="2.619220018386841">
        <ele>195.0542409609065</ele>
        <time>2021-07-20T11:14:41.213Z</time>
      </trkpt>
      <trkpt lat="42.212326526641846" lon="2.617868185043335">
        <ele>194.36996770808054</ele>
        <time>2021-07-20T11:14:48.835Z</time>
      </trkpt>
      <trkpt lat="42.21232661046088" lon="2.617868185043335">
        <ele>193.6571790107779</ele>
        <time>2021-07-20T11:14:56.457Z</time>
      </trkpt>
      <trkpt lat="42.21241235733032" lon="2.617321014404297">
        <ele>192.93145535717386</ele>
        <time>2021-07-20T11:15:04.086Z</time>
      </trkpt>
      <trkpt lat="42.212584018707275" lon="2.616119384765625">
        <ele>192.0050255278835</ele>
        <time>2021-07-20T11:15:11.730Z</time>
      </trkpt>
      <trkpt lat="42.212626934051514" lon="2.6156365871429443">
        <ele>191.15895063846605</ele>
        <time>2021-07-20T11:15:19.379Z</time>
      </trkpt>
      <trkpt lat="42.212584018707275" lon="2.6153039932250977">
        <ele>190.30651518256633</ele>
        <time>2021-07-20T11:15:27.032Z</time>
      </trkpt>
      <trkpt lat="42.2125518321991" lon="2.6151859760284424">
        <ele>189.50977523889082</ele>
        <time>2021-07-20T11:15:34.687Z</time>
      </trkpt>
      <trkpt lat="42.21245527267456" lon="2.614971399307251">
        <ele>188.65722781631453</ele>
        <time>2021-07-20T11:15:42.345Z</time>
      </trkpt>
      <trkpt lat="42.2123908996582" lon="2.6148641109466553">
        <ele>187.93575063788998</ele>
        <time>2021-07-20T11:15:50.005Z</time>
      </trkpt>
      <trkpt lat="42.21221923828125" lon="2.614692449569702">
        <ele>187.23683987186556</ele>
        <time>2021-07-20T11:15:57.668Z</time>
      </trkpt>
      <trkpt lat="42.211811542510986" lon="2.6144564151763916">
        <ele>186.55107458200447</ele>
        <time>2021-07-20T11:16:05.338Z</time>
      </trkpt>
      <trkpt lat="42.21163988113403" lon="2.614316940307617">
        <ele>185.8968864362766</ele>
        <time>2021-07-20T11:16:13.011Z</time>
      </trkpt>
      <trkpt lat="42.21152186393738" lon="2.6141560077667236">
        <ele>185.28689018235056</ele>
        <time>2021-07-20T11:16:20.687Z</time>
      </trkpt>
      <trkpt lat="42.21142530441284" lon="2.6139628887176514">
        <ele>184.68604639517199</ele>
        <time>2021-07-20T11:16:28.366Z</time>
      </trkpt>
      <trkpt lat="42.21140384674072" lon="2.6138341426849365">
        <ele>184.13070253210492</ele>
        <time>2021-07-20T11:16:36.046Z</time>
      </trkpt>
      <trkpt lat="42.21139311790466" lon="2.6137161254882812">
        <ele>183.60902723453813</ele>
        <time>2021-07-20T11:16:43.728Z</time>
      </trkpt>
      <trkpt lat="42.21140384674072" lon="2.6136088371276855">
        <ele>183.12376989869074</ele>
        <time>2021-07-20T11:16:51.411Z</time>
      </trkpt>
      <trkpt lat="42.21144676208496" lon="2.613372802734375">
        <ele>182.68653930289065</ele>
        <time>2021-07-20T11:16:59.097Z</time>
      </trkpt>
      <trkpt lat="42.21147894859314" lon="2.613297700881958">
        <ele>182.26800936250496</ele>
        <time>2021-07-20T11:17:06.784Z</time>
      </trkpt>
      <trkpt lat="42.211575508117676" lon="2.6131367683410645">
        <ele>181.88865799859406</ele>
        <time>2021-07-20T11:17:14.473Z</time>
      </trkpt>
      <trkpt lat="42.211629152297974" lon="2.6130616664886475">
        <ele>181.54861178486414</ele>
        <time>2021-07-20T11:17:22.164Z</time>
      </trkpt>
      <trkpt lat="42.21171498298645" lon="2.6130080223083496">
        <ele>181.24350249845406</ele>
        <time>2021-07-20T11:17:29.856Z</time>
      </trkpt>
      <trkpt lat="42.211854457855225" lon="2.613018751144409">
        <ele>180.9860367461643</ele>
        <time>2021-07-20T11:17:37.550Z</time>
      </trkpt>
      <trkpt lat="42.21192955970764" lon="2.6130831241607666">
        <ele>180.78649894462393</ele>
        <time>2021-07-20T11:17:45.246Z</time>
      </trkpt>
      <trkpt lat="42.21197255887091" lon="2.6131904125213623">
        <ele>180.645925915656</ele>
        <time>2021-07-20T11:17:52.943Z</time>
      </trkpt>
      <trkpt lat="42.212069034576416" lon="2.6132547855377197">
        <ele>180.5575158071179</ele>
        <time>2021-07-20T11:18:00.642Z</time>
      </trkpt>
      <trkpt lat="42.212144220247865" lon="2.6132547855377197">
        <ele>180.5291388034429</ele>
        <time>2021-07-20T11:18:08.342Z</time>
      </trkpt>
      <trkpt lat="42.21221923828125" lon="2.6132118701934814">
        <ele>180.56565525637802</ele>
        <time>2021-07-20T11:18:16.043Z</time>
      </trkpt>
      <trkpt lat="42.21225150860846" lon="2.6131582260131836">
        <ele>180.6769262438886</ele>
        <time>2021-07-20T11:18:23.745Z</time>
      </trkpt>
      <trkpt lat="42.21228361129761" lon="2.6130616664886475">
        <ele>180.87119811466565</ele>
        <time>2021-07-20T11:18:31.449Z</time>
      </trkpt>
      <trkpt lat="42.21228369511664" lon="2.612943649291992">
        <ele>181.14915303933213</ele>
        <time>2021-07-20T11:18:39.154Z</time>
      </trkpt>
      <trkpt lat="42.21225142478943" lon="2.6128578186035156">
        <ele>181.51560164908653</ele>
        <time>2021-07-20T11:18:46.860Z</time>
      </trkpt>
      <trkpt lat="42.21224069595337" lon="2.61250376701355">
        <ele>181.9756568453202</ele>
        <time>2021-07-20T11:18:54.570Z</time>
      </trkpt>
      <trkpt lat="42.21240162849426" lon="2.612353563308716">
        <ele>182.5487052815142</ele>
        <time>2021-07-20T11:19:02.283Z</time>
      </trkpt>
      <trkpt lat="42.212809324264526" lon="2.612278461456299">
        <ele>183.2938501148613</ele>
        <time>2021-07-20T11:19:10.003Z</time>
      </trkpt>
      <trkpt lat="42.21291661262512" lon="2.612203359603882">
        <ele>184.09084626537555</ele>
        <time>2021-07-20T11:19:17.725Z</time>
      </trkpt>
      <trkpt lat="42.2130024433136" lon="2.612096071243286">
        <ele>184.98804991819128</ele>
        <time>2021-07-20T11:19:25.449Z</time>
      </trkpt>
      <trkpt lat="42.213066816329956" lon="2.6119351387023926">
        <ele>185.9945176551597</ele>
        <time>2021-07-20T11:19:33.175Z</time>
      </trkpt>
      <trkpt lat="42.213077545166016" lon="2.6118385791778564">
        <ele>187.10452250860635</ele>
        <time>2021-07-20T11:19:40.902Z</time>
      </trkpt>
      <trkpt lat="42.21307762898505" lon="2.6118385791778564">
        <ele>188.32333788766675</ele>
        <time>2021-07-20T11:19:48.629Z</time>
      </trkpt>
      <trkpt lat="42.213131273165345" lon="2.6114308834075928">
        <ele>189.61783222934804</ele>
        <time>2021-07-20T11:19:56.361Z</time>
      </trkpt>
      <trkpt lat="42.21317410469055" lon="2.611023187637329">
        <ele>191.00244267299115</ele>
        <time>2021-07-20T11:20:04.098Z</time>
      </trkpt>
      <trkpt lat="42.21329212188721" lon="2.609971761703491">
        <ele>192.62908327959386</ele>
        <time>2021-07-20T11:20:11.848Z</time>
      </trkpt>
      <trkpt lat="42.213378036394715" lon="2.6094889640808105">
        <ele>194.45545783990514</ele>
        <time>2021-07-20T11:20:19.603Z</time>
      </trkpt>
      <trkpt lat="42.21345313824713" lon="2.6088452339172363">
        <ele>196.3761655020572</ele>
        <time>2021-07-20T11:20:27.366Z</time>
      </trkpt>
      <trkpt lat="42.21354961395264" lon="2.6080405712127686">
        <ele>198.53529182261747</ele>
        <time>2021-07-20T11:20:35.139Z</time>
      </trkpt>
      <trkpt lat="42.213624715805054" lon="2.6078152656555176">
        <ele>200.613494357676</ele>
        <time>2021-07-20T11:20:42.915Z</time>
      </trkpt>
      <trkpt lat="42.21371054649353" lon="2.6076114177703857">
        <ele>202.66679766402143</ele>
        <time>2021-07-20T11:20:50.694Z</time>
      </trkpt>
      <trkpt lat="42.21402168273926" lon="2.6071393489837646">
        <ele>204.82472424763878</ele>
        <time>2021-07-20T11:20:58.480Z</time>
      </trkpt>
      <trkpt lat="42.21420407295227" lon="2.6067638397216797">
        <ele>207.229316730859</ele>
        <time>2021-07-20T11:21:06.271Z</time>
      </trkpt>
      <trkpt lat="42.21442946232855" lon="2.605959177017212">
        <ele>209.7557853721586</ele>
        <time>2021-07-20T11:21:14.073Z</time>
      </trkpt>
      <trkpt lat="42.21450456418097" lon="2.605733871459961">
        <ele>212.07745053119953</ele>
        <time>2021-07-20T11:21:21.878Z</time>
      </trkpt>
      <trkpt lat="42.214644039049745" lon="2.6054227352142334">
        <ele>214.3552297837696</ele>
        <time>2021-07-20T11:21:29.687Z</time>
      </trkpt>
      <trkpt lat="42.214858531951904" lon="2.605036497116089">
        <ele>216.82820986580919</ele>
        <time>2021-07-20T11:21:37.502Z</time>
      </trkpt>
      <trkpt lat="42.21494436264038" lon="2.604811191558838">
        <ele>219.132905323908</ele>
        <time>2021-07-20T11:21:45.320Z</time>
      </trkpt>
      <trkpt lat="42.215073108673096" lon="2.604306936264038">
        <ele>221.56376011581372</ele>
        <time>2021-07-20T11:21:53.144Z</time>
      </trkpt>
      <trkpt lat="42.215105295181274" lon="2.604081630706787">
        <ele>223.72915899285096</ele>
        <time>2021-07-20T11:22:00.971Z</time>
      </trkpt>
      <trkpt lat="42.215116024017334" lon="2.6038670539855957">
        <ele>225.82552816890774</ele>
        <time>2021-07-20T11:22:08.800Z</time>
      </trkpt>
      <trkpt lat="42.21518039703369" lon="2.603931427001953">
        <ele>227.79657642856023</ele>
        <time>2021-07-20T11:22:16.631Z</time>
      </trkpt>
      <trkpt lat="42.215867042541504" lon="2.603888511657715">
        <ele>229.86681051798763</ele>
        <time>2021-07-20T11:22:24.473Z</time>
      </trkpt>
      <trkpt lat="42.215856313705444" lon="2.603781223297119">
        <ele>231.7191737921204</ele>
        <time>2021-07-20T11:22:32.316Z</time>
      </trkpt>
      <trkpt lat="42.2159206867218" lon="2.6027727127075195">
        <ele>233.61757587570142</ele>
        <time>2021-07-20T11:22:40.171Z</time>
      </trkpt>
      <trkpt lat="42.21599578857422" lon="2.6022684574127197">
        <ele>235.31793027172267</ele>
        <time>2021-07-20T11:22:48.032Z</time>
      </trkpt>
      <trkpt lat="42.216103076934814" lon="2.6019680500030518">
        <ele>236.92020137116364</ele>
        <time>2021-07-20T11:22:55.897Z</time>
      </trkpt>
      <trkpt lat="42.216124534606934" lon="2.601742744445801">
        <ele>238.43247389763837</ele>
        <time>2021-07-20T11:23:03.765Z</time>
      </trkpt>
      <trkpt lat="42.216092348098755" lon="2.6003479957580566">
        <ele>239.83735528625004</ele>
        <time>2021-07-20T11:23:11.649Z</time>
      </trkpt>
      <trkpt lat="42.216113805770874" lon="2.6000046730041504">
        <ele>241.12071996852512</ele>
        <time>2021-07-20T11:23:19.537Z</time>
      </trkpt>
      <trkpt lat="42.216113805770874" lon="2.5995969772338867">
        <ele>242.3792982627179</ele>
        <time>2021-07-20T11:23:27.430Z</time>
      </trkpt>
      <trkpt lat="42.21614599227905" lon="2.599092721939087">
        <ele>243.58532228437684</ele>
        <time>2021-07-20T11:23:35.329Z</time>
      </trkpt>
      <trkpt lat="42.21625328063965" lon="2.5980305671691895">
        <ele>244.7205688492415</ele>
        <time>2021-07-20T11:23:43.241Z</time>
      </trkpt>
      <trkpt lat="42.21629619598389" lon="2.597869634628296">
        <ele>245.77875413245496</ele>
        <time>2021-07-20T11:23:51.155Z</time>
      </trkpt>
      <trkpt lat="42.216360569000244" lon="2.5972795486450195">
        <ele>246.84234281907402</ele>
        <time>2021-07-20T11:23:59.076Z</time>
      </trkpt>
      <trkpt lat="42.2164785861969" lon="2.5969040393829346">
        <ele>247.802346030671</ele>
        <time>2021-07-20T11:24:07.002Z</time>
      </trkpt>
      <trkpt lat="42.21647867001593" lon="2.5969040393829346">
        <ele>248.70420385751953</ele>
        <time>2021-07-20T11:24:14.928Z</time>
      </trkpt>
      <trkpt lat="42.216864824295044" lon="2.595573663711548">
        <ele>249.7019276082421</ele>
        <time>2021-07-20T11:24:22.871Z</time>
      </trkpt>
      <trkpt lat="42.217036485672" lon="2.5947797298431396">
        <ele>250.62549999153424</ele>
        <time>2021-07-20T11:24:30.824Z</time>
      </trkpt>
      <trkpt lat="42.217057943344116" lon="2.594500780105591">
        <ele>251.4369237191459</ele>
        <time>2021-07-20T11:24:38.780Z</time>
      </trkpt>
      <trkpt lat="42.217068672180176" lon="2.5941789150238037">
        <ele>252.22790661004692</ele>
        <time>2021-07-20T11:24:46.740Z</time>
      </trkpt>
      <trkpt lat="42.217090129852295" lon="2.594071626663208">
        <ele>253.00967418587757</ele>
        <time>2021-07-20T11:24:54.701Z</time>
      </trkpt>
      <trkpt lat="42.21709021367133" lon="2.594071626663208">
        <ele>253.77307957220967</ele>
        <time>2021-07-20T11:25:02.662Z</time>
      </trkpt>
      <trkpt lat="42.21719741821289" lon="2.5936317443847656">
        <ele>254.51902003986748</ele>
        <time>2021-07-20T11:25:10.629Z</time>
      </trkpt>
      <trkpt lat="42.21724033355713" lon="2.5936102867126465">
        <ele>255.26254241845317</ele>
        <time>2021-07-20T11:25:18.597Z</time>
      </trkpt>
      <trkpt lat="42.21779831685126" lon="2.5912392139434814">
        <ele>256.0525924532558</ele>
        <time>2021-07-20T11:25:26.594Z</time>
      </trkpt>
      <trkpt lat="42.21801280975342" lon="2.5902950763702393">
        <ele>256.8145923870605</ele>
        <time>2021-07-20T11:25:34.603Z</time>
      </trkpt>
      <trkpt lat="42.218366945162416" lon="2.5886857509613037">
        <ele>257.71618296976</ele>
        <time>2021-07-20T11:25:42.632Z</time>
      </trkpt>
      <trkpt lat="42.21920371055603" lon="2.5851988792419434">
        <ele>258.61034981343624</ele>
        <time>2021-07-20T11:25:50.704Z</time>
      </trkpt>
      <trkpt lat="42.2193968296051" lon="2.584480047225952">
        <ele>259.40488024260173</ele>
        <time>2021-07-20T11:25:58.785Z</time>
      </trkpt>
      <trkpt lat="42.2195041179657" lon="2.5841903686523438">
        <ele>260.1607599337142</ele>
        <time>2021-07-20T11:26:06.870Z</time>
      </trkpt>
      <trkpt lat="42.219611406326294" lon="2.583954334259033">
        <ele>260.86335940679487</ele>
        <time>2021-07-20T11:26:14.959Z</time>
      </trkpt>
      <trkpt lat="42.21976161003113" lon="2.58378267288208">
        <ele>261.53217860768484</ele>
        <time>2021-07-20T11:26:23.051Z</time>
      </trkpt>
      <trkpt lat="42.219858169555664" lon="2.5837719440460205">
        <ele>262.17219407202043</ele>
        <time>2021-07-20T11:26:31.144Z</time>
      </trkpt>
      <trkpt lat="42.22027659416199" lon="2.5839436054229736">
        <ele>262.9543072658116</ele>
        <time>2021-07-20T11:26:39.244Z</time>
      </trkpt>
      <trkpt lat="42.220351696014404" lon="2.583986520767212">
        <ele>263.5353183527226</ele>
        <time>2021-07-20T11:26:47.346Z</time>
      </trkpt>
      <trkpt lat="42.22052335739136" lon="2.5840401649475098">
        <ele>264.1143631179458</ele>
        <time>2021-07-20T11:26:55.450Z</time>
      </trkpt>
      <trkpt lat="42.220866680145264" lon="2.584083080291748">
        <ele>264.6786173622499</ele>
        <time>2021-07-20T11:27:03.560Z</time>
      </trkpt>
      <trkpt lat="42.22099542617798" lon="2.5840187072753906">
        <ele>265.0604905358639</ele>
        <time>2021-07-20T11:27:11.672Z</time>
      </trkpt>
      <trkpt lat="42.221102714538574" lon="2.583889961242676">
        <ele>265.36234474225614</ele>
        <time>2021-07-20T11:27:19.786Z</time>
      </trkpt>
      <trkpt lat="42.22119927406311" lon="2.5835466384887695">
        <ele>265.5782819038857</ele>
        <time>2021-07-20T11:27:27.905Z</time>
      </trkpt>
      <trkpt lat="42.22123154439032" lon="2.582709789276123">
        <ele>265.73894797121534</ele>
        <time>2021-07-20T11:27:36.034Z</time>
      </trkpt>
      <trkpt lat="42.22128510475159" lon="2.582366466522217">
        <ele>265.91484170162016</ele>
        <time>2021-07-20T11:27:44.167Z</time>
      </trkpt>
      <trkpt lat="42.22129583358765" lon="2.5819802284240723">
        <ele>266.07846743598816</ele>
        <time>2021-07-20T11:27:52.305Z</time>
      </trkpt>
      <trkpt lat="42.22126364707947" lon="2.5817227363586426">
        <ele>266.17099586793375</ele>
        <time>2021-07-20T11:28:00.446Z</time>
      </trkpt>
      <trkpt lat="42.22119927406311" lon="2.581390142440796">
        <ele>266.1406778698811</ele>
        <time>2021-07-20T11:28:08.591Z</time>
      </trkpt>
      <trkpt lat="42.22123146057129" lon="2.5813257694244385">
        <ele>266.1138847092228</ele>
        <time>2021-07-20T11:28:16.737Z</time>
      </trkpt>
      <trkpt lat="42.22123154439032" lon="2.5811970233917236">
        <ele>266.0088529473636</ele>
        <time>2021-07-20T11:28:24.884Z</time>
      </trkpt>
      <trkpt lat="42.22121000289917" lon="2.5811219215393066">
        <ele>265.86792739560985</ele>
        <time>2021-07-20T11:28:33.032Z</time>
      </trkpt>
      <trkpt lat="42.221134984865785" lon="2.5810468196868896">
        <ele>265.68087275121184</ele>
        <time>2021-07-20T11:28:41.182Z</time>
      </trkpt>
      <trkpt lat="42.221102714538574" lon="2.5810253620147705">
        <ele>265.491000951454</ele>
        <time>2021-07-20T11:28:49.332Z</time>
      </trkpt>
      <trkpt lat="42.22098469734192" lon="2.5809288024902344">
        <ele>265.23821789589783</ele>
        <time>2021-07-20T11:28:57.484Z</time>
      </trkpt>
      <trkpt lat="42.2209095954895" lon="2.5808215141296387">
        <ele>264.9739294576367</ele>
        <time>2021-07-20T11:29:05.638Z</time>
      </trkpt>
      <trkpt lat="42.2209095954895" lon="2.580692768096924">
        <ele>264.6991538526647</ele>
        <time>2021-07-20T11:29:13.794Z</time>
      </trkpt>
      <trkpt lat="42.2209632396698" lon="2.580317258834839">
        <ele>264.3382896726967</ele>
        <time>2021-07-20T11:29:21.954Z</time>
      </trkpt>
      <trkpt lat="42.221070528030396" lon="2.5798022747039795">
        <ele>263.9916857463769</ele>
        <time>2021-07-20T11:29:30.121Z</time>
      </trkpt>
      <trkpt lat="42.22117781639099" lon="2.5794053077697754">
        <ele>263.7237034249877</ele>
        <time>2021-07-20T11:29:38.293Z</time>
      </trkpt>
      <trkpt lat="42.2214138507843" lon="2.5786328315734863">
        <ele>263.64962428181025</ele>
        <time>2021-07-20T11:29:46.475Z</time>
      </trkpt>
      <trkpt lat="42.221564054489136" lon="2.578214406967163">
        <ele>263.5338123676121</ele>
        <time>2021-07-20T11:29:54.662Z</time>
      </trkpt>
      <trkpt lat="42.2219181060791" lon="2.5772488117218018">
        <ele>263.5591713620713</ele>
        <time>2021-07-20T11:30:02.862Z</time>
      </trkpt>
      <trkpt lat="42.222068309783936" lon="2.576240301132202">
        <ele>263.2734962958264</ele>
        <time>2021-07-20T11:30:11.074Z</time>
      </trkpt>
      <trkpt lat="42.22212195396423" lon="2.575671672821045">
        <ele>262.9714474749551</ele>
        <time>2021-07-20T11:30:19.293Z</time>
      </trkpt>
      <trkpt lat="42.22212195396423" lon="2.5751781463623047">
        <ele>262.5854988591044</ele>
        <time>2021-07-20T11:30:27.518Z</time>
      </trkpt>
      <trkpt lat="42.222079038619995" lon="2.574191093444824">
        <ele>262.5488070668176</ele>
        <time>2021-07-20T11:30:35.755Z</time>
      </trkpt>
      <trkpt lat="42.22195029258728" lon="2.573225498199463">
        <ele>262.67187567859384</ele>
        <time>2021-07-20T11:30:44.003Z</time>
      </trkpt>
      <trkpt lat="42.22177863121033" lon="2.5724637508392334">
        <ele>262.54502596527277</ele>
        <time>2021-07-20T11:30:52.261Z</time>
      </trkpt>
      <trkpt lat="42.221606969833374" lon="2.5718307495117188">
        <ele>262.4217912215622</ele>
        <time>2021-07-20T11:31:00.527Z</time>
      </trkpt>
      <trkpt lat="42.22128510475159" lon="2.5709939002990723">
        <ele>262.2620983622314</ele>
        <time>2021-07-20T11:31:08.804Z</time>
      </trkpt>
      <trkpt lat="42.22039461135864" lon="2.569030523300171">
        <ele>261.3015363857064</ele>
        <time>2021-07-20T11:31:17.108Z</time>
      </trkpt>
      <trkpt lat="42.220319509506226" lon="2.568730115890503">
        <ele>260.9446420193607</ele>
        <time>2021-07-20T11:31:25.416Z</time>
      </trkpt>
      <trkpt lat="42.220298051834106" lon="2.5684618949890137">
        <ele>260.6890407011855</ele>
        <time>2021-07-20T11:31:33.727Z</time>
      </trkpt>
      <trkpt lat="42.220298051834106" lon="2.5681614875793457">
        <ele>260.42769140874736</ele>
        <time>2021-07-20T11:31:42.042Z</time>
      </trkpt>
      <trkpt lat="42.220330238342285" lon="2.56780743598938">
        <ele>260.1959552857605</ele>
        <time>2021-07-20T11:31:50.361Z</time>
      </trkpt>
      <trkpt lat="42.22038388252258" lon="2.567528486251831">
        <ele>260.07816869080364</ele>
        <time>2021-07-20T11:31:58.683Z</time>
      </trkpt>
      <trkpt lat="42.22043752670288" lon="2.5673139095306396">
        <ele>259.9704632514903</ele>
        <time>2021-07-20T11:32:07.008Z</time>
      </trkpt>
      <trkpt lat="42.22050189971924" lon="2.567152976989746">
        <ele>259.900091775455</ele>
        <time>2021-07-20T11:32:15.335Z</time>
      </trkpt>
      <trkpt lat="42.22088813781738" lon="2.5663697719573975">
        <ele>260.02549788185513</ele>
        <time>2021-07-20T11:32:23.673Z</time>
      </trkpt>
      <trkpt lat="42.2209632396698" lon="2.5661873817443848">
        <ele>259.9886011257905</ele>
        <time>2021-07-20T11:32:32.014Z</time>
      </trkpt>
      <trkpt lat="42.2210168838501" lon="2.565983533859253">
        <ele>259.9865518729798</ele>
        <time>2021-07-20T11:32:40.358Z</time>
      </trkpt>
      <trkpt lat="42.22103834152222" lon="2.5657260417938232">
        <ele>259.98765689970423</ele>
        <time>2021-07-20T11:32:48.705Z</time>
      </trkpt>
      <trkpt lat="42.2210168838501" lon="2.5651144981384277">
        <ele>259.8722026900484</ele>
        <time>2021-07-20T11:32:57.059Z</time>
      </trkpt>
      <trkpt lat="42.22097396850586" lon="2.564213275909424">
        <ele>259.6880160514602</ele>
        <time>2021-07-20T11:33:05.424Z</time>
      </trkpt>
      <trkpt lat="42.220555543899536" lon="2.5608444213867188">
        <ele>259.9826609769342</ele>
        <time>2021-07-20T11:33:13.829Z</time>
      </trkpt>
      <trkpt lat="42.22053408622742" lon="2.559986114501953">
        <ele>260.0125144778642</ele>
        <time>2021-07-20T11:33:22.244Z</time>
      </trkpt>
      <trkpt lat="42.220566272735596" lon="2.5588274002075195">
        <ele>259.824261808848</ele>
        <time>2021-07-20T11:33:30.673Z</time>
      </trkpt>
      <trkpt lat="42.22065210342407" lon="2.555372714996338">
        <ele>259.88033214953623</ele>
        <time>2021-07-20T11:33:39.143Z</time>
      </trkpt>
      <trkpt lat="42.220652187243104" lon="2.555372714996338">
        <ele>259.87600562189573</ele>
        <time>2021-07-20T11:33:47.613Z</time>
      </trkpt>
      <trkpt lat="42.220652187243104" lon="2.555190324783325">
        <ele>259.8046270712459</ele>
        <time>2021-07-20T11:33:56.085Z</time>
      </trkpt>
      <trkpt lat="42.22066283226013" lon="2.5545144081115723">
        <ele>259.6805124547486</ele>
        <time>2021-07-20T11:34:04.566Z</time>
      </trkpt>
      <trkpt lat="42.22069501876831" lon="2.5538814067840576">
        <ele>259.67750523842045</ele>
        <time>2021-07-20T11:34:13.054Z</time>
      </trkpt>
      <trkpt lat="42.22079157829285" lon="2.5534307956695557">
        <ele>259.77350074059257</ele>
        <time>2021-07-20T11:34:21.548Z</time>
      </trkpt>
      <trkpt lat="42.2209095954895" lon="2.5531303882598877">
        <ele>259.8559601592667</ele>
        <time>2021-07-20T11:34:30.046Z</time>
      </trkpt>
      <trkpt lat="42.22108134068549" lon="2.552926540374756">
        <ele>260.055685435301</ele>
        <time>2021-07-20T11:34:38.547Z</time>
      </trkpt>
      <trkpt lat="42.2212100867182" lon="2.552776336669922">
        <ele>260.30362959243723</ele>
        <time>2021-07-20T11:34:47.051Z</time>
      </trkpt>
      <trkpt lat="42.22127445973456" lon="2.5526905059814453">
        <ele>260.5791709513191</ele>
        <time>2021-07-20T11:34:55.557Z</time>
      </trkpt>
      <trkpt lat="42.221371019259095" lon="2.5525295734405518">
        <ele>260.8957817936157</ele>
        <time>2021-07-20T11:35:04.065Z</time>
      </trkpt>
      <trkpt lat="42.22137093544006" lon="2.5525295734405518">
        <ele>261.26009402690397</ele>
        <time>2021-07-20T11:35:12.573Z</time>
      </trkpt>
      <trkpt lat="42.22143530845642" lon="2.552347183227539">
        <ele>261.7135629522711</ele>
        <time>2021-07-20T11:35:21.083Z</time>
      </trkpt>
      <trkpt lat="42.22145676612854" lon="2.552175521850586">
        <ele>262.1592050610575</ele>
        <time>2021-07-20T11:35:29.595Z</time>
      </trkpt>
      <trkpt lat="42.22142457962036" lon="2.5518858432769775">
        <ele>262.5775810096494</ele>
        <time>2021-07-20T11:35:38.111Z</time>
      </trkpt>
      <trkpt lat="42.221328020095825" lon="2.549954652786255">
        <ele>263.4613128530858</ele>
        <time>2021-07-20T11:35:46.650Z</time>
      </trkpt>
      <trkpt lat="42.221317291259766" lon="2.549750804901123">
        <ele>264.22491494800147</ele>
        <time>2021-07-20T11:35:55.191Z</time>
      </trkpt>
      <trkpt lat="42.221360206604004" lon="2.5494611263275146">
        <ele>265.0723680655322</ele>
        <time>2021-07-20T11:36:03.736Z</time>
      </trkpt>
      <trkpt lat="42.22144603729248" lon="2.5491714477539062">
        <ele>265.9174630660828</ele>
        <time>2021-07-20T11:36:12.285Z</time>
      </trkpt>
      <trkpt lat="42.22144612111151" lon="2.5491714477539062">
        <ele>266.72225248641206</ele>
        <time>2021-07-20T11:36:20.834Z</time>
      </trkpt>
      <trkpt lat="42.221606969833374" lon="2.5487208366394043">
        <ele>267.49947155057765</ele>
        <time>2021-07-20T11:36:29.389Z</time>
      </trkpt>
      <trkpt lat="42.22162842750549" lon="2.5484097003936768">
        <ele>268.49082014074173</ele>
        <time>2021-07-20T11:36:37.947Z</time>
      </trkpt>
      <trkpt lat="42.221617698669434" lon="2.5478732585906982">
        <ele>269.56082070541447</ele>
        <time>2021-07-20T11:36:46.512Z</time>
      </trkpt>
      <trkpt lat="42.221574783325195" lon="2.5476908683776855">
        <ele>270.64214042514243</ele>
        <time>2021-07-20T11:36:55.079Z</time>
      </trkpt>
      <trkpt lat="42.22154259681702" lon="2.547626495361328">
        <ele>271.7270431012653</ele>
        <time>2021-07-20T11:37:03.647Z</time>
      </trkpt>
      <trkpt lat="42.2214674949646" lon="2.5475728511810303">
        <ele>272.90984276157724</ele>
        <time>2021-07-20T11:37:12.216Z</time>
      </trkpt>
      <trkpt lat="42.22139239311218" lon="2.54758358001709">
        <ele>274.11930093849435</ele>
        <time>2021-07-20T11:37:20.786Z</time>
      </trkpt>
      <trkpt lat="42.221306562423706" lon="2.5476694107055664">
        <ele>275.36788412071235</ele>
        <time>2021-07-20T11:37:29.358Z</time>
      </trkpt>
      <trkpt lat="42.22123146057129" lon="2.5478732585906982">
        <ele>276.6177735089416</ele>
        <time>2021-07-20T11:37:37.933Z</time>
      </trkpt>
      <trkpt lat="42.22093105316162" lon="2.549482583999634">
        <ele>277.76012685297246</ele>
        <time>2021-07-20T11:37:46.528Z</time>
      </trkpt>
      <trkpt lat="42.22093113698065" lon="2.549482583999634">
        <ele>279.0286581034144</ele>
        <time>2021-07-20T11:37:55.123Z</time>
      </trkpt>
      <trkpt lat="42.220909679308534" lon="2.5495898723602295">
        <ele>280.3371880984808</ele>
        <time>2021-07-20T11:38:03.719Z</time>
      </trkpt>
      <trkpt lat="42.22088813781738" lon="2.5497400760650635">
        <ele>281.67851722367436</ele>
        <time>2021-07-20T11:38:12.317Z</time>
      </trkpt>
      <trkpt lat="42.220888221636415" lon="2.5497400760650635">
        <ele>283.1021011506707</ele>
        <time>2021-07-20T11:38:20.915Z</time>
      </trkpt>
      <trkpt lat="42.22079157829285" lon="2.550051212310791">
        <ele>284.5979978128836</ele>
        <time>2021-07-20T11:38:29.517Z</time>
      </trkpt>
      <trkpt lat="42.22066283226013" lon="2.550276517868042">
        <ele>286.0047463046916</ele>
        <time>2021-07-20T11:38:38.122Z</time>
      </trkpt>
      <trkpt lat="42.220587730407715" lon="2.55033016204834">
        <ele>287.6189110799146</ele>
        <time>2021-07-20T11:38:46.728Z</time>
      </trkpt>
      <trkpt lat="42.2205126285553" lon="2.5503408908843994">
        <ele>289.3431745109797</ele>
        <time>2021-07-20T11:38:55.336Z</time>
      </trkpt>
      <trkpt lat="42.22039461135864" lon="2.5503408908843994">
        <ele>291.177830839409</ele>
        <time>2021-07-20T11:39:03.946Z</time>
      </trkpt>
      <trkpt lat="42.21976169385016" lon="2.5501585006713867">
        <ele>293.71014768221323</ele>
        <time>2021-07-20T11:39:12.566Z</time>
      </trkpt>
      <trkpt lat="42.21937537193298" lon="2.550051212310791">
        <ele>295.64557918322265</ele>
        <time>2021-07-20T11:39:21.192Z</time>
      </trkpt>
      <trkpt lat="42.21931108273566" lon="2.549976110458374">
        <ele>297.51701317983895</ele>
        <time>2021-07-20T11:39:29.820Z</time>
      </trkpt>
      <trkpt lat="42.21928954124451" lon="2.549879550933838">
        <ele>299.3856253270083</ele>
        <time>2021-07-20T11:39:38.449Z</time>
      </trkpt>
      <trkpt lat="42.21926808357239" lon="2.549203634262085">
        <ele>301.355254705438</ele>
        <time>2021-07-20T11:39:47.086Z</time>
      </trkpt>
      <trkpt lat="42.21926816739142" lon="2.549203634262085">
        <ele>303.22506337049015</ele>
        <time>2021-07-20T11:39:55.723Z</time>
      </trkpt>
      <trkpt lat="42.21925743855536" lon="2.548903226852417">
        <ele>305.11919134481053</ele>
        <time>2021-07-20T11:40:04.363Z</time>
      </trkpt>
      <trkpt lat="42.21923598088324" lon="2.548227310180664">
        <ele>307.0614211065209</ele>
        <time>2021-07-20T11:40:13.011Z</time>
      </trkpt>
      <trkpt lat="42.21921443939209" lon="2.5476372241973877">
        <ele>309.0957084992164</ele>
        <time>2021-07-20T11:40:21.666Z</time>
      </trkpt>
      <trkpt lat="42.21921452321112" lon="2.5476372241973877">
        <ele>310.91967584958877</ele>
        <time>2021-07-20T11:40:30.321Z</time>
      </trkpt>
      <trkpt lat="42.21917152404785" lon="2.5465428829193115">
        <ele>312.84241363582</ele>
        <time>2021-07-20T11:40:38.989Z</time>
      </trkpt>
      <trkpt lat="42.21917160786688" lon="2.5465428829193115">
        <ele>314.59874404798904</ele>
        <time>2021-07-20T11:40:47.657Z</time>
      </trkpt>
      <trkpt lat="42.21916079521179" lon="2.546253204345703">
        <ele>316.2943679717422</ele>
        <time>2021-07-20T11:40:56.329Z</time>
      </trkpt>
      <trkpt lat="42.219160879030824" lon="2.546253204345703">
        <ele>317.95533597462895</ele>
        <time>2021-07-20T11:41:05.001Z</time>
      </trkpt>
      <trkpt lat="42.219085693359375" lon="2.5444936752319336">
        <ele>319.85820180702643</ele>
        <time>2021-07-20T11:41:13.694Z</time>
      </trkpt>
      <trkpt lat="42.21908577717841" lon="2.5444936752319336">
        <ele>321.3913688489082</ele>
        <time>2021-07-20T11:41:22.387Z</time>
      </trkpt>
      <trkpt lat="42.21903204917908" lon="2.543506622314453">
        <ele>323.1421280269699</ele>
        <time>2021-07-20T11:41:31.092Z</time>
      </trkpt>
      <trkpt lat="42.21897840499878" lon="2.543281316757202">
        <ele>324.5546720809647</ele>
        <time>2021-07-20T11:41:39.799Z</time>
      </trkpt>
      <trkpt lat="42.218806743621826" lon="2.542959451675415">
        <ele>325.8871950023631</ele>
        <time>2021-07-20T11:41:48.511Z</time>
      </trkpt>
      <trkpt lat="42.21872099675238" lon="2.542809247970581">
        <ele>327.0831362897131</ele>
        <time>2021-07-20T11:41:57.225Z</time>
      </trkpt>
      <trkpt lat="42.21872091293335" lon="2.542809247970581">
        <ele>328.13917393971917</ele>
        <time>2021-07-20T11:42:05.939Z</time>
      </trkpt>
      <trkpt lat="42.218098640441895" lon="2.541736364364624">
        <ele>329.34513424490564</ele>
        <time>2021-07-20T11:42:14.670Z</time>
      </trkpt>
      <trkpt lat="42.21790552139282" lon="2.541435956954956">
        <ele>330.2151369185558</ele>
        <time>2021-07-20T11:42:23.405Z</time>
      </trkpt>
      <trkpt lat="42.217808961868286" lon="2.541307210922241">
        <ele>330.92741507739515</ele>
        <time>2021-07-20T11:42:32.142Z</time>
      </trkpt>
      <trkpt lat="42.21773386001587" lon="2.541210651397705">
        <ele>331.5058239992285</ele>
        <time>2021-07-20T11:42:40.881Z</time>
      </trkpt>
      <trkpt lat="42.217551469802856" lon="2.541060447692871">
        <ele>331.9552350035583</ele>
        <time>2021-07-20T11:42:49.624Z</time>
      </trkpt>
      <trkpt lat="42.21744418144226" lon="2.5409960746765137">
        <ele>332.26640556057544</ele>
        <time>2021-07-20T11:42:58.368Z</time>
      </trkpt>
      <trkpt lat="42.21720814704895" lon="2.5409209728240967">
        <ele>332.49537638841707</ele>
        <time>2021-07-20T11:43:07.116Z</time>
      </trkpt>
      <trkpt lat="42.21718668937683" lon="2.540513277053833">
        <ele>332.59207670737754</ele>
        <time>2021-07-20T11:43:15.869Z</time>
      </trkpt>
      <trkpt lat="42.217057943344116" lon="2.5386786460876465">
        <ele>332.55036189485656</ele>
        <time>2021-07-20T11:43:24.644Z</time>
      </trkpt>
      <trkpt lat="42.21705802716315" lon="2.5386786460876465">
        <ele>332.3742555907195</ele>
        <time>2021-07-20T11:43:33.419Z</time>
      </trkpt>
      <trkpt lat="42.21675753593445" lon="2.5342583656311035">
        <ele>332.2610127924189</ele>
        <time>2021-07-20T11:43:42.247Z</time>
      </trkpt>
      <trkpt lat="42.21670389175415" lon="2.5338077545166016">
        <ele>331.8100492125616</ele>
        <time>2021-07-20T11:43:51.080Z</time>
      </trkpt>
      <trkpt lat="42.21663951873779" lon="2.5334537029266357">
        <ele>331.2914169133677</ele>
        <time>2021-07-20T11:43:59.918Z</time>
      </trkpt>
      <trkpt lat="42.2165322303772" lon="2.53309965133667">
        <ele>330.65694329959024</ele>
        <time>2021-07-20T11:44:08.760Z</time>
      </trkpt>
      <trkpt lat="42.21640348434448" lon="2.532799243927002">
        <ele>329.96673874692146</ele>
        <time>2021-07-20T11:44:17.606Z</time>
      </trkpt>
      <trkpt lat="42.21624255180359" lon="2.5325417518615723">
        <ele>329.2624321413984</ele>
        <time>2021-07-20T11:44:26.456Z</time>
      </trkpt>
      <trkpt lat="42.216092348098755" lon="2.5323379039764404">
        <ele>328.4526262813707</ele>
        <time>2021-07-20T11:44:35.310Z</time>
      </trkpt>
      <trkpt lat="42.215137565508485" lon="2.53135085105896">
        <ele>327.3456361870235</ele>
        <time>2021-07-20T11:44:44.183Z</time>
      </trkpt>
      <trkpt lat="42.21495517529547" lon="2.5311684608459473">
        <ele>326.6603869504592</ele>
        <time>2021-07-20T11:44:53.060Z</time>
      </trkpt>
      <trkpt lat="42.21452593803406" lon="2.530728578567505">
        <ele>325.9594933137739</ele>
        <time>2021-07-20T11:45:01.945Z</time>
      </trkpt>
      <trkpt lat="42.21427917480469" lon="2.5304388999938965">
        <ele>325.33673585528277</ele>
        <time>2021-07-20T11:45:10.835Z</time>
      </trkpt>
      <trkpt lat="42.214064598083496" lon="2.5301170349121094">
        <ele>324.769867715938</ele>
        <time>2021-07-20T11:45:19.731Z</time>
      </trkpt>
      <trkpt lat="42.2139573097229" lon="2.5298917293548584">
        <ele>324.29761258686386</ele>
        <time>2021-07-20T11:45:28.630Z</time>
      </trkpt>
      <trkpt lat="42.21391439437866" lon="2.529730796813965">
        <ele>323.8433770765574</ele>
        <time>2021-07-20T11:45:37.531Z</time>
      </trkpt>
      <trkpt lat="42.213914478197694" lon="2.529730796813965">
        <ele>323.45132310712023</ele>
        <time>2021-07-20T11:45:46.432Z</time>
      </trkpt>
      <trkpt lat="42.213871479034424" lon="2.529580593109131">
        <ele>323.13326682990476</ele>
        <time>2021-07-20T11:45:55.335Z</time>
      </trkpt>
      <trkpt lat="42.213828563690186" lon="2.5292587280273438">
        <ele>322.83992299360216</ele>
        <time>2021-07-20T11:46:04.242Z</time>
      </trkpt>
      <trkpt lat="42.213817834854126" lon="2.5288617610931396">
        <ele>322.6895761991003</ele>
        <time>2021-07-20T11:46:13.153Z</time>
      </trkpt>
      <trkpt lat="42.213839292526245" lon="2.528325319290161">
        <ele>322.69832840612605</ele>
        <time>2021-07-20T11:46:22.071Z</time>
      </trkpt>
      <trkpt lat="42.21393585205078" lon="2.5275957584381104">
        <ele>322.69949577165767</ele>
        <time>2021-07-20T11:46:30.998Z</time>
      </trkpt>
      <trkpt lat="42.21397885121405" lon="2.5269949436187744">
        <ele>322.8445563081701</ele>
        <time>2021-07-20T11:46:39.932Z</time>
      </trkpt>
      <trkpt lat="42.21398958005011" lon="2.5267910957336426">
        <ele>323.0456886651873</ele>
        <time>2021-07-20T11:46:48.868Z</time>
      </trkpt>
      <trkpt lat="42.21397885121405" lon="2.526458501815796">
        <ele>323.2807236184765</ele>
        <time>2021-07-20T11:46:57.808Z</time>
      </trkpt>
      <trkpt lat="42.21397876739502" lon="2.526458501815796">
        <ele>323.5948421854596</ele>
        <time>2021-07-20T11:47:06.748Z</time>
      </trkpt>
      <trkpt lat="42.21369981765747" lon="2.525160312652588">
        <ele>324.09368538030617</ele>
        <time>2021-07-20T11:47:15.704Z</time>
      </trkpt>
      <trkpt lat="42.21325993537903" lon="2.5227677822113037">
        <ele>324.81858461828347</ele>
        <time>2021-07-20T11:47:24.690Z</time>
      </trkpt>
      <trkpt lat="42.21326001919806" lon="2.5227677822113037">
        <ele>325.2984416187808</ele>
        <time>2021-07-20T11:47:33.676Z</time>
      </trkpt>
      <trkpt lat="42.2131956461817" lon="2.5224459171295166">
        <ele>325.8049563924569</ele>
        <time>2021-07-20T11:47:42.665Z</time>
      </trkpt>
      <trkpt lat="42.213163459673524" lon="2.5222527980804443">
        <ele>326.32251347887905</ele>
        <time>2021-07-20T11:47:51.657Z</time>
      </trkpt>
      <trkpt lat="42.21270203590393" lon="2.519763708114624">
        <ele>327.06563282994205</ele>
        <time>2021-07-20T11:48:00.679Z</time>
      </trkpt>
      <trkpt lat="42.21270211972296" lon="2.519763708114624">
        <ele>327.6657458336001</ele>
        <time>2021-07-20T11:48:09.701Z</time>
      </trkpt>
      <trkpt lat="42.212605476379395" lon="2.519237995147705">
        <ele>328.32178594444906</ele>
        <time>2021-07-20T11:48:18.730Z</time>
      </trkpt>
      <trkpt lat="42.212605560198426" lon="2.519237995147705">
        <ele>328.9474178389926</ele>
        <time>2021-07-20T11:48:27.759Z</time>
      </trkpt>
      <trkpt lat="42.21250891685486" lon="2.518669366836548">
        <ele>329.39585720769617</ele>
        <time>2021-07-20T11:48:36.795Z</time>
      </trkpt>
      <trkpt lat="42.21245527267456" lon="2.5181543827056885">
        <ele>329.90101106796715</ele>
        <time>2021-07-20T11:48:45.837Z</time>
      </trkpt>
      <trkpt lat="42.2124445438385" lon="2.517596483230591">
        <ele>330.55138947451314</ele>
        <time>2021-07-20T11:48:54.886Z</time>
      </trkpt>
      <trkpt lat="42.21243389882147" lon="2.517038583755493">
        <ele>331.31115479854725</ele>
        <time>2021-07-20T11:49:03.941Z</time>
      </trkpt>
      <trkpt lat="42.21243389882147" lon="2.5167596340179443">
        <ele>332.02061283214755</ele>
        <time>2021-07-20T11:49:12.999Z</time>
      </trkpt>
      <trkpt lat="42.21243389882147" lon="2.516469955444336">
        <ele>332.7087522438861</ele>
        <time>2021-07-20T11:49:22.061Z</time>
      </trkpt>
      <trkpt lat="42.21242316998541" lon="2.5159335136413574">
        <ele>333.42641632846846</ele>
        <time>2021-07-20T11:49:31.129Z</time>
      </trkpt>
      <trkpt lat="42.21242316998541" lon="2.515397071838379">
        <ele>334.0382704479899</ele>
        <time>2021-07-20T11:49:40.204Z</time>
      </trkpt>
      <trkpt lat="42.212412441149354" lon="2.5148820877075195">
        <ele>334.61221745755586</ele>
        <time>2021-07-20T11:49:49.285Z</time>
      </trkpt>
      <trkpt lat="42.212412441149354" lon="2.5147533416748047">
        <ele>335.1556835683166</ele>
        <time>2021-07-20T11:49:58.367Z</time>
      </trkpt>
      <trkpt lat="42.21241235733032" lon="2.513551712036133">
        <ele>335.8064158067797</ele>
        <time>2021-07-20T11:50:07.464Z</time>
      </trkpt>
      <trkpt lat="42.212412441149354" lon="2.513551712036133">
        <ele>336.2684893020844</ele>
        <time>2021-07-20T11:50:16.561Z</time>
      </trkpt>
      <trkpt lat="42.21241235733032" lon="2.5126075744628906">
        <ele>336.78084884564885</ele>
        <time>2021-07-20T11:50:25.669Z</time>
      </trkpt>
      <trkpt lat="42.212412441149354" lon="2.5126075744628906">
        <ele>337.1555458736699</ele>
        <time>2021-07-20T11:50:34.777Z</time>
      </trkpt>
      <trkpt lat="42.21241235733032" lon="2.5122320652008057">
        <ele>337.50497450954947</ele>
        <time>2021-07-20T11:50:43.889Z</time>
      </trkpt>
      <trkpt lat="42.212412441149354" lon="2.5122320652008057">
        <ele>337.7858352222786</ele>
        <time>2021-07-20T11:50:53.001Z</time>
      </trkpt>
      <trkpt lat="42.21242308616638" lon="2.511652708053589">
        <ele>338.05053425483766</ele>
        <time>2021-07-20T11:51:02.120Z</time>
      </trkpt>
      <trkpt lat="42.21242316998541" lon="2.511652708053589">
        <ele>338.2385839460338</ele>
        <time>2021-07-20T11:51:11.239Z</time>
      </trkpt>
      <trkpt lat="42.21241235733032" lon="2.511470317840576">
        <ele>338.3701951194977</ele>
        <time>2021-07-20T11:51:20.360Z</time>
      </trkpt>
      <trkpt lat="42.212358713150024" lon="2.5112664699554443">
        <ele>338.46394218272803</ele>
        <time>2021-07-20T11:51:29.484Z</time>
      </trkpt>
      <trkpt lat="42.21229434013367" lon="2.5111377239227295">
        <ele>338.5259116309195</ele>
        <time>2021-07-20T11:51:38.610Z</time>
      </trkpt>
      <trkpt lat="42.2122944239527" lon="2.5111377239227295">
        <ele>338.55894745721275</ele>
        <time>2021-07-20T11:51:47.736Z</time>
      </trkpt>
      <trkpt lat="42.211993932724" lon="2.5105154514312744">
        <ele>338.58381044558985</ele>
        <time>2021-07-20T11:51:56.871Z</time>
      </trkpt>
      <trkpt lat="42.21199401654303" lon="2.5105154514312744">
        <ele>338.56514262410076</ele>
        <time>2021-07-20T11:52:06.006Z</time>
      </trkpt>
      <trkpt lat="42.21189737319946" lon="2.510279417037964">
        <ele>338.5495259858958</ele>
        <time>2021-07-20T11:52:15.144Z</time>
      </trkpt>
      <trkpt lat="42.211897457018495" lon="2.510279417037964">
        <ele>338.5012003490664</ele>
        <time>2021-07-20T11:52:24.282Z</time>
      </trkpt>
      <trkpt lat="42.21177935600281" lon="2.510021924972534">
        <ele>338.4183351444655</ele>
        <time>2021-07-20T11:52:33.423Z</time>
      </trkpt>
      <trkpt lat="42.21177943982184" lon="2.510021924972534">
        <ele>338.3665187292228</ele>
        <time>2021-07-20T11:52:42.564Z</time>
      </trkpt>
      <trkpt lat="42.21101769246161" lon="2.5084125995635986">
        <ele>338.35540922016776</ele>
        <time>2021-07-20T11:52:51.728Z</time>
      </trkpt>
      <trkpt lat="42.2109854221344" lon="2.50838041305542">
        <ele>338.32439369030817</ele>
        <time>2021-07-20T11:53:00.893Z</time>
      </trkpt>
      <trkpt lat="42.21098550595343" lon="2.50838041305542">
        <ele>338.3208012710224</ele>
        <time>2021-07-20T11:53:10.058Z</time>
      </trkpt>
      <trkpt lat="42.21096404828131" lon="2.508358955383301">
        <ele>338.34532989698914</ele>
        <time>2021-07-20T11:53:19.223Z</time>
      </trkpt>
      <trkpt lat="42.21084603108466" lon="2.508251667022705">
        <ele>338.3650890377584</ele>
        <time>2021-07-20T11:53:28.390Z</time>
      </trkpt>
      <trkpt lat="42.21015930175781" lon="2.507725954055786">
        <ele>338.2378330628411</ele>
        <time>2021-07-20T11:53:37.570Z</time>
      </trkpt>
      <trkpt lat="42.2099769115448" lon="2.5075435638427734">
        <ele>338.3253751509309</ele>
        <time>2021-07-20T11:53:46.754Z</time>
      </trkpt>
      <trkpt lat="42.20997699536383" lon="2.5075435638427734">
        <ele>338.55718549285564</ele>
        <time>2021-07-20T11:53:55.938Z</time>
      </trkpt>
      <trkpt lat="42.20990180969238" lon="2.50738263130188">
        <ele>338.85713504953554</ele>
        <time>2021-07-20T11:54:05.124Z</time>
      </trkpt>
      <trkpt lat="42.20984824933112" lon="2.5066745281219482">
        <ele>339.2820629482467</ele>
        <time>2021-07-20T11:54:14.318Z</time>
      </trkpt>
      <trkpt lat="42.209837436676025" lon="2.5065457820892334">
        <ele>339.80731004741125</ele>
        <time>2021-07-20T11:54:23.514Z</time>
      </trkpt>
      <trkpt lat="42.20983752049506" lon="2.5065457820892334">
        <ele>340.3168419941436</ele>
        <time>2021-07-20T11:54:32.710Z</time>
      </trkpt>
      <trkpt lat="42.20974087715149" lon="2.5049149990081787">
        <ele>341.42069747795455</ele>
        <time>2021-07-20T11:54:41.925Z</time>
      </trkpt>
      <trkpt lat="42.20967650413513" lon="2.5047218799591064">
        <ele>342.1077535718591</ele>
        <time>2021-07-20T11:54:51.143Z</time>
      </trkpt>
      <trkpt lat="42.209590673446655" lon="2.5045502185821533">
        <ele>342.8813261475518</ele>
        <time>2021-07-20T11:55:00.363Z</time>
      </trkpt>
      <trkpt lat="42.20953711308539" lon="2.504335641860962">
        <ele>343.6777873025419</ele>
        <time>2021-07-20T11:55:09.586Z</time>
      </trkpt>
      <trkpt lat="42.20953711308539" lon="2.5043249130249023">
        <ele>344.4592135656836</ele>
        <time>2021-07-20T11:55:18.809Z</time>
      </trkpt>
      <trkpt lat="42.2095263004303" lon="2.504239082336426">
        <ele>345.2983175439716</ele>
        <time>2021-07-20T11:55:28.033Z</time>
      </trkpt>
      <trkpt lat="42.20954775810242" lon="2.504185438156128">
        <ele>346.14824173487614</ele>
        <time>2021-07-20T11:55:37.258Z</time>
      </trkpt>
      <trkpt lat="42.20955857075751" lon="2.504056692123413">
        <ele>346.9966503242024</ele>
        <time>2021-07-20T11:55:46.485Z</time>
      </trkpt>
      <trkpt lat="42.20955848693848" lon="2.504056692123413">
        <ele>347.94275540688886</ele>
        <time>2021-07-20T11:55:55.712Z</time>
      </trkpt>
      <trkpt lat="42.20954784192145" lon="2.504013776779175">
        <ele>348.91799735838123</ele>
        <time>2021-07-20T11:56:04.939Z</time>
      </trkpt>
      <trkpt lat="42.20950484275818" lon="2.5039172172546387">
        <ele>349.93554847248345</ele>
        <time>2021-07-20T11:56:14.167Z</time>
      </trkpt>
      <trkpt lat="42.20945128239691" lon="2.503863573074341">
        <ele>351.0169603088089</ele>
        <time>2021-07-20T11:56:23.397Z</time>
      </trkpt>
      <trkpt lat="42.209419095888734" lon="2.5038421154022217">
        <ele>352.1261851485361</ele>
        <time>2021-07-20T11:56:32.627Z</time>
      </trkpt>
      <trkpt lat="42.209343910217285" lon="2.5038421154022217">
        <ele>353.3119726664188</ele>
        <time>2021-07-20T11:56:41.858Z</time>
      </trkpt>
      <trkpt lat="42.209086418151855" lon="2.503659725189209">
        <ele>354.58218331101943</ele>
        <time>2021-07-20T11:56:51.094Z</time>
      </trkpt>
      <trkpt lat="42.20822811126709" lon="2.50213623046875">
        <ele>355.8227437948283</ele>
        <time>2021-07-20T11:57:00.353Z</time>
      </trkpt>
      <trkpt lat="42.208131551742554" lon="2.5019431114196777">
        <ele>357.03069896498334</ele>
        <time>2021-07-20T11:57:09.614Z</time>
      </trkpt>
      <trkpt lat="42.20804572105408" lon="2.5017178058624268">
        <ele>358.2392776391006</ele>
        <time>2021-07-20T11:57:18.878Z</time>
      </trkpt>
      <trkpt lat="42.2080135345459" lon="2.5015676021575928">
        <ele>359.431891980062</ele>
        <time>2021-07-20T11:57:28.144Z</time>
      </trkpt>
      <trkpt lat="42.207863330841064" lon="2.5001943111419678">
        <ele>360.860294185177</ele>
        <time>2021-07-20T11:57:37.427Z</time>
      </trkpt>
      <trkpt lat="42.20771321095526" lon="2.4985098838806152">
        <ele>362.3794936742305</ele>
        <time>2021-07-20T11:57:46.730Z</time>
      </trkpt>
      <trkpt lat="42.20770239830017" lon="2.4984347820281982">
        <ele>363.5125404871981</ele>
        <time>2021-07-20T11:57:56.034Z</time>
      </trkpt>
      <trkpt lat="42.20774531364441" lon="2.498188018798828">
        <ele>364.6376882733997</ele>
        <time>2021-07-20T11:58:05.341Z</time>
      </trkpt>
      <trkpt lat="42.20782049931586" lon="2.498037815093994">
        <ele>365.69567294308143</ele>
        <time>2021-07-20T11:58:14.650Z</time>
      </trkpt>
      <trkpt lat="42.20789551734924" lon="2.497994899749756">
        <ele>366.68229755274024</ele>
        <time>2021-07-20T11:58:23.960Z</time>
      </trkpt>
      <trkpt lat="42.20797061920166" lon="2.4978768825531006">
        <ele>367.63298330588646</ele>
        <time>2021-07-20T11:58:33.272Z</time>
      </trkpt>
      <trkpt lat="42.20798134803772" lon="2.4977803230285645">
        <ele>368.5498719873517</ele>
        <time>2021-07-20T11:58:42.585Z</time>
      </trkpt>
      <trkpt lat="42.20795997418463" lon="2.4976730346679688">
        <ele>369.4318782678265</ele>
        <time>2021-07-20T11:58:51.900Z</time>
      </trkpt>
      <trkpt lat="42.20791697502136" lon="2.4975979328155518">
        <ele>370.26786745357595</ele>
        <time>2021-07-20T11:59:01.216Z</time>
      </trkpt>
      <trkpt lat="42.20782049931586" lon="2.4975335597991943">
        <ele>371.0730198215904</ele>
        <time>2021-07-20T11:59:10.534Z</time>
      </trkpt>
      <trkpt lat="42.20772385597229" lon="2.4975550174713135">
        <ele>371.81757300091874</ele>
        <time>2021-07-20T11:59:19.853Z</time>
      </trkpt>
      <trkpt lat="42.20767021179199" lon="2.4975979328155518">
        <ele>372.5022882025996</ele>
        <time>2021-07-20T11:59:29.173Z</time>
      </trkpt>
      <trkpt lat="42.20760592259467" lon="2.4975979328155518">
        <ele>373.15934716298176</ele>
        <time>2021-07-20T11:59:38.494Z</time>
      </trkpt>
      <trkpt lat="42.20759519375861" lon="2.4975979328155518">
        <ele>373.76343145229333</ele>
        <time>2021-07-20T11:59:47.815Z</time>
      </trkpt>
      <trkpt lat="42.20747709274292" lon="2.4976086616516113">
        <ele>374.36193390642273</ele>
        <time>2021-07-20T11:59:57.138Z</time>
      </trkpt>
      <trkpt lat="42.207348346710205" lon="2.4975979328155518">
        <ele>374.9239104461218</ele>
        <time>2021-07-20T12:00:06.463Z</time>
      </trkpt>
      <trkpt lat="42.20723032951355" lon="2.497512102127075">
        <ele>375.47541883620517</ele>
        <time>2021-07-20T12:00:15.790Z</time>
      </trkpt>
      <trkpt lat="42.207166040316224" lon="2.4974799156188965">
        <ele>375.981559832671</ele>
        <time>2021-07-20T12:00:25.119Z</time>
      </trkpt>
      <trkpt lat="42.20716595649719" lon="2.4974799156188965">
        <ele>376.45800283935546</ele>
        <time>2021-07-20T12:00:34.448Z</time>
      </trkpt>
      <trkpt lat="42.20702656544745" lon="2.497469186782837">
        <ele>376.93981526194636</ele>
        <time>2021-07-20T12:00:43.779Z</time>
      </trkpt>
      <trkpt lat="42.20669388771057" lon="2.497490644454956">
        <ele>377.4349136946714</ele>
        <time>2021-07-20T12:00:53.115Z</time>
      </trkpt>
      <trkpt lat="42.20622190274298" lon="2.4975335597991943">
        <ele>377.88590800974237</ele>
        <time>2021-07-20T12:01:02.459Z</time>
      </trkpt>
      <trkpt lat="42.20585712231696" lon="2.4975764751434326">
        <ele>378.3240818540078</ele>
        <time>2021-07-20T12:01:11.808Z</time>
      </trkpt>
      <trkpt lat="42.20571764744818" lon="2.4975979328155518">
        <ele>378.7900079296783</ele>
        <time>2021-07-20T12:01:21.160Z</time>
      </trkpt>
      <trkpt lat="42.20547088421881" lon="2.497619390487671">
        <ele>379.3005327420859</ele>
        <time>2021-07-20T12:01:30.516Z</time>
      </trkpt>
      <trkpt lat="42.2052884940058" lon="2.49764084815979">
        <ele>379.799893350675</ele>
        <time>2021-07-20T12:01:39.875Z</time>
      </trkpt>
      <trkpt lat="42.20485934056342" lon="2.4976837635040283">
        <ele>380.34811553825716</ele>
        <time>2021-07-20T12:01:49.241Z</time>
      </trkpt>
      <trkpt lat="42.20459111966193" lon="2.4977052211761475">
        <ele>380.8643392202473</ele>
        <time>2021-07-20T12:01:58.611Z</time>
      </trkpt>
      <trkpt lat="42.20434435643256" lon="2.4977266788482666">
        <ele>381.3841791707822</ele>
        <time>2021-07-20T12:02:07.985Z</time>
      </trkpt>
      <trkpt lat="42.20420488156378" lon="2.497737407684326">
        <ele>381.89401145086526</ele>
        <time>2021-07-20T12:02:17.361Z</time>
      </trkpt>
      <trkpt lat="42.20420479774475" lon="2.497737407684326">
        <ele>382.38851706347106</ele>
        <time>2021-07-20T12:02:26.737Z</time>
      </trkpt>
      <trkpt lat="42.20393666066229" lon="2.497769594192505">
        <ele>382.92652241878096</ele>
        <time>2021-07-20T12:02:36.117Z</time>
      </trkpt>
      <trkpt lat="42.203861558809876" lon="2.4977803230285645">
        <ele>383.4490864392691</ele>
        <time>2021-07-20T12:02:45.499Z</time>
      </trkpt>
      <trkpt lat="42.203389490023255" lon="2.497812509536743">
        <ele>384.0420097297482</ele>
        <time>2021-07-20T12:02:54.888Z</time>
      </trkpt>
      <trkpt lat="42.20272421836853" lon="2.497941255569458">
        <ele>384.7313026128853</ele>
        <time>2021-07-20T12:03:04.288Z</time>
      </trkpt>
      <trkpt lat="42.202080488204956" lon="2.498091459274292">
        <ele>385.42412808592394</ele>
        <time>2021-07-20T12:03:13.698Z</time>
      </trkpt>
      <trkpt lat="42.20195174217224" lon="2.4980592727661133">
        <ele>385.96854725893</ele>
        <time>2021-07-20T12:03:23.110Z</time>
      </trkpt>
      <trkpt lat="42.201844453811646" lon="2.4979841709136963">
        <ele>386.522827443557</ele>
        <time>2021-07-20T12:03:32.524Z</time>
      </trkpt>
      <trkpt lat="42.20178016461432" lon="2.4979090690612793">
        <ele>387.08997072025295</ele>
        <time>2021-07-20T12:03:41.940Z</time>
      </trkpt>
      <trkpt lat="42.20170497894287" lon="2.4978768825531006">
        <ele>387.6685314959586</ele>
        <time>2021-07-20T12:03:51.357Z</time>
      </trkpt>
      <trkpt lat="42.20156558789313" lon="2.4978983402252197">
        <ele>388.26387484571063</ele>
        <time>2021-07-20T12:04:00.776Z</time>
      </trkpt>
      <trkpt lat="42.20150113105774" lon="2.4979734420776367">
        <ele>388.88217833296693</ele>
        <time>2021-07-20T12:04:10.197Z</time>
      </trkpt>
      <trkpt lat="42.2014582157135" lon="2.4980592727661133">
        <ele>389.51784307794134</ele>
        <time>2021-07-20T12:04:19.619Z</time>
      </trkpt>
      <trkpt lat="42.20142602920532" lon="2.4981558322906494">
        <ele>390.17267776764197</ele>
        <time>2021-07-20T12:04:29.042Z</time>
      </trkpt>
      <trkpt lat="42.201350927352905" lon="2.4982309341430664">
        <ele>390.8440658580434</ele>
        <time>2021-07-20T12:04:38.467Z</time>
      </trkpt>
      <trkpt lat="42.20124363899231" lon="2.498295307159424">
        <ele>391.5400093906594</ele>
        <time>2021-07-20T12:04:47.893Z</time>
      </trkpt>
      <trkpt lat="42.2007501963526" lon="2.4984025955200195">
        <ele>392.24654861857664</ele>
        <time>2021-07-20T12:04:57.327Z</time>
      </trkpt>
      <trkpt lat="42.20075011253357" lon="2.4984025955200195">
        <ele>392.99635131054697</ele>
        <time>2021-07-20T12:05:06.761Z</time>
      </trkpt>
      <trkpt lat="42.199666583910584" lon="2.498660087585449">
        <ele>394.00884548021634</ele>
        <time>2021-07-20T12:05:16.213Z</time>
      </trkpt>
      <trkpt lat="42.19966650009155" lon="2.498660087585449">
        <ele>394.80237479732847</ele>
        <time>2021-07-20T12:05:25.665Z</time>
      </trkpt>
      <trkpt lat="42.198186004534364" lon="2.4990034103393555">
        <ele>395.73639801239904</ele>
        <time>2021-07-20T12:05:35.141Z</time>
      </trkpt>
      <trkpt lat="42.19778903760016" lon="2.4990999698638916">
        <ele>396.6299089445507</ele>
        <time>2021-07-20T12:05:44.623Z</time>
      </trkpt>
      <trkpt lat="42.19746708869934" lon="2.4991750717163086">
        <ele>397.51905088244814</ele>
        <time>2021-07-20T12:05:54.111Z</time>
      </trkpt>
      <trkpt lat="42.19719886779785" lon="2.4991750717163086">
        <ele>398.44171081335344</ele>
        <time>2021-07-20T12:06:03.603Z</time>
      </trkpt>
      <trkpt lat="42.19700574874878" lon="2.499067783355713">
        <ele>399.3465910886115</ele>
        <time>2021-07-20T12:06:13.098Z</time>
      </trkpt>
      <trkpt lat="42.196898460388184" lon="2.4989068508148193">
        <ele>400.22140894051864</ele>
        <time>2021-07-20T12:06:22.596Z</time>
      </trkpt>
      <trkpt lat="42.196834087371826" lon="2.4986064434051514">
        <ele>401.078507494438</ele>
        <time>2021-07-20T12:06:32.098Z</time>
      </trkpt>
      <trkpt lat="42.19685562886298" lon="2.4978554248809814">
        <ele>401.9169558944957</ele>
        <time>2021-07-20T12:06:41.609Z</time>
      </trkpt>
      <trkpt lat="42.196855545043945" lon="2.4978554248809814">
        <ele>402.73835666090986</ele>
        <time>2021-07-20T12:06:51.120Z</time>
      </trkpt>
      <trkpt lat="42.196855545043945" lon="2.4970293045043945">
        <ele>403.54904504131434</ele>
        <time>2021-07-20T12:07:00.640Z</time>
      </trkpt>
      <trkpt lat="42.196834087371826" lon="2.496793270111084">
        <ele>404.35248918750744</ele>
        <time>2021-07-20T12:07:10.163Z</time>
      </trkpt>
      <trkpt lat="42.19684490002692" lon="2.4958598613739014">
        <ele>405.14561772180093</ele>
        <time>2021-07-20T12:07:19.697Z</time>
      </trkpt>
      <trkpt lat="42.196834087371826" lon="2.4948835372924805">
        <ele>405.9963742543331</ele>
        <time>2021-07-20T12:07:29.243Z</time>
      </trkpt>
      <trkpt lat="42.19680190086365" lon="2.4940574169158936">
        <ele>406.8310421704382</ele>
        <time>2021-07-20T12:07:38.799Z</time>
      </trkpt>
      <trkpt lat="42.19675898551941" lon="2.493467330932617">
        <ele>407.5959040836606</ele>
        <time>2021-07-20T12:07:48.362Z</time>
      </trkpt>
      <trkpt lat="42.19666242599487" lon="2.4926841259002686">
        <ele>408.3546148601646</ele>
        <time>2021-07-20T12:07:57.934Z</time>
      </trkpt>
      <trkpt lat="42.196608781814575" lon="2.4923300743103027">
        <ele>409.03556525194824</ele>
        <time>2021-07-20T12:08:07.511Z</time>
      </trkpt>
      <trkpt lat="42.19640493392944" lon="2.4913430213928223">
        <ele>409.7178114745259</ele>
        <time>2021-07-20T12:08:17.100Z</time>
      </trkpt>
      <trkpt lat="42.196093797683716" lon="2.490248680114746">
        <ele>410.5096167234042</ele>
        <time>2021-07-20T12:08:26.703Z</time>
      </trkpt>
      <trkpt lat="42.19600796699524" lon="2.489980459213257">
        <ele>411.1268808900596</ele>
        <time>2021-07-20T12:08:36.309Z</time>
      </trkpt>
      <trkpt lat="42.19600805081427" lon="2.489980459213257">
        <ele>411.6251949273727</ele>
        <time>2021-07-20T12:08:45.915Z</time>
      </trkpt>
      <trkpt lat="42.19420552253723" lon="2.4836504459381104">
        <ele>412.46250259195074</ele>
        <time>2021-07-20T12:08:55.602Z</time>
      </trkpt>
      <trkpt lat="42.194098234176636" lon="2.4832212924957275">
        <ele>412.8180126638808</ele>
        <time>2021-07-20T12:09:05.294Z</time>
      </trkpt>
      <trkpt lat="42.193915927782655" lon="2.4826741218566895">
        <ele>413.13219987333184</ele>
        <time>2021-07-20T12:09:14.993Z</time>
      </trkpt>
      <trkpt lat="42.19391584396362" lon="2.4826741218566895">
        <ele>413.4533407504975</ele>
        <time>2021-07-20T12:09:24.692Z</time>
      </trkpt>
      <trkpt lat="42.193647623062134" lon="2.481987476348877">
        <ele>413.6292435267595</ele>
        <time>2021-07-20T12:09:34.401Z</time>
      </trkpt>
      <trkpt lat="42.19335802830756" lon="2.4814188480377197">
        <ele>413.86855986927736</ele>
        <time>2021-07-20T12:09:44.118Z</time>
      </trkpt>
      <trkpt lat="42.193357944488525" lon="2.4814188480377197">
        <ele>414.11919234473</ele>
        <time>2021-07-20T12:09:53.835Z</time>
      </trkpt>
      <trkpt lat="42.19308980740607" lon="2.4809789657592773">
        <ele>414.4298021136407</ele>
        <time>2021-07-20T12:10:03.558Z</time>
      </trkpt>
      <trkpt lat="42.193089723587036" lon="2.4809789657592773">
        <ele>414.6808491790514</ele>
        <time>2021-07-20T12:10:13.281Z</time>
      </trkpt>
      <trkpt lat="42.192842960357666" lon="2.480614185333252">
        <ele>414.9904015227764</ele>
        <time>2021-07-20T12:10:23.010Z</time>
      </trkpt>
      <trkpt lat="42.19277858734131" lon="2.4805283546447754">
        <ele>415.29083663068457</ele>
        <time>2021-07-20T12:10:32.741Z</time>
      </trkpt>
      <trkpt lat="42.19231733120978" lon="2.479766607284546">
        <ele>415.66031724201264</ele>
        <time>2021-07-20T12:10:42.483Z</time>
      </trkpt>
      <trkpt lat="42.192091941833496" lon="2.4792301654815674">
        <ele>416.0569879062875</ele>
        <time>2021-07-20T12:10:52.233Z</time>
      </trkpt>
      <trkpt lat="42.191931093111634" lon="2.4787259101867676">
        <ele>416.48428652023586</ele>
        <time>2021-07-20T12:11:01.989Z</time>
      </trkpt>
      <trkpt lat="42.191834449768066" lon="2.478264570236206">
        <ele>416.99085608734094</ele>
        <time>2021-07-20T12:11:11.751Z</time>
      </trkpt>
      <trkpt lat="42.19180226325989" lon="2.4779856204986572">
        <ele>417.56298518069536</ele>
        <time>2021-07-20T12:11:21.516Z</time>
      </trkpt>
      <trkpt lat="42.1917808894068" lon="2.4776852130889893">
        <ele>418.232187570552</ele>
        <time>2021-07-20T12:11:31.285Z</time>
      </trkpt>
      <trkpt lat="42.19177007675171" lon="2.477213144302368">
        <ele>419.05288495173465</ele>
        <time>2021-07-20T12:11:41.060Z</time>
      </trkpt>
      <trkpt lat="42.19179153442383" lon="2.4769985675811768">
        <ele>420.0183366476888</ele>
        <time>2021-07-20T12:11:50.837Z</time>
      </trkpt>
      <trkpt lat="42.19179161824286" lon="2.4769985675811768">
        <ele>421.08709824496</ele>
        <time>2021-07-20T12:12:00.614Z</time>
      </trkpt>
      <trkpt lat="42.191845178604126" lon="2.476472854614258">
        <ele>422.30945858356756</ele>
        <time>2021-07-20T12:12:10.398Z</time>
      </trkpt>
      <trkpt lat="42.19194173812866" lon="2.476022243499756">
        <ele>423.5946515479053</ele>
        <time>2021-07-20T12:12:20.187Z</time>
      </trkpt>
      <trkpt lat="42.192091941833496" lon="2.4755609035491943">
        <ele>425.11319665687165</ele>
        <time>2021-07-20T12:12:29.982Z</time>
      </trkpt>
      <trkpt lat="42.19209202565253" lon="2.4755609035491943">
        <ele>426.7477431397938</ele>
        <time>2021-07-20T12:12:39.777Z</time>
      </trkpt>
      <trkpt lat="42.192403161898255" lon="2.474820613861084">
        <ele>428.7892107474376</ele>
        <time>2021-07-20T12:12:49.582Z</time>
      </trkpt>
      <trkpt lat="42.19247817993164" lon="2.47467041015625">
        <ele>430.87076500487495</ele>
        <time>2021-07-20T12:12:59.389Z</time>
      </trkpt>
      <trkpt lat="42.19255328178406" lon="2.4745523929595947">
        <ele>433.07718562498593</ele>
        <time>2021-07-20T12:13:09.198Z</time>
      </trkpt>
      <trkpt lat="42.19275721348822" lon="2.4741125106811523">
        <ele>435.67268238701456</ele>
        <time>2021-07-20T12:13:19.013Z</time>
      </trkpt>
      <trkpt lat="42.19285377301276" lon="2.4738657474517822">
        <ele>438.1529939237862</ele>
        <time>2021-07-20T12:13:28.832Z</time>
      </trkpt>
      <trkpt lat="42.19297179020941" lon="2.473522424697876">
        <ele>440.77801029562363</ele>
        <time>2021-07-20T12:13:38.655Z</time>
      </trkpt>
      <trkpt lat="42.193089723587036" lon="2.4731791019439697">
        <ele>443.2704471253388</ele>
        <time>2021-07-20T12:13:48.483Z</time>
      </trkpt>
      <trkpt lat="42.19325065612793" lon="2.4725890159606934">
        <ele>445.7186193393999</ele>
        <time>2021-07-20T12:13:58.318Z</time>
      </trkpt>
      <trkpt lat="42.193336486816406" lon="2.472202777862549">
        <ele>448.27827925464067</ele>
        <time>2021-07-20T12:14:08.158Z</time>
      </trkpt>
      <trkpt lat="42.193400859832764" lon="2.4717092514038086">
        <ele>450.8193168835745</ele>
        <time>2021-07-20T12:14:18.004Z</time>
      </trkpt>
      <trkpt lat="42.193443775177" lon="2.4714088439941406">
        <ele>453.4767069122398</ele>
        <time>2021-07-20T12:14:27.854Z</time>
      </trkpt>
      <trkpt lat="42.19346523284912" lon="2.4711191654205322">
        <ele>456.14200953360546</ele>
        <time>2021-07-20T12:14:37.707Z</time>
      </trkpt>
      <trkpt lat="42.193400943651795" lon="2.4705183506011963">
        <ele>458.8178707617603</ele>
        <time>2021-07-20T12:14:47.567Z</time>
      </trkpt>
      <trkpt lat="42.19332575798035" lon="2.4696922302246094">
        <ele>461.5966918164015</ele>
        <time>2021-07-20T12:14:57.437Z</time>
      </trkpt>
      <trkpt lat="42.19331502914429" lon="2.469273805618286">
        <ele>464.27256059916886</ele>
        <time>2021-07-20T12:15:07.312Z</time>
      </trkpt>
      <trkpt lat="42.193357944488525" lon="2.469005584716797">
        <ele>466.87147302117756</ele>
        <time>2021-07-20T12:15:17.190Z</time>
      </trkpt>
      <trkpt lat="42.19348677434027" lon="2.4686193466186523">
        <ele>469.53619387318724</ele>
        <time>2021-07-20T12:15:27.073Z</time>
      </trkpt>
      <trkpt lat="42.19370135106146" lon="2.4680185317993164">
        <ele>472.12463127002496</ele>
        <time>2021-07-20T12:15:36.964Z</time>
      </trkpt>
      <trkpt lat="42.19370126724243" lon="2.4680185317993164">
        <ele>474.45669416796744</ele>
        <time>2021-07-20T12:15:46.855Z</time>
      </trkpt>
      <trkpt lat="42.19396948814392" lon="2.467278242111206">
        <ele>476.560483552558</ele>
        <time>2021-07-20T12:15:56.756Z</time>
      </trkpt>
      <trkpt lat="42.19416260719299" lon="2.467031478881836">
        <ele>478.70290377764</ele>
        <time>2021-07-20T12:16:06.661Z</time>
      </trkpt>
      <trkpt lat="42.194355726242065" lon="2.4669456481933594">
        <ele>481.0836324570914</ele>
        <time>2021-07-20T12:16:16.570Z</time>
      </trkpt>
      <trkpt lat="42.19482779502869" lon="2.4668169021606445">
        <ele>483.7075252684802</ele>
        <time>2021-07-20T12:16:26.486Z</time>
      </trkpt>
      <trkpt lat="42.19492435455322" lon="2.4667418003082275">
        <ele>485.72231027946486</ele>
        <time>2021-07-20T12:16:36.404Z</time>
      </trkpt>
      <trkpt lat="42.19497799873352" lon="2.466634511947632">
        <ele>487.60808693692775</ele>
        <time>2021-07-20T12:16:46.324Z</time>
      </trkpt>
      <trkpt lat="42.1950101852417" lon="2.466527223587036">
        <ele>489.5247897365166</ele>
        <time>2021-07-20T12:16:56.245Z</time>
      </trkpt>
      <trkpt lat="42.19502091407776" lon="2.4664199352264404">
        <ele>491.3015036355969</ele>
        <time>2021-07-20T12:17:06.167Z</time>
      </trkpt>
      <trkpt lat="42.19502091407776" lon="2.4662482738494873">
        <ele>492.986488563042</ele>
        <time>2021-07-20T12:17:16.091Z</time>
      </trkpt>
      <trkpt lat="42.1950101852417" lon="2.4661195278167725">
        <ele>494.5481739383585</ele>
        <time>2021-07-20T12:17:26.017Z</time>
      </trkpt>
      <trkpt lat="42.19496726989746" lon="2.4659693241119385">
        <ele>495.95771751288527</ele>
        <time>2021-07-20T12:17:35.945Z</time>
      </trkpt>
      <trkpt lat="42.19480633735657" lon="2.465604543685913">
        <ele>497.1764527631042</ele>
        <time>2021-07-20T12:17:45.878Z</time>
      </trkpt>
      <trkpt lat="42.19473123550415" lon="2.4653685092926025">
        <ele>498.48621798044155</ele>
        <time>2021-07-20T12:17:55.814Z</time>
      </trkpt>
      <trkpt lat="42.19446301460266" lon="2.4641454219818115">
        <ele>500.0333900882251</ele>
        <time>2021-07-20T12:18:05.765Z</time>
      </trkpt>
      <trkpt lat="42.19442009925842" lon="2.463855743408203">
        <ele>501.1798410558014</ele>
        <time>2021-07-20T12:18:15.720Z</time>
      </trkpt>
      <trkpt lat="42.19443082809448" lon="2.4636411666870117">
        <ele>502.38793730590805</ele>
        <time>2021-07-20T12:18:25.677Z</time>
      </trkpt>
      <trkpt lat="42.19454884529114" lon="2.46317982673645">
        <ele>503.9826770238952</ele>
        <time>2021-07-20T12:18:35.640Z</time>
      </trkpt>
      <trkpt lat="42.19457030296326" lon="2.463040351867676">
        <ele>505.0768686040624</ele>
        <time>2021-07-20T12:18:45.605Z</time>
      </trkpt>
      <trkpt lat="42.19454884529114" lon="2.4626433849334717">
        <ele>505.9989987409184</ele>
        <time>2021-07-20T12:18:55.574Z</time>
      </trkpt>
      <trkpt lat="42.19448447227478" lon="2.462085485458374">
        <ele>506.74412442675066</ele>
        <time>2021-07-20T12:19:05.550Z</time>
      </trkpt>
      <trkpt lat="42.19448447227478" lon="2.461785078048706">
        <ele>507.5798598405239</ele>
        <time>2021-07-20T12:19:15.530Z</time>
      </trkpt>
      <trkpt lat="42.1945059299469" lon="2.461613416671753">
        <ele>508.39800269620343</ele>
        <time>2021-07-20T12:19:25.512Z</time>
      </trkpt>
      <trkpt lat="42.194645404815674" lon="2.4612057209014893">
        <ele>509.3094438310528</ele>
        <time>2021-07-20T12:19:35.499Z</time>
      </trkpt>
      <trkpt lat="42.194859981536865" lon="2.460712194442749">
        <ele>510.28851826977666</ele>
        <time>2021-07-20T12:19:45.493Z</time>
      </trkpt>
      <trkpt lat="42.19493508338928" lon="2.4604761600494385">
        <ele>511.1591595809964</ele>
        <time>2021-07-20T12:19:55.490Z</time>
      </trkpt>
      <trkpt lat="42.1949565410614" lon="2.4603259563446045">
        <ele>511.81058548466797</ele>
        <time>2021-07-20T12:20:05.489Z</time>
      </trkpt>
      <trkpt lat="42.194935167208314" lon="2.4602293968200684">
        <ele>512.2890923027188</ele>
        <time>2021-07-20T12:20:15.489Z</time>
      </trkpt>
      <trkpt lat="42.194892168045044" lon="2.4601221084594727">
        <ele>512.6658362194329</ele>
        <time>2021-07-20T12:20:25.490Z</time>
      </trkpt>
      <trkpt lat="42.19467759132385" lon="2.4598217010498047">
        <ele>512.6300880160857</ele>
        <time>2021-07-20T12:20:35.496Z</time>
      </trkpt>
      <trkpt lat="42.19457030296326" lon="2.4595534801483154">
        <ele>512.8620257070294</ele>
        <time>2021-07-20T12:20:45.506Z</time>
      </trkpt>
      <trkpt lat="42.1945595741272" lon="2.4594032764434814">
        <ele>513.2973222329048</ele>
        <time>2021-07-20T12:20:55.518Z</time>
      </trkpt>
      <trkpt lat="42.1945595741272" lon="2.459242343902588">
        <ele>513.7609470388373</ele>
        <time>2021-07-20T12:21:05.532Z</time>
      </trkpt>
      <trkpt lat="42.19469904899597" lon="2.4585556983947754">
        <ele>514.7191199274735</ele>
        <time>2021-07-20T12:21:15.554Z</time>
      </trkpt>
      <trkpt lat="42.19470977783203" lon="2.4583303928375244">
        <ele>515.149453584205</ele>
        <time>2021-07-20T12:21:25.579Z</time>
      </trkpt>
      <trkpt lat="42.194645404815674" lon="2.4579548835754395">
        <ele>515.8569302492205</ele>
        <time>2021-07-20T12:21:35.608Z</time>
      </trkpt>
      <trkpt lat="42.19453811645508" lon="2.457665205001831">
        <ele>516.2483431263693</ele>
        <time>2021-07-20T12:21:45.641Z</time>
      </trkpt>
      <trkpt lat="42.19448447227478" lon="2.457568645477295">
        <ele>516.6113861453874</ele>
        <time>2021-07-20T12:21:55.676Z</time>
      </trkpt>
      <trkpt lat="42.194334268569946" lon="2.45743989944458">
        <ele>516.9138710921831</ele>
        <time>2021-07-20T12:22:05.714Z</time>
      </trkpt>
      <trkpt lat="42.19371199607849" lon="2.4571609497070312">
        <ele>517.0123792880767</ele>
        <time>2021-07-20T12:22:15.762Z</time>
      </trkpt>
      <trkpt lat="42.19350814819336" lon="2.457042932510376">
        <ele>517.4844450991457</ele>
        <time>2021-07-20T12:22:25.814Z</time>
      </trkpt>
      <trkpt lat="42.19330430030823" lon="2.4568605422973633">
        <ele>518.0852521642613</ele>
        <time>2021-07-20T12:22:35.870Z</time>
      </trkpt>
      <trkpt lat="42.19319701194763" lon="2.4566352367401123">
        <ele>518.7745856189732</ele>
        <time>2021-07-20T12:22:45.929Z</time>
      </trkpt>
      <trkpt lat="42.193121910095215" lon="2.4562489986419678">
        <ele>519.4451586559701</ele>
        <time>2021-07-20T12:22:55.992Z</time>
      </trkpt>
      <trkpt lat="42.19306826591492" lon="2.455315589904785">
        <ele>520.2999375422232</ele>
        <time>2021-07-20T12:23:06.067Z</time>
      </trkpt>
      <trkpt lat="42.19306826591492" lon="2.4551546573638916">
        <ele>521.1379614976534</ele>
        <time>2021-07-20T12:23:16.143Z</time>
      </trkpt>
      <trkpt lat="42.193100452423096" lon="2.4549615383148193">
        <ele>522.1043480801454</ele>
        <time>2021-07-20T12:23:26.222Z</time>
      </trkpt>
      <trkpt lat="42.193143367767334" lon="2.4548327922821045">
        <ele>523.1616459721014</ele>
        <time>2021-07-20T12:23:36.303Z</time>
      </trkpt>
      <trkpt lat="42.19321846961975" lon="2.454746961593628">
        <ele>524.3937136371031</ele>
        <time>2021-07-20T12:23:46.385Z</time>
      </trkpt>
      <trkpt lat="42.19348669052124" lon="2.454521656036377">
        <ele>526.1117990149219</ele>
        <time>2021-07-20T12:23:56.472Z</time>
      </trkpt>
      <trkpt lat="42.19356179237366" lon="2.4543821811676025">
        <ele>527.5913849473238</ele>
        <time>2021-07-20T12:24:06.561Z</time>
      </trkpt>
      <trkpt lat="42.193583250045776" lon="2.4542856216430664">
        <ele>529.0747752434113</ele>
        <time>2021-07-20T12:24:16.651Z</time>
      </trkpt>
      <trkpt lat="42.193593978881836" lon="2.4541890621185303">
        <ele>530.6415775847183</ele>
        <time>2021-07-20T12:24:26.743Z</time>
      </trkpt>
      <trkpt lat="42.19347596168518" lon="2.451324462890625">
        <ele>532.7638373803144</ele>
        <time>2021-07-20T12:24:36.869Z</time>
      </trkpt>
      <trkpt lat="42.19346523284912" lon="2.4510133266448975">
        <ele>534.6046212355404</ele>
        <time>2021-07-20T12:24:46.998Z</time>
      </trkpt>
      <trkpt lat="42.19322919845581" lon="2.4502837657928467">
        <ele>536.3114257028776</ele>
        <time>2021-07-20T12:24:57.137Z</time>
      </trkpt>
      <trkpt lat="42.19316482543945" lon="2.4499404430389404">
        <ele>538.3575209325136</ele>
        <time>2021-07-20T12:25:07.280Z</time>
      </trkpt>
      <trkpt lat="42.19320774078369" lon="2.449672222137451">
        <ele>540.6094137930905</ele>
        <time>2021-07-20T12:25:17.426Z</time>
      </trkpt>
      <trkpt lat="42.193347215652466" lon="2.4494683742523193">
        <ele>543.0991649909987</ele>
        <time>2021-07-20T12:25:27.576Z</time>
      </trkpt>
      <trkpt lat="42.19342231750488" lon="2.4493181705474854">
        <ele>545.6032253062494</ele>
        <time>2021-07-20T12:25:37.728Z</time>
      </trkpt>
      <trkpt lat="42.19341158866882" lon="2.4491357803344727">
        <ele>548.1303750259312</ele>
        <time>2021-07-20T12:25:47.882Z</time>
      </trkpt>
      <trkpt lat="42.19331502914429" lon="2.4488675594329834">
        <ele>550.7387229861954</ele>
        <time>2021-07-20T12:25:58.040Z</time>
      </trkpt>
      <trkpt lat="42.193121910095215" lon="2.447998523712158">
        <ele>553.6677184891564</ele>
        <time>2021-07-20T12:26:08.208Z</time>
      </trkpt>
      <trkpt lat="42.19298243522644" lon="2.447279691696167">
        <ele>556.8076773596288</ele>
        <time>2021-07-20T12:26:18.385Z</time>
      </trkpt>
      <trkpt lat="42.19296097755432" lon="2.4470221996307373">
        <ele>559.9452934624945</ele>
        <time>2021-07-20T12:26:28.565Z</time>
      </trkpt>
      <trkpt lat="42.1929931640625" lon="2.446882724761963">
        <ele>563.2788002252788</ele>
        <time>2021-07-20T12:26:38.747Z</time>
      </trkpt>
      <trkpt lat="42.19299324788153" lon="2.446882724761963">
        <ele>566.6591254593011</ele>
        <time>2021-07-20T12:26:48.929Z</time>
      </trkpt>
      <trkpt lat="42.19302535057068" lon="2.4466896057128906">
        <ele>570.314824752309</ele>
        <time>2021-07-20T12:26:59.113Z</time>
      </trkpt>
      <trkpt lat="42.19372272491455" lon="2.4447906017303467">
        <ele>574.4913665243599</ele>
        <time>2021-07-20T12:27:09.322Z</time>
      </trkpt>
      <trkpt lat="42.19393730163574" lon="2.444479465484619">
        <ele>578.4206929096019</ele>
        <time>2021-07-20T12:27:19.537Z</time>
      </trkpt>
      <trkpt lat="42.19480633735657" lon="2.443782091140747">
        <ele>583.2014829293203</ele>
        <time>2021-07-20T12:27:29.768Z</time>
      </trkpt>
      <trkpt lat="42.195063829422" lon="2.443438768386841">
        <ele>587.5444126492259</ele>
        <time>2021-07-20T12:27:40.005Z</time>
      </trkpt>
      <trkpt lat="42.195117473602295" lon="2.443181276321411">
        <ele>591.726883149086</ele>
        <time>2021-07-20T12:27:50.245Z</time>
      </trkpt>
      <trkpt lat="42.19523549079895" lon="2.44246244430542">
        <ele>596.0618443477961</ele>
        <time>2021-07-20T12:28:00.493Z</time>
      </trkpt>
      <trkpt lat="42.19553598202765" lon="2.4404454231262207">
        <ele>600.4779320559904</ele>
        <time>2021-07-20T12:28:10.766Z</time>
      </trkpt>
      <trkpt lat="42.195879304781556" lon="2.4383747577667236">
        <ele>605.317685737837</ele>
        <time>2021-07-20T12:28:21.064Z</time>
      </trkpt>
      <trkpt lat="42.195879220962524" lon="2.4379992485046387">
        <ele>609.9933812456461</ele>
        <time>2021-07-20T12:28:31.367Z</time>
      </trkpt>
      <trkpt lat="42.19585784710944" lon="2.4378490447998047">
        <ele>614.6307155969828</ele>
        <time>2021-07-20T12:28:41.671Z</time>
      </trkpt>
      <trkpt lat="42.19578266143799" lon="2.4372804164886475">
        <ele>619.4555699021553</ele>
        <time>2021-07-20T12:28:51.982Z</time>
      </trkpt>
      <trkpt lat="42.195407235994935" lon="2.435145378112793">
        <ele>624.9436882379474</ele>
        <time>2021-07-20T12:29:02.319Z</time>
      </trkpt>
      <trkpt lat="42.19528913497925" lon="2.43446946144104">
        <ele>629.7191461731313</ele>
        <time>2021-07-20T12:29:12.665Z</time>
      </trkpt>
      <trkpt lat="42.19525694847107" lon="2.434201240539551">
        <ele>634.5918911385115</ele>
        <time>2021-07-20T12:29:23.014Z</time>
      </trkpt>
      <trkpt lat="42.19526767730713" lon="2.433021068572998">
        <ele>639.5686872002826</ele>
        <time>2021-07-20T12:29:33.377Z</time>
      </trkpt>
      <trkpt lat="42.19552516937256" lon="2.4317872524261475">
        <ele>644.9176890509617</ele>
        <time>2021-07-20T12:29:43.755Z</time>
      </trkpt>
      <trkpt lat="42.195600271224976" lon="2.431347370147705">
        <ele>649.9168800380044</ele>
        <time>2021-07-20T12:29:54.139Z</time>
      </trkpt>
      <trkpt lat="42.195578813552856" lon="2.4304354190826416">
        <ele>654.728134618965</ele>
        <time>2021-07-20T12:30:04.533Z</time>
      </trkpt>
      <trkpt lat="42.195578813552856" lon="2.4291372299194336">
        <ele>659.7277893749683</ele>
        <time>2021-07-20T12:30:14.943Z</time>
      </trkpt>
      <trkpt lat="42.19557889737189" lon="2.4291372299194336">
        <ele>664.4540558988858</ele>
        <time>2021-07-20T12:30:25.353Z</time>
      </trkpt>
      <trkpt lat="42.1955680847168" lon="2.4262619018554688">
        <ele>670.0019149214345</ele>
        <time>2021-07-20T12:30:35.797Z</time>
      </trkpt>
      <trkpt lat="42.195589542388916" lon="2.425779104232788">
        <ele>674.7196613525937</ele>
        <time>2021-07-20T12:30:46.247Z</time>
      </trkpt>
      <trkpt lat="42.19579339027405" lon="2.4224746227264404">
        <ele>679.8358899438423</ele>
        <time>2021-07-20T12:30:56.736Z</time>
      </trkpt>
      <trkpt lat="42.19599723815918" lon="2.4214017391204834">
        <ele>684.3705621555466</ele>
        <time>2021-07-20T12:31:07.238Z</time>
      </trkpt>
      <trkpt lat="42.19653367996216" lon="2.41874098777771">
        <ele>689.0167584608239</ele>
        <time>2021-07-20T12:31:17.773Z</time>
      </trkpt>
      <trkpt lat="42.19674825668335" lon="2.41798996925354">
        <ele>693.4417148024072</ele>
        <time>2021-07-20T12:31:28.318Z</time>
      </trkpt>
      <trkpt lat="42.19674825668335" lon="2.4168312549591064">
        <ele>697.264509637976</ele>
        <time>2021-07-20T12:31:38.877Z</time>
      </trkpt>
      <trkpt lat="42.19674825668335" lon="2.416391372680664">
        <ele>700.9590391793434</ele>
        <time>2021-07-20T12:31:49.441Z</time>
      </trkpt>
      <trkpt lat="42.19675898551941" lon="2.4163055419921875">
        <ele>704.3983984014636</ele>
        <time>2021-07-20T12:32:00.006Z</time>
      </trkpt>
      <trkpt lat="42.19680190086365" lon="2.4162304401397705">
        <ele>707.7177269437625</ele>
        <time>2021-07-20T12:32:10.572Z</time>
      </trkpt>
      <trkpt lat="42.196877002716064" lon="2.416198253631592">
        <ele>710.9062461970823</ele>
        <time>2021-07-20T12:32:21.139Z</time>
      </trkpt>
      <trkpt lat="42.1969199180603" lon="2.4162089824676514">
        <ele>713.7917810056617</ele>
        <time>2021-07-20T12:32:31.707Z</time>
      </trkpt>
      <trkpt lat="42.1969735622406" lon="2.416316270828247">
        <ele>716.4782744977128</ele>
        <time>2021-07-20T12:32:42.276Z</time>
      </trkpt>
      <trkpt lat="42.19701647758484" lon="2.416766881942749">
        <ele>718.8596312394094</ele>
        <time>2021-07-20T12:32:52.851Z</time>
      </trkpt>
      <trkpt lat="42.197134494781494" lon="2.4179792404174805">
        <ele>721.4103262405339</ele>
        <time>2021-07-20T12:33:03.440Z</time>
      </trkpt>
      <trkpt lat="42.197145223617554" lon="2.4183976650238037">
        <ele>723.5650330041332</ele>
        <time>2021-07-20T12:33:14.034Z</time>
      </trkpt>
      <trkpt lat="42.196844816207886" lon="2.420886754989624">
        <ele>725.615945553181</ele>
        <time>2021-07-20T12:33:24.658Z</time>
      </trkpt>
      <trkpt lat="42.19681262969971" lon="2.4211227893829346">
        <ele>727.3577128174888</ele>
        <time>2021-07-20T12:33:35.285Z</time>
      </trkpt>
      <trkpt lat="42.19679117202759" lon="2.421755790710449">
        <ele>729.1597780113489</ele>
        <time>2021-07-20T12:33:45.920Z</time>
      </trkpt>
      <trkpt lat="42.19676971435547" lon="2.4222493171691895">
        <ele>730.7887253560616</ele>
        <time>2021-07-20T12:33:56.561Z</time>
      </trkpt>
      <trkpt lat="42.19678044319153" lon="2.422356605529785">
        <ele>732.4103907960755</ele>
        <time>2021-07-20T12:34:07.203Z</time>
      </trkpt>
      <trkpt lat="42.19680190086365" lon="2.4224209785461426">
        <ele>734.0166978893201</ele>
        <time>2021-07-20T12:34:17.846Z</time>
      </trkpt>
      <trkpt lat="42.196866273880005" lon="2.4224853515625">
        <ele>735.6986630258682</ele>
        <time>2021-07-20T12:34:28.490Z</time>
      </trkpt>
      <trkpt lat="42.19690918922424" lon="2.4224853515625">
        <ele>737.3422962261124</ele>
        <time>2021-07-20T12:34:39.135Z</time>
      </trkpt>
      <trkpt lat="42.19695210456848" lon="2.422463893890381">
        <ele>739.0157582833963</ele>
        <time>2021-07-20T12:34:49.780Z</time>
      </trkpt>
      <trkpt lat="42.19698429107666" lon="2.4224209785461426">
        <ele>740.7176042114886</ele>
        <time>2021-07-20T12:35:00.426Z</time>
      </trkpt>
      <trkpt lat="42.19700574874878" lon="2.422335147857666">
        <ele>742.463874677456</ele>
        <time>2021-07-20T12:35:11.073Z</time>
      </trkpt>
      <trkpt lat="42.19704866409302" lon="2.4217772483825684">
        <ele>744.4179702815885</ele>
        <time>2021-07-20T12:35:21.727Z</time>
      </trkpt>
      <trkpt lat="42.19705939292908" lon="2.4214768409729004">
        <ele>746.3332198365605</ele>
        <time>2021-07-20T12:35:32.385Z</time>
      </trkpt>
      <trkpt lat="42.197123765945435" lon="2.4209296703338623">
        <ele>748.5145575259322</ele>
        <time>2021-07-20T12:35:43.049Z</time>
      </trkpt>
      <trkpt lat="42.19718813896179" lon="2.4206507205963135">
        <ele>750.7652923893655</ele>
        <time>2021-07-20T12:35:53.717Z</time>
      </trkpt>
      <trkpt lat="42.19748854637146" lon="2.419588565826416">
        <ele>753.4861689518534</ele>
        <time>2021-07-20T12:36:04.398Z</time>
      </trkpt>
      <trkpt lat="42.197606563568115" lon="2.419137954711914">
        <ele>755.9383971578397</ele>
        <time>2021-07-20T12:36:15.085Z</time>
      </trkpt>
      <trkpt lat="42.19778895378113" lon="2.418193817138672">
        <ele>758.7837732543819</ele>
        <time>2021-07-20T12:36:25.783Z</time>
      </trkpt>
      <trkpt lat="42.197842597961426" lon="2.4177753925323486">
        <ele>761.602855476918</ele>
        <time>2021-07-20T12:36:36.486Z</time>
      </trkpt>
      <trkpt lat="42.1979284286499" lon="2.416670322418213">
        <ele>764.7432317017679</ele>
        <time>2021-07-20T12:36:47.203Z</time>
      </trkpt>
      <trkpt lat="42.19802498817444" lon="2.415822744369507">
        <ele>767.9975862092645</ele>
        <time>2021-07-20T12:36:57.930Z</time>
      </trkpt>
      <trkpt lat="42.19802498817444" lon="2.4157047271728516">
        <ele>771.1807921786929</ele>
        <time>2021-07-20T12:37:08.658Z</time>
      </trkpt>
      <trkpt lat="42.197864055633545" lon="2.4150288105010986">
        <ele>774.5104026820641</ele>
        <time>2021-07-20T12:37:19.395Z</time>
      </trkpt>
      <trkpt lat="42.19782114028931" lon="2.4147284030914307">
        <ele>777.9882437002743</ele>
        <time>2021-07-20T12:37:30.135Z</time>
      </trkpt>
      <trkpt lat="42.19771385192871" lon="2.4135053157806396">
        <ele>782.1268427504908</ele>
        <time>2021-07-20T12:37:40.890Z</time>
      </trkpt>
      <trkpt lat="42.19767093658447" lon="2.412797212600708">
        <ele>785.8742090960025</ele>
        <time>2021-07-20T12:37:51.653Z</time>
      </trkpt>
      <trkpt lat="42.19764947891235" lon="2.411477565765381">
        <ele>789.933509492769</ele>
        <time>2021-07-20T12:38:02.432Z</time>
      </trkpt>
      <trkpt lat="42.19764947891235" lon="2.4105441570281982">
        <ele>793.8192414524538</ele>
        <time>2021-07-20T12:38:13.222Z</time>
      </trkpt>
      <trkpt lat="42.19770312309265" lon="2.4092352390289307">
        <ele>797.5832301672929</ele>
        <time>2021-07-20T12:38:24.028Z</time>
      </trkpt>
      <trkpt lat="42.19779968261719" lon="2.4084842205047607">
        <ele>801.4946357737549</ele>
        <time>2021-07-20T12:38:34.843Z</time>
      </trkpt>
      <trkpt lat="42.19779976643622" lon="2.4084842205047607">
        <ele>805.5683950759502</ele>
        <time>2021-07-20T12:38:45.658Z</time>
      </trkpt>
      <trkpt lat="42.197885597124696" lon="2.407851219177246">
        <ele>809.730827427563</ele>
        <time>2021-07-20T12:38:56.481Z</time>
      </trkpt>
      <trkpt lat="42.198121547698975" lon="2.406231164932251">
        <ele>814.890064219068</ele>
        <time>2021-07-20T12:39:07.323Z</time>
      </trkpt>
      <trkpt lat="42.19828248023987" lon="2.4058449268341064">
        <ele>819.5504531518682</ele>
        <time>2021-07-20T12:39:18.170Z</time>
      </trkpt>
      <trkpt lat="42.19923734664917" lon="2.4047720432281494">
        <ele>824.6233814255208</ele>
        <time>2021-07-20T12:39:29.037Z</time>
      </trkpt>
      <trkpt lat="42.19940900802612" lon="2.4043214321136475">
        <ele>828.9651707679556</ele>
        <time>2021-07-20T12:39:39.910Z</time>
      </trkpt>
      <trkpt lat="42.199409091845155" lon="2.4043214321136475">
        <ele>833.0994603524123</ele>
        <time>2021-07-20T12:39:50.783Z</time>
      </trkpt>
      <trkpt lat="42.19940900802612" lon="2.4040424823760986">
        <ele>837.4752052684294</ele>
        <time>2021-07-20T12:40:01.660Z</time>
      </trkpt>
      <trkpt lat="42.19931244850159" lon="2.4036777019500732">
        <ele>841.6024540049908</ele>
        <time>2021-07-20T12:40:12.541Z</time>
      </trkpt>
      <trkpt lat="42.19906568527222" lon="2.402980327606201">
        <ele>845.6610484049571</ele>
        <time>2021-07-20T12:40:23.431Z</time>
      </trkpt>
      <trkpt lat="42.19896912574768" lon="2.402658462524414">
        <ele>849.5800449628863</ele>
        <time>2021-07-20T12:40:34.326Z</time>
      </trkpt>
      <trkpt lat="42.198872566223145" lon="2.4021434783935547">
        <ele>853.6371306949211</ele>
        <time>2021-07-20T12:40:45.227Z</time>
      </trkpt>
      <trkpt lat="42.1984326839447" lon="2.4013495445251465">
        <ele>857.0439287546646</ele>
        <time>2021-07-20T12:40:56.140Z</time>
      </trkpt>
      <trkpt lat="42.198379039764404" lon="2.400941848754883">
        <ele>860.7512271152257</ele>
        <time>2021-07-20T12:41:07.058Z</time>
      </trkpt>
      <trkpt lat="42.198379039764404" lon="2.399858236312866">
        <ele>864.5680162047216</ele>
        <time>2021-07-20T12:41:17.988Z</time>
      </trkpt>
      <trkpt lat="42.198389768600464" lon="2.3996007442474365">
        <ele>867.8494040691228</ele>
        <time>2021-07-20T12:41:28.922Z</time>
      </trkpt>
      <trkpt lat="42.19842195510864" lon="2.399439811706543">
        <ele>871.0785163489456</ele>
        <time>2021-07-20T12:41:39.858Z</time>
      </trkpt>
      <trkpt lat="42.19847559928894" lon="2.399193048477173">
        <ele>874.254842126287</ele>
        <time>2021-07-20T12:41:50.797Z</time>
      </trkpt>
      <trkpt lat="42.19855070114136" lon="2.3989999294281006">
        <ele>877.2253343722783</ele>
        <time>2021-07-20T12:42:01.738Z</time>
      </trkpt>
      <trkpt lat="42.19872236251831" lon="2.3986995220184326">
        <ele>880.185753424171</ele>
        <time>2021-07-20T12:42:12.684Z</time>
      </trkpt>
      <trkpt lat="42.199366092681885" lon="2.397744655609131">
        <ele>883.2592282516981</ele>
        <time>2021-07-20T12:42:23.645Z</time>
      </trkpt>
      <trkpt lat="42.19946265220642" lon="2.397615909576416">
        <ele>885.943452646387</ele>
        <time>2021-07-20T12:42:34.608Z</time>
      </trkpt>
      <trkpt lat="42.19968795776367" lon="2.3974227905273438">
        <ele>888.8840022286945</ele>
        <time>2021-07-20T12:42:45.575Z</time>
      </trkpt>
      <trkpt lat="42.19977378845215" lon="2.397336959838867">
        <ele>891.4934859199116</ele>
        <time>2021-07-20T12:42:56.544Z</time>
      </trkpt>
      <trkpt lat="42.19981670379639" lon="2.39726185798645">
        <ele>893.8842137700317</ele>
        <time>2021-07-20T12:43:07.514Z</time>
      </trkpt>
      <trkpt lat="42.199870347976685" lon="2.397047281265259">
        <ele>896.1515534965279</ele>
        <time>2021-07-20T12:43:18.487Z</time>
      </trkpt>
      <trkpt lat="42.199891805648804" lon="2.3968112468719482">
        <ele>898.2280283418597</ele>
        <time>2021-07-20T12:43:29.463Z</time>
      </trkpt>
      <trkpt lat="42.19980597496033" lon="2.396221160888672">
        <ele>900.0735467245993</ele>
        <time>2021-07-20T12:43:40.446Z</time>
      </trkpt>
      <trkpt lat="42.19980597496033" lon="2.396038770675659">
        <ele>902.1347612949019</ele>
        <time>2021-07-20T12:43:51.431Z</time>
      </trkpt>
      <trkpt lat="42.199827432632446" lon="2.3958241939544678">
        <ele>904.2317905654108</ele>
        <time>2021-07-20T12:44:02.419Z</time>
      </trkpt>
      <trkpt lat="42.199881076812744" lon="2.3954272270202637">
        <ele>906.5481638059983</ele>
        <time>2021-07-20T12:44:13.412Z</time>
      </trkpt>
      <trkpt lat="42.199891805648804" lon="2.3952770233154297">
        <ele>908.5893706700647</ele>
        <time>2021-07-20T12:44:24.406Z</time>
      </trkpt>
      <trkpt lat="42.199891805648804" lon="2.395148277282715">
        <ele>910.5786708511978</ele>
        <time>2021-07-20T12:44:35.402Z</time>
      </trkpt>
      <trkpt lat="42.19955921173096" lon="2.3938286304473877">
        <ele>912.5611853351763</ele>
        <time>2021-07-20T12:44:46.414Z</time>
      </trkpt>
      <trkpt lat="42.1994411945343" lon="2.393292188644409">
        <ele>914.5057819671529</ele>
        <time>2021-07-20T12:44:57.433Z</time>
      </trkpt>
      <trkpt lat="42.19943046569824" lon="2.3931527137756348">
        <ele>916.4668005898698</ele>
        <time>2021-07-20T12:45:08.454Z</time>
      </trkpt>
      <trkpt lat="42.1994411945343" lon="2.392852306365967">
        <ele>918.5445024930316</ele>
        <time>2021-07-20T12:45:19.478Z</time>
      </trkpt>
      <trkpt lat="42.19955921173096" lon="2.3919296264648438">
        <ele>920.6805769325299</ele>
        <time>2021-07-20T12:45:30.513Z</time>
      </trkpt>
      <trkpt lat="42.199591398239136" lon="2.3917794227600098">
        <ele>922.7330702750155</ele>
        <time>2021-07-20T12:45:41.550Z</time>
      </trkpt>
      <trkpt lat="42.199623584747314" lon="2.3916614055633545">
        <ele>924.833846305819</ele>
        <time>2021-07-20T12:45:52.589Z</time>
      </trkpt>
      <trkpt lat="42.19966650009155" lon="2.391597032546997">
        <ele>926.9688757276498</ele>
        <time>2021-07-20T12:46:03.629Z</time>
      </trkpt>
      <trkpt lat="42.200374603271484" lon="2.3907601833343506">
        <ele>929.7544484193943</ele>
        <time>2021-07-20T12:46:14.684Z</time>
      </trkpt>
      <trkpt lat="42.2009003162384" lon="2.3899447917938232">
        <ele>932.2602309118433</ele>
        <time>2021-07-20T12:46:25.752Z</time>
      </trkpt>
      <trkpt lat="42.20105051994324" lon="2.389655113220215">
        <ele>934.6640685183123</ele>
        <time>2021-07-20T12:46:36.824Z</time>
      </trkpt>
      <trkpt lat="42.201114892959595" lon="2.389451265335083">
        <ele>936.8708508675657</ele>
        <time>2021-07-20T12:46:47.899Z</time>
      </trkpt>
      <trkpt lat="42.20130801200867" lon="2.388753890991211">
        <ele>939.2649510890444</ele>
        <time>2021-07-20T12:46:58.982Z</time>
      </trkpt>
      <trkpt lat="42.201340198516846" lon="2.388582229614258">
        <ele>941.5256490306797</ele>
        <time>2021-07-20T12:47:10.068Z</time>
      </trkpt>
      <trkpt lat="42.20143675804138" lon="2.387208938598633">
        <ele>943.9002075117455</ele>
        <time>2021-07-20T12:47:21.170Z</time>
      </trkpt>
      <trkpt lat="42.2014582157135" lon="2.3870158195495605">
        <ele>945.9921929759979</ele>
        <time>2021-07-20T12:47:32.274Z</time>
      </trkpt>
      <trkpt lat="42.20194101333618" lon="2.3856961727142334">
        <ele>948.6196504457985</ele>
        <time>2021-07-20T12:47:43.396Z</time>
      </trkpt>
      <trkpt lat="42.20223069190979" lon="2.384805679321289">
        <ele>950.9180930443733</ele>
        <time>2021-07-20T12:47:54.529Z</time>
      </trkpt>
      <trkpt lat="42.20273494720459" lon="2.3830676078796387">
        <ele>953.2586643946362</ele>
        <time>2021-07-20T12:48:05.685Z</time>
      </trkpt>
      <trkpt lat="42.20275640487671" lon="2.382756471633911">
        <ele>955.2899998347785</ele>
        <time>2021-07-20T12:48:16.844Z</time>
      </trkpt>
      <trkpt lat="42.20277786254883" lon="2.3820483684539795">
        <ele>957.1594970187789</ele>
        <time>2021-07-20T12:48:28.012Z</time>
      </trkpt>
      <trkpt lat="42.20278859138489" lon="2.3800528049468994">
        <ele>958.8918032656222</ele>
        <time>2021-07-20T12:48:39.203Z</time>
      </trkpt>
      <trkpt lat="42.20281004905701" lon="2.3799240589141846">
        <ele>960.8046358887234</ele>
        <time>2021-07-20T12:48:50.396Z</time>
      </trkpt>
      <trkpt lat="42.202874422073364" lon="2.379763126373291">
        <ele>962.7086346269136</ele>
        <time>2021-07-20T12:49:01.591Z</time>
      </trkpt>
      <trkpt lat="42.20368981361389" lon="2.3782289028167725">
        <ele>964.950195269437</ele>
        <time>2021-07-20T12:49:12.809Z</time>
      </trkpt>
      <trkpt lat="42.20378645695746" lon="2.377992868423462">
        <ele>966.6952456760675</ele>
        <time>2021-07-20T12:49:24.030Z</time>
      </trkpt>
      <trkpt lat="42.203872203826904" lon="2.3776066303253174">
        <ele>968.7483160692257</ele>
        <time>2021-07-20T12:49:35.256Z</time>
      </trkpt>
      <trkpt lat="42.20389366149902" lon="2.3774242401123047">
        <ele>970.6551211893013</ele>
        <time>2021-07-20T12:49:46.484Z</time>
      </trkpt>
      <trkpt lat="42.20389366149902" lon="2.3772525787353516">
        <ele>972.4871776739628</ele>
        <time>2021-07-20T12:49:57.714Z</time>
      </trkpt>
      <trkpt lat="42.20395803451538" lon="2.3771774768829346">
        <ele>974.4362251853663</ele>
        <time>2021-07-20T12:50:08.945Z</time>
      </trkpt>
      <trkpt lat="42.20405459403992" lon="2.3768556118011475">
        <ele>976.5514564796063</ele>
        <time>2021-07-20T12:50:20.180Z</time>
      </trkpt>
      <trkpt lat="42.20424771308899" lon="2.375922203063965">
        <ele>978.7518392683241</ele>
        <time>2021-07-20T12:50:31.427Z</time>
      </trkpt>
      <trkpt lat="42.204344272613525" lon="2.37554669380188">
        <ele>980.5138084548523</ele>
        <time>2021-07-20T12:50:42.679Z</time>
      </trkpt>
      <trkpt lat="42.20452666282654" lon="2.375117540359497">
        <ele>982.1943986587389</ele>
        <time>2021-07-20T12:50:53.936Z</time>
      </trkpt>
      <trkpt lat="42.20468759536743" lon="2.3746776580810547">
        <ele>983.8997730135692</ele>
        <time>2021-07-20T12:51:05.199Z</time>
      </trkpt>
      <trkpt lat="42.20480561256409" lon="2.3742270469665527">
        <ele>985.4974856378367</ele>
        <time>2021-07-20T12:51:16.468Z</time>
      </trkpt>
      <trkpt lat="42.204837799072266" lon="2.373969554901123">
        <ele>987.0558026013305</ele>
        <time>2021-07-20T12:51:27.740Z</time>
      </trkpt>
      <trkpt lat="42.20481634140015" lon="2.373722791671753">
        <ele>988.6330511624312</ele>
        <time>2021-07-20T12:51:39.015Z</time>
      </trkpt>
      <trkpt lat="42.20471978187561" lon="2.373400926589966">
        <ele>990.3006416412829</ele>
        <time>2021-07-20T12:51:50.294Z</time>
      </trkpt>
      <trkpt lat="42.20465540885925" lon="2.373046875">
        <ele>992.0170441244941</ele>
        <time>2021-07-20T12:52:01.577Z</time>
      </trkpt>
      <trkpt lat="42.20467686653137" lon="2.3728537559509277">
        <ele>993.4567535006968</ele>
        <time>2021-07-20T12:52:12.863Z</time>
      </trkpt>
      <trkpt lat="42.20476269721985" lon="2.372649908065796">
        <ele>994.729389448805</ele>
        <time>2021-07-20T12:52:24.152Z</time>
      </trkpt>
      <trkpt lat="42.205127477645874" lon="2.3720169067382812">
        <ele>995.8086252740075</ele>
        <time>2021-07-20T12:52:35.450Z</time>
      </trkpt>
      <trkpt lat="42.205106019973755" lon="2.371770143508911">
        <ele>997.280658179131</ele>
        <time>2021-07-20T12:52:46.751Z</time>
      </trkpt>
      <trkpt lat="42.205138206481934" lon="2.3714804649353027">
        <ele>998.4893552481703</ele>
        <time>2021-07-20T12:52:58.056Z</time>
      </trkpt>
      <trkpt lat="42.20525622367859" lon="2.3707830905914307">
        <ele>999.7100628164403</ele>
        <time>2021-07-20T12:53:09.369Z</time>
      </trkpt>
      <trkpt lat="42.205320596694946" lon="2.3706328868865967">
        <ele>1000.7049003358852</ele>
        <time>2021-07-20T12:53:20.684Z</time>
      </trkpt>
      <trkpt lat="42.205610275268555" lon="2.370128631591797">
        <ele>1001.3942295527927</ele>
        <time>2021-07-20T12:53:32.007Z</time>
      </trkpt>
      <trkpt lat="42.20572829246521" lon="2.3696672916412354">
        <ele>1002.4599693554767</ele>
        <time>2021-07-20T12:53:43.335Z</time>
      </trkpt>
      <trkpt lat="42.20591068267822" lon="2.3687124252319336">
        <ele>1003.5918273311521</ele>
        <time>2021-07-20T12:53:54.675Z</time>
      </trkpt>
      <trkpt lat="42.20603942871094" lon="2.368229627609253">
        <ele>1004.311248138896</ele>
        <time>2021-07-20T12:54:06.021Z</time>
      </trkpt>
      <trkpt lat="42.206050157547" lon="2.367779016494751">
        <ele>1005.1983607959801</ele>
        <time>2021-07-20T12:54:17.373Z</time>
      </trkpt>
      <trkpt lat="42.20600724220276" lon="2.3673176765441895">
        <ele>1006.2809706136302</ele>
        <time>2021-07-20T12:54:28.730Z</time>
      </trkpt>
      <trkpt lat="42.2059965133667" lon="2.3669421672821045">
        <ele>1007.0486136375018</ele>
        <time>2021-07-20T12:54:40.092Z</time>
      </trkpt>
      <trkpt lat="42.206050157547" lon="2.3666739463806152">
        <ele>1007.7605943449328</ele>
        <time>2021-07-20T12:54:51.457Z</time>
      </trkpt>
      <trkpt lat="42.206125259399414" lon="2.3663735389709473">
        <ele>1008.4768303841713</ele>
        <time>2021-07-20T12:55:02.826Z</time>
      </trkpt>
      <trkpt lat="42.20614671707153" lon="2.36605167388916">
        <ele>1009.2161283500179</ele>
        <time>2021-07-20T12:55:14.199Z</time>
      </trkpt>
      <trkpt lat="42.20615744590759" lon="2.3657619953155518">
        <ele>1009.8687484826995</ele>
        <time>2021-07-20T12:55:25.575Z</time>
      </trkpt>
      <trkpt lat="42.20614671707153" lon="2.365601062774658">
        <ele>1010.5684063103229</ele>
        <time>2021-07-20T12:55:36.953Z</time>
      </trkpt>
      <trkpt lat="42.206103801727295" lon="2.3654186725616455">
        <ele>1011.32372875493</ele>
        <time>2021-07-20T12:55:48.333Z</time>
      </trkpt>
      <trkpt lat="42.206071615219116" lon="2.365161180496216">
        <ele>1012.0220996894855</ele>
        <time>2021-07-20T12:55:59.716Z</time>
      </trkpt>
      <trkpt lat="42.206125259399414" lon="2.364528179168701">
        <ele>1012.5326801929561</ele>
        <time>2021-07-20T12:56:11.107Z</time>
      </trkpt>
      <trkpt lat="42.206103801727295" lon="2.364377975463867">
        <ele>1013.2255798817682</ele>
        <time>2021-07-20T12:56:22.500Z</time>
      </trkpt>
      <trkpt lat="42.206050157547" lon="2.364227771759033">
        <ele>1013.9836785099278</ele>
        <time>2021-07-20T12:56:33.895Z</time>
      </trkpt>
      <trkpt lat="42.20589995384216" lon="2.3639917373657227">
        <ele>1015.0846945558517</ele>
        <time>2021-07-20T12:56:45.293Z</time>
      </trkpt>
      <trkpt lat="42.205846309661865" lon="2.363830804824829">
        <ele>1015.9471990613897</ele>
        <time>2021-07-20T12:56:56.693Z</time>
      </trkpt>
      <trkpt lat="42.205835580825806" lon="2.3636698722839355">
        <ele>1016.683939586334</ele>
        <time>2021-07-20T12:57:08.095Z</time>
      </trkpt>
      <trkpt lat="42.2058463934809" lon="2.363584041595459">
        <ele>1017.2873162325666</ele>
        <time>2021-07-20T12:57:19.498Z</time>
      </trkpt>
      <trkpt lat="42.205857038497925" lon="2.3635196685791016">
        <ele>1017.8516206329821</ele>
        <time>2021-07-20T12:57:30.902Z</time>
      </trkpt>
      <trkpt lat="42.20615744590759" lon="2.3627471923828125">
        <ele>1018.2248686946064</ele>
        <time>2021-07-20T12:57:42.317Z</time>
      </trkpt>
      <trkpt lat="42.20630764961243" lon="2.3624467849731445">
        <ele>1018.833762075351</ele>
        <time>2021-07-20T12:57:53.736Z</time>
      </trkpt>
      <trkpt lat="42.20643639564514" lon="2.3622965812683105">
        <ele>1019.248181209374</ele>
        <time>2021-07-20T12:58:05.158Z</time>
      </trkpt>
      <trkpt lat="42.206586599349976" lon="2.362210750579834">
        <ele>1019.7534574896881</ele>
        <time>2021-07-20T12:58:16.582Z</time>
      </trkpt>
      <trkpt lat="42.207369804382324" lon="2.362189292907715">
        <ele>1019.5570073225986</ele>
        <time>2021-07-20T12:58:28.019Z</time>
      </trkpt>
      <trkpt lat="42.2074556350708" lon="2.362135648727417">
        <ele>1020.0548620895496</ele>
        <time>2021-07-20T12:58:39.457Z</time>
      </trkpt>
      <trkpt lat="42.20752000808716" lon="2.362060546875">
        <ele>1020.6680320237239</ele>
        <time>2021-07-20T12:58:50.897Z</time>
      </trkpt>
      <trkpt lat="42.207616567611694" lon="2.3618674278259277">
        <ele>1021.4689449113613</ele>
        <time>2021-07-20T12:59:02.339Z</time>
      </trkpt>
      <trkpt lat="42.20792770385742" lon="2.3611807823181152">
        <ele>1022.1204352662139</ele>
        <time>2021-07-20T12:59:13.791Z</time>
      </trkpt>
      <trkpt lat="42.20794916152954" lon="2.3609769344329834">
        <ele>1022.8116645406461</ele>
        <time>2021-07-20T12:59:25.245Z</time>
      </trkpt>
      <trkpt lat="42.20792770385742" lon="2.3608803749084473">
        <ele>1023.605670964879</ele>
        <time>2021-07-20T12:59:36.701Z</time>
      </trkpt>
      <trkpt lat="42.207874059677124" lon="2.360783815383911">
        <ele>1024.486207933874</ele>
        <time>2021-07-20T12:59:48.158Z</time>
      </trkpt>
      <trkpt lat="42.20773458480835" lon="2.3606228828430176">
        <ele>1025.5074117418771</ele>
        <time>2021-07-20T12:59:59.618Z</time>
      </trkpt>
      <trkpt lat="42.20767021179199" lon="2.360537052154541">
        <ele>1026.4349364544657</ele>
        <time>2021-07-20T13:00:11.079Z</time>
      </trkpt>
      <trkpt lat="42.20763802528381" lon="2.3604190349578857">
        <ele>1027.308792565018</ele>
        <time>2021-07-20T13:00:22.542Z</time>
      </trkpt>
      <trkpt lat="42.20753073692322" lon="2.359968423843384">
        <ele>1028.2168965121866</ele>
        <time>2021-07-20T13:00:34.011Z</time>
      </trkpt>
      <trkpt lat="42.207359075546265" lon="2.3596465587615967">
        <ele>1029.391636830074</ele>
        <time>2021-07-20T13:00:45.484Z</time>
      </trkpt>
      <trkpt lat="42.207348346710205" lon="2.359442710876465">
        <ele>1030.2395741472615</ele>
        <time>2021-07-20T13:00:56.960Z</time>
      </trkpt>
      <trkpt lat="42.207359075546265" lon="2.3590779304504395">
        <ele>1030.9845650436027</ele>
        <time>2021-07-20T13:01:08.440Z</time>
      </trkpt>
      <trkpt lat="42.20730543136597" lon="2.3587560653686523">
        <ele>1031.7439643482578</ele>
        <time>2021-07-20T13:01:19.924Z</time>
      </trkpt>
      <trkpt lat="42.20721960067749" lon="2.3584342002868652">
        <ele>1032.5367085579105</ele>
        <time>2021-07-20T13:01:31.412Z</time>
      </trkpt>
      <trkpt lat="42.207080125808716" lon="2.358112335205078">
        <ele>1033.5887764247984</ele>
        <time>2021-07-20T13:01:42.904Z</time>
      </trkpt>
      <trkpt lat="42.20697283744812" lon="2.357919216156006">
        <ele>1034.5817982047865</ele>
        <time>2021-07-20T13:01:54.399Z</time>
      </trkpt>
      <trkpt lat="42.20692992210388" lon="2.3577797412872314">
        <ele>1035.3497898079368</ele>
        <time>2021-07-20T13:02:05.896Z</time>
      </trkpt>
      <trkpt lat="42.206951379776" lon="2.357661724090576">
        <ele>1035.8680854796685</ele>
        <time>2021-07-20T13:02:17.395Z</time>
      </trkpt>
      <trkpt lat="42.2070050239563" lon="2.35756516456604">
        <ele>1036.2309431972606</ele>
        <time>2021-07-20T13:02:28.895Z</time>
      </trkpt>
      <trkpt lat="42.20729470252991" lon="2.3572325706481934">
        <ele>1036.1222805554703</ele>
        <time>2021-07-20T13:02:40.401Z</time>
      </trkpt>
      <trkpt lat="42.207380533218384" lon="2.3570609092712402">
        <ele>1036.3692388456736</ele>
        <time>2021-07-20T13:02:51.910Z</time>
      </trkpt>
      <trkpt lat="42.20749863423407" lon="2.356696128845215">
        <ele>1036.6338754844537</ele>
        <time>2021-07-20T13:03:03.423Z</time>
      </trkpt>
      <trkpt lat="42.20749855041504" lon="2.356696128845215">
        <ele>1036.8156289012122</ele>
        <time>2021-07-20T13:03:14.936Z</time>
      </trkpt>
      <trkpt lat="42.207627296447754" lon="2.356095314025879">
        <ele>1036.9844035799863</ele>
        <time>2021-07-20T13:03:26.457Z</time>
      </trkpt>
      <trkpt lat="42.207616567611694" lon="2.355773448944092">
        <ele>1037.023029682301</ele>
        <time>2021-07-20T13:03:37.982Z</time>
      </trkpt>
      <trkpt lat="42.2075092792511" lon="2.3546791076660156">
        <ele>1037.1136881456</ele>
        <time>2021-07-20T13:03:49.520Z</time>
      </trkpt>
      <trkpt lat="42.2075092792511" lon="2.3543572425842285">
        <ele>1036.969271562577</ele>
        <time>2021-07-20T13:04:01.061Z</time>
      </trkpt>
      <trkpt lat="42.20753082074225" lon="2.3541319370269775">
        <ele>1036.7482708481866</ele>
        <time>2021-07-20T13:04:12.605Z</time>
      </trkpt>
      <trkpt lat="42.20753073692322" lon="2.3541319370269775">
        <ele>1036.4578623794941</ele>
        <time>2021-07-20T13:04:24.149Z</time>
      </trkpt>
      <trkpt lat="42.20754146575928" lon="2.353971004486084">
        <ele>1036.1403052887858</ele>
        <time>2021-07-20T13:04:35.695Z</time>
      </trkpt>
      <trkpt lat="42.20753073692322" lon="2.353595495223999">
        <ele>1035.8905324322707</ele>
        <time>2021-07-20T13:04:47.246Z</time>
      </trkpt>
      <trkpt lat="42.20753073692322" lon="2.353219985961914">
        <ele>1035.682706806133</ele>
        <time>2021-07-20T13:04:58.801Z</time>
      </trkpt>
      <trkpt lat="42.207616567611694" lon="2.3531341552734375">
        <ele>1035.0514000812595</ele>
        <time>2021-07-20T13:05:10.358Z</time>
      </trkpt>
      <trkpt lat="42.20771312713623" lon="2.353101968765259">
        <ele>1034.233489143499</ele>
        <time>2021-07-20T13:05:21.916Z</time>
      </trkpt>
      <trkpt lat="42.207884788513184" lon="2.353144884109497">
        <ele>1033.1176748092846</ele>
        <time>2021-07-20T13:05:33.477Z</time>
      </trkpt>
      <trkpt lat="42.20802426338196" lon="2.353123426437378">
        <ele>1032.071094248508</ele>
        <time>2021-07-20T13:05:45.040Z</time>
      </trkpt>
      <trkpt lat="42.20838904380798" lon="2.3529624938964844">
        <ele>1031.105596985828</ele>
        <time>2021-07-20T13:05:56.610Z</time>
      </trkpt>
      <trkpt lat="42.20864653587341" lon="2.3528873920440674">
        <ele>1029.8955678408267</ele>
        <time>2021-07-20T13:06:08.184Z</time>
      </trkpt>
      <trkpt lat="42.20890402793884" lon="2.352747917175293">
        <ele>1028.6194014880932</ele>
        <time>2021-07-20T13:06:19.762Z</time>
      </trkpt>
      <trkpt lat="42.209107875823975" lon="2.3525655269622803">
        <ele>1027.4792379730015</ele>
        <time>2021-07-20T13:06:31.344Z</time>
      </trkpt>
      <trkpt lat="42.20921516418457" lon="2.3524367809295654">
        <ele>1026.4138177709228</ele>
        <time>2021-07-20T13:06:42.928Z</time>
      </trkpt>
      <trkpt lat="42.20927953720093" lon="2.3522651195526123">
        <ele>1025.4474597220997</ele>
        <time>2021-07-20T13:06:54.515Z</time>
      </trkpt>
      <trkpt lat="42.20954775810242" lon="2.3514604568481445">
        <ele>1024.6886462450584</ele>
        <time>2021-07-20T13:07:06.112Z</time>
      </trkpt>
      <trkpt lat="42.20990180969238" lon="2.350870370864868">
        <ele>1023.291878201873</ele>
        <time>2021-07-20T13:07:17.718Z</time>
      </trkpt>
      <trkpt lat="42.20994472503662" lon="2.350602149963379">
        <ele>1022.3233236187732</ele>
        <time>2021-07-20T13:07:29.327Z</time>
      </trkpt>
      <trkpt lat="42.210084199905396" lon="2.3492181301116943">
        <ele>1021.2445175967708</ele>
        <time>2021-07-20T13:07:40.953Z</time>
      </trkpt>
      <trkpt lat="42.210127115249634" lon="2.3489928245544434">
        <ele>1020.3967776314241</ele>
        <time>2021-07-20T13:07:52.582Z</time>
      </trkpt>
      <trkpt lat="42.21025586128235" lon="2.348552942276001">
        <ele>1019.4557070516</ele>
        <time>2021-07-20T13:08:04.216Z</time>
      </trkpt>
      <trkpt lat="42.21028804779053" lon="2.34832763671875">
        <ele>1018.7903559916723</ele>
        <time>2021-07-20T13:08:15.853Z</time>
      </trkpt>
      <trkpt lat="42.21029877662659" lon="2.3480916023254395">
        <ele>1018.4219083862861</ele>
        <time>2021-07-20T13:08:27.493Z</time>
      </trkpt>
      <trkpt lat="42.210330963134766" lon="2.3479413986206055">
        <ele>1018.0326029041883</ele>
        <time>2021-07-20T13:08:39.135Z</time>
      </trkpt>
      <trkpt lat="42.21051335334778" lon="2.347608804702759">
        <ele>1017.317926740802</ele>
        <time>2021-07-20T13:08:50.782Z</time>
      </trkpt>
      <trkpt lat="42.210599184036255" lon="2.347351312637329">
        <ele>1016.9499930389003</ele>
        <time>2021-07-20T13:09:02.432Z</time>
      </trkpt>
      <trkpt lat="42.210599184036255" lon="2.3467719554901123">
        <ele>1017.1081686751658</ele>
        <time>2021-07-20T13:09:14.089Z</time>
      </trkpt>
      <trkpt lat="42.210566997528076" lon="2.346181869506836">
        <ele>1016.8678613769239</ele>
        <time>2021-07-20T13:09:25.753Z</time>
      </trkpt>
      <trkpt lat="42.21051335334778" lon="2.3460209369659424">
        <ele>1017.0403587559506</ele>
        <time>2021-07-20T13:09:37.419Z</time>
      </trkpt>
      <trkpt lat="42.210373878479004" lon="2.345752716064453">
        <ele>1017.4242489934368</ele>
        <time>2021-07-20T13:09:49.089Z</time>
      </trkpt>
      <trkpt lat="42.21021294593811" lon="2.345559597015381">
        <ele>1017.8768119307458</ele>
        <time>2021-07-20T13:10:00.762Z</time>
      </trkpt>
      <trkpt lat="42.20999836921692" lon="2.34533429145813">
        <ele>1018.5072560308815</ele>
        <time>2021-07-20T13:10:12.440Z</time>
      </trkpt>
      <trkpt lat="42.209880352020264" lon="2.345227003097534">
        <ele>1019.142291122118</ele>
        <time>2021-07-20T13:10:24.120Z</time>
      </trkpt>
      <trkpt lat="42.20954775810242" lon="2.344787120819092">
        <ele>1019.9951092366548</ele>
        <time>2021-07-20T13:10:35.808Z</time>
      </trkpt>
      <trkpt lat="42.20930099487305" lon="2.3445403575897217">
        <ele>1021.0671775106521</ele>
        <time>2021-07-20T13:10:47.500Z</time>
      </trkpt>
      <trkpt lat="42.20924735069275" lon="2.344411611557007">
        <ele>1021.810102278801</ele>
        <time>2021-07-20T13:10:59.194Z</time>
      </trkpt>
      <trkpt lat="42.20925807952881" lon="2.3443150520324707">
        <ele>1022.4564165376962</ele>
        <time>2021-07-20T13:11:10.889Z</time>
      </trkpt>
      <trkpt lat="42.20931180752814" lon="2.3442506790161133">
        <ele>1023.0898206022807</ele>
        <time>2021-07-20T13:11:22.586Z</time>
      </trkpt>
      <trkpt lat="42.209311723709106" lon="2.3442506790161133">
        <ele>1023.8528742902411</ele>
        <time>2021-07-20T13:11:34.283Z</time>
      </trkpt>
      <trkpt lat="42.20948338508606" lon="2.3440146446228027">
        <ele>1024.4978820557674</ele>
        <time>2021-07-20T13:11:45.983Z</time>
      </trkpt>
      <trkpt lat="42.20968723297119" lon="2.343413829803467">
        <ele>1025.5580101361145</ele>
        <time>2021-07-20T13:11:57.691Z</time>
      </trkpt>
      <trkpt lat="42.209826707839966" lon="2.343285083770752">
        <ele>1026.2078734381214</ele>
        <time>2021-07-20T13:12:09.402Z</time>
      </trkpt>
      <trkpt lat="42.210116386413574" lon="2.3431241512298584">
        <ele>1026.6068096372999</ele>
        <time>2021-07-20T13:12:21.118Z</time>
      </trkpt>
      <trkpt lat="42.21023440361023" lon="2.3430168628692627">
        <ele>1027.3243706667233</ele>
        <time>2021-07-20T13:12:32.836Z</time>
      </trkpt>
      <trkpt lat="42.21023440361023" lon="2.3428988456726074">
        <ele>1028.2529314396488</ele>
        <time>2021-07-20T13:12:44.556Z</time>
      </trkpt>
      <trkpt lat="42.20990180969238" lon="2.341986894607544">
        <ele>1030.117716513234</ele>
        <time>2021-07-20T13:12:56.288Z</time>
      </trkpt>
      <trkpt lat="42.20990180969238" lon="2.341707944869995">
        <ele>1031.0289165460194</ele>
        <time>2021-07-20T13:13:08.023Z</time>
      </trkpt>
      <trkpt lat="42.21000909805298" lon="2.341386079788208">
        <ele>1031.8057391436987</ele>
        <time>2021-07-20T13:13:19.762Z</time>
      </trkpt>
      <trkpt lat="42.21025586128235" lon="2.3410964012145996">
        <ele>1032.3747491637475</ele>
        <time>2021-07-20T13:13:31.507Z</time>
      </trkpt>
      <trkpt lat="42.210373878479004" lon="2.341010570526123">
        <ele>1032.9950626041275</ele>
        <time>2021-07-20T13:13:43.254Z</time>
      </trkpt>
      <trkpt lat="42.21045970916748" lon="2.3407745361328125">
        <ele>1033.7404647603748</ele>
        <time>2021-07-20T13:13:55.004Z</time>
      </trkpt>
      <trkpt lat="42.21044898033142" lon="2.340517044067383">
        <ele>1034.5382797135112</ele>
        <time>2021-07-20T13:14:06.757Z</time>
      </trkpt>
      <trkpt lat="42.21040606498718" lon="2.3402488231658936">
        <ele>1035.4489308559355</ele>
        <time>2021-07-20T13:14:18.513Z</time>
      </trkpt>
      <trkpt lat="42.21030950546265" lon="2.340141534805298">
        <ele>1036.5556054587448</ele>
        <time>2021-07-20T13:14:30.271Z</time>
      </trkpt>
      <trkpt lat="42.21021294593811" lon="2.3400771617889404">
        <ele>1037.6928701539832</ele>
        <time>2021-07-20T13:14:42.031Z</time>
      </trkpt>
      <trkpt lat="42.21013784408569" lon="2.3399269580841064">
        <ele>1038.7502423729466</ele>
        <time>2021-07-20T13:14:53.793Z</time>
      </trkpt>
      <trkpt lat="42.2099769115448" lon="2.339487075805664">
        <ele>1039.7652212854944</ele>
        <time>2021-07-20T13:15:05.561Z</time>
      </trkpt>
      <trkpt lat="42.209858894348145" lon="2.339358329772949">
        <ele>1040.8773158643498</ele>
        <time>2021-07-20T13:15:17.331Z</time>
      </trkpt>
      <trkpt lat="42.20970869064331" lon="2.3392724990844727">
        <ele>1042.0721300655005</ele>
        <time>2021-07-20T13:15:29.104Z</time>
      </trkpt>
      <trkpt lat="42.209376096725464" lon="2.338993549346924">
        <ele>1043.6669723150671</ele>
        <time>2021-07-20T13:15:40.883Z</time>
      </trkpt>
      <trkpt lat="42.209311723709106" lon="2.3388218879699707">
        <ele>1044.8422901293807</ele>
        <time>2021-07-20T13:15:52.664Z</time>
      </trkpt>
      <trkpt lat="42.209343910217285" lon="2.3387253284454346">
        <ele>1045.7647736186054</ele>
        <time>2021-07-20T13:16:04.447Z</time>
      </trkpt>
      <trkpt lat="42.2094190120697" lon="2.338618040084839">
        <ele>1046.593024963871</ele>
        <time>2021-07-20T13:16:16.231Z</time>
      </trkpt>
      <trkpt lat="42.2099232673645" lon="2.338414192199707">
        <ele>1046.9621955688028</ele>
        <time>2021-07-20T13:16:28.024Z</time>
      </trkpt>
      <trkpt lat="42.21004128456116" lon="2.3384249210357666">
        <ele>1047.6627226546589</ele>
        <time>2021-07-20T13:16:39.819Z</time>
      </trkpt>
      <trkpt lat="42.21028804779053" lon="2.338489294052124">
        <ele>1048.1084573603705</ele>
        <time>2021-07-20T13:16:51.618Z</time>
      </trkpt>
      <trkpt lat="42.2104275226593" lon="2.3384785652160645">
        <ele>1048.8219421741762</ele>
        <time>2021-07-20T13:17:03.419Z</time>
      </trkpt>
      <trkpt lat="42.21054553985596" lon="2.33833909034729">
        <ele>1049.7313132996792</ele>
        <time>2021-07-20T13:17:15.223Z</time>
      </trkpt>
      <trkpt lat="42.210609912872314" lon="2.3381567001342773">
        <ele>1050.9457793935226</ele>
        <time>2021-07-20T13:17:27.029Z</time>
      </trkpt>
      <trkpt lat="42.210588455200195" lon="2.337716817855835">
        <ele>1052.340964892174</ele>
        <time>2021-07-20T13:17:38.840Z</time>
      </trkpt>
      <trkpt lat="42.21051335334778" lon="2.337362766265869">
        <ele>1053.8049844065226</ele>
        <time>2021-07-20T13:17:50.656Z</time>
      </trkpt>
      <trkpt lat="42.21050262451172" lon="2.3371803760528564">
        <ele>1054.9682740226635</ele>
        <time>2021-07-20T13:18:02.474Z</time>
      </trkpt>
      <trkpt lat="42.210566997528076" lon="2.3367083072662354">
        <ele>1055.9451062007438</ele>
        <time>2021-07-20T13:18:14.297Z</time>
      </trkpt>
      <trkpt lat="42.210577726364136" lon="2.3364830017089844">
        <ele>1056.9158891773109</ele>
        <time>2021-07-20T13:18:26.123Z</time>
      </trkpt>
      <trkpt lat="42.210566997528076" lon="2.336397171020508">
        <ele>1057.968189914709</ele>
        <time>2021-07-20T13:18:37.950Z</time>
      </trkpt>
      <trkpt lat="42.2105348110199" lon="2.3362791538238525">
        <ele>1059.0781826158118</ele>
        <time>2021-07-20T13:18:49.779Z</time>
      </trkpt>
      <trkpt lat="42.210341691970825" lon="2.3359787464141846">
        <ele>1060.5899737895177</ele>
        <time>2021-07-20T13:19:01.612Z</time>
      </trkpt>
      <trkpt lat="42.21030950546265" lon="2.3358070850372314">
        <ele>1061.6295827470774</ele>
        <time>2021-07-20T13:19:13.448Z</time>
      </trkpt>
      <trkpt lat="42.21029877662659" lon="2.335495948791504">
        <ele>1062.3260199722831</ele>
        <time>2021-07-20T13:19:25.287Z</time>
      </trkpt>
      <trkpt lat="42.21025586128235" lon="2.3353028297424316">
        <ele>1063.153899825817</ele>
        <time>2021-07-20T13:19:37.129Z</time>
      </trkpt>
      <trkpt lat="42.210116386413574" lon="2.335023880004883">
        <ele>1064.196764047109</ele>
        <time>2021-07-20T13:19:48.975Z</time>
      </trkpt>
      <trkpt lat="42.2099769115448" lon="2.3347878456115723">
        <ele>1065.2013659721833</ele>
        <time>2021-07-20T13:20:00.824Z</time>
      </trkpt>
      <trkpt lat="42.209901893511415" lon="2.3347020149230957">
        <ele>1066.005312740991</ele>
        <time>2021-07-20T13:20:12.675Z</time>
      </trkpt>
      <trkpt lat="42.20990180969238" lon="2.3347020149230957">
        <ele>1066.5582841321352</ele>
        <time>2021-07-20T13:20:24.526Z</time>
      </trkpt>
      <trkpt lat="42.20968723297119" lon="2.334444522857666">
        <ele>1067.472840298954</ele>
        <time>2021-07-20T13:20:36.381Z</time>
      </trkpt>
      <trkpt lat="42.20965504646301" lon="2.33434796333313">
        <ele>1067.8865410538688</ele>
        <time>2021-07-20T13:20:48.238Z</time>
      </trkpt>
      <trkpt lat="42.20968723297119" lon="2.334219217300415">
        <ele>1068.0485560938992</ele>
        <time>2021-07-20T13:21:00.096Z</time>
      </trkpt>
      <trkpt lat="42.20977306365967" lon="2.334144115447998">
        <ele>1067.992888763384</ele>
        <time>2021-07-20T13:21:11.956Z</time>
      </trkpt>
      <trkpt lat="42.21014857292175" lon="2.333950996398926">
        <ele>1067.4511254620772</ele>
        <time>2021-07-20T13:21:23.822Z</time>
      </trkpt>
      <trkpt lat="42.21022367477417" lon="2.33384370803833">
        <ele>1067.3661964983062</ele>
        <time>2021-07-20T13:21:35.690Z</time>
      </trkpt>
      <trkpt lat="42.21030950546265" lon="2.333446741104126">
        <ele>1067.401003488939</ele>
        <time>2021-07-20T13:21:47.563Z</time>
      </trkpt>
      <trkpt lat="42.21039533615112" lon="2.333199977874756">
        <ele>1067.1631325244607</ele>
        <time>2021-07-20T13:21:59.439Z</time>
      </trkpt>
      <trkpt lat="42.21067428588867" lon="2.3327600955963135">
        <ele>1066.7027333327412</ele>
        <time>2021-07-20T13:22:11.322Z</time>
      </trkpt>
      <trkpt lat="42.21077084541321" lon="2.3326098918914795">
        <ele>1066.4756375727388</ele>
        <time>2021-07-20T13:22:23.207Z</time>
      </trkpt>
      <trkpt lat="42.2109317779541" lon="2.3323631286621094">
        <ele>1066.1878796899614</ele>
        <time>2021-07-20T13:22:35.096Z</time>
      </trkpt>
      <trkpt lat="42.211114168167114" lon="2.3321914672851562">
        <ele>1065.8132121777126</ele>
        <time>2021-07-20T13:22:46.989Z</time>
      </trkpt>
      <trkpt lat="42.21126437187195" lon="2.3319554328918457">
        <ele>1065.3762170311834</ele>
        <time>2021-07-20T13:22:58.886Z</time>
      </trkpt>
      <trkpt lat="42.211328744888306" lon="2.331923246383667">
        <ele>1065.0900902437447</ele>
        <time>2021-07-20T13:23:10.784Z</time>
      </trkpt>
      <trkpt lat="42.21140384674072" lon="2.3319554328918457">
        <ele>1064.8641661169058</ele>
        <time>2021-07-20T13:23:22.683Z</time>
      </trkpt>
      <trkpt lat="42.21147894859314" lon="2.3320627212524414">
        <ele>1064.7030480625845</ele>
        <time>2021-07-20T13:23:34.584Z</time>
      </trkpt>
      <trkpt lat="42.21152186393738" lon="2.33209490776062">
        <ele>1064.465483485327</ele>
        <time>2021-07-20T13:23:46.486Z</time>
      </trkpt>
      <trkpt lat="42.211596965789795" lon="2.3320627212524414">
        <ele>1064.1916409191394</ele>
        <time>2021-07-20T13:23:58.389Z</time>
      </trkpt>
      <trkpt lat="42.21179008483887" lon="2.331901788711548">
        <ele>1063.6748528287344</ele>
        <time>2021-07-20T13:24:10.295Z</time>
      </trkpt>
      <trkpt lat="42.211854457855225" lon="2.331944704055786">
        <ele>1063.38172379064</ele>
        <time>2021-07-20T13:24:22.203Z</time>
      </trkpt>
      <trkpt lat="42.21190810203552" lon="2.332019805908203">
        <ele>1063.1171263624408</ele>
        <time>2021-07-20T13:24:34.112Z</time>
      </trkpt>
      <trkpt lat="42.21201547421515" lon="2.3322880268096924">
        <ele>1062.9671410625238</ele>
        <time>2021-07-20T13:24:46.024Z</time>
      </trkpt>
      <trkpt lat="42.21201539039612" lon="2.3322880268096924">
        <ele>1062.6453936034266</ele>
        <time>2021-07-20T13:24:57.936Z</time>
      </trkpt>
      <trkpt lat="42.212069034576416" lon="2.33235239982605">
        <ele>1062.316654642112</ele>
        <time>2021-07-20T13:25:09.850Z</time>
      </trkpt>
      <trkpt lat="42.212347984313965" lon="2.3323309421539307">
        <ele>1061.7266067636683</ele>
        <time>2021-07-20T13:25:21.768Z</time>
      </trkpt>
      <trkpt lat="42.212627017870545" lon="2.332749366760254">
        <ele>1061.5765770873872</ele>
        <time>2021-07-20T13:25:33.693Z</time>
      </trkpt>
      <trkpt lat="42.21272349357605" lon="2.3328888416290283">
        <ele>1061.207815699099</ele>
        <time>2021-07-20T13:25:45.620Z</time>
      </trkpt>
      <trkpt lat="42.21273430623114" lon="2.3328781127929688">
        <ele>1060.6656491429621</ele>
        <time>2021-07-20T13:25:57.547Z</time>
      </trkpt>
      <trkpt lat="42.21273422241211" lon="2.3328781127929688">
        <ele>1060.0657809657414</ele>
        <time>2021-07-20T13:26:09.474Z</time>
      </trkpt>
      <trkpt lat="42.212830781936646" lon="2.3328781127929688">
        <ele>1059.3791126977749</ele>
        <time>2021-07-20T13:26:21.403Z</time>
      </trkpt>
      <trkpt lat="42.21290588378906" lon="2.3328030109405518">
        <ele>1058.5066685627792</ele>
        <time>2021-07-20T13:26:33.333Z</time>
      </trkpt>
      <trkpt lat="42.21301317214966" lon="2.332566976547241">
        <ele>1057.3307945289007</ele>
        <time>2021-07-20T13:26:45.267Z</time>
      </trkpt>
      <trkpt lat="42.213099002838135" lon="2.332502603530884">
        <ele>1056.2905581858627</ele>
        <time>2021-07-20T13:26:57.202Z</time>
      </trkpt>
      <trkpt lat="42.21319556236267" lon="2.332524061203003">
        <ele>1055.2645735910312</ele>
        <time>2021-07-20T13:27:09.139Z</time>
      </trkpt>
      <trkpt lat="42.21352815628052" lon="2.33284592628479">
        <ele>1054.5936956142073</ele>
        <time>2021-07-20T13:27:21.082Z</time>
      </trkpt>
      <trkpt lat="42.21363544464111" lon="2.332867383956909">
        <ele>1053.4688837872277</ele>
        <time>2021-07-20T13:27:33.027Z</time>
      </trkpt>
      <trkpt lat="42.21379637718201" lon="2.33284592628479">
        <ele>1052.2292514737064</ele>
        <time>2021-07-20T13:27:44.975Z</time>
      </trkpt>
      <trkpt lat="42.21403241157532" lon="2.3327279090881348">
        <ele>1050.8270849525302</ele>
        <time>2021-07-20T13:27:56.927Z</time>
      </trkpt>
      <trkpt lat="42.214107513427734" lon="2.3326313495635986">
        <ele>1049.282085781427</ele>
        <time>2021-07-20T13:28:08.880Z</time>
      </trkpt>
      <trkpt lat="42.21417188644409" lon="2.3324596881866455">
        <ele>1047.6662358306467</ele>
        <time>2021-07-20T13:28:20.836Z</time>
      </trkpt>
      <trkpt lat="42.214332818984985" lon="2.3315048217773438">
        <ele>1045.5853880646268</ele>
        <time>2021-07-20T13:28:32.803Z</time>
      </trkpt>
      <trkpt lat="42.21439719200134" lon="2.330828905105591">
        <ele>1043.310782787332</ele>
        <time>2021-07-20T13:28:44.778Z</time>
      </trkpt>
      <trkpt lat="42.214869260787964" lon="2.329627275466919">
        <ele>1041.7486225030166</ele>
        <time>2021-07-20T13:28:56.769Z</time>
      </trkpt>
      <trkpt lat="42.21487998962402" lon="2.3295199871063232">
        <ele>1039.9347203742418</ele>
        <time>2021-07-20T13:29:08.762Z</time>
      </trkpt>
      <trkpt lat="42.214847803115845" lon="2.329423427581787">
        <ele>1038.0080305599931</ele>
        <time>2021-07-20T13:29:20.756Z</time>
      </trkpt>
      <trkpt lat="42.21453666687012" lon="2.329155206680298">
        <ele>1035.392363142632</ele>
        <time>2021-07-20T13:29:32.756Z</time>
      </trkpt>
      <trkpt lat="42.21449375152588" lon="2.329080104827881">
        <ele>1033.4729741368724</ele>
        <time>2021-07-20T13:29:44.757Z</time>
      </trkpt>
      <trkpt lat="42.2144615650177" lon="2.3289620876312256">
        <ele>1031.6024632551987</ele>
        <time>2021-07-20T13:29:56.760Z</time>
      </trkpt>
      <trkpt lat="42.21445083618164" lon="2.3288440704345703">
        <ele>1029.8092979601547</ele>
        <time>2021-07-20T13:30:08.764Z</time>
      </trkpt>
      <trkpt lat="42.21450448036194" lon="2.328629493713379">
        <ele>1028.1861392710641</ele>
        <time>2021-07-20T13:30:20.771Z</time>
      </trkpt>
      <trkpt lat="42.21466541290283" lon="2.3282968997955322">
        <ele>1026.826217592779</ele>
        <time>2021-07-20T13:30:32.782Z</time>
      </trkpt>
      <trkpt lat="42.21467614173889" lon="2.3281466960906982">
        <ele>1025.1835021979725</ele>
        <time>2021-07-20T13:30:44.795Z</time>
      </trkpt>
      <trkpt lat="42.21465468406677" lon="2.3280394077301025">
        <ele>1023.5173807337073</ele>
        <time>2021-07-20T13:30:56.809Z</time>
      </trkpt>
      <trkpt lat="42.21439719200134" lon="2.3278141021728516">
        <ele>1021.3711926678503</ele>
        <time>2021-07-20T13:31:08.828Z</time>
      </trkpt>
      <trkpt lat="42.214365005493164" lon="2.32759952545166">
        <ele>1019.8172892699015</ele>
        <time>2021-07-20T13:31:20.850Z</time>
      </trkpt>
      <trkpt lat="42.2144079208374" lon="2.327073812484741">
        <ele>1018.4391653408038</ele>
        <time>2021-07-20T13:31:32.878Z</time>
      </trkpt>
      <trkpt lat="42.21448302268982" lon="2.326784133911133">
        <ele>1017.1642170047267</ele>
        <time>2021-07-20T13:31:44.910Z</time>
      </trkpt>
      <trkpt lat="42.21452593803406" lon="2.3265373706817627">
        <ele>1015.9044289982212</ele>
        <time>2021-07-20T13:31:56.945Z</time>
      </trkpt>
      <trkpt lat="42.21450448036194" lon="2.3263871669769287">
        <ele>1014.576056512821</ele>
        <time>2021-07-20T13:32:08.982Z</time>
      </trkpt>
      <trkpt lat="42.21447229385376" lon="2.326301336288452">
        <ele>1013.25552195302</ele>
        <time>2021-07-20T13:32:21.020Z</time>
      </trkpt>
      <trkpt lat="42.214086055755615" lon="2.3259365558624268">
        <ele>1011.1588642187663</ele>
        <time>2021-07-20T13:32:33.065Z</time>
      </trkpt>
      <trkpt lat="42.21404314041138" lon="2.325829267501831">
        <ele>1009.9481306960603</ele>
        <time>2021-07-20T13:32:45.112Z</time>
      </trkpt>
      <trkpt lat="42.21402168273926" lon="2.3256897926330566">
        <ele>1008.7797412277596</ele>
        <time>2021-07-20T13:32:57.161Z</time>
      </trkpt>
      <trkpt lat="42.21403241157532" lon="2.3255503177642822">
        <ele>1007.6878496753725</ele>
        <time>2021-07-20T13:33:09.211Z</time>
      </trkpt>
      <trkpt lat="42.214075326919556" lon="2.3254430294036865">
        <ele>1006.7147164918094</ele>
        <time>2021-07-20T13:33:21.263Z</time>
      </trkpt>
      <trkpt lat="42.214118242263794" lon="2.32535719871521">
        <ele>1005.7909845258088</ele>
        <time>2021-07-20T13:33:33.316Z</time>
      </trkpt>
      <trkpt lat="42.21441864967346" lon="2.3250889778137207">
        <ele>1005.395065114697</ele>
        <time>2021-07-20T13:33:45.375Z</time>
      </trkpt>
      <trkpt lat="42.21447229385376" lon="2.3249924182891846">
        <ele>1004.5488762987247</ele>
        <time>2021-07-20T13:33:57.435Z</time>
      </trkpt>
      <trkpt lat="42.21449375152588" lon="2.3248744010925293">
        <ele>1003.6425531993557</ele>
        <time>2021-07-20T13:34:09.497Z</time>
      </trkpt>
      <trkpt lat="42.21448302268982" lon="2.324756383895874">
        <ele>1002.657918898544</ele>
        <time>2021-07-20T13:34:21.560Z</time>
      </trkpt>
      <trkpt lat="42.21441864967346" lon="2.3245954513549805">
        <ele>1001.5232267469321</ele>
        <time>2021-07-20T13:34:33.625Z</time>
      </trkpt>
      <trkpt lat="42.21426844596863" lon="2.3243916034698486">
        <ele>1000.1624015212413</ele>
        <time>2021-07-20T13:34:45.694Z</time>
      </trkpt>
      <trkpt lat="42.21421480178833" lon="2.324262857437134">
        <ele>999.0089776138961</ele>
        <time>2021-07-20T13:34:57.764Z</time>
      </trkpt>
      <trkpt lat="42.21420407295227" lon="2.3241126537323">
        <ele>997.9448473482767</ele>
        <time>2021-07-20T13:35:09.836Z</time>
      </trkpt>
      <trkpt lat="42.21425771713257" lon="2.323887348175049">
        <ele>996.9323387136699</ele>
        <time>2021-07-20T13:35:21.911Z</time>
      </trkpt>
      <trkpt lat="42.21449375152588" lon="2.3232221603393555">
        <ele>996.1897147256793</ele>
        <time>2021-07-20T13:35:33.995Z</time>
      </trkpt>
      <trkpt lat="42.21452593803406" lon="2.3229753971099854">
        <ele>995.1735721188084</ele>
        <time>2021-07-20T13:35:46.082Z</time>
      </trkpt>
      <trkpt lat="42.21449375152588" lon="2.3228251934051514">
        <ele>993.9128870818456</ele>
        <time>2021-07-20T13:35:58.171Z</time>
      </trkpt>
      <trkpt lat="42.214365005493164" lon="2.3227179050445557">
        <ele>992.3565717676158</ele>
        <time>2021-07-20T13:36:10.262Z</time>
      </trkpt>
      <trkpt lat="42.21425771713257" lon="2.3226964473724365">
        <ele>990.7759030043551</ele>
        <time>2021-07-20T13:36:22.355Z</time>
      </trkpt>
      <trkpt lat="42.21403241157532" lon="2.322739362716675">
        <ele>988.8876220316608</ele>
        <time>2021-07-20T13:36:34.451Z</time>
      </trkpt>
      <trkpt lat="42.21394658088684" lon="2.3226964473724365">
        <ele>987.3333318767661</ele>
        <time>2021-07-20T13:36:46.549Z</time>
      </trkpt>
      <trkpt lat="42.2139036655426" lon="2.3226213455200195">
        <ele>985.846310499872</ele>
        <time>2021-07-20T13:36:58.648Z</time>
      </trkpt>
      <trkpt lat="42.21392512321472" lon="2.3222029209136963">
        <ele>984.5144407590155</ele>
        <time>2021-07-20T13:37:10.752Z</time>
      </trkpt>
      <trkpt lat="42.213914478197694" lon="2.3221492767333984">
        <ele>983.0577957865075</ele>
        <time>2021-07-20T13:37:22.857Z</time>
      </trkpt>
      <trkpt lat="42.21374273300171" lon="2.321183681488037">
        <ele>981.3916172910187</ele>
        <time>2021-07-20T13:37:34.973Z</time>
      </trkpt>
      <trkpt lat="42.21372127532959" lon="2.320915460586548">
        <ele>979.8062070004357</ele>
        <time>2021-07-20T13:37:47.093Z</time>
      </trkpt>
      <trkpt lat="42.21374273300171" lon="2.320657968521118">
        <ele>978.344665955799</ele>
        <time>2021-07-20T13:37:59.216Z</time>
      </trkpt>
      <trkpt lat="42.21378564834595" lon="2.3204433917999268">
        <ele>976.9551861616478</ele>
        <time>2021-07-20T13:38:11.341Z</time>
      </trkpt>
      <trkpt lat="42.21377491950989" lon="2.320314645767212">
        <ele>975.4469922925193</ele>
        <time>2021-07-20T13:38:23.468Z</time>
      </trkpt>
      <trkpt lat="42.213581800460815" lon="2.3197245597839355">
        <ele>973.4676792351764</ele>
        <time>2021-07-20T13:38:35.602Z</time>
      </trkpt>
      <trkpt lat="42.2135066986084" lon="2.319016456604004">
        <ele>971.7594122034501</ele>
        <time>2021-07-20T13:38:47.745Z</time>
      </trkpt>
      <trkpt lat="42.21348524093628" lon="2.3187053203582764">
        <ele>970.172928241662</ele>
        <time>2021-07-20T13:38:59.892Z</time>
      </trkpt>
      <trkpt lat="42.2135066986084" lon="2.318490743637085">
        <ele>968.7550684260877</ele>
        <time>2021-07-20T13:39:12.041Z</time>
      </trkpt>
      <trkpt lat="42.21353888511658" lon="2.318394184112549">
        <ele>967.4258326775561</ele>
        <time>2021-07-20T13:39:24.192Z</time>
      </trkpt>
      <trkpt lat="42.21365690231323" lon="2.318168878555298">
        <ele>966.3357556384988</ele>
        <time>2021-07-20T13:39:36.346Z</time>
      </trkpt>
      <trkpt lat="42.21369981765747" lon="2.318040132522583">
        <ele>965.1130864478534</ele>
        <time>2021-07-20T13:39:48.502Z</time>
      </trkpt>
      <trkpt lat="42.21367835998535" lon="2.317911386489868">
        <ele>963.7468002118096</ele>
        <time>2021-07-20T13:40:00.659Z</time>
      </trkpt>
      <trkpt lat="42.213592529296875" lon="2.3177719116210938">
        <ele>962.2352616598648</ele>
        <time>2021-07-20T13:40:12.818Z</time>
      </trkpt>
      <trkpt lat="42.21341013908386" lon="2.317535877227783">
        <ele>960.4905282139075</ele>
        <time>2021-07-20T13:40:24.981Z</time>
      </trkpt>
      <trkpt lat="42.213377952575684" lon="2.317417860031128">
        <ele>959.1744931236697</ele>
        <time>2021-07-20T13:40:37.146Z</time>
      </trkpt>
      <trkpt lat="42.213377952575684" lon="2.3172783851623535">
        <ele>957.9880876081686</ele>
        <time>2021-07-20T13:40:49.312Z</time>
      </trkpt>
      <trkpt lat="42.21349596977234" lon="2.3170101642608643">
        <ele>957.1393222666948</ele>
        <time>2021-07-20T13:41:01.482Z</time>
      </trkpt>
      <trkpt lat="42.21347451210022" lon="2.316913604736328">
        <ele>955.9261552683503</ele>
        <time>2021-07-20T13:41:13.653Z</time>
      </trkpt>
      <trkpt lat="42.2133994102478" lon="2.316795587539673">
        <ele>954.5941809966635</ele>
        <time>2021-07-20T13:41:25.826Z</time>
      </trkpt>
      <trkpt lat="42.21325993537903" lon="2.316666841506958">
        <ele>953.1382786278248</ele>
        <time>2021-07-20T13:41:38.002Z</time>
      </trkpt>
      <trkpt lat="42.21322774887085" lon="2.3165810108184814">
        <ele>951.9442923416188</ele>
        <time>2021-07-20T13:41:50.179Z</time>
      </trkpt>
      <trkpt lat="42.21321702003479" lon="2.316420078277588">
        <ele>950.7649685051553</ele>
        <time>2021-07-20T13:42:02.358Z</time>
      </trkpt>
      <trkpt lat="42.213335037231445" lon="2.3158085346221924">
        <ele>949.7405370219311</ele>
        <time>2021-07-20T13:42:14.544Z</time>
      </trkpt>
      <trkpt lat="42.213335037231445" lon="2.315593957901001">
        <ele>948.5952052847015</ele>
        <time>2021-07-20T13:42:26.733Z</time>
      </trkpt>
      <trkpt lat="42.21325993537903" lon="2.31536865234375">
        <ele>947.3038902774404</ele>
        <time>2021-07-20T13:42:38.925Z</time>
      </trkpt>
      <trkpt lat="42.21320629119873" lon="2.315046787261963">
        <ele>946.0533321297278</ele>
        <time>2021-07-20T13:42:51.121Z</time>
      </trkpt>
      <trkpt lat="42.213249290362" lon="2.314692735671997">
        <ele>944.7920040536723</ele>
        <time>2021-07-20T13:43:03.321Z</time>
      </trkpt>
      <trkpt lat="42.21329212188721" lon="2.3143279552459717">
        <ele>943.4239642238595</ele>
        <time>2021-07-20T13:43:15.526Z</time>
      </trkpt>
      <trkpt lat="42.213345766067505" lon="2.3140060901641846">
        <ele>942.0961069718035</ele>
        <time>2021-07-20T13:43:27.734Z</time>
      </trkpt>
      <trkpt lat="42.21344232559204" lon="2.3138022422790527">
        <ele>940.9095207941725</ele>
        <time>2021-07-20T13:43:39.945Z</time>
      </trkpt>
      <trkpt lat="42.21372127532959" lon="2.3134803771972656">
        <ele>939.937760910005</ele>
        <time>2021-07-20T13:43:52.162Z</time>
      </trkpt>
      <trkpt lat="42.21377491950989" lon="2.3133623600006104">
        <ele>938.7168325255172</ele>
        <time>2021-07-20T13:44:04.381Z</time>
      </trkpt>
      <trkpt lat="42.21375346183777" lon="2.3130619525909424">
        <ele>937.2539781752332</ele>
        <time>2021-07-20T13:44:16.603Z</time>
      </trkpt>
      <trkpt lat="42.213828563690186" lon="2.3128366470336914">
        <ele>936.0363176913829</ele>
        <time>2021-07-20T13:44:28.828Z</time>
      </trkpt>
      <trkpt lat="42.21379637718201" lon="2.3124289512634277">
        <ele>934.5438556510193</ele>
        <time>2021-07-20T13:44:41.058Z</time>
      </trkpt>
      <trkpt lat="42.21379637718201" lon="2.312021255493164">
        <ele>933.0596869452003</ele>
        <time>2021-07-20T13:44:53.293Z</time>
      </trkpt>
      <trkpt lat="42.21415042877197" lon="2.3112165927886963">
        <ele>931.5955034143703</ele>
        <time>2021-07-20T13:45:05.539Z</time>
      </trkpt>
      <trkpt lat="42.21442937850952" lon="2.3107337951660156">
        <ele>930.4921720757143</ele>
        <time>2021-07-20T13:45:17.792Z</time>
      </trkpt>
      <trkpt lat="42.21447229385376" lon="2.3105406761169434">
        <ele>929.1727617766089</ele>
        <time>2021-07-20T13:45:30.048Z</time>
      </trkpt>
      <trkpt lat="42.21442937850952" lon="2.31037974357605">
        <ele>927.6321396358061</ele>
        <time>2021-07-20T13:45:42.306Z</time>
      </trkpt>
      <trkpt lat="42.21427917480469" lon="2.3101329803466797">
        <ele>925.750031495859</ele>
        <time>2021-07-20T13:45:54.568Z</time>
      </trkpt>
      <trkpt lat="42.21425771713257" lon="2.309950590133667">
        <ele>924.2479959150759</ele>
        <time>2021-07-20T13:46:06.832Z</time>
      </trkpt>
      <trkpt lat="42.214322090148926" lon="2.3097360134124756">
        <ele>922.948104442744</ele>
        <time>2021-07-20T13:46:19.099Z</time>
      </trkpt>
      <trkpt lat="42.21449375152588" lon="2.3093926906585693">
        <ele>921.848121327301</ele>
        <time>2021-07-20T13:46:31.371Z</time>
      </trkpt>
      <trkpt lat="42.214611768722534" lon="2.3090922832489014">
        <ele>920.6092257444967</ele>
        <time>2021-07-20T13:46:43.647Z</time>
      </trkpt>
      <trkpt lat="42.214611768722534" lon="2.308673858642578">
        <ele>918.9299742798</ele>
        <time>2021-07-20T13:46:55.928Z</time>
      </trkpt>
      <trkpt lat="42.21468687057495" lon="2.3084163665771484">
        <ele>917.5257040652655</ele>
        <time>2021-07-20T13:47:08.212Z</time>
      </trkpt>
      <trkpt lat="42.21472978591919" lon="2.3080193996429443">
        <ele>915.9896641365597</ele>
        <time>2021-07-20T13:47:20.501Z</time>
      </trkpt>
      <trkpt lat="42.214847803115845" lon="2.307847738265991">
        <ele>914.7808274826623</ele>
        <time>2021-07-20T13:47:32.792Z</time>
      </trkpt>
      <trkpt lat="42.21498727798462" lon="2.3076975345611572">
        <ele>913.6263749478022</ele>
        <time>2021-07-20T13:47:45.086Z</time>
      </trkpt>
      <trkpt lat="42.21503019332886" lon="2.307558059692383">
        <ele>912.2446749084817</ele>
        <time>2021-07-20T13:47:57.382Z</time>
      </trkpt>
      <trkpt lat="42.21503019332886" lon="2.307429313659668">
        <ele>910.7688326080943</ele>
        <time>2021-07-20T13:48:09.680Z</time>
      </trkpt>
      <trkpt lat="42.21495509147644" lon="2.3072469234466553">
        <ele>909.1048262022824</ele>
        <time>2021-07-20T13:48:21.980Z</time>
      </trkpt>
      <trkpt lat="42.2149121761322" lon="2.3070108890533447">
        <ele>907.4707063031819</ele>
        <time>2021-07-20T13:48:34.283Z</time>
      </trkpt>
      <trkpt lat="42.21493363380432" lon="2.306774854660034">
        <ele>905.9678885148433</ele>
        <time>2021-07-20T13:48:46.589Z</time>
      </trkpt>
      <trkpt lat="42.215083837509155" lon="2.306109666824341">
        <ele>904.5143283023301</ele>
        <time>2021-07-20T13:48:58.903Z</time>
      </trkpt>
      <trkpt lat="42.215062379837036" lon="2.3060238361358643">
        <ele>902.973340452814</ele>
        <time>2021-07-20T13:49:11.218Z</time>
      </trkpt>
      <trkpt lat="42.21500873565674" lon="2.30588436126709">
        <ele>901.3273137328431</ele>
        <time>2021-07-20T13:49:23.535Z</time>
      </trkpt>
      <trkpt lat="42.21498727798462" lon="2.3057878017425537">
        <ele>899.7663986920451</ele>
        <time>2021-07-20T13:49:35.853Z</time>
      </trkpt>
      <trkpt lat="42.21495509147644" lon="2.3053371906280518">
        <ele>898.0587134077257</ele>
        <time>2021-07-20T13:49:48.177Z</time>
      </trkpt>
      <trkpt lat="42.21492290496826" lon="2.305208444595337">
        <ele>896.4804484912986</ele>
        <time>2021-07-20T13:50:00.502Z</time>
      </trkpt>
      <trkpt lat="42.2149121761322" lon="2.3050475120544434">
        <ele>894.9303482359329</ele>
        <time>2021-07-20T13:50:12.829Z</time>
      </trkpt>
      <trkpt lat="42.21495509147644" lon="2.304961681365967">
        <ele>893.5024635778199</ele>
        <time>2021-07-20T13:50:25.157Z</time>
      </trkpt>
      <trkpt lat="42.21500873565674" lon="2.30488657951355">
        <ele>892.0302320845925</ele>
        <time>2021-07-20T13:50:37.487Z</time>
      </trkpt>
      <trkpt lat="42.21525549888611" lon="2.30462908744812">
        <ele>890.6509651019576</ele>
        <time>2021-07-20T13:50:49.822Z</time>
      </trkpt>
      <trkpt lat="42.215352058410645" lon="2.304403781890869">
        <ele>889.0041080658074</ele>
        <time>2021-07-20T13:51:02.160Z</time>
      </trkpt>
      <trkpt lat="42.215416431427" lon="2.3041677474975586">
        <ele>887.2092635075448</ele>
        <time>2021-07-20T13:51:14.501Z</time>
      </trkpt>
      <trkpt lat="42.215555906295776" lon="2.304028272628784">
        <ele>885.6861536750058</ele>
        <time>2021-07-20T13:51:26.844Z</time>
      </trkpt>
      <trkpt lat="42.215845584869385" lon="2.304006814956665">
        <ele>884.3353634629075</ele>
        <time>2021-07-20T13:51:39.192Z</time>
      </trkpt>
      <trkpt lat="42.21593141555786" lon="2.3039424419403076">
        <ele>882.6976666011578</ele>
        <time>2021-07-20T13:51:51.542Z</time>
      </trkpt>
      <trkpt lat="42.216070890426636" lon="2.3038673400878906">
        <ele>881.0289240196898</ele>
        <time>2021-07-20T13:52:03.894Z</time>
      </trkpt>
      <trkpt lat="42.21663951873779" lon="2.3038458824157715">
        <ele>879.6626824653463</ele>
        <time>2021-07-20T13:52:16.255Z</time>
      </trkpt>
      <trkpt lat="42.21673607826233" lon="2.3038136959075928">
        <ele>878.1001616981853</ele>
        <time>2021-07-20T13:52:28.618Z</time>
      </trkpt>
      <trkpt lat="42.216832637786865" lon="2.303760051727295">
        <ele>876.493173712245</ele>
        <time>2021-07-20T13:52:40.982Z</time>
      </trkpt>
      <trkpt lat="42.21688628196716" lon="2.3036742210388184">
        <ele>874.8086756661132</ele>
        <time>2021-07-20T13:52:53.348Z</time>
      </trkpt>
      <trkpt lat="42.21697211265564" lon="2.303180694580078">
        <ele>872.7340544278172</ele>
        <time>2021-07-20T13:53:05.720Z</time>
      </trkpt>
      <trkpt lat="42.21740126609802" lon="2.3023009300231934">
        <ele>870.4226342600773</ele>
        <time>2021-07-20T13:53:18.104Z</time>
      </trkpt>
      <trkpt lat="42.21749782562256" lon="2.3022472858428955">
        <ele>868.7376246876142</ele>
        <time>2021-07-20T13:53:30.490Z</time>
      </trkpt>
      <trkpt lat="42.217615842819214" lon="2.3022258281707764">
        <ele>867.0950341358109</ele>
        <time>2021-07-20T13:53:42.878Z</time>
      </trkpt>
      <trkpt lat="42.21790552139282" lon="2.3022687435150146">
        <ele>865.512615789542</ele>
        <time>2021-07-20T13:53:55.271Z</time>
      </trkpt>
      <trkpt lat="42.21802353858948" lon="2.302333116531372">
        <ele>864.007796744062</ele>
        <time>2021-07-20T13:54:07.666Z</time>
      </trkpt>
      <trkpt lat="42.21817374229431" lon="2.3024725914001465">
        <ele>862.6046852138463</ele>
        <time>2021-07-20T13:54:20.064Z</time>
      </trkpt>
      <trkpt lat="42.21837759017944" lon="2.3024940490722656">
        <ele>861.0503503683175</ele>
        <time>2021-07-20T13:54:32.465Z</time>
      </trkpt>
      <trkpt lat="42.21853860653937" lon="2.3023760318756104">
        <ele>859.4364364590608</ele>
        <time>2021-07-20T13:54:44.869Z</time>
      </trkpt>
      <trkpt lat="42.21879601478577" lon="2.302161455154419">
        <ele>857.7396677119823</ele>
        <time>2021-07-20T13:54:57.278Z</time>
      </trkpt>
      <trkpt lat="42.218828201293945" lon="2.3021185398101807">
        <ele>856.3111341204936</ele>
        <time>2021-07-20T13:55:09.687Z</time>
      </trkpt>
      <trkpt lat="42.218871200457215" lon="2.302032709121704">
        <ele>854.9617789178117</ele>
        <time>2021-07-20T13:55:22.098Z</time>
      </trkpt>
      <trkpt lat="42.218860387802124" lon="2.301936149597168">
        <ele>853.5727344835423</ele>
        <time>2021-07-20T13:55:34.510Z</time>
      </trkpt>
      <trkpt lat="42.21879601478577" lon="2.301764488220215">
        <ele>852.1799888793321</ele>
        <time>2021-07-20T13:55:46.924Z</time>
      </trkpt>
      <trkpt lat="42.21845269203186" lon="2.3013997077941895">
        <ele>850.6087284548324</ele>
        <time>2021-07-20T13:55:59.345Z</time>
      </trkpt>
      <trkpt lat="42.218313217163086" lon="2.301206588745117">
        <ele>849.1881338586454</ele>
        <time>2021-07-20T13:56:11.769Z</time>
      </trkpt>
      <trkpt lat="42.21817374229431" lon="2.3010778427124023">
        <ele>847.7485226701917</ele>
        <time>2021-07-20T13:56:24.196Z</time>
      </trkpt>
      <trkpt lat="42.21771240234375" lon="2.301034927368164">
        <ele>845.91381524583</ele>
        <time>2021-07-20T13:56:36.630Z</time>
      </trkpt>
      <trkpt lat="42.217583656311035" lon="2.3009276390075684">
        <ele>844.5368615066192</ele>
        <time>2021-07-20T13:56:49.067Z</time>
      </trkpt>
      <trkpt lat="42.21750855445862" lon="2.3007452487945557">
        <ele>843.2662542027792</ele>
        <time>2021-07-20T13:57:01.506Z</time>
      </trkpt>
      <trkpt lat="42.21755155362189" lon="2.3000049591064453">
        <ele>841.9890115440863</ele>
        <time>2021-07-20T13:57:13.954Z</time>
      </trkpt>
      <trkpt lat="42.217551469802856" lon="2.3000049591064453">
        <ele>840.8316480872384</ele>
        <time>2021-07-20T13:57:26.402Z</time>
      </trkpt>
      <trkpt lat="42.217583656311035" lon="2.2994470596313477">
        <ele>839.6201591830066</ele>
        <time>2021-07-20T13:57:38.857Z</time>
      </trkpt>
      <trkpt lat="42.21763730049133" lon="2.299189567565918">
        <ele>838.5268186508533</ele>
        <time>2021-07-20T13:57:51.315Z</time>
      </trkpt>
      <trkpt lat="42.21779823303223" lon="2.298738956451416">
        <ele>837.5127007891274</ele>
        <time>2021-07-20T13:58:03.779Z</time>
      </trkpt>
      <trkpt lat="42.21791625022888" lon="2.298309803009033">
        <ele>836.5655702119072</ele>
        <time>2021-07-20T13:58:16.248Z</time>
      </trkpt>
      <trkpt lat="42.21802353858948" lon="2.296861410140991">
        <ele>835.4180921158977</ele>
        <time>2021-07-20T13:58:28.735Z</time>
      </trkpt>
      <trkpt lat="42.218087911605835" lon="2.2966253757476807">
        <ele>834.567407356066</ele>
        <time>2021-07-20T13:58:41.224Z</time>
      </trkpt>
      <trkpt lat="42.21817374229431" lon="2.2964859008789062">
        <ele>833.8599409266853</ele>
        <time>2021-07-20T13:58:53.716Z</time>
      </trkpt>
      <trkpt lat="42.218334674835205" lon="2.296346426010132">
        <ele>833.1961216388196</ele>
        <time>2021-07-20T13:59:06.211Z</time>
      </trkpt>
      <trkpt lat="42.21850633621216" lon="2.2962820529937744">
        <ele>832.6493354296038</ele>
        <time>2021-07-20T13:59:18.709Z</time>
      </trkpt>
      <trkpt lat="42.21865653991699" lon="2.296314239501953">
        <ele>832.2236482085966</ele>
        <time>2021-07-20T13:59:31.209Z</time>
      </trkpt>
      <trkpt lat="42.218817472457886" lon="2.2964537143707275">
        <ele>831.9355608020965</ele>
        <time>2021-07-20T13:59:43.712Z</time>
      </trkpt>
      <trkpt lat="42.218903386965394" lon="2.296442985534668">
        <ele>831.5609275017722</ele>
        <time>2021-07-20T13:59:56.216Z</time>
      </trkpt>
      <trkpt lat="42.219096506014466" lon="2.2963249683380127">
        <ele>831.2960654896931</ele>
        <time>2021-07-20T14:00:08.724Z</time>
      </trkpt>
      <trkpt lat="42.219096422195435" lon="2.2963249683380127">
        <ele>830.9797939995974</ele>
        <time>2021-07-20T14:00:21.232Z</time>
      </trkpt>
      <trkpt lat="42.21922516822815" lon="2.296088933944702">
        <ele>830.744502434593</ele>
        <time>2021-07-20T14:00:33.743Z</time>
      </trkpt>
      <trkpt lat="42.21919298171997" lon="2.295938730239868">
        <ele>830.4132433127849</ele>
        <time>2021-07-20T14:00:46.256Z</time>
      </trkpt>
      <trkpt lat="42.219117879867554" lon="2.295767068862915">
        <ele>830.0657237648128</ele>
        <time>2021-07-20T14:00:58.772Z</time>
      </trkpt>
      <trkpt lat="42.21898913383484" lon="2.2953379154205322">
        <ele>829.6108422012895</ele>
        <time>2021-07-20T14:01:11.293Z</time>
      </trkpt>
      <trkpt lat="42.2189998626709" lon="2.2952306270599365">
        <ele>829.4648763881628</ele>
        <time>2021-07-20T14:01:23.815Z</time>
      </trkpt>
      <trkpt lat="42.21903204917908" lon="2.2951555252075195">
        <ele>829.399031591955</ele>
        <time>2021-07-20T14:01:36.338Z</time>
      </trkpt>
      <trkpt lat="42.219300270080566" lon="2.2949624061584473">
        <ele>829.5741761219003</ele>
        <time>2021-07-20T14:01:48.866Z</time>
      </trkpt>
      <trkpt lat="42.219353914260864" lon="2.2948765754699707">
        <ele>829.6213080309924</ele>
        <time>2021-07-20T14:02:01.396Z</time>
      </trkpt>
      <trkpt lat="42.2193968296051" lon="2.2947371006011963">
        <ele>829.6837498265825</ele>
        <time>2021-07-20T14:02:13.927Z</time>
      </trkpt>
      <trkpt lat="42.21943974494934" lon="2.294490337371826">
        <ele>829.7556120147367</ele>
        <time>2021-07-20T14:02:26.461Z</time>
      </trkpt>
      <trkpt lat="42.219310998916626" lon="2.294125556945801">
        <ele>829.6966115277037</ele>
        <time>2021-07-20T14:02:39.000Z</time>
      </trkpt>
      <trkpt lat="42.21928954124451" lon="2.2939538955688477">
        <ele>829.8147688305598</ele>
        <time>2021-07-20T14:02:51.541Z</time>
      </trkpt>
      <trkpt lat="42.219343185424805" lon="2.2937607765197754">
        <ele>830.0651166430364</ele>
        <time>2021-07-20T14:03:04.085Z</time>
      </trkpt>
      <trkpt lat="42.21951484680176" lon="2.2935354709625244">
        <ele>830.4148133770057</ele>
        <time>2021-07-20T14:03:16.633Z</time>
      </trkpt>
      <trkpt lat="42.21964359283447" lon="2.2933852672576904">
        <ele>830.7206237084763</ele>
        <time>2021-07-20T14:03:29.183Z</time>
      </trkpt>
      <trkpt lat="42.21977233886719" lon="2.293299436569214">
        <ele>831.1226122103855</ele>
        <time>2021-07-20T14:03:41.736Z</time>
      </trkpt>
      <trkpt lat="42.21987962722778" lon="2.2932779788970947">
        <ele>831.6035188433258</ele>
        <time>2021-07-20T14:03:54.290Z</time>
      </trkpt>
      <trkpt lat="42.21999764442444" lon="2.2933101654052734">
        <ele>832.1393357754087</ele>
        <time>2021-07-20T14:04:06.846Z</time>
      </trkpt>
      <trkpt lat="42.22015857696533" lon="2.2934389114379883">
        <ele>832.7330447981581</ele>
        <time>2021-07-20T14:04:19.405Z</time>
      </trkpt>
      <trkpt lat="42.220330238342285" lon="2.293546199798584">
        <ele>833.3329574809887</ele>
        <time>2021-07-20T14:04:31.967Z</time>
      </trkpt>
      <trkpt lat="42.22072720527649" lon="2.293621301651001">
        <ele>833.9377978632913</ele>
        <time>2021-07-20T14:04:44.536Z</time>
      </trkpt>
      <trkpt lat="42.220855951309204" lon="2.2936105728149414">
        <ele>834.4515505029542</ele>
        <time>2021-07-20T14:04:57.107Z</time>
      </trkpt>
      <trkpt lat="42.2209632396698" lon="2.293524742126465">
        <ele>834.900883495075</ele>
        <time>2021-07-20T14:05:09.680Z</time>
      </trkpt>
      <trkpt lat="42.22103834152222" lon="2.2933530807495117">
        <ele>835.4910180734856</ele>
        <time>2021-07-20T14:05:22.255Z</time>
      </trkpt>
      <trkpt lat="42.221059799194336" lon="2.2931385040283203">
        <ele>836.0621185274433</ele>
        <time>2021-07-20T14:05:34.833Z</time>
      </trkpt>
      <trkpt lat="42.22102761268616" lon="2.293020486831665">
        <ele>836.5617798100845</ele>
        <time>2021-07-20T14:05:47.412Z</time>
      </trkpt>
      <trkpt lat="42.220855951309204" lon="2.292473316192627">
        <ele>836.9623988459242</ele>
        <time>2021-07-20T14:05:59.998Z</time>
      </trkpt>
      <trkpt lat="42.220834493637085" lon="2.292376756668091">
        <ele>837.3900813478342</ele>
        <time>2021-07-20T14:06:12.585Z</time>
      </trkpt>
      <trkpt lat="42.220834493637085" lon="2.2922587394714355">
        <ele>837.8002794508161</ele>
        <time>2021-07-20T14:06:25.174Z</time>
      </trkpt>
      <trkpt lat="42.22087740898132" lon="2.29215145111084">
        <ele>838.2261426706966</ele>
        <time>2021-07-20T14:06:37.764Z</time>
      </trkpt>
      <trkpt lat="42.22093105316162" lon="2.2920656204223633">
        <ele>838.6379836892309</ele>
        <time>2021-07-20T14:06:50.356Z</time>
      </trkpt>
      <trkpt lat="42.22153186798096" lon="2.291625738143921">
        <ele>839.2407954978219</ele>
        <time>2021-07-20T14:07:02.959Z</time>
      </trkpt>
      <trkpt lat="42.221832275390625" lon="2.291496992111206">
        <ele>839.5699153994295</ele>
        <time>2021-07-20T14:07:15.567Z</time>
      </trkpt>
      <trkpt lat="42.22241163253784" lon="2.2913146018981934">
        <ele>839.8247007378089</ele>
        <time>2021-07-20T14:07:28.184Z</time>
      </trkpt>
      <trkpt lat="42.222551107406616" lon="2.2913575172424316">
        <ele>840.1475625407616</ele>
        <time>2021-07-20T14:07:40.803Z</time>
      </trkpt>
      <trkpt lat="42.22275495529175" lon="2.2914648056030273">
        <ele>840.5407263178475</ele>
        <time>2021-07-20T14:07:53.426Z</time>
      </trkpt>
      <trkpt lat="42.22289443016052" lon="2.2914648056030273">
        <ele>840.6792396245953</ele>
        <time>2021-07-20T14:08:06.051Z</time>
      </trkpt>
      <trkpt lat="42.22295880317688" lon="2.29140043258667">
        <ele>840.597969612269</ele>
        <time>2021-07-20T14:08:18.677Z</time>
      </trkpt>
      <trkpt lat="42.223044633865356" lon="2.2912609577178955">
        <ele>840.3720441577002</ele>
        <time>2021-07-20T14:08:31.306Z</time>
      </trkpt>
      <trkpt lat="42.22317337989807" lon="2.2908425331115723">
        <ele>839.8223683534945</ele>
        <time>2021-07-20T14:08:43.940Z</time>
      </trkpt>
      <trkpt lat="42.223345041275024" lon="2.2904562950134277">
        <ele>839.358877236803</ele>
        <time>2021-07-20T14:08:56.579Z</time>
      </trkpt>
      <trkpt lat="42.22345232963562" lon="2.2900164127349854">
        <ele>838.7423350940037</ele>
        <time>2021-07-20T14:09:09.224Z</time>
      </trkpt>
      <trkpt lat="42.223591804504395" lon="2.2896087169647217">
        <ele>838.0100042643364</ele>
        <time>2021-07-20T14:09:21.874Z</time>
      </trkpt>
      <trkpt lat="42.22374200820923" lon="2.289501428604126">
        <ele>837.5301274888157</ele>
        <time>2021-07-20T14:09:34.527Z</time>
      </trkpt>
      <trkpt lat="42.22424626350403" lon="2.289329767227173">
        <ele>837.1209025645586</ele>
        <time>2021-07-20T14:09:47.188Z</time>
      </trkpt>
      <trkpt lat="42.22445011138916" lon="2.2892332077026367">
        <ele>836.4260468381707</ele>
        <time>2021-07-20T14:09:59.853Z</time>
      </trkpt>
      <trkpt lat="42.22493299283087" lon="2.2888576984405518">
        <ele>835.4750404748327</ele>
        <time>2021-07-20T14:10:12.527Z</time>
      </trkpt>
      <trkpt lat="42.22493290901184" lon="2.2888576984405518">
        <ele>834.6211815825175</ele>
        <time>2021-07-20T14:10:25.201Z</time>
      </trkpt>
      <trkpt lat="42.22526550292969" lon="2.288632392883301">
        <ele>833.3742232095649</ele>
        <time>2021-07-20T14:10:37.880Z</time>
      </trkpt>
      <trkpt lat="42.2254478931427" lon="2.2886645793914795">
        <ele>832.4381439499498</ele>
        <time>2021-07-20T14:10:50.562Z</time>
      </trkpt>
      <trkpt lat="42.22574830055237" lon="2.2889328002929688">
        <ele>831.8230564781271</ele>
        <time>2021-07-20T14:11:03.250Z</time>
      </trkpt>
      <trkpt lat="42.225855672731996" lon="2.2890079021453857">
        <ele>830.8087428222902</ele>
        <time>2021-07-20T14:11:15.940Z</time>
      </trkpt>
      <trkpt lat="42.226048707962036" lon="2.2890830039978027">
        <ele>829.7055013926881</ele>
        <time>2021-07-20T14:11:28.633Z</time>
      </trkpt>
      <trkpt lat="42.22619891166687" lon="2.289029359817505">
        <ele>828.3236599532705</ele>
        <time>2021-07-20T14:11:41.329Z</time>
      </trkpt>
      <trkpt lat="42.22687482833862" lon="2.2886109352111816">
        <ele>826.3366222507063</ele>
        <time>2021-07-20T14:11:54.037Z</time>
      </trkpt>
      <trkpt lat="42.22761511802673" lon="2.2881925106048584">
        <ele>824.5319197091109</ele>
        <time>2021-07-20T14:12:06.758Z</time>
      </trkpt>
      <trkpt lat="42.2279155254364" lon="2.288074493408203">
        <ele>823.1483255973957</ele>
        <time>2021-07-20T14:12:19.484Z</time>
      </trkpt>
      <trkpt lat="42.22822666168213" lon="2.287999391555786">
        <ele>821.653523107288</ele>
        <time>2021-07-20T14:12:32.215Z</time>
      </trkpt>
      <trkpt lat="42.228569984436035" lon="2.287999391555786">
        <ele>820.15853479464</ele>
        <time>2021-07-20T14:12:44.951Z</time>
      </trkpt>
      <trkpt lat="42.22869873046875" lon="2.287977933883667">
        <ele>818.6085902589764</ele>
        <time>2021-07-20T14:12:57.689Z</time>
      </trkpt>
      <trkpt lat="42.22888112068176" lon="2.28790283203125">
        <ele>816.9237974421184</ele>
        <time>2021-07-20T14:13:10.430Z</time>
      </trkpt>
      <trkpt lat="42.22964286804199" lon="2.287849187850952">
        <ele>815.0111275468512</ele>
        <time>2021-07-20T14:13:23.183Z</time>
      </trkpt>
      <trkpt lat="42.22976088523865" lon="2.2879135608673096">
        <ele>813.504345998374</ele>
        <time>2021-07-20T14:13:35.938Z</time>
      </trkpt>
      <trkpt lat="42.229857444763184" lon="2.288031578063965">
        <ele>812.0915408925307</ele>
        <time>2021-07-20T14:13:48.696Z</time>
      </trkpt>
      <trkpt lat="42.23000764846802" lon="2.288278341293335">
        <ele>810.8897377349413</ele>
        <time>2021-07-20T14:14:01.457Z</time>
      </trkpt>
      <trkpt lat="42.23011493682861" lon="2.2883212566375732">
        <ele>809.3707666908927</ele>
        <time>2021-07-20T14:14:14.220Z</time>
      </trkpt>
      <trkpt lat="42.23020076751709" lon="2.2882890701293945">
        <ele>807.7078004389646</ele>
        <time>2021-07-20T14:14:26.985Z</time>
      </trkpt>
      <trkpt lat="42.23065137863159" lon="2.2878599166870117">
        <ele>805.3584045275609</ele>
        <time>2021-07-20T14:14:39.758Z</time>
      </trkpt>
      <trkpt lat="42.23076939582825" lon="2.287827730178833">
        <ele>803.6940214075089</ele>
        <time>2021-07-20T14:14:52.533Z</time>
      </trkpt>
      <trkpt lat="42.23115563392639" lon="2.287774085998535">
        <ele>802.120314168694</ele>
        <time>2021-07-20T14:15:05.315Z</time>
      </trkpt>
      <trkpt lat="42.23145604133606" lon="2.287548780441284">
        <ele>800.2470736599826</ele>
        <time>2021-07-20T14:15:18.102Z</time>
      </trkpt>
      <trkpt lat="42.23170288838446" lon="2.287505865097046">
        <ele>798.6310544506987</ele>
        <time>2021-07-20T14:15:30.893Z</time>
      </trkpt>
      <trkpt lat="42.23170280456543" lon="2.287505865097046">
        <ele>797.0996471042174</ele>
        <time>2021-07-20T14:15:43.684Z</time>
      </trkpt>
      <trkpt lat="42.23203548230231" lon="2.2875380516052246">
        <ele>795.5068630583933</ele>
        <time>2021-07-20T14:15:56.480Z</time>
      </trkpt>
      <trkpt lat="42.23215341567993" lon="2.287548780441284">
        <ele>794.0077480518673</ele>
        <time>2021-07-20T14:16:09.278Z</time>
      </trkpt>
      <trkpt lat="42.232325077056885" lon="2.2876131534576416">
        <ele>792.6144284715975</ele>
        <time>2021-07-20T14:16:22.079Z</time>
      </trkpt>
      <trkpt lat="42.23265767097473" lon="2.2878921031951904">
        <ele>791.3001831343747</ele>
        <time>2021-07-20T14:16:34.886Z</time>
      </trkpt>
      <trkpt lat="42.233333587646484" lon="2.288482189178467">
        <ele>789.8024396707624</ele>
        <time>2021-07-20T14:16:47.706Z</time>
      </trkpt>
      <trkpt lat="42.23394521512091" lon="2.2890079021453857">
        <ele>788.4352642271162</ele>
        <time>2021-07-20T14:17:00.538Z</time>
      </trkpt>
      <trkpt lat="42.23394513130188" lon="2.2890079021453857">
        <ele>787.180041563734</ele>
        <time>2021-07-20T14:17:13.370Z</time>
      </trkpt>
      <trkpt lat="42.23420262336731" lon="2.289222478866577">
        <ele>785.9072833739817</ele>
        <time>2021-07-20T14:17:26.207Z</time>
      </trkpt>
      <trkpt lat="42.23427772521973" lon="2.2892653942108154">
        <ele>784.7414947558875</ele>
        <time>2021-07-20T14:17:39.045Z</time>
      </trkpt>
      <trkpt lat="42.23438501358032" lon="2.2892653942108154">
        <ele>783.6074104725592</ele>
        <time>2021-07-20T14:17:51.885Z</time>
      </trkpt>
      <trkpt lat="42.234363639727235" lon="2.289072275161743">
        <ele>782.5189543534176</ele>
        <time>2021-07-20T14:18:04.727Z</time>
      </trkpt>
      <trkpt lat="42.23438501358032" lon="2.2889113426208496">
        <ele>781.4843846532603</ele>
        <time>2021-07-20T14:18:17.571Z</time>
      </trkpt>
      <trkpt lat="42.23448157310486" lon="2.2885143756866455">
        <ele>780.4392741955927</ele>
        <time>2021-07-20T14:18:30.420Z</time>
      </trkpt>
      <trkpt lat="42.23449230194092" lon="2.2883963584899902">
        <ele>779.6075089735937</ele>
        <time>2021-07-20T14:18:43.270Z</time>
      </trkpt>
      <trkpt lat="42.23449230194092" lon="2.288278341293335">
        <ele>778.858739659169</ele>
        <time>2021-07-20T14:18:56.122Z</time>
      </trkpt>
      <trkpt lat="42.23430999554694" lon="2.2877097129821777">
        <ele>778.128696661472</ele>
        <time>2021-07-20T14:19:08.981Z</time>
      </trkpt>
      <trkpt lat="42.23417052067816" lon="2.287323474884033">
        <ele>777.5299809587868</ele>
        <time>2021-07-20T14:19:21.845Z</time>
      </trkpt>
      <trkpt lat="42.234073961153626" lon="2.2869908809661865">
        <ele>777.015451553181</ele>
        <time>2021-07-20T14:19:34.714Z</time>
      </trkpt>
      <trkpt lat="42.23398813046515" lon="2.2867226600646973">
        <ele>776.6230540173062</ele>
        <time>2021-07-20T14:19:47.586Z</time>
      </trkpt>
      <trkpt lat="42.2338593006134" lon="2.2863149642944336">
        <ele>776.3488137950583</ele>
        <time>2021-07-20T14:20:00.463Z</time>
      </trkpt>
      <trkpt lat="42.233848655596375" lon="2.286132574081421">
        <ele>776.1791850958655</ele>
        <time>2021-07-20T14:20:13.342Z</time>
      </trkpt>
      <trkpt lat="42.233870113268495" lon="2.2860467433929443">
        <ele>776.1308365495915</ele>
        <time>2021-07-20T14:20:26.222Z</time>
      </trkpt>
      <trkpt lat="42.23389148712158" lon="2.2859609127044678">
        <ele>776.1949162846026</ele>
        <time>2021-07-20T14:20:39.104Z</time>
      </trkpt>
      <trkpt lat="42.23393440246582" lon="2.2857677936553955">
        <ele>776.3497920321815</ele>
        <time>2021-07-20T14:20:51.988Z</time>
      </trkpt>
      <trkpt lat="42.23393440246582" lon="2.2857141494750977">
        <ele>776.6577193123346</ele>
        <time>2021-07-20T14:21:04.873Z</time>
      </trkpt>
      <trkpt lat="42.23374128341675" lon="2.285059690475464">
        <ele>777.0420861786523</ele>
        <time>2021-07-20T14:21:17.766Z</time>
      </trkpt>
      <trkpt lat="42.23375201225281" lon="2.285006046295166">
        <ele>777.5580602175046</ele>
        <time>2021-07-20T14:21:30.660Z</time>
      </trkpt>
      <trkpt lat="42.233805656433105" lon="2.284930944442749">
        <ele>778.1617523651764</ele>
        <time>2021-07-20T14:21:43.555Z</time>
      </trkpt>
      <trkpt lat="42.23400950431824" lon="2.284684181213379">
        <ele>778.7482592411097</ele>
        <time>2021-07-20T14:21:56.454Z</time>
      </trkpt>
      <trkpt lat="42.235286235809326" lon="2.283504009246826">
        <ele>779.4794425008492</ele>
        <time>2021-07-20T14:22:09.378Z</time>
      </trkpt>
      <trkpt lat="42.235597372055054" lon="2.2832465171813965">
        <ele>780.7239165097976</ele>
        <time>2021-07-20T14:22:22.308Z</time>
      </trkpt>
      <trkpt lat="42.23572611808777" lon="2.283257246017456">
        <ele>782.8522820404796</ele>
        <time>2021-07-20T14:22:35.240Z</time>
      </trkpt>
      <trkpt lat="42.23586559295654" lon="2.2831928730010986">
        <ele>784.0776149529432</ele>
        <time>2021-07-20T14:22:48.174Z</time>
      </trkpt>
      <trkpt lat="42.23596215248108" lon="2.283203601837158">
        <ele>785.2783628933153</ele>
        <time>2021-07-20T14:23:01.110Z</time>
      </trkpt>
      <trkpt lat="42.236058712005615" lon="2.2832465171813965">
        <ele>786.4744985693444</ele>
        <time>2021-07-20T14:23:14.047Z</time>
      </trkpt>
      <trkpt lat="42.23613381385803" lon="2.2833430767059326">
        <ele>787.6154059704053</ele>
        <time>2021-07-20T14:23:26.986Z</time>
      </trkpt>
      <trkpt lat="42.236284017562866" lon="2.28291392326355">
        <ele>789.9363112712556</ele>
        <time>2021-07-20T14:23:39.931Z</time>
      </trkpt>
      <trkpt lat="42.2364342212677" lon="2.2826027870178223">
        <ele>790.9477379865641</ele>
        <time>2021-07-20T14:23:52.880Z</time>
      </trkpt>
      <trkpt lat="42.236487865448" lon="2.282559871673584">
        <ele>791.837059794471</ele>
        <time>2021-07-20T14:24:05.830Z</time>
      </trkpt>
      <trkpt lat="42.23650932312012" lon="2.2825706005096436">
        <ele>792.6121189316226</ele>
        <time>2021-07-20T14:24:18.781Z</time>
      </trkpt>
      <trkpt lat="42.23652005195618" lon="2.282356023788452">
        <ele>793.3000814418369</ele>
        <time>2021-07-20T14:24:31.734Z</time>
      </trkpt>
      <trkpt lat="42.23641276359558" lon="2.2821199893951416">
        <ele>793.7703849580303</ele>
        <time>2021-07-20T14:24:44.690Z</time>
      </trkpt>
      <trkpt lat="42.23625183105469" lon="2.2819268703460693">
        <ele>794.1141671321416</ele>
        <time>2021-07-20T14:24:57.650Z</time>
      </trkpt>
      <trkpt lat="42.23618745803833" lon="2.2819697856903076">
        <ele>794.3805375067698</ele>
        <time>2021-07-20T14:25:10.611Z</time>
      </trkpt>
      <trkpt lat="42.23610162734985" lon="2.2817015647888184">
        <ele>794.4444394076859</ele>
        <time>2021-07-20T14:25:23.575Z</time>
      </trkpt>
      <trkpt lat="42.236037254333496" lon="2.28165864944458">
        <ele>794.4093523164117</ele>
        <time>2021-07-20T14:25:36.541Z</time>
      </trkpt>
      <trkpt lat="42.236047983169556" lon="2.2814548015594482">
        <ele>794.2831368506294</ele>
        <time>2021-07-20T14:25:49.509Z</time>
      </trkpt>
      <trkpt lat="42.235854947939515" lon="2.2808218002319336">
        <ele>794.1041661523838</ele>
        <time>2021-07-20T14:26:02.485Z</time>
      </trkpt>
      <trkpt lat="42.235822761431336" lon="2.2807681560516357">
        <ele>793.6438089159753</ele>
        <time>2021-07-20T14:26:15.462Z</time>
      </trkpt>
      <trkpt lat="42.23566182889044" lon="2.2804999351501465">
        <ele>793.0172243315324</ele>
        <time>2021-07-20T14:26:28.443Z</time>
      </trkpt>
      <trkpt lat="42.23507174290717" lon="2.279512882232666">
        <ele>792.0099926742</ele>
        <time>2021-07-20T14:26:41.439Z</time>
      </trkpt>
      <trkpt lat="42.23497518338263" lon="2.2793197631835938">
        <ele>791.019034367062</ele>
        <time>2021-07-20T14:26:54.438Z</time>
      </trkpt>
      <trkpt lat="42.234642589464784" lon="2.2787082195281982">
        <ele>789.9620960671896</ele>
        <time>2021-07-20T14:27:07.446Z</time>
      </trkpt>
      <trkpt lat="42.2342134360224" lon="2.2778820991516113">
        <ele>788.96070993728</ele>
        <time>2021-07-20T14:27:20.466Z</time>
      </trkpt>
      <trkpt lat="42.23374136723578" lon="2.2770345211029053">
        <ele>787.7104160747808</ele>
        <time>2021-07-20T14:27:33.498Z</time>
      </trkpt>
      <trkpt lat="42.231091260910034" lon="2.2721314430236816">
        <ele>785.4536851791818</ele>
        <time>2021-07-20T14:27:46.603Z</time>
      </trkpt>
      <trkpt lat="42.231091344729066" lon="2.2721314430236816">
        <ele>783.9480823889976</ele>
        <time>2021-07-20T14:27:59.708Z</time>
      </trkpt>
      <trkpt lat="42.230597734451294" lon="2.271219491958618">
        <ele>782.3673645625628</ele>
        <time>2021-07-20T14:28:12.826Z</time>
      </trkpt>
      <trkpt lat="42.229288816452026" lon="2.2686767578125">
        <ele>780.5464871403829</ele>
        <time>2021-07-20T14:28:25.981Z</time>
      </trkpt>
      <trkpt lat="42.2290313243866" lon="2.268022298812866">
        <ele>778.7245314149701</ele>
        <time>2021-07-20T14:28:39.145Z</time>
      </trkpt>
      <trkpt lat="42.22889184951782" lon="2.2673892974853516">
        <ele>776.7611607010354</ele>
        <time>2021-07-20T14:28:52.316Z</time>
      </trkpt>
      <trkpt lat="42.22878456115723" lon="2.2664988040924072">
        <ele>774.9024290315382</ele>
        <time>2021-07-20T14:29:05.498Z</time>
      </trkpt>
      <trkpt lat="42.22845196723938" lon="2.2633445262908936">
        <ele>773.2478604823459</ele>
        <time>2021-07-20T14:29:18.718Z</time>
      </trkpt>
      <trkpt lat="42.22845205105841" lon="2.2633445262908936">
        <ele>771.4751901553209</ele>
        <time>2021-07-20T14:29:31.938Z</time>
      </trkpt>
      <trkpt lat="42.22830184735358" lon="2.2620248794555664">
        <ele>769.2031498834524</ele>
        <time>2021-07-20T14:29:45.174Z</time>
      </trkpt>
      <trkpt lat="42.22828038968146" lon="2.2617995738983154">
        <ele>767.2959283474632</ele>
        <time>2021-07-20T14:29:58.413Z</time>
      </trkpt>
      <trkpt lat="42.2281623724848" lon="2.2607803344726562">
        <ele>765.6081888929622</ele>
        <time>2021-07-20T14:30:11.664Z</time>
      </trkpt>
      <trkpt lat="42.228108728304505" lon="2.2603297233581543">
        <ele>764.0709459617078</ele>
        <time>2021-07-20T14:30:24.920Z</time>
      </trkpt>
      <trkpt lat="42.228087270632386" lon="2.2601044178009033">
        <ele>762.5330107361779</ele>
        <time>2021-07-20T14:30:38.179Z</time>
      </trkpt>
      <trkpt lat="42.22801208496094" lon="2.2595572471618652">
        <ele>761.0829280560782</ele>
        <time>2021-07-20T14:30:51.445Z</time>
      </trkpt>
      <trkpt lat="42.22788333892822" lon="2.2588491439819336">
        <ele>759.6441647890406</ele>
        <time>2021-07-20T14:31:04.719Z</time>
      </trkpt>
      <trkpt lat="42.22725042141974" lon="2.255094051361084">
        <ele>757.4805893134846</ele>
        <time>2021-07-20T14:31:18.039Z</time>
      </trkpt>
      <trkpt lat="42.2269070148468" lon="2.2531521320343018">
        <ele>755.6422702854557</ele>
        <time>2021-07-20T14:31:31.383Z</time>
      </trkpt>
      <trkpt lat="42.22690709866583" lon="2.2531521320343018">
        <ele>754.0730454078523</ele>
        <time>2021-07-20T14:31:44.727Z</time>
      </trkpt>
      <trkpt lat="42.22670316696167" lon="2.252197265625">
        <ele>752.3795550684372</ele>
        <time>2021-07-20T14:31:58.083Z</time>
      </trkpt>
      <trkpt lat="42.22638130187988" lon="2.2513067722320557">
        <ele>750.7811802503337</ele>
        <time>2021-07-20T14:32:11.450Z</time>
      </trkpt>
      <trkpt lat="42.22572692669928" lon="2.249675989151001">
        <ele>749.3384501305516</ele>
        <time>2021-07-20T14:32:24.839Z</time>
      </trkpt>
      <trkpt lat="42.225576639175415" lon="2.249321937561035">
        <ele>747.8117351523607</ele>
        <time>2021-07-20T14:32:38.233Z</time>
      </trkpt>
      <trkpt lat="42.22557672299445" lon="2.249321937561035">
        <ele>746.4318461100066</ele>
        <time>2021-07-20T14:32:51.627Z</time>
      </trkpt>
      <trkpt lat="42.22490072250366" lon="2.247626781463623">
        <ele>744.9710147086121</ele>
        <time>2021-07-20T14:33:05.044Z</time>
      </trkpt>
      <trkpt lat="42.22428917884827" lon="2.246178388595581">
        <ele>743.6169745853608</ele>
        <time>2021-07-20T14:33:18.481Z</time>
      </trkpt>
      <trkpt lat="42.22365617752075" lon="2.2445476055145264">
        <ele>742.3597249664949</ele>
        <time>2021-07-20T14:33:31.940Z</time>
      </trkpt>
      <trkpt lat="42.223656261339784" lon="2.2445476055145264">
        <ele>741.1607647853933</ele>
        <time>2021-07-20T14:33:45.399Z</time>
      </trkpt>
      <trkpt lat="42.22296953201294" lon="2.242863178253174">
        <ele>739.9012407170305</ele>
        <time>2021-07-20T14:33:58.881Z</time>
      </trkpt>
      <trkpt lat="42.22262620925903" lon="2.2420477867126465">
        <ele>738.6153021385674</ele>
        <time>2021-07-20T14:34:12.374Z</time>
      </trkpt>
      <trkpt lat="42.22245454788208" lon="2.2417044639587402">
        <ele>737.4567215423181</ele>
        <time>2021-07-20T14:34:25.872Z</time>
      </trkpt>
      <trkpt lat="42.22226142883301" lon="2.2413504123687744">
        <ele>736.4375027227064</ele>
        <time>2021-07-20T14:34:39.375Z</time>
      </trkpt>
      <trkpt lat="42.222100580111146" lon="2.2411251068115234">
        <ele>735.4719506298561</ele>
        <time>2021-07-20T14:34:52.882Z</time>
      </trkpt>
      <trkpt lat="42.22190737724304" lon="2.2408676147460938">
        <ele>734.552397395882</ele>
        <time>2021-07-20T14:35:06.393Z</time>
      </trkpt>
      <trkpt lat="42.22167134284973" lon="2.2406208515167236">
        <ele>733.6300381121498</ele>
        <time>2021-07-20T14:35:19.909Z</time>
      </trkpt>
      <trkpt lat="42.22122081555426" lon="2.2402560710906982">
        <ele>732.6708517133189</ele>
        <time>2021-07-20T14:35:33.433Z</time>
      </trkpt>
      <trkpt lat="42.22048052586615" lon="2.2396552562713623">
        <ele>731.8125683217277</ele>
        <time>2021-07-20T14:35:46.971Z</time>
      </trkpt>
      <trkpt lat="42.22015857696533" lon="2.239408493041992">
        <ele>731.1969622857259</ele>
        <time>2021-07-20T14:36:00.515Z</time>
      </trkpt>
      <trkpt lat="42.21954703330994" lon="2.2388827800750732">
        <ele>730.6535293083075</ele>
        <time>2021-07-20T14:36:14.070Z</time>
      </trkpt>
      <trkpt lat="42.21954711712897" lon="2.2388827800750732">
        <ele>730.0771848255077</ele>
        <time>2021-07-20T14:36:27.625Z</time>
      </trkpt>
      <trkpt lat="42.21922516822815" lon="2.2386252880096436">
        <ele>729.5979921850683</ele>
        <time>2021-07-20T14:36:41.186Z</time>
      </trkpt>
      <trkpt lat="42.218860387802124" lon="2.2382068634033203">
        <ele>729.1485813624814</ele>
        <time>2021-07-20T14:36:54.755Z</time>
      </trkpt>
      <trkpt lat="42.218570709228516" lon="2.237788438796997">
        <ele>728.57177635882</ele>
        <time>2021-07-20T14:37:08.331Z</time>
      </trkpt>
      <trkpt lat="42.21816301345825" lon="2.23696231842041">
        <ele>727.974542174687</ele>
        <time>2021-07-20T14:37:21.919Z</time>
      </trkpt>
      <trkpt lat="42.2175407409668" lon="2.2355997562408447">
        <ele>727.3120828739422</ele>
        <time>2021-07-20T14:37:35.526Z</time>
      </trkpt>
      <trkpt lat="42.216821908950806" lon="2.2338294982910156">
        <ele>727.0541295199836</ele>
        <time>2021-07-20T14:37:49.157Z</time>
      </trkpt>
      <trkpt lat="42.21626400947571" lon="2.2327351570129395">
        <ele>726.9513829170435</ele>
        <time>2021-07-20T14:38:02.804Z</time>
      </trkpt>
      <trkpt lat="42.21579202450812" lon="2.2315657138824463">
        <ele>726.4833593564399</ele>
        <time>2021-07-20T14:38:16.466Z</time>
      </trkpt>
      <trkpt lat="42.21553444862366" lon="2.230578660964966">
        <ele>726.2938650449241</ele>
        <time>2021-07-20T14:38:30.141Z</time>
      </trkpt>
      <trkpt lat="42.21550226211548" lon="2.2294628620147705">
        <ele>725.7924551825101</ele>
        <time>2021-07-20T14:38:43.829Z</time>
      </trkpt>
      <trkpt lat="42.215588092803955" lon="2.228304147720337">
        <ele>725.2899118691516</ele>
        <time>2021-07-20T14:38:57.531Z</time>
      </trkpt>
      <trkpt lat="42.215652549639344" lon="2.227853536605835">
        <ele>724.8693882712628</ele>
        <time>2021-07-20T14:39:11.238Z</time>
      </trkpt>
      <trkpt lat="42.21573829650879" lon="2.22723126411438">
        <ele>724.4418469859831</ele>
        <time>2021-07-20T14:39:24.953Z</time>
      </trkpt>
      <trkpt lat="42.21590995788574" lon="2.2259116172790527">
        <ele>724.149810923496</ele>
        <time>2021-07-20T14:39:38.684Z</time>
      </trkpt>
      <trkpt lat="42.216124618425965" lon="2.2252893447875977">
        <ele>723.5979392254073</ele>
        <time>2021-07-20T14:39:52.423Z</time>
      </trkpt>
      <trkpt lat="42.21628546714783" lon="2.2247958183288574">
        <ele>723.1651445307864</ele>
        <time>2021-07-20T14:40:06.168Z</time>
      </trkpt>
      <trkpt lat="42.216843366622925" lon="2.223454713821411">
        <ele>722.8152945763784</ele>
        <time>2021-07-20T14:40:19.932Z</time>
      </trkpt>
      <trkpt lat="42.21740126609802" lon="2.222210168838501">
        <ele>721.9314772579163</ele>
        <time>2021-07-20T14:40:33.713Z</time>
      </trkpt>
      <trkpt lat="42.21762657165527" lon="2.221609354019165">
        <ele>721.5612656980509</ele>
        <time>2021-07-20T14:40:47.502Z</time>
      </trkpt>
      <trkpt lat="42.21794843673706" lon="2.2207939624786377">
        <ele>721.3386220822387</ele>
        <time>2021-07-20T14:41:01.302Z</time>
      </trkpt>
      <trkpt lat="42.21806653775275" lon="2.2203433513641357">
        <ele>720.9734215101697</ele>
        <time>2021-07-20T14:41:15.108Z</time>
      </trkpt>
      <trkpt lat="42.21813082695007" lon="2.2200965881347656">
        <ele>720.5350226566536</ele>
        <time>2021-07-20T14:41:28.917Z</time>
      </trkpt>
      <trkpt lat="42.21828103065491" lon="2.219109535217285">
        <ele>720.0087003451919</ele>
        <time>2021-07-20T14:41:42.738Z</time>
      </trkpt>
      <trkpt lat="42.21829184331" lon="2.2188949584960938">
        <ele>719.641373536052</ele>
        <time>2021-07-20T14:41:56.561Z</time>
      </trkpt>
      <trkpt lat="42.218313217163086" lon="2.218315601348877">
        <ele>719.2104823356992</ele>
        <time>2021-07-20T14:42:10.391Z</time>
      </trkpt>
      <trkpt lat="42.21828103065491" lon="2.217468023300171">
        <ele>719.0749291759073</ele>
        <time>2021-07-20T14:42:24.231Z</time>
      </trkpt>
      <trkpt lat="42.21794852055609" lon="2.216019630432129">
        <ele>719.2963724441029</ele>
        <time>2021-07-20T14:42:38.089Z</time>
      </trkpt>
      <trkpt lat="42.217841148376465" lon="2.2156763076782227">
        <ele>719.0941678526553</ele>
        <time>2021-07-20T14:42:51.952Z</time>
      </trkpt>
      <trkpt lat="42.2178412321955" lon="2.2156763076782227">
        <ele>718.8749826276089</ele>
        <time>2021-07-20T14:43:05.815Z</time>
      </trkpt>
      <trkpt lat="42.217615842819214" lon="2.2150111198425293">
        <ele>718.5185897842073</ele>
        <time>2021-07-20T14:43:19.686Z</time>
      </trkpt>
      <trkpt lat="42.21727252006531" lon="2.214099168777466">
        <ele>718.1870671952743</ele>
        <time>2021-07-20T14:43:33.570Z</time>
      </trkpt>
      <trkpt lat="42.21678972244263" lon="2.212672233581543">
        <ele>717.8649450701234</ele>
        <time>2021-07-20T14:43:47.472Z</time>
      </trkpt>
      <trkpt lat="42.216360569000244" lon="2.21150279045105">
        <ele>717.6967643371806</ele>
        <time>2021-07-20T14:44:01.390Z</time>
      </trkpt>
      <trkpt lat="42.21590995788574" lon="2.21049427986145">
        <ele>717.4291337482753</ele>
        <time>2021-07-20T14:44:15.322Z</time>
      </trkpt>
      <trkpt lat="42.21550226211548" lon="2.209925651550293">
        <ele>717.2353446477262</ele>
        <time>2021-07-20T14:44:29.263Z</time>
      </trkpt>
      <trkpt lat="42.21542716026306" lon="2.209850549697876">
        <ele>716.9899712798283</ele>
        <time>2021-07-20T14:44:43.206Z</time>
      </trkpt>
      <trkpt lat="42.21542724408209" lon="2.209850549697876">
        <ele>716.7225203094915</ele>
        <time>2021-07-20T14:44:57.149Z</time>
      </trkpt>
      <trkpt lat="42.21493363380432" lon="2.209324836730957">
        <ele>716.4093225743698</ele>
        <time>2021-07-20T14:45:11.102Z</time>
      </trkpt>
      <trkpt lat="42.21444010734558" lon="2.2089171409606934">
        <ele>716.1057998665183</ele>
        <time>2021-07-20T14:45:25.064Z</time>
      </trkpt>
      <trkpt lat="42.21444019116461" lon="2.2089171409606934">
        <ele>715.7672069919806</ele>
        <time>2021-07-20T14:45:39.026Z</time>
      </trkpt>
      <trkpt lat="42.21413969993591" lon="2.2086596488952637">
        <ele>715.4589939296045</ele>
        <time>2021-07-20T14:45:52.994Z</time>
      </trkpt>
      <trkpt lat="42.21321702003479" lon="2.207973003387451">
        <ele>715.1565115807377</ele>
        <time>2021-07-20T14:46:06.978Z</time>
      </trkpt>
      <trkpt lat="42.21264839172363" lon="2.207479476928711">
        <ele>714.5315517248875</ele>
        <time>2021-07-20T14:46:20.973Z</time>
      </trkpt>
      <trkpt lat="42.212648475542665" lon="2.207479476928711">
        <ele>714.0609378804045</ele>
        <time>2021-07-20T14:46:34.968Z</time>
      </trkpt>
      <trkpt lat="42.212069034576416" lon="2.20725417137146">
        <ele>713.7818265579531</ele>
        <time>2021-07-20T14:46:48.973Z</time>
      </trkpt>
      <trkpt lat="42.21141457557678" lon="2.206782102584839">
        <ele>713.2036104669372</ele>
        <time>2021-07-20T14:47:02.990Z</time>
      </trkpt>
      <trkpt lat="42.21028804779053" lon="2.2058916091918945">
        <ele>712.3023953886568</ele>
        <time>2021-07-20T14:47:17.028Z</time>
      </trkpt>
      <trkpt lat="42.21028813160956" lon="2.2058916091918945">
        <ele>711.7016484527425</ele>
        <time>2021-07-20T14:47:31.066Z</time>
      </trkpt>
      <trkpt lat="42.20996618270874" lon="2.2056448459625244">
        <ele>710.9922335325933</ele>
        <time>2021-07-20T14:47:45.110Z</time>
      </trkpt>
      <trkpt lat="42.2094190120697" lon="2.205301523208618">
        <ele>710.1700992694443</ele>
        <time>2021-07-20T14:47:59.163Z</time>
      </trkpt>
      <trkpt lat="42.209386909380555" lon="2.2052371501922607">
        <ele>709.5015013076702</ele>
        <time>2021-07-20T14:48:13.217Z</time>
      </trkpt>
      <trkpt lat="42.209408367052674" lon="2.2050976753234863">
        <ele>708.7736719541026</ele>
        <time>2021-07-20T14:48:27.273Z</time>
      </trkpt>
      <trkpt lat="42.20950484275818" lon="2.2047650814056396">
        <ele>708.0153851676389</ele>
        <time>2021-07-20T14:48:41.333Z</time>
      </trkpt>
      <trkpt lat="42.20945128239691" lon="2.2047007083892822">
        <ele>707.362178457098</ele>
        <time>2021-07-20T14:48:55.394Z</time>
      </trkpt>
      <trkpt lat="42.20929026603699" lon="2.2046148777008057">
        <ele>706.7214874268976</ele>
        <time>2021-07-20T14:49:09.458Z</time>
      </trkpt>
      <trkpt lat="42.20900058746338" lon="2.204357385635376">
        <ele>706.0948686230873</ele>
        <time>2021-07-20T14:49:23.528Z</time>
      </trkpt>
      <trkpt lat="42.208882570266724" lon="2.2042393684387207">
        <ele>705.4772459345064</ele>
        <time>2021-07-20T14:49:37.600Z</time>
      </trkpt>
      <trkpt lat="42.208882654085755" lon="2.2042393684387207">
        <ele>704.8645021451332</ele>
        <time>2021-07-20T14:49:51.672Z</time>
      </trkpt>
      <trkpt lat="42.20874309539795" lon="2.2040891647338867">
        <ele>704.266324776815</ele>
        <time>2021-07-20T14:50:05.747Z</time>
      </trkpt>
      <trkpt lat="42.2084641456604" lon="2.2037243843078613">
        <ele>703.6014233575523</ele>
        <time>2021-07-20T14:50:19.828Z</time>
      </trkpt>
      <trkpt lat="42.207638109102845" lon="2.2022974491119385">
        <ele>702.8732796805562</ele>
        <time>2021-07-20T14:50:33.931Z</time>
      </trkpt>
      <trkpt lat="42.207627296447754" lon="2.2022438049316406">
        <ele>702.3187323870011</ele>
        <time>2021-07-20T14:50:48.034Z</time>
      </trkpt>
      <trkpt lat="42.20765948295593" lon="2.202115058898926">
        <ele>701.7683696893507</ele>
        <time>2021-07-20T14:51:02.139Z</time>
      </trkpt>
      <trkpt lat="42.20769166946411" lon="2.2021257877349854">
        <ele>701.2545087686276</ele>
        <time>2021-07-20T14:51:16.244Z</time>
      </trkpt>
      <trkpt lat="42.2077024821192" lon="2.2020721435546875">
        <ele>700.752895322956</ele>
        <time>2021-07-20T14:51:30.350Z</time>
      </trkpt>
      <trkpt lat="42.20773466862738" lon="2.2019004821777344">
        <ele>700.2497892830447</ele>
        <time>2021-07-20T14:51:44.458Z</time>
      </trkpt>
      <trkpt lat="42.20774531364441" lon="2.201836109161377">
        <ele>699.791712457153</ele>
        <time>2021-07-20T14:51:58.567Z</time>
      </trkpt>
      <trkpt lat="42.207573652267456" lon="2.201739549636841">
        <ele>699.3362928192779</ele>
        <time>2021-07-20T14:52:12.679Z</time>
      </trkpt>
      <trkpt lat="42.20752000808716" lon="2.2016966342926025">
        <ele>698.8963766964407</ele>
        <time>2021-07-20T14:52:26.792Z</time>
      </trkpt>
      <trkpt lat="42.20744490623474" lon="2.201664447784424">
        <ele>698.4684420324802</ele>
        <time>2021-07-20T14:52:40.906Z</time>
      </trkpt>
      <trkpt lat="42.207316160202026" lon="2.2016751766204834">
        <ele>698.0796899961103</ele>
        <time>2021-07-20T14:52:55.022Z</time>
      </trkpt>
      <trkpt lat="42.20727332867682" lon="2.2016429901123047">
        <ele>697.6586869741641</ele>
        <time>2021-07-20T14:53:09.139Z</time>
      </trkpt>
      <trkpt lat="42.20675826072693" lon="2.2007739543914795">
        <ele>697.2137576514098</ele>
        <time>2021-07-20T14:53:23.269Z</time>
      </trkpt>
      <trkpt lat="42.20675834454596" lon="2.2007739543914795">
        <ele>696.7770821886372</ele>
        <time>2021-07-20T14:53:37.399Z</time>
      </trkpt>
      <trkpt lat="42.206125343218446" lon="2.199615240097046">
        <ele>696.1130290088329</ele>
        <time>2021-07-20T14:53:51.546Z</time>
      </trkpt>
      <trkpt lat="42.205320596694946" lon="2.1981453895568848">
        <ele>695.9291235805227</ele>
        <time>2021-07-20T14:54:05.715Z</time>
      </trkpt>
      <trkpt lat="42.20514893531799" lon="2.197791337966919">
        <ele>695.3564773694753</ele>
        <time>2021-07-20T14:54:19.889Z</time>
      </trkpt>
      <trkpt lat="42.20505237579346" lon="2.197641134262085">
        <ele>694.8760560927406</ele>
        <time>2021-07-20T14:54:34.065Z</time>
      </trkpt>
      <trkpt lat="42.204633951187134" lon="2.1972012519836426">
        <ele>694.5391036108839</ele>
        <time>2021-07-20T14:54:48.250Z</time>
      </trkpt>
      <trkpt lat="42.20402240753174" lon="2.1964073181152344">
        <ele>693.9908947140675</ele>
        <time>2021-07-20T14:55:02.449Z</time>
      </trkpt>
      <trkpt lat="42.2037220839411" lon="2.1959567070007324">
        <ele>693.4687871776217</ele>
        <time>2021-07-20T14:55:16.655Z</time>
      </trkpt>
      <trkpt lat="42.20343232154846" lon="2.1955275535583496">
        <ele>692.8716066625661</ele>
        <time>2021-07-20T14:55:30.868Z</time>
      </trkpt>
      <trkpt lat="42.2034215927124" lon="2.195441722869873">
        <ele>692.335746366747</ele>
        <time>2021-07-20T14:55:45.082Z</time>
      </trkpt>
      <trkpt lat="42.20343232154846" lon="2.195248603820801">
        <ele>691.7012731283036</ele>
        <time>2021-07-20T14:55:59.298Z</time>
      </trkpt>
      <trkpt lat="42.203378677368164" lon="2.1950876712799072">
        <ele>691.1586082044598</ele>
        <time>2021-07-20T14:56:13.516Z</time>
      </trkpt>
      <trkpt lat="42.20328211784363" lon="2.1950340270996094">
        <ele>690.3795375917873</ele>
        <time>2021-07-20T14:56:27.736Z</time>
      </trkpt>
      <trkpt lat="42.20320709981024" lon="2.1950340270996094">
        <ele>690.0860440276608</ele>
        <time>2021-07-20T14:56:41.957Z</time>
      </trkpt>
      <trkpt lat="42.202627742663026" lon="2.193993330001831">
        <ele>689.7294115873653</ele>
        <time>2021-07-20T14:56:56.193Z</time>
      </trkpt>
      <trkpt lat="42.202627658843994" lon="2.193993330001831">
        <ele>689.4413665746702</ele>
        <time>2021-07-20T14:57:10.429Z</time>
      </trkpt>
      <trkpt lat="42.2020697593689" lon="2.1934354305267334">
        <ele>689.1773504667149</ele>
        <time>2021-07-20T14:57:24.676Z</time>
      </trkpt>
      <trkpt lat="42.20200547017157" lon="2.193424701690674">
        <ele>688.9779895757028</ele>
        <time>2021-07-20T14:57:38.925Z</time>
      </trkpt>
      <trkpt lat="42.201930368319154" lon="2.1934032440185547">
        <ele>688.8180082986073</ele>
        <time>2021-07-20T14:57:53.175Z</time>
      </trkpt>
      <trkpt lat="42.20185526646674" lon="2.193392515182495">
        <ele>688.7024081340609</ele>
        <time>2021-07-20T14:58:07.426Z</time>
      </trkpt>
      <trkpt lat="42.20154404640198" lon="2.1931564807891846">
        <ele>688.603054719713</ele>
        <time>2021-07-20T14:58:21.683Z</time>
      </trkpt>
      <trkpt lat="42.20128663815558" lon="2.1929848194122314">
        <ele>688.5305820270505</ele>
        <time>2021-07-20T14:58:35.944Z</time>
      </trkpt>
      <trkpt lat="42.20122218132019" lon="2.1929526329040527">
        <ele>688.5332485035469</ele>
        <time>2021-07-20T14:58:50.206Z</time>
      </trkpt>
      <trkpt lat="42.20122226513922" lon="2.1929526329040527">
        <ele>688.5734749417919</ele>
        <time>2021-07-20T14:59:04.468Z</time>
      </trkpt>
      <trkpt lat="42.20092177391052" lon="2.1928131580352783">
        <ele>688.693686482367</ele>
        <time>2021-07-20T14:59:18.735Z</time>
      </trkpt>
      <trkpt lat="42.200632179155946" lon="2.1927058696746826">
        <ele>688.8267825581613</ele>
        <time>2021-07-20T14:59:33.007Z</time>
      </trkpt>
      <trkpt lat="42.20027804374695" lon="2.192598581314087">
        <ele>688.9672867123559</ele>
        <time>2021-07-20T14:59:47.285Z</time>
      </trkpt>
      <trkpt lat="42.20002055168152" lon="2.192566394805908">
        <ele>689.1938765745905</ele>
        <time>2021-07-20T15:00:01.567Z</time>
      </trkpt>
      <trkpt lat="42.199870431795716" lon="2.1925556659698486">
        <ele>689.454628653655</ele>
        <time>2021-07-20T15:00:15.852Z</time>
      </trkpt>
      <trkpt lat="42.19979524612427" lon="2.1925556659698486">
        <ele>689.7513774647991</ele>
        <time>2021-07-20T15:00:30.138Z</time>
      </trkpt>
      <trkpt lat="42.19979524612427" lon="2.1925127506256104">
        <ele>690.0555400834362</ele>
        <time>2021-07-20T15:00:44.424Z</time>
      </trkpt>
      <trkpt lat="42.19981670379639" lon="2.1923303604125977">
        <ele>690.405236838883</ele>
        <time>2021-07-20T15:00:58.713Z</time>
      </trkpt>
      <trkpt lat="42.199827432632446" lon="2.1922123432159424">
        <ele>690.8337281391811</ele>
        <time>2021-07-20T15:01:13.003Z</time>
      </trkpt>
      <trkpt lat="42.199859619140625" lon="2.1921157836914062">
        <ele>691.2919530825744</ele>
        <time>2021-07-20T15:01:27.294Z</time>
      </trkpt>
      <trkpt lat="42.20006346702576" lon="2.191793918609619">
        <ele>691.7922776741946</ele>
        <time>2021-07-20T15:01:41.590Z</time>
      </trkpt>
      <trkpt lat="42.20036395825446" lon="2.191300392150879">
        <ele>692.4626401346607</ele>
        <time>2021-07-20T15:01:55.894Z</time>
      </trkpt>
      <trkpt lat="42.20056780613959" lon="2.190978527069092">
        <ele>693.053027789749</ele>
        <time>2021-07-20T15:02:10.203Z</time>
      </trkpt>
      <trkpt lat="42.20056772232056" lon="2.190978527069092">
        <ele>693.5983373204605</ele>
        <time>2021-07-20T15:02:24.512Z</time>
      </trkpt>
      <trkpt lat="42.20071792602539" lon="2.190753221511841">
        <ele>694.1856514865271</ele>
        <time>2021-07-20T15:02:38.824Z</time>
      </trkpt>
      <trkpt lat="42.200632179155946" lon="2.190645933151245">
        <ele>694.7633068546252</ele>
        <time>2021-07-20T15:02:53.138Z</time>
      </trkpt>
      <trkpt lat="42.200599908828735" lon="2.190570831298828">
        <ele>695.3408261554869</ele>
        <time>2021-07-20T15:03:07.453Z</time>
      </trkpt>
      <trkpt lat="42.20072865486145" lon="2.19027042388916">
        <ele>695.9473532631116</ele>
        <time>2021-07-20T15:03:21.772Z</time>
      </trkpt>
      <trkpt lat="42.20075011253357" lon="2.1901094913482666">
        <ele>696.5311904696484</ele>
        <time>2021-07-20T15:03:36.093Z</time>
      </trkpt>
      <trkpt lat="42.2008038405329" lon="2.1894443035125732">
        <ele>697.2170777138357</ele>
        <time>2021-07-20T15:03:50.422Z</time>
      </trkpt>
      <trkpt lat="42.200846672058105" lon="2.1891117095947266">
        <ele>697.8356748479646</ele>
        <time>2021-07-20T15:04:04.755Z</time>
      </trkpt>
      <trkpt lat="42.20108279027045" lon="2.188382148742676">
        <ele>698.371300268967</ele>
        <time>2021-07-20T15:04:19.098Z</time>
      </trkpt>
      <trkpt lat="42.201136350631714" lon="2.1882104873657227">
        <ele>698.8573191076059</ele>
        <time>2021-07-20T15:04:33.443Z</time>
      </trkpt>
      <trkpt lat="42.20145829953253" lon="2.187298536300659">
        <ele>699.2544930068459</ele>
        <time>2021-07-20T15:04:47.800Z</time>
      </trkpt>
      <trkpt lat="42.20176943577826" lon="2.186375856399536">
        <ele>699.8426621105423</ele>
        <time>2021-07-20T15:05:02.169Z</time>
      </trkpt>
      <trkpt lat="42.20200547017157" lon="2.1856892108917236">
        <ele>700.2242530339281</ele>
        <time>2021-07-20T15:05:16.547Z</time>
      </trkpt>
      <trkpt lat="42.20200538635254" lon="2.1856892108917236">
        <ele>700.6234370384866</ele>
        <time>2021-07-20T15:05:30.925Z</time>
      </trkpt>
      <trkpt lat="42.202402437105775" lon="2.1844875812530518">
        <ele>701.0766124644429</ele>
        <time>2021-07-20T15:05:45.319Z</time>
      </trkpt>
      <trkpt lat="42.20240235328674" lon="2.1844875812530518">
        <ele>701.4216168988869</ele>
        <time>2021-07-20T15:05:59.713Z</time>
      </trkpt>
      <trkpt lat="42.20272421836853" lon="2.1834897994995117">
        <ele>701.7833232211124</ele>
        <time>2021-07-20T15:06:14.120Z</time>
      </trkpt>
      <trkpt lat="42.20290660858154" lon="2.1832430362701416">
        <ele>702.1036833161841</ele>
        <time>2021-07-20T15:06:28.531Z</time>
      </trkpt>
      <trkpt lat="42.2030246257782" lon="2.1831250190734863">
        <ele>702.4084435111822</ele>
        <time>2021-07-20T15:06:42.944Z</time>
      </trkpt>
      <trkpt lat="42.203099727630615" lon="2.18302845954895">
        <ele>702.6540055780097</ele>
        <time>2021-07-20T15:06:57.359Z</time>
      </trkpt>
      <trkpt lat="42.203142726793885" lon="2.1829211711883545">
        <ele>702.8374795079484</ele>
        <time>2021-07-20T15:07:11.775Z</time>
      </trkpt>
      <trkpt lat="42.20326066017151" lon="2.182663679122925">
        <ele>702.9523243410308</ele>
        <time>2021-07-20T15:07:26.195Z</time>
      </trkpt>
      <trkpt lat="42.203357219696045" lon="2.1825671195983887">
        <ele>703.1445783018835</ele>
        <time>2021-07-20T15:07:40.617Z</time>
      </trkpt>
      <trkpt lat="42.203432405367494" lon="2.182459831237793">
        <ele>703.3259739385485</ele>
        <time>2021-07-20T15:07:55.041Z</time>
      </trkpt>
      <trkpt lat="42.203625440597534" lon="2.1822988986968994">
        <ele>703.5591482286022</ele>
        <time>2021-07-20T15:08:09.468Z</time>
      </trkpt>
      <trkpt lat="42.203668439760804" lon="2.1822452545166016">
        <ele>703.7470025807884</ele>
        <time>2021-07-20T15:08:23.896Z</time>
      </trkpt>
      <trkpt lat="42.20374345779419" lon="2.1821486949920654">
        <ele>703.9385694071112</ele>
        <time>2021-07-20T15:08:38.326Z</time>
      </trkpt>
      <trkpt lat="42.203883016481996" lon="2.181934118270874">
        <ele>704.1267118412618</ele>
        <time>2021-07-20T15:08:52.759Z</time>
      </trkpt>
      <trkpt lat="42.20393657684326" lon="2.181859016418457">
        <ele>704.3262082922873</ele>
        <time>2021-07-20T15:09:07.193Z</time>
      </trkpt>
      <trkpt lat="42.20404386520386" lon="2.181633710861206">
        <ele>704.5089578365463</ele>
        <time>2021-07-20T15:09:21.631Z</time>
      </trkpt>
      <trkpt lat="42.20423698425293" lon="2.1811509132385254">
        <ele>704.9074044785878</ele>
        <time>2021-07-20T15:09:36.075Z</time>
      </trkpt>
      <trkpt lat="42.20430135726929" lon="2.180936336517334">
        <ele>705.212966760063</ele>
        <time>2021-07-20T15:09:50.522Z</time>
      </trkpt>
      <trkpt lat="42.204344272613525" lon="2.180732488632202">
        <ele>705.4672535863779</ele>
        <time>2021-07-20T15:10:04.971Z</time>
      </trkpt>
      <trkpt lat="42.204365730285645" lon="2.1804749965667725">
        <ele>705.7341910732966</ele>
        <time>2021-07-20T15:10:19.423Z</time>
      </trkpt>
      <trkpt lat="42.204387187957764" lon="2.1793055534362793">
        <ele>706.0894620010667</ele>
        <time>2021-07-20T15:10:33.889Z</time>
      </trkpt>
      <trkpt lat="42.204430103302" lon="2.178436517715454">
        <ele>706.4142936128817</ele>
        <time>2021-07-20T15:10:48.366Z</time>
      </trkpt>
      <trkpt lat="42.2044837474823" lon="2.178061008453369">
        <ele>706.6764934548848</ele>
        <time>2021-07-20T15:11:02.847Z</time>
      </trkpt>
      <trkpt lat="42.2045373916626" lon="2.1777820587158203">
        <ele>706.967476938082</ele>
        <time>2021-07-20T15:11:17.332Z</time>
      </trkpt>
      <trkpt lat="42.20465540885925" lon="2.177438735961914">
        <ele>707.2240314568476</ele>
        <time>2021-07-20T15:11:31.821Z</time>
      </trkpt>
      <trkpt lat="42.2057927493006" lon="2.174820899963379">
        <ele>707.8445044979511</ele>
        <time>2021-07-20T15:11:46.346Z</time>
      </trkpt>
      <trkpt lat="42.20579266548157" lon="2.174820899963379">
        <ele>708.2558895408454</ele>
        <time>2021-07-20T15:12:00.871Z</time>
      </trkpt>
      <trkpt lat="42.20609315671027" lon="2.174123525619507">
        <ele>708.5795129712207</ele>
        <time>2021-07-20T15:12:15.406Z</time>
      </trkpt>
      <trkpt lat="42.206382835283875" lon="2.1734797954559326">
        <ele>709.0483830133767</ele>
        <time>2021-07-20T15:12:29.950Z</time>
      </trkpt>
      <trkpt lat="42.20679044723511" lon="2.1725356578826904">
        <ele>709.6110859311786</ele>
        <time>2021-07-20T15:12:44.507Z</time>
      </trkpt>
      <trkpt lat="42.206951379776" lon="2.172224521636963">
        <ele>710.2045625398025</ele>
        <time>2021-07-20T15:12:59.068Z</time>
      </trkpt>
      <trkpt lat="42.20714449882507" lon="2.1719133853912354">
        <ele>710.8177846714378</ele>
        <time>2021-07-20T15:13:13.634Z</time>
      </trkpt>
      <trkpt lat="42.2074019908905" lon="2.1716558933258057">
        <ele>711.4432551995426</ele>
        <time>2021-07-20T15:13:28.205Z</time>
      </trkpt>
      <trkpt lat="42.208142364397645" lon="2.1711301803588867">
        <ele>712.3435216769853</ele>
        <time>2021-07-20T15:13:42.790Z</time>
      </trkpt>
      <trkpt lat="42.20814228057861" lon="2.1711301803588867">
        <ele>713.0682240894605</ele>
        <time>2021-07-20T15:13:57.375Z</time>
      </trkpt>
      <trkpt lat="42.2092688921839" lon="2.170271873474121">
        <ele>713.9807413381116</ele>
        <time>2021-07-20T15:14:11.980Z</time>
      </trkpt>
      <trkpt lat="42.20945128239691" lon="2.170153856277466">
        <ele>714.7827935250327</ele>
        <time>2021-07-20T15:14:26.589Z</time>
      </trkpt>
      <trkpt lat="42.20945119857788" lon="2.170153856277466">
        <ele>715.6215645655035</ele>
        <time>2021-07-20T15:14:41.198Z</time>
      </trkpt>
      <trkpt lat="42.20973014831543" lon="2.1699929237365723">
        <ele>716.4532535790324</ele>
        <time>2021-07-20T15:14:55.811Z</time>
      </trkpt>
      <trkpt lat="42.209880435839295" lon="2.169928550720215">
        <ele>717.3613458961224</ele>
        <time>2021-07-20T15:15:10.427Z</time>
      </trkpt>
      <trkpt lat="42.20997699536383" lon="2.1698856353759766">
        <ele>718.3024454919952</ele>
        <time>2021-07-20T15:15:25.045Z</time>
      </trkpt>
      <trkpt lat="42.2121871355921" lon="2.169349193572998">
        <ele>719.4644403245973</ele>
        <time>2021-07-20T15:15:39.699Z</time>
      </trkpt>
      <trkpt lat="42.21447237767279" lon="2.1687912940979004">
        <ele>720.6175357832883</ele>
        <time>2021-07-20T15:15:54.390Z</time>
      </trkpt>
      <trkpt lat="42.21447229385376" lon="2.1687912940979004">
        <ele>721.6502341093002</ele>
        <time>2021-07-20T15:16:09.081Z</time>
      </trkpt>
      <trkpt lat="42.21503027714789" lon="2.168651819229126">
        <ele>722.6549953402897</ele>
        <time>2021-07-20T15:16:23.781Z</time>
      </trkpt>
      <trkpt lat="42.21552380360663" lon="2.1685874462127686">
        <ele>723.6925886957736</ele>
        <time>2021-07-20T15:16:38.489Z</time>
      </trkpt>
      <trkpt lat="42.215824127197266" lon="2.1685445308685303">
        <ele>724.7677154696195</ele>
        <time>2021-07-20T15:16:53.202Z</time>
      </trkpt>
      <trkpt lat="42.21603870391846" lon="2.1685659885406494">
        <ele>725.8596069691139</ele>
        <time>2021-07-20T15:17:07.918Z</time>
      </trkpt>
      <trkpt lat="42.21927889622748" lon="2.1695637702941895">
        <ele>727.4339898917054</ele>
        <time>2021-07-20T15:17:22.687Z</time>
      </trkpt>
      <trkpt lat="42.21927881240845" lon="2.1695637702941895">
        <ele>728.5346794325793</ele>
        <time>2021-07-20T15:17:37.456Z</time>
      </trkpt>
      <trkpt lat="42.21966505050659" lon="2.1697139739990234">
        <ele>729.7601086021</ele>
        <time>2021-07-20T15:17:52.232Z</time>
      </trkpt>
      <trkpt lat="42.220083475112915" lon="2.1699178218841553">
        <ele>730.9256524680889</ele>
        <time>2021-07-20T15:18:07.015Z</time>
      </trkpt>
      <trkpt lat="42.22129583358765" lon="2.1705079078674316">
        <ele>732.2829589125195</ele>
        <time>2021-07-20T15:18:21.818Z</time>
      </trkpt>
      <trkpt lat="42.221403205767274" lon="2.1705830097198486">
        <ele>733.3224297606337</ele>
        <time>2021-07-20T15:18:36.623Z</time>
      </trkpt>
      <trkpt lat="42.22144603729248" lon="2.1706044673919678">
        <ele>734.2960726855681</ele>
        <time>2021-07-20T15:18:51.429Z</time>
      </trkpt>
      <trkpt lat="42.22169280052185" lon="2.170647382736206">
        <ele>735.2662485664325</ele>
        <time>2021-07-20T15:19:06.239Z</time>
      </trkpt>
      <trkpt lat="42.22230442799628" lon="2.1706902980804443">
        <ele>736.1528961553979</ele>
        <time>2021-07-20T15:19:21.059Z</time>
      </trkpt>
      <trkpt lat="42.222304344177246" lon="2.1706902980804443">
        <ele>737.0138952405963</ele>
        <time>2021-07-20T15:19:35.879Z</time>
      </trkpt>
      <trkpt lat="42.22241171635687" lon="2.170701026916504">
        <ele>737.8421865919211</ele>
        <time>2021-07-20T15:19:50.700Z</time>
      </trkpt>
      <trkpt lat="42.22246527671814" lon="2.170701026916504">
        <ele>738.6372193057393</ele>
        <time>2021-07-20T15:20:05.522Z</time>
      </trkpt>
      <trkpt lat="42.22265839576721" lon="2.170668840408325">
        <ele>739.3976260849531</ele>
        <time>2021-07-20T15:20:20.347Z</time>
      </trkpt>
      <trkpt lat="42.22270139493048" lon="2.170668840408325">
        <ele>740.1437050078562</ele>
        <time>2021-07-20T15:20:35.173Z</time>
      </trkpt>
      <trkpt lat="42.22270131111145" lon="2.170668840408325">
        <ele>740.8687309229431</ele>
        <time>2021-07-20T15:20:49.999Z</time>
      </trkpt>
      <trkpt lat="42.223044633865356" lon="2.1706902980804443">
        <ele>741.6145401281328</ele>
        <time>2021-07-20T15:21:04.831Z</time>
      </trkpt>
      <trkpt lat="42.22347387112677" lon="2.170701026916504">
        <ele>742.3747110812159</ele>
        <time>2021-07-20T15:21:19.669Z</time>
      </trkpt>
      <trkpt lat="42.22421407699585" lon="2.1706581115722656">
        <ele>743.1628330387578</ele>
        <time>2021-07-20T15:21:34.519Z</time>
      </trkpt>
      <trkpt lat="42.22519040107727" lon="2.1705079078674316">
        <ele>743.9275591743024</ele>
        <time>2021-07-20T15:21:49.385Z</time>
      </trkpt>
      <trkpt lat="42.2257483843714" lon="2.1703684329986572">
        <ele>744.6685577378619</ele>
        <time>2021-07-20T15:22:04.260Z</time>
      </trkpt>
      <trkpt lat="42.225877130404115" lon="2.170325517654419">
        <ele>745.3208323475116</ele>
        <time>2021-07-20T15:22:19.137Z</time>
      </trkpt>
      <trkpt lat="42.22592004574835" lon="2.1703147888183594">
        <ele>746.0240473064998</ele>
        <time>2021-07-20T15:22:34.015Z</time>
      </trkpt>
      <trkpt lat="42.22794771194458" lon="2.169671058654785">
        <ele>746.4539673124202</ele>
        <time>2021-07-20T15:22:48.926Z</time>
      </trkpt>
      <trkpt lat="42.22818383015692" lon="2.1696066856384277">
        <ele>747.2578630529385</ele>
        <time>2021-07-20T15:23:03.841Z</time>
      </trkpt>
      <trkpt lat="42.229610765352845" lon="2.169156074523926">
        <ele>748.4490250685666</ele>
        <time>2021-07-20T15:23:18.780Z</time>
      </trkpt>
      <trkpt lat="42.229857528582215" lon="2.169080972671509">
        <ele>749.3132976272102</ele>
        <time>2021-07-20T15:23:33.723Z</time>
      </trkpt>
      <trkpt lat="42.229857444763184" lon="2.169080972671509">
        <ele>750.168930592705</ele>
        <time>2021-07-20T15:23:48.666Z</time>
      </trkpt>
      <trkpt lat="42.23162770271301" lon="2.168523073196411">
        <ele>751.6923538348638</ele>
        <time>2021-07-20T15:24:03.638Z</time>
      </trkpt>
      <trkpt lat="42.23246455192566" lon="2.168329954147339">
        <ele>752.4913562362292</ele>
        <time>2021-07-20T15:24:18.623Z</time>
      </trkpt>
      <trkpt lat="42.232818603515625" lon="2.16829776763916">
        <ele>753.4676893274225</ele>
        <time>2021-07-20T15:24:33.614Z</time>
      </trkpt>
      <trkpt lat="42.23292597569525" lon="2.1682870388031006">
        <ele>754.4101886344365</ele>
        <time>2021-07-20T15:24:48.607Z</time>
      </trkpt>
      <trkpt lat="42.234631860628724" lon="2.1680831909179688">
        <ele>755.3601647865503</ele>
        <time>2021-07-20T15:25:03.627Z</time>
      </trkpt>
      <trkpt lat="42.23497518338263" lon="2.1680402755737305">
        <ele>756.3735325174202</ele>
        <time>2021-07-20T15:25:18.653Z</time>
      </trkpt>
      <trkpt lat="42.2349750995636" lon="2.1680402755737305">
        <ele>757.3496614106235</ele>
        <time>2021-07-20T15:25:33.679Z</time>
      </trkpt>
      <trkpt lat="42.23513603210449" lon="2.1680188179016113">
        <ele>758.3589921250862</ele>
        <time>2021-07-20T15:25:48.707Z</time>
      </trkpt>
      <trkpt lat="42.23551154136658" lon="2.1680188179016113">
        <ele>759.4238124016067</ele>
        <time>2021-07-20T15:26:03.741Z</time>
      </trkpt>
      <trkpt lat="42.2358763217926" lon="2.1680831909179688">
        <ele>760.4990336981776</ele>
        <time>2021-07-20T15:26:18.781Z</time>
      </trkpt>
      <trkpt lat="42.23627328872681" lon="2.1681904792785645">
        <ele>761.6937035609033</ele>
        <time>2021-07-20T15:26:33.828Z</time>
      </trkpt>
      <trkpt lat="42.23671317100525" lon="2.1682333946228027">
        <ele>762.8885983012374</ele>
        <time>2021-07-20T15:26:48.882Z</time>
      </trkpt>
      <trkpt lat="42.23716378211975" lon="2.1681690216064453">
        <ele>764.0364049067562</ele>
        <time>2021-07-20T15:27:03.943Z</time>
      </trkpt>
      <trkpt lat="42.237560749053955" lon="2.1680939197540283">
        <ele>765.2092849382068</ele>
        <time>2021-07-20T15:27:19.010Z</time>
      </trkpt>
      <trkpt lat="42.237839698791504" lon="2.1680080890655518">
        <ele>766.4325069995477</ele>
        <time>2021-07-20T15:27:34.082Z</time>
      </trkpt>
      <trkpt lat="42.23801136016846" lon="2.1679329872131348">
        <ele>767.632922390131</ele>
        <time>2021-07-20T15:27:49.157Z</time>
      </trkpt>
      <trkpt lat="42.23821520805359" lon="2.1677935123443604">
        <ele>768.744083175615</ele>
        <time>2021-07-20T15:28:04.235Z</time>
      </trkpt>
      <trkpt lat="42.23999627865851" lon="2.1662163734436035">
        <ele>770.0991044782788</ele>
        <time>2021-07-20T15:28:19.347Z</time>
      </trkpt>
      <trkpt lat="42.2416699770838" lon="2.1647250652313232">
        <ele>771.7959771156133</ele>
        <time>2021-07-20T15:28:34.492Z</time>
      </trkpt>
      <trkpt lat="42.24175572395325" lon="2.1646714210510254">
        <ele>773.1172183431179</ele>
        <time>2021-07-20T15:28:49.638Z</time>
      </trkpt>
      <trkpt lat="42.2419273853302" lon="2.164607048034668">
        <ele>774.4761684176507</ele>
        <time>2021-07-20T15:29:04.787Z</time>
      </trkpt>
      <trkpt lat="42.242034673690796" lon="2.1645963191986084">
        <ele>775.898920714619</ele>
        <time>2021-07-20T15:29:19.938Z</time>
      </trkpt>
      <trkpt lat="42.24215269088745" lon="2.1646177768707275">
        <ele>777.3792417332593</ele>
        <time>2021-07-20T15:29:35.091Z</time>
      </trkpt>
      <trkpt lat="42.24361181259155" lon="2.165100574493408">
        <ele>779.0491881931223</ele>
        <time>2021-07-20T15:29:50.268Z</time>
      </trkpt>
      <trkpt lat="42.24390149116516" lon="2.1651220321655273">
        <ele>780.4838904797155</ele>
        <time>2021-07-20T15:30:05.449Z</time>
      </trkpt>
      <trkpt lat="42.24420189857483" lon="2.1650898456573486">
        <ele>781.9999088974873</ele>
        <time>2021-07-20T15:30:20.635Z</time>
      </trkpt>
      <trkpt lat="42.24523195065558" lon="2.1647465229034424">
        <ele>783.5928000295501</ele>
        <time>2021-07-20T15:30:35.838Z</time>
      </trkpt>
      <trkpt lat="42.24523186683655" lon="2.1647465229034424">
        <ele>785.1644617587883</ele>
        <time>2021-07-20T15:30:51.041Z</time>
      </trkpt>
      <trkpt lat="42.24716305732727" lon="2.164006233215332">
        <ele>787.1172055853053</ele>
        <time>2021-07-20T15:31:06.276Z</time>
      </trkpt>
      <trkpt lat="42.24743127822876" lon="2.1639740467071533">
        <ele>788.7813425323923</ele>
        <time>2021-07-20T15:31:21.515Z</time>
      </trkpt>
      <trkpt lat="42.24768877029419" lon="2.1640384197235107">
        <ele>790.3524342507751</ele>
        <time>2021-07-20T15:31:36.759Z</time>
      </trkpt>
      <trkpt lat="42.24824666976929" lon="2.1642744541168213">
        <ele>792.1114598082663</ele>
        <time>2021-07-20T15:31:52.012Z</time>
      </trkpt>
      <trkpt lat="42.24847205914557" lon="2.164328098297119">
        <ele>793.6411865550566</ele>
        <time>2021-07-20T15:32:07.269Z</time>
      </trkpt>
      <trkpt lat="42.24875092506409" lon="2.1643924713134766">
        <ele>795.1514473299276</ele>
        <time>2021-07-20T15:32:22.530Z</time>
      </trkpt>
      <trkpt lat="42.24891185760498" lon="2.1644675731658936">
        <ele>796.6320421096524</ele>
        <time>2021-07-20T15:32:37.794Z</time>
      </trkpt>
      <trkpt lat="42.24914789199829" lon="2.164735794067383">
        <ele>798.256051379043</ele>
        <time>2021-07-20T15:32:53.063Z</time>
      </trkpt>
      <trkpt lat="42.24942692555487" lon="2.1652722358703613">
        <ele>799.9384780200362</ele>
        <time>2021-07-20T15:33:08.340Z</time>
      </trkpt>
      <trkpt lat="42.24942684173584" lon="2.1652722358703613">
        <ele>801.0810840288522</ele>
        <time>2021-07-20T15:33:23.617Z</time>
      </trkpt>
      <trkpt lat="42.24961996078491" lon="2.165508270263672">
        <ele>802.264853159684</ele>
        <time>2021-07-20T15:33:38.898Z</time>
      </trkpt>
      <trkpt lat="42.249791622161865" lon="2.1656477451324463">
        <ele>803.1826241677209</ele>
        <time>2021-07-20T15:33:54.182Z</time>
      </trkpt>
      <trkpt lat="42.24997401237488" lon="2.1657443046569824">
        <ele>803.9314436139325</ele>
        <time>2021-07-20T15:34:09.469Z</time>
      </trkpt>
      <trkpt lat="42.25021004676819" lon="2.16580867767334">
        <ele>804.9199639508299</ele>
        <time>2021-07-20T15:34:24.760Z</time>
      </trkpt>
      <trkpt lat="42.25040316581726" lon="2.16580867767334">
        <ele>805.60442959438</ele>
        <time>2021-07-20T15:34:40.054Z</time>
      </trkpt>
      <trkpt lat="42.250510454177856" lon="2.1657872200012207">
        <ele>806.0557007714604</ele>
        <time>2021-07-20T15:34:55.350Z</time>
      </trkpt>
      <trkpt lat="42.25065001286566" lon="2.1657228469848633">
        <ele>806.3782905092946</ele>
        <time>2021-07-20T15:35:10.648Z</time>
      </trkpt>
      <trkpt lat="42.25074648857117" lon="2.1656370162963867">
        <ele>806.5380318317665</ele>
        <time>2021-07-20T15:35:25.948Z</time>
      </trkpt>
      <trkpt lat="42.25099325180054" lon="2.1653366088867188">
        <ele>806.3263292097047</ele>
        <time>2021-07-20T15:35:41.253Z</time>
      </trkpt>
      <trkpt lat="42.25141167640686" lon="2.164660692214966">
        <ele>806.3097491534543</ele>
        <time>2021-07-20T15:35:56.569Z</time>
      </trkpt>
      <trkpt lat="42.25172281265259" lon="2.1642959117889404">
        <ele>806.0008426442494</ele>
        <time>2021-07-20T15:36:11.891Z</time>
      </trkpt>
      <trkpt lat="42.2518515586853" lon="2.164177894592285">
        <ele>806.0313217735502</ele>
        <time>2021-07-20T15:36:27.216Z</time>
      </trkpt>
      <trkpt lat="42.2519588470459" lon="2.1641135215759277">
        <ele>806.0863845311347</ele>
        <time>2021-07-20T15:36:42.543Z</time>
      </trkpt>
      <trkpt lat="42.25214123725891" lon="2.164102792739868">
        <ele>806.2735684353902</ele>
        <time>2021-07-20T15:36:57.873Z</time>
      </trkpt>
      <trkpt lat="42.252312898635864" lon="2.164134979248047">
        <ele>806.5038691240036</ele>
        <time>2021-07-20T15:37:13.205Z</time>
      </trkpt>
      <trkpt lat="42.252570390701294" lon="2.1642959117889404">
        <ele>806.8188452287609</ele>
        <time>2021-07-20T15:37:28.542Z</time>
      </trkpt>
      <trkpt lat="42.25274205207825" lon="2.1644675731658936">
        <ele>807.0154366246129</ele>
        <time>2021-07-20T15:37:43.882Z</time>
      </trkpt>
      <trkpt lat="42.2529137134552" lon="2.1647250652313232">
        <ele>807.3443442618614</ele>
        <time>2021-07-20T15:37:59.227Z</time>
      </trkpt>
      <trkpt lat="42.25318193435669" lon="2.16505765914917">
        <ele>807.7801098515451</ele>
        <time>2021-07-20T15:38:14.577Z</time>
      </trkpt>
      <trkpt lat="42.25351461209357" lon="2.16530442237854">
        <ele>808.071493453687</ele>
        <time>2021-07-20T15:38:29.933Z</time>
      </trkpt>
      <trkpt lat="42.25408315658569" lon="2.1655726432800293">
        <ele>808.1865393316555</ele>
        <time>2021-07-20T15:38:45.299Z</time>
      </trkpt>
      <trkpt lat="42.25441575050354" lon="2.165658473968506">
        <ele>808.2823130378206</ele>
        <time>2021-07-20T15:39:00.671Z</time>
      </trkpt>
      <trkpt lat="42.254812717437744" lon="2.165658473968506">
        <ele>808.2162930233965</ele>
        <time>2021-07-20T15:39:16.049Z</time>
      </trkpt>
      <trkpt lat="42.25525259971619" lon="2.1655726432800293">
        <ele>808.6896046583201</ele>
        <time>2021-07-20T15:39:31.434Z</time>
      </trkpt>
      <trkpt lat="42.255563735961914" lon="2.165325880050659">
        <ele>808.8304429035004</ele>
        <time>2021-07-20T15:39:46.825Z</time>
      </trkpt>
      <trkpt lat="42.2563362121582" lon="2.1645426750183105">
        <ele>808.5630106609772</ele>
        <time>2021-07-20T15:40:02.231Z</time>
      </trkpt>
      <trkpt lat="42.256540060043335" lon="2.164435386657715">
        <ele>808.60222871781</ele>
        <time>2021-07-20T15:40:17.641Z</time>
      </trkpt>
      <trkpt lat="42.256765365600586" lon="2.1643924713134766">
        <ele>808.6466353142382</ele>
        <time>2021-07-20T15:40:33.054Z</time>
      </trkpt>
      <trkpt lat="42.25695848464966" lon="2.1644139289855957">
        <ele>808.7743497405836</ele>
        <time>2021-07-20T15:40:48.470Z</time>
      </trkpt>
      <trkpt lat="42.25715160369873" lon="2.1645212173461914">
        <ele>809.0628483550281</ele>
        <time>2021-07-20T15:41:03.890Z</time>
      </trkpt>
      <trkpt lat="42.257312536239624" lon="2.164628505706787">
        <ele>809.3964692015784</ele>
        <time>2021-07-20T15:41:19.313Z</time>
      </trkpt>
      <trkpt lat="42.25744128227234" lon="2.1647894382476807">
        <ele>809.8008986971205</ele>
        <time>2021-07-20T15:41:34.738Z</time>
      </trkpt>
      <trkpt lat="42.257795333862305" lon="2.165379524230957">
        <ele>810.4001365056545</ele>
        <time>2021-07-20T15:41:50.173Z</time>
      </trkpt>
      <trkpt lat="42.258009910583496" lon="2.165583372116089">
        <ele>810.8113607843062</ele>
        <time>2021-07-20T15:42:05.612Z</time>
      </trkpt>
      <trkpt lat="42.258074367418885" lon="2.165626287460327">
        <ele>811.2503830556457</ele>
        <time>2021-07-20T15:42:21.052Z</time>
      </trkpt>
      <trkpt lat="42.25807428359985" lon="2.165626287460327">
        <ele>811.7644348979959</ele>
        <time>2021-07-20T15:42:36.492Z</time>
      </trkpt>
      <trkpt lat="42.258288860321045" lon="2.1657228469848633">
        <ele>812.2054926656617</ele>
        <time>2021-07-20T15:42:51.935Z</time>
      </trkpt>
      <trkpt lat="42.25841769017279" lon="2.1657228469848633">
        <ele>812.8810677234995</ele>
        <time>2021-07-20T15:43:07.381Z</time>
      </trkpt>
      <trkpt lat="42.25841760635376" lon="2.1657228469848633">
        <ele>813.5144690753216</ele>
        <time>2021-07-20T15:43:22.827Z</time>
      </trkpt>
      <trkpt lat="42.258567810058594" lon="2.1657121181488037">
        <ele>814.2715689168923</ele>
        <time>2021-07-20T15:43:38.275Z</time>
      </trkpt>
      <trkpt lat="42.25967288017273" lon="2.1652722358703613">
        <ele>815.5286933897071</ele>
        <time>2021-07-20T15:43:53.741Z</time>
      </trkpt>
      <trkpt lat="42.26094961166382" lon="2.1646714210510254">
        <ele>816.6620557428215</ele>
        <time>2021-07-20T15:44:09.229Z</time>
      </trkpt>
      <trkpt lat="42.26111054420471" lon="2.1645426750183105">
        <ele>817.5764282204464</ele>
        <time>2021-07-20T15:44:24.720Z</time>
      </trkpt>
      <trkpt lat="42.26135730743408" lon="2.1642422676086426">
        <ele>818.1029637522811</ele>
        <time>2021-07-20T15:44:40.216Z</time>
      </trkpt>
      <trkpt lat="42.26187229156494" lon="2.1631908416748047">
        <ele>818.4944067746939</ele>
        <time>2021-07-20T15:44:55.727Z</time>
      </trkpt>
      <trkpt lat="42.262022495269775" lon="2.1629226207733154">
        <ele>819.4781354219544</ele>
        <time>2021-07-20T15:45:11.242Z</time>
      </trkpt>
      <trkpt lat="42.26220488548279" lon="2.1626758575439453">
        <ele>819.8199984870105</ele>
        <time>2021-07-20T15:45:26.761Z</time>
      </trkpt>
      <trkpt lat="42.26236581802368" lon="2.162536382675171">
        <ele>820.2045585169396</ele>
        <time>2021-07-20T15:45:42.283Z</time>
      </trkpt>
      <trkpt lat="42.262558937072754" lon="2.1624398231506348">
        <ele>820.7506129172466</ele>
        <time>2021-07-20T15:45:57.809Z</time>
      </trkpt>
      <trkpt lat="42.262762784957886" lon="2.162386178970337">
        <ele>821.579238889613</ele>
        <time>2021-07-20T15:46:13.338Z</time>
      </trkpt>
      <trkpt lat="42.26295590400696" lon="2.1623969078063965">
        <ele>822.4096577441696</ele>
        <time>2021-07-20T15:46:28.870Z</time>
      </trkpt>
      <trkpt lat="42.2633421421051" lon="2.162536382675171">
        <ele>823.3400442453953</ele>
        <time>2021-07-20T15:46:44.409Z</time>
      </trkpt>
      <trkpt lat="42.26363190449774" lon="2.162729501724243">
        <ele>824.3069013494178</ele>
        <time>2021-07-20T15:46:59.953Z</time>
      </trkpt>
      <trkpt lat="42.26376065053046" lon="2.1628153324127197">
        <ele>825.266426706531</ele>
        <time>2021-07-20T15:47:15.499Z</time>
      </trkpt>
      <trkpt lat="42.263760566711426" lon="2.1628153324127197">
        <ele>826.2347062265362</ele>
        <time>2021-07-20T15:47:31.045Z</time>
      </trkpt>
      <trkpt lat="42.264264822006226" lon="2.1631479263305664">
        <ele>827.4273374242916</ele>
        <time>2021-07-20T15:47:46.600Z</time>
      </trkpt>
      <trkpt lat="42.264511585235596" lon="2.1632659435272217">
        <ele>828.5912969950002</ele>
        <time>2021-07-20T15:48:02.159Z</time>
      </trkpt>
      <trkpt lat="42.264790534973145" lon="2.1632766723632812">
        <ele>829.719742792847</ele>
        <time>2021-07-20T15:48:17.723Z</time>
      </trkpt>
      <trkpt lat="42.26494073867798" lon="2.1632659435272217">
        <ele>830.8506876938262</ele>
        <time>2021-07-20T15:48:33.289Z</time>
      </trkpt>
      <trkpt lat="42.26509094238281" lon="2.1631908416748047">
        <ele>832.1354537625605</ele>
        <time>2021-07-20T15:48:48.858Z</time>
      </trkpt>
      <trkpt lat="42.26521968841553" lon="2.1630942821502686">
        <ele>833.4231029155824</ele>
        <time>2021-07-20T15:49:04.429Z</time>
      </trkpt>
      <trkpt lat="42.26544499397278" lon="2.1628153324127197">
        <ele>834.6660631809863</ele>
        <time>2021-07-20T15:49:20.005Z</time>
      </trkpt>
      <trkpt lat="42.26562738418579" lon="2.162429094314575">
        <ele>835.5482602509704</ele>
        <time>2021-07-20T15:49:35.586Z</time>
      </trkpt>
      <trkpt lat="42.2658634185791" lon="2.1617746353149414">
        <ele>836.6213679713114</ele>
        <time>2021-07-20T15:49:51.176Z</time>
      </trkpt>
      <trkpt lat="42.266024351119995" lon="2.161463499069214">
        <ele>837.9552129722323</ele>
        <time>2021-07-20T15:50:06.770Z</time>
      </trkpt>
      <trkpt lat="42.26621747016907" lon="2.1611523628234863">
        <ele>839.422568127784</ele>
        <time>2021-07-20T15:50:22.369Z</time>
      </trkpt>
      <trkpt lat="42.26664662361145" lon="2.1607446670532227">
        <ele>840.6127889214808</ele>
        <time>2021-07-20T15:50:37.977Z</time>
      </trkpt>
      <trkpt lat="42.26882457733154" lon="2.159585952758789">
        <ele>842.9627855508618</ele>
        <time>2021-07-20T15:50:53.622Z</time>
      </trkpt>
      <trkpt lat="42.26898559369147" lon="2.1595215797424316">
        <ele>844.213902837413</ele>
        <time>2021-07-20T15:51:09.270Z</time>
      </trkpt>
      <trkpt lat="42.26898550987244" lon="2.1595215797424316">
        <ele>845.2534111937837</ele>
        <time>2021-07-20T15:51:24.918Z</time>
      </trkpt>
      <trkpt lat="42.26941474713385" lon="2.159392833709717">
        <ele>846.4974453688999</ele>
        <time>2021-07-20T15:51:40.573Z</time>
      </trkpt>
      <trkpt lat="42.27002629078925" lon="2.159264087677002">
        <ele>847.3675723236552</ele>
        <time>2021-07-20T15:51:56.238Z</time>
      </trkpt>
      <trkpt lat="42.27013357914984" lon="2.159242630004883">
        <ele>848.0247932668933</ele>
        <time>2021-07-20T15:52:11.905Z</time>
      </trkpt>
      <trkpt lat="42.27041244506836" lon="2.159188985824585">
        <ele>848.7190845694591</ele>
        <time>2021-07-20T15:52:27.576Z</time>
      </trkpt>
      <trkpt lat="42.27080941200256" lon="2.1591460704803467">
        <ele>849.3218617996356</ele>
        <time>2021-07-20T15:52:43.253Z</time>
      </trkpt>
      <trkpt lat="42.27112054824829" lon="2.1591997146606445">
        <ele>849.823552477417</ele>
        <time>2021-07-20T15:52:58.935Z</time>
      </trkpt>
      <trkpt lat="42.27169990539551" lon="2.159510850906372">
        <ele>850.0870279603104</ele>
        <time>2021-07-20T15:53:14.627Z</time>
      </trkpt>
      <trkpt lat="42.27194666862488" lon="2.15956449508667">
        <ele>850.5075738694316</ele>
        <time>2021-07-20T15:53:30.323Z</time>
      </trkpt>
      <trkpt lat="42.272268533706665" lon="2.159489393234253">
        <ele>850.8657002834902</ele>
        <time>2021-07-20T15:53:46.025Z</time>
      </trkpt>
      <trkpt lat="42.27282643318176" lon="2.159210443496704">
        <ele>851.2661829667808</ele>
        <time>2021-07-20T15:54:01.736Z</time>
      </trkpt>
      <trkpt lat="42.27318048477173" lon="2.1590816974639893">
        <ele>851.8308513995764</ele>
        <time>2021-07-20T15:54:17.453Z</time>
      </trkpt>
      <trkpt lat="42.273287773132324" lon="2.15906023979187">
        <ele>852.3372469633888</ele>
        <time>2021-07-20T15:54:33.172Z</time>
      </trkpt>
      <trkpt lat="42.27341660298407" lon="2.1590709686279297">
        <ele>852.9184425050408</ele>
        <time>2021-07-20T15:54:48.893Z</time>
      </trkpt>
      <trkpt lat="42.27364182472229" lon="2.1591246128082275">
        <ele>853.5530029588101</ele>
        <time>2021-07-20T15:55:04.617Z</time>
      </trkpt>
      <trkpt lat="42.27397441864014" lon="2.1592962741851807">
        <ele>854.174373537976</ele>
        <time>2021-07-20T15:55:20.347Z</time>
      </trkpt>
      <trkpt lat="42.274521589279175" lon="2.159736156463623">
        <ele>854.4232158214289</ele>
        <time>2021-07-20T15:55:36.087Z</time>
      </trkpt>
      <trkpt lat="42.27459669113159" lon="2.1598005294799805">
        <ele>854.9339875492336</ele>
        <time>2021-07-20T15:55:51.829Z</time>
      </trkpt>
      <trkpt lat="42.274746894836426" lon="2.159864902496338">
        <ele>855.5459309194918</ele>
        <time>2021-07-20T15:56:07.573Z</time>
      </trkpt>
      <trkpt lat="42.27487564086914" lon="2.159907817840576">
        <ele>856.2424573128444</ele>
        <time>2021-07-20T15:56:23.319Z</time>
      </trkpt>
      <trkpt lat="42.27543354034424" lon="2.159982919692993">
        <ele>857.0030743170936</ele>
        <time>2021-07-20T15:56:39.074Z</time>
      </trkpt>
      <trkpt lat="42.27564811706543" lon="2.1600043773651123">
        <ele>857.836571196364</ele>
        <time>2021-07-20T15:56:54.833Z</time>
      </trkpt>
      <trkpt lat="42.275798404589295" lon="2.159982919692993">
        <ele>858.7686359000916</ele>
        <time>2021-07-20T15:57:10.594Z</time>
      </trkpt>
      <trkpt lat="42.276270389556885" lon="2.159832715988159">
        <ele>859.7419428408833</ele>
        <time>2021-07-20T15:57:26.363Z</time>
      </trkpt>
      <trkpt lat="42.27692484855652" lon="2.1596288681030273">
        <ele>860.8917609273175</ele>
        <time>2021-07-20T15:57:42.143Z</time>
      </trkpt>
      <trkpt lat="42.27734327316284" lon="2.159543037414551">
        <ele>862.1528943228765</ele>
        <time>2021-07-20T15:57:57.930Z</time>
      </trkpt>
      <trkpt lat="42.27783679962158" lon="2.159543037414551">
        <ele>863.563423163437</ele>
        <time>2021-07-20T15:58:13.724Z</time>
      </trkpt>
      <trkpt lat="42.27834105491638" lon="2.159607410430908">
        <ele>864.9909221325432</ele>
        <time>2021-07-20T15:58:29.527Z</time>
      </trkpt>
      <trkpt lat="42.27910288609564" lon="2.1597683429718018">
        <ele>866.1900763585235</ele>
        <time>2021-07-20T15:58:45.342Z</time>
      </trkpt>
      <trkpt lat="42.27910280227661" lon="2.1597683429718018">
        <ele>867.4899113252244</ele>
        <time>2021-07-20T15:59:01.157Z</time>
      </trkpt>
      <trkpt lat="42.27939248085022" lon="2.15981125831604">
        <ele>868.8532242181806</ele>
        <time>2021-07-20T15:59:16.977Z</time>
      </trkpt>
      <trkpt lat="42.279531955718994" lon="2.159789800643921">
        <ele>870.2748888875369</ele>
        <time>2021-07-20T15:59:32.799Z</time>
      </trkpt>
      <trkpt lat="42.280229330062866" lon="2.1594786643981934">
        <ele>872.2424014732536</ele>
        <time>2021-07-20T15:59:48.633Z</time>
      </trkpt>
      <trkpt lat="42.28091605938971" lon="2.1592211723327637">
        <ele>873.7273995236019</ele>
        <time>2021-07-20T16:00:04.478Z</time>
      </trkpt>
      <trkpt lat="42.28111982345581" lon="2.1591997146606445">
        <ele>874.9795060455375</ele>
        <time>2021-07-20T16:00:20.326Z</time>
      </trkpt>
      <trkpt lat="42.281227111816406" lon="2.1591997146606445">
        <ele>876.1435005306515</ele>
        <time>2021-07-20T16:00:36.176Z</time>
      </trkpt>
      <trkpt lat="42.28146314620972" lon="2.159242630004883">
        <ele>877.2424068831467</ele>
        <time>2021-07-20T16:00:52.030Z</time>
      </trkpt>
      <trkpt lat="42.28166707791388" lon="2.1593284606933594">
        <ele>878.2315381283531</ele>
        <time>2021-07-20T16:01:07.887Z</time>
      </trkpt>
      <trkpt lat="42.28199967183173" lon="2.159457206726074">
        <ele>879.071180423769</ele>
        <time>2021-07-20T16:01:23.750Z</time>
      </trkpt>
      <trkpt lat="42.28214979171753" lon="2.159489393234253">
        <ele>879.9094709608828</ele>
        <time>2021-07-20T16:01:39.615Z</time>
      </trkpt>
      <trkpt lat="42.282278537750244" lon="2.1595001220703125">
        <ele>880.7040176323395</ele>
        <time>2021-07-20T16:01:55.482Z</time>
      </trkpt>
      <trkpt lat="42.28299745358527" lon="2.159392833709717">
        <ele>881.5678328428783</ele>
        <time>2021-07-20T16:02:11.361Z</time>
      </trkpt>
      <trkpt lat="42.282997369766235" lon="2.159392833709717">
        <ele>882.2728769343719</ele>
        <time>2021-07-20T16:02:27.240Z</time>
      </trkpt>
      <trkpt lat="42.28331923484802" lon="2.1593070030212402">
        <ele>882.8453217583706</ele>
        <time>2021-07-20T16:02:43.124Z</time>
      </trkpt>
      <trkpt lat="42.28343725204468" lon="2.1592533588409424">
        <ele>883.479831024188</ele>
        <time>2021-07-20T16:02:59.010Z</time>
      </trkpt>
      <trkpt lat="42.28358745574951" lon="2.1591782569885254">
        <ele>883.9589724247248</ele>
        <time>2021-07-20T16:03:14.899Z</time>
      </trkpt>
      <trkpt lat="42.28395223617554" lon="2.158910036087036">
        <ele>884.910640313356</ele>
        <time>2021-07-20T16:03:30.794Z</time>
      </trkpt>
      <trkpt lat="42.28409171104431" lon="2.158834934234619">
        <ele>885.4052681380699</ele>
        <time>2021-07-20T16:03:46.692Z</time>
      </trkpt>
      <trkpt lat="42.28418827056885" lon="2.1588027477264404">
        <ele>885.7456497187814</ele>
        <time>2021-07-20T16:04:02.591Z</time>
      </trkpt>
      <trkpt lat="42.28436001576483" lon="2.158792018890381">
        <ele>886.0183435224026</ele>
        <time>2021-07-20T16:04:18.493Z</time>
      </trkpt>
      <trkpt lat="42.284477949142456" lon="2.1588242053985596">
        <ele>886.0913923841151</ele>
        <time>2021-07-20T16:04:34.397Z</time>
      </trkpt>
      <trkpt lat="42.28464961051941" lon="2.1589207649230957">
        <ele>885.9964840306288</ele>
        <time>2021-07-20T16:04:50.304Z</time>
      </trkpt>
      <trkpt lat="42.28535771369934" lon="2.159585952758789">
        <ele>885.4138797904798</ele>
        <time>2021-07-20T16:05:06.225Z</time>
      </trkpt>
      <trkpt lat="42.28584051132202" lon="2.160015106201172">
        <ele>885.26754157285</ele>
        <time>2021-07-20T16:05:22.155Z</time>
      </trkpt>
      <trkpt lat="42.28614091873169" lon="2.160240411758423">
        <ele>885.4344488424083</ele>
        <time>2021-07-20T16:05:38.090Z</time>
      </trkpt>
      <trkpt lat="42.28641995228827" lon="2.1603798866271973">
        <ele>885.7265613060653</ele>
        <time>2021-07-20T16:05:54.030Z</time>
      </trkpt>
      <trkpt lat="42.28658080101013" lon="2.1604442596435547">
        <ele>886.0229271934164</ele>
        <time>2021-07-20T16:06:09.973Z</time>
      </trkpt>
      <trkpt lat="42.28683829307556" lon="2.160487174987793">
        <ele>886.2765079981864</ele>
        <time>2021-07-20T16:06:25.920Z</time>
      </trkpt>
      <trkpt lat="42.28709578514099" lon="2.1604764461517334">
        <ele>886.5957584935886</ele>
        <time>2021-07-20T16:06:41.871Z</time>
      </trkpt>
      <trkpt lat="42.28720315732062" lon="2.1604549884796143">
        <ele>886.9913252291478</ele>
        <time>2021-07-20T16:06:57.824Z</time>
      </trkpt>
      <trkpt lat="42.28737481869757" lon="2.1604228019714355">
        <ele>887.4403457582331</ele>
        <time>2021-07-20T16:07:13.780Z</time>
      </trkpt>
      <trkpt lat="42.287793243303895" lon="2.1602940559387207">
        <ele>888.1566449596301</ele>
        <time>2021-07-20T16:07:29.742Z</time>
      </trkpt>
      <trkpt lat="42.288511991500854" lon="2.1600687503814697">
        <ele>889.0245685927571</ele>
        <time>2021-07-20T16:07:45.716Z</time>
      </trkpt>
      <trkpt lat="42.28868365287781" lon="2.160036563873291">
        <ele>889.6945862840131</ele>
        <time>2021-07-20T16:08:01.693Z</time>
      </trkpt>
      <trkpt lat="42.28890895843506" lon="2.160036563873291">
        <ele>890.4262267763074</ele>
        <time>2021-07-20T16:08:17.674Z</time>
      </trkpt>
      <trkpt lat="42.28912353515625" lon="2.160111665725708">
        <ele>891.1653633139238</ele>
        <time>2021-07-20T16:08:33.658Z</time>
      </trkpt>
      <trkpt lat="42.289477586746216" lon="2.1602725982666016">
        <ele>891.6347914822212</ele>
        <time>2021-07-20T16:08:49.648Z</time>
      </trkpt>
      <trkpt lat="42.28984236717224" lon="2.1604979038238525">
        <ele>892.3412149493703</ele>
        <time>2021-07-20T16:09:05.645Z</time>
      </trkpt>
      <trkpt lat="42.29012131690979" lon="2.1607017517089844">
        <ele>892.895496491986</ele>
        <time>2021-07-20T16:09:21.647Z</time>
      </trkpt>
      <trkpt lat="42.290217876434326" lon="2.1607446670532227">
        <ele>893.6498684292012</ele>
        <time>2021-07-20T16:09:37.650Z</time>
      </trkpt>
      <trkpt lat="42.29047545231879" lon="2.160787582397461">
        <ele>894.4889250180929</ele>
        <time>2021-07-20T16:09:53.657Z</time>
      </trkpt>
      <trkpt lat="42.290475368499756" lon="2.160787582397461">
        <ele>895.395226267447</ele>
        <time>2021-07-20T16:10:09.664Z</time>
      </trkpt>
      <trkpt lat="42.29116201400757" lon="2.1608519554138184">
        <ele>896.4693337780558</ele>
        <time>2021-07-20T16:10:25.682Z</time>
      </trkpt>
      <trkpt lat="42.29140877723694" lon="2.1608519554138184">
        <ele>897.4881582934863</ele>
        <time>2021-07-20T16:10:41.704Z</time>
      </trkpt>
      <trkpt lat="42.29160198010504" lon="2.16080904006958">
        <ele>898.496566297531</ele>
        <time>2021-07-20T16:10:57.730Z</time>
      </trkpt>
      <trkpt lat="42.29184865951538" lon="2.160712480545044">
        <ele>899.6718424987223</ele>
        <time>2021-07-20T16:11:13.760Z</time>
      </trkpt>
      <trkpt lat="42.29199894703925" lon="2.1606802940368652">
        <ele>900.6033977777471</ele>
        <time>2021-07-20T16:11:29.792Z</time>
      </trkpt>
      <trkpt lat="42.291998863220215" lon="2.1606802940368652">
        <ele>901.289910194879</ele>
        <time>2021-07-20T16:11:45.824Z</time>
      </trkpt>
      <trkpt lat="42.29215979576111" lon="2.1606695652008057">
        <ele>902.0333591082812</ele>
        <time>2021-07-20T16:12:01.859Z</time>
      </trkpt>
      <trkpt lat="42.29230999946594" lon="2.1607017517089844">
        <ele>902.5742939920913</ele>
        <time>2021-07-20T16:12:17.896Z</time>
      </trkpt>
      <trkpt lat="42.29243874549866" lon="2.1607446670532227">
        <ele>903.0000961034053</ele>
        <time>2021-07-20T16:12:33.935Z</time>
      </trkpt>
      <trkpt lat="42.292771339416504" lon="2.1609270572662354">
        <ele>903.5801580558184</ele>
        <time>2021-07-20T16:12:49.980Z</time>
      </trkpt>
      <trkpt lat="42.29291081428528" lon="2.1610236167907715">
        <ele>903.8852145744476</ele>
        <time>2021-07-20T16:13:06.027Z</time>
      </trkpt>
      <trkpt lat="42.29315757751465" lon="2.1612489223480225">
        <ele>904.0452686463484</ele>
        <time>2021-07-20T16:13:22.079Z</time>
      </trkpt>
      <trkpt lat="42.29331851005554" lon="2.161409854888916">
        <ele>904.0739719991977</ele>
        <time>2021-07-20T16:13:38.134Z</time>
      </trkpt>
      <trkpt lat="42.29358673095703" lon="2.1617746353149414">
        <ele>903.8077972670251</ele>
        <time>2021-07-20T16:13:54.196Z</time>
      </trkpt>
      <trkpt lat="42.29381203651428" lon="2.162139415740967">
        <ele>903.4686141314025</ele>
        <time>2021-07-20T16:14:10.263Z</time>
      </trkpt>
      <trkpt lat="42.29395151138306" lon="2.162429094314575">
        <ele>903.4903743022895</ele>
        <time>2021-07-20T16:14:26.334Z</time>
      </trkpt>
      <trkpt lat="42.29408025741577" lon="2.16280460357666">
        <ele>903.411135840209</ele>
        <time>2021-07-20T16:14:42.410Z</time>
      </trkpt>
      <trkpt lat="42.2943377494812" lon="2.163662910461426">
        <ele>903.5161299470833</ele>
        <time>2021-07-20T16:14:58.497Z</time>
      </trkpt>
      <trkpt lat="42.29458451271057" lon="2.1642422676086426">
        <ele>903.6302034608395</ele>
        <time>2021-07-20T16:15:14.592Z</time>
      </trkpt>
      <trkpt lat="42.294756174087524" lon="2.164531946182251">
        <ele>903.5262857995816</ele>
        <time>2021-07-20T16:15:30.692Z</time>
      </trkpt>
      <trkpt lat="42.294970750808716" lon="2.1646928787231445">
        <ele>903.6336905525859</ele>
        <time>2021-07-20T16:15:46.795Z</time>
      </trkpt>
      <trkpt lat="42.29513168334961" lon="2.1647679805755615">
        <ele>903.9344640754944</ele>
        <time>2021-07-20T16:16:02.901Z</time>
      </trkpt>
      <trkpt lat="42.29641922749579" lon="2.1651649475097656">
        <ele>904.553888310516</ele>
        <time>2021-07-20T16:16:19.028Z</time>
      </trkpt>
      <trkpt lat="42.296708822250366" lon="2.1652400493621826">
        <ele>904.7549203191991</ele>
        <time>2021-07-20T16:16:35.160Z</time>
      </trkpt>
      <trkpt lat="42.29816794395447" lon="2.1654438972473145">
        <ele>905.1510004173783</ele>
        <time>2021-07-20T16:16:51.315Z</time>
      </trkpt>
      <trkpt lat="42.29837187565863" lon="2.1654975414276123">
        <ele>905.3309163441277</ele>
        <time>2021-07-20T16:17:07.474Z</time>
      </trkpt>
      <trkpt lat="42.2983717918396" lon="2.1654975414276123">
        <ele>905.5949200397972</ele>
        <time>2021-07-20T16:17:23.633Z</time>
      </trkpt>
      <trkpt lat="42.298521995544434" lon="2.1655726432800293">
        <ele>905.8799282315155</ele>
        <time>2021-07-20T16:17:39.794Z</time>
      </trkpt>
      <trkpt lat="42.299262285232544" lon="2.1661627292633057">
        <ele>906.1282101790362</ele>
        <time>2021-07-20T16:17:55.969Z</time>
      </trkpt>
      <trkpt lat="42.2993803024292" lon="2.166227102279663">
        <ele>906.7508469728473</ele>
        <time>2021-07-20T16:18:12.146Z</time>
      </trkpt>
      <trkpt lat="42.300517642870545" lon="2.1665704250335693">
        <ele>907.632636493988</ele>
        <time>2021-07-20T16:18:28.342Z</time>
      </trkpt>
      <trkpt lat="42.30092525482178" lon="2.1667206287384033">
        <ele>908.2901339044131</ele>
        <time>2021-07-20T16:18:44.545Z</time>
      </trkpt>
      <trkpt lat="42.30106481350958" lon="2.1667957305908203">
        <ele>909.0296625214095</ele>
        <time>2021-07-20T16:19:00.750Z</time>
      </trkpt>
      <trkpt lat="42.30146178044379" lon="2.1669352054595947">
        <ele>909.8746011864075</ele>
        <time>2021-07-20T16:19:16.962Z</time>
      </trkpt>
      <trkpt lat="42.301461696624756" lon="2.1669352054595947">
        <ele>910.7666172672967</ele>
        <time>2021-07-20T16:19:33.174Z</time>
      </trkpt>
      <trkpt lat="42.30162271298468" lon="2.166903018951416">
        <ele>911.7636187874004</ele>
        <time>2021-07-20T16:19:49.388Z</time>
      </trkpt>
      <trkpt lat="42.301751375198364" lon="2.1668601036071777">
        <ele>912.803399497112</ele>
        <time>2021-07-20T16:20:05.604Z</time>
      </trkpt>
      <trkpt lat="42.30268478393555" lon="2.1664416790008545">
        <ele>914.2725278778298</ele>
        <time>2021-07-20T16:20:21.836Z</time>
      </trkpt>
      <trkpt lat="42.30296381749213" lon="2.1664845943450928">
        <ele>915.0576774162955</ele>
        <time>2021-07-20T16:20:38.072Z</time>
      </trkpt>
      <trkpt lat="42.304755449295044" lon="2.1669673919677734">
        <ele>916.0893216560812</ele>
        <time>2021-07-20T16:20:54.338Z</time>
      </trkpt>
      <trkpt lat="42.30484127998352" lon="2.1669888496398926">
        <ele>916.8067669334033</ele>
        <time>2021-07-20T16:21:10.605Z</time>
      </trkpt>
      <trkpt lat="42.305238246917725" lon="2.1669888496398926">
        <ele>917.5915108125517</ele>
        <time>2021-07-20T16:21:26.878Z</time>
      </trkpt>
      <trkpt lat="42.3054313659668" lon="2.166978120803833">
        <ele>918.1271185943949</ele>
        <time>2021-07-20T16:21:43.155Z</time>
      </trkpt>
      <trkpt lat="42.305764043703675" lon="2.1669137477874756">
        <ele>918.482595195434</ele>
        <time>2021-07-20T16:21:59.437Z</time>
      </trkpt>
      <trkpt lat="42.30590343475342" lon="2.166903018951416">
        <ele>919.1859226882616</ele>
        <time>2021-07-20T16:22:15.721Z</time>
      </trkpt>
      <trkpt lat="42.30592489242554" lon="2.16705322265625">
        <ele>919.5674520535879</ele>
        <time>2021-07-20T16:22:32.007Z</time>
      </trkpt>
      <trkpt lat="42.305978536605835" lon="2.167106866836548">
        <ele>919.9706713555852</ele>
        <time>2021-07-20T16:22:48.294Z</time>
      </trkpt>
      <trkpt lat="42.30603218078613" lon="2.1673429012298584">
        <ele>920.1860689864525</ele>
        <time>2021-07-20T16:23:04.584Z</time>
      </trkpt>
      <trkpt lat="42.30603218078613" lon="2.1675360202789307">
        <ele>920.2407644432687</ele>
        <time>2021-07-20T16:23:20.876Z</time>
      </trkpt>
      <trkpt lat="42.30603218078613" lon="2.167707681655884">
        <ele>920.3126894970003</ele>
        <time>2021-07-20T16:23:37.170Z</time>
      </trkpt>
      <trkpt lat="42.306032264605165" lon="2.167707681655884">
        <ele>920.4793663594187</ele>
        <time>2021-07-20T16:23:53.464Z</time>
      </trkpt>
      <trkpt lat="42.30603218078613" lon="2.1677398681640625">
        <ele>920.5968058802603</ele>
        <time>2021-07-20T16:24:09.759Z</time>
      </trkpt>
      <trkpt lat="42.306042993441224" lon="2.1680402755737305">
        <ele>920.6658238167586</ele>
        <time>2021-07-20T16:24:26.057Z</time>
      </trkpt>
      <trkpt lat="42.30604290962219" lon="2.1681582927703857">
        <ele>920.7028143721204</ele>
        <time>2021-07-20T16:24:42.357Z</time>
      </trkpt>
      <trkpt lat="42.30608582496643" lon="2.168351411819458">
        <ele>920.7115991740102</ele>
        <time>2021-07-20T16:24:58.659Z</time>
      </trkpt>
      <trkpt lat="42.30622538365424" lon="2.1686089038848877">
        <ele>920.6912606624232</ele>
        <time>2021-07-20T16:25:14.965Z</time>
      </trkpt>
      <trkpt lat="42.30635412968695" lon="2.1688878536224365">
        <ele>920.661654889901</ele>
        <time>2021-07-20T16:25:31.275Z</time>
      </trkpt>
      <trkpt lat="42.30637550354004" lon="2.168952226638794">
        <ele>920.5749314335578</ele>
        <time>2021-07-20T16:25:47.586Z</time>
      </trkpt>
      <trkpt lat="42.306203842163086" lon="2.169080972671509">
        <ele>920.38352530321</ele>
        <time>2021-07-20T16:26:03.900Z</time>
      </trkpt>
      <trkpt lat="42.30609663762152" lon="2.1691882610321045">
        <ele>920.1852527409421</ele>
        <time>2021-07-20T16:26:20.216Z</time>
      </trkpt>
      <trkpt lat="42.30606445111334" lon="2.169220447540283">
        <ele>920.0116205878647</ele>
        <time>2021-07-20T16:26:36.532Z</time>
      </trkpt>
      <trkpt lat="42.305999994277954" lon="2.169274091720581">
        <ele>919.8296185707766</ele>
        <time>2021-07-20T16:26:52.850Z</time>
      </trkpt>
      <trkpt lat="42.30603218078613" lon="2.1676271315664053">
        <ele>916.8512016705081</ele>
        <time>2021-07-14T19:23:43.000Z</time>
      </trkpt>
      <trkpt lat="42.306032264605165" lon="2.167707681655884">
        <ele>916.5015880964771</ele>
        <time>2021-07-14T19:23:43.001Z</time>
      </trkpt>
      <trkpt lat="42.30603218078613" lon="2.1677398681640625">
        <ele>916.1576712805459</ele>
        <time>2021-07-14T19:23:43.002Z</time>
      </trkpt>
      <trkpt lat="42.306042993441224" lon="2.1680402755737305">
        <ele>915.7989408673416</ele>
        <time>2021-07-14T19:23:43.007Z</time>
      </trkpt>
      <trkpt lat="42.30604290962219" lon="2.1681582927703857">
        <ele>915.4386216402347</ele>
        <time>2021-07-14T19:23:43.013Z</time>
      </trkpt>
      <trkpt lat="42.30608582496643" lon="2.168351411819458">
        <ele>915.0860630213347</ele>
        <time>2021-07-14T19:23:43.022Z</time>
      </trkpt>
      <trkpt lat="42.30622538365424" lon="2.1686089038848877">
        <ele>914.7463558130596</ele>
        <time>2021-07-14T19:23:43.034Z</time>
      </trkpt>
      <trkpt lat="42.30635412968695" lon="2.1688878536224365">
        <ele>914.4615649529413</ele>
        <time>2021-07-14T19:23:43.050Z</time>
      </trkpt>
      <trkpt lat="42.30637550354004" lon="2.168952226638794">
        <ele>914.2216526017032</ele>
        <time>2021-07-14T19:23:43.067Z</time>
      </trkpt>
      <trkpt lat="42.306203842163086" lon="2.169080972671509">
        <ele>913.9556871638147</ele>
        <time>2021-07-14T19:23:43.087Z</time>
      </trkpt>
      <trkpt lat="42.30609663762152" lon="2.1691882610321045">
        <ele>913.6945653567057</ele>
        <time>2021-07-14T19:23:43.110Z</time>
      </trkpt>
      <trkpt lat="42.30606445111334" lon="2.169220447540283">
        <ele>913.4699985584889</ele>
        <time>2021-07-14T19:23:43.133Z</time>
      </trkpt>
      <trkpt lat="42.305999994277954" lon="2.169274091720581">
        <ele>913.2616923428734</ele>
        <time>2021-07-14T19:23:43.157Z</time>
      </trkpt>
      <trkpt lat="42.30567812919617" lon="2.168630361557007">
        <ele>912.9196347188495</ele>
        <time>2021-07-14T19:23:43.191Z</time>
      </trkpt>
      <trkpt lat="42.30540990829468" lon="2.1682870388031006">
        <ele>912.7348159230646</ele>
        <time>2021-07-14T19:23:43.230Z</time>
      </trkpt>
      <trkpt lat="42.30507731437683" lon="2.167954444885254">
        <ele>912.5121072222952</ele>
        <time>2021-07-14T19:23:43.276Z</time>
      </trkpt>
      <trkpt lat="42.30462670326233" lon="2.1676862239837646">
        <ele>912.338466277612</ele>
        <time>2021-07-14T19:23:43.330Z</time>
      </trkpt>
      <trkpt lat="42.30439066886902" lon="2.1675467491149902">
        <ele>912.2396189698625</ele>
        <time>2021-07-14T19:23:43.388Z</time>
      </trkpt>
      <trkpt lat="42.30315685272217" lon="2.16705322265625">
        <ele>912.0220652394423</ele>
        <time>2021-07-14T19:23:43.467Z</time>
      </trkpt>
      <trkpt lat="42.30287798680365" lon="2.1668922901153564">
        <ele>911.9866525592677</ele>
        <time>2021-07-14T19:23:43.551Z</time>
      </trkpt>
      <trkpt lat="42.30288863182068" lon="2.166827917098999">
        <ele>912.1101517540399</ele>
        <time>2021-07-14T19:23:43.635Z</time>
      </trkpt>
      <trkpt lat="42.30289936065674" lon="2.1667957305908203">
        <ele>912.3508695848914</ele>
        <time>2021-07-14T19:23:43.720Z</time>
      </trkpt>
      <trkpt lat="42.30289944447577" lon="2.1667957305908203">
        <ele>912.7007171128873</ele>
        <time>2021-07-14T19:23:43.805Z</time>
      </trkpt>
      <trkpt lat="42.30295308865607" lon="2.16654896736145">
        <ele>913.418811281334</ele>
        <time>2021-07-14T19:23:43.893Z</time>
      </trkpt>
      <trkpt lat="42.30295308865607" lon="2.166527509689331">
        <ele>914.1571357167502</ele>
        <time>2021-07-14T19:23:43.981Z</time>
      </trkpt>
      <trkpt lat="42.30296381749213" lon="2.1664845943450928">
        <ele>915.0785673382334</ele>
        <time>2021-07-14T19:23:44.070Z</time>
      </trkpt>
      <trkpt lat="42.304755449295044" lon="2.1669673919677734">
        <ele>916.2402761113647</ele>
        <time>2021-07-14T19:23:44.188Z</time>
      </trkpt>
      <trkpt lat="42.30484127998352" lon="2.1669888496398926">
        <ele>917.3018263116555</ele>
        <time>2021-07-14T19:23:44.307Z</time>
      </trkpt>
      <trkpt lat="42.305238246917725" lon="2.1669888496398926">
        <ele>918.544606110848</ele>
        <time>2021-07-14T19:23:44.433Z</time>
      </trkpt>
      <trkpt lat="42.3054313659668" lon="2.166978120803833">
        <ele>919.6929208423599</ele>
        <time>2021-07-14T19:23:44.562Z</time>
      </trkpt>
      <trkpt lat="42.305764043703675" lon="2.1669137477874756">
        <ele>920.6522752390933</ele>
        <time>2021-07-14T19:23:44.696Z</time>
      </trkpt>
      <trkpt lat="42.30590343475342" lon="2.166903018951416">
        <ele>921.9282317761357</ele>
        <time>2021-07-14T19:23:44.832Z</time>
      </trkpt>
      <trkpt lat="42.30613955296576" lon="2.1668601036071777">
        <ele>923.4562215257572</ele>
        <time>2021-07-14T19:23:44.972Z</time>
      </trkpt>
      <trkpt lat="42.30613946914673" lon="2.1668601036071777">
        <ele>924.7420964391372</ele>
        <time>2021-07-14T19:23:45.112Z</time>
      </trkpt>
      <trkpt lat="42.30631113052368" lon="2.1668171882629395">
        <ele>926.064998674664</ele>
        <time>2021-07-14T19:23:45.255Z</time>
      </trkpt>
      <trkpt lat="42.30639696121216" lon="2.1667420864105225">
        <ele>927.2992544691114</ele>
        <time>2021-07-14T19:23:45.400Z</time>
      </trkpt>
      <trkpt lat="42.307545030489564" lon="2.16505765914917">
        <ele>928.6430666358365</ele>
        <time>2021-07-14T19:23:45.572Z</time>
      </trkpt>
      <trkpt lat="42.30754494667053" lon="2.16505765914917">
        <ele>929.8650748697142</ele>
        <time>2021-07-14T19:23:45.744Z</time>
      </trkpt>
      <trkpt lat="42.30795272625983" lon="2.1644675731658936">
        <ele>932.081744549455</ele>
        <time>2021-07-14T19:23:45.925Z</time>
      </trkpt>
      <trkpt lat="42.308038556948304" lon="2.1643388271331787">
        <ele>933.4380936484774</ele>
        <time>2021-07-14T19:23:46.108Z</time>
      </trkpt>
      <trkpt lat="42.30803847312927" lon="2.1643388271331787">
        <ele>934.7942588574908</ele>
        <time>2021-07-14T19:23:46.291Z</time>
      </trkpt>
      <trkpt lat="42.308188676834106" lon="2.1640491485595703">
        <ele>935.9264837443037</ele>
        <time>2021-07-14T19:23:46.478Z</time>
      </trkpt>
      <trkpt lat="42.308510625734925" lon="2.162729501724243">
        <ele>936.7522178689374</ele>
        <time>2021-07-14T19:23:46.682Z</time>
      </trkpt>
      <trkpt lat="42.30859637260437" lon="2.1623969078063965">
        <ele>937.7984595331042</ele>
        <time>2021-07-14T19:23:46.890Z</time>
      </trkpt>
      <trkpt lat="42.30867147445679" lon="2.161989212036133">
        <ele>938.9521596701393</ele>
        <time>2021-07-14T19:23:47.103Z</time>
      </trkpt>
      <trkpt lat="42.308714389801025" lon="2.1618282794952393">
        <ele>939.8871901551274</ele>
        <time>2021-07-14T19:23:47.318Z</time>
      </trkpt>
      <trkpt lat="42.3089075088501" lon="2.1612918376922607">
        <ele>941.0825138072216</ele>
        <time>2021-07-14T19:23:47.540Z</time>
      </trkpt>
      <trkpt lat="42.308939695358276" lon="2.161206007003784">
        <ele>942.0581788822853</ele>
        <time>2021-07-14T19:23:47.763Z</time>
      </trkpt>
      <trkpt lat="42.30915427207947" lon="2.160916328430176">
        <ele>943.1377409540238</ele>
        <time>2021-07-14T19:23:47.991Z</time>
      </trkpt>
      <trkpt lat="42.30918645858765" lon="2.160830497741699">
        <ele>944.1451491421208</ele>
        <time>2021-07-14T19:23:48.220Z</time>
      </trkpt>
      <trkpt lat="42.309207916259766" lon="2.1606266498565674">
        <ele>945.247960870507</ele>
        <time>2021-07-14T19:23:48.452Z</time>
      </trkpt>
      <trkpt lat="42.30917572975159" lon="2.1604549884796143">
        <ele>946.1867558650622</ele>
        <time>2021-07-14T19:23:48.686Z</time>
      </trkpt>
      <trkpt lat="42.30914354324341" lon="2.1602725982666016">
        <ele>947.1033724635184</ele>
        <time>2021-07-14T19:23:48.922Z</time>
      </trkpt>
      <trkpt lat="42.30903625488281" lon="2.159907817840576">
        <ele>948.0382697704771</ele>
        <time>2021-07-14T19:23:49.163Z</time>
      </trkpt>
      <trkpt lat="42.309004068374634" lon="2.159714698791504">
        <ele>948.9343600787769</ele>
        <time>2021-07-14T19:23:49.406Z</time>
      </trkpt>
      <trkpt lat="42.309004068374634" lon="2.1593821048736572">
        <ele>949.7224019907752</ele>
        <time>2021-07-14T19:23:49.653Z</time>
      </trkpt>
      <trkpt lat="42.30911135673523" lon="2.1591567993164062">
        <ele>950.5557495583555</ele>
        <time>2021-07-14T19:23:49.903Z</time>
      </trkpt>
      <trkpt lat="42.30931528843939" lon="2.158910036087036">
        <ele>951.9286087574293</ele>
        <time>2021-07-14T19:23:50.158Z</time>
      </trkpt>
      <trkpt lat="42.30931520462036" lon="2.158910036087036">
        <ele>952.951800358551</ele>
        <time>2021-07-14T19:23:50.413Z</time>
      </trkpt>
      <trkpt lat="42.3094117641449" lon="2.1586740016937256">
        <ele>954.1840092272571</ele>
        <time>2021-07-14T19:23:50.671Z</time>
      </trkpt>
      <trkpt lat="42.309476137161255" lon="2.158234119415283">
        <ele>955.290546250192</ele>
        <time>2021-07-14T19:23:50.934Z</time>
      </trkpt>
      <trkpt lat="42.30955123901367" lon="2.157890796661377">
        <ele>956.6606345673491</ele>
        <time>2021-07-14T19:23:51.201Z</time>
      </trkpt>
      <trkpt lat="42.30962634086609" lon="2.1572470664978027">
        <ele>957.828974728536</ele>
        <time>2021-07-14T19:23:51.476Z</time>
      </trkpt>
      <trkpt lat="42.31014132499695" lon="2.1546292304992676">
        <ele>959.2753887416277</ele>
        <time>2021-07-14T19:23:51.783Z</time>
      </trkpt>
      <trkpt lat="42.310194969177246" lon="2.1542751789093018">
        <ele>960.7455396801379</ele>
        <time>2021-07-14T19:23:52.095Z</time>
      </trkpt>
      <trkpt lat="42.31017351150513" lon="2.1540820598602295">
        <ele>961.9940951418318</ele>
        <time>2021-07-14T19:23:52.409Z</time>
      </trkpt>
      <trkpt lat="42.31013059616089" lon="2.153899669647217">
        <ele>963.2369381195713</ele>
        <time>2021-07-14T19:23:52.725Z</time>
      </trkpt>
      <trkpt lat="42.3098623752594" lon="2.1530628204345703">
        <ele>964.355737211271</ele>
        <time>2021-07-14T19:23:53.052Z</time>
      </trkpt>
      <trkpt lat="42.30983018875122" lon="2.152923345565796">
        <ele>965.5765201935465</ele>
        <time>2021-07-14T19:23:53.381Z</time>
      </trkpt>
      <trkpt lat="42.30981945991516" lon="2.152773141860962">
        <ele>966.802691738523</ele>
        <time>2021-07-14T19:23:53.712Z</time>
      </trkpt>
      <trkpt lat="42.30985164642334" lon="2.1525371074676514">
        <ele>968.0404599195148</ele>
        <time>2021-07-14T19:23:54.045Z</time>
      </trkpt>
      <trkpt lat="42.30990529060364" lon="2.15232253074646">
        <ele>969.279480667735</ele>
        <time>2021-07-14T19:23:54.381Z</time>
      </trkpt>
      <trkpt lat="42.309948205947876" lon="2.152172327041626">
        <ele>970.4471789376555</ele>
        <time>2021-07-14T19:23:54.719Z</time>
      </trkpt>
      <trkpt lat="42.31001257896423" lon="2.15207576751709">
        <ele>971.7506702772887</ele>
        <time>2021-07-14T19:23:55.059Z</time>
      </trkpt>
      <trkpt lat="42.31009840965271" lon="2.1519899368286133">
        <ele>973.1935918389651</ele>
        <time>2021-07-14T19:23:55.400Z</time>
      </trkpt>
      <trkpt lat="42.310452461242676" lon="2.151796817779541">
        <ele>974.8369652558108</ele>
        <time>2021-07-14T19:23:55.747Z</time>
      </trkpt>
      <trkpt lat="42.31062412261963" lon="2.1517324447631836">
        <ele>976.3056708060162</ele>
        <time>2021-07-14T19:23:56.097Z</time>
      </trkpt>
      <trkpt lat="42.31105327606201" lon="2.151700258255005">
        <ele>978.2433798983664</ele>
        <time>2021-07-14T19:23:56.454Z</time>
      </trkpt>
      <trkpt lat="42.311224937438965" lon="2.151700258255005">
        <ele>980.0375636717379</ele>
        <time>2021-07-14T19:23:56.814Z</time>
      </trkpt>
      <trkpt lat="42.31135368347168" lon="2.1516788005828857">
        <ele>981.7713603256221</ele>
        <time>2021-07-14T19:23:57.176Z</time>
      </trkpt>
      <trkpt lat="42.31141805648804" lon="2.1516358852386475">
        <ele>983.3898359670895</ele>
        <time>2021-07-14T19:23:57.539Z</time>
      </trkpt>
      <trkpt lat="42.311471700668335" lon="2.1515607833862305">
        <ele>984.9823349090733</ele>
        <time>2021-07-14T19:23:57.903Z</time>
      </trkpt>
      <trkpt lat="42.31152534484863" lon="2.1514105796813965">
        <ele>986.5447765117956</ele>
        <time>2021-07-14T19:23:58.269Z</time>
      </trkpt>
      <trkpt lat="42.31161125935614" lon="2.150702476501465">
        <ele>987.78107733866</ele>
        <time>2021-07-14T19:23:58.644Z</time>
      </trkpt>
      <trkpt lat="42.31166481971741" lon="2.150251865386963">
        <ele>989.2528963503225</ele>
        <time>2021-07-14T19:23:59.024Z</time>
      </trkpt>
      <trkpt lat="42.311750650405884" lon="2.1498119831085205">
        <ele>990.747667193532</ele>
        <time>2021-07-14T19:23:59.410Z</time>
      </trkpt>
      <trkpt lat="42.31180429458618" lon="2.1496188640594482">
        <ele>992.2715577726121</ele>
        <time>2021-07-14T19:23:59.798Z</time>
      </trkpt>
      <trkpt lat="42.31184720993042" lon="2.1495115756988525">
        <ele>993.8150709795711</ele>
        <time>2021-07-14T19:24:00.188Z</time>
      </trkpt>
      <trkpt lat="42.31219061650336" lon="2.148878574371338">
        <ele>995.5810303554264</ele>
        <time>2021-07-14T19:24:00.587Z</time>
      </trkpt>
      <trkpt lat="42.31284499168396" lon="2.147655487060547">
        <ele>997.9933275037893</ele>
        <time>2021-07-14T19:24:01.004Z</time>
      </trkpt>
      <trkpt lat="42.312963008880615" lon="2.1474087238311768">
        <ele>999.7597170096034</ele>
        <time>2021-07-14T19:24:01.424Z</time>
      </trkpt>
      <trkpt lat="42.312973737716675" lon="2.1471941471099854">
        <ele>1001.3879601653748</ele>
        <time>2021-07-14T19:24:01.847Z</time>
      </trkpt>
      <trkpt lat="42.31294163502753" lon="2.1466684341430664">
        <ele>1002.9809830443222</ele>
        <time>2021-07-14T19:24:02.276Z</time>
      </trkpt>
      <trkpt lat="42.312941551208496" lon="2.1466684341430664">
        <ele>1004.5230398490424</ele>
        <time>2021-07-14T19:24:02.705Z</time>
      </trkpt>
      <trkpt lat="42.31287717819214" lon="2.145606279373169">
        <ele>1006.454449089074</ele>
        <time>2021-07-14T19:24:03.147Z</time>
      </trkpt>
      <trkpt lat="42.31284499168396" lon="2.145456075668335">
        <ele>1007.9339842255752</ele>
        <time>2021-07-14T19:24:03.591Z</time>
      </trkpt>
      <trkpt lat="42.31266260147095" lon="2.144951820373535">
        <ele>1009.0611113936941</ele>
        <time>2021-07-14T19:24:04.041Z</time>
      </trkpt>
      <trkpt lat="42.31264114379883" lon="2.1444475650787354">
        <ele>1010.8302856201678</ele>
        <time>2021-07-14T19:24:04.497Z</time>
      </trkpt>
      <trkpt lat="42.31255531311035" lon="2.1438896656036377">
        <ele>1012.3574237519385</ele>
        <time>2021-07-14T19:24:04.960Z</time>
      </trkpt>
      <trkpt lat="42.31239438056946" lon="2.1435248851776123">
        <ele>1013.4227804259577</ele>
        <time>2021-07-14T19:24:05.428Z</time>
      </trkpt>
      <trkpt lat="42.31236219406128" lon="2.1433961391448975">
        <ele>1014.6279841668869</ele>
        <time>2021-07-14T19:24:05.898Z</time>
      </trkpt>
      <trkpt lat="42.31236219406128" lon="2.143310308456421">
        <ele>1015.8138254648843</ele>
        <time>2021-07-14T19:24:06.369Z</time>
      </trkpt>
      <trkpt lat="42.31237292289734" lon="2.142988443374634">
        <ele>1017.176066345879</ele>
        <time>2021-07-14T19:24:06.843Z</time>
      </trkpt>
      <trkpt lat="42.31235146522522" lon="2.1428704261779785">
        <ele>1018.2580627578059</ele>
        <time>2021-07-14T19:24:07.319Z</time>
      </trkpt>
      <trkpt lat="42.31230854988098" lon="2.142763137817383">
        <ele>1019.2337360750554</ele>
        <time>2021-07-14T19:24:07.796Z</time>
      </trkpt>
      <trkpt lat="42.312254905700684" lon="2.142709493637085">
        <ele>1020.0920464355229</ele>
        <time>2021-07-14T19:24:08.274Z</time>
      </trkpt>
      <trkpt lat="42.31181502342224" lon="2.1423232555389404">
        <ele>1020.4129507971436</ele>
        <time>2021-07-14T19:24:08.761Z</time>
      </trkpt>
      <trkpt lat="42.311718463897705" lon="2.1421408653259277">
        <ele>1021.1966140435187</ele>
        <time>2021-07-14T19:24:09.250Z</time>
      </trkpt>
      <trkpt lat="42.31157898902893" lon="2.141679525375366">
        <ele>1022.1663088072462</ele>
        <time>2021-07-14T19:24:09.745Z</time>
      </trkpt>
      <trkpt lat="42.31152534484863" lon="2.141411304473877">
        <ele>1022.9722961534683</ele>
        <time>2021-07-14T19:24:10.244Z</time>
      </trkpt>
      <trkpt lat="42.31140741147101" lon="2.140434980392456">
        <ele>1023.8147498387561</ele>
        <time>2021-07-14T19:24:10.754Z</time>
      </trkpt>
      <trkpt lat="42.31140732765198" lon="2.140434980392456">
        <ele>1024.5501805661813</ele>
        <time>2021-07-14T19:24:11.264Z</time>
      </trkpt>
      <trkpt lat="42.31138586997986" lon="2.1401774883270264">
        <ele>1025.265064788648</ele>
        <time>2021-07-14T19:24:11.778Z</time>
      </trkpt>
      <trkpt lat="42.31138586997986" lon="2.1400701999664307">
        <ele>1026.004531570908</ele>
        <time>2021-07-14T19:24:12.293Z</time>
      </trkpt>
      <trkpt lat="42.31140732765198" lon="2.1399199962615967">
        <ele>1026.8062446685854</ele>
        <time>2021-07-14T19:24:12.810Z</time>
      </trkpt>
      <trkpt lat="42.311450242996216" lon="2.1398019790649414">
        <ele>1027.651371630075</ele>
        <time>2021-07-14T19:24:13.328Z</time>
      </trkpt>
      <trkpt lat="42.31163263320923" lon="2.1395766735076904">
        <ele>1028.7964735803941</ele>
        <time>2021-07-14T19:24:13.850Z</time>
      </trkpt>
      <trkpt lat="42.31167554855347" lon="2.1394479274749756">
        <ele>1029.6686681364504</ele>
        <time>2021-07-14T19:24:14.374Z</time>
      </trkpt>
      <trkpt lat="42.311686277389526" lon="2.139308452606201">
        <ele>1030.4563958314943</ele>
        <time>2021-07-14T19:24:14.899Z</time>
      </trkpt>
      <trkpt lat="42.31158971786499" lon="2.1388471126556396">
        <ele>1031.0736975133368</ele>
        <time>2021-07-14T19:24:15.430Z</time>
      </trkpt>
      <trkpt lat="42.31155753135681" lon="2.13858962059021">
        <ele>1031.8995097546785</ele>
        <time>2021-07-14T19:24:15.964Z</time>
      </trkpt>
      <trkpt lat="42.31151461601257" lon="2.137484550476074">
        <ele>1032.9085436815064</ele>
        <time>2021-07-14T19:24:16.511Z</time>
      </trkpt>
      <trkpt lat="42.31138586997986" lon="2.1364009380340576">
        <ele>1033.6404331610565</ele>
        <time>2021-07-14T19:24:17.071Z</time>
      </trkpt>
      <trkpt lat="42.3113751411438" lon="2.1362292766571045">
        <ele>1034.3538206394555</ele>
        <time>2021-07-14T19:24:17.633Z</time>
      </trkpt>
      <trkpt lat="42.31139659881592" lon="2.1361005306243896">
        <ele>1035.1446567113098</ele>
        <time>2021-07-14T19:24:18.197Z</time>
      </trkpt>
      <trkpt lat="42.311439514160156" lon="2.135993242263794">
        <ele>1036.0066921162688</ele>
        <time>2021-07-14T19:24:18.762Z</time>
      </trkpt>
      <trkpt lat="42.31151461601257" lon="2.135896682739258">
        <ele>1036.9658580749258</ele>
        <time>2021-07-14T19:24:19.329Z</time>
      </trkpt>
      <trkpt lat="42.31160044670105" lon="2.1358108520507812">
        <ele>1037.9788137100254</ele>
        <time>2021-07-14T19:24:19.898Z</time>
      </trkpt>
      <trkpt lat="42.31171854771674" lon="2.135746479034424">
        <ele>1039.0777378960422</ele>
        <time>2021-07-14T19:24:20.469Z</time>
      </trkpt>
      <trkpt lat="42.31185793876648" lon="2.1356284618377686">
        <ele>1040.2343024906604</ele>
        <time>2021-07-14T19:24:21.043Z</time>
      </trkpt>
      <trkpt lat="42.31191158294678" lon="2.1354568004608154">
        <ele>1041.2445430886091</ele>
        <time>2021-07-14T19:24:21.619Z</time>
      </trkpt>
      <trkpt lat="42.31191158294678" lon="2.1353495121002197">
        <ele>1042.175330383821</ele>
        <time>2021-07-14T19:24:22.196Z</time>
      </trkpt>
      <trkpt lat="42.31189012527466" lon="2.135263681411743">
        <ele>1043.074660294566</ele>
        <time>2021-07-14T19:24:22.774Z</time>
      </trkpt>
      <trkpt lat="42.31176137924194" lon="2.1350812911987305">
        <ele>1043.7588594500273</ele>
        <time>2021-07-14T19:24:23.355Z</time>
      </trkpt>
      <trkpt lat="42.311718463897705" lon="2.1349740028381348">
        <ele>1044.6213731327578</ele>
        <time>2021-07-14T19:24:23.938Z</time>
      </trkpt>
      <trkpt lat="42.311697006225586" lon="2.1348559856414795">
        <ele>1045.5536397833268</ele>
        <time>2021-07-14T19:24:24.522Z</time>
      </trkpt>
      <trkpt lat="42.31167554855347" lon="2.1330320835113525">
        <ele>1046.596334358484</ele>
        <time>2021-07-14T19:24:25.128Z</time>
      </trkpt>
      <trkpt lat="42.31167554855347" lon="2.132742404937744">
        <ele>1047.5296592351297</ele>
        <time>2021-07-14T19:24:25.737Z</time>
      </trkpt>
      <trkpt lat="42.311707735061646" lon="2.1326029300689697">
        <ele>1048.6203088903173</ele>
        <time>2021-07-14T19:24:26.348Z</time>
      </trkpt>
      <trkpt lat="42.311750650405884" lon="2.132474184036255">
        <ele>1049.7437003635823</ele>
        <time>2021-07-14T19:24:26.960Z</time>
      </trkpt>
      <trkpt lat="42.311986684799194" lon="2.1320879459381104">
        <ele>1051.1880334745047</ele>
        <time>2021-07-14T19:24:27.578Z</time>
      </trkpt>
      <trkpt lat="42.312233448028564" lon="2.131294012069702">
        <ele>1052.2927534808507</ele>
        <time>2021-07-14T19:24:28.207Z</time>
      </trkpt>
      <trkpt lat="42.31235146522522" lon="2.1310901641845703">
        <ele>1053.5442983881248</ele>
        <time>2021-07-14T19:24:28.839Z</time>
      </trkpt>
      <trkpt lat="42.31260895729065" lon="2.1307897567749023">
        <ele>1054.9118080367332</ele>
        <time>2021-07-14T19:24:29.476Z</time>
      </trkpt>
      <trkpt lat="42.31287717819214" lon="2.130575180053711">
        <ele>1056.2039035048808</ele>
        <time>2021-07-14T19:24:30.118Z</time>
      </trkpt>
      <trkpt lat="42.31308102607727" lon="2.130500078201294">
        <ele>1057.6021764083084</ele>
        <time>2021-07-14T19:24:30.764Z</time>
      </trkpt>
      <trkpt lat="42.31331706047058" lon="2.130446434020996">
        <ele>1059.1679632150522</ele>
        <time>2021-07-14T19:24:31.413Z</time>
      </trkpt>
      <trkpt lat="42.31340289115906" lon="2.1303820610046387">
        <ele>1060.491623074663</ele>
        <time>2021-07-14T19:24:32.064Z</time>
      </trkpt>
      <trkpt lat="42.31346734799445" lon="2.130296230316162">
        <ele>1061.7565623420296</ele>
        <time>2021-07-14T19:24:32.716Z</time>
      </trkpt>
      <trkpt lat="42.313467264175415" lon="2.130296230316162">
        <ele>1062.958881622466</ele>
        <time>2021-07-14T19:24:33.368Z</time>
      </trkpt>
      <trkpt lat="42.313499450683594" lon="2.1301567554473877">
        <ele>1064.1002970358536</ele>
        <time>2021-07-14T19:24:34.022Z</time>
      </trkpt>
      <trkpt lat="42.313477993011475" lon="2.1299850940704346">
        <ele>1065.2268145827773</ele>
        <time>2021-07-14T19:24:34.678Z</time>
      </trkpt>
      <trkpt lat="42.3132848739624" lon="2.1295344829559326">
        <ele>1066.0297890100899</ele>
        <time>2021-07-14T19:24:35.340Z</time>
      </trkpt>
      <trkpt lat="42.313209772109985" lon="2.1292877197265625">
        <ele>1067.0477738568902</ele>
        <time>2021-07-14T19:24:36.006Z</time>
      </trkpt>
      <trkpt lat="42.313220500946045" lon="2.1290624141693115">
        <ele>1068.2091208102536</ele>
        <time>2021-07-14T19:24:36.674Z</time>
      </trkpt>
      <trkpt lat="42.31326341629028" lon="2.1288371086120605">
        <ele>1069.3043979683928</ele>
        <time>2021-07-14T19:24:37.345Z</time>
      </trkpt>
      <trkpt lat="42.313445806503296" lon="2.1281182765960693">
        <ele>1070.4206276304644</ele>
        <time>2021-07-14T19:24:38.025Z</time>
      </trkpt>
      <trkpt lat="42.313488721847534" lon="2.128021717071533">
        <ele>1071.4792327483547</ele>
        <time>2021-07-14T19:24:38.706Z</time>
      </trkpt>
      <trkpt lat="42.31354236602783" lon="2.1279358863830566">
        <ele>1072.56467205424</ele>
        <time>2021-07-14T19:24:39.389Z</time>
      </trkpt>
      <trkpt lat="42.31375694274902" lon="2.1277856826782227">
        <ele>1073.9167073304334</ele>
        <time>2021-07-14T19:24:40.076Z</time>
      </trkpt>
      <trkpt lat="42.313939332962036" lon="2.12760329246521">
        <ele>1075.0480959342462</ele>
        <time>2021-07-14T19:24:40.766Z</time>
      </trkpt>
      <trkpt lat="42.31407880783081" lon="2.127399444580078">
        <ele>1076.069406020309</ele>
        <time>2021-07-14T19:24:41.459Z</time>
      </trkpt>
      <trkpt lat="42.31428265571594" lon="2.127174139022827">
        <ele>1077.1009218994698</ele>
        <time>2021-07-14T19:24:42.157Z</time>
      </trkpt>
      <trkpt lat="42.31438994407654" lon="2.1270883083343506">
        <ele>1078.1130548337933</ele>
        <time>2021-07-14T19:24:42.857Z</time>
      </trkpt>
      <trkpt lat="42.31452941894531" lon="2.1270346641540527">
        <ele>1079.1755128197983</ele>
        <time>2021-07-14T19:24:43.559Z</time>
      </trkpt>
      <trkpt lat="42.314958572387695" lon="2.127023935317993">
        <ele>1080.6660707049682</ele>
        <time>2021-07-14T19:24:44.268Z</time>
      </trkpt>
      <trkpt lat="42.31508740223944" lon="2.127002477645874">
        <ele>1081.5992202228974</ele>
        <time>2021-07-14T19:24:44.979Z</time>
      </trkpt>
      <trkpt lat="42.315183877944946" lon="2.126948833465576">
        <ele>1082.4243781366406</ele>
        <time>2021-07-14T19:24:45.692Z</time>
      </trkpt>
      <trkpt lat="42.31526970863342" lon="2.12685227394104">
        <ele>1083.244343081853</ele>
        <time>2021-07-14T19:24:46.406Z</time>
      </trkpt>
      <trkpt lat="42.31530197896063" lon="2.126798629760742">
        <ele>1084.1003833962031</ele>
        <time>2021-07-14T19:24:47.121Z</time>
      </trkpt>
      <trkpt lat="42.3153018951416" lon="2.1267127990722656">
        <ele>1084.8584375845435</ele>
        <time>2021-07-14T19:24:47.837Z</time>
      </trkpt>
      <trkpt lat="42.31528043746948" lon="2.126626968383789">
        <ele>1085.5176200397027</ele>
        <time>2021-07-14T19:24:48.554Z</time>
      </trkpt>
      <trkpt lat="42.315237522125244" lon="2.1265411376953125">
        <ele>1086.109582974514</ele>
        <time>2021-07-14T19:24:49.273Z</time>
      </trkpt>
      <trkpt lat="42.31510877609253" lon="2.126433849334717">
        <ele>1086.494878555045</ele>
        <time>2021-07-14T19:24:49.994Z</time>
      </trkpt>
      <trkpt lat="42.314947843551636" lon="2.1262729167938232">
        <ele>1086.8276025338826</ele>
        <time>2021-07-14T19:24:50.718Z</time>
      </trkpt>
      <trkpt lat="42.31481909751892" lon="2.1260690689086914">
        <ele>1087.2505802057312</ele>
        <time>2021-07-14T19:24:51.445Z</time>
      </trkpt>
      <trkpt lat="42.314701080322266" lon="2.1258115768432617">
        <ele>1087.7393554623131</ele>
        <time>2021-07-14T19:24:52.176Z</time>
      </trkpt>
      <trkpt lat="42.31460452079773" lon="2.1256721019744873">
        <ele>1088.104957703871</ele>
        <time>2021-07-14T19:24:52.909Z</time>
      </trkpt>
      <trkpt lat="42.314454317092896" lon="2.1255111694335938">
        <ele>1088.3550586403153</ele>
        <time>2021-07-14T19:24:53.645Z</time>
      </trkpt>
      <trkpt lat="42.31428265571594" lon="2.125382423400879">
        <ele>1088.5053469818715</ele>
        <time>2021-07-14T19:24:54.384Z</time>
      </trkpt>
      <trkpt lat="42.31417536735535" lon="2.125232219696045">
        <ele>1088.8241071236816</ele>
        <time>2021-07-14T19:24:55.126Z</time>
      </trkpt>
      <trkpt lat="42.31405735015869" lon="2.1248996257781982">
        <ele>1089.289362195856</ele>
        <time>2021-07-14T19:24:55.872Z</time>
      </trkpt>
      <trkpt lat="42.31379985809326" lon="2.123837471008301">
        <ele>1089.6778693522451</ele>
        <time>2021-07-14T19:24:56.632Z</time>
      </trkpt>
      <trkpt lat="42.31377840042114" lon="2.1236765384674072">
        <ele>1090.0886652289973</ele>
        <time>2021-07-14T19:24:57.393Z</time>
      </trkpt>
      <trkpt lat="42.31377840042114" lon="2.1235156059265137">
        <ele>1090.6301773122068</ele>
        <time>2021-07-14T19:24:58.156Z</time>
      </trkpt>
      <trkpt lat="42.31379985809326" lon="2.1233654022216797">
        <ele>1091.2604896903044</ele>
        <time>2021-07-14T19:24:58.921Z</time>
      </trkpt>
      <trkpt lat="42.314003705978394" lon="2.1225392818450928">
        <ele>1091.9655394674612</ele>
        <time>2021-07-14T19:24:59.697Z</time>
      </trkpt>
      <trkpt lat="42.31404662132263" lon="2.1224427223205566">
        <ele>1092.5163244834334</ele>
        <time>2021-07-14T19:25:00.474Z</time>
      </trkpt>
      <trkpt lat="42.31426119804382" lon="2.1222174167633057">
        <ele>1093.4401478901582</ele>
        <time>2021-07-14T19:25:01.255Z</time>
      </trkpt>
      <trkpt lat="42.31431484222412" lon="2.121981382369995">
        <ele>1093.8741343506501</ele>
        <time>2021-07-14T19:25:02.039Z</time>
      </trkpt>
      <trkpt lat="42.3143470287323" lon="2.1217238903045654">
        <ele>1094.2368292264098</ele>
        <time>2021-07-14T19:25:02.826Z</time>
      </trkpt>
      <trkpt lat="42.31442213058472" lon="2.121487855911255">
        <ele>1094.7468445400632</ele>
        <time>2021-07-14T19:25:03.616Z</time>
      </trkpt>
      <trkpt lat="42.314497232437134" lon="2.121155261993408">
        <ele>1095.1269132728066</ele>
        <time>2021-07-14T19:25:04.410Z</time>
      </trkpt>
      <trkpt lat="42.31454014778137" lon="2.121080160140991">
        <ele>1095.6438069318408</ele>
        <time>2021-07-14T19:25:05.206Z</time>
      </trkpt>
      <trkpt lat="42.3149049282074" lon="2.120758295059204">
        <ele>1096.71572730172</ele>
        <time>2021-07-14T19:25:06.009Z</time>
      </trkpt>
      <trkpt lat="42.314937114715576" lon="2.1206939220428467">
        <ele>1097.2702535322887</ele>
        <time>2021-07-14T19:25:06.812Z</time>
      </trkpt>
      <trkpt lat="42.314958572387695" lon="2.1206188201904297">
        <ele>1097.7721399061118</ele>
        <time>2021-07-14T19:25:07.616Z</time>
      </trkpt>
      <trkpt lat="42.314958572387695" lon="2.120490074157715">
        <ele>1098.180568019527</ele>
        <time>2021-07-14T19:25:08.422Z</time>
      </trkpt>
      <trkpt lat="42.31488347053528" lon="2.1201682090759277">
        <ele>1098.300716516327</ele>
        <time>2021-07-14T19:25:09.232Z</time>
      </trkpt>
      <trkpt lat="42.31488347053528" lon="2.1199750900268555">
        <ele>1098.6443881518112</ele>
        <time>2021-07-14T19:25:10.044Z</time>
      </trkpt>
      <trkpt lat="42.31492638587952" lon="2.1198034286499023">
        <ele>1099.0609924097378</ele>
        <time>2021-07-14T19:25:10.858Z</time>
      </trkpt>
      <trkpt lat="42.31506586074829" lon="2.1195995807647705">
        <ele>1099.5906540111428</ele>
        <time>2021-07-14T19:25:11.676Z</time>
      </trkpt>
      <trkpt lat="42.31514096260071" lon="2.1195459365844727">
        <ele>1100.08955709498</ele>
        <time>2021-07-14T19:25:12.495Z</time>
      </trkpt>
      <trkpt lat="42.3153555393219" lon="2.1194279193878174">
        <ele>1100.8232110453018</ele>
        <time>2021-07-14T19:25:13.318Z</time>
      </trkpt>
      <trkpt lat="42.3154091835022" lon="2.1193528175354004">
        <ele>1101.2747820807872</ele>
        <time>2021-07-14T19:25:14.142Z</time>
      </trkpt>
      <trkpt lat="42.315462827682495" lon="2.119213342666626">
        <ele>1101.680163259528</ele>
        <time>2021-07-14T19:25:14.968Z</time>
      </trkpt>
      <trkpt lat="42.315473556518555" lon="2.1191489696502686">
        <ele>1102.031541131315</ele>
        <time>2021-07-14T19:25:15.795Z</time>
      </trkpt>
      <trkpt lat="42.315462827682495" lon="2.1190309524536133">
        <ele>1102.3215660185288</ele>
        <time>2021-07-14T19:25:16.623Z</time>
      </trkpt>
      <trkpt lat="42.31537699699402" lon="2.1186447143554688">
        <ele>1102.3760714748175</ele>
        <time>2021-07-14T19:25:17.456Z</time>
      </trkpt>
      <trkpt lat="42.3153555393219" lon="2.118440866470337">
        <ele>1102.6350234952552</ele>
        <time>2021-07-14T19:25:18.291Z</time>
      </trkpt>
      <trkpt lat="42.31535562314093" lon="2.11836576461792">
        <ele>1102.9999967054487</ele>
        <time>2021-07-14T19:25:19.127Z</time>
      </trkpt>
      <trkpt lat="42.3153555393219" lon="2.11836576461792">
        <ele>1103.4147337927325</ele>
        <time>2021-07-14T19:25:19.963Z</time>
      </trkpt>
      <trkpt lat="42.31536626815796" lon="2.118258476257324">
        <ele>1103.8505341425998</ele>
        <time>2021-07-14T19:25:20.800Z</time>
      </trkpt>
      <trkpt lat="42.315452098846436" lon="2.118086814880371">
        <ele>1104.4735623283946</ele>
        <time>2021-07-14T19:25:21.640Z</time>
      </trkpt>
      <trkpt lat="42.31550574302673" lon="2.1178829669952393">
        <ele>1105.0616961246596</ele>
        <time>2021-07-14T19:25:22.482Z</time>
      </trkpt>
      <trkpt lat="42.31551647186279" lon="2.1176469326019287">
        <ele>1105.5937277676549</ele>
        <time>2021-07-14T19:25:23.327Z</time>
      </trkpt>
      <trkpt lat="42.31555938720703" lon="2.11736798286438">
        <ele>1106.2349853057099</ele>
        <time>2021-07-14T19:25:24.176Z</time>
      </trkpt>
      <trkpt lat="42.31562376022339" lon="2.1170568466186523">
        <ele>1106.9249639945085</ele>
        <time>2021-07-14T19:25:25.028Z</time>
      </trkpt>
      <trkpt lat="42.315720319747925" lon="2.1168100833892822">
        <ele>1107.7144805143867</ele>
        <time>2021-07-14T19:25:25.884Z</time>
      </trkpt>
      <trkpt lat="42.31579542160034" lon="2.1167027950286865">
        <ele>1108.588572283275</ele>
        <time>2021-07-14T19:25:26.742Z</time>
      </trkpt>
      <trkpt lat="42.31590270996094" lon="2.1164774894714355">
        <ele>1109.5534073468225</ele>
        <time>2021-07-14T19:25:27.603Z</time>
      </trkpt>
      <trkpt lat="42.315934896469116" lon="2.1163487434387207">
        <ele>1110.487518076065</ele>
        <time>2021-07-14T19:25:28.465Z</time>
      </trkpt>
      <trkpt lat="42.31595643796027" lon="2.1160805225372314">
        <ele>1111.4306879506585</ele>
        <time>2021-07-14T19:25:29.331Z</time>
      </trkpt>
      <trkpt lat="42.315956354141235" lon="2.1160805225372314">
        <ele>1112.4507018668587</ele>
        <time>2021-07-14T19:25:30.197Z</time>
      </trkpt>
      <trkpt lat="42.315977811813354" lon="2.115586996078491">
        <ele>1113.5413079333073</ele>
        <time>2021-07-14T19:25:31.068Z</time>
      </trkpt>
      <trkpt lat="42.315977811813354" lon="2.1145355701446533">
        <ele>1114.7502332360623</ele>
        <time>2021-07-14T19:25:31.952Z</time>
      </trkpt>
      <trkpt lat="42.315999269485474" lon="2.1143639087677">
        <ele>1115.9904752265625</ele>
        <time>2021-07-14T19:25:32.838Z</time>
      </trkpt>
      <trkpt lat="42.31609591282904" lon="2.1140313148498535">
        <ele>1117.2837974341192</ele>
        <time>2021-07-14T19:25:33.728Z</time>
      </trkpt>
      <trkpt lat="42.31612801551819" lon="2.113945484161377">
        <ele>1118.6117301030304</ele>
        <time>2021-07-14T19:25:34.619Z</time>
      </trkpt>
      <trkpt lat="42.316224575042725" lon="2.113795280456543">
        <ele>1120.053471007799</ele>
        <time>2021-07-14T19:25:35.513Z</time>
      </trkpt>
      <trkpt lat="42.31627821922302" lon="2.113773822784424">
        <ele>1121.5206801327126</ele>
        <time>2021-07-14T19:25:36.408Z</time>
      </trkpt>
      <trkpt lat="42.31654652394354" lon="2.113698720932007">
        <ele>1123.0380350269156</ele>
        <time>2021-07-14T19:25:37.307Z</time>
      </trkpt>
      <trkpt lat="42.31688976287842" lon="2.1136021614074707">
        <ele>1124.7202340112317</ele>
        <time>2021-07-14T19:25:38.212Z</time>
      </trkpt>
      <trkpt lat="42.31714725494385" lon="2.113494873046875">
        <ele>1126.3462732288658</ele>
        <time>2021-07-14T19:25:39.121Z</time>
      </trkpt>
      <trkpt lat="42.31738328933716" lon="2.113344669342041">
        <ele>1127.9212890762474</ele>
        <time>2021-07-14T19:25:40.034Z</time>
      </trkpt>
      <trkpt lat="42.31778025627136" lon="2.1131622791290283">
        <ele>1129.576914822648</ele>
        <time>2021-07-14T19:25:40.954Z</time>
      </trkpt>
      <trkpt lat="42.3182737827301" lon="2.1130764484405518">
        <ele>1131.4287331387145</ele>
        <time>2021-07-14T19:25:41.882Z</time>
      </trkpt>
      <trkpt lat="42.31905698776245" lon="2.1130013465881348">
        <ele>1133.3913601815466</ele>
        <time>2021-07-14T19:25:42.822Z</time>
      </trkpt>
      <trkpt lat="42.31916427612305" lon="2.1129584312438965">
        <ele>1134.9999775999681</ele>
        <time>2021-07-14T19:25:43.764Z</time>
      </trkpt>
      <trkpt lat="42.31988319195807" lon="2.1125829219818115">
        <ele>1136.6551214127874</ele>
        <time>2021-07-14T19:25:44.718Z</time>
      </trkpt>
      <trkpt lat="42.32009768486023" lon="2.1124541759490967">
        <ele>1138.2881178441457</ele>
        <time>2021-07-14T19:25:45.676Z</time>
      </trkpt>
      <trkpt lat="42.32016205787659" lon="2.1123576164245605">
        <ele>1139.8900773205546</ele>
        <time>2021-07-14T19:25:46.636Z</time>
      </trkpt>
      <trkpt lat="42.320204973220825" lon="2.112218141555786">
        <ele>1141.4692098061473</ele>
        <time>2021-07-14T19:25:47.597Z</time>
      </trkpt>
      <trkpt lat="42.32021578587592" lon="2.112067937850952">
        <ele>1142.9972968934012</ele>
        <time>2021-07-14T19:25:48.560Z</time>
      </trkpt>
      <trkpt lat="42.320215702056885" lon="2.112067937850952">
        <ele>1144.5191647531717</ele>
        <time>2021-07-14T19:25:49.523Z</time>
      </trkpt>
      <trkpt lat="42.32026934623718" lon="2.1114349365234375">
        <ele>1145.9851547778946</ele>
        <time>2021-07-14T19:25:50.494Z</time>
      </trkpt>
      <trkpt lat="42.320226430892944" lon="2.11112380027771">
        <ele>1147.497630380343</ele>
        <time>2021-07-14T19:25:51.469Z</time>
      </trkpt>
      <trkpt lat="42.32007622718811" lon="2.1105873584747314">
        <ele>1148.989963343879</ele>
        <time>2021-07-14T19:25:52.450Z</time>
      </trkpt>
      <trkpt lat="42.32005476951599" lon="2.1103084087371826">
        <ele>1150.5298329558227</ele>
        <time>2021-07-14T19:25:53.435Z</time>
      </trkpt>
      <trkpt lat="42.32007622718811" lon="2.110050916671753">
        <ele>1152.0727728807312</ele>
        <time>2021-07-14T19:25:54.423Z</time>
      </trkpt>
      <trkpt lat="42.32006549835205" lon="2.109922170639038">
        <ele>1153.5443495475474</ele>
        <time>2021-07-14T19:25:55.412Z</time>
      </trkpt>
      <trkpt lat="42.319979667663574" lon="2.109675407409668">
        <ele>1155.0704884947813</ele>
        <time>2021-07-14T19:25:56.405Z</time>
      </trkpt>
      <trkpt lat="42.31991529464722" lon="2.109578847885132">
        <ele>1156.4648463235337</ele>
        <time>2021-07-14T19:25:57.399Z</time>
      </trkpt>
      <trkpt lat="42.31975436210632" lon="2.1094179153442383">
        <ele>1157.8398368057747</ele>
        <time>2021-07-14T19:25:58.396Z</time>
      </trkpt>
      <trkpt lat="42.319196462631226" lon="2.1090102195739746">
        <ele>1159.1695058115597</ele>
        <time>2021-07-14T19:25:59.403Z</time>
      </trkpt>
      <trkpt lat="42.31906771659851" lon="2.1089565753936768">
        <ele>1160.3355762164338</ele>
        <time>2021-07-14T19:26:00.413Z</time>
      </trkpt>
      <trkpt lat="42.318681478500366" lon="2.1088922023773193">
        <ele>1161.2065455624984</ele>
        <time>2021-07-14T19:26:01.429Z</time>
      </trkpt>
      <trkpt lat="42.31860637664795" lon="2.108849287033081">
        <ele>1162.3644614533523</ele>
        <time>2021-07-14T19:26:02.446Z</time>
      </trkpt>
      <trkpt lat="42.31855273246765" lon="2.108774185180664">
        <ele>1163.5286539006395</ele>
        <time>2021-07-14T19:26:03.464Z</time>
      </trkpt>
      <trkpt lat="42.31850981712341" lon="2.1086883544921875">
        <ele>1164.6857328501815</ele>
        <time>2021-07-14T19:26:04.484Z</time>
      </trkpt>
      <trkpt lat="42.318488359451294" lon="2.10837721824646">
        <ele>1165.9385456151547</ele>
        <time>2021-07-14T19:26:05.507Z</time>
      </trkpt>
      <trkpt lat="42.31849908828735" lon="2.108151912689209">
        <ele>1167.1573307951076</ele>
        <time>2021-07-14T19:26:06.533Z</time>
      </trkpt>
      <trkpt lat="42.31858491897583" lon="2.107776403427124">
        <ele>1168.3136778991584</ele>
        <time>2021-07-14T19:26:07.564Z</time>
      </trkpt>
      <trkpt lat="42.31912136077881" lon="2.1060919761657715">
        <ele>1170.1604258471598</ele>
        <time>2021-07-14T19:26:08.616Z</time>
      </trkpt>
      <trkpt lat="42.319207191467285" lon="2.10587739944458">
        <ele>1171.2028360483307</ele>
        <time>2021-07-14T19:26:09.671Z</time>
      </trkpt>
      <trkpt lat="42.31932520866394" lon="2.105705738067627">
        <ele>1172.2800640229154</ele>
        <time>2021-07-14T19:26:10.729Z</time>
      </trkpt>
      <trkpt lat="42.319443225860596" lon="2.105609178543091">
        <ele>1173.3881555529617</ele>
        <time>2021-07-14T19:26:11.789Z</time>
      </trkpt>
      <trkpt lat="42.319722175598145" lon="2.1054697036743164">
        <ele>1174.670299523722</ele>
        <time>2021-07-14T19:26:12.854Z</time>
      </trkpt>
      <trkpt lat="42.31980800628662" lon="2.1053946018218994">
        <ele>1175.571248185353</ele>
        <time>2021-07-14T19:26:13.921Z</time>
      </trkpt>
      <trkpt lat="42.31988310813904" lon="2.1052873134613037">
        <ele>1176.3761448882294</ele>
        <time>2021-07-14T19:26:14.989Z</time>
      </trkpt>
      <trkpt lat="42.31988310813904" lon="2.105201482772827">
        <ele>1177.0144587560228</ele>
        <time>2021-07-14T19:26:16.058Z</time>
      </trkpt>
      <trkpt lat="42.31985092163086" lon="2.1051156520843506">
        <ele>1177.5366140731057</ele>
        <time>2021-07-14T19:26:17.129Z</time>
      </trkpt>
      <trkpt lat="42.31980800628662" lon="2.105008363723755">
        <ele>1177.9666882916179</ele>
        <time>2021-07-14T19:26:18.201Z</time>
      </trkpt>
      <trkpt lat="42.319679260253906" lon="2.1047937870025635">
        <ele>1178.338345517203</ele>
        <time>2021-07-14T19:26:19.276Z</time>
      </trkpt>
      <trkpt lat="42.31962561607361" lon="2.104600667953491">
        <ele>1178.8143104619621</ele>
        <time>2021-07-14T19:26:20.354Z</time>
      </trkpt>
      <trkpt lat="42.31960415840149" lon="2.104332447052002">
        <ele>1179.186468300093</ele>
        <time>2021-07-14T19:26:21.435Z</time>
      </trkpt>
      <trkpt lat="42.31957197189331" lon="2.1042144298553467">
        <ele>1179.4695322749585</ele>
        <time>2021-07-14T19:26:22.518Z</time>
      </trkpt>
      <trkpt lat="42.31952905654907" lon="2.1041393280029297">
        <ele>1179.6945016112386</ele>
        <time>2021-07-14T19:26:23.602Z</time>
      </trkpt>
      <trkpt lat="42.319475412368774" lon="2.104085683822632">
        <ele>1179.884709158416</ele>
        <time>2021-07-14T19:26:24.687Z</time>
      </trkpt>
      <trkpt lat="42.31936812400818" lon="2.104085683822632">
        <ele>1179.9898306711898</ele>
        <time>2021-07-14T19:26:25.773Z</time>
      </trkpt>
      <trkpt lat="42.319239377975464" lon="2.1041500568389893">
        <ele>1180.0398029236253</ele>
        <time>2021-07-14T19:26:26.862Z</time>
      </trkpt>
      <trkpt lat="42.318928241729736" lon="2.104353904724121">
        <ele>1179.9168262815206</ele>
        <time>2021-07-14T19:26:27.956Z</time>
      </trkpt>
      <trkpt lat="42.31863856315613" lon="2.104429006576538">
        <ele>1179.9981739753505</ele>
        <time>2021-07-14T19:26:29.055Z</time>
      </trkpt>
      <trkpt lat="42.31850981712341" lon="2.1044397354125977">
        <ele>1180.1749357740923</ele>
        <time>2021-07-14T19:26:30.156Z</time>
      </trkpt>
      <trkpt lat="42.31842407025397" lon="2.1044397354125977">
        <ele>1180.3781563610955</ele>
        <time>2021-07-14T19:26:31.258Z</time>
      </trkpt>
      <trkpt lat="42.31842398643494" lon="2.1044397354125977">
        <ele>1180.6028321744523</ele>
        <time>2021-07-14T19:26:32.360Z</time>
      </trkpt>
      <trkpt lat="42.31833815574646" lon="2.1043968200683594">
        <ele>1180.9013132915338</ele>
        <time>2021-07-14T19:26:33.464Z</time>
      </trkpt>
      <trkpt lat="42.31825232505798" lon="2.1042680740356445">
        <ele>1181.2487354585105</ele>
        <time>2021-07-14T19:26:34.570Z</time>
      </trkpt>
      <trkpt lat="42.318220138549805" lon="2.104107141494751">
        <ele>1181.676525454027</ele>
        <time>2021-07-14T19:26:35.678Z</time>
      </trkpt>
      <trkpt lat="42.31813439168036" lon="2.1034204959869385">
        <ele>1182.1558412783897</ele>
        <time>2021-07-14T19:26:36.794Z</time>
      </trkpt>
      <trkpt lat="42.31813430786133" lon="2.1034204959869385">
        <ele>1182.6126716723666</ele>
        <time>2021-07-14T19:26:37.910Z</time>
      </trkpt>
      <trkpt lat="42.31811285018921" lon="2.1032917499542236">
        <ele>1183.1341679919008</ele>
        <time>2021-07-14T19:26:39.028Z</time>
      </trkpt>
      <trkpt lat="42.31812357902527" lon="2.1030235290527344">
        <ele>1183.685808004906</ele>
        <time>2021-07-14T19:26:40.149Z</time>
      </trkpt>
      <trkpt lat="42.31813430786133" lon="2.102905511856079">
        <ele>1184.3170242555536</ele>
        <time>2021-07-14T19:26:41.271Z</time>
      </trkpt>
      <trkpt lat="42.318198680877686" lon="2.102733850479126">
        <ele>1185.054557195102</ele>
        <time>2021-07-14T19:26:42.396Z</time>
      </trkpt>
      <trkpt lat="42.31825232505798" lon="2.102605104446411">
        <ele>1185.840586479911</ele>
        <time>2021-07-14T19:26:43.522Z</time>
      </trkpt>
      <trkpt lat="42.3183810710907" lon="2.102433443069458">
        <ele>1186.7376859316644</ele>
        <time>2021-07-14T19:26:44.651Z</time>
      </trkpt>
      <trkpt lat="42.31854200363159" lon="2.1022725105285645">
        <ele>1187.6009755764708</ele>
        <time>2021-07-14T19:26:45.783Z</time>
      </trkpt>
      <trkpt lat="42.31875658035278" lon="2.1021223068237305">
        <ele>1188.5609008099784</ele>
        <time>2021-07-14T19:26:46.919Z</time>
      </trkpt>
      <trkpt lat="42.31926083564758" lon="2.101778984069824">
        <ele>1189.6667347322032</ele>
        <time>2021-07-14T19:26:48.064Z</time>
      </trkpt>
      <trkpt lat="42.31950759887695" lon="2.1015536785125732">
        <ele>1190.7723714007539</ele>
        <time>2021-07-14T19:26:49.214Z</time>
      </trkpt>
      <trkpt lat="42.31963634490967" lon="2.10138201713562">
        <ele>1191.798760132851</ele>
        <time>2021-07-14T19:26:50.367Z</time>
      </trkpt>
      <trkpt lat="42.31975436210632" lon="2.1011674404144287">
        <ele>1192.8204727806592</ele>
        <time>2021-07-14T19:26:51.523Z</time>
      </trkpt>
      <trkpt lat="42.31985092163086" lon="2.100963592529297">
        <ele>1193.847351688014</ele>
        <time>2021-07-14T19:26:52.682Z</time>
      </trkpt>
      <trkpt lat="42.32006549835205" lon="2.1004271507263184">
        <ele>1194.7608111010504</ele>
        <time>2021-07-14T19:26:53.848Z</time>
      </trkpt>
      <trkpt lat="42.32014060020447" lon="2.100309133529663">
        <ele>1195.7973886397342</ele>
        <time>2021-07-14T19:26:55.016Z</time>
      </trkpt>
      <trkpt lat="42.320237159729004" lon="2.1002018451690674">
        <ele>1196.8587860530934</ele>
        <time>2021-07-14T19:26:56.186Z</time>
      </trkpt>
      <trkpt lat="42.32037663459778" lon="2.1001267433166504">
        <ele>1197.9368218163509</ele>
        <time>2021-07-14T19:26:57.358Z</time>
      </trkpt>
      <trkpt lat="42.32052683830261" lon="2.1000730991363525">
        <ele>1199.0240191739017</ele>
        <time>2021-07-14T19:26:58.533Z</time>
      </trkpt>
      <trkpt lat="42.320677042007446" lon="2.1000516414642334">
        <ele>1200.1134087381815</ele>
        <time>2021-07-14T19:26:59.710Z</time>
      </trkpt>
      <trkpt lat="42.32083797454834" lon="2.100040912628174">
        <ele>1201.184498306587</ele>
        <time>2021-07-14T19:27:00.890Z</time>
      </trkpt>
      <trkpt lat="42.321438789367676" lon="2.1001052856445312">
        <ele>1202.4552645823849</ele>
        <time>2021-07-14T19:27:02.080Z</time>
      </trkpt>
      <trkpt lat="42.321728467941284" lon="2.1001052856445312">
        <ele>1203.4700745598054</ele>
        <time>2021-07-14T19:27:03.274Z</time>
      </trkpt>
      <trkpt lat="42.321921586990356" lon="2.1000194549560547">
        <ele>1204.2861885681873</ele>
        <time>2021-07-14T19:27:04.471Z</time>
      </trkpt>
      <trkpt lat="42.32199668884277" lon="2.0999443531036377">
        <ele>1204.9609230322135</ele>
        <time>2021-07-14T19:27:05.670Z</time>
      </trkpt>
      <trkpt lat="42.32205033302307" lon="2.099783420562744">
        <ele>1205.64890091795</ele>
        <time>2021-07-14T19:27:06.871Z</time>
      </trkpt>
      <trkpt lat="42.32203960418701" lon="2.099590301513672">
        <ele>1206.2302779048591</ele>
        <time>2021-07-14T19:27:08.074Z</time>
      </trkpt>
      <trkpt lat="42.321985960006714" lon="2.0993220806121826">
        <ele>1206.7177969141505</ele>
        <time>2021-07-14T19:27:09.281Z</time>
      </trkpt>
      <trkpt lat="42.321921586990356" lon="2.0991718769073486">
        <ele>1207.0656513041658</ele>
        <time>2021-07-14T19:27:10.490Z</time>
      </trkpt>
      <trkpt lat="42.32177138328552" lon="2.099064588546753">
        <ele>1207.2505858473805</ele>
        <time>2021-07-14T19:27:11.701Z</time>
      </trkpt>
      <trkpt lat="42.32154607772827" lon="2.098935842514038">
        <ele>1207.3328101983698</ele>
        <time>2021-07-14T19:27:12.916Z</time>
      </trkpt>
      <trkpt lat="42.32109546661377" lon="2.0984530448913574">
        <ele>1207.464832328547</ele>
        <time>2021-07-14T19:27:14.141Z</time>
      </trkpt>
      <trkpt lat="42.32078433036804" lon="2.0982491970062256">
        <ele>1207.3278301778523</ele>
        <time>2021-07-14T19:27:15.371Z</time>
      </trkpt>
      <trkpt lat="42.32040882110596" lon="2.0981526374816895">
        <ele>1206.923210462744</ele>
        <time>2021-07-14T19:27:16.607Z</time>
      </trkpt>
      <trkpt lat="42.3202908039093" lon="2.0980024337768555">
        <ele>1206.5991983139475</ele>
        <time>2021-07-14T19:27:17.846Z</time>
      </trkpt>
      <trkpt lat="42.320215702056885" lon="2.097787857055664">
        <ele>1206.2268790612159</ele>
        <time>2021-07-14T19:27:19.088Z</time>
      </trkpt>
      <trkpt lat="42.320183515548706" lon="2.0976805686950684">
        <ele>1205.6975726556552</ele>
        <time>2021-07-14T19:27:20.331Z</time>
      </trkpt>
      <trkpt lat="42.32017278671265" lon="2.0973801612854004">
        <ele>1205.097127544247</ele>
        <time>2021-07-14T19:27:21.578Z</time>
      </trkpt>
      <trkpt lat="42.320215702056885" lon="2.0971763134002686">
        <ele>1204.2470240632317</ele>
        <time>2021-07-14T19:27:22.827Z</time>
      </trkpt>
      <trkpt lat="42.3202908039093" lon="2.096940279006958">
        <ele>1203.2928196484236</ele>
        <time>2021-07-14T19:27:24.079Z</time>
      </trkpt>
      <trkpt lat="42.32038736343384" lon="2.096714973449707">
        <ele>1202.2495347823583</ele>
        <time>2021-07-14T19:27:25.334Z</time>
      </trkpt>
      <trkpt lat="42.32052683830261" lon="2.0965003967285156">
        <ele>1201.0332843309616</ele>
        <time>2021-07-14T19:27:26.593Z</time>
      </trkpt>
      <trkpt lat="42.320741415023804" lon="2.096296548843384">
        <ele>1199.800994993934</ele>
        <time>2021-07-14T19:27:27.856Z</time>
      </trkpt>
      <trkpt lat="42.32083797454834" lon="2.0961356163024902">
        <ele>1198.5065333503023</ele>
        <time>2021-07-14T19:27:29.121Z</time>
      </trkpt>
      <trkpt lat="42.32085943222046" lon="2.0960068702697754">
        <ele>1197.0936854327929</ele>
        <time>2021-07-14T19:27:30.388Z</time>
      </trkpt>
      <trkpt lat="42.32085943222046" lon="2.0955777168273926">
        <ele>1195.4314662237584</ele>
        <time>2021-07-14T19:27:31.660Z</time>
      </trkpt>
      <trkpt lat="42.32091307640076" lon="2.0945584774017334">
        <ele>1193.5413550072658</ele>
        <time>2021-07-14T19:27:32.944Z</time>
      </trkpt>
      <trkpt lat="42.32085943222046" lon="2.094322443008423">
        <ele>1191.8983310632689</ele>
        <time>2021-07-14T19:27:34.231Z</time>
      </trkpt>
      <trkpt lat="42.32087016105652" lon="2.0940327644348145">
        <ele>1190.2813376623062</ele>
        <time>2021-07-14T19:27:35.521Z</time>
      </trkpt>
      <trkpt lat="42.32092388905585" lon="2.093743085861206">
        <ele>1188.702607662022</ele>
        <time>2021-07-14T19:27:36.815Z</time>
      </trkpt>
      <trkpt lat="42.320923805236816" lon="2.093743085861206">
        <ele>1187.224149566074</ele>
        <time>2021-07-14T19:27:38.109Z</time>
      </trkpt>
      <trkpt lat="42.320988178253174" lon="2.093549966812134">
        <ele>1185.7300079523316</ele>
        <time>2021-07-14T19:27:39.405Z</time>
      </trkpt>
      <trkpt lat="42.321224212646484" lon="2.0931315422058105">
        <ele>1184.1533877922527</ele>
        <time>2021-07-14T19:27:40.708Z</time>
      </trkpt>
      <trkpt lat="42.32133150100708" lon="2.092916965484619">
        <ele>1182.6312771058513</ele>
        <time>2021-07-14T19:27:42.014Z</time>
      </trkpt>
      <trkpt lat="42.32141733169556" lon="2.092798948287964">
        <ele>1181.1582182833022</ele>
        <time>2021-07-14T19:27:43.322Z</time>
      </trkpt>
      <trkpt lat="42.321492433547974" lon="2.092745304107666">
        <ele>1179.79504342591</ele>
        <time>2021-07-14T19:27:44.631Z</time>
      </trkpt>
      <trkpt lat="42.321696281433105" lon="2.092766761779785">
        <ele>1178.5858818754305</ele>
        <time>2021-07-14T19:27:45.943Z</time>
      </trkpt>
      <trkpt lat="42.32178211212158" lon="2.0928096771240234">
        <ele>1177.3712902429515</ele>
        <time>2021-07-14T19:27:47.257Z</time>
      </trkpt>
      <trkpt lat="42.32202887535095" lon="2.0929813385009766">
        <ele>1176.323545551572</ele>
        <time>2021-07-14T19:27:48.575Z</time>
      </trkpt>
      <trkpt lat="42.32235074043274" lon="2.0931851863861084">
        <ele>1175.3412817181904</ele>
        <time>2021-07-14T19:27:49.899Z</time>
      </trkpt>
      <trkpt lat="42.322447299957275" lon="2.0932066440582275">
        <ele>1174.237446712971</ele>
        <time>2021-07-14T19:27:51.225Z</time>
      </trkpt>
      <trkpt lat="42.32250094413757" lon="2.0932066440582275">
        <ele>1173.175061133134</ele>
        <time>2021-07-14T19:27:52.551Z</time>
      </trkpt>
      <trkpt lat="42.32257604598999" lon="2.0931637287139893">
        <ele>1172.1489499842044</ele>
        <time>2021-07-14T19:27:53.879Z</time>
      </trkpt>
      <trkpt lat="42.32260823249817" lon="2.0930886268615723">
        <ele>1171.0934843309044</ele>
        <time>2021-07-14T19:27:55.208Z</time>
      </trkpt>
      <trkpt lat="42.32262969017029" lon="2.092949151992798">
        <ele>1170.01592780286</ele>
        <time>2021-07-14T19:27:56.538Z</time>
      </trkpt>
      <trkpt lat="42.32265114784241" lon="2.092745304107666">
        <ele>1168.9255671246287</ele>
        <time>2021-07-14T19:27:57.871Z</time>
      </trkpt>
      <trkpt lat="42.32258677482605" lon="2.0926272869110107">
        <ele>1167.8409818211924</ele>
        <time>2021-07-14T19:27:59.206Z</time>
      </trkpt>
      <trkpt lat="42.32251167297363" lon="2.0925629138946533">
        <ele>1166.8102967183818</ele>
        <time>2021-07-14T19:28:00.542Z</time>
      </trkpt>
      <trkpt lat="42.322447299957275" lon="2.092466354370117">
        <ele>1165.8115133127578</ele>
        <time>2021-07-14T19:28:01.880Z</time>
      </trkpt>
      <trkpt lat="42.322232723236084" lon="2.0917582511901855">
        <ele>1164.8116211471934</ele>
        <time>2021-07-14T19:28:03.227Z</time>
      </trkpt>
      <trkpt lat="42.32213616371155" lon="2.0915329456329346">
        <ele>1163.8992017621745</ele>
        <time>2021-07-14T19:28:04.577Z</time>
      </trkpt>
      <trkpt lat="42.32209324836731" lon="2.091350555419922">
        <ele>1163.0514149810472</ele>
        <time>2021-07-14T19:28:05.929Z</time>
      </trkpt>
      <trkpt lat="42.32207179069519" lon="2.0911574363708496">
        <ele>1162.2781869834512</ele>
        <time>2021-07-14T19:28:07.283Z</time>
      </trkpt>
      <trkpt lat="42.32208251953125" lon="2.0909643173217773">
        <ele>1161.62476603204</ele>
        <time>2021-07-14T19:28:08.640Z</time>
      </trkpt>
      <trkpt lat="42.322179079055786" lon="2.0904922485351562">
        <ele>1161.2055220429215</ele>
        <time>2021-07-14T19:28:10.002Z</time>
      </trkpt>
      <trkpt lat="42.322200536727905" lon="2.090224027633667">
        <ele>1160.5619259902658</ele>
        <time>2021-07-14T19:28:11.368Z</time>
      </trkpt>
      <trkpt lat="42.32216835021973" lon="2.09014892578125">
        <ele>1159.8575793569375</ele>
        <time>2021-07-14T19:28:12.735Z</time>
      </trkpt>
      <trkpt lat="42.32212543487549" lon="2.0901060104370117">
        <ele>1159.1596510018817</ele>
        <time>2021-07-14T19:28:14.103Z</time>
      </trkpt>
      <trkpt lat="42.32190012931824" lon="2.0900416374206543">
        <ele>1158.2136189704029</ele>
        <time>2021-07-14T19:28:15.474Z</time>
      </trkpt>
      <trkpt lat="42.32176065444946" lon="2.08990216255188">
        <ele>1157.420331777207</ele>
        <time>2021-07-14T19:28:16.848Z</time>
      </trkpt>
      <trkpt lat="42.321728467941284" lon="2.0898163318634033">
        <ele>1156.813799554055</ele>
        <time>2021-07-14T19:28:18.223Z</time>
      </trkpt>
      <trkpt lat="42.321717739105225" lon="2.089719772338867">
        <ele>1156.2670879167817</ele>
        <time>2021-07-14T19:28:19.599Z</time>
      </trkpt>
      <trkpt lat="42.321728551760316" lon="2.08939790725708">
        <ele>1155.779890961438</ele>
        <time>2021-07-14T19:28:20.979Z</time>
      </trkpt>
      <trkpt lat="42.321728467941284" lon="2.08939790725708">
        <ele>1155.3029358867636</ele>
        <time>2021-07-14T19:28:22.359Z</time>
      </trkpt>
      <trkpt lat="42.32177138328552" lon="2.089226245880127">
        <ele>1154.9174482165804</ele>
        <time>2021-07-14T19:28:23.741Z</time>
      </trkpt>
      <trkpt lat="42.321985960006714" lon="2.08864688873291">
        <ele>1154.5455452157044</ele>
        <time>2021-07-14T19:28:25.131Z</time>
      </trkpt>
      <trkpt lat="42.32211470603943" lon="2.0881426334381104">
        <ele>1154.195159373287</ele>
        <time>2021-07-14T19:28:26.527Z</time>
      </trkpt>
      <trkpt lat="42.322179079055786" lon="2.0879924297332764">
        <ele>1153.8711483119293</ele>
        <time>2021-07-14T19:28:27.925Z</time>
      </trkpt>
      <trkpt lat="42.32238292694092" lon="2.0876383781433105">
        <ele>1153.7486033867758</ele>
        <time>2021-07-14T19:28:29.329Z</time>
      </trkpt>
      <trkpt lat="42.32238292694092" lon="2.087531089782715">
        <ele>1153.31966293923</ele>
        <time>2021-07-14T19:28:30.734Z</time>
      </trkpt>
      <trkpt lat="42.32229709625244" lon="2.087273597717285">
        <ele>1152.6329052566803</ele>
        <time>2021-07-14T19:28:32.142Z</time>
      </trkpt>
      <trkpt lat="42.32226490974426" lon="2.0871126651763916">
        <ele>1152.1188899079402</ele>
        <time>2021-07-14T19:28:33.552Z</time>
      </trkpt>
      <trkpt lat="42.32226490974426" lon="2.0869839191436768">
        <ele>1151.7089338141136</ele>
        <time>2021-07-14T19:28:34.964Z</time>
      </trkpt>
      <trkpt lat="42.32232928276062" lon="2.086726427078247">
        <ele>1151.355612256772</ele>
        <time>2021-07-14T19:28:36.379Z</time>
      </trkpt>
      <trkpt lat="42.322468757629395" lon="2.086458206176758">
        <ele>1151.1050591261064</ele>
        <time>2021-07-14T19:28:37.798Z</time>
      </trkpt>
      <trkpt lat="42.32258677482605" lon="2.0863401889801025">
        <ele>1150.878602837612</ele>
        <time>2021-07-14T19:28:39.219Z</time>
      </trkpt>
      <trkpt lat="42.32277989387512" lon="2.0862114429473877">
        <ele>1150.770145859302</ele>
        <time>2021-07-14T19:28:40.644Z</time>
      </trkpt>
      <trkpt lat="42.32306957244873" lon="2.086082696914673">
        <ele>1150.8065578060612</ele>
        <time>2021-07-14T19:28:42.074Z</time>
      </trkpt>
      <trkpt lat="42.32312321662903" lon="2.0860183238983154">
        <ele>1150.5933994642633</ele>
        <time>2021-07-14T19:28:43.505Z</time>
      </trkpt>
      <trkpt lat="42.32315540313721" lon="2.085932493209839">
        <ele>1150.3352338220936</ele>
        <time>2021-07-14T19:28:44.937Z</time>
      </trkpt>
      <trkpt lat="42.32315540313721" lon="2.0854926109313965">
        <ele>1149.7764463245458</ele>
        <time>2021-07-14T19:28:46.374Z</time>
      </trkpt>
      <trkpt lat="42.323187589645386" lon="2.0853960514068604">
        <ele>1149.5865828789488</ele>
        <time>2021-07-14T19:28:47.812Z</time>
      </trkpt>
      <trkpt lat="42.32325196266174" lon="2.085278034210205">
        <ele>1149.4409873153188</ele>
        <time>2021-07-14T19:28:49.252Z</time>
      </trkpt>
      <trkpt lat="42.32360601425171" lon="2.0847952365875244">
        <ele>1149.6808976019693</ele>
        <time>2021-07-14T19:28:50.700Z</time>
      </trkpt>
      <trkpt lat="42.32362747192383" lon="2.0847415924072266">
        <ele>1149.6161061675461</ele>
        <time>2021-07-14T19:28:52.149Z</time>
      </trkpt>
      <trkpt lat="42.32362747192383" lon="2.084677219390869">
        <ele>1149.532084571832</ele>
        <time>2021-07-14T19:28:53.599Z</time>
      </trkpt>
      <trkpt lat="42.32359528541565" lon="2.084580659866333">
        <ele>1149.4157905105078</ele>
        <time>2021-07-14T19:28:55.050Z</time>
      </trkpt>
      <trkpt lat="42.323488080874085" lon="2.0844411849975586">
        <ele>1149.1983996943577</ele>
        <time>2021-07-14T19:28:56.503Z</time>
      </trkpt>
      <trkpt lat="42.32330560684204" lon="2.0843231678009033">
        <ele>1148.8687721417728</ele>
        <time>2021-07-14T19:28:57.960Z</time>
      </trkpt>
      <trkpt lat="42.32314467430115" lon="2.084205150604248">
        <ele>1148.6927344911314</ele>
        <time>2021-07-14T19:28:59.419Z</time>
      </trkpt>
      <trkpt lat="42.32311248779297" lon="2.084130048751831">
        <ele>1148.6788603704613</ele>
        <time>2021-07-14T19:29:00.879Z</time>
      </trkpt>
      <trkpt lat="42.32299447059631" lon="2.083711624145508">
        <ele>1148.7806625434291</ele>
        <time>2021-07-14T19:29:02.345Z</time>
      </trkpt>
      <trkpt lat="42.322973012924194" lon="2.0835936069488525">
        <ele>1148.905295660024</ele>
        <time>2021-07-14T19:29:03.812Z</time>
      </trkpt>
      <trkpt lat="42.322973012924194" lon="2.0834755897521973">
        <ele>1149.0892017833821</ele>
        <time>2021-07-14T19:29:05.281Z</time>
      </trkpt>
      <trkpt lat="42.32300519943237" lon="2.083207368850708">
        <ele>1149.4212322972758</ele>
        <time>2021-07-14T19:29:06.753Z</time>
      </trkpt>
      <trkpt lat="42.32305884361267" lon="2.0830249786376953">
        <ele>1149.6401722343498</ele>
        <time>2021-07-14T19:29:08.227Z</time>
      </trkpt>
      <trkpt lat="42.32316613197327" lon="2.082810401916504">
        <ele>1149.625957472559</ele>
        <time>2021-07-14T19:29:09.704Z</time>
      </trkpt>
      <trkpt lat="42.323241233825684" lon="2.082606554031372">
        <ele>1149.625001011282</ele>
        <time>2021-07-14T19:29:11.184Z</time>
      </trkpt>
      <trkpt lat="42.32330560684204" lon="2.0824670791625977">
        <ele>1149.712730321335</ele>
        <time>2021-07-14T19:29:12.666Z</time>
      </trkpt>
      <trkpt lat="42.323681116104126" lon="2.0819950103759766">
        <ele>1150.4350031801805</ele>
        <time>2021-07-14T19:29:14.156Z</time>
      </trkpt>
      <trkpt lat="42.323724031448364" lon="2.0818984508514404">
        <ele>1150.7541042119453</ele>
        <time>2021-07-14T19:29:15.647Z</time>
      </trkpt>
      <trkpt lat="42.323724031448364" lon="2.0818018913269043">
        <ele>1151.0006417219402</ele>
        <time>2021-07-14T19:29:17.140Z</time>
      </trkpt>
      <trkpt lat="42.323713302612305" lon="2.0815229415893555">
        <ele>1151.232390107744</ele>
        <time>2021-07-14T19:29:18.636Z</time>
      </trkpt>
      <trkpt lat="42.32374548912048" lon="2.0811688899993896">
        <ele>1151.6516783317816</ele>
        <time>2021-07-14T19:29:20.136Z</time>
      </trkpt>
      <trkpt lat="42.32365965843201" lon="2.0804715156555176">
        <ele>1151.8337970251036</ele>
        <time>2021-07-14T19:29:21.645Z</time>
      </trkpt>
      <trkpt lat="42.323670387268066" lon="2.079634666442871">
        <ele>1152.1421187741184</ele>
        <time>2021-07-14T19:29:23.163Z</time>
      </trkpt>
      <trkpt lat="42.32358455657959" lon="2.0789265632629395">
        <ele>1152.3842430404559</ele>
        <time>2021-07-14T19:29:24.690Z</time>
      </trkpt>
      <trkpt lat="42.32354164123535" lon="2.078261375427246">
        <ele>1152.7217729916688</ele>
        <time>2021-07-14T19:29:26.225Z</time>
      </trkpt>
      <trkpt lat="42.3233699798584" lon="2.07716703414917">
        <ele>1153.2608473801195</ele>
        <time>2021-07-14T19:29:27.773Z</time>
      </trkpt>
      <trkpt lat="42.32316613197327" lon="2.076544761657715">
        <ele>1153.7696895052386</ele>
        <time>2021-07-14T19:29:29.329Z</time>
      </trkpt>
      <trkpt lat="42.322951555252075" lon="2.076061964035034">
        <ele>1154.0493402293578</ele>
        <time>2021-07-14T19:29:30.892Z</time>
      </trkpt>
      <trkpt lat="42.32290863990784" lon="2.0759010314941406">
        <ele>1154.48829598166</ele>
        <time>2021-07-14T19:29:32.457Z</time>
      </trkpt>
      <trkpt lat="42.32288718223572" lon="2.075471878051758">
        <ele>1155.0127580273102</ele>
        <time>2021-07-14T19:29:34.027Z</time>
      </trkpt>
      <trkpt lat="42.32279062271118" lon="2.0750319957733154">
        <ele>1155.441223160381</ele>
        <time>2021-07-14T19:29:35.603Z</time>
      </trkpt>
      <trkpt lat="42.322715520858765" lon="2.0743024349212646">
        <ele>1156.1317399185796</ele>
        <time>2021-07-14T19:29:37.187Z</time>
      </trkpt>
      <trkpt lat="42.322683334350586" lon="2.07417368888855">
        <ele>1156.598722155005</ele>
        <time>2021-07-14T19:29:38.773Z</time>
      </trkpt>
      <trkpt lat="42.322468757629395" lon="2.073647975921631">
        <ele>1156.8610539200747</ele>
        <time>2021-07-14T19:29:40.366Z</time>
      </trkpt>
      <trkpt lat="42.32215762138367" lon="2.0727360248565674">
        <ele>1157.6394057393218</ele>
        <time>2021-07-14T19:29:41.971Z</time>
      </trkpt>
      <trkpt lat="42.322018230333924" lon="2.072521448135376">
        <ele>1158.1346216301858</ele>
        <time>2021-07-14T19:29:43.579Z</time>
      </trkpt>
      <trkpt lat="42.32201814651489" lon="2.072521448135376">
        <ele>1158.694725841276</ele>
        <time>2021-07-14T19:29:45.187Z</time>
      </trkpt>
      <trkpt lat="42.32186794281006" lon="2.0722639560699463">
        <ele>1159.2153344273852</ele>
        <time>2021-07-14T19:29:46.799Z</time>
      </trkpt>
      <trkpt lat="42.321728467941284" lon="2.071716785430908">
        <ele>1159.9146649204704</ele>
        <time>2021-07-14T19:29:48.418Z</time>
      </trkpt>
      <trkpt lat="42.32156753540039" lon="2.0714378356933594">
        <ele>1160.510203741775</ele>
        <time>2021-07-14T19:29:50.041Z</time>
      </trkpt>
      <trkpt lat="42.321460247039795" lon="2.0711910724639893">
        <ele>1161.2503573073009</ele>
        <time>2021-07-14T19:29:51.668Z</time>
      </trkpt>
      <trkpt lat="42.321438789367676" lon="2.070997953414917">
        <ele>1162.0892860497995</ele>
        <time>2021-07-14T19:29:53.297Z</time>
      </trkpt>
      <trkpt lat="42.321471059694886" lon="2.070901393890381">
        <ele>1163.0157941313466</ele>
        <time>2021-07-14T19:29:54.927Z</time>
      </trkpt>
      <trkpt lat="42.32164263725281" lon="2.0704400539398193">
        <ele>1163.9561126044457</ele>
        <time>2021-07-14T19:29:56.563Z</time>
      </trkpt>
      <trkpt lat="42.32165336608887" lon="2.070322036743164">
        <ele>1164.9931005772569</ele>
        <time>2021-07-14T19:29:58.201Z</time>
      </trkpt>
      <trkpt lat="42.32162117958069" lon="2.0697426795959473">
        <ele>1166.0766053171765</ele>
        <time>2021-07-14T19:29:59.846Z</time>
      </trkpt>
      <trkpt lat="42.32163190841675" lon="2.069528102874756">
        <ele>1167.4188512699413</ele>
        <time>2021-07-14T19:30:01.493Z</time>
      </trkpt>
      <trkpt lat="42.321685552597046" lon="2.0693671703338623">
        <ele>1168.8848853841814</ele>
        <time>2021-07-14T19:30:03.142Z</time>
      </trkpt>
      <trkpt lat="42.32186794281006" lon="2.069120407104492">
        <ele>1170.3884986716719</ele>
        <time>2021-07-14T19:30:04.795Z</time>
      </trkpt>
      <trkpt lat="42.321943044662476" lon="2.069045305252075">
        <ele>1172.0309804136946</ele>
        <time>2021-07-14T19:30:06.450Z</time>
      </trkpt>
      <trkpt lat="42.32207179069519" lon="2.069002389907837">
        <ele>1173.7689645279836</ele>
        <time>2021-07-14T19:30:08.107Z</time>
      </trkpt>
      <trkpt lat="42.322436571121216" lon="2.0689594745635986">
        <ele>1175.4077636482923</ele>
        <time>2021-07-14T19:30:09.770Z</time>
      </trkpt>
      <trkpt lat="42.3226619604975" lon="2.068895101547241">
        <ele>1177.5183403466485</ele>
        <time>2021-07-14T19:30:11.437Z</time>
      </trkpt>
      <trkpt lat="42.32266187667847" lon="2.068895101547241">
        <ele>1179.5443561414368</ele>
        <time>2021-07-14T19:30:13.104Z</time>
      </trkpt>
      <trkpt lat="42.322951555252075" lon="2.0688092708587646">
        <ele>1182.0404093954178</ele>
        <time>2021-07-14T19:30:14.775Z</time>
      </trkpt>
      <trkpt lat="42.32309103012085" lon="2.0687341690063477">
        <ele>1184.3169861768747</ele>
        <time>2021-07-14T19:30:16.449Z</time>
      </trkpt>
      <trkpt lat="42.32330560684204" lon="2.0685625076293945">
        <ele>1186.5889623579235</ele>
        <time>2021-07-14T19:30:18.127Z</time>
      </trkpt>
      <trkpt lat="42.32340216636658" lon="2.0684337615966797">
        <ele>1189.0206438006214</ele>
        <time>2021-07-14T19:30:19.807Z</time>
      </trkpt>
      <trkpt lat="42.32379913330078" lon="2.067232131958008">
        <ele>1191.8169413376147</ele>
        <time>2021-07-14T19:30:21.503Z</time>
      </trkpt>
      <trkpt lat="42.32439994812012" lon="2.0651936531066895">
        <ele>1194.5534781316142</ele>
        <time>2021-07-14T19:30:23.225Z</time>
      </trkpt>
      <trkpt lat="42.32460379600525" lon="2.064077854156494">
        <ele>1197.5210622662578</ele>
        <time>2021-07-14T19:30:24.960Z</time>
      </trkpt>
      <trkpt lat="42.324700355529785" lon="2.063702344894409">
        <ele>1200.4308432039982</ele>
        <time>2021-07-14T19:30:26.700Z</time>
      </trkpt>
      <trkpt lat="42.32491493225098" lon="2.063080072402954">
        <ele>1203.010936094557</ele>
        <time>2021-07-14T19:30:28.448Z</time>
      </trkpt>
      <trkpt lat="42.324979305267334" lon="2.0625972747802734">
        <ele>1205.4997239070074</ele>
        <time>2021-07-14T19:30:30.202Z</time>
      </trkpt>
      <trkpt lat="42.32502222061157" lon="2.0615029335021973">
        <ele>1208.2532983747774</ele>
        <time>2021-07-14T19:30:31.969Z</time>
      </trkpt>
      <trkpt lat="42.32500076293945" lon="2.059732675552368">
        <ele>1211.1211081506844</ele>
        <time>2021-07-14T19:30:33.757Z</time>
      </trkpt>
      <trkpt lat="42.32503294944763" lon="2.0596039295196533">
        <ele>1213.7711644209953</ele>
        <time>2021-07-14T19:30:35.547Z</time>
      </trkpt>
      <trkpt lat="42.32524752616882" lon="2.0588207244873047">
        <ele>1216.8110430893455</ele>
        <time>2021-07-14T19:30:37.346Z</time>
      </trkpt>
      <trkpt lat="42.32531189918518" lon="2.058659791946411">
        <ele>1219.482786961055</ele>
        <time>2021-07-14T19:30:39.148Z</time>
      </trkpt>
      <trkpt lat="42.3253870010376" lon="2.0584988594055176">
        <ele>1221.8215845326645</ele>
        <time>2021-07-14T19:30:40.952Z</time>
      </trkpt>
      <trkpt lat="42.32564449310303" lon="2.0581018924713135">
        <ele>1224.2697842560287</ele>
        <time>2021-07-14T19:30:42.762Z</time>
      </trkpt>
      <trkpt lat="42.32606291770935" lon="2.0572972297668457">
        <ele>1226.3977189466918</ele>
        <time>2021-07-14T19:30:44.584Z</time>
      </trkpt>
      <trkpt lat="42.326180934906006" lon="2.0570290088653564">
        <ele>1228.8873794953183</ele>
        <time>2021-07-14T19:30:46.409Z</time>
      </trkpt>
      <trkpt lat="42.32625603675842" lon="2.056717872619629">
        <ele>1230.8920130365245</ele>
        <time>2021-07-14T19:30:48.238Z</time>
      </trkpt>
      <trkpt lat="42.32632040977478" lon="2.0563316345214844">
        <ele>1232.9942177187215</ele>
        <time>2021-07-14T19:30:50.072Z</time>
      </trkpt>
      <trkpt lat="42.32633113861084" lon="2.056138515472412">
        <ele>1234.9800721651345</ele>
        <time>2021-07-14T19:30:51.908Z</time>
      </trkpt>
      <trkpt lat="42.3262882232666" lon="2.055462598800659">
        <ele>1236.8796172984144</ele>
        <time>2021-07-14T19:30:53.752Z</time>
      </trkpt>
      <trkpt lat="42.326234579086304" lon="2.055269479751587">
        <ele>1238.7441231572775</ele>
        <time>2021-07-14T19:30:55.599Z</time>
      </trkpt>
      <trkpt lat="42.32599854469299" lon="2.0548617839813232">
        <ele>1240.5052036530674</ele>
        <time>2021-07-14T19:30:57.452Z</time>
      </trkpt>
      <trkpt lat="42.325730323791504" lon="2.054615020751953">
        <ele>1242.1587397831436</ele>
        <time>2021-07-14T19:30:59.310Z</time>
      </trkpt>
      <trkpt lat="42.32563376426697" lon="2.054464817047119">
        <ele>1243.9188041271568</ele>
        <time>2021-07-14T19:31:01.171Z</time>
      </trkpt>
      <trkpt lat="42.32559084892273" lon="2.0544004440307617">
        <ele>1245.4588715241314</ele>
        <time>2021-07-14T19:31:03.033Z</time>
      </trkpt>
      <trkpt lat="42.32552647590637" lon="2.05419659614563">
        <ele>1247.1134295514403</ele>
        <time>2021-07-14T19:31:04.897Z</time>
      </trkpt>
      <trkpt lat="42.32550501823425" lon="2.0539605617523193">
        <ele>1248.50892933276</ele>
        <time>2021-07-14T19:31:06.764Z</time>
      </trkpt>
      <trkpt lat="42.32550501823425" lon="2.053842544555664">
        <ele>1249.667311585158</ele>
        <time>2021-07-14T19:31:08.632Z</time>
      </trkpt>
      <trkpt lat="42.32563376426697" lon="2.0532846450805664">
        <ele>1250.8887510271034</ele>
        <time>2021-07-14T19:31:10.507Z</time>
      </trkpt>
      <trkpt lat="42.32563376426697" lon="2.052919864654541">
        <ele>1251.9182844342981</ele>
        <time>2021-07-14T19:31:12.387Z</time>
      </trkpt>
      <trkpt lat="42.32560157775879" lon="2.052748203277588">
        <ele>1252.8905999245294</ele>
        <time>2021-07-14T19:31:14.269Z</time>
      </trkpt>
      <trkpt lat="42.32553720474243" lon="2.052490711212158">
        <ele>1253.7991122632197</ele>
        <time>2021-07-14T19:31:16.154Z</time>
      </trkpt>
      <trkpt lat="42.325236797332764" lon="2.0515143871307373">
        <ele>1254.50851242808</ele>
        <time>2021-07-14T19:31:18.052Z</time>
      </trkpt>
      <trkpt lat="42.32486137188971" lon="2.05045223236084">
        <ele>1254.97033231101</ele>
        <time>2021-07-14T19:31:19.964Z</time>
      </trkpt>
      <trkpt lat="42.32486128807068" lon="2.05045223236084">
        <ele>1255.7069944232487</ele>
        <time>2021-07-14T19:31:21.876Z</time>
      </trkpt>
      <trkpt lat="42.32478627003729" lon="2.0502376556396484">
        <ele>1256.5474806487905</ele>
        <time>2021-07-14T19:31:23.790Z</time>
      </trkpt>
      <trkpt lat="42.32456088066101" lon="2.049626111984253">
        <ele>1257.3806854379545</ele>
        <time>2021-07-14T19:31:25.712Z</time>
      </trkpt>
      <trkpt lat="42.32441067695618" lon="2.049347162246704">
        <ele>1258.0035402945934</ele>
        <time>2021-07-14T19:31:27.639Z</time>
      </trkpt>
      <trkpt lat="42.324217557907104" lon="2.0490682125091553">
        <ele>1258.656558175977</ele>
        <time>2021-07-14T19:31:29.570Z</time>
      </trkpt>
      <trkpt lat="42.3240674380213" lon="2.0489072799682617">
        <ele>1259.3513817042544</ele>
        <time>2021-07-14T19:31:31.504Z</time>
      </trkpt>
      <trkpt lat="42.32406735420227" lon="2.0489072799682617">
        <ele>1260.051904335256</ele>
        <time>2021-07-14T19:31:33.438Z</time>
      </trkpt>
      <trkpt lat="42.32385277748108" lon="2.048778533935547">
        <ele>1260.8243920274908</ele>
        <time>2021-07-14T19:31:35.376Z</time>
      </trkpt>
      <trkpt lat="42.32352018356323" lon="2.048628330230713">
        <ele>1261.7906393394733</ele>
        <time>2021-07-14T19:31:37.320Z</time>
      </trkpt>
      <trkpt lat="42.323434352874756" lon="2.048553228378296">
        <ele>1262.6304710913646</ele>
        <time>2021-07-14T19:31:39.265Z</time>
      </trkpt>
      <trkpt lat="42.32330569066107" lon="2.048370838165283">
        <ele>1263.5212326314218</ele>
        <time>2021-07-14T19:31:41.213Z</time>
      </trkpt>
      <trkpt lat="42.32330560684204" lon="2.048370838165283">
        <ele>1264.3835900932033</ele>
        <time>2021-07-14T19:31:43.161Z</time>
      </trkpt>
      <trkpt lat="42.323219776153564" lon="2.0480167865753174">
        <ele>1265.3241653394862</ele>
        <time>2021-07-14T19:31:45.114Z</time>
      </trkpt>
      <trkpt lat="42.32303738594055" lon="2.0476412773132324">
        <ele>1266.3545616808938</ele>
        <time>2021-07-14T19:31:47.072Z</time>
      </trkpt>
      <trkpt lat="42.32287645339966" lon="2.0472121238708496">
        <ele>1267.3600166772721</ele>
        <time>2021-07-14T19:31:49.036Z</time>
      </trkpt>
      <trkpt lat="42.32280135154724" lon="2.047104835510254">
        <ele>1268.3928543373531</ele>
        <time>2021-07-14T19:31:51.001Z</time>
      </trkpt>
      <trkpt lat="42.32265114784241" lon="2.046922445297241">
        <ele>1269.4534309778842</ele>
        <time>2021-07-14T19:31:52.970Z</time>
      </trkpt>
      <trkpt lat="42.32260823249817" lon="2.046804428100586">
        <ele>1270.6144187089576</ele>
        <time>2021-07-14T19:31:54.940Z</time>
      </trkpt>
      <trkpt lat="42.32259750366211" lon="2.0466971397399902">
        <ele>1271.8560314075476</ele>
        <time>2021-07-14T19:31:56.911Z</time>
      </trkpt>
      <trkpt lat="42.32255458831787" lon="2.0462679862976074">
        <ele>1273.2356027903902</ele>
        <time>2021-07-14T19:31:58.888Z</time>
      </trkpt>
      <trkpt lat="42.322479570284486" lon="2.0458710193634033">
        <ele>1274.6477423762503</ele>
        <time>2021-07-14T19:32:00.869Z</time>
      </trkpt>
      <trkpt lat="42.322468757629395" lon="2.0456349849700928">
        <ele>1276.1446977124729</ele>
        <time>2021-07-14T19:32:02.853Z</time>
      </trkpt>
      <trkpt lat="42.322490215301514" lon="2.0447874069213867">
        <ele>1277.9575591657679</ele>
        <time>2021-07-14T19:32:04.847Z</time>
      </trkpt>
      <trkpt lat="42.322479570284486" lon="2.044154405593872">
        <ele>1279.5968141201915</ele>
        <time>2021-07-14T19:32:06.849Z</time>
      </trkpt>
      <trkpt lat="42.322479486465454" lon="2.044154405593872">
        <ele>1281.1579727911794</ele>
        <time>2021-07-14T19:32:08.851Z</time>
      </trkpt>
      <trkpt lat="42.322436571121216" lon="2.042802572250366">
        <ele>1283.0669214707723</ele>
        <time>2021-07-14T19:32:10.869Z</time>
      </trkpt>
      <trkpt lat="42.32238292694092" lon="2.0424163341522217">
        <ele>1284.779846655822</ele>
        <time>2021-07-14T19:32:12.892Z</time>
      </trkpt>
      <trkpt lat="42.322221994400024" lon="2.0417511463165283">
        <ele>1286.5947612511345</ele>
        <time>2021-07-14T19:32:14.923Z</time>
      </trkpt>
      <trkpt lat="42.322179079055786" lon="2.0414185523986816">
        <ele>1288.3035471992355</ele>
        <time>2021-07-14T19:32:16.958Z</time>
      </trkpt>
      <trkpt lat="42.32213616371155" lon="2.0407211780548096">
        <ele>1289.9361290596053</ele>
        <time>2021-07-14T19:32:19.001Z</time>
      </trkpt>
      <trkpt lat="42.322243452072144" lon="2.039058208465576">
        <ele>1291.7933477785614</ele>
        <time>2021-07-14T19:32:21.064Z</time>
      </trkpt>
      <trkpt lat="42.322243452072144" lon="2.038682699203491">
        <ele>1293.4399101864278</ele>
        <time>2021-07-14T19:32:23.131Z</time>
      </trkpt>
      <trkpt lat="42.32212551869452" lon="2.037234306335449">
        <ele>1295.1156726521842</ele>
        <time>2021-07-14T19:32:25.216Z</time>
      </trkpt>
      <trkpt lat="42.32214689254761" lon="2.036944627761841">
        <ele>1296.5535456100088</ele>
        <time>2021-07-14T19:32:27.304Z</time>
      </trkpt>
      <trkpt lat="42.32216835021973" lon="2.036815881729126">
        <ele>1297.9235613282483</ele>
        <time>2021-07-14T19:32:29.394Z</time>
      </trkpt>
      <trkpt lat="42.322200536727905" lon="2.0366978645324707">
        <ele>1299.2579301165083</ele>
        <time>2021-07-14T19:32:31.485Z</time>
      </trkpt>
      <trkpt lat="42.32228636741638" lon="2.036569118499756">
        <ele>1300.5879050895064</ele>
        <time>2021-07-14T19:32:33.578Z</time>
      </trkpt>
      <trkpt lat="42.32238301075995" lon="2.036494016647339">
        <ele>1301.9534685423919</ele>
        <time>2021-07-14T19:32:35.673Z</time>
      </trkpt>
      <trkpt lat="42.32238292694092" lon="2.036494016647339">
        <ele>1303.1769213522794</ele>
        <time>2021-07-14T19:32:37.768Z</time>
      </trkpt>
      <trkpt lat="42.32254385948181" lon="2.0364511013031006">
        <ele>1304.3952490014176</ele>
        <time>2021-07-14T19:32:39.866Z</time>
      </trkpt>
      <trkpt lat="42.32305884361267" lon="2.0362043380737305">
        <ele>1305.8683887520049</ele>
        <time>2021-07-14T19:32:41.972Z</time>
      </trkpt>
      <trkpt lat="42.32355237007141" lon="2.035936117172241">
        <ele>1307.1390823195688</ele>
        <time>2021-07-14T19:32:44.087Z</time>
      </trkpt>
      <trkpt lat="42.32387431897223" lon="2.0356786251068115">
        <ele>1308.172472599219</ele>
        <time>2021-07-14T19:32:46.208Z</time>
      </trkpt>
      <trkpt lat="42.3242712020874" lon="2.035292387008667">
        <ele>1309.2406772014206</ele>
        <time>2021-07-14T19:32:48.337Z</time>
      </trkpt>
      <trkpt lat="42.324378490448" lon="2.035142183303833">
        <ele>1310.213081163004</ele>
        <time>2021-07-14T19:32:50.468Z</time>
      </trkpt>
      <trkpt lat="42.324442863464355" lon="2.035045623779297">
        <ele>1310.9217181146655</ele>
        <time>2021-07-14T19:32:52.601Z</time>
      </trkpt>
      <trkpt lat="42.324442863464355" lon="2.0349061489105225">
        <ele>1311.4490017337002</ele>
        <time>2021-07-14T19:32:54.735Z</time>
      </trkpt>
      <trkpt lat="42.32436776161194" lon="2.0347559452056885">
        <ele>1312.114651068059</ele>
        <time>2021-07-14T19:32:56.872Z</time>
      </trkpt>
      <trkpt lat="42.32426047325134" lon="2.034637928009033">
        <ele>1312.6582603951156</ele>
        <time>2021-07-14T19:32:59.011Z</time>
      </trkpt>
      <trkpt lat="42.324174642562866" lon="2.034616470336914">
        <ele>1313.11088457328</ele>
        <time>2021-07-14T19:33:01.151Z</time>
      </trkpt>
      <trkpt lat="42.32405662536621" lon="2.0346593856811523">
        <ele>1313.6127910407467</ele>
        <time>2021-07-14T19:33:03.293Z</time>
      </trkpt>
      <trkpt lat="42.32380994595587" lon="2.0350241661071777">
        <ele>1314.1736608415376</ele>
        <time>2021-07-14T19:33:05.441Z</time>
      </trkpt>
      <trkpt lat="42.32362747192383" lon="2.0352494716644287">
        <ele>1314.9705839581607</ele>
        <time>2021-07-14T19:33:07.593Z</time>
      </trkpt>
      <trkpt lat="42.323445081710815" lon="2.0354104042053223">
        <ele>1315.177214896737</ele>
        <time>2021-07-14T19:33:09.748Z</time>
      </trkpt>
      <trkpt lat="42.32333779335022" lon="2.03546404838562">
        <ele>1315.576216098444</ele>
        <time>2021-07-14T19:33:11.905Z</time>
      </trkpt>
      <trkpt lat="42.323230504989624" lon="2.0354747772216797">
        <ele>1316.0293816204246</ele>
        <time>2021-07-14T19:33:14.064Z</time>
      </trkpt>
      <trkpt lat="42.322973012924194" lon="2.0354318618774414">
        <ele>1316.4101947912482</ele>
        <time>2021-07-14T19:33:16.227Z</time>
      </trkpt>
      <trkpt lat="42.32274770736694" lon="2.0353353023529053">
        <ele>1317.0115536268909</ele>
        <time>2021-07-14T19:33:18.394Z</time>
      </trkpt>
      <trkpt lat="42.32266187667847" lon="2.0352494716644287">
        <ele>1317.748614930715</ele>
        <time>2021-07-14T19:33:20.563Z</time>
      </trkpt>
      <trkpt lat="42.32260823249817" lon="2.035142183303833">
        <ele>1318.5877093201057</ele>
        <time>2021-07-14T19:33:22.733Z</time>
      </trkpt>
      <trkpt lat="42.32259750366211" lon="2.0350348949432373">
        <ele>1319.5386051291161</ele>
        <time>2021-07-14T19:33:24.904Z</time>
      </trkpt>
      <trkpt lat="42.32260823249817" lon="2.034916877746582">
        <ele>1320.6530834260711</ele>
        <time>2021-07-14T19:33:27.077Z</time>
      </trkpt>
      <trkpt lat="42.322715520858765" lon="2.034670114517212">
        <ele>1321.931215551712</ele>
        <time>2021-07-14T19:33:29.253Z</time>
      </trkpt>
      <trkpt lat="42.32276916503906" lon="2.034487724304199">
        <ele>1323.2109380530724</ele>
        <time>2021-07-14T19:33:31.432Z</time>
      </trkpt>
      <trkpt lat="42.32284426689148" lon="2.0341014862060547">
        <ele>1324.8265868055128</ele>
        <time>2021-07-14T19:33:33.615Z</time>
      </trkpt>
      <trkpt lat="42.32288718223572" lon="2.033768892288208">
        <ele>1326.1324502019224</ele>
        <time>2021-07-14T19:33:35.802Z</time>
      </trkpt>
      <trkpt lat="42.32299447059631" lon="2.0335328578948975">
        <ele>1327.7175292076568</ele>
        <time>2021-07-14T19:33:37.993Z</time>
      </trkpt>
      <trkpt lat="42.32301592826843" lon="2.0334362983703613">
        <ele>1329.2322110601763</ele>
        <time>2021-07-14T19:33:40.185Z</time>
      </trkpt>
      <trkpt lat="42.32301592826843" lon="2.0330393314361572">
        <ele>1330.7488216141578</ele>
        <time>2021-07-14T19:33:42.382Z</time>
      </trkpt>
      <trkpt lat="42.32306957244873" lon="2.03271746635437">
        <ele>1332.3641773285754</ele>
        <time>2021-07-14T19:33:44.582Z</time>
      </trkpt>
      <trkpt lat="42.323219776153564" lon="2.0321059226989746">
        <ele>1334.2138464719906</ele>
        <time>2021-07-14T19:33:46.790Z</time>
      </trkpt>
      <trkpt lat="42.32332714833319" lon="2.0314407348632812">
        <ele>1336.0982120510428</ele>
        <time>2021-07-14T19:33:49.006Z</time>
      </trkpt>
      <trkpt lat="42.32337006367743" lon="2.0312368869781494">
        <ele>1337.9736813003533</ele>
        <time>2021-07-14T19:33:51.225Z</time>
      </trkpt>
      <trkpt lat="42.3233699798584" lon="2.0312368869781494">
        <ele>1339.7695809386612</ele>
        <time>2021-07-14T19:33:53.444Z</time>
      </trkpt>
      <trkpt lat="42.32340216636658" lon="2.0309364795684814">
        <ele>1341.7050119545763</ele>
        <time>2021-07-14T19:33:55.666Z</time>
      </trkpt>
      <trkpt lat="42.323434352874756" lon="2.0305395126342773">
        <ele>1343.7769478645828</ele>
        <time>2021-07-14T19:33:57.893Z</time>
      </trkpt>
      <trkpt lat="42.323423624038696" lon="2.0298314094543457">
        <ele>1345.7867199970237</ele>
        <time>2021-07-14T19:34:00.128Z</time>
      </trkpt>
      <trkpt lat="42.323487997055054" lon="2.0286941528320312">
        <ele>1347.8985212529367</ele>
        <time>2021-07-14T19:34:02.377Z</time>
      </trkpt>
      <trkpt lat="42.323487997055054" lon="2.0282649993896484">
        <ele>1349.7868039762093</ele>
        <time>2021-07-14T19:34:04.631Z</time>
      </trkpt>
      <trkpt lat="42.32353091239929" lon="2.0279860496520996">
        <ele>1351.9212340247134</ele>
        <time>2021-07-14T19:34:06.888Z</time>
      </trkpt>
      <trkpt lat="42.32353091239929" lon="2.0278680324554443">
        <ele>1353.859599310487</ele>
        <time>2021-07-14T19:34:09.147Z</time>
      </trkpt>
      <trkpt lat="42.32340216636658" lon="2.027524709701538">
        <ele>1355.4643819710805</ele>
        <time>2021-07-14T19:34:11.410Z</time>
      </trkpt>
      <trkpt lat="42.32338070869446" lon="2.0274388790130615">
        <ele>1357.2967734652054</ele>
        <time>2021-07-14T19:34:13.675Z</time>
      </trkpt>
      <trkpt lat="42.32334852218628" lon="2.0270097255706787">
        <ele>1359.3760795583762</ele>
        <time>2021-07-14T19:34:15.945Z</time>
      </trkpt>
      <trkpt lat="42.32311248779297" lon="2.026001214981079">
        <ele>1361.5172619338496</ele>
        <time>2021-07-14T19:34:18.227Z</time>
      </trkpt>
      <trkpt lat="42.32306957244873" lon="2.0258188247680664">
        <ele>1363.4103445104943</ele>
        <time>2021-07-14T19:34:20.511Z</time>
      </trkpt>
      <trkpt lat="42.32302665710449" lon="2.0253682136535645">
        <ele>1365.3390732320618</ele>
        <time>2021-07-14T19:34:22.801Z</time>
      </trkpt>
      <trkpt lat="42.32290863990784" lon="2.0248425006866455">
        <ele>1367.3636814657061</ele>
        <time>2021-07-14T19:34:25.097Z</time>
      </trkpt>
      <trkpt lat="42.32280135154724" lon="2.024531364440918">
        <ele>1369.159387378364</ele>
        <time>2021-07-14T19:34:27.397Z</time>
      </trkpt>
      <trkpt lat="42.32252240180969" lon="2.0239734649658203">
        <ele>1370.7802578841354</ele>
        <time>2021-07-14T19:34:29.705Z</time>
      </trkpt>
      <trkpt lat="42.3223614692688" lon="2.023705244064331">
        <ele>1372.5136904307462</ele>
        <time>2021-07-14T19:34:32.018Z</time>
      </trkpt>
      <trkpt lat="42.32201814651489" lon="2.023383378982544">
        <ele>1374.100373184998</ele>
        <time>2021-07-14T19:34:34.337Z</time>
      </trkpt>
      <trkpt lat="42.32183575630188" lon="2.023136615753174">
        <ele>1375.725220187334</ele>
        <time>2021-07-14T19:34:36.660Z</time>
      </trkpt>
      <trkpt lat="42.321717739105225" lon="2.0228469371795654">
        <ele>1377.3599517907414</ele>
        <time>2021-07-14T19:34:38.987Z</time>
      </trkpt>
      <trkpt lat="42.32165336608887" lon="2.022632360458374">
        <ele>1379.0112539456702</ele>
        <time>2021-07-14T19:34:41.317Z</time>
      </trkpt>
      <trkpt lat="42.32166409492493" lon="2.0224392414093018">
        <ele>1380.7428636244963</ele>
        <time>2021-07-14T19:34:43.649Z</time>
      </trkpt>
      <trkpt lat="42.321717739105225" lon="2.022278308868408">
        <ele>1382.4846616760944</ele>
        <time>2021-07-14T19:34:45.983Z</time>
      </trkpt>
      <trkpt lat="42.321932315826416" lon="2.021913528442383">
        <ele>1384.538773279639</ele>
        <time>2021-07-14T19:34:48.323Z</time>
      </trkpt>
      <trkpt lat="42.321953773498535" lon="2.0217204093933105">
        <ele>1386.1662975426573</ele>
        <time>2021-07-14T19:34:50.665Z</time>
      </trkpt>
      <trkpt lat="42.32190012931824" lon="2.021559476852417">
        <ele>1387.6308875677346</ele>
        <time>2021-07-14T19:34:53.009Z</time>
      </trkpt>
      <trkpt lat="42.321696281433105" lon="2.021334171295166">
        <ele>1388.8657661581983</ele>
        <time>2021-07-14T19:34:55.358Z</time>
      </trkpt>
      <trkpt lat="42.32163190841675" lon="2.0212268829345703">
        <ele>1390.3093380527557</ele>
        <time>2021-07-14T19:34:57.708Z</time>
      </trkpt>
      <trkpt lat="42.32153534889221" lon="2.0210015773773193">
        <ele>1391.9659749495968</ele>
        <time>2021-07-14T19:35:00.061Z</time>
      </trkpt>
      <trkpt lat="42.32151389122009" lon="2.0207977294921875">
        <ele>1393.5571919402782</ele>
        <time>2021-07-14T19:35:02.417Z</time>
      </trkpt>
      <trkpt lat="42.32154607772827" lon="2.0204973220825195">
        <ele>1395.1306451138657</ele>
        <time>2021-07-14T19:35:04.776Z</time>
      </trkpt>
      <trkpt lat="42.32162117958069" lon="2.0201754570007324">
        <ele>1396.6097237697772</ele>
        <time>2021-07-14T19:35:07.139Z</time>
      </trkpt>
      <trkpt lat="42.321674823760986" lon="2.0196926593780518">
        <ele>1398.29076677323</ele>
        <time>2021-07-14T19:35:09.508Z</time>
      </trkpt>
      <trkpt lat="42.32166409492493" lon="2.019456624984741">
        <ele>1399.799294054495</ele>
        <time>2021-07-14T19:35:11.880Z</time>
      </trkpt>
      <trkpt lat="42.32162117958069" lon="2.019209861755371">
        <ele>1401.2646445146174</ele>
        <time>2021-07-14T19:35:14.255Z</time>
      </trkpt>
      <trkpt lat="42.32157826423645" lon="2.0191025733947754">
        <ele>1402.687692456433</ele>
        <time>2021-07-14T19:35:16.631Z</time>
      </trkpt>
      <trkpt lat="42.32127785682678" lon="2.0187270641326904">
        <ele>1404.1371668341367</ele>
        <time>2021-07-14T19:35:19.014Z</time>
      </trkpt>
      <trkpt lat="42.321224296465516" lon="2.0186305046081543">
        <ele>1405.5090767166644</ele>
        <time>2021-07-14T19:35:21.398Z</time>
      </trkpt>
      <trkpt lat="42.321224212646484" lon="2.0186305046081543">
        <ele>1406.7960132334165</ele>
        <time>2021-07-14T19:35:23.782Z</time>
      </trkpt>
      <trkpt lat="42.321181297302246" lon="2.0185232162475586">
        <ele>1408.1372720474133</ele>
        <time>2021-07-14T19:35:26.168Z</time>
      </trkpt>
      <trkpt lat="42.32115983963013" lon="2.018437385559082">
        <ele>1409.4476909086834</ele>
        <time>2021-07-14T19:35:28.555Z</time>
      </trkpt>
      <trkpt lat="42.32115983963013" lon="2.0181477069854736">
        <ele>1410.8928684735602</ele>
        <time>2021-07-14T19:35:30.945Z</time>
      </trkpt>
      <trkpt lat="42.32109546661377" lon="2.0178043842315674">
        <ele>1412.1848115736555</ele>
        <time>2021-07-14T19:35:33.340Z</time>
      </trkpt>
      <trkpt lat="42.32109546661377" lon="2.01774001121521">
        <ele>1413.3795053398692</ele>
        <time>2021-07-14T19:35:35.735Z</time>
      </trkpt>
      <trkpt lat="42.321234941482544" lon="2.0173215866088867">
        <ele>1414.8994817035882</ele>
        <time>2021-07-14T19:35:38.136Z</time>
      </trkpt>
      <trkpt lat="42.321234941482544" lon="2.017192840576172">
        <ele>1416.031076776554</ele>
        <time>2021-07-14T19:35:40.538Z</time>
      </trkpt>
      <trkpt lat="42.32112765312195" lon="2.016291618347168">
        <ele>1417.081400053875</ele>
        <time>2021-07-14T19:35:42.951Z</time>
      </trkpt>
      <trkpt lat="42.32110619544983" lon="2.0158302783966064">
        <ele>1418.2358928355097</ele>
        <time>2021-07-14T19:35:45.370Z</time>
      </trkpt>
      <trkpt lat="42.32108473777771" lon="2.015519142150879">
        <ele>1419.3610191796597</ele>
        <time>2021-07-14T19:35:47.792Z</time>
      </trkpt>
      <trkpt lat="42.32106336392462" lon="2.015411853790283">
        <ele>1420.4333398382623</ele>
        <time>2021-07-14T19:35:50.216Z</time>
      </trkpt>
      <trkpt lat="42.320988262072206" lon="2.0151007175445557">
        <ele>1421.4616115467234</ele>
        <time>2021-07-14T19:35:52.644Z</time>
      </trkpt>
      <trkpt lat="42.32088088989258" lon="2.0146501064300537">
        <ele>1422.4962711843937</ele>
        <time>2021-07-14T19:35:55.077Z</time>
      </trkpt>
      <trkpt lat="42.32081651687622" lon="2.014317512512207">
        <ele>1423.5357367954266</ele>
        <time>2021-07-14T19:35:57.514Z</time>
      </trkpt>
      <trkpt lat="42.3207950592041" lon="2.0141994953155518">
        <ele>1424.7002061703945</ele>
        <time>2021-07-14T19:35:59.953Z</time>
      </trkpt>
      <trkpt lat="42.32080578804016" lon="2.014167308807373">
        <ele>1425.911906061165</ele>
        <time>2021-07-14T19:36:02.392Z</time>
      </trkpt>
      <trkpt lat="42.32080587185919" lon="2.0141029357910156">
        <ele>1427.1789945612536</ele>
        <time>2021-07-14T19:36:04.832Z</time>
      </trkpt>
      <trkpt lat="42.32078433036804" lon="2.0140814781188965">
        <ele>1428.5101695630656</ele>
        <time>2021-07-14T19:36:07.272Z</time>
      </trkpt>
      <trkpt lat="42.32076287269592" lon="2.014070749282837">
        <ele>1429.9084000832322</ele>
        <time>2021-07-14T19:36:09.713Z</time>
      </trkpt>
      <trkpt lat="42.320719957351685" lon="2.013974189758301">
        <ele>1431.4179513089962</ele>
        <time>2021-07-14T19:36:12.155Z</time>
      </trkpt>
      <trkpt lat="42.320698499679565" lon="2.0135128498077393">
        <ele>1433.0455830604067</ele>
        <time>2021-07-14T19:36:14.602Z</time>
      </trkpt>
      <trkpt lat="42.32066639699042" lon="2.013341188430786">
        <ele>1434.6923540223017</ele>
        <time>2021-07-14T19:36:17.052Z</time>
      </trkpt>
      <trkpt lat="42.32062339782715" lon="2.01324462890625">
        <ele>1436.4033330121156</ele>
        <time>2021-07-14T19:36:19.503Z</time>
      </trkpt>
      <trkpt lat="42.32056983746588" lon="2.013148069381714">
        <ele>1438.1768772731011</ele>
        <time>2021-07-14T19:36:21.955Z</time>
      </trkpt>
      <trkpt lat="42.32029088772833" lon="2.012890577316284">
        <ele>1440.2583262014107</ele>
        <time>2021-07-14T19:36:24.413Z</time>
      </trkpt>
      <trkpt lat="42.32020505703986" lon="2.0127511024475098">
        <ele>1442.2006399315255</ele>
        <time>2021-07-14T19:36:26.873Z</time>
      </trkpt>
      <trkpt lat="42.32000112533569" lon="2.0116782188415527">
        <ele>1444.1850128902618</ele>
        <time>2021-07-14T19:36:29.346Z</time>
      </trkpt>
      <trkpt lat="42.31981873512268" lon="2.0111310482025146">
        <ele>1446.4642379188685</ele>
        <time>2021-07-14T19:36:31.826Z</time>
      </trkpt>
      <trkpt lat="42.319732904434204" lon="2.0106589794158936">
        <ele>1448.618869955932</ele>
        <time>2021-07-14T19:36:34.312Z</time>
      </trkpt>
      <trkpt lat="42.31965780258179" lon="2.0103800296783447">
        <ele>1450.8469817457708</ele>
        <time>2021-07-14T19:36:36.801Z</time>
      </trkpt>
      <trkpt lat="42.31959342956543" lon="2.0098650455474854">
        <ele>1453.2928022269123</ele>
        <time>2021-07-14T19:36:39.297Z</time>
      </trkpt>
      <trkpt lat="42.31959342956543" lon="2.009671926498413">
        <ele>1455.5085158115537</ele>
        <time>2021-07-14T19:36:41.795Z</time>
      </trkpt>
      <trkpt lat="42.31964707374573" lon="2.0091354846954346">
        <ele>1457.745464324088</ele>
        <time>2021-07-14T19:36:44.299Z</time>
      </trkpt>
      <trkpt lat="42.31962561607361" lon="2.0086097717285156">
        <ele>1460.2698944298527</ele>
        <time>2021-07-14T19:36:46.810Z</time>
      </trkpt>
      <trkpt lat="42.3198938369751" lon="2.0075368881225586">
        <ele>1462.5927611148759</ele>
        <time>2021-07-14T19:36:49.334Z</time>
      </trkpt>
      <trkpt lat="42.319990396499634" lon="2.0067644119262695">
        <ele>1465.2588634468302</ele>
        <time>2021-07-14T19:36:51.867Z</time>
      </trkpt>
      <trkpt lat="42.319979667663574" lon="2.006657123565674">
        <ele>1467.592159200034</ele>
        <time>2021-07-14T19:36:54.402Z</time>
      </trkpt>
      <trkpt lat="42.319979751482606" lon="2.006657123565674">
        <ele>1469.8931026379491</ele>
        <time>2021-07-14T19:36:56.937Z</time>
      </trkpt>
      <trkpt lat="42.319969022646546" lon="2.006528377532959">
        <ele>1472.258672111679</ele>
        <time>2021-07-14T19:36:59.473Z</time>
      </trkpt>
      <trkpt lat="42.319968938827515" lon="2.00650691986084">
        <ele>1474.6064386711582</ele>
        <time>2021-07-14T19:37:02.009Z</time>
      </trkpt>
      <trkpt lat="42.319969022646546" lon="2.00650691986084">
        <ele>1476.9736164268586</ele>
        <time>2021-07-14T19:37:04.545Z</time>
      </trkpt>
      <trkpt lat="42.319765174761415" lon="2.0056378841400146">
        <ele>1479.5795143603755</ele>
        <time>2021-07-14T19:37:07.092Z</time>
      </trkpt>
      <trkpt lat="42.319743633270264" lon="2.0054984092712402">
        <ele>1482.0421743036554</ele>
        <time>2021-07-14T19:37:09.641Z</time>
      </trkpt>
      <trkpt lat="42.319743633270264" lon="2.0052945613861084">
        <ele>1484.4746644476627</ele>
        <time>2021-07-14T19:37:12.192Z</time>
      </trkpt>
      <trkpt lat="42.31985092163086" lon="2.005079984664917">
        <ele>1486.908196792353</ele>
        <time>2021-07-14T19:37:14.746Z</time>
      </trkpt>
      <trkpt lat="42.32028007507324" lon="2.0045220851898193">
        <ele>1489.815143351122</ele>
        <time>2021-07-14T19:37:17.310Z</time>
      </trkpt>
      <trkpt lat="42.32037663459778" lon="2.0044469833374023">
        <ele>1492.5085102741825</ele>
        <time>2021-07-14T19:37:19.876Z</time>
      </trkpt>
      <trkpt lat="42.320494651794434" lon="2.0043933391571045">
        <ele>1495.1834271041325</ele>
        <time>2021-07-14T19:37:22.444Z</time>
      </trkpt>
      <trkpt lat="42.32058048248291" lon="2.004382610321045">
        <ele>1497.9273713063508</ele>
        <time>2021-07-14T19:37:25.013Z</time>
      </trkpt>
      <trkpt lat="42.32058056630194" lon="2.004382610321045">
        <ele>1500.7195136065143</ele>
        <time>2021-07-14T19:37:27.582Z</time>
      </trkpt>
      <trkpt lat="42.32065558433533" lon="2.004382610321045">
        <ele>1503.6034255529175</ele>
        <time>2021-07-14T19:37:30.152Z</time>
      </trkpt>
      <trkpt lat="42.32102036476135" lon="2.0044898986816406">
        <ele>1506.6684211649806</ele>
        <time>2021-07-14T19:37:32.728Z</time>
      </trkpt>
      <trkpt lat="42.321921586990356" lon="2.0048654079437256">
        <ele>1510.0790064446628</ele>
        <time>2021-07-14T19:37:35.319Z</time>
      </trkpt>
      <trkpt lat="42.32215762138367" lon="2.0049405097961426">
        <ele>1513.2455017773868</ele>
        <time>2021-07-14T19:37:37.914Z</time>
      </trkpt>
      <trkpt lat="42.322704792022705" lon="2.004929780960083">
        <ele>1516.5206751640164</ele>
        <time>2021-07-14T19:37:40.518Z</time>
      </trkpt>
      <trkpt lat="42.3228657245636" lon="2.0049619674682617">
        <ele>1519.8405811788334</ele>
        <time>2021-07-14T19:37:43.125Z</time>
      </trkpt>
      <trkpt lat="42.32333779335022" lon="2.005155086517334">
        <ele>1523.4749202977155</ele>
        <time>2021-07-14T19:37:45.740Z</time>
      </trkpt>
      <trkpt lat="42.323434352874756" lon="2.0051443576812744">
        <ele>1526.8585498529137</ele>
        <time>2021-07-14T19:37:48.356Z</time>
      </trkpt>
      <trkpt lat="42.32353091239929" lon="2.005101442337036">
        <ele>1530.3317307712532</ele>
        <time>2021-07-14T19:37:50.974Z</time>
      </trkpt>
      <trkpt lat="42.3237669467926" lon="2.0048868656158447">
        <ele>1534.1743317156102</ele>
        <time>2021-07-14T19:37:53.596Z</time>
      </trkpt>
      <trkpt lat="42.32449650764465" lon="2.0040392875671387">
        <ele>1538.4433135204242</ele>
        <time>2021-07-14T19:37:56.234Z</time>
      </trkpt>
      <trkpt lat="42.32462525367737" lon="2.003931999206543">
        <ele>1542.3823217235272</ele>
        <time>2021-07-14T19:37:58.874Z</time>
      </trkpt>
      <trkpt lat="42.3247754573822" lon="2.003856897354126">
        <ele>1546.3096436080932</ele>
        <time>2021-07-14T19:38:01.517Z</time>
      </trkpt>
      <trkpt lat="42.32525825500488" lon="2.00376033782959">
        <ele>1550.2059189402066</ele>
        <time>2021-07-14T19:38:04.167Z</time>
      </trkpt>
      <trkpt lat="42.32561230659485" lon="2.0036423206329346">
        <ele>1554.0994464371374</ele>
        <time>2021-07-14T19:38:06.823Z</time>
      </trkpt>
      <trkpt lat="42.326438426971436" lon="2.0031166076660156">
        <ele>1558.048065497478</ele>
        <time>2021-07-14T19:38:09.494Z</time>
      </trkpt>
      <trkpt lat="42.32663154602051" lon="2.002880573272705">
        <ele>1561.8557846453175</ele>
        <time>2021-07-14T19:38:12.169Z</time>
      </trkpt>
      <trkpt lat="42.32708215713501" lon="2.0021510124206543">
        <ele>1566.1889529328828</ele>
        <time>2021-07-14T19:38:14.855Z</time>
      </trkpt>
      <trkpt lat="42.327672243118286" lon="2.0013463497161865">
        <ele>1570.500761915977</ele>
        <time>2021-07-14T19:38:17.555Z</time>
      </trkpt>
      <trkpt lat="42.327972650527954" lon="2.00101375579834">
        <ele>1574.6565897012606</ele>
        <time>2021-07-14T19:38:20.261Z</time>
      </trkpt>
      <trkpt lat="42.32834815979004" lon="2.000734806060791">
        <ele>1578.6505990880628</ele>
        <time>2021-07-14T19:38:22.974Z</time>
      </trkpt>
      <trkpt lat="42.32848763465881" lon="2.000659704208374">
        <ele>1582.783294187699</ele>
        <time>2021-07-14T19:38:25.689Z</time>
      </trkpt>
      <trkpt lat="42.328670024871826" lon="2.0005953311920166">
        <ele>1586.9758478815975</ele>
        <time>2021-07-14T19:38:28.407Z</time>
      </trkpt>
      <trkpt lat="42.33007550239563" lon="2.0003914833068848">
        <ele>1592.133953531386</ele>
        <time>2021-07-14T19:38:31.148Z</time>
      </trkpt>
      <trkpt lat="42.330687046051025" lon="2.0001983642578125">
        <ele>1596.228380210344</ele>
        <time>2021-07-14T19:38:33.899Z</time>
      </trkpt>
      <trkpt lat="42.33129858970642" lon="1.9999408721923828">
        <ele>1600.2902517043826</ele>
        <time>2021-07-14T19:38:36.660Z</time>
      </trkpt>
      <trkpt lat="42.331427335739136" lon="1.9997906684875488">
        <ele>1604.3077706783101</ele>
        <time>2021-07-14T19:38:39.424Z</time>
      </trkpt>
      <trkpt lat="42.33157753944397" lon="1.9993293285369873">
        <ele>1608.087469317546</ele>
        <time>2021-07-14T19:38:42.194Z</time>
      </trkpt>
      <trkpt lat="42.331717014312744" lon="1.9991254806518555">
        <ele>1611.9768491053615</ele>
        <time>2021-07-14T19:38:44.967Z</time>
      </trkpt>
      <trkpt lat="42.33224272727966" lon="1.9986534118652344">
        <ele>1616.4878113690434</ele>
        <time>2021-07-14T19:38:47.750Z</time>
      </trkpt>
      <trkpt lat="42.33238220214844" lon="1.9984924793243408">
        <ele>1620.2158250107796</ele>
        <time>2021-07-14T19:38:50.536Z</time>
      </trkpt>
      <trkpt lat="42.332435846328735" lon="1.9983422756195068">
        <ele>1623.8367826890194</ele>
        <time>2021-07-14T19:38:53.324Z</time>
      </trkpt>
      <trkpt lat="42.332468032836914" lon="1.9981491565704346">
        <ele>1627.4819297913525</ele>
        <time>2021-07-14T19:38:56.115Z</time>
      </trkpt>
      <trkpt lat="42.33248949050903" lon="1.9970977306365967">
        <ele>1631.652185143928</ele>
        <time>2021-07-14T19:38:58.918Z</time>
      </trkpt>
      <trkpt lat="42.332446575164795" lon="1.9968938827514648">
        <ele>1635.411135195358</ele>
        <time>2021-07-14T19:39:01.724Z</time>
      </trkpt>
      <trkpt lat="42.33240365982056" lon="1.9968080520629883">
        <ele>1639.0732756551506</ele>
        <time>2021-07-14T19:39:04.531Z</time>
      </trkpt>
      <trkpt lat="42.33231782913208" lon="1.9967329502105713">
        <ele>1642.7284705006714</ele>
        <time>2021-07-14T19:39:07.339Z</time>
      </trkpt>
      <trkpt lat="42.33224272727966" lon="1.9967114925384521">
        <ele>1646.3142040283503</ele>
        <time>2021-07-14T19:39:10.149Z</time>
      </trkpt>
      <trkpt lat="42.33215689659119" lon="1.9967222213745117">
        <ele>1649.8709322741943</ele>
        <time>2021-07-14T19:39:12.960Z</time>
      </trkpt>
      <trkpt lat="42.3318886756897" lon="1.9969797134399414">
        <ele>1653.2137811722298</ele>
        <time>2021-07-14T19:39:15.776Z</time>
      </trkpt>
      <trkpt lat="42.33179211616516" lon="1.9970333576202393">
        <ele>1656.6527291308948</ele>
        <time>2021-07-14T19:39:18.594Z</time>
      </trkpt>
      <trkpt lat="42.331695556640625" lon="1.997065544128418">
        <ele>1660.1511200684465</ele>
        <time>2021-07-14T19:39:21.414Z</time>
      </trkpt>
      <trkpt lat="42.33156681060791" lon="1.9970977306365967">
        <ele>1663.7304814410138</ele>
        <time>2021-07-14T19:39:24.236Z</time>
      </trkpt>
      <trkpt lat="42.33099818229675" lon="1.9971191883087158">
        <ele>1667.7372657795863</ele>
        <time>2021-07-14T19:39:27.067Z</time>
      </trkpt>
      <trkpt lat="42.330451011657715" lon="1.997237205505371">
        <ele>1671.5786541007049</ele>
        <time>2021-07-14T19:39:29.907Z</time>
      </trkpt>
      <trkpt lat="42.33025789260864" lon="1.9972050189971924">
        <ele>1675.4593357787949</ele>
        <time>2021-07-14T19:39:32.750Z</time>
      </trkpt>
      <trkpt lat="42.32964634895325" lon="1.9970011711120605">
        <ele>1679.575329288241</ele>
        <time>2021-07-14T19:39:35.603Z</time>
      </trkpt>
      <trkpt lat="42.329195737838745" lon="1.9966685771942139">
        <ele>1683.6882929629587</ele>
        <time>2021-07-14T19:39:38.464Z</time>
      </trkpt>
      <trkpt lat="42.328723669052124" lon="1.996368169784546">
        <ele>1687.4026897241615</ele>
        <time>2021-07-14T19:39:41.333Z</time>
      </trkpt>
      <trkpt lat="42.32864856719971" lon="1.9962716102600098">
        <ele>1691.3114282504703</ele>
        <time>2021-07-14T19:39:44.204Z</time>
      </trkpt>
      <trkpt lat="42.32860565185547" lon="1.9960570335388184">
        <ele>1695.3575899656335</ele>
        <time>2021-07-14T19:39:47.078Z</time>
      </trkpt>
      <trkpt lat="42.3287558555603" lon="1.9952309131622314">
        <ele>1700.1244879193814</ele>
        <time>2021-07-14T19:39:49.962Z</time>
      </trkpt>
      <trkpt lat="42.32876658439636" lon="1.994994878768921">
        <ele>1704.4163708802225</ele>
        <time>2021-07-14T19:39:52.849Z</time>
      </trkpt>
      <trkpt lat="42.3287558555603" lon="1.9946837425231934">
        <ele>1708.637831238348</ele>
        <time>2021-07-14T19:39:55.739Z</time>
      </trkpt>
      <trkpt lat="42.328680753707886" lon="1.9942545890808105">
        <ele>1712.8105068446525</ele>
        <time>2021-07-14T19:39:58.634Z</time>
      </trkpt>
      <trkpt lat="42.328670024871826" lon="1.993868350982666">
        <ele>1717.0901445923187</ele>
        <time>2021-07-14T19:40:01.534Z</time>
      </trkpt>
      <trkpt lat="42.328670024871826" lon="1.9929563999176025">
        <ele>1721.5967767317584</ele>
        <time>2021-07-14T19:40:04.445Z</time>
      </trkpt>
      <trkpt lat="42.328691482543945" lon="1.9925057888031006">
        <ele>1725.74728008181</ele>
        <time>2021-07-14T19:40:07.361Z</time>
      </trkpt>
      <trkpt lat="42.32879877090454" lon="1.991744041442871">
        <ele>1730.006091325164</ele>
        <time>2021-07-14T19:40:10.286Z</time>
      </trkpt>
      <trkpt lat="42.328948974609375" lon="1.990971565246582">
        <ele>1734.1969837286688</ele>
        <time>2021-07-14T19:40:13.221Z</time>
      </trkpt>
      <trkpt lat="42.32910990715027" lon="1.990499496459961">
        <ele>1738.2513451321895</ele>
        <time>2021-07-14T19:40:16.162Z</time>
      </trkpt>
      <trkpt lat="42.329227924346924" lon="1.9902312755584717">
        <ele>1742.1566584841196</ele>
        <time>2021-07-14T19:40:19.107Z</time>
      </trkpt>
      <trkpt lat="42.32935667037964" lon="1.9900059700012207">
        <ele>1746.0300264338143</ele>
        <time>2021-07-14T19:40:22.055Z</time>
      </trkpt>
      <trkpt lat="42.32990384101868" lon="1.9893085956573486">
        <ele>1750.364606743524</ele>
        <time>2021-07-14T19:40:25.015Z</time>
      </trkpt>
      <trkpt lat="42.33006477355957" lon="1.989072561264038">
        <ele>1753.9858085566798</ele>
        <time>2021-07-14T19:40:27.979Z</time>
      </trkpt>
      <trkpt lat="42.33011841773987" lon="1.9889438152313232">
        <ele>1757.4924140949693</ele>
        <time>2021-07-14T19:40:30.945Z</time>
      </trkpt>
      <trkpt lat="42.33012914657593" lon="1.9888043403625488">
        <ele>1760.7882744243248</ele>
        <time>2021-07-14T19:40:33.912Z</time>
      </trkpt>
      <trkpt lat="42.33010768890381" lon="1.9885575771331787">
        <ele>1763.8822385755207</ele>
        <time>2021-07-14T19:40:36.882Z</time>
      </trkpt>
      <trkpt lat="42.33010768890381" lon="1.9883215427398682">
        <ele>1766.8645608434404</ele>
        <time>2021-07-14T19:40:39.855Z</time>
      </trkpt>
      <trkpt lat="42.33011841773987" lon="1.988203525543213">
        <ele>1769.719724667479</ele>
        <time>2021-07-14T19:40:42.830Z</time>
      </trkpt>
      <trkpt lat="42.330161333084106" lon="1.9880962371826172">
        <ele>1772.4899828117282</ele>
        <time>2021-07-14T19:40:45.806Z</time>
      </trkpt>
      <trkpt lat="42.33079433441162" lon="1.9869911670684814">
        <ele>1775.7367183708925</ele>
        <time>2021-07-14T19:40:48.799Z</time>
      </trkpt>
      <trkpt lat="42.33111619949341" lon="1.9861865043640137">
        <ele>1778.6205788990278</ele>
        <time>2021-07-14T19:40:51.802Z</time>
      </trkpt>
      <trkpt lat="42.331191301345825" lon="1.9859397411346436">
        <ele>1780.9060896444837</ele>
        <time>2021-07-14T19:40:54.809Z</time>
      </trkpt>
      <trkpt lat="42.33125567436218" lon="1.9856178760528564">
        <ele>1783.0257513017327</ele>
        <time>2021-07-14T19:40:57.820Z</time>
      </trkpt>
      <trkpt lat="42.3312771320343" lon="1.9851136207580566">
        <ele>1784.9604796986855</ele>
        <time>2021-07-14T19:41:00.837Z</time>
      </trkpt>
      <trkpt lat="42.33132013119757" lon="1.9849634170532227">
        <ele>1786.604943929178</ele>
        <time>2021-07-14T19:41:03.855Z</time>
      </trkpt>
      <trkpt lat="42.33135223388672" lon="1.9848453998565674">
        <ele>1788.1737663714725</ele>
        <time>2021-07-14T19:41:06.875Z</time>
      </trkpt>
      <trkpt lat="42.33157753944397" lon="1.9845771789550781">
        <ele>1789.3934723039224</ele>
        <time>2021-07-14T19:41:09.900Z</time>
      </trkpt>
      <trkpt lat="42.331481063738465" lon="1.9845020771026611">
        <ele>1790.7056609136498</ele>
        <time>2021-07-14T19:41:12.927Z</time>
      </trkpt>
      <trkpt lat="42.331480979919434" lon="1.9845020771026611">
        <ele>1791.7884467172487</ele>
        <time>2021-07-14T19:41:15.954Z</time>
      </trkpt>
      <trkpt lat="42.3313844203949" lon="1.9843626022338867">
        <ele>1792.78139388218</ele>
        <time>2021-07-14T19:41:18.983Z</time>
      </trkpt>
      <trkpt lat="42.33134150505066" lon="1.983954906463623">
        <ele>1793.560576225274</ele>
        <time>2021-07-14T19:41:22.017Z</time>
      </trkpt>
      <trkpt lat="42.33136296272278" lon="1.983633041381836">
        <ele>1794.2709073260971</ele>
        <time>2021-07-14T19:41:25.055Z</time>
      </trkpt>
      <trkpt lat="42.33136296272278" lon="1.9831931591033936">
        <ele>1794.8036028334232</ele>
        <time>2021-07-14T19:41:28.098Z</time>
      </trkpt>
      <trkpt lat="42.33139514923096" lon="1.9827425479888916">
        <ele>1795.3197751823323</ele>
        <time>2021-07-14T19:41:31.146Z</time>
      </trkpt>
      <trkpt lat="42.33153462409973" lon="1.9819915294647217">
        <ele>1795.5764317395603</ele>
        <time>2021-07-14T19:41:34.203Z</time>
      </trkpt>
      <trkpt lat="42.33154535293579" lon="1.981734037399292">
        <ele>1795.8939031034258</ele>
        <time>2021-07-14T19:41:37.263Z</time>
      </trkpt>
      <trkpt lat="42.33152389526367" lon="1.9815301895141602">
        <ele>1796.1974443120234</ele>
        <time>2021-07-14T19:41:40.326Z</time>
      </trkpt>
      <trkpt lat="42.33149170875549" lon="1.9814014434814453">
        <ele>1796.4329697831743</ele>
        <time>2021-07-14T19:41:43.390Z</time>
      </trkpt>
      <trkpt lat="42.3312771320343" lon="1.9806718826293945">
        <ele>1796.8321807202256</ele>
        <time>2021-07-14T19:41:46.464Z</time>
      </trkpt>
      <trkpt lat="42.33123421669006" lon="1.9804680347442627">
        <ele>1797.0565496161453</ele>
        <time>2021-07-14T19:41:49.540Z</time>
      </trkpt>
      <trkpt lat="42.33123421669006" lon="1.9802320003509521">
        <ele>1797.1588328942564</ele>
        <time>2021-07-14T19:41:52.619Z</time>
      </trkpt>
      <trkpt lat="42.33130931854248" lon="1.9800174236297607">
        <ele>1797.0698487468976</ele>
        <time>2021-07-14T19:41:55.701Z</time>
      </trkpt>
      <trkpt lat="42.33159899711609" lon="1.9794917106628418">
        <ele>1796.9166420747042</ele>
        <time>2021-07-14T19:41:58.791Z</time>
      </trkpt>
      <trkpt lat="42.33202815055847" lon="1.9790947437286377">
        <ele>1796.6623436908808</ele>
        <time>2021-07-14T19:42:01.889Z</time>
      </trkpt>
      <trkpt lat="42.33208179473877" lon="1.9790410995483398">
        <ele>1796.5942470684795</ele>
        <time>2021-07-14T19:42:04.988Z</time>
      </trkpt>
      <trkpt lat="42.332167625427246" lon="1.9788908958435059">
        <ele>1796.5129496999975</ele>
        <time>2021-07-14T19:42:08.089Z</time>
      </trkpt>
      <trkpt lat="42.33224272727966" lon="1.9786548614501953">
        <ele>1796.544825027318</ele>
        <time>2021-07-14T19:42:11.193Z</time>
      </trkpt>
      <trkpt lat="42.33226418495178" lon="1.978386640548706">
        <ele>1796.7238123026355</ele>
        <time>2021-07-14T19:42:14.301Z</time>
      </trkpt>
      <trkpt lat="42.33225345611572" lon="1.9780540466308594">
        <ele>1796.7727306420093</ele>
        <time>2021-07-14T19:42:17.413Z</time>
      </trkpt>
      <trkpt lat="42.332221269607544" lon="1.9779789447784424">
        <ele>1796.8688548766186</ele>
        <time>2021-07-14T19:42:20.526Z</time>
      </trkpt>
      <trkpt lat="42.33208179473877" lon="1.9777321815490723">
        <ele>1797.0509219807896</ele>
        <time>2021-07-14T19:42:23.642Z</time>
      </trkpt>
      <trkpt lat="42.331953048706055" lon="1.9775712490081787">
        <ele>1797.2992809630152</ele>
        <time>2021-07-14T19:42:26.761Z</time>
      </trkpt>
      <trkpt lat="42.331706285476685" lon="1.9773459434509277">
        <ele>1797.6989680082465</ele>
        <time>2021-07-14T19:42:29.885Z</time>
      </trkpt>
      <trkpt lat="42.33162045478821" lon="1.977238655090332">
        <ele>1797.9677580299726</ele>
        <time>2021-07-14T19:42:33.011Z</time>
      </trkpt>
      <trkpt lat="42.331470334902406" lon="1.9769489765167236">
        <ele>1798.282059940764</ele>
        <time>2021-07-14T19:42:36.141Z</time>
      </trkpt>
      <trkpt lat="42.33130931854248" lon="1.9766056537628174">
        <ele>1798.6008416925888</ele>
        <time>2021-07-14T19:42:39.276Z</time>
      </trkpt>
      <trkpt lat="42.33112692832947" lon="1.9762837886810303">
        <ele>1799.0282847123783</ele>
        <time>2021-07-14T19:42:42.415Z</time>
      </trkpt>
      <trkpt lat="42.33103036880493" lon="1.9760799407958984">
        <ele>1799.3869312956167</ele>
        <time>2021-07-14T19:42:45.557Z</time>
      </trkpt>
      <trkpt lat="42.330944538116455" lon="1.97579026222229">
        <ele>1799.6896789855882</ele>
        <time>2021-07-14T19:42:48.703Z</time>
      </trkpt>
      <trkpt lat="42.33090162277222" lon="1.9753611087799072">
        <ele>1800.1141158847427</ele>
        <time>2021-07-14T19:42:51.854Z</time>
      </trkpt>
      <trkpt lat="42.33085870742798" lon="1.974395513534546">
        <ele>1800.4448135038779</ele>
        <time>2021-07-14T19:42:55.017Z</time>
      </trkpt>
      <trkpt lat="42.33081579208374" lon="1.9739770889282227">
        <ele>1800.7922156931074</ele>
        <time>2021-07-14T19:42:58.185Z</time>
      </trkpt>
      <trkpt lat="42.330697774887085" lon="1.9732797145843506">
        <ele>1801.2223098027316</ele>
        <time>2021-07-14T19:43:01.361Z</time>
      </trkpt>
      <trkpt lat="42.33064413070679" lon="1.97304368019104">
        <ele>1801.561721645282</ele>
        <time>2021-07-14T19:43:04.540Z</time>
      </trkpt>
      <trkpt lat="42.33027935028076" lon="1.9720137119293213">
        <ele>1802.0960823349624</ele>
        <time>2021-07-14T19:43:07.733Z</time>
      </trkpt>
      <trkpt lat="42.33010768890381" lon="1.9714558124542236">
        <ele>1802.4694440907247</ele>
        <time>2021-07-14T19:43:10.933Z</time>
      </trkpt>
      <trkpt lat="42.33004331588745" lon="1.971198320388794">
        <ele>1802.8803026973028</ele>
        <time>2021-07-14T19:43:14.136Z</time>
      </trkpt>
      <trkpt lat="42.33001112937927" lon="1.9709086418151855">
        <ele>1803.1812156760948</ele>
        <time>2021-07-14T19:43:17.343Z</time>
      </trkpt>
      <trkpt lat="42.33001112937927" lon="1.9706511497497559">
        <ele>1803.4313931095544</ele>
        <time>2021-07-14T19:43:20.553Z</time>
      </trkpt>
      <trkpt lat="42.33003258705139" lon="1.9701361656188965">
        <ele>1803.6822216214991</ele>
        <time>2021-07-14T19:43:23.769Z</time>
      </trkpt>
      <trkpt lat="42.33008623123169" lon="1.9696426391601562">
        <ele>1803.9513239777352</ele>
        <time>2021-07-14T19:43:26.991Z</time>
      </trkpt>
      <trkpt lat="42.33035445213318" lon="1.9682371616363525">
        <ele>1803.9642243525884</ele>
        <time>2021-07-14T19:43:30.230Z</time>
      </trkpt>
      <trkpt lat="42.3303759098053" lon="1.9679474830627441">
        <ele>1804.297242355266</ele>
        <time>2021-07-14T19:43:33.472Z</time>
      </trkpt>
      <trkpt lat="42.33036518096924" lon="1.9674110412597656">
        <ele>1804.8263194862839</ele>
        <time>2021-07-14T19:43:36.721Z</time>
      </trkpt>
      <trkpt lat="42.330451011657715" lon="1.9668424129486084">
        <ele>1805.1592125897814</ele>
        <time>2021-07-14T19:43:39.977Z</time>
      </trkpt>
      <trkpt lat="42.33053684234619" lon="1.9665312767028809">
        <ele>1805.4791516352984</ele>
        <time>2021-07-14T19:43:43.237Z</time>
      </trkpt>
      <trkpt lat="42.330955266952515" lon="1.9654262065887451">
        <ele>1805.7367921131029</ele>
        <time>2021-07-14T19:43:46.511Z</time>
      </trkpt>
      <trkpt lat="42.33103036880493" lon="1.9651687145233154">
        <ele>1806.1629109533437</ele>
        <time>2021-07-14T19:43:49.789Z</time>
      </trkpt>
      <trkpt lat="42.33106255531311" lon="1.9650185108184814">
        <ele>1806.613011620902</ele>
        <time>2021-07-14T19:43:53.068Z</time>
      </trkpt>
      <trkpt lat="42.33108401298523" lon="1.9646000862121582">
        <ele>1807.0802118151291</ele>
        <time>2021-07-14T19:43:56.352Z</time>
      </trkpt>
      <trkpt lat="42.33106255531311" lon="1.964428424835205">
        <ele>1807.5859826470894</ele>
        <time>2021-07-14T19:43:59.638Z</time>
      </trkpt>
      <trkpt lat="42.33090162277222" lon="1.9636237621307373">
        <ele>1808.3688821928235</ele>
        <time>2021-07-14T19:44:02.934Z</time>
      </trkpt>
      <trkpt lat="42.33060121536255" lon="1.9626045227050781">
        <ele>1808.8059389743446</ele>
        <time>2021-07-14T19:44:06.243Z</time>
      </trkpt>
      <trkpt lat="42.330461740493774" lon="1.962357759475708">
        <ele>1809.2351662180413</ele>
        <time>2021-07-14T19:44:09.556Z</time>
      </trkpt>
      <trkpt lat="42.33033299446106" lon="1.9621753692626953">
        <ele>1809.5943261995226</ele>
        <time>2021-07-14T19:44:12.872Z</time>
      </trkpt>
      <trkpt lat="42.33023643493652" lon="1.9620680809020996">
        <ele>1809.9432204712998</ele>
        <time>2021-07-14T19:44:16.190Z</time>
      </trkpt>
      <trkpt lat="42.32959270477295" lon="1.9614779949188232">
        <ele>1810.4111069358055</ele>
        <time>2021-07-14T19:44:19.520Z</time>
      </trkpt>
      <trkpt lat="42.328948974609375" lon="1.9608449935913086">
        <ele>1810.6670670906851</ele>
        <time>2021-07-14T19:44:22.863Z</time>
      </trkpt>
      <trkpt lat="42.32813358306885" lon="1.9600188732147217">
        <ele>1810.8206855243252</ele>
        <time>2021-07-14T19:44:26.223Z</time>
      </trkpt>
      <trkpt lat="42.32795127667487" lon="1.9598901271820068">
        <ele>1810.866570791476</ele>
        <time>2021-07-14T19:44:29.586Z</time>
      </trkpt>
      <trkpt lat="42.327951192855835" lon="1.9598901271820068">
        <ele>1810.8470530043805</ele>
        <time>2021-07-14T19:44:32.949Z</time>
      </trkpt>
      <trkpt lat="42.32766151428223" lon="1.9596755504608154">
        <ele>1810.7163237935988</ele>
        <time>2021-07-14T19:44:36.317Z</time>
      </trkpt>
      <trkpt lat="42.32761868275702" lon="1.9596433639526367">
        <ele>1810.5228913358865</ele>
        <time>2021-07-14T19:44:39.686Z</time>
      </trkpt>
      <trkpt lat="42.32715725898743" lon="1.95931077003479">
        <ele>1810.1570375650567</ele>
        <time>2021-07-14T19:44:43.063Z</time>
      </trkpt>
      <trkpt lat="42.326717376708984" lon="1.9588065147399902">
        <ele>1809.537418292307</ele>
        <time>2021-07-14T19:44:46.449Z</time>
      </trkpt>
      <trkpt lat="42.32656717300415" lon="1.958709955215454">
        <ele>1809.0818887153664</ele>
        <time>2021-07-14T19:44:49.838Z</time>
      </trkpt>
      <trkpt lat="42.32630968093872" lon="1.958634853363037">
        <ele>1808.6599451779289</ele>
        <time>2021-07-14T19:44:53.231Z</time>
      </trkpt>
      <trkpt lat="42.32618101872504" lon="1.9585597515106201">
        <ele>1808.0480164343935</ele>
        <time>2021-07-14T19:44:56.627Z</time>
      </trkpt>
      <trkpt lat="42.32608437538147" lon="1.958463191986084">
        <ele>1807.300087220951</ele>
        <time>2021-07-14T19:45:00.025Z</time>
      </trkpt>
      <trkpt lat="42.32603073120117" lon="1.9583451747894287">
        <ele>1806.408395846823</ele>
        <time>2021-07-14T19:45:03.424Z</time>
      </trkpt>
      <trkpt lat="42.32599854469299" lon="1.9581735134124756">
        <ele>1805.4091549314144</ele>
        <time>2021-07-14T19:45:06.825Z</time>
      </trkpt>
      <trkpt lat="42.32588052749634" lon="1.957540512084961">
        <ele>1804.374303620474</ele>
        <time>2021-07-14T19:45:10.234Z</time>
      </trkpt>
      <trkpt lat="42.32584834098816" lon="1.9569933414459229">
        <ele>1802.899916446706</ele>
        <time>2021-07-14T19:45:13.650Z</time>
      </trkpt>
      <trkpt lat="42.32580542564392" lon="1.9566607475280762">
        <ele>1801.512500476666</ele>
        <time>2021-07-14T19:45:17.070Z</time>
      </trkpt>
      <trkpt lat="42.325698137283325" lon="1.9564568996429443">
        <ele>1800.2410909899413</ele>
        <time>2021-07-14T19:45:20.493Z</time>
      </trkpt>
      <trkpt lat="42.32549428939819" lon="1.9562530517578125">
        <ele>1799.0402733247238</ele>
        <time>2021-07-14T19:45:23.920Z</time>
      </trkpt>
      <trkpt lat="42.32536554336548" lon="1.9560813903808594">
        <ele>1797.6804557848618</ele>
        <time>2021-07-14T19:45:27.349Z</time>
      </trkpt>
      <trkpt lat="42.325279712677" lon="1.9558775424957275">
        <ele>1796.1596449960614</ele>
        <time>2021-07-14T19:45:30.781Z</time>
      </trkpt>
      <trkpt lat="42.32525825500488" lon="1.955716609954834">
        <ele>1794.5460035988121</ele>
        <time>2021-07-14T19:45:34.215Z</time>
      </trkpt>
      <trkpt lat="42.32525825500488" lon="1.95556640625">
        <ele>1793.007777434966</ele>
        <time>2021-07-14T19:45:37.651Z</time>
      </trkpt>
      <trkpt lat="42.32530117034912" lon="1.9553196430206299">
        <ele>1791.3905091278627</ele>
        <time>2021-07-14T19:45:41.090Z</time>
      </trkpt>
      <trkpt lat="42.32537627220154" lon="1.9551479816436768">
        <ele>1789.6167482816727</ele>
        <time>2021-07-14T19:45:44.531Z</time>
      </trkpt>
      <trkpt lat="42.325451374053955" lon="1.9550514221191406">
        <ele>1787.7684093153368</ele>
        <time>2021-07-14T19:45:47.974Z</time>
      </trkpt>
      <trkpt lat="42.32581615447998" lon="1.9546759128570557">
        <ele>1785.71556899526</ele>
        <time>2021-07-14T19:45:51.424Z</time>
      </trkpt>
      <trkpt lat="42.326191663742065" lon="1.9543755054473877">
        <ele>1783.6663192921687</ele>
        <time>2021-07-14T19:45:54.881Z</time>
      </trkpt>
      <trkpt lat="42.32711434364319" lon="1.9535279273986816">
        <ele>1781.4949203957608</ele>
        <time>2021-07-14T19:45:58.356Z</time>
      </trkpt>
      <trkpt lat="42.32761859893799" lon="1.953291893005371">
        <ele>1779.381737888821</ele>
        <time>2021-07-14T19:46:01.840Z</time>
      </trkpt>
      <trkpt lat="42.32775807380676" lon="1.9531846046447754">
        <ele>1777.5679097266257</ele>
        <time>2021-07-14T19:46:05.326Z</time>
      </trkpt>
      <trkpt lat="42.32783317565918" lon="1.9530880451202393">
        <ele>1775.8015891238783</ele>
        <time>2021-07-14T19:46:08.814Z</time>
      </trkpt>
      <trkpt lat="42.32791909016669" lon="1.9529271125793457">
        <ele>1774.1060786916328</ele>
        <time>2021-07-14T19:46:12.304Z</time>
      </trkpt>
      <trkpt lat="42.32801556587219" lon="1.9526588916778564">
        <ele>1772.3081981243622</ele>
        <time>2021-07-14T19:46:15.798Z</time>
      </trkpt>
      <trkpt lat="42.32810139656067" lon="1.9524765014648438">
        <ele>1770.4806688503936</ele>
        <time>2021-07-14T19:46:19.294Z</time>
      </trkpt>
      <trkpt lat="42.32815512456" lon="1.9524013996124268">
        <ele>1768.707999008725</ele>
        <time>2021-07-14T19:46:22.792Z</time>
      </trkpt>
      <trkpt lat="42.32815504074097" lon="1.9524013996124268">
        <ele>1767.0309029803975</ele>
        <time>2021-07-14T19:46:26.290Z</time>
      </trkpt>
      <trkpt lat="42.32819803990424" lon="1.9523262977600098">
        <ele>1765.3485409173445</ele>
        <time>2021-07-14T19:46:29.789Z</time>
      </trkpt>
      <trkpt lat="42.328197956085205" lon="1.9523262977600098">
        <ele>1763.7430686055536</ele>
        <time>2021-07-14T19:46:33.288Z</time>
      </trkpt>
      <trkpt lat="42.32861638069153" lon="1.951768398284912">
        <ele>1761.8071271048225</ele>
        <time>2021-07-14T19:46:36.796Z</time>
      </trkpt>
      <trkpt lat="42.32868083752692" lon="1.9516503810882568">
        <ele>1760.2329684253605</ele>
        <time>2021-07-14T19:46:40.306Z</time>
      </trkpt>
      <trkpt lat="42.3287558555603" lon="1.9514143466949463">
        <ele>1758.7097786889603</ele>
        <time>2021-07-14T19:46:43.819Z</time>
      </trkpt>
      <trkpt lat="42.32883095741272" lon="1.9510388374328613">
        <ele>1757.2520239114788</ele>
        <time>2021-07-14T19:46:47.337Z</time>
      </trkpt>
      <trkpt lat="42.32885241508484" lon="1.9508135318756104">
        <ele>1755.8696350053751</ele>
        <time>2021-07-14T19:46:50.857Z</time>
      </trkpt>
      <trkpt lat="42.32886322773993" lon="1.9502449035644531">
        <ele>1754.4738203558481</ele>
        <time>2021-07-14T19:46:54.384Z</time>
      </trkpt>
      <trkpt lat="42.32887395657599" lon="1.9501268863677979">
        <ele>1753.140570877676</ele>
        <time>2021-07-14T19:46:57.912Z</time>
      </trkpt>
      <trkpt lat="42.32891687192023" lon="1.9499015808105469">
        <ele>1751.8054148275373</ele>
        <time>2021-07-14T19:47:01.443Z</time>
      </trkpt>
      <trkpt lat="42.328916788101196" lon="1.9499015808105469">
        <ele>1750.5589967583892</ele>
        <time>2021-07-14T19:47:04.974Z</time>
      </trkpt>
      <trkpt lat="42.328970432281494" lon="1.9497406482696533">
        <ele>1749.2802696370481</ele>
        <time>2021-07-14T19:47:08.507Z</time>
      </trkpt>
      <trkpt lat="42.32903480529785" lon="1.949622631072998">
        <ele>1748.1070037743457</ele>
        <time>2021-07-14T19:47:12.042Z</time>
      </trkpt>
      <trkpt lat="42.32919582165778" lon="1.9494295120239258">
        <ele>1746.9470117428214</ele>
        <time>2021-07-14T19:47:15.580Z</time>
      </trkpt>
      <trkpt lat="42.329270923510194" lon="1.9493651390075684">
        <ele>1745.8003840045556</ele>
        <time>2021-07-14T19:47:19.120Z</time>
      </trkpt>
      <trkpt lat="42.329474771395326" lon="1.949225664138794">
        <ele>1744.6145143175052</ele>
        <time>2021-07-14T19:47:22.664Z</time>
      </trkpt>
      <trkpt lat="42.329474687576294" lon="1.949225664138794">
        <ele>1743.4974511582068</ele>
        <time>2021-07-14T19:47:26.208Z</time>
      </trkpt>
      <trkpt lat="42.32978582382202" lon="1.9490432739257812">
        <ele>1742.2677056830228</ele>
        <time>2021-07-14T19:47:29.757Z</time>
      </trkpt>
      <trkpt lat="42.33006477355957" lon="1.9488394260406494">
        <ele>1741.139659167096</ele>
        <time>2021-07-14T19:47:33.311Z</time>
      </trkpt>
      <trkpt lat="42.330225706100464" lon="1.9486892223358154">
        <ele>1739.9846868775958</ele>
        <time>2021-07-14T19:47:36.868Z</time>
      </trkpt>
      <trkpt lat="42.33030080795288" lon="1.9485926628112793">
        <ele>1738.8914964331357</ele>
        <time>2021-07-14T19:47:40.427Z</time>
      </trkpt>
      <trkpt lat="42.330719232559204" lon="1.9477880001068115">
        <ele>1737.5207116473093</ele>
        <time>2021-07-14T19:47:43.998Z</time>
      </trkpt>
      <trkpt lat="42.330923080444336" lon="1.9473373889923096">
        <ele>1736.4032592424828</ele>
        <time>2021-07-14T19:47:47.575Z</time>
      </trkpt>
      <trkpt lat="42.33103045262396" lon="1.9470369815826416">
        <ele>1735.384920353937</ele>
        <time>2021-07-14T19:47:51.156Z</time>
      </trkpt>
      <trkpt lat="42.33114846982062" lon="1.946629285812378">
        <ele>1734.3861329432802</ele>
        <time>2021-07-14T19:47:54.742Z</time>
      </trkpt>
      <trkpt lat="42.33114838600159" lon="1.946629285812378">
        <ele>1733.2984425819345</ele>
        <time>2021-07-14T19:47:58.328Z</time>
      </trkpt>
      <trkpt lat="42.33130931854248" lon="1.9461679458618164">
        <ele>1732.0619077559513</ele>
        <time>2021-07-14T19:48:01.920Z</time>
      </trkpt>
      <trkpt lat="42.33136296272278" lon="1.9460606575012207">
        <ele>1730.9130695008255</ele>
        <time>2021-07-14T19:48:05.514Z</time>
      </trkpt>
      <trkpt lat="42.33144887723029" lon="1.9459426403045654">
        <ele>1729.6837194565655</ele>
        <time>2021-07-14T19:48:09.110Z</time>
      </trkpt>
      <trkpt lat="42.33159899711609" lon="1.9457709789276123">
        <ele>1728.3256125275857</ele>
        <time>2021-07-14T19:48:12.709Z</time>
      </trkpt>
      <trkpt lat="42.33178147114813" lon="1.9456636905670166">
        <ele>1727.1482366846676</ele>
        <time>2021-07-14T19:48:16.311Z</time>
      </trkpt>
      <trkpt lat="42.33199596405029" lon="1.9455885887145996">
        <ele>1726.0242494265751</ele>
        <time>2021-07-14T19:48:19.916Z</time>
      </trkpt>
      <trkpt lat="42.33211406506598" lon="1.94557785987854">
        <ele>1724.894023750044</ele>
        <time>2021-07-14T19:48:23.523Z</time>
      </trkpt>
      <trkpt lat="42.33227491378784" lon="1.9455885887145996">
        <ele>1723.7333258662302</ele>
        <time>2021-07-14T19:48:27.133Z</time>
      </trkpt>
      <trkpt lat="42.332500303164124" lon="1.9456636905670166">
        <ele>1722.5270297734482</ele>
        <time>2021-07-14T19:48:30.747Z</time>
      </trkpt>
      <trkpt lat="42.33261823654175" lon="1.9457495212554932">
        <ele>1721.4105142284561</ele>
        <time>2021-07-14T19:48:34.363Z</time>
      </trkpt>
      <trkpt lat="42.33301520347595" lon="1.9460928440093994">
        <ele>1720.213331302585</ele>
        <time>2021-07-14T19:48:37.986Z</time>
      </trkpt>
      <trkpt lat="42.33311184681952" lon="1.9461357593536377">
        <ele>1719.1499738639454</ele>
        <time>2021-07-14T19:48:41.611Z</time>
      </trkpt>
      <trkpt lat="42.3331440333277" lon="1.9461572170257568">
        <ele>1718.0896737775083</ele>
        <time>2021-07-14T19:48:45.236Z</time>
      </trkpt>
      <trkpt lat="42.333219051361084" lon="1.9462001323699951">
        <ele>1717.0296709884806</ele>
        <time>2021-07-14T19:48:48.863Z</time>
      </trkpt>
      <trkpt lat="42.33330496586859" lon="1.9462108612060547">
        <ele>1715.9965270492262</ele>
        <time>2021-07-14T19:48:52.491Z</time>
      </trkpt>
      <trkpt lat="42.333476543426514" lon="1.9462108612060547">
        <ele>1714.8302327873032</ele>
        <time>2021-07-14T19:48:56.122Z</time>
      </trkpt>
      <trkpt lat="42.333680391311646" lon="1.9461143016815186">
        <ele>1713.7057442391826</ele>
        <time>2021-07-14T19:48:59.756Z</time>
      </trkpt>
      <trkpt lat="42.33378767967224" lon="1.9460391998291016">
        <ele>1712.6579338259849</ele>
        <time>2021-07-14T19:49:03.392Z</time>
      </trkpt>
      <trkpt lat="42.334474325180054" lon="1.9452989101409912">
        <ele>1711.8304306329812</ele>
        <time>2021-07-14T19:49:07.042Z</time>
      </trkpt>
      <trkpt lat="42.334656715393066" lon="1.945180892944336">
        <ele>1710.7255727233762</ele>
        <time>2021-07-14T19:49:10.696Z</time>
      </trkpt>
      <trkpt lat="42.33473181724548" lon="1.9451487064361572">
        <ele>1709.6108947454677</ele>
        <time>2021-07-14T19:49:14.351Z</time>
      </trkpt>
      <trkpt lat="42.33490347862244" lon="1.9451487064361572">
        <ele>1708.3819634124409</ele>
        <time>2021-07-14T19:49:18.009Z</time>
      </trkpt>
      <trkpt lat="42.33549356460571" lon="1.9453203678131104">
        <ele>1707.1076477956108</ele>
        <time>2021-07-14T19:49:21.676Z</time>
      </trkpt>
      <trkpt lat="42.3357617855072" lon="1.9454169273376465">
        <ele>1705.9560955786087</ele>
        <time>2021-07-14T19:49:25.348Z</time>
      </trkpt>
      <trkpt lat="42.33593353070319" lon="1.9455349445343018">
        <ele>1704.8204546774946</ele>
        <time>2021-07-14T19:49:29.023Z</time>
      </trkpt>
      <trkpt lat="42.33611583709717" lon="1.9457709789276123">
        <ele>1703.5715685672817</ele>
        <time>2021-07-14T19:49:32.702Z</time>
      </trkpt>
      <trkpt lat="42.33666309155524" lon="1.9467151165008545">
        <ele>1701.9224536110219</ele>
        <time>2021-07-14T19:49:36.395Z</time>
      </trkpt>
      <trkpt lat="42.336663007736206" lon="1.9467151165008545">
        <ele>1700.7248504558684</ele>
        <time>2021-07-14T19:49:40.088Z</time>
      </trkpt>
      <trkpt lat="42.33681321144104" lon="1.9469618797302246">
        <ele>1699.2899716514232</ele>
        <time>2021-07-14T19:49:43.785Z</time>
      </trkpt>
      <trkpt lat="42.336909770965576" lon="1.9470691680908203">
        <ele>1697.9823720029121</ele>
        <time>2021-07-14T19:49:47.484Z</time>
      </trkpt>
      <trkpt lat="42.33702778816223" lon="1.9471549987792969">
        <ele>1696.6958007938804</ele>
        <time>2021-07-14T19:49:51.185Z</time>
      </trkpt>
      <trkpt lat="42.33714580535889" lon="1.9472086429595947">
        <ele>1695.4320990944032</ele>
        <time>2021-07-14T19:49:54.888Z</time>
      </trkpt>
      <trkpt lat="42.33726382255554" lon="1.9472301006317139">
        <ele>1694.1887567729304</ele>
        <time>2021-07-14T19:49:58.593Z</time>
      </trkpt>
      <trkpt lat="42.33752131462097" lon="1.9471979141235352">
        <ele>1693.028839771579</ele>
        <time>2021-07-14T19:50:02.302Z</time>
      </trkpt>
      <trkpt lat="42.33808994293213" lon="1.9470155239105225">
        <ele>1691.5765334996088</ele>
        <time>2021-07-14T19:50:06.020Z</time>
      </trkpt>
      <trkpt lat="42.33849763870239" lon="1.9468653202056885">
        <ele>1690.2069846207492</ele>
        <time>2021-07-14T19:50:09.745Z</time>
      </trkpt>
      <trkpt lat="42.338658571243286" lon="1.9467580318450928">
        <ele>1688.8248925434586</ele>
        <time>2021-07-14T19:50:13.473Z</time>
      </trkpt>
      <trkpt lat="42.338701486587524" lon="1.9466936588287354">
        <ele>1687.4230230341782</ele>
        <time>2021-07-14T19:50:17.202Z</time>
      </trkpt>
      <trkpt lat="42.338733756914735" lon="1.9467902183532715">
        <ele>1685.8899921123161</ele>
        <time>2021-07-14T19:50:20.932Z</time>
      </trkpt>
      <trkpt lat="42.3387336730957" lon="1.9467902183532715">
        <ele>1684.4051637719908</ele>
        <time>2021-07-14T19:50:24.662Z</time>
      </trkpt>
      <trkpt lat="42.338712215423584" lon="1.9468975067138672">
        <ele>1682.8266321373344</ele>
        <time>2021-07-14T19:50:28.394Z</time>
      </trkpt>
      <trkpt lat="42.33864784240723" lon="1.9469833374023438">
        <ele>1681.2127087108306</ele>
        <time>2021-07-14T19:50:32.127Z</time>
      </trkpt>
      <trkpt lat="42.33848690986633" lon="1.9470155239105225">
        <ele>1679.5935590148565</ele>
        <time>2021-07-14T19:50:35.863Z</time>
      </trkpt>
      <trkpt lat="42.33829379081726" lon="1.947176456451416">
        <ele>1677.7824117980388</ele>
        <time>2021-07-14T19:50:39.602Z</time>
      </trkpt>
      <trkpt lat="42.33763933181763" lon="1.9477450847625732">
        <ele>1675.7373407110806</ele>
        <time>2021-07-14T19:50:43.354Z</time>
      </trkpt>
      <trkpt lat="42.3373818397522" lon="1.9479382038116455">
        <ele>1673.7592917344186</ele>
        <time>2021-07-14T19:50:47.110Z</time>
      </trkpt>
      <trkpt lat="42.33714588917792" lon="1.9480454921722412">
        <ele>1671.7154226747934</ele>
        <time>2021-07-14T19:50:50.870Z</time>
      </trkpt>
      <trkpt lat="42.33698487281799" lon="1.9480669498443604">
        <ele>1669.783901719943</ele>
        <time>2021-07-14T19:50:54.633Z</time>
      </trkpt>
      <trkpt lat="42.33683466911316" lon="1.9479811191558838">
        <ele>1667.9396688174438</ele>
        <time>2021-07-14T19:50:58.399Z</time>
      </trkpt>
      <trkpt lat="42.336469888687134" lon="1.947723627090454">
        <ele>1666.0106780147398</ele>
        <time>2021-07-14T19:51:02.171Z</time>
      </trkpt>
      <trkpt lat="42.33612656593323" lon="1.9474339485168457">
        <ele>1663.8836613937365</ele>
        <time>2021-07-14T19:51:05.950Z</time>
      </trkpt>
      <trkpt lat="42.335922718048096" lon="1.9472408294677734">
        <ele>1661.824855356388</ele>
        <time>2021-07-14T19:51:09.733Z</time>
      </trkpt>
      <trkpt lat="42.33572959899902" lon="1.9469726085662842">
        <ele>1659.956759003397</ele>
        <time>2021-07-14T19:51:13.520Z</time>
      </trkpt>
      <trkpt lat="42.335665225982666" lon="1.9469404220581055">
        <ele>1657.8437248288196</ele>
        <time>2021-07-14T19:51:17.308Z</time>
      </trkpt>
      <trkpt lat="42.33561158180237" lon="1.9469618797302246">
        <ele>1655.5952015699131</ele>
        <time>2021-07-14T19:51:21.097Z</time>
      </trkpt>
      <trkpt lat="42.33559012413025" lon="1.9470155239105225">
        <ele>1653.2430719258866</ele>
        <time>2021-07-14T19:51:24.887Z</time>
      </trkpt>
      <trkpt lat="42.33561158180237" lon="1.9470906257629395">
        <ele>1650.8055510527392</ele>
        <time>2021-07-14T19:51:28.678Z</time>
      </trkpt>
      <trkpt lat="42.33574032783508" lon="1.947251558303833">
        <ele>1648.1882989964533</ele>
        <time>2021-07-14T19:51:32.472Z</time>
      </trkpt>
      <trkpt lat="42.335976362228394" lon="1.9477450847625732">
        <ele>1645.3382733277704</ele>
        <time>2021-07-14T19:51:36.273Z</time>
      </trkpt>
      <trkpt lat="42.33608365058899" lon="1.947948932647705">
        <ele>1642.7798244072992</ele>
        <time>2021-07-14T19:51:40.077Z</time>
      </trkpt>
      <trkpt lat="42.336212396621704" lon="1.9481205940246582">
        <ele>1640.2749669142145</ele>
        <time>2021-07-14T19:51:43.883Z</time>
      </trkpt>
      <trkpt lat="42.33630903996527" lon="1.9483458995819092">
        <ele>1637.6631489618458</ele>
        <time>2021-07-14T19:51:47.692Z</time>
      </trkpt>
      <trkpt lat="42.336437702178955" lon="1.948624849319458">
        <ele>1635.0727270020589</ele>
        <time>2021-07-14T19:51:51.505Z</time>
      </trkpt>
      <trkpt lat="42.336512887850404" lon="1.948925256729126">
        <ele>1632.3758666862782</ele>
        <time>2021-07-14T19:51:55.322Z</time>
      </trkpt>
      <trkpt lat="42.33656644821167" lon="1.9494295120239258">
        <ele>1629.3996474363407</ele>
        <time>2021-07-14T19:51:59.145Z</time>
      </trkpt>
      <trkpt lat="42.336663007736206" lon="1.9496655464172363">
        <ele>1626.775940169704</ele>
        <time>2021-07-14T19:52:02.971Z</time>
      </trkpt>
      <trkpt lat="42.33680248260498" lon="1.9498264789581299">
        <ele>1624.1902688142707</ele>
        <time>2021-07-14T19:52:06.800Z</time>
      </trkpt>
      <trkpt lat="42.33699560165405" lon="1.949923038482666">
        <ele>1621.727889714862</ele>
        <time>2021-07-14T19:52:10.633Z</time>
      </trkpt>
      <trkpt lat="42.337177991867065" lon="1.9499552249908447">
        <ele>1619.3730849783037</ele>
        <time>2021-07-14T19:52:14.469Z</time>
      </trkpt>
      <trkpt lat="42.337510669603944" lon="1.9499444961547852">
        <ele>1617.1183489088835</ele>
        <time>2021-07-14T19:52:18.310Z</time>
      </trkpt>
      <trkpt lat="42.337703704833984" lon="1.9499015808105469">
        <ele>1614.7337905707186</ele>
        <time>2021-07-14T19:52:22.154Z</time>
      </trkpt>
      <trkpt lat="42.338186502456665" lon="1.9497084617614746">
        <ele>1612.3256698943155</ele>
        <time>2021-07-14T19:52:26.006Z</time>
      </trkpt>
      <trkpt lat="42.33857274055481" lon="1.9496548175811768">
        <ele>1609.9181313820982</ele>
        <time>2021-07-14T19:52:29.864Z</time>
      </trkpt>
      <trkpt lat="42.33886250294745" lon="1.9495153427124023">
        <ele>1607.8187687072018</ele>
        <time>2021-07-14T19:52:33.727Z</time>
      </trkpt>
      <trkpt lat="42.33886241912842" lon="1.9495153427124023">
        <ele>1605.7390940839114</ele>
        <time>2021-07-14T19:52:37.590Z</time>
      </trkpt>
      <trkpt lat="42.3388946056366" lon="1.9495046138763428">
        <ele>1603.7337566111855</ele>
        <time>2021-07-14T19:52:41.454Z</time>
      </trkpt>
      <trkpt lat="42.33900189399719" lon="1.949547529220581">
        <ele>1601.6866171988436</ele>
        <time>2021-07-14T19:52:45.320Z</time>
      </trkpt>
      <trkpt lat="42.339216470718384" lon="1.9497299194335938">
        <ele>1599.4879900677138</ele>
        <time>2021-07-14T19:52:49.190Z</time>
      </trkpt>
      <trkpt lat="42.33961343765259" lon="1.9499337673187256">
        <ele>1597.50374973245</ele>
        <time>2021-07-14T19:52:53.066Z</time>
      </trkpt>
      <trkpt lat="42.33976364135742" lon="1.9500517845153809">
        <ele>1595.6215886459331</ele>
        <time>2021-07-14T19:52:56.945Z</time>
      </trkpt>
      <trkpt lat="42.33997821807861" lon="1.9503414630889893">
        <ele>1593.58831925721</ele>
        <time>2021-07-14T19:53:00.829Z</time>
      </trkpt>
      <trkpt lat="42.34007477760315" lon="1.9505131244659424">
        <ele>1591.725800525111</ele>
        <time>2021-07-14T19:53:04.716Z</time>
      </trkpt>
      <trkpt lat="42.34026789665222" lon="1.9507062435150146">
        <ele>1589.958664918931</ele>
        <time>2021-07-14T19:53:08.606Z</time>
      </trkpt>
      <trkpt lat="42.340654134750366" lon="1.9509422779083252">
        <ele>1588.4201069606183</ele>
        <time>2021-07-14T19:53:12.503Z</time>
      </trkpt>
      <trkpt lat="42.34084725379944" lon="1.950995922088623">
        <ele>1586.942762083555</ele>
        <time>2021-07-14T19:53:16.403Z</time>
      </trkpt>
      <trkpt lat="42.34129786491394" lon="1.95107102394104">
        <ele>1585.3656470674864</ele>
        <time>2021-07-14T19:53:20.311Z</time>
      </trkpt>
      <trkpt lat="42.34153389930725" lon="1.95107102394104">
        <ele>1583.9115509509286</ele>
        <time>2021-07-14T19:53:24.222Z</time>
      </trkpt>
      <trkpt lat="42.34185576438904" lon="1.9510173797607422">
        <ele>1582.5774366332303</ele>
        <time>2021-07-14T19:53:28.139Z</time>
      </trkpt>
      <trkpt lat="42.34188803471625" lon="1.9510281085968018">
        <ele>1581.1462677400827</ele>
        <time>2021-07-14T19:53:32.056Z</time>
      </trkpt>
      <trkpt lat="42.341920137405396" lon="1.9510388374328613">
        <ele>1579.722465229626</ele>
        <time>2021-07-14T19:53:35.974Z</time>
      </trkpt>
      <trkpt lat="42.341930866241455" lon="1.9510817527770996">
        <ele>1578.2594778555983</ele>
        <time>2021-07-14T19:53:39.892Z</time>
      </trkpt>
      <trkpt lat="42.34203815460205" lon="1.9510602951049805">
        <ele>1576.8352283408076</ele>
        <time>2021-07-14T19:53:43.812Z</time>
      </trkpt>
      <trkpt lat="42.342166900634766" lon="1.951124668121338">
        <ele>1575.317176100028</ele>
        <time>2021-07-14T19:53:47.734Z</time>
      </trkpt>
      <trkpt lat="42.342413663864136" lon="1.9511783123016357">
        <ele>1573.7458341371932</ele>
        <time>2021-07-14T19:53:51.660Z</time>
      </trkpt>
      <trkpt lat="42.34248876571655" lon="1.9511353969573975">
        <ele>1572.246282686599</ele>
        <time>2021-07-14T19:53:55.587Z</time>
      </trkpt>
      <trkpt lat="42.34257459640503" lon="1.950995922088623">
        <ele>1570.728185067535</ele>
        <time>2021-07-14T19:53:59.517Z</time>
      </trkpt>
      <trkpt lat="42.34272480010986" lon="1.9504380226135254">
        <ele>1569.269019888928</ele>
        <time>2021-07-14T19:54:03.454Z</time>
      </trkpt>
      <trkpt lat="42.3428750038147" lon="1.9501805305480957">
        <ele>1567.632569353438</ele>
        <time>2021-07-14T19:54:07.395Z</time>
      </trkpt>
      <trkpt lat="42.34354019165039" lon="1.9494080543518066">
        <ele>1565.5780807856281</ele>
        <time>2021-07-14T19:54:11.350Z</time>
      </trkpt>
      <trkpt lat="42.34375476837158" lon="1.9492149353027344">
        <ele>1563.7366714615214</ele>
        <time>2021-07-14T19:54:15.309Z</time>
      </trkpt>
      <trkpt lat="42.343958616256714" lon="1.9490110874176025">
        <ele>1561.8764423482653</ele>
        <time>2021-07-14T19:54:19.272Z</time>
      </trkpt>
      <trkpt lat="42.34403380192816" lon="1.949021816253662">
        <ele>1559.9975962180004</ele>
        <time>2021-07-14T19:54:23.236Z</time>
      </trkpt>
      <trkpt lat="42.34403371810913" lon="1.949021816253662">
        <ele>1558.181043157013</ele>
        <time>2021-07-14T19:54:27.200Z</time>
      </trkpt>
      <trkpt lat="42.343915700912476" lon="1.94932222366333">
        <ele>1556.2806898808412</ele>
        <time>2021-07-14T19:54:31.168Z</time>
      </trkpt>
      <trkpt lat="42.34362602233887" lon="1.9499552249908447">
        <ele>1554.3640572126167</ele>
        <time>2021-07-14T19:54:35.145Z</time>
      </trkpt>
      <trkpt lat="42.34355092048645" lon="1.9503521919250488">
        <ele>1552.349468777194</ele>
        <time>2021-07-14T19:54:39.127Z</time>
      </trkpt>
      <trkpt lat="42.343465089797974" lon="1.9515430927276611">
        <ele>1550.1399425225936</ele>
        <time>2021-07-14T19:54:43.123Z</time>
      </trkpt>
      <trkpt lat="42.343443632125854" lon="1.9518864154815674">
        <ele>1547.969395513811</ele>
        <time>2021-07-14T19:54:47.123Z</time>
      </trkpt>
      <trkpt lat="42.34340080060065" lon="1.95206880569458">
        <ele>1545.890166958355</ele>
        <time>2021-07-14T19:54:51.125Z</time>
      </trkpt>
      <trkpt lat="42.34338998794556" lon="1.9521117210388184">
        <ele>1543.8458457791307</ele>
        <time>2021-07-14T19:54:55.128Z</time>
      </trkpt>
      <trkpt lat="42.34333634376526" lon="1.9522833824157715">
        <ele>1541.7593934864135</ele>
        <time>2021-07-14T19:54:59.133Z</time>
      </trkpt>
      <trkpt lat="42.3431218508631" lon="1.952594518661499">
        <ele>1539.5846216545665</ele>
        <time>2021-07-14T19:55:03.143Z</time>
      </trkpt>
      <trkpt lat="42.34281071461737" lon="1.9530344009399414">
        <ele>1537.1640234790552</ele>
        <time>2021-07-14T19:55:07.160Z</time>
      </trkpt>
      <trkpt lat="42.34259605407715" lon="1.953216791152954">
        <ele>1534.890768668612</ele>
        <time>2021-07-14T19:55:11.181Z</time>
      </trkpt>
      <trkpt lat="42.34249949455261" lon="1.9532597064971924">
        <ele>1532.8168462335175</ele>
        <time>2021-07-14T19:55:15.204Z</time>
      </trkpt>
      <trkpt lat="42.34229564666748" lon="1.9533026218414307">
        <ele>1530.6768622290879</ele>
        <time>2021-07-14T19:55:19.230Z</time>
      </trkpt>
      <trkpt lat="42.34210252761841" lon="1.9532811641693115">
        <ele>1528.6233904268206</ele>
        <time>2021-07-14T19:55:23.259Z</time>
      </trkpt>
      <trkpt lat="42.34151244163513" lon="1.9530236721038818">
        <ele>1526.7658927395717</ele>
        <time>2021-07-14T19:55:27.298Z</time>
      </trkpt>
      <trkpt lat="42.34130859375" lon="1.952970027923584">
        <ele>1524.842869728312</ele>
        <time>2021-07-14T19:55:31.341Z</time>
      </trkpt>
      <trkpt lat="42.34107255935669" lon="1.952970027923584">
        <ele>1522.8530819118375</ele>
        <time>2021-07-14T19:55:35.387Z</time>
      </trkpt>
      <trkpt lat="42.340922355651855" lon="1.9530022144317627">
        <ele>1520.8876540208626</ele>
        <time>2021-07-14T19:55:39.436Z</time>
      </trkpt>
      <trkpt lat="42.340654134750366" lon="1.9531095027923584">
        <ele>1518.8316264345958</ele>
        <time>2021-07-14T19:55:43.489Z</time>
      </trkpt>
      <trkpt lat="42.34047174453735" lon="1.953270435333252">
        <ele>1516.9272369998564</ele>
        <time>2021-07-14T19:55:47.546Z</time>
      </trkpt>
      <trkpt lat="42.34009623527527" lon="1.9536352157592773">
        <ele>1514.9674151005559</ele>
        <time>2021-07-14T19:55:51.610Z</time>
      </trkpt>
      <trkpt lat="42.33988165855408" lon="1.95381760597229">
        <ele>1513.20122815796</ele>
        <time>2021-07-14T19:55:55.678Z</time>
      </trkpt>
      <trkpt lat="42.339752996340394" lon="1.9538283348083496">
        <ele>1511.501229509504</ele>
        <time>2021-07-14T19:55:59.748Z</time>
      </trkpt>
      <trkpt lat="42.33975291252136" lon="1.9538283348083496">
        <ele>1509.9348577984374</ele>
        <time>2021-07-14T19:56:03.818Z</time>
      </trkpt>
      <trkpt lat="42.3395384196192" lon="1.953742504119873">
        <ele>1508.372038031802</ele>
        <time>2021-07-14T19:56:07.892Z</time>
      </trkpt>
      <trkpt lat="42.339495504274964" lon="1.9537103176116943">
        <ele>1506.9007665392883</ele>
        <time>2021-07-14T19:56:11.967Z</time>
      </trkpt>
      <trkpt lat="42.33914136886597" lon="1.9533562660217285">
        <ele>1505.5270306719704</ele>
        <time>2021-07-14T19:56:16.049Z</time>
      </trkpt>
      <trkpt lat="42.339012706652284" lon="1.953270435333252">
        <ele>1504.3114743950655</ele>
        <time>2021-07-14T19:56:20.133Z</time>
      </trkpt>
      <trkpt lat="42.33891614712775" lon="1.9532597064971924">
        <ele>1503.0519379507846</ele>
        <time>2021-07-14T19:56:24.219Z</time>
      </trkpt>
      <trkpt lat="42.33887314796448" lon="1.9532489776611328">
        <ele>1501.7628296097414</ele>
        <time>2021-07-14T19:56:28.305Z</time>
      </trkpt>
      <trkpt lat="42.33879812993109" lon="1.9533026218414307">
        <ele>1500.4876090036446</ele>
        <time>2021-07-14T19:56:32.393Z</time>
      </trkpt>
      <trkpt lat="42.338712215423584" lon="1.9533884525299072">
        <ele>1499.219292407408</ele>
        <time>2021-07-14T19:56:36.482Z</time>
      </trkpt>
      <trkpt lat="42.33862638473511" lon="1.9535279273986816">
        <ele>1497.9307114032563</ele>
        <time>2021-07-14T19:56:40.573Z</time>
      </trkpt>
      <trkpt lat="42.338465452194214" lon="1.9542467594146729">
        <ele>1496.0708856810243</ele>
        <time>2021-07-14T19:56:44.673Z</time>
      </trkpt>
      <trkpt lat="42.33837962150574" lon="1.9544506072998047">
        <ele>1494.597784715708</ele>
        <time>2021-07-14T19:56:48.776Z</time>
      </trkpt>
      <trkpt lat="42.33810075558722" lon="1.954890489578247">
        <ele>1492.9165373519415</ele>
        <time>2021-07-14T19:56:52.886Z</time>
      </trkpt>
      <trkpt lat="42.337918281555176" lon="1.9551587104797363">
        <ele>1491.4403103740187</ele>
        <time>2021-07-14T19:56:57.000Z</time>
      </trkpt>
      <trkpt lat="42.33781099319458" lon="1.955244541168213">
        <ele>1490.1417984308023</ele>
        <time>2021-07-14T19:57:01.116Z</time>
      </trkpt>
      <trkpt lat="42.337671518325806" lon="1.9552767276763916">
        <ele>1488.9294752196674</ele>
        <time>2021-07-14T19:57:05.235Z</time>
      </trkpt>
      <trkpt lat="42.33753204345703" lon="1.9552123546600342">
        <ele>1487.8092592074795</ele>
        <time>2021-07-14T19:57:09.356Z</time>
      </trkpt>
      <trkpt lat="42.33737111091614" lon="1.955094337463379">
        <ele>1486.6627962491434</ele>
        <time>2021-07-14T19:57:13.480Z</time>
      </trkpt>
      <trkpt lat="42.33686685562134" lon="1.9546759128570557">
        <ele>1485.4615592505788</ele>
        <time>2021-07-14T19:57:17.613Z</time>
      </trkpt>
      <trkpt lat="42.336716651916504" lon="1.954643726348877">
        <ele>1484.1863257787495</ele>
        <time>2021-07-14T19:57:21.749Z</time>
      </trkpt>
      <trkpt lat="42.33662009239197" lon="1.9546544551849365">
        <ele>1482.9443055077204</ele>
        <time>2021-07-14T19:57:25.886Z</time>
      </trkpt>
      <trkpt lat="42.33654499053955" lon="1.9547080993652344">
        <ele>1481.781381463365</ele>
        <time>2021-07-14T19:57:30.025Z</time>
      </trkpt>
      <trkpt lat="42.336405515670776" lon="1.9548475742340088">
        <ele>1480.6881212596154</ele>
        <time>2021-07-14T19:57:34.166Z</time>
      </trkpt>
      <trkpt lat="42.33637341298163" lon="1.9549334049224854">
        <ele>1479.4210196516174</ele>
        <time>2021-07-14T19:57:38.309Z</time>
      </trkpt>
      <trkpt lat="42.3363733291626" lon="1.9549334049224854">
        <ele>1478.0949283397556</ele>
        <time>2021-07-14T19:57:42.452Z</time>
      </trkpt>
      <trkpt lat="42.33634114265442" lon="1.9550085067749023">
        <ele>1476.734605137534</ele>
        <time>2021-07-14T19:57:46.596Z</time>
      </trkpt>
      <trkpt lat="42.33629822731018" lon="1.9552552700042725">
        <ele>1475.2389397036711</ele>
        <time>2021-07-14T19:57:50.743Z</time>
      </trkpt>
      <trkpt lat="42.33628749847412" lon="1.9555449485778809">
        <ele>1473.5417065819647</ele>
        <time>2021-07-14T19:57:54.893Z</time>
      </trkpt>
      <trkpt lat="42.33629831112921" lon="1.9557702541351318">
        <ele>1471.8009521446602</ele>
        <time>2021-07-14T19:57:59.046Z</time>
      </trkpt>
      <trkpt lat="42.33635187149048" lon="1.9562530517578125">
        <ele>1470.1114539871487</ele>
        <time>2021-07-14T19:58:03.205Z</time>
      </trkpt>
      <trkpt lat="42.336426973342896" lon="1.9565963745117188">
        <ele>1468.3011894515057</ele>
        <time>2021-07-14T19:58:07.368Z</time>
      </trkpt>
      <trkpt lat="42.336491430178285" lon="1.956714391708374">
        <ele>1466.7651159319234</ele>
        <time>2021-07-14T19:58:11.533Z</time>
      </trkpt>
      <trkpt lat="42.33649134635925" lon="1.956714391708374">
        <ele>1465.0914397557767</ele>
        <time>2021-07-14T19:58:15.698Z</time>
      </trkpt>
      <trkpt lat="42.33654499053955" lon="1.9568216800689697">
        <ele>1463.4673771531832</ele>
        <time>2021-07-14T19:58:19.864Z</time>
      </trkpt>
      <trkpt lat="42.337231719866395" lon="1.9573581218719482">
        <ele>1461.636402902896</ele>
        <time>2021-07-14T19:58:24.043Z</time>
      </trkpt>
      <trkpt lat="42.33723163604736" lon="1.9573581218719482">
        <ele>1459.8423010073984</ele>
        <time>2021-07-14T19:58:28.222Z</time>
      </trkpt>
      <trkpt lat="42.33757495880127" lon="1.9576263427734375">
        <ele>1458.0902028738246</ele>
        <time>2021-07-14T19:58:32.407Z</time>
      </trkpt>
      <trkpt lat="42.33784317970276" lon="1.957765817642212">
        <ele>1456.1626233192537</ele>
        <time>2021-07-14T19:58:36.597Z</time>
      </trkpt>
      <trkpt lat="42.33879812993109" lon="1.957916021347046">
        <ele>1453.6813482707894</ele>
        <time>2021-07-14T19:58:40.802Z</time>
      </trkpt>
      <trkpt lat="42.33879804611206" lon="1.957916021347046">
        <ele>1451.7739771436036</ele>
        <time>2021-07-14T19:58:45.007Z</time>
      </trkpt>
      <trkpt lat="42.33892687596381" lon="1.957937479019165">
        <ele>1449.7882697141129</ele>
        <time>2021-07-14T19:58:49.214Z</time>
      </trkpt>
      <trkpt lat="42.33922719955444" lon="1.9579803943634033">
        <ele>1447.7206357295233</ele>
        <time>2021-07-14T19:58:53.426Z</time>
      </trkpt>
      <trkpt lat="42.33931311406195" lon="1.9579803943634033">
        <ele>1445.7521616531562</ele>
        <time>2021-07-14T19:58:57.639Z</time>
      </trkpt>
      <trkpt lat="42.33931303024292" lon="1.9579803943634033">
        <ele>1443.844779793131</ele>
        <time>2021-07-14T19:59:01.852Z</time>
      </trkpt>
      <trkpt lat="42.33951687812805" lon="1.9579696655273438">
        <ele>1441.8291834336333</ele>
        <time>2021-07-14T19:59:06.069Z</time>
      </trkpt>
      <trkpt lat="42.33980655670166" lon="1.957937479019165">
        <ele>1439.8189637523128</ele>
        <time>2021-07-14T19:59:10.290Z</time>
      </trkpt>
      <trkpt lat="42.34061130322516" lon="1.9577765464782715">
        <ele>1437.843268331535</ele>
        <time>2021-07-14T19:59:14.524Z</time>
      </trkpt>
      <trkpt lat="42.34061121940613" lon="1.9577765464782715">
        <ele>1436.0574127162863</ele>
        <time>2021-07-14T19:59:18.758Z</time>
      </trkpt>
      <trkpt lat="42.341684103012085" lon="1.9575726985931396">
        <ele>1434.1786166543443</ele>
        <time>2021-07-14T19:59:23.010Z</time>
      </trkpt>
      <trkpt lat="42.342660427093506" lon="1.9573044776916504">
        <ele>1432.164984654842</ele>
        <time>2021-07-14T19:59:27.278Z</time>
      </trkpt>
      <trkpt lat="42.34283208847046" lon="1.9572937488555908">
        <ele>1430.532190427245</ele>
        <time>2021-07-14T19:59:31.548Z</time>
      </trkpt>
      <trkpt lat="42.342939376831055" lon="1.9572937488555908">
        <ele>1428.9720047778565</ele>
        <time>2021-07-14T19:59:35.820Z</time>
      </trkpt>
      <trkpt lat="42.34307893551886" lon="1.9573688507080078">
        <ele>1427.383870039099</ele>
        <time>2021-07-14T19:59:40.094Z</time>
      </trkpt>
      <trkpt lat="42.34307885169983" lon="1.9573688507080078">
        <ele>1426.0082020976995</ele>
        <time>2021-07-14T19:59:44.368Z</time>
      </trkpt>
      <trkpt lat="42.3431754950434" lon="1.9574546813964844">
        <ele>1424.6615751552085</ele>
        <time>2021-07-14T19:59:48.644Z</time>
      </trkpt>
      <trkpt lat="42.34328278340399" lon="1.9575834274291992">
        <ele>1423.4874401567054</ele>
        <time>2021-07-14T19:59:52.923Z</time>
      </trkpt>
      <trkpt lat="42.34328269958496" lon="1.9575834274291992">
        <ele>1422.3795573583757</ele>
        <time>2021-07-14T19:59:57.202Z</time>
      </trkpt>
      <trkpt lat="42.34334707260132" lon="1.9576585292816162">
        <ele>1421.3948276301758</ele>
        <time>2021-07-14T20:00:01.482Z</time>
      </trkpt>
      <trkpt lat="42.34354019165039" lon="1.9577980041503906">
        <ele>1420.5639907651566</ele>
        <time>2021-07-14T20:00:05.765Z</time>
      </trkpt>
      <trkpt lat="42.34378695487976" lon="1.957765817642212">
        <ele>1419.7331623857904</ele>
        <time>2021-07-14T20:00:10.052Z</time>
      </trkpt>
      <trkpt lat="42.343937158584595" lon="1.9576692581176758">
        <ele>1418.9098723906222</ele>
        <time>2021-07-14T20:00:14.342Z</time>
      </trkpt>
      <trkpt lat="42.3440230730921" lon="1.9575512409210205">
        <ele>1418.1698558506614</ele>
        <time>2021-07-14T20:00:18.634Z</time>
      </trkpt>
      <trkpt lat="42.34402298927307" lon="1.9575512409210205">
        <ele>1417.6113733478428</ele>
        <time>2021-07-14T20:00:22.926Z</time>
      </trkpt>
      <trkpt lat="42.34478482045233" lon="1.9565320014953613">
        <ele>1417.0013326300973</ele>
        <time>2021-07-14T20:00:27.235Z</time>
      </trkpt>
      <trkpt lat="42.3447847366333" lon="1.9565320014953613">
        <ele>1416.6228463433235</ele>
        <time>2021-07-14T20:00:31.544Z</time>
      </trkpt>
      <trkpt lat="42.344956481829286" lon="1.9563066959381104">
        <ele>1416.3437836508706</ele>
        <time>2021-07-14T20:00:35.857Z</time>
      </trkpt>
      <trkpt lat="42.344956398010254" lon="1.9563066959381104">
        <ele>1416.1387179406938</ele>
        <time>2021-07-14T20:00:40.170Z</time>
      </trkpt>
      <trkpt lat="42.34535344876349" lon="1.9557702541351318">
        <ele>1416.038098526159</ele>
        <time>2021-07-14T20:00:44.492Z</time>
      </trkpt>
      <trkpt lat="42.345482194796205" lon="1.9555985927581787">
        <ele>1416.0116804943268</ele>
        <time>2021-07-14T20:00:48.817Z</time>
      </trkpt>
      <trkpt lat="42.34585770405829" lon="1.955094337463379">
        <ele>1415.8210382706748</ele>
        <time>2021-07-14T20:00:53.150Z</time>
      </trkpt>
      <trkpt lat="42.34604001045227" lon="1.9548583030700684">
        <ele>1415.8991372599942</ele>
        <time>2021-07-14T20:00:57.487Z</time>
      </trkpt>
      <trkpt lat="42.34608300961554" lon="1.9548261165618896">
        <ele>1416.0840789362062</ele>
        <time>2021-07-14T20:01:01.825Z</time>
      </trkpt>
      <trkpt lat="42.34612584114075" lon="1.9548046588897705">
        <ele>1416.328870751434</ele>
        <time>2021-07-14T20:01:06.164Z</time>
      </trkpt>
      <trkpt lat="42.34628677368164" lon="1.9547295570373535">
        <ele>1416.6398795474142</ele>
        <time>2021-07-14T20:01:10.506Z</time>
      </trkpt>
      <trkpt lat="42.34634041786194" lon="1.9546544551849365">
        <ele>1417.0211842502727</ele>
        <time>2021-07-14T20:01:14.849Z</time>
      </trkpt>
      <trkpt lat="42.346458435058594" lon="1.9544720649719238">
        <ele>1417.3283639977703</ele>
        <time>2021-07-14T20:01:19.195Z</time>
      </trkpt>
      <trkpt lat="42.346640825271606" lon="1.9540214538574219">
        <ele>1417.5675535744685</ele>
        <time>2021-07-14T20:01:23.547Z</time>
      </trkpt>
      <trkpt lat="42.34702714718878" lon="1.952970027923584">
        <ele>1418.2863507923676</ele>
        <time>2021-07-14T20:01:27.913Z</time>
      </trkpt>
      <trkpt lat="42.34702706336975" lon="1.952970027923584">
        <ele>1418.7850919013667</ele>
        <time>2021-07-14T20:01:32.279Z</time>
      </trkpt>
      <trkpt lat="42.347209537401795" lon="1.9524872303009033">
        <ele>1419.3249271713828</ele>
        <time>2021-07-14T20:01:36.651Z</time>
      </trkpt>
      <trkpt lat="42.34756350517273" lon="1.9515109062194824">
        <ele>1419.6437081610843</ele>
        <time>2021-07-14T20:01:41.036Z</time>
      </trkpt>
      <trkpt lat="42.34763860702515" lon="1.9512748718261719">
        <ele>1420.2328563975384</ele>
        <time>2021-07-14T20:01:45.424Z</time>
      </trkpt>
      <trkpt lat="42.347670793533325" lon="1.9509530067443848">
        <ele>1420.7305435683177</ele>
        <time>2021-07-14T20:01:49.816Z</time>
      </trkpt>
      <trkpt lat="42.347692251205444" lon="1.9499337673187256">
        <ele>1421.4005203863635</ele>
        <time>2021-07-14T20:01:54.220Z</time>
      </trkpt>
      <trkpt lat="42.34772443771362" lon="1.949697732925415">
        <ele>1421.9578836853962</ele>
        <time>2021-07-14T20:01:58.627Z</time>
      </trkpt>
      <trkpt lat="42.347917556762695" lon="1.9489145278930664">
        <ele>1422.6842550191784</ele>
        <time>2021-07-14T20:02:03.044Z</time>
      </trkpt>
      <trkpt lat="42.347960472106934" lon="1.9487106800079346">
        <ele>1423.051482484237</ele>
        <time>2021-07-14T20:02:07.463Z</time>
      </trkpt>
      <trkpt lat="42.34801411628723" lon="1.9481849670410156">
        <ele>1423.3890535411285</ele>
        <time>2021-07-14T20:02:11.889Z</time>
      </trkpt>
      <trkpt lat="42.348003471270204" lon="1.947948932647705">
        <ele>1423.5266617572474</ele>
        <time>2021-07-14T20:02:16.317Z</time>
      </trkpt>
      <trkpt lat="42.347960472106934" lon="1.947798728942871">
        <ele>1423.5117889134835</ele>
        <time>2021-07-14T20:02:20.747Z</time>
      </trkpt>
      <trkpt lat="42.34786399640143" lon="1.9475626945495605">
        <ele>1423.32963467213</ele>
        <time>2021-07-14T20:02:25.181Z</time>
      </trkpt>
      <trkpt lat="42.34783172607422" lon="1.9474232196807861">
        <ele>1423.1133290578323</ele>
        <time>2021-07-14T20:02:29.616Z</time>
      </trkpt>
      <trkpt lat="42.34783172607422" lon="1.9472301006317139">
        <ele>1422.873782098713</ele>
        <time>2021-07-14T20:02:34.054Z</time>
      </trkpt>
      <trkpt lat="42.34788537025452" lon="1.946554183959961">
        <ele>1422.3797790077</ele>
        <time>2021-07-14T20:02:38.500Z</time>
      </trkpt>
      <trkpt lat="42.347928285598755" lon="1.9460177421569824">
        <ele>1421.8929703083163</ele>
        <time>2021-07-14T20:02:42.952Z</time>
      </trkpt>
      <trkpt lat="42.347906827926636" lon="1.9458675384521484">
        <ele>1421.3545398221845</ele>
        <time>2021-07-14T20:02:47.406Z</time>
      </trkpt>
      <trkpt lat="42.34784245491028" lon="1.9456422328948975">
        <ele>1420.6084545798085</ele>
        <time>2021-07-14T20:02:51.863Z</time>
      </trkpt>
      <trkpt lat="42.34777808189392" lon="1.945481300354004">
        <ele>1419.6469673593767</ele>
        <time>2021-07-14T20:02:56.322Z</time>
      </trkpt>
      <trkpt lat="42.34752058982849" lon="1.945052146911621">
        <ele>1418.3078024481854</ele>
        <time>2021-07-14T20:03:00.787Z</time>
      </trkpt>
      <trkpt lat="42.347413301467896" lon="1.9448161125183105">
        <ele>1417.2190422537433</ele>
        <time>2021-07-14T20:03:05.256Z</time>
      </trkpt>
      <trkpt lat="42.3473596572876" lon="1.9446015357971191">
        <ele>1416.0483749956338</ele>
        <time>2021-07-14T20:03:09.727Z</time>
      </trkpt>
      <trkpt lat="42.34734892845154" lon="1.9444406032562256">
        <ele>1414.6970112463896</ele>
        <time>2021-07-14T20:03:14.200Z</time>
      </trkpt>
      <trkpt lat="42.34738111495972" lon="1.9441187381744385">
        <ele>1413.0877653222449</ele>
        <time>2021-07-14T20:03:18.677Z</time>
      </trkpt>
      <trkpt lat="42.347445487976074" lon="1.9439470767974854">
        <ele>1411.4034482496295</ele>
        <time>2021-07-14T20:03:23.156Z</time>
      </trkpt>
      <trkpt lat="42.34777808189392" lon="1.9433033466339111">
        <ele>1410.0091939277213</ele>
        <time>2021-07-14T20:03:27.645Z</time>
      </trkpt>
      <trkpt lat="42.34784245491028" lon="1.9431424140930176">
        <ele>1408.330159884364</ele>
        <time>2021-07-14T20:03:32.136Z</time>
      </trkpt>
      <trkpt lat="42.34788537025452" lon="1.9429492950439453">
        <ele>1406.5769582350545</ele>
        <time>2021-07-14T20:03:36.629Z</time>
      </trkpt>
      <trkpt lat="42.347939014434814" lon="1.942455768585205">
        <ele>1404.1242235915292</ele>
        <time>2021-07-14T20:03:41.128Z</time>
      </trkpt>
      <trkpt lat="42.34798192977905" lon="1.942133903503418">
        <ele>1402.2846044793882</ele>
        <time>2021-07-14T20:03:45.631Z</time>
      </trkpt>
      <trkpt lat="42.34804630279541" lon="1.941908597946167">
        <ele>1399.8706092155703</ele>
        <time>2021-07-14T20:03:50.137Z</time>
      </trkpt>
      <trkpt lat="42.34811067581177" lon="1.9417691230773926">
        <ele>1397.3778089054854</ele>
        <time>2021-07-14T20:03:54.645Z</time>
      </trkpt>
      <trkpt lat="42.348207235336304" lon="1.9416189193725586">
        <ele>1394.7428227666458</ele>
        <time>2021-07-14T20:03:59.155Z</time>
      </trkpt>
      <trkpt lat="42.34888315200806" lon="1.9408249855041504">
        <ele>1392.2221780846685</ele>
        <time>2021-07-14T20:04:03.680Z</time>
      </trkpt>
      <trkpt lat="42.34935522079468" lon="1.9402241706848145">
        <ele>1389.5952879024849</ele>
        <time>2021-07-14T20:04:08.215Z</time>
      </trkpt>
      <trkpt lat="42.34947323799133" lon="1.9400417804718018">
        <ele>1387.200791857571</ele>
        <time>2021-07-14T20:04:12.753Z</time>
      </trkpt>
      <trkpt lat="42.34954833984375" lon="1.939859390258789">
        <ele>1384.7479429620828</ele>
        <time>2021-07-14T20:04:17.293Z</time>
      </trkpt>
      <trkpt lat="42.34959125518799" lon="1.9396770000457764">
        <ele>1382.3668915877104</ele>
        <time>2021-07-14T20:04:21.836Z</time>
      </trkpt>
      <trkpt lat="42.34960198402405" lon="1.939483880996704">
        <ele>1379.8988472861067</ele>
        <time>2021-07-14T20:04:26.381Z</time>
      </trkpt>
      <trkpt lat="42.34954833984375" lon="1.9381213188171387">
        <ele>1377.3172641622132</ele>
        <time>2021-07-14T20:04:30.942Z</time>
      </trkpt>
      <trkpt lat="42.34954833984375" lon="1.9378423690795898">
        <ele>1374.7756910208273</ele>
        <time>2021-07-14T20:04:35.506Z</time>
      </trkpt>
      <trkpt lat="42.34955906867981" lon="1.937638521194458">
        <ele>1372.0401993514643</ele>
        <time>2021-07-14T20:04:40.073Z</time>
      </trkpt>
      <trkpt lat="42.349666357040405" lon="1.9371771812438965">
        <ele>1369.3420440758146</ele>
        <time>2021-07-14T20:04:44.646Z</time>
      </trkpt>
      <trkpt lat="42.34975218772888" lon="1.936941146850586">
        <ele>1366.4723226824694</ele>
        <time>2021-07-14T20:04:49.222Z</time>
      </trkpt>
      <trkpt lat="42.35005259513855" lon="1.9363188743591309">
        <ele>1363.2440250949874</ele>
        <time>2021-07-14T20:04:53.806Z</time>
      </trkpt>
      <trkpt lat="42.35012769699097" lon="1.9361364841461182">
        <ele>1360.657874057542</ele>
        <time>2021-07-14T20:04:58.393Z</time>
      </trkpt>
      <trkpt lat="42.350170612335205" lon="1.9359219074249268">
        <ele>1357.9830517789187</ele>
        <time>2021-07-14T20:05:02.983Z</time>
      </trkpt>
      <trkpt lat="42.350192070007324" lon="1.9357287883758545">
        <ele>1355.1317352779913</ele>
        <time>2021-07-14T20:05:07.575Z</time>
      </trkpt>
      <trkpt lat="42.350170612335205" lon="1.9350099563598633">
        <ele>1352.1745881545412</ele>
        <time>2021-07-14T20:05:12.175Z</time>
      </trkpt>
      <trkpt lat="42.350192153826356" lon="1.9343233108520508">
        <ele>1349.0539578601265</ele>
        <time>2021-07-14T20:05:16.784Z</time>
      </trkpt>
      <trkpt lat="42.350202882662416" lon="1.9337654113769531">
        <ele>1346.09112275911</ele>
        <time>2021-07-14T20:05:21.399Z</time>
      </trkpt>
      <trkpt lat="42.350202798843384" lon="1.9337654113769531">
        <ele>1343.2020962591396</ele>
        <time>2021-07-14T20:05:26.014Z</time>
      </trkpt>
      <trkpt lat="42.350202882662416" lon="1.9332826137542725">
        <ele>1340.1684477617364</ele>
        <time>2021-07-14T20:05:30.635Z</time>
      </trkpt>
      <trkpt lat="42.350202798843384" lon="1.9330358505249023">
        <ele>1337.2037282093675</ele>
        <time>2021-07-14T20:05:35.259Z</time>
      </trkpt>
      <trkpt lat="42.3502242565155" lon="1.932692527770996">
        <ele>1334.240020888556</ele>
        <time>2021-07-14T20:05:39.887Z</time>
      </trkpt>
      <trkpt lat="42.35026717185974" lon="1.932445764541626">
        <ele>1331.0175056970859</ele>
        <time>2021-07-14T20:05:44.518Z</time>
      </trkpt>
      <trkpt lat="42.35035300254822" lon="1.9322097301483154">
        <ele>1328.216643459822</ele>
        <time>2021-07-14T20:05:49.152Z</time>
      </trkpt>
      <trkpt lat="42.35047101974487" lon="1.9319844245910645">
        <ele>1325.2412536094357</ele>
        <time>2021-07-14T20:05:53.789Z</time>
      </trkpt>
      <trkpt lat="42.35062122344971" lon="1.931769847869873">
        <ele>1321.4669889693278</ele>
        <time>2021-07-14T20:05:58.430Z</time>
      </trkpt>
      <trkpt lat="42.350728595629334" lon="1.931673288345337">
        <ele>1317.8419455327135</ele>
        <time>2021-07-14T20:06:03.073Z</time>
      </trkpt>
      <trkpt lat="42.3507285118103" lon="1.931673288345337">
        <ele>1314.45767838153</ele>
        <time>2021-07-14T20:06:07.716Z</time>
      </trkpt>
      <trkpt lat="42.35137224197388" lon="1.931072473526001">
        <ele>1311.4101223387543</ele>
        <time>2021-07-14T20:06:12.371Z</time>
      </trkpt>
      <trkpt lat="42.351715648546815" lon="1.930546760559082">
        <ele>1307.0618543673384</ele>
        <time>2021-07-14T20:06:17.035Z</time>
      </trkpt>
      <trkpt lat="42.35171556472778" lon="1.930546760559082">
        <ele>1303.5193318373101</ele>
        <time>2021-07-14T20:06:21.699Z</time>
      </trkpt>
      <trkpt lat="42.3527991771698" lon="1.9292914867401123">
        <ele>1299.6819549892784</ele>
        <time>2021-07-14T20:06:26.386Z</time>
      </trkpt>
      <trkpt lat="42.35312104225159" lon="1.9289910793304443">
        <ele>1295.6108454331043</ele>
        <time>2021-07-14T20:06:31.079Z</time>
      </trkpt>
      <trkpt lat="42.35433340072632" lon="1.9284439086914062">
        <ele>1291.6842683941588</ele>
        <time>2021-07-14T20:06:35.792Z</time>
      </trkpt>
      <trkpt lat="42.35455870628357" lon="1.928250789642334">
        <ele>1287.7333515920313</ele>
        <time>2021-07-14T20:06:40.510Z</time>
      </trkpt>
      <trkpt lat="42.35534191131592" lon="1.9272422790527344">
        <ele>1283.615487575082</ele>
        <time>2021-07-14T20:06:45.245Z</time>
      </trkpt>
      <trkpt lat="42.35552430152893" lon="1.9270384311676025">
        <ele>1280.1410157392656</ele>
        <time>2021-07-14T20:06:49.984Z</time>
      </trkpt>
      <trkpt lat="42.3567259311676" lon="1.925879716873169">
        <ele>1275.9363858746703</ele>
        <time>2021-07-14T20:06:54.746Z</time>
      </trkpt>
      <trkpt lat="42.35697269439697" lon="1.9256007671356201">
        <ele>1272.5886080156183</ele>
        <time>2021-07-14T20:06:59.514Z</time>
      </trkpt>
      <trkpt lat="42.35721945762634" lon="1.925278902053833">
        <ele>1269.212754108271</ele>
        <time>2021-07-14T20:07:04.287Z</time>
      </trkpt>
      <trkpt lat="42.357444763183594" lon="1.9249248504638672">
        <ele>1265.3954873556593</ele>
        <time>2021-07-14T20:07:09.066Z</time>
      </trkpt>
      <trkpt lat="42.357637882232666" lon="1.9245600700378418">
        <ele>1262.1441766698154</ele>
        <time>2021-07-14T20:07:13.850Z</time>
      </trkpt>
      <trkpt lat="42.35780954360962" lon="1.9241845607757568">
        <ele>1258.7913742027586</ele>
        <time>2021-07-14T20:07:18.639Z</time>
      </trkpt>
      <trkpt lat="42.357916831970215" lon="1.9239270687103271">
        <ele>1255.514762691329</ele>
        <time>2021-07-14T20:07:23.432Z</time>
      </trkpt>
      <trkpt lat="42.358442544937134" lon="1.9224143028259277">
        <ele>1252.0361864151541</ele>
        <time>2021-07-14T20:07:28.244Z</time>
      </trkpt>
      <trkpt lat="42.358646392822266" lon="1.9219422340393066">
        <ele>1249.1243609343237</ele>
        <time>2021-07-14T20:07:33.063Z</time>
      </trkpt>
      <trkpt lat="42.3587429523468" lon="1.9217383861541748">
        <ele>1245.9225334989287</ele>
        <time>2021-07-14T20:07:37.885Z</time>
      </trkpt>
      <trkpt lat="42.358903884887695" lon="1.9214808940887451">
        <ele>1242.8996395463503</ele>
        <time>2021-07-14T20:07:42.711Z</time>
      </trkpt>
      <trkpt lat="42.36024498939514" lon="1.9196784496307373">
        <ele>1240.010098990722</ele>
        <time>2021-07-14T20:07:47.567Z</time>
      </trkpt>
      <trkpt lat="42.360427379608154" lon="1.919410228729248">
        <ele>1237.3654543975858</ele>
        <time>2021-07-14T20:07:52.427Z</time>
      </trkpt>
      <trkpt lat="42.36059904098511" lon="1.919088363647461">
        <ele>1234.2406020195049</ele>
        <time>2021-07-14T20:07:57.292Z</time>
      </trkpt>
      <trkpt lat="42.36074924468994" lon="1.9187557697296143">
        <ele>1231.4551769590876</ele>
        <time>2021-07-14T20:08:02.162Z</time>
      </trkpt>
      <trkpt lat="42.3608672618866" lon="1.9184017181396484">
        <ele>1228.650623867926</ele>
        <time>2021-07-14T20:08:07.036Z</time>
      </trkpt>
      <trkpt lat="42.361156940460205" lon="1.9173610210418701">
        <ele>1226.110857456842</ele>
        <time>2021-07-14T20:08:11.923Z</time>
      </trkpt>
      <trkpt lat="42.36128568649292" lon="1.9169962406158447">
        <ele>1223.846201588275</ele>
        <time>2021-07-14T20:08:16.815Z</time>
      </trkpt>
      <trkpt lat="42.361414432525635" lon="1.9166743755340576">
        <ele>1221.3847916795635</ele>
        <time>2021-07-14T20:08:21.712Z</time>
      </trkpt>
      <trkpt lat="42.362015331164" lon="1.9154834747314453">
        <ele>1219.198753595073</ele>
        <time>2021-07-14T20:08:26.626Z</time>
      </trkpt>
      <trkpt lat="42.36201524734497" lon="1.9154834747314453">
        <ele>1217.0572589999133</ele>
        <time>2021-07-14T20:08:31.540Z</time>
      </trkpt>
      <trkpt lat="42.36253023147583" lon="1.9144856929779053">
        <ele>1214.8468155198336</ele>
        <time>2021-07-14T20:08:36.468Z</time>
      </trkpt>
      <trkpt lat="42.36295938491821" lon="1.9136059284210205">
        <ele>1213.2925834525859</ele>
        <time>2021-07-14T20:08:41.409Z</time>
      </trkpt>
      <trkpt lat="42.363163232803345" lon="1.9131124019622803">
        <ele>1211.007896429052</ele>
        <time>2021-07-14T20:08:46.356Z</time>
      </trkpt>
      <trkpt lat="42.36379623413086" lon="1.911545991897583">
        <ele>1208.46845926062</ele>
        <time>2021-07-14T20:08:51.324Z</time>
      </trkpt>
      <trkpt lat="42.364171743392944" lon="1.9108271598815918">
        <ele>1206.305327859807</ele>
        <time>2021-07-14T20:08:56.303Z</time>
      </trkpt>
      <trkpt lat="42.36457943916321" lon="1.9102048873901367">
        <ele>1204.9191791421874</ele>
        <time>2021-07-14T20:09:01.292Z</time>
      </trkpt>
      <trkpt lat="42.365373373031616" lon="1.9091427326202393">
        <ele>1202.8530506057668</ele>
        <time>2021-07-14T20:09:06.299Z</time>
      </trkpt>
      <trkpt lat="42.365931356325746" lon="1.9084346294403076">
        <ele>1201.1124120845964</ele>
        <time>2021-07-14T20:09:11.318Z</time>
      </trkpt>
      <trkpt lat="42.365931272506714" lon="1.9084346294403076">
        <ele>1199.54866484588</ele>
        <time>2021-07-14T20:09:16.337Z</time>
      </trkpt>
      <trkpt lat="42.36758351325989" lon="1.9066107273101807">
        <ele>1197.8762044228156</ele>
        <time>2021-07-14T20:09:21.390Z</time>
      </trkpt>
      <trkpt lat="42.36778736114502" lon="1.9063210487365723">
        <ele>1196.5292613817112</ele>
        <time>2021-07-14T20:09:26.448Z</time>
      </trkpt>
      <trkpt lat="42.368141412734985" lon="1.9057846069335938">
        <ele>1195.2308934440925</ele>
        <time>2021-07-14T20:09:31.514Z</time>
      </trkpt>
      <trkpt lat="42.368388175964355" lon="1.905280351638794">
        <ele>1193.8858106637636</ele>
        <time>2021-07-14T20:09:36.587Z</time>
      </trkpt>
      <trkpt lat="42.368613481521606" lon="1.9047439098358154">
        <ele>1192.4893026819936</ele>
        <time>2021-07-14T20:09:41.668Z</time>
      </trkpt>
      <trkpt lat="42.36906409263611" lon="1.9034993648529053">
        <ele>1191.0192798946669</ele>
        <time>2021-07-14T20:09:46.765Z</time>
      </trkpt>
      <trkpt lat="42.36935377120972" lon="1.9029200077056885">
        <ele>1189.5376532042342</ele>
        <time>2021-07-14T20:09:51.870Z</time>
      </trkpt>
      <trkpt lat="42.36947178840637" lon="1.9027376174926758">
        <ele>1188.2101817253206</ele>
        <time>2021-07-14T20:09:56.978Z</time>
      </trkpt>
      <trkpt lat="42.36977219581604" lon="1.9023621082305908">
        <ele>1186.8793185916752</ele>
        <time>2021-07-14T20:10:02.093Z</time>
      </trkpt>
      <trkpt lat="42.36994385719299" lon="1.9021904468536377">
        <ele>1185.6299661660723</ele>
        <time>2021-07-14T20:10:07.211Z</time>
      </trkpt>
      <trkpt lat="42.370426654815674" lon="1.9017934799194336">
        <ele>1184.3427072524764</ele>
        <time>2021-07-14T20:10:12.338Z</time>
      </trkpt>
      <trkpt lat="42.37080216407776" lon="1.9014501571655273">
        <ele>1182.979316724773</ele>
        <time>2021-07-14T20:10:17.473Z</time>
      </trkpt>
      <trkpt lat="42.370909452438354" lon="1.901332139968872">
        <ele>1181.732421336394</ele>
        <time>2021-07-14T20:10:22.610Z</time>
      </trkpt>
      <trkpt lat="42.371156215667725" lon="1.9009780883789062">
        <ele>1180.4678865556716</ele>
        <time>2021-07-14T20:10:27.753Z</time>
      </trkpt>
      <trkpt lat="42.37161763943732" lon="1.9000768661499023">
        <ele>1178.9918733942118</ele>
        <time>2021-07-14T20:10:32.909Z</time>
      </trkpt>
      <trkpt lat="42.371617555618286" lon="1.9000768661499023">
        <ele>1177.6921121983733</ele>
        <time>2021-07-14T20:10:38.065Z</time>
      </trkpt>
      <trkpt lat="42.37182140350342" lon="1.8996798992156982">
        <ele>1176.4132939164433</ele>
        <time>2021-07-14T20:10:43.226Z</time>
      </trkpt>
      <trkpt lat="42.37203598022461" lon="1.8993687629699707">
        <ele>1175.1727452317336</ele>
        <time>2021-07-14T20:10:48.392Z</time>
      </trkpt>
      <trkpt lat="42.37234711647034" lon="1.8990039825439453">
        <ele>1173.8286826676967</ele>
        <time>2021-07-14T20:10:53.565Z</time>
      </trkpt>
      <trkpt lat="42.3727548122406" lon="1.8985533714294434">
        <ele>1172.4138355158084</ele>
        <time>2021-07-14T20:10:58.746Z</time>
      </trkpt>
      <trkpt lat="42.3732054233551" lon="1.8980276584625244">
        <ele>1170.6316309025021</ele>
        <time>2021-07-14T20:11:03.937Z</time>
      </trkpt>
      <trkpt lat="42.373709762468934" lon="1.8974053859710693">
        <ele>1168.9807523888283</ele>
        <time>2021-07-14T20:11:09.139Z</time>
      </trkpt>
      <trkpt lat="42.3737096786499" lon="1.8974053859710693">
        <ele>1167.5358412052174</ele>
        <time>2021-07-14T20:11:14.341Z</time>
      </trkpt>
      <trkpt lat="42.37435340881348" lon="1.8966007232666016">
        <ele>1165.745036606457</ele>
        <time>2021-07-14T20:11:19.557Z</time>
      </trkpt>
      <trkpt lat="42.37460017204285" lon="1.8963432312011719">
        <ele>1164.2413380121782</ele>
        <time>2021-07-14T20:11:24.778Z</time>
      </trkpt>
      <trkpt lat="42.37480401992798" lon="1.8961822986602783">
        <ele>1162.6927980337955</ele>
        <time>2021-07-14T20:11:30.003Z</time>
      </trkpt>
      <trkpt lat="42.374943578615785" lon="1.8960857391357422">
        <ele>1161.1347359972792</ele>
        <time>2021-07-14T20:11:35.230Z</time>
      </trkpt>
      <trkpt lat="42.37494349479675" lon="1.8960857391357422">
        <ele>1159.6655073750292</ele>
        <time>2021-07-14T20:11:40.457Z</time>
      </trkpt>
      <trkpt lat="42.375168800354004" lon="1.895989179611206">
        <ele>1158.1637672004802</ele>
        <time>2021-07-14T20:11:45.688Z</time>
      </trkpt>
      <trkpt lat="42.37654209136963" lon="1.895613670349121">
        <ele>1156.601178454747</ele>
        <time>2021-07-14T20:11:50.941Z</time>
      </trkpt>
      <trkpt lat="42.377153635025024" lon="1.8953883647918701">
        <ele>1155.0894939535121</ele>
        <time>2021-07-14T20:11:56.205Z</time>
      </trkpt>
      <trkpt lat="42.377872467041016" lon="1.8949806690216064">
        <ele>1153.3146864221148</ele>
        <time>2021-07-14T20:12:01.481Z</time>
      </trkpt>
      <trkpt lat="42.37852700985968" lon="1.8944871425628662">
        <ele>1151.73998379266</ele>
        <time>2021-07-14T20:12:06.769Z</time>
      </trkpt>
      <trkpt lat="42.37852692604065" lon="1.8944871425628662">
        <ele>1150.341408177985</ele>
        <time>2021-07-14T20:12:12.057Z</time>
      </trkpt>
      <trkpt lat="42.37872012890875" lon="1.8943369388580322">
        <ele>1148.9061724799913</ele>
        <time>2021-07-14T20:12:17.349Z</time>
      </trkpt>
      <trkpt lat="42.37903118133545" lon="1.8941116333007812">
        <ele>1147.3981932971762</ele>
        <time>2021-07-14T20:12:22.646Z</time>
      </trkpt>
      <trkpt lat="42.37923502922058" lon="1.893993616104126">
        <ele>1146.0189916852087</ele>
        <time>2021-07-14T20:12:27.947Z</time>
      </trkpt>
      <trkpt lat="42.379374504089355" lon="1.893918514251709">
        <ele>1144.6992313506794</ele>
        <time>2021-07-14T20:12:33.250Z</time>
      </trkpt>
      <trkpt lat="42.37996459007263" lon="1.8937146663665771">
        <ele>1143.4298181180911</ele>
        <time>2021-07-14T20:12:38.563Z</time>
      </trkpt>
      <trkpt lat="42.38030791282654" lon="1.8936395645141602">
        <ele>1142.154940485437</ele>
        <time>2021-07-14T20:12:43.881Z</time>
      </trkpt>
      <trkpt lat="42.380608320236206" lon="1.893543004989624">
        <ele>1140.8862585058343</ele>
        <time>2021-07-14T20:12:49.204Z</time>
      </trkpt>
      <trkpt lat="42.38075852394104" lon="1.893467903137207">
        <ele>1139.6066519882356</ele>
        <time>2021-07-14T20:12:54.530Z</time>
      </trkpt>
      <trkpt lat="42.38087662495673" lon="1.89339280128479">
        <ele>1138.31458248823</ele>
        <time>2021-07-14T20:12:59.858Z</time>
      </trkpt>
      <trkpt lat="42.38102674484253" lon="1.8933069705963135">
        <ele>1137.0330594457569</ele>
        <time>2021-07-14T20:13:05.189Z</time>
      </trkpt>
      <trkpt lat="42.38124132156372" lon="1.8930816650390625">
        <ele>1135.7247314879376</ele>
        <time>2021-07-14T20:13:10.524Z</time>
      </trkpt>
      <trkpt lat="42.38149881362915" lon="1.8928349018096924">
        <ele>1134.328955091893</ele>
        <time>2021-07-14T20:13:15.864Z</time>
      </trkpt>
      <trkpt lat="42.381852865219116" lon="1.8925774097442627">
        <ele>1132.8658376502394</ele>
        <time>2021-07-14T20:13:21.210Z</time>
      </trkpt>
      <trkpt lat="42.38203525543213" lon="1.8924486637115479">
        <ele>1131.5692435342112</ele>
        <time>2021-07-14T20:13:26.560Z</time>
      </trkpt>
      <trkpt lat="42.3822283744812" lon="1.8923521041870117">
        <ele>1130.2697371445056</ele>
        <time>2021-07-14T20:13:31.913Z</time>
      </trkpt>
      <trkpt lat="42.38242149353027" lon="1.8922662734985352">
        <ele>1128.9231311049334</ele>
        <time>2021-07-14T20:13:37.269Z</time>
      </trkpt>
      <trkpt lat="42.38281846046448" lon="1.8921482563018799">
        <ele>1127.4774017321342</ele>
        <time>2021-07-14T20:13:42.632Z</time>
      </trkpt>
      <trkpt lat="42.38302230834961" lon="1.8921053409576416">
        <ele>1126.0345109957248</ele>
        <time>2021-07-14T20:13:47.998Z</time>
      </trkpt>
      <trkpt lat="42.38355875015259" lon="1.892094612121582">
        <ele>1124.611278011796</ele>
        <time>2021-07-14T20:13:53.373Z</time>
      </trkpt>
      <trkpt lat="42.38457798957825" lon="1.892169713973999">
        <ele>1123.0782670836834</ele>
        <time>2021-07-14T20:13:58.764Z</time>
      </trkpt>
      <trkpt lat="42.38501795567572" lon="1.8922233581542969">
        <ele>1121.4693601980125</ele>
        <time>2021-07-14T20:14:04.162Z</time>
      </trkpt>
      <trkpt lat="42.38501787185669" lon="1.8922233581542969">
        <ele>1119.8961516638406</ele>
        <time>2021-07-14T20:14:09.560Z</time>
      </trkpt>
      <trkpt lat="42.385618686676025" lon="1.8923091888427734">
        <ele>1118.2683482915625</ele>
        <time>2021-07-14T20:14:14.968Z</time>
      </trkpt>
      <trkpt lat="42.386637926101685" lon="1.8925666809082031">
        <ele>1116.5643903347973</ele>
        <time>2021-07-14T20:14:20.392Z</time>
      </trkpt>
      <trkpt lat="42.38694906234741" lon="1.8926739692687988">
        <ele>1114.8840640184503</ele>
        <time>2021-07-14T20:14:25.822Z</time>
      </trkpt>
      <trkpt lat="42.38757133483887" lon="1.8929314613342285">
        <ele>1113.1460318452569</ele>
        <time>2021-07-14T20:14:31.262Z</time>
      </trkpt>
      <trkpt lat="42.388354539871216" lon="1.8933284282684326">
        <ele>1111.3613961053602</ele>
        <time>2021-07-14T20:14:36.715Z</time>
      </trkpt>
      <trkpt lat="42.39305377006531" lon="1.8960535526275635">
        <ele>1108.8525562503023</ele>
        <time>2021-07-14T20:14:42.250Z</time>
      </trkpt>
      <trkpt lat="42.393600940704346" lon="1.8963968753814697">
        <ele>1107.081162006837</ele>
        <time>2021-07-14T20:14:47.795Z</time>
      </trkpt>
      <trkpt lat="42.39376187324524" lon="1.896514892578125">
        <ele>1105.4034374656997</ele>
        <time>2021-07-14T20:14:53.343Z</time>
      </trkpt>
      <trkpt lat="42.39407300949097" lon="1.896815299987793">
        <ele>1103.722855941066</ele>
        <time>2021-07-14T20:14:58.897Z</time>
      </trkpt>
      <trkpt lat="42.39441633224487" lon="1.8972229957580566">
        <ele>1102.0738100699457</ele>
        <time>2021-07-14T20:15:04.458Z</time>
      </trkpt>
      <trkpt lat="42.39455580711365" lon="1.8974483013153076">
        <ele>1100.5249570960775</ele>
        <time>2021-07-14T20:15:10.023Z</time>
      </trkpt>
      <trkpt lat="42.394652366638184" lon="1.8975985050201416">
        <ele>1099.057939842066</ele>
        <time>2021-07-14T20:15:15.590Z</time>
      </trkpt>
      <trkpt lat="42.39478119648993" lon="1.8978774547576904">
        <ele>1097.6678132484249</ele>
        <time>2021-07-14T20:15:21.161Z</time>
      </trkpt>
      <trkpt lat="42.39479184150696" lon="1.8978989124298096">
        <ele>1096.3312581375367</ele>
        <time>2021-07-14T20:15:26.732Z</time>
      </trkpt>
      <trkpt lat="42.39503868855536" lon="1.898488998413086">
        <ele>1095.1163470350846</ele>
        <time>2021-07-14T20:15:32.311Z</time>
      </trkpt>
      <trkpt lat="42.39503860473633" lon="1.898488998413086">
        <ele>1093.934887796129</ele>
        <time>2021-07-14T20:15:37.890Z</time>
      </trkpt>
      <trkpt lat="42.39504933357239" lon="1.8985426425933838">
        <ele>1092.8473040700715</ele>
        <time>2021-07-14T20:15:43.470Z</time>
      </trkpt>
      <trkpt lat="42.395167434588075" lon="1.898435354232788">
        <ele>1091.814883669972</ele>
        <time>2021-07-14T20:15:49.052Z</time>
      </trkpt>
      <trkpt lat="42.39519953727722" lon="1.8982958793640137">
        <ele>1090.884455391329</ele>
        <time>2021-07-14T20:15:54.636Z</time>
      </trkpt>
      <trkpt lat="42.395843267440796" lon="1.8973839282989502">
        <ele>1089.8278240155591</ele>
        <time>2021-07-14T20:16:00.235Z</time>
      </trkpt>
      <trkpt lat="42.39621877670288" lon="1.8975448608398438">
        <ele>1089.1288396055515</ele>
        <time>2021-07-14T20:16:05.840Z</time>
      </trkpt>
      <trkpt lat="42.39649772644043" lon="1.8977165222167969">
        <ele>1088.550854106517</ele>
        <time>2021-07-14T20:16:11.450Z</time>
      </trkpt>
      <trkpt lat="42.396883964538574" lon="1.8982315063476562">
        <ele>1088.069949500878</ele>
        <time>2021-07-14T20:16:17.069Z</time>
      </trkpt>
      <trkpt lat="42.39698052406311" lon="1.898435354232788">
        <ele>1087.6932827786736</ele>
        <time>2021-07-14T20:16:22.691Z</time>
      </trkpt>
      <trkpt lat="42.39706643857062" lon="1.8985533714294434">
        <ele>1087.4627337969803</ele>
        <time>2021-07-14T20:16:28.315Z</time>
      </trkpt>
      <trkpt lat="42.39710935391486" lon="1.8986284732818604">
        <ele>1087.3821606696429</ele>
        <time>2021-07-14T20:16:33.940Z</time>
      </trkpt>
      <trkpt lat="42.39718437194824" lon="1.898714303970337">
        <ele>1087.4298371734362</ele>
        <time>2021-07-14T20:16:39.566Z</time>
      </trkpt>
      <trkpt lat="42.398096323013306" lon="1.8992936611175537">
        <ele>1087.5350201794638</ele>
        <time>2021-07-14T20:16:45.208Z</time>
      </trkpt>
      <trkpt lat="42.3983108997345" lon="1.8994545936584473">
        <ele>1087.8859902813851</ele>
        <time>2021-07-14T20:16:50.854Z</time>
      </trkpt>
      <trkpt lat="42.399662733078" lon="1.9003450870513916">
        <ele>1088.451265633374</ele>
        <time>2021-07-14T20:16:56.524Z</time>
      </trkpt>
      <trkpt lat="42.39998459815979" lon="1.9006133079528809">
        <ele>1089.1303046536714</ele>
        <time>2021-07-14T20:17:02.200Z</time>
      </trkpt>
      <trkpt lat="42.40020990371704" lon="1.9013428688049316">
        <ele>1089.9544460708603</ele>
        <time>2021-07-14T20:17:07.886Z</time>
      </trkpt>
      <trkpt lat="42.40048885345459" lon="1.9020295143127441">
        <ele>1090.8478509042648</ele>
        <time>2021-07-14T20:17:13.581Z</time>
      </trkpt>
      <trkpt lat="42.400918090716004" lon="1.9028127193450928">
        <ele>1091.9290360737036</ele>
        <time>2021-07-14T20:17:19.288Z</time>
      </trkpt>
      <trkpt lat="42.40091800689697" lon="1.9028127193450928">
        <ele>1093.0885091139503</ele>
        <time>2021-07-14T20:17:24.995Z</time>
      </trkpt>
      <trkpt lat="42.40127205848694" lon="1.9037246704101562">
        <ele>1094.5073916019733</ele>
        <time>2021-07-14T20:17:30.714Z</time>
      </trkpt>
      <trkpt lat="42.401593923568726" lon="1.9042718410491943">
        <ele>1095.9479539922522</ele>
        <time>2021-07-14T20:17:36.441Z</time>
      </trkpt>
      <trkpt lat="42.402666890993714" lon="1.9058489799499512">
        <ele>1097.5295346971927</ele>
        <time>2021-07-14T20:17:42.193Z</time>
      </trkpt>
      <trkpt lat="42.40266680717468" lon="1.9058489799499512">
        <ele>1099.1142055390276</ele>
        <time>2021-07-14T20:17:47.945Z</time>
      </trkpt>
      <trkpt lat="42.40452289581299" lon="1.908574104309082">
        <ele>1100.9492217302409</ele>
        <time>2021-07-14T20:17:53.741Z</time>
      </trkpt>
      <trkpt lat="42.40553140640259" lon="1.9098401069641113">
        <ele>1102.824780078213</ele>
        <time>2021-07-14T20:17:59.559Z</time>
      </trkpt>
      <trkpt lat="42.407366037368774" lon="1.9118356704711914">
        <ele>1104.7224623633315</ele>
        <time>2021-07-14T20:18:05.415Z</time>
      </trkpt>
      <trkpt lat="42.410563230514526" lon="1.9118249416351318">
        <ele>1106.7907415161094</ele>
        <time>2021-07-14T20:18:11.322Z</time>
      </trkpt>
      <trkpt lat="42.41076707839966" lon="1.9119322299957275">
        <ele>1108.6696372009765</ele>
        <time>2021-07-14T20:18:17.233Z</time>
      </trkpt>
      <trkpt lat="42.41103529930115" lon="1.9122755527496338">
        <ele>1110.626593249262</ele>
        <time>2021-07-14T20:18:23.150Z</time>
      </trkpt>
      <trkpt lat="42.41189360618591" lon="1.9132089614868164">
        <ele>1112.603143461662</ele>
        <time>2021-07-14T20:18:29.084Z</time>
      </trkpt>
      <trkpt lat="42.413899982348084" lon="1.9157731533050537">
        <ele>1114.9111236431008</ele>
        <time>2021-07-14T20:18:35.062Z</time>
      </trkpt>
      <trkpt lat="42.41389989852905" lon="1.9157731533050537">
        <ele>1116.866761484421</ele>
        <time>2021-07-14T20:18:41.040Z</time>
      </trkpt>
      <trkpt lat="42.41442561149597" lon="1.916288137435913">
        <ele>1118.905546255604</ele>
        <time>2021-07-14T20:18:47.029Z</time>
      </trkpt>
      <trkpt lat="42.41474756039679" lon="1.916513442993164">
        <ele>1120.8778729075384</ele>
        <time>2021-07-14T20:18:53.024Z</time>
      </trkpt>
      <trkpt lat="42.41524108685553" lon="1.9168245792388916">
        <ele>1122.8407671794412</ele>
        <time>2021-07-14T20:18:59.027Z</time>
      </trkpt>
      <trkpt lat="42.417558431625366" lon="1.9182944297790527">
        <ele>1124.898695708066</ele>
        <time>2021-07-14T20:19:05.071Z</time>
      </trkpt>
      <trkpt lat="42.418867349624634" lon="1.9195711612701416">
        <ele>1126.8077122562518</ele>
        <time>2021-07-14T20:19:11.141Z</time>
      </trkpt>
      <trkpt lat="42.41994031704962" lon="1.9209551811218262">
        <ele>1128.6319249865683</ele>
        <time>2021-07-14T20:19:17.235Z</time>
      </trkpt>
      <trkpt lat="42.41994023323059" lon="1.9209551811218262">
        <ele>1130.3062185087301</ele>
        <time>2021-07-14T20:19:23.329Z</time>
      </trkpt>
      <trkpt lat="42.42043375968933" lon="1.9215989112854004">
        <ele>1131.9584585648656</ele>
        <time>2021-07-14T20:19:29.434Z</time>
      </trkpt>
      <trkpt lat="42.420551776885986" lon="1.9216418266296387">
        <ele>1133.5074715248134</ele>
        <time>2021-07-14T20:19:35.541Z</time>
      </trkpt>
      <trkpt lat="42.42205389775336" lon="1.9221997261047363">
        <ele>1135.066863009722</ele>
        <time>2021-07-14T20:19:41.673Z</time>
      </trkpt>
      <trkpt lat="42.42265462875366" lon="1.9224357604980469">
        <ele>1136.4412489051947</ele>
        <time>2021-07-14T20:19:47.815Z</time>
      </trkpt>
      <trkpt lat="42.423405731096864" lon="1.9227147102355957">
        <ele>1137.8000560938772</ele>
        <time>2021-07-14T20:19:53.969Z</time>
      </trkpt>
      <trkpt lat="42.423598850145936" lon="1.9227790832519531">
        <ele>1139.0046322967569</ele>
        <time>2021-07-14T20:20:00.126Z</time>
      </trkpt>
      <trkpt lat="42.42394217289984" lon="1.9229185581207275">
        <ele>1140.1596186538366</ele>
        <time>2021-07-14T20:20:06.289Z</time>
      </trkpt>
      <trkpt lat="42.42489695549011" lon="1.9232511520385742">
        <ele>1141.276228995312</ele>
        <time>2021-07-14T20:20:12.468Z</time>
      </trkpt>
      <trkpt lat="42.425079345703125" lon="1.923433542251587">
        <ele>1142.2745223147808</ele>
        <time>2021-07-14T20:20:18.651Z</time>
      </trkpt>
      <trkpt lat="42.42528319358826" lon="1.9236695766448975">
        <ele>1143.2057170573667</ele>
        <time>2021-07-14T20:20:24.838Z</time>
      </trkpt>
      <trkpt lat="42.425315380096436" lon="1.9237446784973145">
        <ele>1144.0475953489427</ele>
        <time>2021-07-14T20:20:31.026Z</time>
      </trkpt>
      <trkpt lat="42.42541193962097" lon="1.9238519668579102">
        <ele>1144.8288258716375</ele>
        <time>2021-07-14T20:20:37.216Z</time>
      </trkpt>
      <trkpt lat="42.42551922798157" lon="1.9238948822021484">
        <ele>1145.5477773432099</ele>
        <time>2021-07-14T20:20:43.408Z</time>
      </trkpt>
      <trkpt lat="42.425583600997925" lon="1.9238948822021484">
        <ele>1146.2031448278549</ele>
        <time>2021-07-14T20:20:49.601Z</time>
      </trkpt>
      <trkpt lat="42.42569088935852" lon="1.9238412380218506">
        <ele>1146.7982090431033</ele>
        <time>2021-07-14T20:20:55.796Z</time>
      </trkpt>
      <trkpt lat="42.42573380470276" lon="1.9237875938415527">
        <ele>1147.3373100050417</ele>
        <time>2021-07-14T20:21:01.991Z</time>
      </trkpt>
      <trkpt lat="42.425776720047" lon="1.9237339496612549">
        <ele>1147.8320909650279</ele>
        <time>2021-07-14T20:21:08.187Z</time>
      </trkpt>
      <trkpt lat="42.42594838142395" lon="1.9236373901367188">
        <ele>1148.2831328215232</ele>
        <time>2021-07-14T20:21:14.386Z</time>
      </trkpt>
      <trkpt lat="42.426109313964844" lon="1.9236266613006592">
        <ele>1148.7091511696462</ele>
        <time>2021-07-14T20:21:20.588Z</time>
      </trkpt>
      <trkpt lat="42.42689251899719" lon="1.9240021705627441">
        <ele>1149.1809410580336</ele>
        <time>2021-07-14T20:21:26.803Z</time>
      </trkpt>
      <trkpt lat="42.427064180374146" lon="1.924055814743042">
        <ele>1149.5893422898926</ele>
        <time>2021-07-14T20:21:33.021Z</time>
      </trkpt>
      <trkpt lat="42.42749333381653" lon="1.9241201877593994">
        <ele>1150.0139713867436</ele>
        <time>2021-07-14T20:21:39.246Z</time>
      </trkpt>
      <trkpt lat="42.42756851948798" lon="1.9241738319396973">
        <ele>1150.3627576662238</ele>
        <time>2021-07-14T20:21:45.472Z</time>
      </trkpt>
      <trkpt lat="42.42776155471802" lon="1.9242382049560547">
        <ele>1150.7173869033516</ele>
        <time>2021-07-14T20:21:51.701Z</time>
      </trkpt>
      <trkpt lat="42.42796548642218" lon="1.9239699840545654">
        <ele>1151.051798967095</ele>
        <time>2021-07-14T20:21:57.935Z</time>
      </trkpt>
      <trkpt lat="42.42796540260315" lon="1.9239699840545654">
        <ele>1151.356703498072</ele>
        <time>2021-07-14T20:22:04.169Z</time>
      </trkpt>
      <trkpt lat="42.428834438323975" lon="1.9227683544158936">
        <ele>1151.7418621829825</ele>
        <time>2021-07-14T20:22:10.423Z</time>
      </trkpt>
      <trkpt lat="42.42902764119208" lon="1.922532320022583">
        <ele>1152.1111681084255</ele>
        <time>2021-07-14T20:22:16.681Z</time>
      </trkpt>
      <trkpt lat="42.42944598197937" lon="1.9219958782196045">
        <ele>1152.4218121057413</ele>
        <time>2021-07-14T20:22:22.948Z</time>
      </trkpt>
      <trkpt lat="42.43014335632324" lon="1.9211804866790771">
        <ele>1152.7123737152717</ele>
        <time>2021-07-14T20:22:29.230Z</time>
      </trkpt>
      <trkpt lat="42.43030437268317" lon="1.9210302829742432">
        <ele>1153.0224008054247</ele>
        <time>2021-07-14T20:22:35.515Z</time>
      </trkpt>
      <trkpt lat="42.430304288864136" lon="1.9210302829742432">
        <ele>1153.3610634598663</ele>
        <time>2021-07-14T20:22:41.800Z</time>
      </trkpt>
      <trkpt lat="42.431076765060425" lon="1.9203543663024902">
        <ele>1153.7679620554186</ele>
        <time>2021-07-14T20:22:48.100Z</time>
      </trkpt>
      <trkpt lat="42.4320209864527" lon="1.919710636138916">
        <ele>1154.1611732501337</ele>
        <time>2021-07-14T20:22:54.417Z</time>
      </trkpt>
      <trkpt lat="42.43202090263367" lon="1.919710636138916">
        <ele>1154.5573782159909</ele>
        <time>2021-07-14T20:23:00.734Z</time>
      </trkpt>
      <trkpt lat="42.43231066502631" lon="1.9195818901062012">
        <ele>1155.0305982163327</ele>
        <time>2021-07-14T20:23:07.056Z</time>
      </trkpt>
      <trkpt lat="42.43236422538757" lon="1.9196462631225586">
        <ele>1155.4793646959629</ele>
        <time>2021-07-14T20:23:13.379Z</time>
      </trkpt>
      <trkpt lat="42.43242859840393" lon="1.9196140766143799">
        <ele>1155.9728744984195</ele>
        <time>2021-07-14T20:23:19.703Z</time>
      </trkpt>
      <trkpt lat="42.43248224258423" lon="1.919710636138916">
        <ele>1156.4707324026967</ele>
        <time>2021-07-14T20:23:26.028Z</time>
      </trkpt>
      <trkpt lat="42.43252515792847" lon="1.91986083984375">
        <ele>1156.9820082983483</ele>
        <time>2021-07-14T20:23:32.355Z</time>
      </trkpt>
      <trkpt lat="42.432632530108094" lon="1.920408010482788">
        <ele>1157.5225332523123</ele>
        <time>2021-07-14T20:23:38.689Z</time>
      </trkpt>
      <trkpt lat="42.43276119232178" lon="1.9211804866790771">
        <ele>1158.1174696184266</ele>
        <time>2021-07-14T20:23:45.032Z</time>
      </trkpt>
      <trkpt lat="42.43277192115784" lon="1.9214701652526855">
        <ele>1158.7207697657584</ele>
        <time>2021-07-14T20:23:51.379Z</time>
      </trkpt>
      <trkpt lat="42.43331917561591" lon="1.9216203689575195">
        <ele>1159.5098149307257</ele>
        <time>2021-07-14T20:23:57.735Z</time>
      </trkpt>
      <trkpt lat="42.433533668518066" lon="1.921684741973877">
        <ele>1160.2675402370667</ele>
        <time>2021-07-14T20:24:04.094Z</time>
      </trkpt>
      <trkpt lat="42.43382343091071" lon="1.9217705726623535">
        <ele>1161.0644667254455</ele>
        <time>2021-07-14T20:24:10.458Z</time>
      </trkpt>
      <trkpt lat="42.433823347091675" lon="1.9218456745147705">
        <ele>1161.8013112348706</ele>
        <time>2021-07-14T20:24:16.823Z</time>
      </trkpt>
      <trkpt lat="42.43385553359985" lon="1.9218885898590088">
        <ele>1162.5540214270325</ele>
        <time>2021-07-14T20:24:23.189Z</time>
      </trkpt>
      <trkpt lat="42.43391990661621" lon="1.9218778610229492">
        <ele>1163.3131699377927</ele>
        <time>2021-07-14T20:24:29.556Z</time>
      </trkpt>
      <trkpt lat="42.43394136428833" lon="1.9218456745147705">
        <ele>1164.0664655197907</ele>
        <time>2021-07-14T20:24:35.923Z</time>
      </trkpt>
      <trkpt lat="42.43398427963257" lon="1.9219207763671875">
        <ele>1164.869220417052</ele>
        <time>2021-07-14T20:24:42.291Z</time>
      </trkpt>
      <trkpt lat="42.43401654995978" lon="1.922285556793213">
        <ele>1165.7632489622415</ele>
        <time>2021-07-14T20:24:48.664Z</time>
      </trkpt>
      <trkpt lat="42.434102380648255" lon="1.9232511520385742">
        <ele>1167.3288041129053</ele>
        <time>2021-07-14T20:24:55.048Z</time>
      </trkpt>
      <trkpt lat="42.434145295992494" lon="1.9232404232025146">
        <ele>1168.130738096219</ele>
        <time>2021-07-14T20:25:01.433Z</time>
      </trkpt>
      <trkpt lat="42.43486404418945" lon="1.9232189655303955">
        <ele>1169.0324189667476</ele>
        <time>2021-07-14T20:25:07.829Z</time>
      </trkpt>
      <trkpt lat="42.435046434402466" lon="1.9232404232025146">
        <ele>1169.8403928050598</ele>
        <time>2021-07-14T20:25:14.228Z</time>
      </trkpt>
      <trkpt lat="42.435314655303955" lon="1.922929286956787">
        <ele>1170.3581109642978</ele>
        <time>2021-07-14T20:25:20.633Z</time>
      </trkpt>
      <trkpt lat="42.43601202964783" lon="1.9223177433013916">
        <ele>1170.6780009398867</ele>
        <time>2021-07-14T20:25:27.051Z</time>
      </trkpt>
      <trkpt lat="42.43635535240173" lon="1.922060251235962">
        <ele>1171.2831094434614</ele>
        <time>2021-07-14T20:25:33.476Z</time>
      </trkpt>
      <trkpt lat="42.4366021156311" lon="1.9218134880065918">
        <ele>1171.9786944442762</ele>
        <time>2021-07-14T20:25:39.906Z</time>
      </trkpt>
      <trkpt lat="42.436827421188354" lon="1.9212126731872559">
        <ele>1172.602690201632</ele>
        <time>2021-07-14T20:25:46.343Z</time>
      </trkpt>
      <trkpt lat="42.436870420351624" lon="1.9209980964660645">
        <ele>1173.3465317481573</ele>
        <time>2021-07-14T20:25:52.783Z</time>
      </trkpt>
      <trkpt lat="42.4370098952204" lon="1.9208264350891113">
        <ele>1174.184777039296</ele>
        <time>2021-07-14T20:25:59.226Z</time>
      </trkpt>
      <trkpt lat="42.438576305285096" lon="1.9188523292541504">
        <ele>1175.2395177821472</ele>
        <time>2021-07-14T20:26:05.703Z</time>
      </trkpt>
      <trkpt lat="42.43974566459656" lon="1.9174253940582275">
        <ele>1176.2580703145227</ele>
        <time>2021-07-14T20:26:12.206Z</time>
      </trkpt>
      <trkpt lat="42.43990668095648" lon="1.9173181056976318">
        <ele>1177.1235832865734</ele>
        <time>2021-07-14T20:26:18.712Z</time>
      </trkpt>
      <trkpt lat="42.43992805480957" lon="1.9172859191894531">
        <ele>1178.0321180073988</ele>
        <time>2021-07-14T20:26:25.218Z</time>
      </trkpt>
      <trkpt lat="42.4399281386286" lon="1.9172859191894531">
        <ele>1178.9700291445502</ele>
        <time>2021-07-14T20:26:31.724Z</time>
      </trkpt>
      <trkpt lat="42.44002469815314" lon="1.9171249866485596">
        <ele>1179.9256489611214</ele>
        <time>2021-07-14T20:26:38.232Z</time>
      </trkpt>
      <trkpt lat="42.44017481803894" lon="1.9169104099273682">
        <ele>1180.8871476913482</ele>
        <time>2021-07-14T20:26:44.744Z</time>
      </trkpt>
      <trkpt lat="42.44215965270996" lon="1.9152581691741943">
        <ele>1182.199178418192</ele>
        <time>2021-07-14T20:26:51.293Z</time>
      </trkpt>
      <trkpt lat="42.44239568710327" lon="1.91511869430542">
        <ele>1183.3496460263482</ele>
        <time>2021-07-14T20:26:57.846Z</time>
      </trkpt>
      <trkpt lat="42.4423957709223" lon="1.91511869430542">
        <ele>1184.4335503257894</ele>
        <time>2021-07-14T20:27:04.399Z</time>
      </trkpt>
      <trkpt lat="42.4430073145777" lon="1.914764642715454">
        <ele>1185.614523592394</ele>
        <time>2021-07-14T20:27:10.963Z</time>
      </trkpt>
      <trkpt lat="42.444562911987305" lon="1.9138097763061523">
        <ele>1186.8847224527863</ele>
        <time>2021-07-14T20:27:17.554Z</time>
      </trkpt>
      <trkpt lat="42.445271015167236" lon="1.9133484363555908">
        <ele>1188.147387736201</ele>
        <time>2021-07-14T20:27:24.158Z</time>
      </trkpt>
      <trkpt lat="42.44527109898627" lon="1.9133484363555908">
        <ele>1189.3146586478147</ele>
        <time>2021-07-14T20:27:30.762Z</time>
      </trkpt>
      <trkpt lat="42.44546413421631" lon="1.9132304191589355">
        <ele>1190.5761049350003</ele>
        <time>2021-07-14T20:27:37.369Z</time>
      </trkpt>
      <trkpt lat="42.44576454162598" lon="1.912994384765625">
        <ele>1191.8143080351224</ele>
        <time>2021-07-14T20:27:43.982Z</time>
      </trkpt>
      <trkpt lat="42.447309494018555" lon="1.9115352630615234">
        <ele>1193.2795506779255</ele>
        <time>2021-07-14T20:27:50.625Z</time>
      </trkpt>
      <trkpt lat="42.447309577837586" lon="1.9115352630615234">
        <ele>1194.4911619145546</ele>
        <time>2021-07-14T20:27:57.268Z</time>
      </trkpt>
      <trkpt lat="42.447341764345765" lon="1.9115030765533447">
        <ele>1195.7046235077405</ele>
        <time>2021-07-14T20:28:03.912Z</time>
      </trkpt>
      <trkpt lat="42.447599256411195" lon="1.911224126815796">
        <ele>1196.9818811448195</ele>
        <time>2021-07-14T20:28:10.561Z</time>
      </trkpt>
      <trkpt lat="42.447792291641235" lon="1.9109880924224854">
        <ele>1198.2222906082638</ele>
        <time>2021-07-14T20:28:17.214Z</time>
      </trkpt>
      <trkpt lat="42.448768615722656" lon="1.910097599029541">
        <ele>1199.5106811939495</ele>
        <time>2021-07-14T20:28:23.886Z</time>
      </trkpt>
      <trkpt lat="42.449079751968384" lon="1.9097864627838135">
        <ele>1200.715469566962</ele>
        <time>2021-07-14T20:28:30.564Z</time>
      </trkpt>
      <trkpt lat="42.449326599016786" lon="1.9095289707183838">
        <ele>1201.9753187247202</ele>
        <time>2021-07-14T20:28:37.247Z</time>
      </trkpt>
      <trkpt lat="42.449830770492554" lon="1.9090354442596436">
        <ele>1203.405847751249</ele>
        <time>2021-07-14T20:28:43.940Z</time>
      </trkpt>
      <trkpt lat="42.450077617540956" lon="1.9088637828826904">
        <ele>1204.6720443812524</ele>
        <time>2021-07-14T20:28:50.638Z</time>
      </trkpt>
      <trkpt lat="42.4501633644104" lon="1.9088101387023926">
        <ele>1205.9072388388904</ele>
        <time>2021-07-14T20:28:57.337Z</time>
      </trkpt>
      <trkpt lat="42.450560415163636" lon="1.9086170196533203">
        <ele>1207.1571663767259</ele>
        <time>2021-07-14T20:29:04.043Z</time>
      </trkpt>
      <trkpt lat="42.450828552246094" lon="1.9084882736206055">
        <ele>1208.3904415554068</ele>
        <time>2021-07-14T20:29:10.753Z</time>
      </trkpt>
      <trkpt lat="42.45121479034424" lon="1.9082200527191162">
        <ele>1209.5929426396303</ele>
        <time>2021-07-14T20:29:17.470Z</time>
      </trkpt>
      <trkpt lat="42.45188006199896" lon="1.9073188304901123">
        <ele>1210.862152693258</ele>
        <time>2021-07-14T20:29:24.202Z</time>
      </trkpt>
      <trkpt lat="42.45194443501532" lon="1.9072222709655762">
        <ele>1212.1327999854884</ele>
        <time>2021-07-14T20:29:30.936Z</time>
      </trkpt>
      <trkpt lat="42.45199807919562" lon="1.9071364402770996">
        <ele>1213.4038572574532</ele>
        <time>2021-07-14T20:29:37.671Z</time>
      </trkpt>
      <trkpt lat="42.45199799537659" lon="1.9071364402770996">
        <ele>1214.659574208076</ele>
        <time>2021-07-14T20:29:44.406Z</time>
      </trkpt>
      <trkpt lat="42.45250225067139" lon="1.906524896621704">
        <ele>1216.1196175476778</ele>
        <time>2021-07-14T20:29:51.152Z</time>
      </trkpt>
      <trkpt lat="42.45316743850708" lon="1.9059562683105469">
        <ele>1217.4841692824007</ele>
        <time>2021-07-14T20:29:57.911Z</time>
      </trkpt>
      <trkpt lat="42.453564405441284" lon="1.905355453491211">
        <ele>1218.8317080115924</ele>
        <time>2021-07-14T20:30:04.679Z</time>
      </trkpt>
      <trkpt lat="42.45386481285095" lon="1.9049584865570068">
        <ele>1220.1094990703414</ele>
        <time>2021-07-14T20:30:11.454Z</time>
      </trkpt>
      <trkpt lat="42.45489478111267" lon="1.9042396545410156">
        <ele>1221.4535112532217</ele>
        <time>2021-07-14T20:30:18.248Z</time>
      </trkpt>
      <trkpt lat="42.45534539222717" lon="1.9039714336395264">
        <ele>1222.7650353929325</ele>
        <time>2021-07-14T20:30:25.049Z</time>
      </trkpt>
      <trkpt lat="42.45713710784912" lon="1.9022655487060547">
        <ele>1224.157347718029</ele>
        <time>2021-07-14T20:30:31.885Z</time>
      </trkpt>
      <trkpt lat="42.45840319432318" lon="1.9012033939361572">
        <ele>1225.5865938147926</ele>
        <time>2021-07-14T20:30:38.745Z</time>
      </trkpt>
      <trkpt lat="42.45849975384772" lon="1.9011175632476807">
        <ele>1226.7873346858141</ele>
        <time>2021-07-14T20:30:45.607Z</time>
      </trkpt>
      <trkpt lat="42.459100568667054" lon="1.9006133079528809">
        <ele>1228.0138535939755</ele>
        <time>2021-07-14T20:30:52.480Z</time>
      </trkpt>
      <trkpt lat="42.45910048484802" lon="1.9006133079528809">
        <ele>1229.1639892986886</ele>
        <time>2021-07-14T20:30:59.353Z</time>
      </trkpt>
      <trkpt lat="42.45964773930609" lon="1.900184154510498">
        <ele>1230.254415754855</ele>
        <time>2021-07-14T20:31:06.237Z</time>
      </trkpt>
      <trkpt lat="42.4612033367157" lon="1.8993258476257324">
        <ele>1231.4124826975676</ele>
        <time>2021-07-14T20:31:13.147Z</time>
      </trkpt>
      <trkpt lat="42.461546659469604" lon="1.8989932537078857">
        <ele>1232.6036943804875</ele>
        <time>2021-07-14T20:31:20.064Z</time>
      </trkpt>
      <trkpt lat="42.461804151535034" lon="1.8986499309539795">
        <ele>1233.7296895644163</ele>
        <time>2021-07-14T20:31:26.987Z</time>
      </trkpt>
      <trkpt lat="42.462018728256226" lon="1.8983280658721924">
        <ele>1234.7921604006192</ele>
        <time>2021-07-14T20:31:33.915Z</time>
      </trkpt>
      <trkpt lat="42.46217966079712" lon="1.8980169296264648">
        <ele>1235.8378316062742</ele>
        <time>2021-07-14T20:31:40.848Z</time>
      </trkpt>
      <trkpt lat="42.46223330497742" lon="1.8975448608398438">
        <ele>1236.8281552323417</ele>
        <time>2021-07-14T20:31:47.786Z</time>
      </trkpt>
      <trkpt lat="42.46223330497742" lon="1.8973517417907715">
        <ele>1237.8130471551567</ele>
        <time>2021-07-14T20:31:54.727Z</time>
      </trkpt>
      <trkpt lat="42.462265491485596" lon="1.8972229957580566">
        <ele>1238.7981469057731</ele>
        <time>2021-07-14T20:32:01.669Z</time>
      </trkpt>
      <trkpt lat="42.46237277984619" lon="1.897062063217163">
        <ele>1239.7891505352109</ele>
        <time>2021-07-14T20:32:08.614Z</time>
      </trkpt>
      <trkpt lat="42.462522983551025" lon="1.8969440460205078">
        <ele>1240.8033450510559</ele>
        <time>2021-07-14T20:32:15.562Z</time>
      </trkpt>
      <trkpt lat="42.46269464492798" lon="1.8969011306762695">
        <ele>1241.889342229489</ele>
        <time>2021-07-14T20:32:22.512Z</time>
      </trkpt>
      <trkpt lat="42.46307015419006" lon="1.89613938331604">
        <ele>1242.8643271917545</ele>
        <time>2021-07-14T20:32:29.473Z</time>
      </trkpt>
      <trkpt lat="42.463585222139955" lon="1.8947339057922363">
        <ele>1243.9049885251507</ele>
        <time>2021-07-14T20:32:36.453Z</time>
      </trkpt>
      <trkpt lat="42.463789070025086" lon="1.8941760063171387">
        <ele>1244.9092718790544</ele>
        <time>2021-07-14T20:32:43.440Z</time>
      </trkpt>
      <trkpt lat="42.46399283409119" lon="1.8936288356781006">
        <ele>1245.9697581710925</ele>
        <time>2021-07-14T20:32:50.434Z</time>
      </trkpt>
      <trkpt lat="42.464314699172974" lon="1.8926310539245605">
        <ele>1247.1570981352847</ele>
        <time>2021-07-14T20:32:57.441Z</time>
      </trkpt>
      <trkpt lat="42.464572275057435" lon="1.891772747039795">
        <ele>1248.1548535420193</ele>
        <time>2021-07-14T20:33:04.459Z</time>
      </trkpt>
      <trkpt lat="42.46458292007446" lon="1.8917083740234375">
        <ele>1249.0810669040202</ele>
        <time>2021-07-14T20:33:11.478Z</time>
      </trkpt>
      <trkpt lat="42.464561546221375" lon="1.8911933898925781">
        <ele>1250.0213482962383</ele>
        <time>2021-07-14T20:33:18.503Z</time>
      </trkpt>
      <trkpt lat="42.464540004730225" lon="1.89039945602417">
        <ele>1250.924611898973</ele>
        <time>2021-07-14T20:33:25.538Z</time>
      </trkpt>
      <trkpt lat="42.465044260025024" lon="1.8908822536468506">
        <ele>1251.9084267977091</ele>
        <time>2021-07-14T20:33:32.582Z</time>
      </trkpt>
      <trkpt lat="42.46510863304138" lon="1.8905818462371826">
        <ele>1252.8222722801916</ele>
        <time>2021-07-14T20:33:39.630Z</time>
      </trkpt>
      <trkpt lat="42.46519454754889" lon="1.8903028964996338">
        <ele>1253.7764883084192</ele>
        <time>2021-07-14T20:33:46.682Z</time>
      </trkpt>
      <trkpt lat="42.46521600522101" lon="1.8902599811553955">
        <ele>1254.668104450694</ele>
        <time>2021-07-14T20:33:53.734Z</time>
      </trkpt>
      <trkpt lat="42.46521592140198" lon="1.8902599811553955">
        <ele>1255.539105563984</ele>
        <time>2021-07-14T20:34:00.786Z</time>
      </trkpt>
      <trkpt lat="42.465591514483094" lon="1.889101266860962">
        <ele>1256.400824509842</ele>
        <time>2021-07-14T20:34:07.853Z</time>
      </trkpt>
      <trkpt lat="42.46559143066406" lon="1.889101266860962">
        <ele>1257.2643340080517</ele>
        <time>2021-07-14T20:34:14.920Z</time>
      </trkpt>
      <trkpt lat="42.465795362368226" lon="1.8885111808776855">
        <ele>1258.1733046694233</ele>
        <time>2021-07-14T20:34:21.995Z</time>
      </trkpt>
      <trkpt lat="42.465795278549194" lon="1.8885111808776855">
        <ele>1259.034121519849</ele>
        <time>2021-07-14T20:34:29.070Z</time>
      </trkpt>
      <trkpt lat="42.46621378697455" lon="1.887298822402954">
        <ele>1259.9381453596566</ele>
        <time>2021-07-14T20:34:36.161Z</time>
      </trkpt>
      <trkpt lat="42.46626743115485" lon="1.8871164321899414">
        <ele>1260.8024523222218</ele>
        <time>2021-07-14T20:34:43.254Z</time>
      </trkpt>
      <trkpt lat="42.466321075335145" lon="1.886976957321167">
        <ele>1261.6722445092228</ele>
        <time>2021-07-14T20:34:50.349Z</time>
      </trkpt>
      <trkpt lat="42.46640682220459" lon="1.8867087364196777">
        <ele>1262.5597305600163</ele>
        <time>2021-07-14T20:34:57.447Z</time>
      </trkpt>
      <trkpt lat="42.46650346554816" lon="1.8864941596984863">
        <ele>1263.4394751029504</ele>
        <time>2021-07-14T20:35:04.548Z</time>
      </trkpt>
      <trkpt lat="42.466503381729126" lon="1.8864941596984863">
        <ele>1264.306040505125</ele>
        <time>2021-07-14T20:35:11.649Z</time>
      </trkpt>
      <trkpt lat="42.466771602630615" lon="1.8858718872070312">
        <ele>1265.1991803584388</ele>
        <time>2021-07-14T20:35:18.759Z</time>
      </trkpt>
      <trkpt lat="42.46696480549872" lon="1.8855178356170654">
        <ele>1266.1202963956625</ele>
        <time>2021-07-14T20:35:25.874Z</time>
      </trkpt>
      <trkpt lat="42.467061281204224" lon="1.8853569030761719">
        <ele>1267.0220353489535</ele>
        <time>2021-07-14T20:35:32.992Z</time>
      </trkpt>
      <trkpt lat="42.46723294258118" lon="1.8850994110107422">
        <ele>1267.8839086064527</ele>
        <time>2021-07-14T20:35:40.114Z</time>
      </trkpt>
      <trkpt lat="42.46814497746527" lon="1.8839514255523682">
        <ele>1268.9513408464595</ele>
        <time>2021-07-14T20:35:47.256Z</time>
      </trkpt>
      <trkpt lat="42.46889599598944" lon="1.8830287456512451">
        <ele>1270.0588524087761</ele>
        <time>2021-07-14T20:35:54.414Z</time>
      </trkpt>
      <trkpt lat="42.469089115038514" lon="1.8827927112579346">
        <ele>1270.94703758743</ele>
        <time>2021-07-14T20:36:01.576Z</time>
      </trkpt>
      <trkpt lat="42.46914275921881" lon="1.8827283382415771">
        <ele>1271.7609641990475</ele>
        <time>2021-07-14T20:36:08.739Z</time>
      </trkpt>
      <trkpt lat="42.46948599815369" lon="1.8823206424713135">
        <ele>1272.5952605003229</ele>
        <time>2021-07-14T20:36:15.910Z</time>
      </trkpt>
      <trkpt lat="42.46960401535034" lon="1.8822026252746582">
        <ele>1273.3413132649384</ele>
        <time>2021-07-14T20:36:23.083Z</time>
      </trkpt>
      <trkpt lat="42.46968984603882" lon="1.88215970993042">
        <ele>1274.0664138777547</ele>
        <time>2021-07-14T20:36:30.257Z</time>
      </trkpt>
      <trkpt lat="42.469829404726624" lon="1.8821382522583008">
        <ele>1274.7647774931459</ele>
        <time>2021-07-14T20:36:37.434Z</time>
      </trkpt>
      <trkpt lat="42.470247745513916" lon="1.8822455406188965">
        <ele>1275.5554209396016</ele>
        <time>2021-07-14T20:36:44.617Z</time>
      </trkpt>
      <trkpt lat="42.47039794921875" lon="1.8822133541107178">
        <ele>1276.231534302144</ele>
        <time>2021-07-14T20:36:51.803Z</time>
      </trkpt>
      <trkpt lat="42.470591152086854" lon="1.8821489810943604">
        <ele>1276.8794860712896</ele>
        <time>2021-07-14T20:36:58.992Z</time>
      </trkpt>
      <trkpt lat="42.47059106826782" lon="1.8821489810943604">
        <ele>1277.44665256752</ele>
        <time>2021-07-14T20:37:06.181Z</time>
      </trkpt>
      <trkpt lat="42.47081637382507" lon="1.8820202350616455">
        <ele>1277.8839648353419</ele>
        <time>2021-07-14T20:37:13.374Z</time>
      </trkpt>
      <trkpt lat="42.471020221710205" lon="1.8818271160125732">
        <ele>1278.4542940992942</ele>
        <time>2021-07-14T20:37:20.571Z</time>
      </trkpt>
      <trkpt lat="42.47132062911987" lon="1.8815052509307861">
        <ele>1278.9741902918113</ele>
        <time>2021-07-14T20:37:27.774Z</time>
      </trkpt>
      <trkpt lat="42.471513748168945" lon="1.8812477588653564">
        <ele>1279.4898741783977</ele>
        <time>2021-07-14T20:37:34.981Z</time>
      </trkpt>
      <trkpt lat="42.47243642807007" lon="1.8798637390136719">
        <ele>1279.758085664906</ele>
        <time>2021-07-14T20:37:42.210Z</time>
      </trkpt>
      <trkpt lat="42.47296214103699" lon="1.8790161609649658">
        <ele>1280.4011221741698</ele>
        <time>2021-07-14T20:37:49.453Z</time>
      </trkpt>
      <trkpt lat="42.47314453125" lon="1.8786728382110596">
        <ele>1280.9027714749163</ele>
        <time>2021-07-14T20:37:56.701Z</time>
      </trkpt>
      <trkpt lat="42.473284006118774" lon="1.878286600112915">
        <ele>1281.3211597928666</ele>
        <time>2021-07-14T20:38:03.954Z</time>
      </trkpt>
      <trkpt lat="42.47344493865967" lon="1.877685785293579">
        <ele>1281.7548198685881</ele>
        <time>2021-07-14T20:38:11.214Z</time>
      </trkpt>
      <trkpt lat="42.47358441352844" lon="1.8772673606872559">
        <ele>1282.1781089496008</ele>
        <time>2021-07-14T20:38:18.480Z</time>
      </trkpt>
      <trkpt lat="42.47397065162659" lon="1.876237392425537">
        <ele>1282.563591840391</ele>
        <time>2021-07-14T20:38:25.759Z</time>
      </trkpt>
      <trkpt lat="42.47422814369202" lon="1.8756258487701416">
        <ele>1282.7801906639413</ele>
        <time>2021-07-14T20:38:33.047Z</time>
      </trkpt>
      <trkpt lat="42.47468956746161" lon="1.8746817111968994">
        <ele>1283.2174651760906</ele>
        <time>2021-07-14T20:38:40.348Z</time>
      </trkpt>
      <trkpt lat="42.47468948364258" lon="1.8746817111968994">
        <ele>1283.6554833260534</ele>
        <time>2021-07-14T20:38:47.649Z</time>
      </trkpt>
      <trkpt lat="42.474775398150086" lon="1.8744993209838867">
        <ele>1284.1120068630853</ele>
        <time>2021-07-14T20:38:54.953Z</time>
      </trkpt>
      <trkpt lat="42.47485041618347" lon="1.8743383884429932">
        <ele>1284.5729679257506</ele>
        <time>2021-07-14T20:39:02.259Z</time>
      </trkpt>
      <trkpt lat="42.475311839953065" lon="1.8734586238861084">
        <ele>1285.2710204134441</ele>
        <time>2021-07-14T20:39:09.578Z</time>
      </trkpt>
      <trkpt lat="42.47539767064154" lon="1.8732976913452148">
        <ele>1285.7656859335252</ele>
        <time>2021-07-14T20:39:16.899Z</time>
      </trkpt>
      <trkpt lat="42.476749420166016" lon="1.8706583976745605">
        <ele>1286.2124730267574</ele>
        <time>2021-07-14T20:39:24.258Z</time>
      </trkpt>
      <trkpt lat="42.47691035270691" lon="1.8702828884124756">
        <ele>1286.81825465281</ele>
        <time>2021-07-14T20:39:31.622Z</time>
      </trkpt>
      <trkpt lat="42.47709274291992" lon="1.869499683380127">
        <ele>1287.6272128868432</ele>
        <time>2021-07-14T20:39:38.996Z</time>
      </trkpt>
      <trkpt lat="42.47723230160773" lon="1.8691456317901611">
        <ele>1288.3722010362112</ele>
        <time>2021-07-14T20:39:46.375Z</time>
      </trkpt>
      <trkpt lat="42.477232217788696" lon="1.8691456317901611">
        <ele>1289.179144061085</ele>
        <time>2021-07-14T20:39:53.754Z</time>
      </trkpt>
      <trkpt lat="42.47866988182068" lon="1.866302490234375">
        <ele>1290.646443217533</ele>
        <time>2021-07-14T20:40:01.173Z</time>
      </trkpt>
      <trkpt lat="42.4791955947876" lon="1.8650472164154053">
        <ele>1291.396538387969</ele>
        <time>2021-07-14T20:40:08.609Z</time>
      </trkpt>
      <trkpt lat="42.47939944267273" lon="1.8646502494812012">
        <ele>1292.4097458643366</ele>
        <time>2021-07-14T20:40:16.051Z</time>
      </trkpt>
      <trkpt lat="42.4798930529505" lon="1.864027976989746">
        <ele>1293.3763938834245</ele>
        <time>2021-07-14T20:40:23.504Z</time>
      </trkpt>
      <trkpt lat="42.4801504611969" lon="1.863781213760376">
        <ele>1294.572712055012</ele>
        <time>2021-07-14T20:40:30.962Z</time>
      </trkpt>
      <trkpt lat="42.48045086860657" lon="1.8635237216949463">
        <ele>1295.859364976972</ele>
        <time>2021-07-14T20:40:38.426Z</time>
      </trkpt>
      <trkpt lat="42.48090147972107" lon="1.8631911277770996">
        <ele>1296.998214946797</ele>
        <time>2021-07-14T20:40:45.898Z</time>
      </trkpt>
      <trkpt lat="42.48116970062256" lon="1.863030195236206">
        <ele>1298.243606156811</ele>
        <time>2021-07-14T20:40:53.375Z</time>
      </trkpt>
      <trkpt lat="42.481770515441895" lon="1.862804889678955">
        <ele>1299.5926492008748</ele>
        <time>2021-07-14T20:41:00.862Z</time>
      </trkpt>
      <trkpt lat="42.48196363449097" lon="1.8626976013183594">
        <ele>1300.948103023431</ele>
        <time>2021-07-14T20:41:08.352Z</time>
      </trkpt>
      <trkpt lat="42.4821138381958" lon="1.862558126449585">
        <ele>1302.098798682547</ele>
        <time>2021-07-14T20:41:15.845Z</time>
      </trkpt>
      <trkpt lat="42.482510805130005" lon="1.8617212772369385">
        <ele>1303.0286093273899</ele>
        <time>2021-07-14T20:41:23.350Z</time>
      </trkpt>
      <trkpt lat="42.4826180934906" lon="1.8615496158599854">
        <ele>1304.3029230060629</ele>
        <time>2021-07-14T20:41:30.857Z</time>
      </trkpt>
      <trkpt lat="42.48313307762146" lon="1.861034631729126">
        <ele>1305.9041785382524</ele>
        <time>2021-07-14T20:41:38.375Z</time>
      </trkpt>
      <trkpt lat="42.48385190963745" lon="1.860111951828003">
        <ele>1307.3354097243287</ele>
        <time>2021-07-14T20:41:45.908Z</time>
      </trkpt>
      <trkpt lat="42.483991384506226" lon="1.8599939346313477">
        <ele>1308.703454974654</ele>
        <time>2021-07-14T20:41:53.444Z</time>
      </trkpt>
      <trkpt lat="42.48416304588318" lon="1.859886646270752">
        <ele>1310.1110331878062</ele>
        <time>2021-07-14T20:42:00.983Z</time>
      </trkpt>
      <trkpt lat="42.48465657234192" lon="1.8596291542053223">
        <ele>1311.756254321815</ele>
        <time>2021-07-14T20:42:08.531Z</time>
      </trkpt>
      <trkpt lat="42.484796131029725" lon="1.8595433235168457">
        <ele>1313.1884261876999</ele>
        <time>2021-07-14T20:42:16.081Z</time>
      </trkpt>
      <trkpt lat="42.48479604721069" lon="1.8595433235168457">
        <ele>1314.6334952672296</ele>
        <time>2021-07-14T20:42:23.631Z</time>
      </trkpt>
      <trkpt lat="42.48568654060364" lon="1.858835220336914">
        <ele>1316.279780156772</ele>
        <time>2021-07-14T20:42:31.197Z</time>
      </trkpt>
      <trkpt lat="42.48630881309509" lon="1.8582236766815186">
        <ele>1317.8659123268</ele>
        <time>2021-07-14T20:42:38.776Z</time>
      </trkpt>
      <trkpt lat="42.48644828796387" lon="1.8580090999603271">
        <ele>1319.4788860298704</ele>
        <time>2021-07-14T20:42:46.358Z</time>
      </trkpt>
      <trkpt lat="42.486501932144165" lon="1.8578696250915527">
        <ele>1320.9629873919096</ele>
        <time>2021-07-14T20:42:53.942Z</time>
      </trkpt>
      <trkpt lat="42.48655557632446" lon="1.8576228618621826">
        <ele>1322.4272228063196</ele>
        <time>2021-07-14T20:43:01.529Z</time>
      </trkpt>
      <trkpt lat="42.48657703399658" lon="1.8573331832885742">
        <ele>1323.9192370702647</ele>
        <time>2021-07-14T20:43:09.120Z</time>
      </trkpt>
      <trkpt lat="42.48661994934082" lon="1.857064962387085">
        <ele>1325.4226544545381</ele>
        <time>2021-07-14T20:43:16.714Z</time>
      </trkpt>
      <trkpt lat="42.48666286468506" lon="1.8569469451904297">
        <ele>1326.9330419494245</ele>
        <time>2021-07-14T20:43:24.309Z</time>
      </trkpt>
      <trkpt lat="42.486716508865356" lon="1.856839656829834">
        <ele>1328.512309551374</ele>
        <time>2021-07-14T20:43:31.906Z</time>
      </trkpt>
      <trkpt lat="42.48682379722595" lon="1.856764554977417">
        <ele>1330.161294094526</ele>
        <time>2021-07-14T20:43:39.505Z</time>
      </trkpt>
      <trkpt lat="42.48807907104492" lon="1.8564534187316895">
        <ele>1332.0093825833915</ele>
        <time>2021-07-14T20:43:47.124Z</time>
      </trkpt>
      <trkpt lat="42.488240003585815" lon="1.856389045715332">
        <ele>1333.618692814061</ele>
        <time>2021-07-14T20:43:54.746Z</time>
      </trkpt>
      <trkpt lat="42.48835802078247" lon="1.856313943862915">
        <ele>1335.1879288307782</ele>
        <time>2021-07-14T20:44:02.370Z</time>
      </trkpt>
      <trkpt lat="42.488551223650575" lon="1.856088638305664">
        <ele>1336.8780658812047</ele>
        <time>2021-07-14T20:44:09.998Z</time>
      </trkpt>
      <trkpt lat="42.48855113983154" lon="1.856088638305664">
        <ele>1338.4200376258236</ele>
        <time>2021-07-14T20:44:17.626Z</time>
      </trkpt>
      <trkpt lat="42.48907685279846" lon="1.8554878234863281">
        <ele>1340.1137966916135</ele>
        <time>2021-07-14T20:44:25.265Z</time>
      </trkpt>
      <trkpt lat="42.489742040634155" lon="1.8545007705688477">
        <ele>1341.7069986998313</ele>
        <time>2021-07-14T20:44:32.920Z</time>
      </trkpt>
      <trkpt lat="42.49038577079773" lon="1.8535566329956055">
        <ele>1343.3506230723358</ele>
        <time>2021-07-14T20:44:40.590Z</time>
      </trkpt>
      <trkpt lat="42.490514516830444" lon="1.853395700454712">
        <ele>1344.8161859738266</ele>
        <time>2021-07-14T20:44:48.263Z</time>
      </trkpt>
      <trkpt lat="42.49067544937134" lon="1.8532562255859375">
        <ele>1346.2954689993228</ele>
        <time>2021-07-14T20:44:55.939Z</time>
      </trkpt>
      <trkpt lat="42.49211311340332" lon="1.852118968963623">
        <ele>1348.096710260345</ele>
        <time>2021-07-14T20:45:03.642Z</time>
      </trkpt>
      <trkpt lat="42.49228477478027" lon="1.85194730758667">
        <ele>1349.5810058178452</ele>
        <time>2021-07-14T20:45:11.348Z</time>
      </trkpt>
      <trkpt lat="42.49238133430481" lon="1.8518078327178955">
        <ele>1350.9930831285192</ele>
        <time>2021-07-14T20:45:19.056Z</time>
      </trkpt>
      <trkpt lat="42.49279975891113" lon="1.851046085357666">
        <ele>1352.4427552460234</ele>
        <time>2021-07-14T20:45:26.776Z</time>
      </trkpt>
      <trkpt lat="42.493035877123475" lon="1.850670576095581">
        <ele>1353.863986301245</ele>
        <time>2021-07-14T20:45:34.501Z</time>
      </trkpt>
      <trkpt lat="42.49303579330444" lon="1.850670576095581">
        <ele>1355.2674710655133</ele>
        <time>2021-07-14T20:45:42.226Z</time>
      </trkpt>
      <trkpt lat="42.49380826950073" lon="1.8495440483093262">
        <ele>1356.9460306455674</ele>
        <time>2021-07-14T20:45:49.970Z</time>
      </trkpt>
      <trkpt lat="42.49433406628668" lon="1.8488574028015137">
        <ele>1358.433964927684</ele>
        <time>2021-07-14T20:45:57.725Z</time>
      </trkpt>
      <trkpt lat="42.494730949401855" lon="1.8483316898345947">
        <ele>1359.875259643052</ele>
        <time>2021-07-14T20:46:05.489Z</time>
      </trkpt>
      <trkpt lat="42.49487042427063" lon="1.8481922149658203">
        <ele>1361.2284056622202</ele>
        <time>2021-07-14T20:46:13.256Z</time>
      </trkpt>
      <trkpt lat="42.494999170303345" lon="1.8480956554412842">
        <ele>1362.5806036579124</ele>
        <time>2021-07-14T20:46:21.025Z</time>
      </trkpt>
      <trkpt lat="42.49540694989264" lon="1.847923994064331">
        <ele>1364.1574755206857</ele>
        <time>2021-07-14T20:46:28.801Z</time>
      </trkpt>
      <trkpt lat="42.49581456184387" lon="1.8477308750152588">
        <ele>1365.4956609637757</ele>
        <time>2021-07-14T20:46:36.584Z</time>
      </trkpt>
      <trkpt lat="42.495975494384766" lon="1.847623586654663">
        <ele>1366.8415220427355</ele>
        <time>2021-07-14T20:46:44.370Z</time>
      </trkpt>
      <trkpt lat="42.496029222384095" lon="1.8475592136383057">
        <ele>1368.1274594010574</ele>
        <time>2021-07-14T20:46:52.157Z</time>
      </trkpt>
      <trkpt lat="42.49606132507324" lon="1.8474948406219482">
        <ele>1369.373152719454</ele>
        <time>2021-07-14T20:46:59.945Z</time>
      </trkpt>
      <trkpt lat="42.496061408892274" lon="1.8473553657531738">
        <ele>1370.581985214575</ele>
        <time>2021-07-14T20:47:07.735Z</time>
      </trkpt>
      <trkpt lat="42.49602913856506" lon="1.847151517868042">
        <ele>1371.8926589172247</ele>
        <time>2021-07-14T20:47:15.527Z</time>
      </trkpt>
      <trkpt lat="42.49602913856506" lon="1.8470227718353271">
        <ele>1373.2119127235126</ele>
        <time>2021-07-14T20:47:23.321Z</time>
      </trkpt>
      <trkpt lat="42.49610424041748" lon="1.846851110458374">
        <ele>1374.577690062602</ele>
        <time>2021-07-14T20:47:31.117Z</time>
      </trkpt>
      <trkpt lat="42.496758699417114" lon="1.8456387519836426">
        <ele>1375.9675013407073</ele>
        <time>2021-07-14T20:47:38.931Z</time>
      </trkpt>
      <trkpt lat="42.49683380126953" lon="1.8454134464263916">
        <ele>1377.4248533022956</ele>
        <time>2021-07-14T20:47:46.748Z</time>
      </trkpt>
      <trkpt lat="42.497037732973695" lon="1.8447375297546387">
        <ele>1378.973559313608</ele>
        <time>2021-07-14T20:47:54.573Z</time>
      </trkpt>
      <trkpt lat="42.4971342086792" lon="1.8443727493286133">
        <ele>1380.4104929010869</ele>
        <time>2021-07-14T20:48:02.403Z</time>
      </trkpt>
      <trkpt lat="42.497230768203735" lon="1.8440508842468262">
        <ele>1381.7793886013144</ele>
        <time>2021-07-14T20:48:10.237Z</time>
      </trkpt>
      <trkpt lat="42.49742397107184" lon="1.8435895442962646">
        <ele>1383.2387402904328</ele>
        <time>2021-07-14T20:48:18.077Z</time>
      </trkpt>
      <trkpt lat="42.49760636128485" lon="1.8431174755096436">
        <ele>1384.8307740602409</ele>
        <time>2021-07-14T20:48:25.924Z</time>
      </trkpt>
      <trkpt lat="42.49761709012091" lon="1.8430852890014648">
        <ele>1386.310278218843</ele>
        <time>2021-07-14T20:48:33.771Z</time>
      </trkpt>
      <trkpt lat="42.49781012535095" lon="1.842634677886963">
        <ele>1387.9362061347879</ele>
        <time>2021-07-14T20:48:41.624Z</time>
      </trkpt>
      <trkpt lat="42.498013973236084" lon="1.8423664569854736">
        <ele>1389.4669254517453</ele>
        <time>2021-07-14T20:48:49.482Z</time>
      </trkpt>
      <trkpt lat="42.49838948249817" lon="1.8419480323791504">
        <ele>1391.0457344882025</ele>
        <time>2021-07-14T20:48:57.347Z</time>
      </trkpt>
      <trkpt lat="42.498496854677796" lon="1.8417763710021973">
        <ele>1392.6809487950272</ele>
        <time>2021-07-14T20:49:05.215Z</time>
      </trkpt>
      <trkpt lat="42.498550498858094" lon="1.8416690826416016">
        <ele>1394.2906958532426</ele>
        <time>2021-07-14T20:49:13.085Z</time>
      </trkpt>
      <trkpt lat="42.49868997372687" lon="1.8413794040679932">
        <ele>1395.9831122447044</ele>
        <time>2021-07-14T20:49:20.959Z</time>
      </trkpt>
      <trkpt lat="42.49878644943237" lon="1.841111183166504">
        <ele>1397.7218666449899</ele>
        <time>2021-07-14T20:49:28.836Z</time>
      </trkpt>
      <trkpt lat="42.4988401774317" lon="1.8408644199371338">
        <ele>1399.4510419134037</ele>
        <time>2021-07-14T20:49:36.716Z</time>
      </trkpt>
      <trkpt lat="42.49887236393988" lon="1.8405747413635254">
        <ele>1401.2338596254203</ele>
        <time>2021-07-14T20:49:44.600Z</time>
      </trkpt>
      <trkpt lat="42.49887228012085" lon="1.8405747413635254">
        <ele>1402.915330411415</ele>
        <time>2021-07-14T20:49:52.484Z</time>
      </trkpt>
      <trkpt lat="42.498968839645386" lon="1.839362382888794">
        <ele>1404.8158783940407</ele>
        <time>2021-07-14T20:50:00.382Z</time>
      </trkpt>
      <trkpt lat="42.499022483825684" lon="1.8391263484954834">
        <ele>1406.5218346322247</ele>
        <time>2021-07-14T20:50:08.283Z</time>
      </trkpt>
      <trkpt lat="42.4990975856781" lon="1.8389439582824707">
        <ele>1408.2917003096272</ele>
        <time>2021-07-14T20:50:16.187Z</time>
      </trkpt>
      <trkpt lat="42.49930143356323" lon="1.8387293815612793">
        <ele>1410.0468489796185</ele>
        <time>2021-07-14T20:50:24.095Z</time>
      </trkpt>
      <trkpt lat="42.50052452087402" lon="1.8376028537750244">
        <ele>1412.0535646204826</ele>
        <time>2021-07-14T20:50:32.026Z</time>
      </trkpt>
      <trkpt lat="42.501211166381836" lon="1.836991310119629">
        <ele>1413.9549585661005</ele>
        <time>2021-07-14T20:50:39.971Z</time>
      </trkpt>
      <trkpt lat="42.501511573791504" lon="1.8367767333984375">
        <ele>1415.7034963777196</ele>
        <time>2021-07-14T20:50:47.921Z</time>
      </trkpt>
      <trkpt lat="42.50202655792236" lon="1.8364012241363525">
        <ele>1417.460149837321</ele>
        <time>2021-07-14T20:50:55.880Z</time>
      </trkpt>
      <trkpt lat="42.50216603279114" lon="1.836240291595459">
        <ele>1419.1498779894562</ele>
        <time>2021-07-14T20:51:03.842Z</time>
      </trkpt>
      <trkpt lat="42.50231623649597" lon="1.8361008167266846">
        <ele>1420.8294158324522</ele>
        <time>2021-07-14T20:51:11.807Z</time>
      </trkpt>
      <trkpt lat="42.50260599888861" lon="1.835939884185791">
        <ele>1422.5898961827231</ele>
        <time>2021-07-14T20:51:19.777Z</time>
      </trkpt>
      <trkpt lat="42.50283130444586" lon="1.8358325958251953">
        <ele>1424.2249855171522</ele>
        <time>2021-07-14T20:51:27.751Z</time>
      </trkpt>
      <trkpt lat="42.50293850898743" lon="1.835789680480957">
        <ele>1425.7456421827455</ele>
        <time>2021-07-14T20:51:35.727Z</time>
      </trkpt>
      <trkpt lat="42.50309944152832" lon="1.835789680480957">
        <ele>1427.249172592829</ele>
        <time>2021-07-14T20:51:43.705Z</time>
      </trkpt>
      <trkpt lat="42.50315316952765" lon="1.8358111381530762">
        <ele>1428.7327986931055</ele>
        <time>2021-07-14T20:51:51.684Z</time>
      </trkpt>
      <trkpt lat="42.503292644396424" lon="1.8359076976776123">
        <ele>1430.2101271267984</ele>
        <time>2021-07-14T20:51:59.666Z</time>
      </trkpt>
      <trkpt lat="42.50337839126587" lon="1.8359291553497314">
        <ele>1431.7361670084956</ele>
        <time>2021-07-14T20:52:07.649Z</time>
      </trkpt>
      <trkpt lat="42.5034321192652" lon="1.8359076976776123">
        <ele>1433.2536352095472</ele>
        <time>2021-07-14T20:52:15.633Z</time>
      </trkpt>
      <trkpt lat="42.503507137298584" lon="1.8358540534973145">
        <ele>1434.7456739469153</ele>
        <time>2021-07-14T20:52:23.618Z</time>
      </trkpt>
      <trkpt lat="42.503710985183716" lon="1.8356072902679443">
        <ele>1436.137598139183</ele>
        <time>2021-07-14T20:52:31.608Z</time>
      </trkpt>
      <trkpt lat="42.50387191772461" lon="1.8354570865631104">
        <ele>1437.649914098324</ele>
        <time>2021-07-14T20:52:39.601Z</time>
      </trkpt>
      <trkpt lat="42.504247426986694" lon="1.8351352214813232">
        <ele>1438.9465442747419</ele>
        <time>2021-07-14T20:52:47.601Z</time>
      </trkpt>
      <trkpt lat="42.505009174346924" lon="1.8345236778259277">
        <ele>1440.2303420446124</ele>
        <time>2021-07-14T20:52:55.615Z</time>
      </trkpt>
      <trkpt lat="42.50608205795288" lon="1.8337619304656982">
        <ele>1441.8584211708762</ele>
        <time>2021-07-14T20:53:03.649Z</time>
      </trkpt>
      <trkpt lat="42.50638246536255" lon="1.8334400653839111">
        <ele>1443.1201213709146</ele>
        <time>2021-07-14T20:53:11.689Z</time>
      </trkpt>
      <trkpt lat="42.50680088996887" lon="1.8330752849578857">
        <ele>1444.3106359110943</ele>
        <time>2021-07-14T20:53:19.737Z</time>
      </trkpt>
      <trkpt lat="42.508238554000854" lon="1.8318843841552734">
        <ele>1446.0929362302913</ele>
        <time>2021-07-14T20:53:27.812Z</time>
      </trkpt>
      <trkpt lat="42.508699893951416" lon="1.8315410614013672">
        <ele>1447.4478278746155</ele>
        <time>2021-07-14T20:53:35.895Z</time>
      </trkpt>
      <trkpt lat="42.509547555819154" lon="1.8305432796478271">
        <ele>1449.0973121162647</ele>
        <time>2021-07-14T20:53:43.996Z</time>
      </trkpt>
      <trkpt lat="42.50983715057373" lon="1.8301141262054443">
        <ele>1450.631541714678</ele>
        <time>2021-07-14T20:53:52.104Z</time>
      </trkpt>
      <trkpt lat="42.51027703285217" lon="1.8291270732879639">
        <ele>1452.2354274748993</ele>
        <time>2021-07-14T20:54:00.226Z</time>
      </trkpt>
      <trkpt lat="42.510695457458496" lon="1.8285155296325684">
        <ele>1453.8097667734069</ele>
        <time>2021-07-14T20:54:08.357Z</time>
      </trkpt>
      <trkpt lat="42.511757696047425" lon="1.8275821208953857">
        <ele>1455.664775258248</ele>
        <time>2021-07-14T20:54:16.509Z</time>
      </trkpt>
      <trkpt lat="42.511757612228394" lon="1.8275821208953857">
        <ele>1457.2362056748962</ele>
        <time>2021-07-14T20:54:24.661Z</time>
      </trkpt>
      <trkpt lat="42.512197494506836" lon="1.82722806930542">
        <ele>1459.0959874436483</ele>
        <time>2021-07-14T20:54:32.821Z</time>
      </trkpt>
      <trkpt lat="42.51233696937561" lon="1.8270456790924072">
        <ele>1460.746788509193</ele>
        <time>2021-07-14T20:54:40.984Z</time>
      </trkpt>
      <trkpt lat="42.51239061355591" lon="1.8268847465515137">
        <ele>1462.334857092962</ele>
        <time>2021-07-14T20:54:49.149Z</time>
      </trkpt>
      <trkpt lat="42.51243352890015" lon="1.8264448642730713">
        <ele>1463.8821240165134</ele>
        <time>2021-07-14T20:54:57.319Z</time>
      </trkpt>
      <trkpt lat="42.512497901916504" lon="1.826251745223999">
        <ele>1465.4966622369384</ele>
        <time>2021-07-14T20:55:05.492Z</time>
      </trkpt>
      <trkpt lat="42.51259446144104" lon="1.8260908126831055">
        <ele>1467.2697691805547</ele>
        <time>2021-07-14T20:55:13.667Z</time>
      </trkpt>
      <trkpt lat="42.51262673176825" lon="1.8260478973388672">
        <ele>1468.9973717911357</ele>
        <time>2021-07-14T20:55:21.843Z</time>
      </trkpt>
      <trkpt lat="42.512712478637695" lon="1.8259620666503906">
        <ele>1470.8050092725582</ele>
        <time>2021-07-14T20:55:30.021Z</time>
      </trkpt>
      <trkpt lat="42.51329183578491" lon="1.825425624847412">
        <ele>1472.7134937408946</ele>
        <time>2021-07-14T20:55:38.210Z</time>
      </trkpt>
      <trkpt lat="42.513442039489746" lon="1.8252110481262207">
        <ele>1474.5052917721841</ele>
        <time>2021-07-14T20:55:46.403Z</time>
      </trkpt>
      <trkpt lat="42.51359224319458" lon="1.824803352355957">
        <ele>1476.1697675931146</ele>
        <time>2021-07-14T20:55:54.601Z</time>
      </trkpt>
      <trkpt lat="42.513710260391235" lon="1.8246424198150635">
        <ele>1478.051269233089</ele>
        <time>2021-07-14T20:56:02.802Z</time>
      </trkpt>
      <trkpt lat="42.51413941383362" lon="1.824277639389038">
        <ele>1479.88437835735</ele>
        <time>2021-07-14T20:56:11.011Z</time>
      </trkpt>
      <trkpt lat="42.51426815986633" lon="1.824181079864502">
        <ele>1481.6447981484</ele>
        <time>2021-07-14T20:56:19.222Z</time>
      </trkpt>
      <trkpt lat="42.51434326171875" lon="1.8241596221923828">
        <ele>1483.3473149991883</ele>
        <time>2021-07-14T20:56:27.434Z</time>
      </trkpt>
      <trkpt lat="42.514439821243286" lon="1.8241703510284424">
        <ele>1485.055748511677</ele>
        <time>2021-07-14T20:56:35.648Z</time>
      </trkpt>
      <trkpt lat="42.514740228652954" lon="1.824277639389038">
        <ele>1486.9348495667082</ele>
        <time>2021-07-14T20:56:43.867Z</time>
      </trkpt>
      <trkpt lat="42.515491247177124" lon="1.8243956565856934">
        <ele>1488.9430827126516</ele>
        <time>2021-07-14T20:56:52.098Z</time>
      </trkpt>
      <trkpt lat="42.51565217971802" lon="1.8243956565856934">
        <ele>1490.5165757885952</ele>
        <time>2021-07-14T20:57:00.331Z</time>
      </trkpt>
      <trkpt lat="42.515781009569764" lon="1.8243634700775146">
        <ele>1491.9909057463274</ele>
        <time>2021-07-14T20:57:08.567Z</time>
      </trkpt>
      <trkpt lat="42.515931129455566" lon="1.8242990970611572">
        <ele>1493.4819293489727</ele>
        <time>2021-07-14T20:57:16.805Z</time>
      </trkpt>
      <trkpt lat="42.516692876815796" lon="1.823805570602417">
        <ele>1494.734151995469</ele>
        <time>2021-07-14T20:57:25.057Z</time>
      </trkpt>
      <trkpt lat="42.51686453819275" lon="1.8236875534057617">
        <ele>1496.3707987384078</ele>
        <time>2021-07-14T20:57:33.312Z</time>
      </trkpt>
      <trkpt lat="42.51702547073364" lon="1.8235266208648682">
        <ele>1497.8366292384574</ele>
        <time>2021-07-14T20:57:41.570Z</time>
      </trkpt>
      <trkpt lat="42.51735806465149" lon="1.823129653930664">
        <ele>1498.8998009839163</ele>
        <time>2021-07-14T20:57:49.835Z</time>
      </trkpt>
      <trkpt lat="42.517497539520264" lon="1.8230116367340088">
        <ele>1500.0440149391861</ele>
        <time>2021-07-14T20:57:58.103Z</time>
      </trkpt>
      <trkpt lat="42.51790523529053" lon="1.8228721618652344">
        <ele>1501.5889171896881</ele>
        <time>2021-07-14T20:58:06.377Z</time>
      </trkpt>
      <trkpt lat="42.51814126968384" lon="1.8227648735046387">
        <ele>1502.574940530835</ele>
        <time>2021-07-14T20:58:14.655Z</time>
      </trkpt>
      <trkpt lat="42.518227100372314" lon="1.8227434158325195">
        <ele>1503.5171819098628</ele>
        <time>2021-07-14T20:58:22.935Z</time>
      </trkpt>
      <trkpt lat="42.51833438873291" lon="1.8227434158325195">
        <ele>1504.432421187831</ele>
        <time>2021-07-14T20:58:31.216Z</time>
      </trkpt>
      <trkpt lat="42.51882791519165" lon="1.8227756023406982">
        <ele>1505.3752885407757</ele>
        <time>2021-07-14T20:58:39.505Z</time>
      </trkpt>
      <trkpt lat="42.51901030540466" lon="1.8227434158325195">
        <ele>1506.1759986803802</ele>
        <time>2021-07-14T20:58:47.797Z</time>
      </trkpt>
      <trkpt lat="42.520233392715454" lon="1.8223464488983154">
        <ele>1506.835439156568</ele>
        <time>2021-07-14T20:58:56.109Z</time>
      </trkpt>
      <trkpt lat="42.52055525779724" lon="1.8222713470458984">
        <ele>1507.5000636497348</ele>
        <time>2021-07-14T20:59:04.427Z</time>
      </trkpt>
      <trkpt lat="42.5210165977478" lon="1.822282075881958">
        <ele>1508.2219399015055</ele>
        <time>2021-07-14T20:59:12.752Z</time>
      </trkpt>
      <trkpt lat="42.521188259124756" lon="1.8223249912261963">
        <ele>1508.907771879653</ele>
        <time>2021-07-14T20:59:21.080Z</time>
      </trkpt>
      <trkpt lat="42.5215208530426" lon="1.8224430084228516">
        <ele>1509.6067747068257</ele>
        <time>2021-07-14T20:59:29.413Z</time>
      </trkpt>
      <trkpt lat="42.52188563346863" lon="1.8226468563079834">
        <ele>1510.2456491076184</ele>
        <time>2021-07-14T20:59:37.753Z</time>
      </trkpt>
      <trkpt lat="42.522475803270936" lon="1.8228185176849365">
        <ele>1510.7759644856487</ele>
        <time>2021-07-14T20:59:46.102Z</time>
      </trkpt>
      <trkpt lat="42.522711753845215" lon="1.8228614330291748">
        <ele>1511.3993224100573</ele>
        <time>2021-07-14T20:59:54.455Z</time>
      </trkpt>
      <trkpt lat="42.52287277020514" lon="1.8228614330291748">
        <ele>1512.0276962789492</ele>
        <time>2021-07-14T21:00:02.811Z</time>
      </trkpt>
      <trkpt lat="42.522980058565736" lon="1.8228507041931152">
        <ele>1512.6704534776527</ele>
        <time>2021-07-14T21:00:11.168Z</time>
      </trkpt>
      <trkpt lat="42.52337694168091" lon="1.8227970600128174">
        <ele>1513.3882040156695</ele>
        <time>2021-07-14T21:00:19.532Z</time>
      </trkpt>
      <trkpt lat="42.523956298828125" lon="1.8227005004882812">
        <ele>1514.0890560714015</ele>
        <time>2021-07-14T21:00:27.905Z</time>
      </trkpt>
      <trkpt lat="42.52412796020508" lon="1.8226897716522217">
        <ele>1514.81891602748</ele>
        <time>2021-07-14T21:00:36.281Z</time>
      </trkpt>
      <trkpt lat="42.5244927406311" lon="1.82273268699646">
        <ele>1515.5773832926484</ele>
        <time>2021-07-14T21:00:44.663Z</time>
      </trkpt>
      <trkpt lat="42.52539396286011" lon="1.8229687213897705">
        <ele>1516.4140953513447</ele>
        <time>2021-07-14T21:00:53.059Z</time>
      </trkpt>
      <trkpt lat="42.52613433636725" lon="1.8231940269470215">
        <ele>1517.3627863557629</ele>
        <time>2021-07-14T21:01:01.468Z</time>
      </trkpt>
      <trkpt lat="42.52613425254822" lon="1.8231940269470215">
        <ele>1518.2437881568503</ele>
        <time>2021-07-14T21:01:09.877Z</time>
      </trkpt>
      <trkpt lat="42.52632745541632" lon="1.823258399963379">
        <ele>1519.2075231947797</ele>
        <time>2021-07-14T21:01:18.289Z</time>
      </trkpt>
      <trkpt lat="42.526692152023315" lon="1.823430061340332">
        <ele>1520.2499993672047</ele>
        <time>2021-07-14T21:01:26.707Z</time>
      </trkpt>
      <trkpt lat="42.526938915252686" lon="1.8236446380615234">
        <ele>1521.334730148175</ele>
        <time>2021-07-14T21:01:35.130Z</time>
      </trkpt>
      <trkpt lat="42.52713211812079" lon="1.8238592147827148">
        <ele>1522.4470362277652</ele>
        <time>2021-07-14T21:01:43.557Z</time>
      </trkpt>
      <trkpt lat="42.52726078033447" lon="1.8239879608154297">
        <ele>1523.586464809954</ele>
        <time>2021-07-14T21:01:51.986Z</time>
      </trkpt>
      <trkpt lat="42.52745398320258" lon="1.824105978012085">
        <ele>1524.8100103937254</ele>
        <time>2021-07-14T21:02:00.419Z</time>
      </trkpt>
      <trkpt lat="42.527775848284364" lon="1.8241918087005615">
        <ele>1526.157694515332</ele>
        <time>2021-07-14T21:02:08.857Z</time>
      </trkpt>
      <trkpt lat="42.52790451049805" lon="1.8242132663726807">
        <ele>1527.4292688218738</ele>
        <time>2021-07-14T21:02:17.297Z</time>
      </trkpt>
      <trkpt lat="42.52831220626831" lon="1.8242347240447998">
        <ele>1528.8193859701062</ele>
        <time>2021-07-14T21:02:25.743Z</time>
      </trkpt>
      <trkpt lat="42.52853759564459" lon="1.8242132663726807">
        <ele>1530.2634794896965</ele>
        <time>2021-07-14T21:02:34.193Z</time>
      </trkpt>
      <trkpt lat="42.52853751182556" lon="1.8242132663726807">
        <ele>1531.5564148733865</ele>
        <time>2021-07-14T21:02:42.643Z</time>
      </trkpt>
      <trkpt lat="42.52876281738281" lon="1.8241381645202637">
        <ele>1532.9926455277987</ele>
        <time>2021-07-14T21:02:51.097Z</time>
      </trkpt>
      <trkpt lat="42.528966665267944" lon="1.8240201473236084">
        <ele>1534.4024738131166</ele>
        <time>2021-07-14T21:02:59.554Z</time>
      </trkpt>
      <trkpt lat="42.529213428497314" lon="1.8238270282745361">
        <ele>1535.8043932390522</ele>
        <time>2021-07-14T21:03:08.016Z</time>
      </trkpt>
      <trkpt lat="42.53089785575867" lon="1.8220674991607666">
        <ele>1537.586174570956</ele>
        <time>2021-07-14T21:03:16.512Z</time>
      </trkpt>
      <trkpt lat="42.53124117851257" lon="1.8217778205871582">
        <ele>1538.9586850787641</ele>
        <time>2021-07-14T21:03:25.014Z</time>
      </trkpt>
      <trkpt lat="42.53148794174194" lon="1.8216383457183838">
        <ele>1540.2175904937505</ele>
        <time>2021-07-14T21:03:33.521Z</time>
      </trkpt>
      <trkpt lat="42.53175616264343" lon="1.8215525150299072">
        <ele>1541.488305885038</ele>
        <time>2021-07-14T21:03:42.032Z</time>
      </trkpt>
      <trkpt lat="42.53206729888916" lon="1.8215203285217285">
        <ele>1542.7317801295867</ele>
        <time>2021-07-14T21:03:50.548Z</time>
      </trkpt>
      <trkpt lat="42.53233551979065" lon="1.8215417861938477">
        <ele>1543.99570063815</ele>
        <time>2021-07-14T21:03:59.068Z</time>
      </trkpt>
      <trkpt lat="42.53258228302002" lon="1.8216168880462646">
        <ele>1545.3018363651527</ele>
        <time>2021-07-14T21:04:07.592Z</time>
      </trkpt>
      <trkpt lat="42.53277540206909" lon="1.8217241764068604">
        <ele>1546.6442540685525</ele>
        <time>2021-07-14T21:04:16.120Z</time>
      </trkpt>
      <trkpt lat="42.53336548805237" lon="1.8221533298492432">
        <ele>1548.1569202535593</ele>
        <time>2021-07-14T21:04:24.658Z</time>
      </trkpt>
      <trkpt lat="42.53363370895386" lon="1.8222606182098389">
        <ele>1549.4267098147839</ele>
        <time>2021-07-14T21:04:33.201Z</time>
      </trkpt>
      <trkpt lat="42.5345242023468" lon="1.822582483291626">
        <ele>1550.7102369952486</ele>
        <time>2021-07-14T21:04:41.759Z</time>
      </trkpt>
      <trkpt lat="42.53480323590338" lon="1.8227219581604004">
        <ele>1552.0474694155837</ele>
        <time>2021-07-14T21:04:50.321Z</time>
      </trkpt>
      <trkpt lat="42.53480315208435" lon="1.8227219581604004">
        <ele>1553.3268634936544</ele>
        <time>2021-07-14T21:04:58.883Z</time>
      </trkpt>
      <trkpt lat="42.5355327129364" lon="1.8231189250946045">
        <ele>1554.7045006027918</ele>
        <time>2021-07-14T21:05:07.458Z</time>
      </trkpt>
      <trkpt lat="42.53584384918213" lon="1.8233120441436768">
        <ele>1556.0832657753322</ele>
        <time>2021-07-14T21:05:16.038Z</time>
      </trkpt>
      <trkpt lat="42.5360369682312" lon="1.8233978748321533">
        <ele>1557.347887515517</ele>
        <time>2021-07-14T21:05:24.622Z</time>
      </trkpt>
      <trkpt lat="42.536476850509644" lon="1.8236768245697021">
        <ele>1558.7686442045824</ele>
        <time>2021-07-14T21:05:33.213Z</time>
      </trkpt>
      <trkpt lat="42.53661632537842" lon="1.8238484859466553">
        <ele>1560.1702435582838</ele>
        <time>2021-07-14T21:05:41.807Z</time>
      </trkpt>
      <trkpt lat="42.53668078221381" lon="1.8239986896514893">
        <ele>1561.5791092737572</ele>
        <time>2021-07-14T21:05:50.404Z</time>
      </trkpt>
      <trkpt lat="42.536680698394775" lon="1.8239986896514893">
        <ele>1562.924568115964</ele>
        <time>2021-07-14T21:05:59.001Z</time>
      </trkpt>
      <trkpt lat="42.536712884902954" lon="1.8241488933563232">
        <ele>1564.4055522554995</ele>
        <time>2021-07-14T21:06:07.599Z</time>
      </trkpt>
      <trkpt lat="42.53674507141113" lon="1.824256181716919">
        <ele>1565.8952180145081</ele>
        <time>2021-07-14T21:06:16.199Z</time>
      </trkpt>
      <trkpt lat="42.53682017326355" lon="1.8243420124053955">
        <ele>1567.3388983818572</ele>
        <time>2021-07-14T21:06:24.800Z</time>
      </trkpt>
      <trkpt lat="42.536927461624146" lon="1.8243849277496338">
        <ele>1568.722193097985</ele>
        <time>2021-07-14T21:06:33.403Z</time>
      </trkpt>
      <trkpt lat="42.53712058067322" lon="1.8244171142578125">
        <ele>1570.091945706422</ele>
        <time>2021-07-14T21:06:42.009Z</time>
      </trkpt>
      <trkpt lat="42.53728151321411" lon="1.824427843093872">
        <ele>1571.53853470273</ele>
        <time>2021-07-14T21:06:50.618Z</time>
      </trkpt>
      <trkpt lat="42.53762483596802" lon="1.8245673179626465">
        <ele>1573.0496237990426</ele>
        <time>2021-07-14T21:06:59.233Z</time>
      </trkpt>
      <trkpt lat="42.53779649734497" lon="1.8246638774871826">
        <ele>1574.6268907726512</ele>
        <time>2021-07-14T21:07:07.851Z</time>
      </trkpt>
      <trkpt lat="42.53857978619635" lon="1.8251895904541016">
        <ele>1576.341698114276</ele>
        <time>2021-07-14T21:07:16.482Z</time>
      </trkpt>
      <trkpt lat="42.5388587359339" lon="1.8253827095031738">
        <ele>1578.0402244775257</ele>
        <time>2021-07-14T21:07:25.119Z</time>
      </trkpt>
      <trkpt lat="42.53885865211487" lon="1.8253827095031738">
        <ele>1579.7076160557071</ele>
        <time>2021-07-14T21:07:33.756Z</time>
      </trkpt>
      <trkpt lat="42.53926634788513" lon="1.8256723880767822">
        <ele>1581.489590925541</ele>
        <time>2021-07-14T21:07:42.400Z</time>
      </trkpt>
      <trkpt lat="42.539438009262085" lon="1.825876235961914">
        <ele>1583.2470805750468</ele>
        <time>2021-07-14T21:07:51.048Z</time>
      </trkpt>
      <trkpt lat="42.5395131111145" lon="1.826004981994629">
        <ele>1585.026244742031</ele>
        <time>2021-07-14T21:07:59.697Z</time>
      </trkpt>
      <trkpt lat="42.53986716270447" lon="1.8268096446990967">
        <ele>1587.1200621508897</ele>
        <time>2021-07-14T21:08:08.358Z</time>
      </trkpt>
      <trkpt lat="42.5401246547699" lon="1.8272173404693604">
        <ele>1589.076525041275</ele>
        <time>2021-07-14T21:08:17.025Z</time>
      </trkpt>
      <trkpt lat="42.540167570114136" lon="1.8272817134857178">
        <ele>1590.9015575350306</ele>
        <time>2021-07-14T21:08:25.693Z</time>
      </trkpt>
      <trkpt lat="42.54023194313049" lon="1.8273353576660156">
        <ele>1592.7153974230425</ele>
        <time>2021-07-14T21:08:34.362Z</time>
      </trkpt>
      <trkpt lat="42.54063963890076" lon="1.8276035785675049">
        <ele>1594.8302802983492</ele>
        <time>2021-07-14T21:08:43.038Z</time>
      </trkpt>
      <trkpt lat="42.54075765609741" lon="1.8276679515838623">
        <ele>1596.6643497406312</ele>
        <time>2021-07-14T21:08:51.716Z</time>
      </trkpt>
      <trkpt lat="42.54098296165466" lon="1.8277430534362793">
        <ele>1598.592192430681</ele>
        <time>2021-07-14T21:09:00.398Z</time>
      </trkpt>
      <trkpt lat="42.54111170768738" lon="1.8277430534362793">
        <ele>1600.3597671314305</ele>
        <time>2021-07-14T21:09:09.082Z</time>
      </trkpt>
      <trkpt lat="42.54174470901489" lon="1.827528476715088">
        <ele>1601.948946472513</ele>
        <time>2021-07-14T21:09:17.777Z</time>
      </trkpt>
      <trkpt lat="42.541948556900024" lon="1.8274319171905518">
        <ele>1603.531265438657</ele>
        <time>2021-07-14T21:09:26.475Z</time>
      </trkpt>
      <trkpt lat="42.5425922870636" lon="1.8270564079284668">
        <ele>1605.4952678324444</ele>
        <time>2021-07-14T21:09:35.184Z</time>
      </trkpt>
      <trkpt lat="42.54280686378479" lon="1.8269813060760498">
        <ele>1607.125379693265</ele>
        <time>2021-07-14T21:09:43.897Z</time>
      </trkpt>
      <trkpt lat="42.54332184791565" lon="1.8266916275024414">
        <ele>1608.2195928596661</ele>
        <time>2021-07-14T21:09:52.619Z</time>
      </trkpt>
      <trkpt lat="42.543708086013794" lon="1.8265306949615479">
        <ele>1609.516058606593</ele>
        <time>2021-07-14T21:10:01.347Z</time>
      </trkpt>
      <trkpt lat="42.5439977645874" lon="1.8263375759124756">
        <ele>1610.964796452261</ele>
        <time>2021-07-14T21:10:10.080Z</time>
      </trkpt>
      <trkpt lat="42.544212341308594" lon="1.8262195587158203">
        <ele>1612.023058392368</ele>
        <time>2021-07-14T21:10:18.817Z</time>
      </trkpt>
      <trkpt lat="42.54438400268555" lon="1.826155185699463">
        <ele>1613.1233593109528</ele>
        <time>2021-07-14T21:10:27.557Z</time>
      </trkpt>
      <trkpt lat="42.544931173324585" lon="1.826026439666748">
        <ele>1613.991945074825</ele>
        <time>2021-07-14T21:10:36.306Z</time>
      </trkpt>
      <trkpt lat="42.54510283470154" lon="1.826026439666748">
        <ele>1614.7888159617446</ele>
        <time>2021-07-14T21:10:45.058Z</time>
      </trkpt>
      <trkpt lat="42.54552125930786" lon="1.8261122703552246">
        <ele>1615.4147958905069</ele>
        <time>2021-07-14T21:10:53.816Z</time>
      </trkpt>
      <trkpt lat="42.54563927650452" lon="1.8260586261749268">
        <ele>1616.1412003535283</ele>
        <time>2021-07-14T21:11:02.576Z</time>
      </trkpt>
      <trkpt lat="42.545682191848755" lon="1.826004981994629">
        <ele>1616.8244337043914</ele>
        <time>2021-07-14T21:11:11.337Z</time>
      </trkpt>
      <trkpt lat="42.545714462175965" lon="1.8259084224700928">
        <ele>1617.4482097442008</ele>
        <time>2021-07-14T21:11:20.100Z</time>
      </trkpt>
      <trkpt lat="42.545714378356934" lon="1.8259084224700928">
        <ele>1618.0432702954486</ele>
        <time>2021-07-14T21:11:28.863Z</time>
      </trkpt>
      <trkpt lat="42.5458110217005" lon="1.825650930404663">
        <ele>1618.6075097975413</ele>
        <time>2021-07-14T21:11:37.629Z</time>
      </trkpt>
      <trkpt lat="42.54592903889716" lon="1.8254685401916504">
        <ele>1619.2657502732166</ele>
        <time>2021-07-14T21:11:46.398Z</time>
      </trkpt>
      <trkpt lat="42.545928955078125" lon="1.8254685401916504">
        <ele>1619.725641259473</ele>
        <time>2021-07-14T21:11:55.167Z</time>
      </trkpt>
      <trkpt lat="42.5461220741272" lon="1.8253719806671143">
        <ele>1620.2827322626888</ele>
        <time>2021-07-14T21:12:03.939Z</time>
      </trkpt>
      <trkpt lat="42.54629373550415" lon="1.8253397941589355">
        <ele>1620.7418963022717</ele>
        <time>2021-07-14T21:12:12.714Z</time>
      </trkpt>
      <trkpt lat="42.546454668045044" lon="1.825329065322876">
        <ele>1621.0694857521005</ele>
        <time>2021-07-14T21:12:21.491Z</time>
      </trkpt>
      <trkpt lat="42.54661568440497" lon="1.8253719806671143">
        <ele>1621.3407510171091</ele>
        <time>2021-07-14T21:12:30.271Z</time>
      </trkpt>
      <trkpt lat="42.54702338017523" lon="1.825554370880127">
        <ele>1621.7030477782855</ele>
        <time>2021-07-14T21:12:39.058Z</time>
      </trkpt>
      <trkpt lat="42.54717358388007" lon="1.825629472732544">
        <ele>1621.9836018453334</ele>
        <time>2021-07-14T21:12:47.848Z</time>
      </trkpt>
      <trkpt lat="42.54733451642096" lon="1.8257474899291992">
        <ele>1622.2257827812143</ele>
        <time>2021-07-14T21:12:56.640Z</time>
      </trkpt>
      <trkpt lat="42.54738807678223" lon="1.8258333206176758">
        <ele>1622.4078680984032</ele>
        <time>2021-07-14T21:13:05.434Z</time>
      </trkpt>
      <trkpt lat="42.547463178634644" lon="1.8260157108306885">
        <ele>1622.5512444670308</ele>
        <time>2021-07-14T21:13:14.230Z</time>
      </trkpt>
      <trkpt lat="42.54759192466736" lon="1.8265306949615479">
        <ele>1622.6320221324931</ele>
        <time>2021-07-14T21:13:23.033Z</time>
      </trkpt>
      <trkpt lat="42.547667026519775" lon="1.8266701698303223">
        <ele>1622.729197719531</ele>
        <time>2021-07-14T21:13:31.838Z</time>
      </trkpt>
      <trkpt lat="42.54778512753546" lon="1.8268096446990967">
        <ele>1622.8263053044843</ele>
        <time>2021-07-14T21:13:40.645Z</time>
      </trkpt>
      <trkpt lat="42.54828929901123" lon="1.827152967453003">
        <ele>1623.0623649845784</ele>
        <time>2021-07-14T21:13:49.461Z</time>
      </trkpt>
      <trkpt lat="42.54841812886298" lon="1.8272602558135986">
        <ele>1623.1702805867449</ele>
        <time>2021-07-14T21:13:58.280Z</time>
      </trkpt>
      <trkpt lat="42.5485360622406" lon="1.8273460865020752">
        <ele>1623.278598705966</ele>
        <time>2021-07-14T21:14:07.101Z</time>
      </trkpt>
      <trkpt lat="42.54862197674811" lon="1.8274641036987305">
        <ele>1623.3485758175268</ele>
        <time>2021-07-14T21:14:15.924Z</time>
      </trkpt>
      <trkpt lat="42.548707723617554" lon="1.8276035785675049">
        <ele>1623.4153510884644</ele>
        <time>2021-07-14T21:14:24.749Z</time>
      </trkpt>
      <trkpt lat="42.54875063896179" lon="1.8277537822723389">
        <ele>1623.4230556580524</ele>
        <time>2021-07-14T21:14:33.576Z</time>
      </trkpt>
      <trkpt lat="42.54879355430603" lon="1.8279898166656494">
        <ele>1623.4128463428003</ele>
        <time>2021-07-14T21:14:42.406Z</time>
      </trkpt>
      <trkpt lat="42.54875063896179" lon="1.828075647354126">
        <ele>1623.3075658231637</ele>
        <time>2021-07-14T21:14:51.237Z</time>
      </trkpt>
      <trkpt lat="42.54864343442023" lon="1.8286442756652832">
        <ele>1623.1189969519653</ele>
        <time>2021-07-14T21:15:00.075Z</time>
      </trkpt>
      <trkpt lat="42.548643350601196" lon="1.8286442756652832">
        <ele>1623.0753880346501</ele>
        <time>2021-07-14T21:15:08.913Z</time>
      </trkpt>
      <trkpt lat="42.548460960388184" lon="1.8296313285827637">
        <ele>1623.013021494683</ele>
        <time>2021-07-14T21:15:17.763Z</time>
      </trkpt>
      <trkpt lat="42.548439502716064" lon="1.8297171592712402">
        <ele>1623.013938944051</ele>
        <time>2021-07-14T21:15:26.614Z</time>
      </trkpt>
      <trkpt lat="42.54833221435547" lon="1.829996109008789">
        <ele>1623.0181645963216</ele>
        <time>2021-07-14T21:15:35.469Z</time>
      </trkpt>
      <trkpt lat="42.54825711250305" lon="1.8302428722381592">
        <ele>1623.0704314853897</ele>
        <time>2021-07-14T21:15:44.327Z</time>
      </trkpt>
      <trkpt lat="42.548171281814575" lon="1.8305003643035889">
        <ele>1623.1638404145006</ele>
        <time>2021-07-14T21:15:53.188Z</time>
      </trkpt>
      <trkpt lat="42.548171281814575" lon="1.8305540084838867">
        <ele>1623.3386150929841</ele>
        <time>2021-07-14T21:16:02.050Z</time>
      </trkpt>
      <trkpt lat="42.548235738649964" lon="1.8306612968444824">
        <ele>1623.62477397098</ele>
        <time>2021-07-14T21:16:10.913Z</time>
      </trkpt>
      <trkpt lat="42.54823565483093" lon="1.830918788909912">
        <ele>1623.8960082669546</ele>
        <time>2021-07-14T21:16:19.779Z</time>
      </trkpt>
      <trkpt lat="42.54821419715881" lon="1.8311762809753418">
        <ele>1624.2154163419339</ele>
        <time>2021-07-14T21:16:28.649Z</time>
      </trkpt>
      <trkpt lat="42.54821419715881" lon="1.8313372135162354">
        <ele>1624.6530714950768</ele>
        <time>2021-07-14T21:16:37.520Z</time>
      </trkpt>
      <trkpt lat="42.54824638366699" lon="1.8315303325653076">
        <ele>1625.2191266559746</ele>
        <time>2021-07-14T21:16:46.394Z</time>
      </trkpt>
      <trkpt lat="42.54842885769904" lon="1.8318307399749756">
        <ele>1625.9724462220802</ele>
        <time>2021-07-14T21:16:55.272Z</time>
      </trkpt>
      <trkpt lat="42.548450231552124" lon="1.8321418762207031">
        <ele>1626.7296545161016</ele>
        <time>2021-07-14T21:17:04.154Z</time>
      </trkpt>
      <trkpt lat="42.54851460456848" lon="1.8324744701385498">
        <ele>1627.6317298012327</ele>
        <time>2021-07-14T21:17:13.040Z</time>
      </trkpt>
      <trkpt lat="42.54852533340454" lon="1.832571029663086">
        <ele>1628.62728599166</ele>
        <time>2021-07-14T21:17:21.927Z</time>
      </trkpt>
      <trkpt lat="42.54850387573242" lon="1.8326568603515625">
        <ele>1629.7362657492506</ele>
        <time>2021-07-14T21:17:30.815Z</time>
      </trkpt>
      <trkpt lat="42.54846950992942" lon="1.8326361570507288">
        <ele>1630.9373758477034</ele>
        <time>2021-07-14T21:17:39.704Z</time>
      </trkpt>
      <trkpt lat="42.548469342291355" lon="1.8326359894126654">
        <ele>1632.2820396718862</ele>
        <time>2021-07-14T21:17:48.593Z</time>
      </trkpt>
      <trkpt lat="42.54850387573242" lon="1.8326568603515625">
        <ele>1633.7716833639356</ele>
        <time>2021-07-14T21:17:57.483Z</time>
      </trkpt>
      <trkpt lat="42.548460960388184" lon="1.8329358100891113">
        <ele>1635.402821491106</ele>
        <time>2021-07-14T21:18:06.376Z</time>
      </trkpt>
      <trkpt lat="42.54830002784729" lon="1.8329787254333496">
        <ele>1637.052063309016</ele>
        <time>2021-07-14T21:18:15.272Z</time>
      </trkpt>
      <trkpt lat="42.548396587371826" lon="1.8330538272857666">
        <ele>1638.9464192739142</ele>
        <time>2021-07-14T21:18:24.169Z</time>
      </trkpt>
      <trkpt lat="42.54862189292908" lon="1.8331718444824219">
        <ele>1641.0288004597467</ele>
        <time>2021-07-14T21:18:33.070Z</time>
      </trkpt>
      <trkpt lat="42.54879355430603" lon="1.833343505859375">
        <ele>1643.1991912891249</ele>
        <time>2021-07-14T21:18:41.975Z</time>
      </trkpt>
      <trkpt lat="42.549426555633545" lon="1.8331718444824219">
        <ele>1645.8643779957838</ele>
        <time>2021-07-14T21:18:50.890Z</time>
      </trkpt>
      <trkpt lat="42.54950165748596" lon="1.8331289291381836">
        <ele>1648.212716743239</ele>
        <time>2021-07-14T21:18:59.806Z</time>
      </trkpt>
      <trkpt lat="42.54963040351868" lon="1.8330109119415283">
        <ele>1650.7090943427097</ele>
        <time>2021-07-14T21:19:08.725Z</time>
      </trkpt>
      <trkpt lat="42.549694860354066" lon="1.8330001831054688">
        <ele>1653.1900677663411</ele>
        <time>2021-07-14T21:19:17.645Z</time>
      </trkpt>
      <trkpt lat="42.549705505371094" lon="1.8343734741210938">
        <ele>1655.9446299797746</ele>
        <time>2021-07-14T21:19:26.581Z</time>
      </trkpt>
      <trkpt lat="42.54973769187927" lon="1.8348133563995361">
        <ele>1658.5368092435622</ele>
        <time>2021-07-14T21:19:35.522Z</time>
      </trkpt>
      <trkpt lat="42.54973769187927" lon="1.8350815773010254">
        <ele>1661.1651693807166</ele>
        <time>2021-07-14T21:19:44.466Z</time>
      </trkpt>
      <trkpt lat="42.549651861190796" lon="1.836540699005127">
        <ele>1663.8809582559902</ele>
        <time>2021-07-14T21:19:53.428Z</time>
      </trkpt>
      <trkpt lat="42.549694776535034" lon="1.8380963802337646">
        <ele>1666.87802966646</ele>
        <time>2021-07-14T21:20:02.408Z</time>
      </trkpt>
      <trkpt lat="42.54973769187927" lon="1.8388473987579346">
        <ele>1669.563847979795</ele>
        <time>2021-07-14T21:20:11.397Z</time>
      </trkpt>
      <trkpt lat="42.54980206489563" lon="1.8395555019378662">
        <ele>1672.1897024582045</ele>
        <time>2021-07-14T21:20:20.395Z</time>
      </trkpt>
      <trkpt lat="42.54980206489563" lon="1.8400490283966064">
        <ele>1674.696951046145</ele>
        <time>2021-07-14T21:20:29.398Z</time>
      </trkpt>
      <trkpt lat="42.549887895584106" lon="1.8407034873962402">
        <ele>1677.2984337781932</ele>
        <time>2021-07-14T21:20:38.409Z</time>
      </trkpt>
      <trkpt lat="42.549887895584106" lon="1.8409931659698486">
        <ele>1679.7741205706889</ele>
        <time>2021-07-14T21:20:47.424Z</time>
      </trkpt>
      <trkpt lat="42.54985570907593" lon="1.841658353805542">
        <ele>1682.1103097333876</ele>
        <time>2021-07-14T21:20:56.447Z</time>
      </trkpt>
      <trkpt lat="42.54986643791199" lon="1.8417656421661377">
        <ele>1684.5488405546748</ele>
        <time>2021-07-14T21:21:05.471Z</time>
      </trkpt>
      <trkpt lat="42.549909353256226" lon="1.8418622016906738">
        <ele>1687.0183831349004</ele>
        <time>2021-07-14T21:21:14.496Z</time>
      </trkpt>
      <trkpt lat="42.54997372627258" lon="1.8419158458709717">
        <ele>1689.504500929283</ele>
        <time>2021-07-14T21:21:23.522Z</time>
      </trkpt>
      <trkpt lat="42.55008109845221" lon="1.8419265747070312">
        <ele>1692.1970924045663</ele>
        <time>2021-07-14T21:21:32.550Z</time>
      </trkpt>
      <trkpt lat="42.550177574157715" lon="1.8418407440185547">
        <ele>1694.9020078032606</ele>
        <time>2021-07-14T21:21:41.580Z</time>
      </trkpt>
      <trkpt lat="42.55022048950195" lon="1.8417119979858398">
        <ele>1697.3320854097574</ele>
        <time>2021-07-14T21:21:50.612Z</time>
      </trkpt>
      <trkpt lat="42.55022048950195" lon="1.8415725231170654">
        <ele>1699.5073666821363</ele>
        <time>2021-07-14T21:21:59.645Z</time>
      </trkpt>
      <trkpt lat="42.55005955696106" lon="1.8409717082977295">
        <ele>1701.1412843889384</ele>
        <time>2021-07-14T21:22:08.686Z</time>
      </trkpt>
      <trkpt lat="42.55001664161682" lon="1.840682029724121">
        <ele>1703.1233688611103</ele>
        <time>2021-07-14T21:22:17.730Z</time>
      </trkpt>
      <trkpt lat="42.55001664161682" lon="1.8403279781341553">
        <ele>1705.2506250800259</ele>
        <time>2021-07-14T21:22:26.778Z</time>
      </trkpt>
      <trkpt lat="42.55013465881348" lon="1.8379783630371094">
        <ele>1707.9220802121945</ele>
        <time>2021-07-14T21:22:35.854Z</time>
      </trkpt>
      <trkpt lat="42.55035996437073" lon="1.8363690376281738">
        <ele>1710.074942740665</ele>
        <time>2021-07-14T21:22:44.950Z</time>
      </trkpt>
      <trkpt lat="42.550424337387085" lon="1.8361437320709229">
        <ele>1712.1192941618046</ele>
        <time>2021-07-14T21:22:54.049Z</time>
      </trkpt>
      <trkpt lat="42.55062818527222" lon="1.8357360363006592">
        <ele>1714.4393666306755</ele>
        <time>2021-07-14T21:23:03.153Z</time>
      </trkpt>
      <trkpt lat="42.550703287124634" lon="1.8354034423828125">
        <ele>1716.2620088274043</ele>
        <time>2021-07-14T21:23:12.262Z</time>
      </trkpt>
      <trkpt lat="42.55084276199341" lon="1.8346524238586426">
        <ele>1717.9896043566928</ele>
        <time>2021-07-14T21:23:21.380Z</time>
      </trkpt>
      <trkpt lat="42.55099296569824" lon="1.833418607711792">
        <ele>1719.2450904434463</ele>
        <time>2021-07-14T21:23:30.512Z</time>
      </trkpt>
      <trkpt lat="42.55103588104248" lon="1.833268404006958">
        <ele>1720.7690217959218</ele>
        <time>2021-07-14T21:23:39.646Z</time>
      </trkpt>
      <trkpt lat="42.5511109828949" lon="1.8331611156463623">
        <ele>1722.3885751541293</ele>
        <time>2021-07-14T21:23:48.782Z</time>
      </trkpt>
      <trkpt lat="42.551196813583374" lon="1.8331074714660645">
        <ele>1724.0711734317672</ele>
        <time>2021-07-14T21:23:57.920Z</time>
      </trkpt>
      <trkpt lat="42.55148649215698" lon="1.8330109119415283">
        <ele>1726.061303852688</ele>
        <time>2021-07-14T21:24:07.062Z</time>
      </trkpt>
      <trkpt lat="42.55154013633728" lon="1.83296799659729">
        <ele>1727.6289869997272</ele>
        <time>2021-07-14T21:24:16.205Z</time>
      </trkpt>
      <trkpt lat="42.55157240666449" lon="1.8329250812530518">
        <ele>1729.1408875286781</ele>
        <time>2021-07-14T21:24:25.349Z</time>
      </trkpt>
      <trkpt lat="42.55160450935364" lon="1.8328392505645752">
        <ele>1730.590730343201</ele>
        <time>2021-07-14T21:24:34.494Z</time>
      </trkpt>
      <trkpt lat="42.55165823735297" lon="1.832592487335205">
        <ele>1731.8903120200064</ele>
        <time>2021-07-14T21:24:43.642Z</time>
      </trkpt>
      <trkpt lat="42.551658153533936" lon="1.832592487335205">
        <ele>1733.3721884475021</ele>
        <time>2021-07-14T21:24:52.790Z</time>
      </trkpt>
      <trkpt lat="42.551679611206055" lon="1.8323028087615967">
        <ele>1734.7782255258105</ele>
        <time>2021-07-14T21:25:01.942Z</time>
      </trkpt>
      <trkpt lat="42.551679611206055" lon="1.8321740627288818">
        <ele>1736.4303474979924</ele>
        <time>2021-07-14T21:25:11.095Z</time>
      </trkpt>
      <trkpt lat="42.551636695861816" lon="1.832045316696167">
        <ele>1737.9930974633196</ele>
        <time>2021-07-14T21:25:20.250Z</time>
      </trkpt>
      <trkpt lat="42.55136847496033" lon="1.8313050270080566">
        <ele>1739.5913784582879</ele>
        <time>2021-07-14T21:25:29.415Z</time>
      </trkpt>
      <trkpt lat="42.55128264427185" lon="1.8306291103363037">
        <ele>1741.2681210432233</ele>
        <time>2021-07-14T21:25:38.588Z</time>
      </trkpt>
      <trkpt lat="42.55127191543579" lon="1.8304789066314697">
        <ele>1742.8354805885924</ele>
        <time>2021-07-14T21:25:47.763Z</time>
      </trkpt>
      <trkpt lat="42.55134701728821" lon="1.8295669555664062">
        <ele>1744.9267694647278</ele>
        <time>2021-07-14T21:25:56.948Z</time>
      </trkpt>
      <trkpt lat="42.55133628845215" lon="1.8293416500091553">
        <ele>1746.5324445328067</ele>
        <time>2021-07-14T21:26:06.136Z</time>
      </trkpt>
      <trkpt lat="42.55125045776367" lon="1.8286120891571045">
        <ele>1748.1192135257068</ele>
        <time>2021-07-14T21:26:15.333Z</time>
      </trkpt>
      <trkpt lat="42.55121827125549" lon="1.8281936645507812">
        <ele>1749.8699288922667</ele>
        <time>2021-07-14T21:26:24.535Z</time>
      </trkpt>
      <trkpt lat="42.551153898239136" lon="1.8266594409942627">
        <ele>1751.6357675974214</ele>
        <time>2021-07-14T21:26:33.755Z</time>
      </trkpt>
      <trkpt lat="42.55128264427185" lon="1.8250823020935059">
        <ele>1753.2911518243527</ele>
        <time>2021-07-14T21:26:42.994Z</time>
      </trkpt>
      <trkpt lat="42.55132555961609" lon="1.824803352355957">
        <ele>1754.8416270066657</ele>
        <time>2021-07-14T21:26:52.236Z</time>
      </trkpt>
      <trkpt lat="42.551411390304565" lon="1.8245351314544678">
        <ele>1756.5223290561298</ele>
        <time>2021-07-14T21:27:01.482Z</time>
      </trkpt>
      <trkpt lat="42.55148649215698" lon="1.8243634700775146">
        <ele>1758.084644077995</ele>
        <time>2021-07-14T21:27:10.730Z</time>
      </trkpt>
      <trkpt lat="42.55164750851691" lon="1.8241167068481445">
        <ele>1759.7395083536258</ele>
        <time>2021-07-14T21:27:19.982Z</time>
      </trkpt>
      <trkpt lat="42.551690423861146" lon="1.8240416049957275">
        <ele>1761.3044801537844</ele>
        <time>2021-07-14T21:27:29.235Z</time>
      </trkpt>
      <trkpt lat="42.55176552571356" lon="1.8237948417663574">
        <ele>1762.8364100021813</ele>
        <time>2021-07-14T21:27:38.491Z</time>
      </trkpt>
      <trkpt lat="42.55176544189453" lon="1.8237948417663574">
        <ele>1764.3625691632665</ele>
        <time>2021-07-14T21:27:47.747Z</time>
      </trkpt>
      <trkpt lat="42.55185127258301" lon="1.8233656883239746">
        <ele>1765.799383257183</ele>
        <time>2021-07-14T21:27:57.008Z</time>
      </trkpt>
      <trkpt lat="42.551904916763306" lon="1.8231940269470215">
        <ele>1767.3219768642273</ele>
        <time>2021-07-14T21:28:06.272Z</time>
      </trkpt>
      <trkpt lat="42.5525164604187" lon="1.821906566619873">
        <ele>1769.2407538034772</ele>
        <time>2021-07-14T21:28:15.554Z</time>
      </trkpt>
      <trkpt lat="42.55279541015625" lon="1.8214881420135498">
        <ele>1770.9540788088534</ele>
        <time>2021-07-14T21:28:24.842Z</time>
      </trkpt>
      <trkpt lat="42.552902698516846" lon="1.8212735652923584">
        <ele>1772.5035725187513</ele>
        <time>2021-07-14T21:28:34.133Z</time>
      </trkpt>
      <trkpt lat="42.5529670715332" lon="1.8210482597351074">
        <ele>1773.9187006689976</ele>
        <time>2021-07-14T21:28:43.427Z</time>
      </trkpt>
      <trkpt lat="42.55304217338562" lon="1.8207371234893799">
        <ele>1775.223861358752</ele>
        <time>2021-07-14T21:28:52.725Z</time>
      </trkpt>
      <trkpt lat="42.553138732910156" lon="1.8205225467681885">
        <ele>1776.72839078268</ele>
        <time>2021-07-14T21:29:02.026Z</time>
      </trkpt>
      <trkpt lat="42.55324602127075" lon="1.8203401565551758">
        <ele>1778.1687753410404</ele>
        <time>2021-07-14T21:29:11.330Z</time>
      </trkpt>
      <trkpt lat="42.55337476730347" lon="1.8201899528503418">
        <ele>1779.6439379224498</ele>
        <time>2021-07-14T21:29:20.637Z</time>
      </trkpt>
      <trkpt lat="42.55346059799194" lon="1.8199968338012695">
        <ele>1781.0526724249507</ele>
        <time>2021-07-14T21:29:29.946Z</time>
      </trkpt>
      <trkpt lat="42.55356788635254" lon="1.819685697555542">
        <ele>1782.40274558976</ele>
        <time>2021-07-14T21:29:39.259Z</time>
      </trkpt>
      <trkpt lat="42.55379327572882" lon="1.818763017654419">
        <ele>1783.7778571850336</ele>
        <time>2021-07-14T21:29:48.584Z</time>
      </trkpt>
      <trkpt lat="42.554168701171875" lon="1.8175935745239258">
        <ele>1785.1424952398502</ele>
        <time>2021-07-14T21:29:57.924Z</time>
      </trkpt>
      <trkpt lat="42.55421161651611" lon="1.8174004554748535">
        <ele>1786.4435532366479</ele>
        <time>2021-07-14T21:30:07.266Z</time>
      </trkpt>
      <trkpt lat="42.554200887680054" lon="1.8171966075897217">
        <ele>1787.7236637861226</ele>
        <time>2021-07-14T21:30:16.611Z</time>
      </trkpt>
      <trkpt lat="42.554179430007935" lon="1.8170678615570068">
        <ele>1788.9504274090295</ele>
        <time>2021-07-14T21:30:25.957Z</time>
      </trkpt>
      <trkpt lat="42.55409359931946" lon="1.8168425559997559">
        <ele>1790.2131439663294</ele>
        <time>2021-07-14T21:30:35.306Z</time>
      </trkpt>
      <trkpt lat="42.55396485328674" lon="1.8166601657867432">
        <ele>1791.448308942648</ele>
        <time>2021-07-14T21:30:44.658Z</time>
      </trkpt>
      <trkpt lat="42.55382537841797" lon="1.8165314197540283">
        <ele>1792.6558478383397</ele>
        <time>2021-07-14T21:30:54.013Z</time>
      </trkpt>
      <trkpt lat="42.55372881889343" lon="1.8165099620819092">
        <ele>1793.8074142564624</ele>
        <time>2021-07-14T21:31:03.369Z</time>
      </trkpt>
      <trkpt lat="42.55354642868042" lon="1.8165206909179688">
        <ele>1794.9209646386466</ele>
        <time>2021-07-14T21:31:12.728Z</time>
      </trkpt>
      <trkpt lat="42.55285978317261" lon="1.8166494369506836">
        <ele>1796.12992608161</ele>
        <time>2021-07-14T21:31:22.098Z</time>
      </trkpt>
      <trkpt lat="42.55276322364807" lon="1.816638708114624">
        <ele>1797.2481910754786</ele>
        <time>2021-07-14T21:31:31.470Z</time>
      </trkpt>
      <trkpt lat="42.552688121795654" lon="1.8165957927703857">
        <ele>1798.3588370166754</ele>
        <time>2021-07-14T21:31:40.843Z</time>
      </trkpt>
      <trkpt lat="42.552634477615356" lon="1.81648850440979">
        <ele>1799.513629513854</ele>
        <time>2021-07-14T21:31:50.218Z</time>
      </trkpt>
      <trkpt lat="42.55263456143439" lon="1.81648850440979">
        <ele>1800.5418801999615</ele>
        <time>2021-07-14T21:31:59.593Z</time>
      </trkpt>
      <trkpt lat="42.552634477615356" lon="1.8163597583770752">
        <ele>1801.6919267025114</ele>
        <time>2021-07-14T21:32:08.969Z</time>
      </trkpt>
      <trkpt lat="42.552655935287476" lon="1.8162739276885986">
        <ele>1802.7741407059668</ele>
        <time>2021-07-14T21:32:18.346Z</time>
      </trkpt>
      <trkpt lat="42.552698850631714" lon="1.816188097000122">
        <ele>1803.8347429276696</ele>
        <time>2021-07-14T21:32:27.725Z</time>
      </trkpt>
      <trkpt lat="42.55279541015625" lon="1.8161344528198242">
        <ele>1804.8288127182736</ele>
        <time>2021-07-14T21:32:37.105Z</time>
      </trkpt>
      <trkpt lat="42.55300998687744" lon="1.816091537475586">
        <ele>1805.7161031184396</ele>
        <time>2021-07-14T21:32:46.489Z</time>
      </trkpt>
      <trkpt lat="42.553160190582275" lon="1.816037893295288">
        <ele>1806.6068402776873</ele>
        <time>2021-07-14T21:32:55.875Z</time>
      </trkpt>
      <trkpt lat="42.55401849746704" lon="1.8155121803283691">
        <ele>1807.7215499681415</ele>
        <time>2021-07-14T21:33:05.276Z</time>
      </trkpt>
      <trkpt lat="42.55411505699158" lon="1.8153941631317139">
        <ele>1808.6939304114292</ele>
        <time>2021-07-14T21:33:14.679Z</time>
      </trkpt>
      <trkpt lat="42.55423307418823" lon="1.8152225017547607">
        <ele>1809.7189022373918</ele>
        <time>2021-07-14T21:33:24.085Z</time>
      </trkpt>
      <trkpt lat="42.55470514297485" lon="1.8142247200012207">
        <ele>1811.0874255555204</ele>
        <time>2021-07-14T21:33:33.505Z</time>
      </trkpt>
      <trkpt lat="42.55484470166266" lon="1.814117431640625">
        <ele>1812.004998270385</ele>
        <time>2021-07-14T21:33:42.928Z</time>
      </trkpt>
      <trkpt lat="42.55497336387634" lon="1.814117431640625">
        <ele>1812.887028982158</ele>
        <time>2021-07-14T21:33:52.353Z</time>
      </trkpt>
      <trkpt lat="42.554973447695374" lon="1.814117431640625">
        <ele>1813.826772421627</ele>
        <time>2021-07-14T21:34:01.778Z</time>
      </trkpt>
      <trkpt lat="42.55510219372809" lon="1.814192533493042">
        <ele>1814.7696483797495</ele>
        <time>2021-07-14T21:34:11.205Z</time>
      </trkpt>
      <trkpt lat="42.55526304244995" lon="1.814342737197876">
        <ele>1815.7394834859065</ele>
        <time>2021-07-14T21:34:20.635Z</time>
      </trkpt>
      <trkpt lat="42.555391788482666" lon="1.81449294090271">
        <ele>1816.710358771523</ele>
        <time>2021-07-14T21:34:30.068Z</time>
      </trkpt>
      <trkpt lat="42.55576729774475" lon="1.8154370784759521">
        <ele>1817.6853214260898</ele>
        <time>2021-07-14T21:34:39.514Z</time>
      </trkpt>
      <trkpt lat="42.555906772613525" lon="1.8157482147216797">
        <ele>1818.8112096124705</ele>
        <time>2021-07-14T21:34:48.964Z</time>
      </trkpt>
      <trkpt lat="42.55590685643256" lon="1.8157482147216797">
        <ele>1819.850663548646</ele>
        <time>2021-07-14T21:34:58.414Z</time>
      </trkpt>
      <trkpt lat="42.55598187446594" lon="1.815887689590454">
        <ele>1821.0673475332637</ele>
        <time>2021-07-14T21:35:07.866Z</time>
      </trkpt>
      <trkpt lat="42.55602478981018" lon="1.8160486221313477">
        <ele>1822.271927755216</ele>
        <time>2021-07-14T21:35:17.320Z</time>
      </trkpt>
      <trkpt lat="42.5560462474823" lon="1.8162524700164795">
        <ele>1823.4916260845298</ele>
        <time>2021-07-14T21:35:26.776Z</time>
      </trkpt>
      <trkpt lat="42.55603551864624" lon="1.816467046737671">
        <ele>1824.7054041440206</ele>
        <time>2021-07-14T21:35:36.235Z</time>
      </trkpt>
      <trkpt lat="42.555992603302" lon="1.8166923522949219">
        <ele>1825.931256772211</ele>
        <time>2021-07-14T21:35:45.697Z</time>
      </trkpt>
      <trkpt lat="42.55582094192505" lon="1.817185878753662">
        <ele>1827.0689586993574</ele>
        <time>2021-07-14T21:35:55.165Z</time>
      </trkpt>
      <trkpt lat="42.55579948425293" lon="1.8173682689666748">
        <ele>1828.3992833143284</ele>
        <time>2021-07-14T21:36:04.635Z</time>
      </trkpt>
      <trkpt lat="42.55578875541687" lon="1.817915439605713">
        <ele>1829.9433257915907</ele>
        <time>2021-07-14T21:36:14.112Z</time>
      </trkpt>
      <trkpt lat="42.55576729774475" lon="1.8180656433105469">
        <ele>1831.3850207598339</ele>
        <time>2021-07-14T21:36:23.591Z</time>
      </trkpt>
      <trkpt lat="42.555402517318726" lon="1.8192028999328613">
        <ele>1833.1139383984046</ele>
        <time>2021-07-14T21:36:33.084Z</time>
      </trkpt>
      <trkpt lat="42.55470514297485" lon="1.8209946155548096">
        <ele>1834.7780600368128</ele>
        <time>2021-07-14T21:36:42.601Z</time>
      </trkpt>
      <trkpt lat="42.55456566810608" lon="1.8214666843414307">
        <ele>1836.487973716136</ele>
        <time>2021-07-14T21:36:52.124Z</time>
      </trkpt>
      <trkpt lat="42.55437254905701" lon="1.821906566619873">
        <ele>1838.2447839372749</ele>
        <time>2021-07-14T21:37:01.653Z</time>
      </trkpt>
      <trkpt lat="42.553889751434326" lon="1.8231618404388428">
        <ele>1840.0960973758524</ele>
        <time>2021-07-14T21:37:11.199Z</time>
      </trkpt>
      <trkpt lat="42.55381464958191" lon="1.823354959487915">
        <ele>1841.8171949809528</ele>
        <time>2021-07-14T21:37:20.748Z</time>
      </trkpt>
      <trkpt lat="42.55372881889343" lon="1.8235158920288086">
        <ele>1843.543335891552</ele>
        <time>2021-07-14T21:37:30.299Z</time>
      </trkpt>
      <trkpt lat="42.55355715751648" lon="1.8237626552581787">
        <ele>1845.1461479575887</ele>
        <time>2021-07-14T21:37:39.854Z</time>
      </trkpt>
      <trkpt lat="42.55351424217224" lon="1.8238592147827148">
        <ele>1847.0228076690642</ele>
        <time>2021-07-14T21:37:49.410Z</time>
      </trkpt>
      <trkpt lat="42.55351424217224" lon="1.823955774307251">
        <ele>1849.064856420604</ele>
        <time>2021-07-14T21:37:58.967Z</time>
      </trkpt>
      <trkpt lat="42.5535249710083" lon="1.8240416049957275">
        <ele>1851.1995682647698</ele>
        <time>2021-07-14T21:38:08.525Z</time>
      </trkpt>
      <trkpt lat="42.55358934402466" lon="1.8241488933563232">
        <ele>1853.5369095945985</ele>
        <time>2021-07-14T21:38:18.085Z</time>
      </trkpt>
      <trkpt lat="42.553653717041016" lon="1.824181079864502">
        <ele>1855.9139863568753</ele>
        <time>2021-07-14T21:38:27.646Z</time>
      </trkpt>
      <trkpt lat="42.55370736122131" lon="1.8241703510284424">
        <ele>1858.3174126501926</ele>
        <time>2021-07-14T21:38:37.208Z</time>
      </trkpt>
      <trkpt lat="42.55376100540161" lon="1.8241381645202637">
        <ele>1860.775965490015</ele>
        <time>2021-07-14T21:38:46.771Z</time>
      </trkpt>
      <trkpt lat="42.55381464958191" lon="1.8240737915039062">
        <ele>1863.280771140854</ele>
        <time>2021-07-14T21:38:56.335Z</time>
      </trkpt>
      <trkpt lat="42.55383610725403" lon="1.8239772319793701">
        <ele>1865.7610144514047</ele>
        <time>2021-07-14T21:39:05.900Z</time>
      </trkpt>
      <trkpt lat="42.553889751434326" lon="1.8235480785369873">
        <ele>1868.1920659462005</ele>
        <time>2021-07-14T21:39:15.471Z</time>
      </trkpt>
      <trkpt lat="42.55400776863098" lon="1.8231725692749023">
        <ele>1870.7564447205923</ele>
        <time>2021-07-14T21:39:25.046Z</time>
      </trkpt>
      <trkpt lat="42.55409359931946" lon="1.8229687213897705">
        <ele>1873.3536422325265</ele>
        <time>2021-07-14T21:39:34.624Z</time>
      </trkpt>
      <trkpt lat="42.554404735565186" lon="1.8223786354064941">
        <ele>1876.092570056103</ele>
        <time>2021-07-14T21:39:44.211Z</time>
      </trkpt>
      <trkpt lat="42.55482316017151" lon="1.8217027187347412">
        <ele>1878.7837630956737</ele>
        <time>2021-07-14T21:39:53.808Z</time>
      </trkpt>
      <trkpt lat="42.555155754089355" lon="1.8210697174072266">
        <ele>1881.6046073653501</ele>
        <time>2021-07-14T21:40:03.414Z</time>
      </trkpt>
      <trkpt lat="42.55622863769531" lon="1.8194282054901123">
        <ele>1884.9653943620565</ele>
        <time>2021-07-14T21:40:13.046Z</time>
      </trkpt>
      <trkpt lat="42.55650758743286" lon="1.8189454078674316">
        <ele>1887.6201395229527</ele>
        <time>2021-07-14T21:40:22.685Z</time>
      </trkpt>
      <trkpt lat="42.55665787495673" lon="1.8186664581298828">
        <ele>1890.1661258067638</ele>
        <time>2021-07-14T21:40:32.329Z</time>
      </trkpt>
      <trkpt lat="42.556958282366395" lon="1.8181085586547852">
        <ele>1892.672497045488</ele>
        <time>2021-07-14T21:40:41.981Z</time>
      </trkpt>
      <trkpt lat="42.55708694458008" lon="1.8179047107696533">
        <ele>1895.2101016910246</ele>
        <time>2021-07-14T21:40:51.636Z</time>
      </trkpt>
      <trkpt lat="42.55723714828491" lon="1.817636489868164">
        <ele>1897.6362443471783</ele>
        <time>2021-07-14T21:41:01.295Z</time>
      </trkpt>
      <trkpt lat="42.5580632686615" lon="1.8160271644592285">
        <ele>1900.201103295735</ele>
        <time>2021-07-14T21:41:10.977Z</time>
      </trkpt>
      <trkpt lat="42.55905032157898" lon="1.8139994144439697">
        <ele>1903.0041820633942</ele>
        <time>2021-07-14T21:41:20.688Z</time>
      </trkpt>
      <trkpt lat="42.55916842259467" lon="1.8135273456573486">
        <ele>1904.969703133202</ele>
        <time>2021-07-14T21:41:30.405Z</time>
      </trkpt>
      <trkpt lat="42.5593722704798" lon="1.8127548694610596">
        <ele>1906.821801874458</ele>
        <time>2021-07-14T21:41:40.131Z</time>
      </trkpt>
      <trkpt lat="42.55940445698798" lon="1.8125617504119873">
        <ele>1908.4584205676888</ele>
        <time>2021-07-14T21:41:49.860Z</time>
      </trkpt>
      <trkpt lat="42.559425830841064" lon="1.8124759197235107">
        <ele>1909.90252371827</ele>
        <time>2021-07-14T21:41:59.590Z</time>
      </trkpt>
      <trkpt lat="42.55945801734924" lon="1.811692714691162">
        <ele>1911.1075559717065</ele>
        <time>2021-07-14T21:42:09.329Z</time>
      </trkpt>
      <trkpt lat="42.55949020385742" lon="1.8113601207733154">
        <ele>1912.1885641439048</ele>
        <time>2021-07-14T21:42:19.072Z</time>
      </trkpt>
      <trkpt lat="42.55953320302069" lon="1.8110918998718262">
        <ele>1913.108882405676</ele>
        <time>2021-07-14T21:42:28.818Z</time>
      </trkpt>
      <trkpt lat="42.55961894989014" lon="1.810845136642456">
        <ele>1913.7579179283773</ele>
        <time>2021-07-14T21:42:38.567Z</time>
      </trkpt>
      <trkpt lat="42.55965122021735" lon="1.8107807636260986">
        <ele>1914.149285768519</ele>
        <time>2021-07-14T21:42:48.317Z</time>
      </trkpt>
      <trkpt lat="42.559876441955566" lon="1.810448169708252">
        <ele>1914.4717834971893</ele>
        <time>2021-07-14T21:42:58.073Z</time>
      </trkpt>
      <trkpt lat="42.5600802898407" lon="1.8101799488067627">
        <ele>1914.4571348390955</ele>
        <time>2021-07-14T21:43:07.833Z</time>
      </trkpt>
      <trkpt lat="42.56008037365973" lon="1.8101799488067627">
        <ele>1914.158149330511</ele>
        <time>2021-07-14T21:43:17.593Z</time>
      </trkpt>
      <trkpt lat="42.560681104660034" lon="1.8092894554138184">
        <ele>1913.5242309926175</ele>
        <time>2021-07-14T21:43:27.368Z</time>
      </trkpt>
      <trkpt lat="42.56078839302063" lon="1.8090534210205078">
        <ele>1912.6518598415491</ele>
        <time>2021-07-14T21:43:37.146Z</time>
      </trkpt>
      <trkpt lat="42.56132483482361" lon="1.8076586723327637">
        <ele>1911.6645710242065</ele>
        <time>2021-07-14T21:43:46.942Z</time>
      </trkpt>
      <trkpt lat="42.56173253059387" lon="1.8070149421691895">
        <ele>1910.3008606315423</ele>
        <time>2021-07-14T21:43:56.748Z</time>
      </trkpt>
      <trkpt lat="42.56185054779053" lon="1.8066716194152832">
        <ele>1908.9596901398925</ele>
        <time>2021-07-14T21:44:06.559Z</time>
      </trkpt>
      <trkpt lat="42.56232261657715" lon="1.8045473098754883">
        <ele>1907.093108498649</ele>
        <time>2021-07-14T21:44:16.396Z</time>
      </trkpt>
      <trkpt lat="42.562376260757446" lon="1.8043756484985352">
        <ele>1905.439151291236</ele>
        <time>2021-07-14T21:44:26.235Z</time>
      </trkpt>
      <trkpt lat="42.562676668167114" lon="1.8037211894989014">
        <ele>1903.5204647805085</ele>
        <time>2021-07-14T21:44:36.083Z</time>
      </trkpt>
      <trkpt lat="42.56276249885559" lon="1.803581714630127">
        <ele>1901.6454720652046</ele>
        <time>2021-07-14T21:44:45.934Z</time>
      </trkpt>
      <trkpt lat="42.563127279281616" lon="1.8030881881713867">
        <ele>1899.376140046763</ele>
        <time>2021-07-14T21:44:55.793Z</time>
      </trkpt>
      <trkpt lat="42.563384771347046" lon="1.802659034729004">
        <ele>1897.2977455428995</ele>
        <time>2021-07-14T21:45:05.658Z</time>
      </trkpt>
      <trkpt lat="42.56374955177307" lon="1.802154779434204">
        <ele>1895.107804769516</ele>
        <time>2021-07-14T21:45:15.532Z</time>
      </trkpt>
      <trkpt lat="42.56401777267456" lon="1.8018865585327148">
        <ele>1892.8613099847398</ele>
        <time>2021-07-14T21:45:25.411Z</time>
      </trkpt>
      <trkpt lat="42.564146518707275" lon="1.8017041683197021">
        <ele>1890.6589895990287</ele>
        <time>2021-07-14T21:45:35.293Z</time>
      </trkpt>
      <trkpt lat="42.564457654953" lon="1.801210641860962">
        <ele>1888.4313351069145</ele>
        <time>2021-07-14T21:45:45.183Z</time>
      </trkpt>
      <trkpt lat="42.56455421447754" lon="1.8010711669921875">
        <ele>1886.1993840230916</ele>
        <time>2021-07-14T21:45:55.075Z</time>
      </trkpt>
      <trkpt lat="42.564672231674194" lon="1.8009746074676514">
        <ele>1883.9125476656882</ele>
        <time>2021-07-14T21:46:04.969Z</time>
      </trkpt>
      <trkpt lat="42.56554126739502" lon="1.8003952503204346">
        <ele>1881.321045330581</ele>
        <time>2021-07-14T21:46:14.879Z</time>
      </trkpt>
      <trkpt lat="42.56629228591919" lon="1.80000901222229">
        <ele>1878.8761818134667</ele>
        <time>2021-07-14T21:46:24.802Z</time>
      </trkpt>
      <trkpt lat="42.56629236973822" lon="1.80000901222229">
        <ele>1876.698770861644</ele>
        <time>2021-07-14T21:46:34.725Z</time>
      </trkpt>
      <trkpt lat="42.56650686264038" lon="1.7998802661895752">
        <ele>1874.4320801427266</ele>
        <time>2021-07-14T21:46:44.651Z</time>
      </trkpt>
      <trkpt lat="42.566635608673096" lon="1.799783706665039">
        <ele>1872.285929691789</ele>
        <time>2021-07-14T21:46:54.580Z</time>
      </trkpt>
      <trkpt lat="42.56674289703369" lon="1.7996764183044434">
        <ele>1870.1871060888368</ele>
        <time>2021-07-14T21:47:04.511Z</time>
      </trkpt>
      <trkpt lat="42.56685018539429" lon="1.799536943435669">
        <ele>1868.15534648395</ele>
        <time>2021-07-14T21:47:14.444Z</time>
      </trkpt>
      <trkpt lat="42.566936016082764" lon="1.7993760108947754">
        <ele>1866.184507603813</ele>
        <time>2021-07-14T21:47:24.379Z</time>
      </trkpt>
      <trkpt lat="42.566978931427" lon="1.7992258071899414">
        <ele>1864.219650791586</ele>
        <time>2021-07-14T21:47:34.316Z</time>
      </trkpt>
      <trkpt lat="42.56700038909912" lon="1.7990326881408691">
        <ele>1862.2775845439285</ele>
        <time>2021-07-14T21:47:44.256Z</time>
      </trkpt>
      <trkpt lat="42.56700047291815" lon="1.7990326881408691">
        <ele>1860.4057401548928</ele>
        <time>2021-07-14T21:47:54.196Z</time>
      </trkpt>
      <trkpt lat="42.56702184677124" lon="1.7988502979278564">
        <ele>1858.4867729469129</ele>
        <time>2021-07-14T21:48:04.138Z</time>
      </trkpt>
      <trkpt lat="42.56701111793518" lon="1.7986679077148438">
        <ele>1856.6255527089759</ele>
        <time>2021-07-14T21:48:14.082Z</time>
      </trkpt>
      <trkpt lat="42.56698966026306" lon="1.798539161682129">
        <ele>1854.8140118423973</ele>
        <time>2021-07-14T21:48:24.028Z</time>
      </trkpt>
      <trkpt lat="42.566936016082764" lon="1.798410415649414">
        <ele>1853.0602964357176</ele>
        <time>2021-07-14T21:48:33.975Z</time>
      </trkpt>
      <trkpt lat="42.56675362586975" lon="1.7981207370758057">
        <ele>1851.370592259162</ele>
        <time>2021-07-14T21:48:43.927Z</time>
      </trkpt>
      <trkpt lat="42.566678524017334" lon="1.7979705333709717">
        <ele>1849.6077406730328</ele>
        <time>2021-07-14T21:48:53.881Z</time>
      </trkpt>
      <trkpt lat="42.566635608673096" lon="1.7977988719940186">
        <ele>1847.8469980312534</ele>
        <time>2021-07-14T21:49:03.837Z</time>
      </trkpt>
      <trkpt lat="42.56661415100098" lon="1.7976272106170654">
        <ele>1846.043607581944</ele>
        <time>2021-07-14T21:49:13.795Z</time>
      </trkpt>
      <trkpt lat="42.566635608673096" lon="1.7972517013549805">
        <ele>1844.100472028041</ele>
        <time>2021-07-14T21:49:23.758Z</time>
      </trkpt>
      <trkpt lat="42.566667795181274" lon="1.7971336841583252">
        <ele>1842.2498610075668</ele>
        <time>2021-07-14T21:49:33.722Z</time>
      </trkpt>
      <trkpt lat="42.56675362586975" lon="1.7969298362731934">
        <ele>1840.3206640149392</ele>
        <time>2021-07-14T21:49:43.689Z</time>
      </trkpt>
      <trkpt lat="42.56678581237793" lon="1.7968010902404785">
        <ele>1838.443625953138</ele>
        <time>2021-07-14T21:49:53.658Z</time>
      </trkpt>
      <trkpt lat="42.56680727005005" lon="1.7966079711914062">
        <ele>1836.5212379469817</ele>
        <time>2021-07-14T21:50:03.629Z</time>
      </trkpt>
      <trkpt lat="42.56679654121399" lon="1.7962861061096191">
        <ele>1834.5396024972238</ele>
        <time>2021-07-14T21:50:13.604Z</time>
      </trkpt>
      <trkpt lat="42.566678524017334" lon="1.7938077449798584">
        <ele>1832.283135738946</ele>
        <time>2021-07-14T21:50:23.608Z</time>
      </trkpt>
      <trkpt lat="42.56660342216492" lon="1.793217658996582">
        <ele>1830.2117450623577</ele>
        <time>2021-07-14T21:50:33.619Z</time>
      </trkpt>
      <trkpt lat="42.566367387771606" lon="1.7924988269805908">
        <ele>1828.3452814773523</ele>
        <time>2021-07-14T21:50:43.639Z</time>
      </trkpt>
      <trkpt lat="42.56633520126343" lon="1.7922842502593994">
        <ele>1826.365893748141</ele>
        <time>2021-07-14T21:50:53.662Z</time>
      </trkpt>
      <trkpt lat="42.56632447242737" lon="1.7921233177185059">
        <ele>1824.3723336086819</ele>
        <time>2021-07-14T21:51:03.687Z</time>
      </trkpt>
      <trkpt lat="42.56633520126343" lon="1.7919623851776123">
        <ele>1822.3277609294828</ele>
        <time>2021-07-14T21:51:13.714Z</time>
      </trkpt>
      <trkpt lat="42.566421031951904" lon="1.7914044857025146">
        <ele>1820.121026488764</ele>
        <time>2021-07-14T21:51:23.748Z</time>
      </trkpt>
      <trkpt lat="42.56650686264038" lon="1.7909109592437744">
        <ele>1818.073782967289</ele>
        <time>2021-07-14T21:51:33.788Z</time>
      </trkpt>
      <trkpt lat="42.56657123565674" lon="1.7906856536865234">
        <ele>1815.9912568938653</ele>
        <time>2021-07-14T21:51:43.830Z</time>
      </trkpt>
      <trkpt lat="42.566667795181274" lon="1.790449619293213">
        <ele>1813.8799843155923</ele>
        <time>2021-07-14T21:51:53.876Z</time>
      </trkpt>
      <trkpt lat="42.56709694862366" lon="1.7896664142608643">
        <ele>1811.6533836449746</ele>
        <time>2021-07-14T21:52:03.933Z</time>
      </trkpt>
      <trkpt lat="42.567161321640015" lon="1.7894840240478516">
        <ele>1809.673103695609</ele>
        <time>2021-07-14T21:52:13.992Z</time>
      </trkpt>
      <trkpt lat="42.5674831867218" lon="1.7885184288024902">
        <ele>1807.29931572566</ele>
        <time>2021-07-14T21:52:24.064Z</time>
      </trkpt>
      <trkpt lat="42.56752610206604" lon="1.7883145809173584">
        <ele>1805.2407963206442</ele>
        <time>2021-07-14T21:52:34.139Z</time>
      </trkpt>
      <trkpt lat="42.5675368309021" lon="1.7881321907043457">
        <ele>1803.2283318576438</ele>
        <time>2021-07-14T21:52:44.216Z</time>
      </trkpt>
      <trkpt lat="42.56752610206604" lon="1.7878425121307373">
        <ele>1801.2042630329727</ele>
        <time>2021-07-14T21:52:54.296Z</time>
      </trkpt>
      <trkpt lat="42.567397356033325" lon="1.7867481708526611">
        <ele>1799.0402056181133</ele>
        <time>2021-07-14T21:53:04.389Z</time>
      </trkpt>
      <trkpt lat="42.56722569465637" lon="1.7857718467712402">
        <ele>1797.196676514862</ele>
        <time>2021-07-14T21:53:14.494Z</time>
      </trkpt>
      <trkpt lat="42.56702184677124" lon="1.7849993705749512">
        <ele>1795.068982698109</ele>
        <time>2021-07-14T21:53:24.609Z</time>
      </trkpt>
      <trkpt lat="42.566978931427" lon="1.7848706245422363">
        <ele>1793.166322205714</ele>
        <time>2021-07-14T21:53:34.725Z</time>
      </trkpt>
      <trkpt lat="42.56635665893555" lon="1.7837655544281006">
        <ele>1790.7862823797243</ele>
        <time>2021-07-14T21:53:44.858Z</time>
      </trkpt>
      <trkpt lat="42.566142082214355" lon="1.7834866046905518">
        <ele>1788.9326555409298</ele>
        <time>2021-07-14T21:53:54.996Z</time>
      </trkpt>
      <trkpt lat="42.56604552268982" lon="1.7834007740020752">
        <ele>1787.187381292511</ele>
        <time>2021-07-14T21:54:05.135Z</time>
      </trkpt>
      <trkpt lat="42.565938234329224" lon="1.7833256721496582">
        <ele>1785.5109735777858</ele>
        <time>2021-07-14T21:54:15.276Z</time>
      </trkpt>
      <trkpt lat="42.565659284591675" lon="1.783207654953003">
        <ele>1783.8856494306451</ele>
        <time>2021-07-14T21:54:25.422Z</time>
      </trkpt>
      <trkpt lat="42.5655734539032" lon="1.7831432819366455">
        <ele>1782.2315707025878</ele>
        <time>2021-07-14T21:54:35.570Z</time>
      </trkpt>
      <trkpt lat="42.564940452575684" lon="1.7825102806091309">
        <ele>1780.3979147804437</ele>
        <time>2021-07-14T21:54:45.730Z</time>
      </trkpt>
      <trkpt lat="42.56447911262512" lon="1.7820918560028076">
        <ele>1778.9368134826486</ele>
        <time>2021-07-14T21:54:55.899Z</time>
      </trkpt>
      <trkpt lat="42.56450057029724" lon="1.782006025314331">
        <ele>1777.3714646945255</ele>
        <time>2021-07-14T21:55:06.069Z</time>
      </trkpt>
      <trkpt lat="42.56448984146118" lon="1.781909465789795">
        <ele>1775.867001171971</ele>
        <time>2021-07-14T21:55:16.240Z</time>
      </trkpt>
      <trkpt lat="42.56436109542847" lon="1.7815124988555908">
        <ele>1774.259553899417</ele>
        <time>2021-07-14T21:55:26.416Z</time>
      </trkpt>
      <trkpt lat="42.564157247543335" lon="1.7811048030853271">
        <ele>1772.8234716315483</ele>
        <time>2021-07-14T21:55:36.598Z</time>
      </trkpt>
      <trkpt lat="42.56403923034668" lon="1.780933141708374">
        <ele>1771.4701900328014</ele>
        <time>2021-07-14T21:55:46.783Z</time>
      </trkpt>
      <trkpt lat="42.56379246711731" lon="1.7806220054626465">
        <ele>1770.2040294789049</ele>
        <time>2021-07-14T21:55:56.973Z</time>
      </trkpt>
      <trkpt lat="42.56371736526489" lon="1.7805039882659912">
        <ele>1768.973260143995</ele>
        <time>2021-07-14T21:56:07.165Z</time>
      </trkpt>
      <trkpt lat="42.56369590759277" lon="1.7803752422332764">
        <ele>1767.7296694608783</ele>
        <time>2021-07-14T21:56:17.359Z</time>
      </trkpt>
      <trkpt lat="42.56369590759277" lon="1.7802143096923828">
        <ele>1766.4829277490287</ele>
        <time>2021-07-14T21:56:27.555Z</time>
      </trkpt>
      <trkpt lat="42.56373882293701" lon="1.7797744274139404">
        <ele>1764.9488424684869</ele>
        <time>2021-07-14T21:56:37.756Z</time>
      </trkpt>
      <trkpt lat="42.56371736526489" lon="1.779388189315796">
        <ele>1763.7246738867304</ele>
        <time>2021-07-14T21:56:47.962Z</time>
      </trkpt>
      <trkpt lat="42.563674449920654" lon="1.7792165279388428">
        <ele>1762.6649092580942</ele>
        <time>2021-07-14T21:56:58.170Z</time>
      </trkpt>
      <trkpt lat="42.56348133087158" lon="1.7786264419555664">
        <ele>1761.6794407120537</ele>
        <time>2021-07-14T21:57:08.385Z</time>
      </trkpt>
      <trkpt lat="42.5634491443634" lon="1.7784440517425537">
        <ele>1760.6386800704886</ele>
        <time>2021-07-14T21:57:18.603Z</time>
      </trkpt>
      <trkpt lat="42.563416957855225" lon="1.7779076099395752">
        <ele>1759.464285473507</ele>
        <time>2021-07-14T21:57:28.827Z</time>
      </trkpt>
      <trkpt lat="42.563395500183105" lon="1.7777574062347412">
        <ele>1758.4510600267424</ele>
        <time>2021-07-14T21:57:39.053Z</time>
      </trkpt>
      <trkpt lat="42.56335258483887" lon="1.7776501178741455">
        <ele>1757.5072415345176</ele>
        <time>2021-07-14T21:57:49.280Z</time>
      </trkpt>
      <trkpt lat="42.56328821182251" lon="1.777564287185669">
        <ele>1756.5841002592792</ele>
        <time>2021-07-14T21:57:59.509Z</time>
      </trkpt>
      <trkpt lat="42.56308436393738" lon="1.7774248123168945">
        <ele>1755.7217062266773</ele>
        <time>2021-07-14T21:58:09.741Z</time>
      </trkpt>
      <trkpt lat="42.56298788823187" lon="1.7773282527923584">
        <ele>1754.8698520861828</ele>
        <time>2021-07-14T21:58:19.975Z</time>
      </trkpt>
      <trkpt lat="42.56298780441284" lon="1.7773282527923584">
        <ele>1753.9912445283235</ele>
        <time>2021-07-14T21:58:30.209Z</time>
      </trkpt>
      <trkpt lat="42.562901973724365" lon="1.7771029472351074">
        <ele>1753.2019039646916</ele>
        <time>2021-07-14T21:58:40.446Z</time>
      </trkpt>
      <trkpt lat="42.562880516052246" lon="1.7769742012023926">
        <ele>1752.3681396933225</ele>
        <time>2021-07-14T21:58:50.685Z</time>
      </trkpt>
      <trkpt lat="42.562891244888306" lon="1.7768239974975586">
        <ele>1751.4529411714059</ele>
        <time>2021-07-14T21:59:00.926Z</time>
      </trkpt>
      <trkpt lat="42.562923431396484" lon="1.776716709136963">
        <ele>1750.4965575133233</ele>
        <time>2021-07-14T21:59:11.168Z</time>
      </trkpt>
      <trkpt lat="42.56302007474005" lon="1.7765343189239502">
        <ele>1749.4340703863372</ele>
        <time>2021-07-14T21:59:21.413Z</time>
      </trkpt>
      <trkpt lat="42.56301999092102" lon="1.7765343189239502">
        <ele>1748.5811915730621</ele>
        <time>2021-07-14T21:59:31.658Z</time>
      </trkpt>
      <trkpt lat="42.56325602531433" lon="1.7763733863830566">
        <ele>1747.4753405902325</ele>
        <time>2021-07-14T21:59:41.907Z</time>
      </trkpt>
      <trkpt lat="42.56336331367493" lon="1.7762446403503418">
        <ele>1746.5112958664959</ele>
        <time>2021-07-14T21:59:52.158Z</time>
      </trkpt>
      <trkpt lat="42.563438415527344" lon="1.7759978771209717">
        <ele>1745.6412099059062</ele>
        <time>2021-07-14T22:00:02.412Z</time>
      </trkpt>
      <trkpt lat="42.56351351737976" lon="1.7754292488098145">
        <ele>1744.6401392902726</ele>
        <time>2021-07-14T22:00:12.673Z</time>
      </trkpt>
      <trkpt lat="42.56352424621582" lon="1.7740881443023682">
        <ele>1743.865533823327</ele>
        <time>2021-07-14T22:00:22.950Z</time>
      </trkpt>
      <trkpt lat="42.56349205970764" lon="1.7736268043518066">
        <ele>1743.0483521120639</ele>
        <time>2021-07-14T22:00:33.232Z</time>
      </trkpt>
      <trkpt lat="42.5635027885437" lon="1.7734766006469727">
        <ele>1742.2354013181302</ele>
        <time>2021-07-14T22:00:43.516Z</time>
      </trkpt>
      <trkpt lat="42.56354570388794" lon="1.7733478546142578">
        <ele>1741.405596948217</ele>
        <time>2021-07-14T22:00:53.802Z</time>
      </trkpt>
      <trkpt lat="42.563620805740356" lon="1.7731761932373047">
        <ele>1740.5529578048365</ele>
        <time>2021-07-14T22:01:04.090Z</time>
      </trkpt>
      <trkpt lat="42.563652992248535" lon="1.7730152606964111">
        <ele>1739.7374474211301</ele>
        <time>2021-07-14T22:01:14.380Z</time>
      </trkpt>
      <trkpt lat="42.563652992248535" lon="1.7728543281555176">
        <ele>1738.9713912290088</ele>
        <time>2021-07-14T22:01:24.672Z</time>
      </trkpt>
      <trkpt lat="42.563631534576416" lon="1.7726719379425049">
        <ele>1738.2346777240837</ele>
        <time>2021-07-14T22:01:34.966Z</time>
      </trkpt>
      <trkpt lat="42.56357789039612" lon="1.7724037170410156">
        <ele>1737.531133174567</ele>
        <time>2021-07-14T22:01:45.264Z</time>
      </trkpt>
      <trkpt lat="42.56335258483887" lon="1.7715990543365479">
        <ele>1737.0328548073005</ele>
        <time>2021-07-14T22:01:55.572Z</time>
      </trkpt>
      <trkpt lat="42.56334185600281" lon="1.771470308303833">
        <ele>1736.338223185791</ele>
        <time>2021-07-14T22:02:05.881Z</time>
      </trkpt>
      <trkpt lat="42.56336331367493" lon="1.7713630199432373">
        <ele>1735.6017560735013</ele>
        <time>2021-07-14T22:02:16.192Z</time>
      </trkpt>
      <trkpt lat="42.563416957855225" lon="1.7712771892547607">
        <ele>1734.815011566876</ele>
        <time>2021-07-14T22:02:26.504Z</time>
      </trkpt>
      <trkpt lat="42.56348133087158" lon="1.771223545074463">
        <ele>1734.0024359223908</ele>
        <time>2021-07-14T22:02:36.817Z</time>
      </trkpt>
      <trkpt lat="42.56354570388794" lon="1.7712128162384033">
        <ele>1733.174824077757</ele>
        <time>2021-07-14T22:02:47.131Z</time>
      </trkpt>
      <trkpt lat="42.563620805740356" lon="1.771223545074463">
        <ele>1732.3157503298382</ele>
        <time>2021-07-14T22:02:57.446Z</time>
      </trkpt>
      <trkpt lat="42.563674449920654" lon="1.7712557315826416">
        <ele>1731.4634039288371</ele>
        <time>2021-07-14T22:03:07.762Z</time>
      </trkpt>
      <trkpt lat="42.56374955177307" lon="1.7713737487792969">
        <ele>1730.5602299118511</ele>
        <time>2021-07-14T22:03:18.080Z</time>
      </trkpt>
      <trkpt lat="42.56377100944519" lon="1.7714595794677734">
        <ele>1729.6986994866402</ele>
        <time>2021-07-14T22:03:28.399Z</time>
      </trkpt>
      <trkpt lat="42.56377100944519" lon="1.7715883255004883">
        <ele>1728.8432900024468</ele>
        <time>2021-07-14T22:03:38.720Z</time>
      </trkpt>
      <trkpt lat="42.56370663642883" lon="1.771920919418335">
        <ele>1728.0944576339052</ele>
        <time>2021-07-14T22:03:49.045Z</time>
      </trkpt>
      <trkpt lat="42.56369590759277" lon="1.7720603942871094">
        <ele>1727.1749402511036</ele>
        <time>2021-07-14T22:03:59.371Z</time>
      </trkpt>
      <trkpt lat="42.56372809410095" lon="1.7722105979919434">
        <ele>1726.1644011691596</ele>
        <time>2021-07-14T22:04:09.699Z</time>
      </trkpt>
      <trkpt lat="42.56374955177307" lon="1.77229642868042">
        <ele>1725.115338801148</ele>
        <time>2021-07-14T22:04:20.028Z</time>
      </trkpt>
      <trkpt lat="42.5640070438385" lon="1.7727792263031006">
        <ele>1723.8387574647077</ele>
        <time>2021-07-14T22:04:30.364Z</time>
      </trkpt>
      <trkpt lat="42.56410360336304" lon="1.772993803024292">
        <ele>1722.6469780590687</ele>
        <time>2021-07-14T22:04:40.703Z</time>
      </trkpt>
      <trkpt lat="42.564425468444824" lon="1.7741525173187256">
        <ele>1721.130484151291</ele>
        <time>2021-07-14T22:04:51.057Z</time>
      </trkpt>
      <trkpt lat="42.564436197280884" lon="1.7743134498596191">
        <ele>1719.899433794923</ele>
        <time>2021-07-14T22:05:01.413Z</time>
      </trkpt>
      <trkpt lat="42.564425468444824" lon="1.774517297744751">
        <ele>1718.6403308641711</ele>
        <time>2021-07-14T22:05:11.771Z</time>
      </trkpt>
      <trkpt lat="42.564393281936646" lon="1.7747104167938232">
        <ele>1717.355765714915</ele>
        <time>2021-07-14T22:05:22.132Z</time>
      </trkpt>
      <trkpt lat="42.564404010772705" lon="1.7748713493347168">
        <ele>1715.953827038781</ele>
        <time>2021-07-14T22:05:32.495Z</time>
      </trkpt>
      <trkpt lat="42.564414739608765" lon="1.774989366531372">
        <ele>1714.5266599031588</ele>
        <time>2021-07-14T22:05:42.859Z</time>
      </trkpt>
      <trkpt lat="42.56453275680542" lon="1.7752575874328613">
        <ele>1712.941055976255</ele>
        <time>2021-07-14T22:05:53.227Z</time>
      </trkpt>
      <trkpt lat="42.56485470570624" lon="1.7758476734161377">
        <ele>1711.0743971941206</ele>
        <time>2021-07-14T22:06:03.603Z</time>
      </trkpt>
      <trkpt lat="42.56485462188721" lon="1.7758476734161377">
        <ele>1709.4468652021853</ele>
        <time>2021-07-14T22:06:13.979Z</time>
      </trkpt>
      <trkpt lat="42.564983451738954" lon="1.7760944366455078">
        <ele>1707.7062339195586</ele>
        <time>2021-07-14T22:06:24.359Z</time>
      </trkpt>
      <trkpt lat="42.565165758132935" lon="1.776437759399414">
        <ele>1705.8940877040832</ele>
        <time>2021-07-14T22:06:34.744Z</time>
      </trkpt>
      <trkpt lat="42.56521940231323" lon="1.776566505432129">
        <ele>1704.0898642629863</ele>
        <time>2021-07-14T22:06:45.131Z</time>
      </trkpt>
      <trkpt lat="42.5655198097229" lon="1.7776501178741455">
        <ele>1702.1651272663003</ele>
        <time>2021-07-14T22:06:55.531Z</time>
      </trkpt>
      <trkpt lat="42.56556272506714" lon="1.7777788639068604">
        <ele>1700.2759220416488</ele>
        <time>2021-07-14T22:07:05.933Z</time>
      </trkpt>
      <trkpt lat="42.56561636924744" lon="1.7779076099395752">
        <ele>1698.3340180765708</ele>
        <time>2021-07-14T22:07:16.337Z</time>
      </trkpt>
      <trkpt lat="42.56682872772217" lon="1.7795920372009277">
        <ele>1695.8337838437456</ele>
        <time>2021-07-14T22:07:26.769Z</time>
      </trkpt>
      <trkpt lat="42.56694674491882" lon="1.7797958850860596">
        <ele>1693.794838176085</ele>
        <time>2021-07-14T22:07:37.204Z</time>
      </trkpt>
      <trkpt lat="42.567139863967896" lon="1.7802143096923828">
        <ele>1691.7971656882878</ele>
        <time>2021-07-14T22:07:47.645Z</time>
      </trkpt>
      <trkpt lat="42.56723642349243" lon="1.7803430557250977">
        <ele>1689.708156856042</ele>
        <time>2021-07-14T22:07:58.088Z</time>
      </trkpt>
      <trkpt lat="42.56736516952515" lon="1.7804718017578125">
        <ele>1687.5642555627946</ele>
        <time>2021-07-14T22:08:08.533Z</time>
      </trkpt>
      <trkpt lat="42.56797671318054" lon="1.7809975147247314">
        <ele>1685.112785274097</ele>
        <time>2021-07-14T22:08:18.990Z</time>
      </trkpt>
      <trkpt lat="42.56808400154114" lon="1.7811155319213867">
        <ele>1682.9396791697127</ele>
        <time>2021-07-14T22:08:29.449Z</time>
      </trkpt>
      <trkpt lat="42.568169832229614" lon="1.7812550067901611">
        <ele>1680.795863136143</ele>
        <time>2021-07-14T22:08:39.910Z</time>
      </trkpt>
      <trkpt lat="42.56844878196716" lon="1.7818236351013184">
        <ele>1678.6455318013527</ele>
        <time>2021-07-14T22:08:50.379Z</time>
      </trkpt>
      <trkpt lat="42.56923198699951" lon="1.7828106880187988">
        <ele>1676.133749242604</ele>
        <time>2021-07-14T22:09:00.865Z</time>
      </trkpt>
      <trkpt lat="42.56935000419617" lon="1.7830252647399902">
        <ele>1674.0199992999342</ele>
        <time>2021-07-14T22:09:11.355Z</time>
      </trkpt>
      <trkpt lat="42.56980061531067" lon="1.784055233001709">
        <ele>1671.7619029488756</ele>
        <time>2021-07-14T22:09:21.859Z</time>
      </trkpt>
      <trkpt lat="42.57019758224487" lon="1.7845702171325684">
        <ele>1669.3841789313956</ele>
        <time>2021-07-14T22:09:32.372Z</time>
      </trkpt>
      <trkpt lat="42.57060527801514" lon="1.7851817607879639">
        <ele>1667.1024396529547</ele>
        <time>2021-07-14T22:09:42.894Z</time>
      </trkpt>
      <trkpt lat="42.57069110870361" lon="1.7853748798370361">
        <ele>1665.0290168132226</ele>
        <time>2021-07-14T22:09:53.419Z</time>
      </trkpt>
      <trkpt lat="42.57081985473633" lon="1.7858576774597168">
        <ele>1663.1032128388547</ele>
        <time>2021-07-14T22:10:03.950Z</time>
      </trkpt>
      <trkpt lat="42.570873498916626" lon="1.7859971523284912">
        <ele>1661.1393222449583</ele>
        <time>2021-07-14T22:10:14.483Z</time>
      </trkpt>
      <trkpt lat="42.5709593296051" lon="1.7861688137054443">
        <ele>1659.1742041097752</ele>
        <time>2021-07-14T22:10:25.018Z</time>
      </trkpt>
      <trkpt lat="42.57174253463745" lon="1.78727388381958">
        <ele>1656.5947219689742</ele>
        <time>2021-07-14T22:10:35.571Z</time>
      </trkpt>
      <trkpt lat="42.57179617881775" lon="1.7873811721801758">
        <ele>1654.6564337261143</ele>
        <time>2021-07-14T22:10:46.126Z</time>
      </trkpt>
      <trkpt lat="42.57181763648987" lon="1.7874670028686523">
        <ele>1652.7816985268028</ele>
        <time>2021-07-14T22:10:56.682Z</time>
      </trkpt>
      <trkpt lat="42.57181763648987" lon="1.7875635623931885">
        <ele>1650.9578369745368</ele>
        <time>2021-07-14T22:11:07.239Z</time>
      </trkpt>
      <trkpt lat="42.57168889045715" lon="1.788100004196167">
        <ele>1649.1594877040814</ele>
        <time>2021-07-14T22:11:17.803Z</time>
      </trkpt>
      <trkpt lat="42.571699703112245" lon="1.7882287502288818">
        <ele>1647.3758102934985</ele>
        <time>2021-07-14T22:11:28.368Z</time>
      </trkpt>
      <trkpt lat="42.57184990681708" lon="1.788625717163086">
        <ele>1645.7522566774962</ele>
        <time>2021-07-14T22:11:38.939Z</time>
      </trkpt>
      <trkpt lat="42.571903467178345" lon="1.7887437343597412">
        <ele>1644.0756516474203</ele>
        <time>2021-07-14T22:11:49.511Z</time>
      </trkpt>
      <trkpt lat="42.57195711135864" lon="1.7888081073760986">
        <ele>1642.3914479563114</ele>
        <time>2021-07-14T22:12:00.084Z</time>
      </trkpt>
      <trkpt lat="42.57203221321106" lon="1.788851022720337">
        <ele>1640.697232306325</ele>
        <time>2021-07-14T22:12:10.659Z</time>
      </trkpt>
      <trkpt lat="42.57232189178467" lon="1.788947582244873">
        <ele>1638.8865635283994</ele>
        <time>2021-07-14T22:12:21.238Z</time>
      </trkpt>
      <trkpt lat="42.57283687591553" lon="1.7894518375396729">
        <ele>1637.2218274328422</ele>
        <time>2021-07-14T22:12:31.828Z</time>
      </trkpt>
      <trkpt lat="42.5734806060791" lon="1.7899882793426514">
        <ele>1635.3278460948798</ele>
        <time>2021-07-14T22:12:42.430Z</time>
      </trkpt>
      <trkpt lat="42.57357716560364" lon="1.7901062965393066">
        <ele>1633.6489222669175</ele>
        <time>2021-07-14T22:12:53.034Z</time>
      </trkpt>
      <trkpt lat="42.57375963963568" lon="1.790374517440796">
        <ele>1631.976389713793</ele>
        <time>2021-07-14T22:13:03.642Z</time>
      </trkpt>
      <trkpt lat="42.57375955581665" lon="1.790374517440796">
        <ele>1630.3757354001564</ele>
        <time>2021-07-14T22:13:14.250Z</time>
      </trkpt>
      <trkpt lat="42.5739848613739" lon="1.7907285690307617">
        <ele>1628.7202514746868</ele>
        <time>2021-07-14T22:13:24.864Z</time>
      </trkpt>
      <trkpt lat="42.574177980422974" lon="1.7909753322601318">
        <ele>1626.9836874396674</ele>
        <time>2021-07-14T22:13:35.482Z</time>
      </trkpt>
      <trkpt lat="42.57426381111145" lon="1.7911362648010254">
        <ele>1625.372085600773</ele>
        <time>2021-07-14T22:13:46.102Z</time>
      </trkpt>
      <trkpt lat="42.574381828308105" lon="1.7914152145385742">
        <ele>1623.7993150225102</ele>
        <time>2021-07-14T22:13:56.726Z</time>
      </trkpt>
      <trkpt lat="42.57451057434082" lon="1.7916297912597656">
        <ele>1622.1593865524922</ele>
        <time>2021-07-14T22:14:07.353Z</time>
      </trkpt>
      <trkpt lat="42.57477879524231" lon="1.7920160293579102">
        <ele>1620.4326965371815</ele>
        <time>2021-07-14T22:14:17.987Z</time>
      </trkpt>
      <trkpt lat="42.57503628730774" lon="1.7924559116363525">
        <ele>1618.7698660645428</ele>
        <time>2021-07-14T22:14:28.627Z</time>
      </trkpt>
      <trkpt lat="42.575422525405884" lon="1.793217658996582">
        <ele>1617.1549066570092</ele>
        <time>2021-07-14T22:14:39.278Z</time>
      </trkpt>
      <trkpt lat="42.57564791478217" lon="1.7935502529144287">
        <ele>1615.3829112119126</ele>
        <time>2021-07-14T22:14:49.934Z</time>
      </trkpt>
      <trkpt lat="42.57572293281555" lon="1.7935502529144287">
        <ele>1613.6332120657921</ele>
        <time>2021-07-14T22:15:00.592Z</time>
      </trkpt>
      <trkpt lat="42.57580876350403" lon="1.7934215068817139">
        <ele>1611.7626673920636</ele>
        <time>2021-07-14T22:15:11.252Z</time>
      </trkpt>
      <trkpt lat="42.57584095001221" lon="1.7933249473571777">
        <ele>1610.025254576563</ele>
        <time>2021-07-14T22:15:21.913Z</time>
      </trkpt>
      <trkpt lat="42.57581949234009" lon="1.7931747436523438">
        <ele>1608.348494516741</ele>
        <time>2021-07-14T22:15:32.576Z</time>
      </trkpt>
      <trkpt lat="42.57546544075012" lon="1.7927026748657227">
        <ele>1606.9904006427564</ele>
        <time>2021-07-14T22:15:43.247Z</time>
      </trkpt>
      <trkpt lat="42.57534742355347" lon="1.7924880981445312">
        <ele>1605.43527955965</ele>
        <time>2021-07-14T22:15:53.921Z</time>
      </trkpt>
      <trkpt lat="42.57526159286499" lon="1.7923271656036377">
        <ele>1603.8835965288827</ele>
        <time>2021-07-14T22:16:04.597Z</time>
      </trkpt>
      <trkpt lat="42.57519721984863" lon="1.7921340465545654">
        <ele>1602.2836491420971</ele>
        <time>2021-07-14T22:16:15.276Z</time>
      </trkpt>
      <trkpt lat="42.57510074414313" lon="1.791747808456421">
        <ele>1600.5918227827838</ele>
        <time>2021-07-14T22:16:25.960Z</time>
      </trkpt>
      <trkpt lat="42.57473587989807" lon="1.789698600769043">
        <ele>1598.399268689584</ele>
        <time>2021-07-14T22:16:36.668Z</time>
      </trkpt>
      <trkpt lat="42.574660778045654" lon="1.7894303798675537">
        <ele>1596.8352575310628</ele>
        <time>2021-07-14T22:16:47.380Z</time>
      </trkpt>
      <trkpt lat="42.57455348968506" lon="1.7891299724578857">
        <ele>1595.3438567534754</ele>
        <time>2021-07-14T22:16:58.096Z</time>
      </trkpt>
      <trkpt lat="42.574381828308105" lon="1.7887330055236816">
        <ele>1593.8949372028483</ele>
        <time>2021-07-14T22:17:08.817Z</time>
      </trkpt>
      <trkpt lat="42.57431745529175" lon="1.7885184288024902">
        <ele>1592.429185601482</ele>
        <time>2021-07-14T22:17:19.541Z</time>
      </trkpt>
      <trkpt lat="42.57433891296387" lon="1.7883789539337158">
        <ele>1590.9252136516607</ele>
        <time>2021-07-14T22:17:30.267Z</time>
      </trkpt>
      <trkpt lat="42.574414098635316" lon="1.7882716655731201">
        <ele>1589.4288276797438</ele>
        <time>2021-07-14T22:17:40.994Z</time>
      </trkpt>
      <trkpt lat="42.574542760849" lon="1.7882716655731201">
        <ele>1587.9403895279465</ele>
        <time>2021-07-14T22:17:51.723Z</time>
      </trkpt>
      <trkpt lat="42.574617862701416" lon="1.788325309753418">
        <ele>1586.5498495617799</ele>
        <time>2021-07-14T22:18:02.454Z</time>
      </trkpt>
      <trkpt lat="42.574671506881714" lon="1.788421869277954">
        <ele>1585.220402083261</ele>
        <time>2021-07-14T22:18:13.186Z</time>
      </trkpt>
      <trkpt lat="42.57475733757019" lon="1.7887651920318604">
        <ele>1583.9608324377432</ele>
        <time>2021-07-14T22:18:23.923Z</time>
      </trkpt>
      <trkpt lat="42.57485389709473" lon="1.7890119552612305">
        <ele>1582.7002709391804</ele>
        <time>2021-07-14T22:18:34.663Z</time>
      </trkpt>
      <trkpt lat="42.57547625340521" lon="1.7904388904571533">
        <ele>1581.215724287762</ele>
        <time>2021-07-14T22:18:45.422Z</time>
      </trkpt>
      <trkpt lat="42.5760555267334" lon="1.7917799949645996">
        <ele>1579.778206186263</ele>
        <time>2021-07-14T22:18:56.200Z</time>
      </trkpt>
      <trkpt lat="42.576152086257935" lon="1.7920804023742676">
        <ele>1578.619319775408</ele>
        <time>2021-07-14T22:19:06.982Z</time>
      </trkpt>
      <trkpt lat="42.57622718811035" lon="1.7923593521118164">
        <ele>1577.4873385746569</ele>
        <time>2021-07-14T22:19:17.767Z</time>
      </trkpt>
      <trkpt lat="42.57628083229065" lon="1.7924773693084717">
        <ele>1576.298107146504</ele>
        <time>2021-07-14T22:19:28.554Z</time>
      </trkpt>
      <trkpt lat="42.57634520530701" lon="1.792541742324829">
        <ele>1575.055013344167</ele>
        <time>2021-07-14T22:19:39.342Z</time>
      </trkpt>
      <trkpt lat="42.576420307159424" lon="1.7925739288330078">
        <ele>1573.7664658135818</ele>
        <time>2021-07-14T22:19:50.131Z</time>
      </trkpt>
      <trkpt lat="42.57648468017578" lon="1.7925524711608887">
        <ele>1572.44238564268</ele>
        <time>2021-07-14T22:20:00.921Z</time>
      </trkpt>
      <trkpt lat="42.57653832435608" lon="1.7925095558166504">
        <ele>1571.101916838989</ele>
        <time>2021-07-14T22:20:11.712Z</time>
      </trkpt>
      <trkpt lat="42.57657051086426" lon="1.7924237251281738">
        <ele>1569.7396430013905</ele>
        <time>2021-07-14T22:20:22.505Z</time>
      </trkpt>
      <trkpt lat="42.57657051086426" lon="1.792294979095459">
        <ele>1568.3750954869352</ele>
        <time>2021-07-14T22:20:33.299Z</time>
      </trkpt>
      <trkpt lat="42.57652759552002" lon="1.7921769618988037">
        <ele>1567.0519456910463</ele>
        <time>2021-07-14T22:20:44.095Z</time>
      </trkpt>
      <trkpt lat="42.57629156112671" lon="1.7916405200958252">
        <ele>1565.7015316051222</ele>
        <time>2021-07-14T22:20:54.898Z</time>
      </trkpt>
      <trkpt lat="42.57621645927429" lon="1.791393756866455">
        <ele>1564.2939131603944</ele>
        <time>2021-07-14T22:21:05.704Z</time>
      </trkpt>
      <trkpt lat="42.576152086257935" lon="1.7909646034240723">
        <ele>1562.7777343311222</ele>
        <time>2021-07-14T22:21:16.515Z</time>
      </trkpt>
      <trkpt lat="42.576162898913026" lon="1.790224313735962">
        <ele>1561.0721449830944</ele>
        <time>2021-07-14T22:21:27.335Z</time>
      </trkpt>
      <trkpt lat="42.576162815093994" lon="1.7894089221954346">
        <ele>1559.4642074428123</ele>
        <time>2021-07-14T22:21:38.165Z</time>
      </trkpt>
      <trkpt lat="42.576173627749085" lon="1.7893123626708984">
        <ele>1557.8787164605671</ele>
        <time>2021-07-14T22:21:48.996Z</time>
      </trkpt>
      <trkpt lat="42.57619500160217" lon="1.7892372608184814">
        <ele>1556.2402935421421</ele>
        <time>2021-07-14T22:21:59.828Z</time>
      </trkpt>
      <trkpt lat="42.57624864578247" lon="1.7891514301300049">
        <ele>1554.5297261682022</ele>
        <time>2021-07-14T22:22:10.661Z</time>
      </trkpt>
      <trkpt lat="42.576355934143066" lon="1.7890870571136475">
        <ele>1552.7145946080263</ele>
        <time>2021-07-14T22:22:21.496Z</time>
      </trkpt>
      <trkpt lat="42.5764524936676" lon="1.789097785949707">
        <ele>1550.7510440261458</ele>
        <time>2021-07-14T22:22:32.333Z</time>
      </trkpt>
      <trkpt lat="42.57653832435608" lon="1.7891514301300049">
        <ele>1548.6616124943866</ele>
        <time>2021-07-14T22:22:43.171Z</time>
      </trkpt>
      <trkpt lat="42.576645612716675" lon="1.7893016338348389">
        <ele>1546.4005918829141</ele>
        <time>2021-07-14T22:22:54.012Z</time>
      </trkpt>
      <trkpt lat="42.57705330848694" lon="1.7900097370147705">
        <ele>1543.9429847678457</ele>
        <time>2021-07-14T22:23:04.863Z</time>
      </trkpt>
      <trkpt lat="42.577611207962036" lon="1.7912328243255615">
        <ele>1541.066714736376</ele>
        <time>2021-07-14T22:23:15.731Z</time>
      </trkpt>
      <trkpt lat="42.57778286933899" lon="1.7916083335876465">
        <ele>1538.4884182211463</ele>
        <time>2021-07-14T22:23:26.604Z</time>
      </trkpt>
      <trkpt lat="42.57795453071594" lon="1.7918980121612549">
        <ele>1535.7768330956883</ele>
        <time>2021-07-14T22:23:37.482Z</time>
      </trkpt>
      <trkpt lat="42.57834076881409" lon="1.7923915386199951">
        <ele>1532.9353361021379</ele>
        <time>2021-07-14T22:23:48.368Z</time>
      </trkpt>
      <trkpt lat="42.57850178517401" lon="1.7925524711608887">
        <ele>1530.2721851555957</ele>
        <time>2021-07-14T22:23:59.258Z</time>
      </trkpt>
      <trkpt lat="42.57850170135498" lon="1.7925524711608887">
        <ele>1527.5756595402268</ele>
        <time>2021-07-14T22:24:10.148Z</time>
      </trkpt>
      <trkpt lat="42.57880219258368" lon="1.792842149734497">
        <ele>1524.7473785935504</ele>
        <time>2021-07-14T22:24:21.043Z</time>
      </trkpt>
      <trkpt lat="42.579134702682495" lon="1.7931532859802246">
        <ele>1521.8644022457097</ele>
        <time>2021-07-14T22:24:31.945Z</time>
      </trkpt>
      <trkpt lat="42.5794780254364" lon="1.79351806640625">
        <ele>1518.8243388480078</ele>
        <time>2021-07-14T22:24:42.854Z</time>
      </trkpt>
      <trkpt lat="42.579606771469116" lon="1.7937004566192627">
        <ele>1515.821885043026</ele>
        <time>2021-07-14T22:24:53.766Z</time>
      </trkpt>
      <trkpt lat="42.579649686813354" lon="1.7938077449798584">
        <ele>1512.7992828842955</ele>
        <time>2021-07-14T22:25:04.679Z</time>
      </trkpt>
      <trkpt lat="42.579649770632386" lon="1.7941725254058838">
        <ele>1509.7536560760007</ele>
        <time>2021-07-14T22:25:15.597Z</time>
      </trkpt>
      <trkpt lat="42.579649686813354" lon="1.7941725254058838">
        <ele>1506.6431954201882</ele>
        <time>2021-07-14T22:25:26.515Z</time>
      </trkpt>
      <trkpt lat="42.579671228304505" lon="1.7942368984222412">
        <ele>1503.4817034723833</ele>
        <time>2021-07-14T22:25:37.433Z</time>
      </trkpt>
      <trkpt lat="42.57979989051819" lon="1.7943120002746582">
        <ele>1500.2313130264638</ele>
        <time>2021-07-14T22:25:48.354Z</time>
      </trkpt>
      <trkpt lat="42.57984280586243" lon="1.7943549156188965">
        <ele>1496.9746148921704</ele>
        <time>2021-07-14T22:25:59.276Z</time>
      </trkpt>
      <trkpt lat="42.58051872253418" lon="1.794590950012207">
        <ele>1493.4107740035834</ele>
        <time>2021-07-14T22:26:10.209Z</time>
      </trkpt>
      <trkpt lat="42.58094787597656" lon="1.7949020862579346">
        <ele>1489.9859671072588</ele>
        <time>2021-07-14T22:26:21.149Z</time>
      </trkpt>
      <trkpt lat="42.58117318153381" lon="1.7950844764709473">
        <ele>1486.5921781581053</ele>
        <time>2021-07-14T22:26:32.094Z</time>
      </trkpt>
      <trkpt lat="42.581387758255005" lon="1.7952346801757812">
        <ele>1483.213628921253</ele>
        <time>2021-07-14T22:26:43.043Z</time>
      </trkpt>
      <trkpt lat="42.58179545402527" lon="1.7953956127166748">
        <ele>1479.8096764256693</ele>
        <time>2021-07-14T22:26:53.998Z</time>
      </trkpt>
      <trkpt lat="42.58404850959778" lon="1.7960500717163086">
        <ele>1475.7236907095225</ele>
        <time>2021-07-14T22:27:04.990Z</time>
      </trkpt>
      <trkpt lat="42.584402561187744" lon="1.796114444732666">
        <ele>1472.2713288934915</ele>
        <time>2021-07-14T22:27:15.988Z</time>
      </trkpt>
      <trkpt lat="42.58473515510559" lon="1.7960715293884277">
        <ele>1468.853116888492</ele>
        <time>2021-07-14T22:27:26.991Z</time>
      </trkpt>
      <trkpt lat="42.58549698628485" lon="1.7958247661590576">
        <ele>1465.248117183432</ele>
        <time>2021-07-14T22:27:38.007Z</time>
      </trkpt>
      <trkpt lat="42.58596897125244" lon="1.7956745624542236">
        <ele>1461.9736663879858</ele>
        <time>2021-07-14T22:27:49.031Z</time>
      </trkpt>
      <trkpt lat="42.58618354797363" lon="1.795663833618164">
        <ele>1459.0156710872825</ele>
        <time>2021-07-14T22:28:00.058Z</time>
      </trkpt>
      <trkpt lat="42.58641958236694" lon="1.7957282066345215">
        <ele>1456.025750336823</ele>
        <time>2021-07-14T22:28:11.089Z</time>
      </trkpt>
      <trkpt lat="42.58656978607178" lon="1.795792579650879">
        <ele>1453.2745367943824</ele>
        <time>2021-07-14T22:28:22.122Z</time>
      </trkpt>
      <trkpt lat="42.58669853210449" lon="1.7958784103393555">
        <ele>1450.6500240018354</ele>
        <time>2021-07-14T22:28:33.158Z</time>
      </trkpt>
      <trkpt lat="42.58681654930115" lon="1.7959856986999512">
        <ele>1448.1586496088698</ele>
        <time>2021-07-14T22:28:44.196Z</time>
      </trkpt>
      <trkpt lat="42.58731007575989" lon="1.7966508865356445">
        <ele>1445.5901647424703</ele>
        <time>2021-07-14T22:28:55.245Z</time>
      </trkpt>
      <trkpt lat="42.58769631385803" lon="1.797112226486206">
        <ele>1443.321891238309</ele>
        <time>2021-07-14T22:29:06.302Z</time>
      </trkpt>
      <trkpt lat="42.58782505989075" lon="1.7972946166992188">
        <ele>1441.267372832417</ele>
        <time>2021-07-14T22:29:17.362Z</time>
      </trkpt>
      <trkpt lat="42.588125467300415" lon="1.797863245010376">
        <ele>1439.3499118413552</ele>
        <time>2021-07-14T22:29:28.431Z</time>
      </trkpt>
      <trkpt lat="42.58824348449707" lon="1.7980992794036865">
        <ele>1437.584105982697</ele>
        <time>2021-07-14T22:29:39.503Z</time>
      </trkpt>
      <trkpt lat="42.58828648366034" lon="1.7981529235839844">
        <ele>1435.9497332640217</ele>
        <time>2021-07-14T22:29:50.576Z</time>
      </trkpt>
      <trkpt lat="42.58828639984131" lon="1.7981529235839844">
        <ele>1434.4385384202628</ele>
        <time>2021-07-14T22:30:01.649Z</time>
      </trkpt>
      <trkpt lat="42.588404500856996" lon="1.798238754272461">
        <ele>1433.0158107879743</ele>
        <time>2021-07-14T22:30:12.724Z</time>
      </trkpt>
      <trkpt lat="42.58856543339789" lon="1.7983675003051758">
        <ele>1431.6679716769108</ele>
        <time>2021-07-14T22:30:23.802Z</time>
      </trkpt>
      <trkpt lat="42.588640535250306" lon="1.798464059829712">
        <ele>1430.4486814126924</ele>
        <time>2021-07-14T22:30:34.882Z</time>
      </trkpt>
      <trkpt lat="42.58874773979187" lon="1.798635721206665">
        <ele>1429.3123920396324</ele>
        <time>2021-07-14T22:30:45.964Z</time>
      </trkpt>
      <trkpt lat="42.58876919746399" lon="1.7987000942230225">
        <ele>1428.2794899186397</ele>
        <time>2021-07-14T22:30:57.047Z</time>
      </trkpt>
      <trkpt lat="42.58875855244696" lon="1.7988073825836182">
        <ele>1427.3399378055028</ele>
        <time>2021-07-14T22:31:08.131Z</time>
      </trkpt>
      <trkpt lat="42.58876919746399" lon="1.7988717555999756">
        <ele>1426.4279037089038</ele>
        <time>2021-07-14T22:31:19.216Z</time>
      </trkpt>
      <trkpt lat="42.58883357048035" lon="1.7989683151245117">
        <ele>1425.5324384130522</ele>
        <time>2021-07-14T22:31:30.303Z</time>
      </trkpt>
      <trkpt lat="42.588876485824585" lon="1.7990005016326904">
        <ele>1424.660125867013</ele>
        <time>2021-07-14T22:31:41.391Z</time>
      </trkpt>
      <trkpt lat="42.58897304534912" lon="1.7989790439605713">
        <ele>1423.7586994518233</ele>
        <time>2021-07-14T22:31:52.480Z</time>
      </trkpt>
      <trkpt lat="42.589123249053955" lon="1.7990648746490479">
        <ele>1422.8632822317713</ele>
        <time>2021-07-14T22:32:03.572Z</time>
      </trkpt>
      <trkpt lat="42.58947730064392" lon="1.799461841583252">
        <ele>1421.976553537418</ele>
        <time>2021-07-14T22:32:14.671Z</time>
      </trkpt>
      <trkpt lat="42.589852809906006" lon="1.799933910369873">
        <ele>1421.0794702505434</ele>
        <time>2021-07-14T22:32:25.778Z</time>
      </trkpt>
      <trkpt lat="42.59007811546326" lon="1.8003201484680176">
        <ele>1420.1565039392192</ele>
        <time>2021-07-14T22:32:36.891Z</time>
      </trkpt>
      <trkpt lat="42.59026050567627" lon="1.80076003074646">
        <ele>1419.2388273641814</ele>
        <time>2021-07-14T22:32:48.010Z</time>
      </trkpt>
      <trkpt lat="42.59053953923285" lon="1.8016397953033447">
        <ele>1418.156625088905</ele>
        <time>2021-07-14T22:32:59.140Z</time>
      </trkpt>
      <trkpt lat="42.59079703129828" lon="1.8023371696472168">
        <ele>1416.9608191294997</ele>
        <time>2021-07-14T22:33:10.280Z</time>
      </trkpt>
      <trkpt lat="42.59086140431464" lon="1.8024981021881104">
        <ele>1415.8982971975402</ele>
        <time>2021-07-14T22:33:21.422Z</time>
      </trkpt>
      <trkpt lat="42.59119391441345" lon="1.8030989170074463">
        <ele>1414.7542087352408</ele>
        <time>2021-07-14T22:33:32.573Z</time>
      </trkpt>
      <trkpt lat="42.5913763884455" lon="1.8032705783843994">
        <ele>1413.4820599044815</ele>
        <time>2021-07-14T22:33:43.727Z</time>
      </trkpt>
      <trkpt lat="42.59155869483948" lon="1.8034207820892334">
        <ele>1412.1284000481905</ele>
        <time>2021-07-14T22:33:54.885Z</time>
      </trkpt>
      <trkpt lat="42.592395627871156" lon="1.803656816482544">
        <ele>1410.5053891046557</ele>
        <time>2021-07-14T22:34:06.056Z</time>
      </trkpt>
      <trkpt lat="42.59272813796997" lon="1.8039464950561523">
        <ele>1409.0874418352696</ele>
        <time>2021-07-14T22:34:17.234Z</time>
      </trkpt>
      <trkpt lat="42.59294271469116" lon="1.8040966987609863">
        <ele>1407.6003074451946</ele>
        <time>2021-07-14T22:34:28.415Z</time>
      </trkpt>
      <trkpt lat="42.5934898853302" lon="1.8042254447937012">
        <ele>1405.8991858643062</ele>
        <time>2021-07-14T22:34:39.605Z</time>
      </trkpt>
      <trkpt lat="42.593629360198975" lon="1.8043005466461182">
        <ele>1404.1907703592933</ele>
        <time>2021-07-14T22:34:50.798Z</time>
      </trkpt>
      <trkpt lat="42.59376883506775" lon="1.8044507503509521">
        <ele>1402.3710242490135</ele>
        <time>2021-07-14T22:35:01.994Z</time>
      </trkpt>
      <trkpt lat="42.593886852264404" lon="1.8046438694000244">
        <ele>1400.4802947687454</ele>
        <time>2021-07-14T22:35:13.193Z</time>
      </trkpt>
      <trkpt lat="42.59403705596924" lon="1.8049979209899902">
        <ele>1398.5210577244884</ele>
        <time>2021-07-14T22:35:24.396Z</time>
      </trkpt>
      <trkpt lat="42.594391107559204" lon="1.8061566352844238">
        <ele>1396.4342849381046</ele>
        <time>2021-07-14T22:35:35.614Z</time>
      </trkpt>
      <trkpt lat="42.594584226608276" lon="1.8066394329071045">
        <ele>1394.3762847616872</ele>
        <time>2021-07-14T22:35:46.839Z</time>
      </trkpt>
      <trkpt lat="42.59468078613281" lon="1.8067896366119385">
        <ele>1392.1781196012553</ele>
        <time>2021-07-14T22:35:58.066Z</time>
      </trkpt>
      <trkpt lat="42.594884634017944" lon="1.8071544170379639">
        <ele>1389.9726017853018</ele>
        <time>2021-07-14T22:36:09.298Z</time>
      </trkpt>
      <trkpt lat="42.595109939575195" lon="1.8073904514312744">
        <ele>1387.484626119335</ele>
        <time>2021-07-14T22:36:20.535Z</time>
      </trkpt>
      <trkpt lat="42.59559282101691" lon="1.8078088760375977">
        <ele>1384.556244032222</ele>
        <time>2021-07-14T22:36:31.781Z</time>
      </trkpt>
      <trkpt lat="42.59619355201721" lon="1.8082809448242188">
        <ele>1381.487006111955</ele>
        <time>2021-07-14T22:36:43.038Z</time>
      </trkpt>
      <trkpt lat="42.59722352027893" lon="1.8089032173156738">
        <ele>1378.4506939305616</ele>
        <time>2021-07-14T22:36:54.313Z</time>
      </trkpt>
      <trkpt lat="42.59777069091797" lon="1.8092787265777588">
        <ele>1375.5926864672626</ele>
        <time>2021-07-14T22:37:05.598Z</time>
      </trkpt>
      <trkpt lat="42.59825348854065" lon="1.8096435070037842">
        <ele>1372.619156977259</ele>
        <time>2021-07-14T22:37:16.892Z</time>
      </trkpt>
      <trkpt lat="42.59856462478638" lon="1.8099331855773926">
        <ele>1369.738399794432</ele>
        <time>2021-07-14T22:37:28.192Z</time>
      </trkpt>
      <trkpt lat="42.59902596473694" lon="1.8104052543640137">
        <ele>1366.993339873792</ele>
        <time>2021-07-14T22:37:39.501Z</time>
      </trkpt>
      <trkpt lat="42.59941220283508" lon="1.810770034790039">
        <ele>1364.0539820113286</ele>
        <time>2021-07-14T22:37:50.818Z</time>
      </trkpt>
      <trkpt lat="42.59979844093323" lon="1.811070442199707">
        <ele>1360.9637462865546</ele>
        <time>2021-07-14T22:38:02.142Z</time>
      </trkpt>
      <trkpt lat="42.600131034851074" lon="1.8112850189208984">
        <ele>1357.852424558942</ele>
        <time>2021-07-14T22:38:13.472Z</time>
      </trkpt>
      <trkpt lat="42.600345611572266" lon="1.8113923072814941">
        <ele>1354.7899085871118</ele>
        <time>2021-07-14T22:38:24.805Z</time>
      </trkpt>
      <trkpt lat="42.600914323702455" lon="1.8116283416748047">
        <ele>1351.5479938888946</ele>
        <time>2021-07-14T22:38:36.148Z</time>
      </trkpt>
      <trkpt lat="42.60091423988342" lon="1.8116283416748047">
        <ele>1348.615584297827</ele>
        <time>2021-07-14T22:38:47.491Z</time>
      </trkpt>
      <trkpt lat="42.6025128364563" lon="1.8122506141662598">
        <ele>1345.3547136681598</ele>
        <time>2021-07-14T22:38:58.861Z</time>
      </trkpt>
      <trkpt lat="42.60303854942322" lon="1.812422275543213">
        <ele>1342.1548631706444</ele>
        <time>2021-07-14T22:39:10.239Z</time>
      </trkpt>
      <trkpt lat="42.60368227958679" lon="1.812669038772583">
        <ele>1338.9764778981782</ele>
        <time>2021-07-14T22:39:21.628Z</time>
      </trkpt>
      <trkpt lat="42.60455131530762" lon="1.8133020401000977">
        <ele>1336.1003790798718</ele>
        <time>2021-07-14T22:39:33.033Z</time>
      </trkpt>
      <trkpt lat="42.604840993881226" lon="1.8135595321655273">
        <ele>1333.3798636881124</ele>
        <time>2021-07-14T22:39:44.443Z</time>
      </trkpt>
      <trkpt lat="42.60495901107788" lon="1.813645362854004">
        <ele>1330.7233243981843</ele>
        <time>2021-07-14T22:39:55.855Z</time>
      </trkpt>
      <trkpt lat="42.605334520339966" lon="1.813795566558838">
        <ele>1327.9422632814772</ele>
        <time>2021-07-14T22:40:07.274Z</time>
      </trkpt>
      <trkpt lat="42.60573148727417" lon="1.8141496181488037">
        <ele>1325.4413147323057</ele>
        <time>2021-07-14T22:40:18.700Z</time>
      </trkpt>
      <trkpt lat="42.60580658912659" lon="1.8142354488372803">
        <ele>1323.0377940233361</ele>
        <time>2021-07-14T22:40:30.128Z</time>
      </trkpt>
      <trkpt lat="42.605860233306885" lon="1.8143212795257568">
        <ele>1320.7393053154783</ele>
        <time>2021-07-14T22:40:41.557Z</time>
      </trkpt>
      <trkpt lat="42.6059889793396" lon="1.8146324157714844">
        <ele>1318.5348107710133</ele>
        <time>2021-07-14T22:40:52.990Z</time>
      </trkpt>
      <trkpt lat="42.60603189468384" lon="1.8147611618041992">
        <ele>1316.4271869111644</ele>
        <time>2021-07-14T22:41:04.425Z</time>
      </trkpt>
      <trkpt lat="42.606096267700195" lon="1.815168857574463">
        <ele>1314.5680148001254</ele>
        <time>2021-07-14T22:41:15.865Z</time>
      </trkpt>
      <trkpt lat="42.606139266863465" lon="1.8152439594268799">
        <ele>1312.5783370241302</ele>
        <time>2021-07-14T22:41:27.306Z</time>
      </trkpt>
      <trkpt lat="42.60631092824042" lon="1.8154478073120117">
        <ele>1310.5438818620119</ele>
        <time>2021-07-14T22:41:38.751Z</time>
      </trkpt>
      <trkpt lat="42.60631084442139" lon="1.8154478073120117">
        <ele>1308.7108917798155</ele>
        <time>2021-07-14T22:41:50.196Z</time>
      </trkpt>
      <trkpt lat="42.60642886161804" lon="1.8155765533447266">
        <ele>1306.8450080070488</ele>
        <time>2021-07-14T22:42:01.643Z</time>
      </trkpt>
      <trkpt lat="42.60671854019165" lon="1.815791130065918">
        <ele>1304.8615369519007</ele>
        <time>2021-07-14T22:42:13.095Z</time>
      </trkpt>
      <trkpt lat="42.607083320617676" lon="1.8161988258361816">
        <ele>1303.1500416737194</ele>
        <time>2021-07-14T22:42:24.555Z</time>
      </trkpt>
      <trkpt lat="42.60776996612549" lon="1.8168962001800537">
        <ele>1301.5332636389624</ele>
        <time>2021-07-14T22:42:36.029Z</time>
      </trkpt>
      <trkpt lat="42.608617544174194" lon="1.817561388015747">
        <ele>1299.8555097965077</ele>
        <time>2021-07-14T22:42:47.518Z</time>
      </trkpt>
      <trkpt lat="42.60875701904297" lon="1.817636489868164">
        <ele>1298.2902293199054</ele>
        <time>2021-07-14T22:42:59.010Z</time>
      </trkpt>
      <trkpt lat="42.6089072227478" lon="1.8177330493927002">
        <ele>1296.79559951792</ele>
        <time>2021-07-14T22:43:10.504Z</time>
      </trkpt>
      <trkpt lat="42.60900378227234" lon="1.817840337753296">
        <ele>1295.4528094405746</ele>
        <time>2021-07-14T22:43:22.000Z</time>
      </trkpt>
      <trkpt lat="42.60927200317383" lon="1.8182158470153809">
        <ele>1294.2806307749113</ele>
        <time>2021-07-14T22:43:33.503Z</time>
      </trkpt>
      <trkpt lat="42.609357833862305" lon="1.8182694911956787">
        <ele>1292.9931547508609</ele>
        <time>2021-07-14T22:43:45.007Z</time>
      </trkpt>
      <trkpt lat="42.60972261428833" lon="1.818387508392334">
        <ele>1291.4382188364866</ele>
        <time>2021-07-14T22:43:56.517Z</time>
      </trkpt>
      <trkpt lat="42.609872817993164" lon="1.8184840679168701">
        <ele>1290.2175136774902</ele>
        <time>2021-07-14T22:44:08.030Z</time>
      </trkpt>
      <trkpt lat="42.610108852386475" lon="1.8187308311462402">
        <ele>1289.1666922325785</ele>
        <time>2021-07-14T22:44:19.548Z</time>
      </trkpt>
      <trkpt lat="42.61028051376343" lon="1.8189775943756104">
        <ele>1288.2430611794118</ele>
        <time>2021-07-14T22:44:31.070Z</time>
      </trkpt>
      <trkpt lat="42.61046290397644" lon="1.819084882736206">
        <ele>1287.0899374864825</ele>
        <time>2021-07-14T22:44:42.595Z</time>
      </trkpt>
      <trkpt lat="42.610859870910645" lon="1.8192565441131592">
        <ele>1285.7648820206477</ele>
        <time>2021-07-14T22:44:54.126Z</time>
      </trkpt>
      <trkpt lat="42.61113882064819" lon="1.8194174766540527">
        <ele>1284.7861147255353</ele>
        <time>2021-07-14T22:45:05.662Z</time>
      </trkpt>
      <trkpt lat="42.61129975318909" lon="1.8195569515228271">
        <ele>1283.9235514956745</ele>
        <time>2021-07-14T22:45:17.201Z</time>
      </trkpt>
      <trkpt lat="42.61149287223816" lon="1.8196320533752441">
        <ele>1282.9338580822591</ele>
        <time>2021-07-14T22:45:28.744Z</time>
      </trkpt>
      <trkpt lat="42.61217951774597" lon="1.8197393417358398">
        <ele>1281.5148353662494</ele>
        <time>2021-07-14T22:45:40.298Z</time>
      </trkpt>
      <trkpt lat="42.61225461959839" lon="1.819760799407959">
        <ele>1280.584173218237</ele>
        <time>2021-07-14T22:45:51.853Z</time>
      </trkpt>
      <trkpt lat="42.61295199394226" lon="1.8202972412109375">
        <ele>1280.0023452504627</ele>
        <time>2021-07-14T22:46:03.421Z</time>
      </trkpt>
      <trkpt lat="42.613059282302856" lon="1.820361614227295">
        <ele>1279.1901777820042</ele>
        <time>2021-07-14T22:46:14.991Z</time>
      </trkpt>
      <trkpt lat="42.61317729949951" lon="1.8203938007354736">
        <ele>1278.346871360101</ele>
        <time>2021-07-14T22:46:26.563Z</time>
      </trkpt>
      <trkpt lat="42.61325240135193" lon="1.820361614227295">
        <ele>1277.4533646432988</ele>
        <time>2021-07-14T22:46:38.136Z</time>
      </trkpt>
      <trkpt lat="42.613327503204346" lon="1.820307970046997">
        <ele>1276.544862463481</ele>
        <time>2021-07-14T22:46:49.710Z</time>
      </trkpt>
      <trkpt lat="42.613370418548584" lon="1.82023286819458">
        <ele>1275.6313415969512</ele>
        <time>2021-07-14T22:47:01.285Z</time>
      </trkpt>
      <trkpt lat="42.61340260505676" lon="1.8200719356536865">
        <ele>1274.6180861012429</ele>
        <time>2021-07-14T22:47:12.862Z</time>
      </trkpt>
      <trkpt lat="42.613370418548584" lon="1.8199753761291504">
        <ele>1273.7508886239693</ele>
        <time>2021-07-14T22:47:24.440Z</time>
      </trkpt>
      <trkpt lat="42.613316774368286" lon="1.8198895454406738">
        <ele>1272.9167485085209</ele>
        <time>2021-07-14T22:47:36.020Z</time>
      </trkpt>
      <trkpt lat="42.61323094367981" lon="1.8198144435882568">
        <ele>1272.126036797788</ele>
        <time>2021-07-14T22:47:47.601Z</time>
      </trkpt>
      <trkpt lat="42.612812519073486" lon="1.8197929859161377">
        <ele>1271.56818477164</ele>
        <time>2021-07-14T22:47:59.189Z</time>
      </trkpt>
      <trkpt lat="42.61268377304077" lon="1.8197393417358398">
        <ele>1270.837365512109</ele>
        <time>2021-07-14T22:48:10.779Z</time>
      </trkpt>
      <trkpt lat="42.612318992614746" lon="1.8195033073425293">
        <ele>1269.9979050827415</ele>
        <time>2021-07-14T22:48:22.376Z</time>
      </trkpt>
      <trkpt lat="42.61216878890991" lon="1.8194389343261719">
        <ele>1269.263784497061</ele>
        <time>2021-07-14T22:48:33.975Z</time>
      </trkpt>
      <trkpt lat="42.61190056800842" lon="1.8194174766540527">
        <ele>1268.7200975929159</ele>
        <time>2021-07-14T22:48:45.579Z</time>
      </trkpt>
      <trkpt lat="42.61176109313965" lon="1.8193638324737549">
        <ele>1268.028889311554</ele>
        <time>2021-07-14T22:48:57.185Z</time>
      </trkpt>
      <trkpt lat="42.611610889434814" lon="1.819288730621338">
        <ele>1267.2847102059416</ele>
        <time>2021-07-14T22:49:08.793Z</time>
      </trkpt>
      <trkpt lat="42.611074447631836" lon="1.8188917636871338">
        <ele>1266.374048121378</ele>
        <time>2021-07-14T22:49:20.411Z</time>
      </trkpt>
      <trkpt lat="42.61070966720581" lon="1.8186450004577637">
        <ele>1265.633629898221</ele>
        <time>2021-07-14T22:49:32.036Z</time>
      </trkpt>
      <trkpt lat="42.610591650009155" lon="1.818537712097168">
        <ele>1264.8169782527502</ele>
        <time>2021-07-14T22:49:43.663Z</time>
      </trkpt>
      <trkpt lat="42.610377073287964" lon="1.8182587623596191">
        <ele>1263.8722815036797</ele>
        <time>2021-07-14T22:49:55.295Z</time>
      </trkpt>
      <trkpt lat="42.61022686958313" lon="1.818011999130249">
        <ele>1262.9327022055968</ele>
        <time>2021-07-14T22:50:06.931Z</time>
      </trkpt>
      <trkpt lat="42.61019468307495" lon="1.8178939819335938">
        <ele>1261.980958310418</ele>
        <time>2021-07-14T22:50:18.568Z</time>
      </trkpt>
      <trkpt lat="42.61017322540283" lon="1.8177437782287598">
        <ele>1260.9680314042246</ele>
        <time>2021-07-14T22:50:30.207Z</time>
      </trkpt>
      <trkpt lat="42.61018395423889" lon="1.8175935745239258">
        <ele>1259.9036552539565</ele>
        <time>2021-07-14T22:50:41.848Z</time>
      </trkpt>
      <trkpt lat="42.61020541191101" lon="1.817464828491211">
        <ele>1258.9020671426429</ele>
        <time>2021-07-14T22:50:53.490Z</time>
      </trkpt>
      <trkpt lat="42.61025905609131" lon="1.817389726638794">
        <ele>1257.9170321220563</ele>
        <time>2021-07-14T22:51:05.133Z</time>
      </trkpt>
      <trkpt lat="42.610334157943726" lon="1.817314624786377">
        <ele>1256.9183448031474</ele>
        <time>2021-07-14T22:51:16.778Z</time>
      </trkpt>
      <trkpt lat="42.61043071746826" lon="1.8172824382781982">
        <ele>1255.9091032724114</ele>
        <time>2021-07-14T22:51:28.425Z</time>
      </trkpt>
      <trkpt lat="42.61051654815674" lon="1.8172717094421387">
        <ele>1254.899170540719</ele>
        <time>2021-07-14T22:51:40.073Z</time>
      </trkpt>
      <trkpt lat="42.610613107681274" lon="1.8172931671142578">
        <ele>1253.8826836859216</ele>
        <time>2021-07-14T22:51:51.722Z</time>
      </trkpt>
      <trkpt lat="42.61070966720581" lon="1.8173575401306152">
        <ele>1252.8672813715962</ele>
        <time>2021-07-14T22:52:03.373Z</time>
      </trkpt>
      <trkpt lat="42.61151432991028" lon="1.8179261684417725">
        <ele>1251.6449564791037</ele>
        <time>2021-07-14T22:52:15.039Z</time>
      </trkpt>
      <trkpt lat="42.61215806007385" lon="1.8184733390808105">
        <ele>1250.6764945383597</ele>
        <time>2021-07-14T22:52:26.717Z</time>
      </trkpt>
      <trkpt lat="42.61245846748352" lon="1.818612813949585">
        <ele>1249.679530957796</ele>
        <time>2021-07-14T22:52:38.400Z</time>
      </trkpt>
      <trkpt lat="42.612619400024414" lon="1.818634271621704">
        <ele>1248.654626170693</ele>
        <time>2021-07-14T22:52:50.086Z</time>
      </trkpt>
      <trkpt lat="42.61302709579468" lon="1.8186020851135254">
        <ele>1247.5662536918376</ele>
        <time>2021-07-14T22:53:01.778Z</time>
      </trkpt>
      <trkpt lat="42.61354207992554" lon="1.818462610244751">
        <ele>1246.3340574078234</ele>
        <time>2021-07-14T22:53:13.478Z</time>
      </trkpt>
      <trkpt lat="42.613863945007324" lon="1.8184304237365723">
        <ele>1245.2279172425488</ele>
        <time>2021-07-14T22:53:25.184Z</time>
      </trkpt>
      <trkpt lat="42.6140034198761" lon="1.8184411525726318">
        <ele>1244.1761706921416</ele>
        <time>2021-07-14T22:53:36.892Z</time>
      </trkpt>
      <trkpt lat="42.61416435241699" lon="1.8184947967529297">
        <ele>1243.1364903814356</ele>
        <time>2021-07-14T22:53:48.603Z</time>
      </trkpt>
      <trkpt lat="42.61446484364569" lon="1.818687915802002">
        <ele>1242.0358187560241</ele>
        <time>2021-07-14T22:54:00.319Z</time>
      </trkpt>
      <trkpt lat="42.61463642120361" lon="1.818859577178955">
        <ele>1240.9727548320475</ele>
        <time>2021-07-14T22:54:12.038Z</time>
      </trkpt>
      <trkpt lat="42.61494755744934" lon="1.8192243576049805">
        <ele>1239.9694057512152</ele>
        <time>2021-07-14T22:54:23.764Z</time>
      </trkpt>
      <trkpt lat="42.61518359184265" lon="1.8194496631622314">
        <ele>1238.9463159115066</ele>
        <time>2021-07-14T22:54:35.494Z</time>
      </trkpt>
      <trkpt lat="42.61543035507202" lon="1.8196213245391846">
        <ele>1237.8629179362106</ele>
        <time>2021-07-14T22:54:47.229Z</time>
      </trkpt>
      <trkpt lat="42.615591287612915" lon="1.8197071552276611">
        <ele>1236.7241679085446</ele>
        <time>2021-07-14T22:54:58.967Z</time>
      </trkpt>
      <trkpt lat="42.61575222015381" lon="1.819760799407959">
        <ele>1235.5382731212185</ele>
        <time>2021-07-14T22:55:10.707Z</time>
      </trkpt>
      <trkpt lat="42.616063356399536" lon="1.819835901260376">
        <ele>1234.2566604415902</ele>
        <time>2021-07-14T22:55:22.452Z</time>
      </trkpt>
      <trkpt lat="42.61619210243225" lon="1.8198895454406738">
        <ele>1233.005942254404</ele>
        <time>2021-07-14T22:55:34.200Z</time>
      </trkpt>
      <trkpt lat="42.6164174079895" lon="1.8200182914733887">
        <ele>1231.798065031799</ele>
        <time>2021-07-14T22:55:45.951Z</time>
      </trkpt>
      <trkpt lat="42.61665344238281" lon="1.820082664489746">
        <ele>1230.4790624926982</ele>
        <time>2021-07-14T22:55:57.706Z</time>
      </trkpt>
      <trkpt lat="42.61698603630066" lon="1.8201148509979248">
        <ele>1229.0592854605488</ele>
        <time>2021-07-14T22:56:09.467Z</time>
      </trkpt>
      <trkpt lat="42.61775851249695" lon="1.8200933933258057">
        <ele>1227.3806525598811</ele>
        <time>2021-07-14T22:56:21.240Z</time>
      </trkpt>
      <trkpt lat="42.6179838180542" lon="1.820136308670044">
        <ele>1225.976705857886</ele>
        <time>2021-07-14T22:56:33.017Z</time>
      </trkpt>
      <trkpt lat="42.618488073349" lon="1.8203401565551758">
        <ele>1224.5298666009503</ele>
        <time>2021-07-14T22:56:44.802Z</time>
      </trkpt>
      <trkpt lat="42.61902451515198" lon="1.8204152584075928">
        <ele>1222.966778709364</ele>
        <time>2021-07-14T22:56:56.596Z</time>
      </trkpt>
      <trkpt lat="42.61920690536499" lon="1.8204903602600098">
        <ele>1221.5810518270741</ele>
        <time>2021-07-14T22:57:08.393Z</time>
      </trkpt>
      <trkpt lat="42.619389295578" lon="1.8205976486206055">
        <ele>1220.1398790231785</ele>
        <time>2021-07-14T22:57:20.193Z</time>
      </trkpt>
      <trkpt lat="42.61975407600403" lon="1.8209409713745117">
        <ele>1218.6634812402976</ele>
        <time>2021-07-14T22:57:32.000Z</time>
      </trkpt>
      <trkpt lat="42.62021541595459" lon="1.821434497833252">
        <ele>1217.1669717669768</ele>
        <time>2021-07-14T22:57:43.816Z</time>
      </trkpt>
      <trkpt lat="42.620816230773926" lon="1.8221640586853027">
        <ele>1215.5771774298237</ele>
        <time>2021-07-14T22:57:55.645Z</time>
      </trkpt>
      <trkpt lat="42.62096643447876" lon="1.8223142623901367">
        <ele>1214.2238157047177</ele>
        <time>2021-07-14T22:58:07.477Z</time>
      </trkpt>
      <trkpt lat="42.62103080749512" lon="1.822357177734375">
        <ele>1212.8800106204358</ele>
        <time>2021-07-14T22:58:19.310Z</time>
      </trkpt>
      <trkpt lat="42.62125611305237" lon="1.822432279586792">
        <ele>1211.6140935394685</ele>
        <time>2021-07-14T22:58:31.147Z</time>
      </trkpt>
      <trkpt lat="42.621309757232666" lon="1.8224430084228516">
        <ele>1210.2905193126298</ele>
        <time>2021-07-14T22:58:42.985Z</time>
      </trkpt>
      <trkpt lat="42.62179255485535" lon="1.8223357200622559">
        <ele>1208.8545115922332</ele>
        <time>2021-07-14T22:58:54.831Z</time>
      </trkpt>
      <trkpt lat="42.6219642162323" lon="1.8223142623901367">
        <ele>1207.4842843186425</ele>
        <time>2021-07-14T22:59:06.680Z</time>
      </trkpt>
      <trkpt lat="42.622318267822266" lon="1.8223357200622559">
        <ele>1206.105950824076</ele>
        <time>2021-07-14T22:59:18.534Z</time>
      </trkpt>
      <trkpt lat="42.622843980789185" lon="1.8223249912261963">
        <ele>1204.5823629297884</ele>
        <time>2021-07-14T22:59:30.397Z</time>
      </trkpt>
      <trkpt lat="42.62298345565796" lon="1.8223357200622559">
        <ele>1203.193118504175</ele>
        <time>2021-07-14T22:59:42.262Z</time>
      </trkpt>
      <trkpt lat="42.62312293052673" lon="1.8224000930786133">
        <ele>1201.8311172043398</ele>
        <time>2021-07-14T22:59:54.129Z</time>
      </trkpt>
      <trkpt lat="42.62323021888733" lon="1.8224751949310303">
        <ele>1200.4945782691352</ele>
        <time>2021-07-14T23:00:05.998Z</time>
      </trkpt>
      <trkpt lat="42.62345552444458" lon="1.8227219581604004">
        <ele>1199.1441867301273</ele>
        <time>2021-07-14T23:00:17.872Z</time>
      </trkpt>
      <trkpt lat="42.62375593185425" lon="1.8233120441436768">
        <ele>1197.8801473586498</ele>
        <time>2021-07-14T23:00:29.754Z</time>
      </trkpt>
      <trkpt lat="42.62389540672302" lon="1.8235480785369873">
        <ele>1196.615872716385</ele>
        <time>2021-07-14T23:00:41.640Z</time>
      </trkpt>
      <trkpt lat="42.6239812374115" lon="1.8236446380615234">
        <ele>1195.2600709728367</ele>
        <time>2021-07-14T23:00:53.528Z</time>
      </trkpt>
      <trkpt lat="42.62419581413269" lon="1.8238270282745361">
        <ele>1193.8416558820888</ele>
        <time>2021-07-14T23:01:05.420Z</time>
      </trkpt>
      <trkpt lat="42.62441039085388" lon="1.8239772319793701">
        <ele>1192.3663168967987</ele>
        <time>2021-07-14T23:01:17.316Z</time>
      </trkpt>
      <trkpt lat="42.624603509902954" lon="1.8240737915039062">
        <ele>1190.8568203481068</ele>
        <time>2021-07-14T23:01:29.215Z</time>
      </trkpt>
      <trkpt lat="42.626309394836426" lon="1.8245887756347656">
        <ele>1188.7246005620705</ele>
        <time>2021-07-14T23:01:41.142Z</time>
      </trkpt>
      <trkpt lat="42.62652397155762" lon="1.8246746063232422">
        <ele>1187.235100747581</ele>
        <time>2021-07-14T23:01:53.072Z</time>
      </trkpt>
      <trkpt lat="42.62693166732788" lon="1.825028657913208">
        <ele>1185.7710026284162</ele>
        <time>2021-07-14T23:02:05.010Z</time>
      </trkpt>
      <trkpt lat="42.62747883796692" lon="1.8256616592407227">
        <ele>1184.3453294154506</ele>
        <time>2021-07-14T23:02:16.960Z</time>
      </trkpt>
      <trkpt lat="42.62763977050781" lon="1.825779676437378">
        <ele>1182.9009461929627</ele>
        <time>2021-07-14T23:02:28.913Z</time>
      </trkpt>
      <trkpt lat="42.62771495617926" lon="1.8258118629455566">
        <ele>1181.4349919168906</ele>
        <time>2021-07-14T23:02:40.867Z</time>
      </trkpt>
      <trkpt lat="42.62771487236023" lon="1.8258118629455566">
        <ele>1179.9634421609853</ele>
        <time>2021-07-14T23:02:52.821Z</time>
      </trkpt>
      <trkpt lat="42.627800703048706" lon="1.825854778289795">
        <ele>1178.47872898435</ele>
        <time>2021-07-14T23:03:04.776Z</time>
      </trkpt>
      <trkpt lat="42.62795090675354" lon="1.8258869647979736">
        <ele>1176.9337215515939</ele>
        <time>2021-07-14T23:03:16.734Z</time>
      </trkpt>
      <trkpt lat="42.62869119644165" lon="1.8258655071258545">
        <ele>1175.1127966040913</ele>
        <time>2021-07-14T23:03:28.704Z</time>
      </trkpt>
      <trkpt lat="42.62888431549072" lon="1.825876235961914">
        <ele>1173.5617953144806</ele>
        <time>2021-07-14T23:03:40.677Z</time>
      </trkpt>
      <trkpt lat="42.62917407788336" lon="1.8259084224700928">
        <ele>1171.9995342158777</ele>
        <time>2021-07-14T23:03:52.654Z</time>
      </trkpt>
      <trkpt lat="42.629560232162476" lon="1.825951337814331">
        <ele>1170.426409957001</ele>
        <time>2021-07-14T23:04:04.638Z</time>
      </trkpt>
      <trkpt lat="42.62971043586731" lon="1.825951337814331">
        <ele>1168.8180113647854</ele>
        <time>2021-07-14T23:04:16.624Z</time>
      </trkpt>
      <trkpt lat="42.62998938560486" lon="1.8258118629455566">
        <ele>1167.0277896061227</ele>
        <time>2021-07-14T23:04:28.615Z</time>
      </trkpt>
      <trkpt lat="42.63022541999817" lon="1.8257153034210205">
        <ele>1165.2824670161756</ele>
        <time>2021-07-14T23:04:40.610Z</time>
      </trkpt>
      <trkpt lat="42.630364978685975" lon="1.8256831169128418">
        <ele>1163.6162118197972</ele>
        <time>2021-07-14T23:04:52.607Z</time>
      </trkpt>
      <trkpt lat="42.630600929260254" lon="1.8256938457489014">
        <ele>1161.9215413914853</ele>
        <time>2021-07-14T23:05:04.608Z</time>
      </trkpt>
      <trkpt lat="42.63125547207892" lon="1.8258225917816162">
        <ele>1160.1824667007863</ele>
        <time>2021-07-14T23:05:16.619Z</time>
      </trkpt>
      <trkpt lat="42.631598711013794" lon="1.825801134109497">
        <ele>1158.3764536388603</ele>
        <time>2021-07-14T23:05:28.636Z</time>
      </trkpt>
      <trkpt lat="42.631856203079224" lon="1.825929880142212">
        <ele>1156.5524718826764</ele>
        <time>2021-07-14T23:05:40.657Z</time>
      </trkpt>
      <trkpt lat="42.632038593292236" lon="1.826080083847046">
        <ele>1154.7230625736117</ele>
        <time>2021-07-14T23:05:52.682Z</time>
      </trkpt>
      <trkpt lat="42.63215661048889" lon="1.8262088298797607">
        <ele>1152.908980538948</ele>
        <time>2021-07-14T23:06:04.709Z</time>
      </trkpt>
      <trkpt lat="42.632317543029785" lon="1.8264341354370117">
        <ele>1151.0941068088327</ele>
        <time>2021-07-14T23:06:16.740Z</time>
      </trkpt>
      <trkpt lat="42.63268232345581" lon="1.8269598484039307">
        <ele>1149.172726954726</ele>
        <time>2021-07-14T23:06:28.779Z</time>
      </trkpt>
      <trkpt lat="42.63287544250488" lon="1.8271636962890625">
        <ele>1147.222638972211</ele>
        <time>2021-07-14T23:06:40.822Z</time>
      </trkpt>
      <trkpt lat="42.633551359176636" lon="1.827775239944458">
        <ele>1145.0278085229252</ele>
        <time>2021-07-14T23:06:52.878Z</time>
      </trkpt>
      <trkpt lat="42.635064125061035" lon="1.8287408351898193">
        <ele>1142.7573863504952</ele>
        <time>2021-07-14T23:07:04.961Z</time>
      </trkpt>
      <trkpt lat="42.63524659909308" lon="1.8288373947143555">
        <ele>1140.7715486192246</ele>
        <time>2021-07-14T23:07:17.047Z</time>
      </trkpt>
      <trkpt lat="42.63542890548706" lon="1.8289339542388916">
        <ele>1138.7734139858717</ele>
        <time>2021-07-14T23:07:29.136Z</time>
      </trkpt>
      <trkpt lat="42.635836685076356" lon="1.8290841579437256">
        <ele>1136.6943295602468</ele>
        <time>2021-07-14T23:07:41.232Z</time>
      </trkpt>
      <trkpt lat="42.63624429702759" lon="1.8292236328125">
        <ele>1134.7129580754267</ele>
        <time>2021-07-14T23:07:53.335Z</time>
      </trkpt>
      <trkpt lat="42.63699531555176" lon="1.8295347690582275">
        <ele>1132.7209677700155</ele>
        <time>2021-07-14T23:08:05.450Z</time>
      </trkpt>
      <trkpt lat="42.63741374015808" lon="1.829674243927002">
        <ele>1130.7255181352991</ele>
        <time>2021-07-14T23:08:17.572Z</time>
      </trkpt>
      <trkpt lat="42.637939453125" lon="1.8298029899597168">
        <ele>1128.6966607162499</ele>
        <time>2021-07-14T23:08:29.703Z</time>
      </trkpt>
      <trkpt lat="42.63922691345215" lon="1.8300282955169678">
        <ele>1126.6118230446489</ele>
        <time>2021-07-14T23:08:41.854Z</time>
      </trkpt>
      <trkpt lat="42.639527320861816" lon="1.8301141262054443">
        <ele>1124.4942091931216</ele>
        <time>2021-07-14T23:08:54.010Z</time>
      </trkpt>
      <trkpt lat="42.63985991477966" lon="1.8302536010742188">
        <ele>1122.4160761470025</ele>
        <time>2021-07-14T23:09:06.172Z</time>
      </trkpt>
      <trkpt lat="42.64011740684509" lon="1.830371618270874">
        <ele>1120.3551958361945</ele>
        <time>2021-07-14T23:09:18.338Z</time>
      </trkpt>
      <trkpt lat="42.64038562774658" lon="1.8305325508117676">
        <ele>1118.3066089207296</ele>
        <time>2021-07-14T23:09:30.509Z</time>
      </trkpt>
      <trkpt lat="42.641844749450684" lon="1.8315517902374268">
        <ele>1116.0360866858446</ele>
        <time>2021-07-14T23:09:42.706Z</time>
      </trkpt>
      <trkpt lat="42.64223098754883" lon="1.8317663669586182">
        <ele>1114.013393684471</ele>
        <time>2021-07-14T23:09:54.910Z</time>
      </trkpt>
      <trkpt lat="42.6424241065979" lon="1.8318521976470947">
        <ele>1111.9819672033123</ele>
        <time>2021-07-14T23:10:07.117Z</time>
      </trkpt>
      <trkpt lat="42.642810344696045" lon="1.8319487571716309">
        <ele>1109.9929033406224</ele>
        <time>2021-07-14T23:10:19.330Z</time>
      </trkpt>
      <trkpt lat="42.643078565597534" lon="1.8319916725158691">
        <ele>1108.001989802694</ele>
        <time>2021-07-14T23:10:31.548Z</time>
      </trkpt>
      <trkpt lat="42.6453423500061" lon="1.8320560455322266">
        <ele>1105.6121356594276</ele>
        <time>2021-07-14T23:10:43.802Z</time>
      </trkpt>
      <trkpt lat="42.64564275741577" lon="1.8320775032043457">
        <ele>1103.544272157339</ele>
        <time>2021-07-14T23:10:56.061Z</time>
      </trkpt>
      <trkpt lat="42.64616847038269" lon="1.8321847915649414">
        <ele>1101.4421321951531</ele>
        <time>2021-07-14T23:11:08.328Z</time>
      </trkpt>
      <trkpt lat="42.64641523361206" lon="1.8322491645812988">
        <ele>1099.3902705084442</ele>
        <time>2021-07-14T23:11:20.599Z</time>
      </trkpt>
      <trkpt lat="42.64671564102173" lon="1.8323564529418945">
        <ele>1097.363578693003</ele>
        <time>2021-07-14T23:11:32.875Z</time>
      </trkpt>
      <trkpt lat="42.64718770980835" lon="1.8325817584991455">
        <ele>1095.373142030588</ele>
        <time>2021-07-14T23:11:45.159Z</time>
      </trkpt>
      <trkpt lat="42.64813184738159" lon="1.8331718444824219">
        <ele>1093.356272639991</ele>
        <time>2021-07-14T23:11:57.460Z</time>
      </trkpt>
      <trkpt lat="42.64899015426636" lon="1.83371901512146">
        <ele>1091.245952712205</ele>
        <time>2021-07-14T23:12:09.776Z</time>
      </trkpt>
      <trkpt lat="42.649816274642944" lon="1.834191083908081">
        <ele>1089.2629750930846</ele>
        <time>2021-07-14T23:12:22.106Z</time>
      </trkpt>
      <trkpt lat="42.65027769841254" lon="1.8344807624816895">
        <ele>1087.4345906739409</ele>
        <time>2021-07-14T23:12:34.445Z</time>
      </trkpt>
      <trkpt lat="42.65054591931403" lon="1.8346202373504639">
        <ele>1085.5854025201422</ele>
        <time>2021-07-14T23:12:46.788Z</time>
      </trkpt>
      <trkpt lat="42.650545835494995" lon="1.8346202373504639">
        <ele>1083.783741405111</ele>
        <time>2021-07-14T23:12:59.131Z</time>
      </trkpt>
      <trkpt lat="42.6508355140686" lon="1.8347275257110596">
        <ele>1082.0056070091289</ele>
        <time>2021-07-14T23:13:11.479Z</time>
      </trkpt>
      <trkpt lat="42.65244483947754" lon="1.8350708484649658">
        <ele>1080.198777099941</ele>
        <time>2021-07-14T23:13:23.853Z</time>
      </trkpt>
      <trkpt lat="42.65317440032959" lon="1.8349635601043701">
        <ele>1078.096961473597</ele>
        <time>2021-07-14T23:13:36.239Z</time>
      </trkpt>
      <trkpt lat="42.65370011329651" lon="1.8350279331207275">
        <ele>1076.3782507825767</ele>
        <time>2021-07-14T23:13:48.633Z</time>
      </trkpt>
      <trkpt lat="42.65383958816528" lon="1.8350279331207275">
        <ele>1074.7589107640297</ele>
        <time>2021-07-14T23:14:01.029Z</time>
      </trkpt>
      <trkpt lat="42.654268741607666" lon="1.8349742889404297">
        <ele>1073.0505650164916</ele>
        <time>2021-07-14T23:14:13.432Z</time>
      </trkpt>
      <trkpt lat="42.65449404716492" lon="1.8349742889404297">
        <ele>1071.4966019779595</ele>
        <time>2021-07-14T23:14:25.839Z</time>
      </trkpt>
      <trkpt lat="42.65465497970581" lon="1.8350279331207275">
        <ele>1070.0303821929174</ele>
        <time>2021-07-14T23:14:38.249Z</time>
      </trkpt>
      <trkpt lat="42.654826641082764" lon="1.835113763809204">
        <ele>1068.627256441578</ele>
        <time>2021-07-14T23:14:50.661Z</time>
      </trkpt>
      <trkpt lat="42.65494465827942" lon="1.8352210521697998">
        <ele>1067.3002253524428</ele>
        <time>2021-07-14T23:15:03.076Z</time>
      </trkpt>
      <trkpt lat="42.65514850616455" lon="1.8354785442352295">
        <ele>1066.0159425451238</ele>
        <time>2021-07-14T23:15:15.495Z</time>
      </trkpt>
      <trkpt lat="42.655287981033325" lon="1.8355751037597656">
        <ele>1064.7696148337354</ele>
        <time>2021-07-14T23:15:27.917Z</time>
      </trkpt>
      <trkpt lat="42.65541672706604" lon="1.835618019104004">
        <ele>1063.5814889387375</ele>
        <time>2021-07-14T23:15:40.341Z</time>
      </trkpt>
      <trkpt lat="42.65594244003296" lon="1.8357253074645996">
        <ele>1062.2974867996081</ele>
        <time>2021-07-14T23:15:52.773Z</time>
      </trkpt>
      <trkpt lat="42.65619993209839" lon="1.8356823921203613">
        <ele>1061.2137724707522</ele>
        <time>2021-07-14T23:16:05.209Z</time>
      </trkpt>
      <trkpt lat="42.65633940696716" lon="1.835693120956421">
        <ele>1060.2388037588262</ele>
        <time>2021-07-14T23:16:17.648Z</time>
      </trkpt>
      <trkpt lat="42.656489610672" lon="1.835768222808838">
        <ele>1059.3482541843077</ele>
        <time>2021-07-14T23:16:30.089Z</time>
      </trkpt>
      <trkpt lat="42.65669345855713" lon="1.8358540534973145">
        <ele>1058.5267439711051</ele>
        <time>2021-07-14T23:16:42.534Z</time>
      </trkpt>
      <trkpt lat="42.656854474917054" lon="1.8358755111694336">
        <ele>1057.8001730345568</ele>
        <time>2021-07-14T23:16:54.981Z</time>
      </trkpt>
      <trkpt lat="42.65712269581854" lon="1.8358433246612549">
        <ele>1057.127624968115</ele>
        <time>2021-07-14T23:17:07.433Z</time>
      </trkpt>
      <trkpt lat="42.65753039158881" lon="1.8358111381530762">
        <ele>1056.515927443032</ele>
        <time>2021-07-14T23:17:19.891Z</time>
      </trkpt>
      <trkpt lat="42.65814185142517" lon="1.8357467651367188">
        <ele>1055.917401666496</ele>
        <time>2021-07-14T23:17:32.359Z</time>
      </trkpt>
      <trkpt lat="42.65829213894904" lon="1.8357574939727783">
        <ele>1055.4579057421297</ele>
        <time>2021-07-14T23:17:44.829Z</time>
      </trkpt>
      <trkpt lat="42.65851744450629" lon="1.8358111381530762">
        <ele>1055.031944747473</ele>
        <time>2021-07-14T23:17:57.303Z</time>
      </trkpt>
      <trkpt lat="42.65938639640808" lon="1.8361544609069824">
        <ele>1054.5349903476174</ele>
        <time>2021-07-14T23:18:09.791Z</time>
      </trkpt>
      <trkpt lat="42.66018041409552" lon="1.8365192413330078">
        <ele>1054.168429730587</ele>
        <time>2021-07-14T23:18:22.293Z</time>
      </trkpt>
      <trkpt lat="42.66064175404608" lon="1.8366050720214844">
        <ele>1053.9231526260892</ele>
        <time>2021-07-14T23:18:34.802Z</time>
      </trkpt>
      <trkpt lat="42.661027908325195" lon="1.836615800857544">
        <ele>1053.8328614288066</ele>
        <time>2021-07-14T23:18:47.318Z</time>
      </trkpt>
      <trkpt lat="42.66115665435791" lon="1.8365836143493652">
        <ele>1053.7031894931793</ele>
        <time>2021-07-14T23:18:59.836Z</time>
      </trkpt>
      <trkpt lat="42.66133904457092" lon="1.8364977836608887">
        <ele>1053.6226149173422</ele>
        <time>2021-07-14T23:19:12.357Z</time>
      </trkpt>
      <trkpt lat="42.66197204589844" lon="1.8360471725463867">
        <ele>1053.7282206324178</ele>
        <time>2021-07-14T23:19:24.889Z</time>
      </trkpt>
      <trkpt lat="42.66216516494751" lon="1.8359291553497314">
        <ele>1053.6186810114</ele>
        <time>2021-07-14T23:19:37.425Z</time>
      </trkpt>
      <trkpt lat="42.662755250930786" lon="1.8356502056121826">
        <ele>1053.6810616605298</ele>
        <time>2021-07-14T23:19:49.971Z</time>
      </trkpt>
      <trkpt lat="42.66313076019287" lon="1.8353605270385742">
        <ele>1053.9755880743364</ele>
        <time>2021-07-14T23:20:02.523Z</time>
      </trkpt>
      <trkpt lat="42.66322731971741" lon="1.8353068828582764">
        <ele>1053.9356872252638</ele>
        <time>2021-07-14T23:20:15.077Z</time>
      </trkpt>
      <trkpt lat="42.66335606575012" lon="1.8352854251861572">
        <ele>1053.9418225727024</ele>
        <time>2021-07-14T23:20:27.633Z</time>
      </trkpt>
      <trkpt lat="42.66345262527466" lon="1.835242509841919">
        <ele>1054.0070848822775</ele>
        <time>2021-07-14T23:20:40.191Z</time>
      </trkpt>
      <trkpt lat="42.663527727127075" lon="1.8351781368255615">
        <ele>1053.98366883663</ele>
        <time>2021-07-14T23:20:52.750Z</time>
      </trkpt>
      <trkpt lat="42.66357064247131" lon="1.8350815773010254">
        <ele>1053.8082264369268</ele>
        <time>2021-07-14T23:21:05.311Z</time>
      </trkpt>
      <trkpt lat="42.66360282897949" lon="1.8349850177764893">
        <ele>1053.4686214146345</ele>
        <time>2021-07-14T23:21:17.873Z</time>
      </trkpt>
      <trkpt lat="42.663602912798524" lon="1.8348455429077148">
        <ele>1053.086794344708</ele>
        <time>2021-07-14T23:21:30.436Z</time>
      </trkpt>
      <trkpt lat="42.66360282897949" lon="1.8348455429077148">
        <ele>1052.8635791477807</ele>
        <time>2021-07-14T23:21:42.999Z</time>
      </trkpt>
      <trkpt lat="42.663602912798524" lon="1.834566593170166">
        <ele>1052.73714410132</ele>
        <time>2021-07-14T23:21:55.566Z</time>
      </trkpt>
      <trkpt lat="42.66362437047064" lon="1.8344593048095703">
        <ele>1052.478941200748</ele>
        <time>2021-07-14T23:22:08.134Z</time>
      </trkpt>
      <trkpt lat="42.66366720199585" lon="1.8343734741210938">
        <ele>1052.1637876587588</ele>
        <time>2021-07-14T23:22:20.703Z</time>
      </trkpt>
      <trkpt lat="42.663774490356445" lon="1.834244728088379">
        <ele>1051.5800443690346</ele>
        <time>2021-07-14T23:22:33.275Z</time>
      </trkpt>
      <trkpt lat="42.66408562660217" lon="1.8339979648590088">
        <ele>1050.835012668747</ele>
        <time>2021-07-14T23:22:45.852Z</time>
      </trkpt>
      <trkpt lat="42.66442894935608" lon="1.833815574645996">
        <ele>1050.2871622152502</ele>
        <time>2021-07-14T23:22:58.435Z</time>
      </trkpt>
      <trkpt lat="42.66469717025757" lon="1.8337512016296387">
        <ele>1049.6130236304182</ele>
        <time>2021-07-14T23:23:11.023Z</time>
      </trkpt>
      <trkpt lat="42.66492247581482" lon="1.8337297439575195">
        <ele>1048.911603392726</ele>
        <time>2021-07-14T23:23:23.614Z</time>
      </trkpt>
      <trkpt lat="42.66511559486389" lon="1.8337619304656982">
        <ele>1048.0525288075264</ele>
        <time>2021-07-14T23:23:36.208Z</time>
      </trkpt>
      <trkpt lat="42.665308713912964" lon="1.833815574645996">
        <ele>1047.0633564759141</ele>
        <time>2021-07-14T23:23:48.805Z</time>
      </trkpt>
      <trkpt lat="42.665501832962036" lon="1.8339228630065918">
        <ele>1045.9398729701884</ele>
        <time>2021-07-14T23:24:01.406Z</time>
      </trkpt>
      <trkpt lat="42.66569495201111" lon="1.8340623378753662">
        <ele>1044.7198274468828</ele>
        <time>2021-07-14T23:24:14.010Z</time>
      </trkpt>
      <trkpt lat="42.66588807106018" lon="1.834244728088379">
        <ele>1043.6202974924781</ele>
        <time>2021-07-14T23:24:26.618Z</time>
      </trkpt>
      <trkpt lat="42.666049003601074" lon="1.8344700336456299">
        <ele>1042.445518774022</ele>
        <time>2021-07-14T23:24:39.230Z</time>
      </trkpt>
      <trkpt lat="42.66622074879706" lon="1.8347275257110596">
        <ele>1041.209819657343</ele>
        <time>2021-07-14T23:24:51.846Z</time>
      </trkpt>
      <trkpt lat="42.66622066497803" lon="1.8347275257110596">
        <ele>1039.9554277825441</ele>
        <time>2021-07-14T23:25:04.462Z</time>
      </trkpt>
      <trkpt lat="42.66637086868286" lon="1.8349635601043701">
        <ele>1038.6080557490204</ele>
        <time>2021-07-14T23:25:17.082Z</time>
      </trkpt>
      <trkpt lat="42.666531801223755" lon="1.8351566791534424">
        <ele>1037.190999728475</ele>
        <time>2021-07-14T23:25:29.705Z</time>
      </trkpt>
      <trkpt lat="42.66660690307617" lon="1.8351995944976807">
        <ele>1035.734494310682</ele>
        <time>2021-07-14T23:25:42.329Z</time>
      </trkpt>
      <trkpt lat="42.66672500409186" lon="1.8352103233337402">
        <ele>1034.2019194791033</ele>
        <time>2021-07-14T23:25:54.955Z</time>
      </trkpt>
      <trkpt lat="42.6672721747309" lon="1.8350708484649658">
        <ele>1032.6998713727824</ele>
        <time>2021-07-14T23:26:07.590Z</time>
      </trkpt>
      <trkpt lat="42.66740083694458" lon="1.8350601196289062">
        <ele>1031.149023942998</ele>
        <time>2021-07-14T23:26:20.227Z</time>
      </trkpt>
      <trkpt lat="42.667529582977295" lon="1.835092306137085">
        <ele>1029.527524647785</ele>
        <time>2021-07-14T23:26:32.866Z</time>
      </trkpt>
      <trkpt lat="42.667808532714844" lon="1.835242509841919">
        <ele>1027.669845970755</ele>
        <time>2021-07-14T23:26:45.510Z</time>
      </trkpt>
      <trkpt lat="42.66795873641968" lon="1.8352961540222168">
        <ele>1025.8764974047601</ele>
        <time>2021-07-14T23:26:58.157Z</time>
      </trkpt>
      <trkpt lat="42.66869902610779" lon="1.835339069366455">
        <ele>1024.1477112648927</ele>
        <time>2021-07-14T23:27:10.815Z</time>
      </trkpt>
      <trkpt lat="42.669492959976196" lon="1.8355000019073486">
        <ele>1021.8541633887696</ele>
        <time>2021-07-14T23:27:23.486Z</time>
      </trkpt>
      <trkpt lat="42.669782722368836" lon="1.8355214595794678">
        <ele>1019.8880627259289</ele>
        <time>2021-07-14T23:27:36.162Z</time>
      </trkpt>
      <trkpt lat="42.67013669013977" lon="1.8355214595794678">
        <ele>1018.0669565005818</ele>
        <time>2021-07-14T23:27:48.844Z</time>
      </trkpt>
      <trkpt lat="42.670340621843934" lon="1.835564374923706">
        <ele>1016.1163287422353</ele>
        <time>2021-07-14T23:28:01.529Z</time>
      </trkpt>
      <trkpt lat="42.67068386077881" lon="1.8356823921203613">
        <ele>1014.0249587016424</ele>
        <time>2021-07-14T23:28:14.220Z</time>
      </trkpt>
      <trkpt lat="42.67083406448364" lon="1.8357038497924805">
        <ele>1012.0815144152291</ele>
        <time>2021-07-14T23:28:26.913Z</time>
      </trkpt>
      <trkpt lat="42.67096281051636" lon="1.835693120956421">
        <ele>1010.128101657918</ele>
        <time>2021-07-14T23:28:39.608Z</time>
      </trkpt>
      <trkpt lat="42.67143487930298" lon="1.8355965614318848">
        <ele>1008.1539380331204</ele>
        <time>2021-07-14T23:28:52.311Z</time>
      </trkpt>
      <trkpt lat="42.67162799835205" lon="1.8355858325958252">
        <ele>1006.1422469866432</ele>
        <time>2021-07-14T23:29:05.017Z</time>
      </trkpt>
      <trkpt lat="42.67344117164612" lon="1.8358969688415527">
        <ele>1003.7979566709587</ele>
        <time>2021-07-14T23:29:17.752Z</time>
      </trkpt>
      <trkpt lat="42.673548460006714" lon="1.8358969688415527">
        <ele>1001.8985994903835</ele>
        <time>2021-07-14T23:29:30.489Z</time>
      </trkpt>
      <trkpt lat="42.67365574836731" lon="1.8358755111694336">
        <ele>999.9302433250627</ele>
        <time>2021-07-14T23:29:43.227Z</time>
      </trkpt>
      <trkpt lat="42.673784494400024" lon="1.8358004093170166">
        <ele>997.9283081580718</ele>
        <time>2021-07-14T23:29:55.968Z</time>
      </trkpt>
      <trkpt lat="42.67440685071051" lon="1.835317611694336">
        <ele>996.0489393418436</ele>
        <time>2021-07-14T23:30:08.720Z</time>
      </trkpt>
      <trkpt lat="42.67456769943237" lon="1.8351995944976807">
        <ele>994.2845812549006</ele>
        <time>2021-07-14T23:30:21.475Z</time>
      </trkpt>
      <trkpt lat="42.67472863197327" lon="1.8351244926452637">
        <ele>992.4347825339898</ele>
        <time>2021-07-14T23:30:34.233Z</time>
      </trkpt>
      <trkpt lat="42.675007581710815" lon="1.8350815773010254">
        <ele>990.538843330986</ele>
        <time>2021-07-14T23:30:46.995Z</time>
      </trkpt>
      <trkpt lat="42.67515778541565" lon="1.8351030349731445">
        <ele>988.794866543072</ele>
        <time>2021-07-14T23:30:59.760Z</time>
      </trkpt>
      <trkpt lat="42.67558693885803" lon="1.8352746963500977">
        <ele>987.0069385198051</ele>
        <time>2021-07-14T23:31:12.532Z</time>
      </trkpt>
      <trkpt lat="42.67571568489075" lon="1.8353068828582764">
        <ele>985.3293290444259</ele>
        <time>2021-07-14T23:31:25.306Z</time>
      </trkpt>
      <trkpt lat="42.67593034543097" lon="1.8353068828582764">
        <ele>983.6787222703954</ele>
        <time>2021-07-14T23:31:38.083Z</time>
      </trkpt>
      <trkpt lat="42.67593026161194" lon="1.8353068828582764">
        <ele>982.098317685344</ele>
        <time>2021-07-14T23:31:50.860Z</time>
      </trkpt>
      <trkpt lat="42.67612338066101" lon="1.8352317810058594">
        <ele>980.5395507265364</ele>
        <time>2021-07-14T23:32:03.641Z</time>
      </trkpt>
      <trkpt lat="42.676262855529785" lon="1.8351459503173828">
        <ele>978.9482357458701</ele>
        <time>2021-07-14T23:32:16.424Z</time>
      </trkpt>
      <trkpt lat="42.676498889923096" lon="1.8349528312683105">
        <ele>977.2543988761798</ele>
        <time>2021-07-14T23:32:29.211Z</time>
      </trkpt>
      <trkpt lat="42.676810109987855" lon="1.8346524238586426">
        <ele>975.892791237151</ele>
        <time>2021-07-14T23:32:42.005Z</time>
      </trkpt>
      <trkpt lat="42.676820838823915" lon="1.8346309661865234">
        <ele>974.4694503904539</ele>
        <time>2021-07-14T23:32:54.799Z</time>
      </trkpt>
      <trkpt lat="42.67696022987366" lon="1.8344700336456299">
        <ele>973.2387212889078</ele>
        <time>2021-07-14T23:33:07.596Z</time>
      </trkpt>
      <trkpt lat="42.67759323120117" lon="1.8335044384002686">
        <ele>971.4504224085985</ele>
        <time>2021-07-14T23:33:20.408Z</time>
      </trkpt>
      <trkpt lat="42.678000926971436" lon="1.8330001831054688">
        <ele>970.2207099910893</ele>
        <time>2021-07-14T23:33:33.229Z</time>
      </trkpt>
      <trkpt lat="42.67818331718445" lon="1.8326890468597412">
        <ele>968.6590439882236</ele>
        <time>2021-07-14T23:33:46.055Z</time>
      </trkpt>
      <trkpt lat="42.67894506454468" lon="1.8312406539916992">
        <ele>967.7252744312927</ele>
        <time>2021-07-14T23:33:58.902Z</time>
      </trkpt>
      <trkpt lat="42.67910599708557" lon="1.830993890762329">
        <ele>965.8618890604931</ele>
        <time>2021-07-14T23:34:11.752Z</time>
      </trkpt>
      <trkpt lat="42.679256200790405" lon="1.830822229385376">
        <ele>964.3621113772964</ele>
        <time>2021-07-14T23:34:24.606Z</time>
      </trkpt>
      <trkpt lat="42.67946004867554" lon="1.8306612968444824">
        <ele>963.0960678353792</ele>
        <time>2021-07-14T23:34:37.463Z</time>
      </trkpt>
      <trkpt lat="42.68040418624878" lon="1.8299853801727295">
        <ele>961.6526401248309</ele>
        <time>2021-07-14T23:34:50.337Z</time>
      </trkpt>
      <trkpt lat="42.68055438995361" lon="1.8297922611236572">
        <ele>960.3821521144583</ele>
        <time>2021-07-14T23:35:03.215Z</time>
      </trkpt>
      <trkpt lat="42.680779695510864" lon="1.829448938369751">
        <ele>959.1377473208463</ele>
        <time>2021-07-14T23:35:16.098Z</time>
      </trkpt>
      <trkpt lat="42.68090844154358" lon="1.8293094635009766">
        <ele>957.8340231736327</ele>
        <time>2021-07-14T23:35:28.984Z</time>
      </trkpt>
      <trkpt lat="42.6813268661499" lon="1.828998327255249">
        <ele>956.2886895885803</ele>
        <time>2021-07-14T23:35:41.877Z</time>
      </trkpt>
      <trkpt lat="42.681766748428345" lon="1.8287193775177002">
        <ele>954.9609806630831</ele>
        <time>2021-07-14T23:35:54.778Z</time>
      </trkpt>
      <trkpt lat="42.68185257911682" lon="1.828622817993164">
        <ele>953.9931070388545</ele>
        <time>2021-07-14T23:36:07.681Z</time>
      </trkpt>
      <trkpt lat="42.6819384098053" lon="1.8285048007965088">
        <ele>953.0716605535707</ele>
        <time>2021-07-14T23:36:20.586Z</time>
      </trkpt>
      <trkpt lat="42.68214225769043" lon="1.8280434608459473">
        <ele>951.7807579818982</ele>
        <time>2021-07-14T23:36:33.497Z</time>
      </trkpt>
      <trkpt lat="42.682238817214966" lon="1.8279039859771729">
        <ele>950.8336110763046</ele>
        <time>2021-07-14T23:36:46.411Z</time>
      </trkpt>
      <trkpt lat="42.6828932762146" lon="1.8272924423217773">
        <ele>949.446303997579</ele>
        <time>2021-07-14T23:36:59.337Z</time>
      </trkpt>
      <trkpt lat="42.683011293411255" lon="1.8272066116333008">
        <ele>948.5757552104285</ele>
        <time>2021-07-14T23:37:12.265Z</time>
      </trkpt>
      <trkpt lat="42.68316158093512" lon="1.8271422386169434">
        <ele>947.7005729178006</ele>
        <time>2021-07-14T23:37:25.196Z</time>
      </trkpt>
      <trkpt lat="42.68350490368903" lon="1.827002763748169">
        <ele>947.1170586893516</ele>
        <time>2021-07-14T23:37:38.133Z</time>
      </trkpt>
      <trkpt lat="42.6835907343775" lon="1.8269383907318115">
        <ele>946.5847360416976</ele>
        <time>2021-07-14T23:37:51.071Z</time>
      </trkpt>
      <trkpt lat="42.68363356590271" lon="1.826874017715454">
        <ele>945.9719708216777</ele>
        <time>2021-07-14T23:38:04.010Z</time>
      </trkpt>
      <trkpt lat="42.68369793891907" lon="1.826777458190918">
        <ele>945.2908211180435</ele>
        <time>2021-07-14T23:38:16.951Z</time>
      </trkpt>
      <trkpt lat="42.684245109558105" lon="1.8248462677001953">
        <ele>943.6586234885194</ele>
        <time>2021-07-14T23:38:29.916Z</time>
      </trkpt>
      <trkpt lat="42.68442749977112" lon="1.824331283569336">
        <ele>943.4515032185661</ele>
        <time>2021-07-14T23:38:42.888Z</time>
      </trkpt>
      <trkpt lat="42.684513330459595" lon="1.8241488933563232">
        <ele>942.6431926304881</ele>
        <time>2021-07-14T23:38:55.863Z</time>
      </trkpt>
      <trkpt lat="42.68458843231201" lon="1.824030876159668">
        <ele>941.9549025077829</ele>
        <time>2021-07-14T23:39:08.839Z</time>
      </trkpt>
      <trkpt lat="42.68466353416443" lon="1.823955774307251">
        <ele>941.5200276477271</ele>
        <time>2021-07-14T23:39:21.817Z</time>
      </trkpt>
      <trkpt lat="42.684760093688965" lon="1.8238914012908936">
        <ele>941.1020005679709</ele>
        <time>2021-07-14T23:39:34.797Z</time>
      </trkpt>
      <trkpt lat="42.68510341644287" lon="1.8237411975860596">
        <ele>940.465276834474</ele>
        <time>2021-07-14T23:39:47.782Z</time>
      </trkpt>
      <trkpt lat="42.685779333114624" lon="1.823258399963379">
        <ele>939.6377206452636</ele>
        <time>2021-07-14T23:40:00.780Z</time>
      </trkpt>
      <trkpt lat="42.68594026565552" lon="1.8231618404388428">
        <ele>939.1270259835251</ele>
        <time>2021-07-14T23:40:13.780Z</time>
      </trkpt>
      <trkpt lat="42.686079824343324" lon="1.8231189250946045">
        <ele>938.7020567543877</ele>
        <time>2021-07-14T23:40:26.783Z</time>
      </trkpt>
      <trkpt lat="42.68618711270392" lon="1.8230974674224854">
        <ele>938.2781964138302</ele>
        <time>2021-07-14T23:40:39.787Z</time>
      </trkpt>
      <trkpt lat="42.686272859573364" lon="1.8230974674224854">
        <ele>937.8458090592876</ele>
        <time>2021-07-14T23:40:52.793Z</time>
      </trkpt>
      <trkpt lat="42.68643387593329" lon="1.8231403827667236">
        <ele>937.3456564294139</ele>
        <time>2021-07-14T23:41:05.801Z</time>
      </trkpt>
      <trkpt lat="42.68663763999939" lon="1.823258399963379">
        <ele>936.874587882146</ele>
        <time>2021-07-14T23:41:18.813Z</time>
      </trkpt>
      <trkpt lat="42.686744928359985" lon="1.8233764171600342">
        <ele>936.6085424110438</ele>
        <time>2021-07-14T23:41:31.827Z</time>
      </trkpt>
      <trkpt lat="42.6868200302124" lon="1.823505163192749">
        <ele>936.3042304520693</ele>
        <time>2021-07-14T23:41:44.843Z</time>
      </trkpt>
      <trkpt lat="42.68708825111389" lon="1.8240201473236084">
        <ele>936.4825994732568</ele>
        <time>2021-07-14T23:41:57.867Z</time>
      </trkpt>
      <trkpt lat="42.68717408180237" lon="1.8242454528808594">
        <ele>936.0964993941856</ele>
        <time>2021-07-14T23:42:10.894Z</time>
      </trkpt>
      <trkpt lat="42.687249183654785" lon="1.8243849277496338">
        <ele>935.5188262485248</ele>
        <time>2021-07-14T23:42:23.923Z</time>
      </trkpt>
      <trkpt lat="42.68734574317932" lon="1.8244922161102295">
        <ele>934.7840213086861</ele>
        <time>2021-07-14T23:42:36.954Z</time>
      </trkpt>
      <trkpt lat="42.68745303153992" lon="1.824578046798706">
        <ele>933.9222035302396</ele>
        <time>2021-07-14T23:42:49.987Z</time>
      </trkpt>
      <trkpt lat="42.687560403719544" lon="1.8246102333068848">
        <ele>932.9164322643238</ele>
        <time>2021-07-14T23:43:03.021Z</time>
      </trkpt>
      <trkpt lat="42.68764615058899" lon="1.8245995044708252">
        <ele>931.8302540011688</ele>
        <time>2021-07-14T23:43:16.057Z</time>
      </trkpt>
      <trkpt lat="42.687721252441406" lon="1.8245673179626465">
        <ele>930.6536782146327</ele>
        <time>2021-07-14T23:43:29.094Z</time>
      </trkpt>
      <trkpt lat="42.68788226880133" lon="1.8243956565856934">
        <ele>929.0800924384707</ele>
        <time>2021-07-14T23:43:42.134Z</time>
      </trkpt>
      <trkpt lat="42.687978744506836" lon="1.8243205547332764">
        <ele>927.8612706053959</ele>
        <time>2021-07-14T23:43:55.176Z</time>
      </trkpt>
      <trkpt lat="42.68808603286743" lon="1.824277639389038">
        <ele>926.5733108848535</ele>
        <time>2021-07-14T23:44:08.220Z</time>
      </trkpt>
      <trkpt lat="42.68818259239197" lon="1.8242669105529785">
        <ele>925.2307881763622</ele>
        <time>2021-07-14T23:44:21.265Z</time>
      </trkpt>
      <trkpt lat="42.688525915145874" lon="1.8242883682250977">
        <ele>923.7007239013624</ele>
        <time>2021-07-14T23:44:34.316Z</time>
      </trkpt>
      <trkpt lat="42.68862247467041" lon="1.8243098258972168">
        <ele>922.2470842575149</ele>
        <time>2021-07-14T23:44:47.368Z</time>
      </trkpt>
      <trkpt lat="42.68980264663696" lon="1.8249320983886719">
        <ele>920.6112584852824</ele>
        <time>2021-07-14T23:45:00.441Z</time>
      </trkpt>
      <trkpt lat="42.69033908843994" lon="1.8251252174377441">
        <ele>919.0114220899732</ele>
        <time>2021-07-14T23:45:13.523Z</time>
      </trkpt>
      <trkpt lat="42.69063949584961" lon="1.8252003192901611">
        <ele>917.5004632895677</ele>
        <time>2021-07-14T23:45:26.609Z</time>
      </trkpt>
      <trkpt lat="42.69105792045593" lon="1.8252003192901611">
        <ele>915.8797695381597</ele>
        <time>2021-07-14T23:45:39.702Z</time>
      </trkpt>
      <trkpt lat="42.691465616226196" lon="1.8252754211425781">
        <ele>914.170255572219</ele>
        <time>2021-07-14T23:45:52.802Z</time>
      </trkpt>
      <trkpt lat="42.69155144691467" lon="1.8253397941589355">
        <ele>912.409982654283</ele>
        <time>2021-07-14T23:46:05.903Z</time>
      </trkpt>
      <trkpt lat="42.69163727760315" lon="1.8254578113555908">
        <ele>910.515185251514</ele>
        <time>2021-07-14T23:46:19.006Z</time>
      </trkpt>
      <trkpt lat="42.69168027676642" lon="1.8256187438964844">
        <ele>908.4891998659361</ele>
        <time>2021-07-14T23:46:32.111Z</time>
      </trkpt>
      <trkpt lat="42.69169100560248" lon="1.8259727954864502">
        <ele>906.7907940527449</ele>
        <time>2021-07-14T23:46:45.220Z</time>
      </trkpt>
      <trkpt lat="42.691712379455566" lon="1.826101541519165">
        <ele>905.0935128852226</ele>
        <time>2021-07-14T23:46:58.331Z</time>
      </trkpt>
      <trkpt lat="42.691755294799805" lon="1.8262302875518799">
        <ele>903.3279956952965</ele>
        <time>2021-07-14T23:47:11.444Z</time>
      </trkpt>
      <trkpt lat="42.69184112548828" lon="1.8263375759124756">
        <ele>901.4476146666752</ele>
        <time>2021-07-14T23:47:24.559Z</time>
      </trkpt>
      <trkpt lat="42.692484855651855" lon="1.8269169330596924">
        <ele>898.8447621136626</ele>
        <time>2021-07-14T23:47:37.686Z</time>
      </trkpt>
      <trkpt lat="42.69255995750427" lon="1.8270134925842285">
        <ele>896.8868188519011</ele>
        <time>2021-07-14T23:47:50.815Z</time>
      </trkpt>
      <trkpt lat="42.69261360168457" lon="1.8271422386169434">
        <ele>894.9855786738801</ele>
        <time>2021-07-14T23:48:03.945Z</time>
      </trkpt>
      <trkpt lat="42.69263505935669" lon="1.8272709846496582">
        <ele>893.0833699323284</ele>
        <time>2021-07-14T23:48:17.077Z</time>
      </trkpt>
      <trkpt lat="42.69263505935669" lon="1.8274104595184326">
        <ele>891.1674796745796</ele>
        <time>2021-07-14T23:48:30.210Z</time>
      </trkpt>
      <trkpt lat="42.69261360168457" lon="1.8275606632232666">
        <ele>889.1629090150458</ele>
        <time>2021-07-14T23:48:43.345Z</time>
      </trkpt>
      <trkpt lat="42.69255995750427" lon="1.8277430534362793">
        <ele>887.10121009504</ele>
        <time>2021-07-14T23:48:56.483Z</time>
      </trkpt>
      <trkpt lat="42.69220590591431" lon="1.8286442756652832">
        <ele>885.3974930000791</ele>
        <time>2021-07-14T23:49:09.633Z</time>
      </trkpt>
      <trkpt lat="42.69212007522583" lon="1.8289446830749512">
        <ele>883.313253496623</ele>
        <time>2021-07-14T23:49:22.786Z</time>
      </trkpt>
      <trkpt lat="42.692023515701294" lon="1.829448938369751">
        <ele>881.27376410374</ele>
        <time>2021-07-14T23:49:35.946Z</time>
      </trkpt>
      <trkpt lat="42.692012786865234" lon="1.8297600746154785">
        <ele>879.046429621977</ele>
        <time>2021-07-14T23:49:49.109Z</time>
      </trkpt>
      <trkpt lat="42.69203424453735" lon="1.8305110931396484">
        <ele>876.7101298347964</ele>
        <time>2021-07-14T23:50:02.281Z</time>
      </trkpt>
      <trkpt lat="42.69206643104553" lon="1.8307149410247803">
        <ele>874.4853831104767</ele>
        <time>2021-07-14T23:50:15.456Z</time>
      </trkpt>
      <trkpt lat="42.69210934638977" lon="1.8308651447296143">
        <ele>872.3378061796893</ele>
        <time>2021-07-14T23:50:28.633Z</time>
      </trkpt>
      <trkpt lat="42.69218444824219" lon="1.8310368061065674">
        <ele>870.1402769596839</ele>
        <time>2021-07-14T23:50:41.812Z</time>
      </trkpt>
      <trkpt lat="42.692248821258545" lon="1.8311548233032227">
        <ele>867.9246273390755</ele>
        <time>2021-07-14T23:50:54.993Z</time>
      </trkpt>
      <trkpt lat="42.69234538078308" lon="1.8312621116638184">
        <ele>865.6497267088776</ele>
        <time>2021-07-14T23:51:08.176Z</time>
      </trkpt>
      <trkpt lat="42.69464135169983" lon="1.8332791328430176">
        <ele>862.8814577345101</ele>
        <time>2021-07-14T23:51:21.402Z</time>
      </trkpt>
      <trkpt lat="42.694748640060425" lon="1.8333649635314941">
        <ele>860.6785114127439</ele>
        <time>2021-07-14T23:51:34.630Z</time>
      </trkpt>
      <trkpt lat="42.6955855730921" lon="1.8338048458099365">
        <ele>858.1544972597874</ele>
        <time>2021-07-14T23:51:47.873Z</time>
      </trkpt>
      <trkpt lat="42.69558548927307" lon="1.8338048458099365">
        <ele>855.9550238768647</ele>
        <time>2021-07-14T23:52:01.116Z</time>
      </trkpt>
      <trkpt lat="42.69703388214111" lon="1.8345344066619873">
        <ele>853.7026444157841</ele>
        <time>2021-07-14T23:52:14.383Z</time>
      </trkpt>
      <trkpt lat="42.697269916534424" lon="1.8345880508422852">
        <ele>851.5041078466572</ele>
        <time>2021-07-14T23:52:27.654Z</time>
      </trkpt>
      <trkpt lat="42.69842863082886" lon="1.8346953392028809">
        <ele>849.3624261871109</ele>
        <time>2021-07-14T23:52:40.944Z</time>
      </trkpt>
      <trkpt lat="42.69866466522217" lon="1.8346846103668213">
        <ele>847.2288398453292</ele>
        <time>2021-07-14T23:52:54.238Z</time>
      </trkpt>
      <trkpt lat="42.69883632659912" lon="1.834641695022583">
        <ele>845.0417834590774</ele>
        <time>2021-07-14T23:53:07.534Z</time>
      </trkpt>
      <trkpt lat="42.69905090332031" lon="1.8345558643341064">
        <ele>842.767804252629</ele>
        <time>2021-07-14T23:53:20.834Z</time>
      </trkpt>
      <trkpt lat="42.699501514434814" lon="1.8343734741210938">
        <ele>840.3055645323194</ele>
        <time>2021-07-14T23:53:34.142Z</time>
      </trkpt>
      <trkpt lat="42.700038040056825" lon="1.8342769145965576">
        <ele>838.0684060842291</ele>
        <time>2021-07-14T23:53:47.458Z</time>
      </trkpt>
      <trkpt lat="42.70042427815497" lon="1.8342018127441406">
        <ele>835.7799866239675</ele>
        <time>2021-07-14T23:54:00.780Z</time>
      </trkpt>
      <trkpt lat="42.70057439804077" lon="1.8342018127441406">
        <ele>833.6672977174205</ele>
        <time>2021-07-14T23:54:14.105Z</time>
      </trkpt>
      <trkpt lat="42.700724601745605" lon="1.8342339992523193">
        <ele>831.5962105827161</ele>
        <time>2021-07-14T23:54:27.432Z</time>
      </trkpt>
      <trkpt lat="42.70182975567877" lon="1.8346309661865234">
        <ele>829.2742162252357</ele>
        <time>2021-07-14T23:54:40.778Z</time>
      </trkpt>
      <trkpt lat="42.702044332399964" lon="1.8347060680389404">
        <ele>827.1336770281974</ele>
        <time>2021-07-14T23:54:54.127Z</time>
      </trkpt>
      <trkpt lat="42.70232319831848" lon="1.8348026275634766">
        <ele>824.9959588774316</ele>
        <time>2021-07-14T23:55:07.481Z</time>
      </trkpt>
      <trkpt lat="42.702999114990234" lon="1.8349742889404297">
        <ele>822.7085456679747</ele>
        <time>2021-07-14T23:55:20.846Z</time>
      </trkpt>
      <trkpt lat="42.70339608192444" lon="1.835113763809204">
        <ele>820.5998877106438</ele>
        <time>2021-07-14T23:55:34.217Z</time>
      </trkpt>
      <trkpt lat="42.704726457595825" lon="1.836090087890625">
        <ele>818.3568978748274</ele>
        <time>2021-07-14T23:55:47.612Z</time>
      </trkpt>
      <trkpt lat="42.70489811897278" lon="1.8362617492675781">
        <ele>816.4326067459508</ele>
        <time>2021-07-14T23:56:01.011Z</time>
      </trkpt>
      <trkpt lat="42.70511269569397" lon="1.8365299701690674">
        <ele>814.6091363063357</ele>
        <time>2021-07-14T23:56:14.415Z</time>
      </trkpt>
      <trkpt lat="42.705198526382446" lon="1.8365943431854248">
        <ele>812.7557375082176</ele>
        <time>2021-07-14T23:56:27.820Z</time>
      </trkpt>
      <trkpt lat="42.70593881607056" lon="1.8368196487426758">
        <ele>810.6043695805911</ele>
        <time>2021-07-14T23:56:41.237Z</time>
      </trkpt>
      <trkpt lat="42.70609974861145" lon="1.8368303775787354">
        <ele>808.8433221221621</ele>
        <time>2021-07-14T23:56:54.657Z</time>
      </trkpt>
      <trkpt lat="42.70618557929993" lon="1.8368089199066162">
        <ele>807.0946674341196</ele>
        <time>2021-07-14T23:57:08.078Z</time>
      </trkpt>
      <trkpt lat="42.706743478775024" lon="1.836540699005127">
        <ele>805.1153951698045</ele>
        <time>2021-07-14T23:57:21.509Z</time>
      </trkpt>
      <trkpt lat="42.70687222480774" lon="1.8365192413330078">
        <ele>803.4391494792656</ele>
        <time>2021-07-14T23:57:34.942Z</time>
      </trkpt>
      <trkpt lat="42.70704388618469" lon="1.8365299701690674">
        <ele>801.8152601194979</ele>
        <time>2021-07-14T23:57:48.377Z</time>
      </trkpt>
      <trkpt lat="42.70706534385681" lon="1.8365728855133057">
        <ele>800.2898030795363</ele>
        <time>2021-07-14T23:58:01.813Z</time>
      </trkpt>
      <trkpt lat="42.70715117454529" lon="1.836615800857544">
        <ele>798.7997089219762</ele>
        <time>2021-07-14T23:58:15.251Z</time>
      </trkpt>
      <trkpt lat="42.70726919174194" lon="1.836787462234497">
        <ele>797.4669500210045</ele>
        <time>2021-07-14T23:58:28.691Z</time>
      </trkpt>
      <trkpt lat="42.70734429359436" lon="1.836841106414795">
        <ele>796.0548253376323</ele>
        <time>2021-07-14T23:58:42.133Z</time>
      </trkpt>
      <trkpt lat="42.70741939544678" lon="1.8368840217590332">
        <ele>794.6589259735209</ele>
        <time>2021-07-14T23:58:55.576Z</time>
      </trkpt>
      <trkpt lat="42.707988107576966" lon="1.8370342254638672">
        <ele>793.050812040281</ele>
        <time>2021-07-14T23:59:09.028Z</time>
      </trkpt>
      <trkpt lat="42.707988023757935" lon="1.8370342254638672">
        <ele>791.6763376208131</ele>
        <time>2021-07-14T23:59:22.480Z</time>
      </trkpt>
      <trkpt lat="42.7088463306427" lon="1.837238073348999">
        <ele>789.928174963319</ele>
        <time>2021-07-14T23:59:35.946Z</time>
      </trkpt>
      <trkpt lat="42.70943641662598" lon="1.8372702598571777">
        <ele>788.2379304947692</ele>
        <time>2021-07-14T23:59:49.422Z</time>
      </trkpt>
      <trkpt lat="42.70955443382263" lon="1.8373024463653564">
        <ele>786.8872584371298</ele>
        <time>2021-07-15T00:00:02.900Z</time>
      </trkpt>
      <trkpt lat="42.70967245101929" lon="1.8373560905456543">
        <ele>785.5865781386174</ele>
        <time>2021-07-15T00:00:16.380Z</time>
      </trkpt>
      <trkpt lat="42.70981192588806" lon="1.83746337890625">
        <ele>784.3186321539456</ele>
        <time>2021-07-15T00:00:29.862Z</time>
      </trkpt>
      <trkpt lat="42.71026253700256" lon="1.8378818035125732">
        <ele>783.1315868500428</ele>
        <time>2021-07-15T00:00:43.353Z</time>
      </trkpt>
      <trkpt lat="42.71039128303528" lon="1.8379783630371094">
        <ele>781.9496561715438</ele>
        <time>2021-07-15T00:00:56.846Z</time>
      </trkpt>
      <trkpt lat="42.71054148674011" lon="1.8380534648895264">
        <ele>780.7627166326702</ele>
        <time>2021-07-15T00:01:10.342Z</time>
      </trkpt>
      <trkpt lat="42.710691690444946" lon="1.8381071090698242">
        <ele>779.572856028636</ele>
        <time>2021-07-15T00:01:23.840Z</time>
      </trkpt>
      <trkpt lat="42.71085262298584" lon="1.8381285667419434">
        <ele>778.3337783863698</ele>
        <time>2021-07-15T00:01:37.341Z</time>
      </trkpt>
      <trkpt lat="42.711485624313354" lon="1.838064193725586">
        <ele>776.8862535630385</ele>
        <time>2021-07-15T00:01:50.852Z</time>
      </trkpt>
      <trkpt lat="42.71178603172302" lon="1.838085651397705">
        <ele>775.6332115163962</ele>
        <time>2021-07-15T00:02:04.368Z</time>
      </trkpt>
      <trkpt lat="42.7119255065918" lon="1.8381285667419434">
        <ele>774.4616988538623</ele>
        <time>2021-07-15T00:02:17.886Z</time>
      </trkpt>
      <trkpt lat="42.71207571029663" lon="1.8381929397583008">
        <ele>773.3076201074182</ele>
        <time>2021-07-15T00:02:31.407Z</time>
      </trkpt>
      <trkpt lat="42.71260142326355" lon="1.8384826183319092">
        <ele>772.1893456821836</ele>
        <time>2021-07-15T00:02:44.937Z</time>
      </trkpt>
      <trkpt lat="42.712751626968384" lon="1.8385255336761475">
        <ele>770.8948114246296</ele>
        <time>2021-07-15T00:02:58.469Z</time>
      </trkpt>
      <trkpt lat="42.71310567855835" lon="1.8385899066925049">
        <ele>769.533078631475</ele>
        <time>2021-07-15T00:03:12.007Z</time>
      </trkpt>
      <trkpt lat="42.71314867772162" lon="1.838611364364624">
        <ele>768.3109415277333</ele>
        <time>2021-07-15T00:03:25.546Z</time>
      </trkpt>
      <trkpt lat="42.71314859390259" lon="1.838611364364624">
        <ele>767.078989961465</ele>
        <time>2021-07-15T00:03:39.085Z</time>
      </trkpt>
      <trkpt lat="42.71334171295166" lon="1.8387293815612793">
        <ele>765.7982835637795</ele>
        <time>2021-07-15T00:03:52.627Z</time>
      </trkpt>
      <trkpt lat="42.71347054280341" lon="1.8388581275939941">
        <ele>764.5487210105164</ele>
        <time>2021-07-15T00:04:06.172Z</time>
      </trkpt>
      <trkpt lat="42.71363139152527" lon="1.8391156196594238">
        <ele>763.2838532153106</ele>
        <time>2021-07-15T00:04:19.721Z</time>
      </trkpt>
      <trkpt lat="42.71379232406616" lon="1.839512586593628">
        <ele>761.8130029715323</ele>
        <time>2021-07-15T00:04:33.275Z</time>
      </trkpt>
      <trkpt lat="42.71386742591858" lon="1.8396735191345215">
        <ele>760.4030602876154</ele>
        <time>2021-07-15T00:04:46.831Z</time>
      </trkpt>
      <trkpt lat="42.7140820864588" lon="1.8402421474456787">
        <ele>758.8480713549009</ele>
        <time>2021-07-15T00:05:00.395Z</time>
      </trkpt>
      <trkpt lat="42.714242935180664" lon="1.8405747413635254">
        <ele>757.3413677900827</ele>
        <time>2021-07-15T00:05:13.963Z</time>
      </trkpt>
      <trkpt lat="42.71432876586914" lon="1.8406713008880615">
        <ele>755.8901996332437</ele>
        <time>2021-07-15T00:05:27.533Z</time>
      </trkpt>
      <trkpt lat="42.71438241004944" lon="1.8406927585601807">
        <ele>754.4231112828593</ele>
        <time>2021-07-15T00:05:41.104Z</time>
      </trkpt>
      <trkpt lat="42.714457511901855" lon="1.8406927585601807">
        <ele>752.9380864846721</ele>
        <time>2021-07-15T00:05:54.676Z</time>
      </trkpt>
      <trkpt lat="42.71528363227844" lon="1.8403708934783936">
        <ele>751.4363901914355</ele>
        <time>2021-07-15T00:06:08.262Z</time>
      </trkpt>
      <trkpt lat="42.715455293655396" lon="1.8403494358062744">
        <ele>749.8467415331968</ele>
        <time>2021-07-15T00:06:21.851Z</time>
      </trkpt>
      <trkpt lat="42.71595963276923" lon="1.8404138088226318">
        <ele>748.0602478362623</ele>
        <time>2021-07-15T00:06:35.448Z</time>
      </trkpt>
      <trkpt lat="42.715959548950195" lon="1.8404138088226318">
        <ele>746.4829540692313</ele>
        <time>2021-07-15T00:06:49.045Z</time>
      </trkpt>
      <trkpt lat="42.71644243039191" lon="1.8404674530029297">
        <ele>744.6518572839583</ele>
        <time>2021-07-15T00:07:02.650Z</time>
      </trkpt>
      <trkpt lat="42.71715053357184" lon="1.8405640125274658">
        <ele>742.7486916414216</ele>
        <time>2021-07-15T00:07:16.266Z</time>
      </trkpt>
      <trkpt lat="42.717697620391846" lon="1.8405961990356445">
        <ele>740.9653304757741</ele>
        <time>2021-07-15T00:07:29.891Z</time>
      </trkpt>
      <trkpt lat="42.717987382784486" lon="1.8405747413635254">
        <ele>739.3460613501991</ele>
        <time>2021-07-15T00:07:43.520Z</time>
      </trkpt>
      <trkpt lat="42.718030298128724" lon="1.8405640125274658">
        <ele>737.7833528582408</ele>
        <time>2021-07-15T00:07:57.150Z</time>
      </trkpt>
      <trkpt lat="42.71866321563721" lon="1.8405425548553467">
        <ele>736.1126006245054</ele>
        <time>2021-07-15T00:08:10.790Z</time>
      </trkpt>
      <trkpt lat="42.71866329945624" lon="1.8402099609375">
        <ele>734.5510693815572</ele>
        <time>2021-07-15T00:08:24.434Z</time>
      </trkpt>
      <trkpt lat="42.71858819760382" lon="1.840059757232666">
        <ele>733.0662847544158</ele>
        <time>2021-07-15T00:08:38.080Z</time>
      </trkpt>
      <trkpt lat="42.71858811378479" lon="1.840059757232666">
        <ele>731.6188331493032</ele>
        <time>2021-07-15T00:08:51.726Z</time>
      </trkpt>
      <trkpt lat="42.718459367752075" lon="1.8397808074951172">
        <ele>730.1906044021949</ele>
        <time>2021-07-15T00:09:05.376Z</time>
      </trkpt>
      <trkpt lat="42.71857746876776" lon="1.839383840560913">
        <ele>728.7315241648566</ele>
        <time>2021-07-15T00:09:19.031Z</time>
      </trkpt>
      <trkpt lat="42.71857738494873" lon="1.839383840560913">
        <ele>727.3925811560416</ele>
        <time>2021-07-15T00:09:32.686Z</time>
      </trkpt>
      <trkpt lat="42.718695402145386" lon="1.8388795852661133">
        <ele>726.0318505961127</ele>
        <time>2021-07-15T00:09:46.347Z</time>
      </trkpt>
      <trkpt lat="42.71883487701416" lon="1.8385040760040283">
        <ele>724.7323671403024</ele>
        <time>2021-07-15T00:10:00.013Z</time>
      </trkpt>
      <trkpt lat="42.71884568966925" lon="1.838439702987671">
        <ele>723.5021309005464</ele>
        <time>2021-07-15T00:10:13.680Z</time>
      </trkpt>
      <trkpt lat="42.71884560585022" lon="1.838310956954956">
        <ele>722.3086575045324</ele>
        <time>2021-07-15T00:10:27.349Z</time>
      </trkpt>
      <trkpt lat="42.71889933384955" lon="1.8381500244140625">
        <ele>721.1491614338886</ele>
        <time>2021-07-15T00:10:41.020Z</time>
      </trkpt>
      <trkpt lat="42.71889925003052" lon="1.838085651397705">
        <ele>720.0672367451893</ele>
        <time>2021-07-15T00:10:54.692Z</time>
      </trkpt>
      <trkpt lat="42.71893152035773" lon="1.837989091873169">
        <ele>719.0194061539622</ele>
        <time>2021-07-15T00:11:08.365Z</time>
      </trkpt>
      <trkpt lat="42.71902799606323" lon="1.8378281593322754">
        <ele>717.9146137564042</ele>
        <time>2021-07-15T00:11:22.040Z</time>
      </trkpt>
      <trkpt lat="42.71921047009528" lon="1.8374097347259521">
        <ele>716.7015940329071</ele>
        <time>2021-07-15T00:11:35.721Z</time>
      </trkpt>
      <trkpt lat="42.719210386276245" lon="1.8374097347259521">
        <ele>715.8002350127206</ele>
        <time>2021-07-15T00:11:49.402Z</time>
      </trkpt>
      <trkpt lat="42.719264114275575" lon="1.8372809886932373">
        <ele>714.9296341318861</ele>
        <time>2021-07-15T00:12:03.085Z</time>
      </trkpt>
      <trkpt lat="42.71929630078375" lon="1.8372166156768799">
        <ele>714.1185229484134</ele>
        <time>2021-07-15T00:12:16.769Z</time>
      </trkpt>
      <trkpt lat="42.71933921612799" lon="1.8371200561523438">
        <ele>713.3517932624206</ele>
        <time>2021-07-15T00:12:30.454Z</time>
      </trkpt>
      <trkpt lat="42.719435691833496" lon="1.836916208267212">
        <ele>712.62064362774</ele>
        <time>2021-07-15T00:12:44.142Z</time>
      </trkpt>
      <trkpt lat="42.719489336013794" lon="1.8368732929229736">
        <ele>711.9525249403089</ele>
        <time>2021-07-15T00:12:57.831Z</time>
      </trkpt>
      <trkpt lat="42.71955370903015" lon="1.8368518352508545">
        <ele>711.3256123478907</ele>
        <time>2021-07-15T00:13:11.521Z</time>
      </trkpt>
      <trkpt lat="42.719982862472534" lon="1.836937665939331">
        <ele>710.7228491033632</ele>
        <time>2021-07-15T00:13:25.218Z</time>
      </trkpt>
      <trkpt lat="42.719982862472534" lon="1.8368089199066162">
        <ele>710.1621760423125</ele>
        <time>2021-07-15T00:13:38.916Z</time>
      </trkpt>
      <trkpt lat="42.72002577781677" lon="1.83646559715271">
        <ele>709.6216400531041</ele>
        <time>2021-07-15T00:13:52.618Z</time>
      </trkpt>
      <trkpt lat="42.72002577781677" lon="1.8363475799560547">
        <ele>709.1810234674078</ele>
        <time>2021-07-15T00:14:06.322Z</time>
      </trkpt>
      <trkpt lat="42.720766151323915" lon="1.8364441394805908">
        <ele>708.7146060388832</ele>
        <time>2021-07-15T00:14:20.038Z</time>
      </trkpt>
      <trkpt lat="42.72076606750488" lon="1.8364441394805908">
        <ele>708.3356098327645</ele>
        <time>2021-07-15T00:14:33.754Z</time>
      </trkpt>
      <trkpt lat="42.72136688232422" lon="1.83646559715271">
        <ele>707.9001681451168</ele>
        <time>2021-07-15T00:14:47.479Z</time>
      </trkpt>
      <trkpt lat="42.72156000137329" lon="1.8364226818084717">
        <ele>707.5609144992786</ele>
        <time>2021-07-15T00:15:01.207Z</time>
      </trkpt>
      <trkpt lat="42.721699476242065" lon="1.836315393447876">
        <ele>707.2403612970327</ele>
        <time>2021-07-15T00:15:14.938Z</time>
      </trkpt>
      <trkpt lat="42.72176384925842" lon="1.8362295627593994">
        <ele>706.9919807148206</ele>
        <time>2021-07-15T00:15:28.670Z</time>
      </trkpt>
      <trkpt lat="42.72186049260199" lon="1.8360579013824463">
        <ele>706.7717742000543</ele>
        <time>2021-07-15T00:15:42.405Z</time>
      </trkpt>
      <trkpt lat="42.722482765093446" lon="1.8348777294158936">
        <ele>706.3964472298383</ele>
        <time>2021-07-15T00:15:56.157Z</time>
      </trkpt>
      <trkpt lat="42.722482681274414" lon="1.8348777294158936">
        <ele>706.2245521960947</ele>
        <time>2021-07-15T00:16:09.909Z</time>
      </trkpt>
      <trkpt lat="42.72254705429077" lon="1.834791898727417">
        <ele>706.0905401669567</ele>
        <time>2021-07-15T00:16:23.663Z</time>
      </trkpt>
      <trkpt lat="42.72258996963501" lon="1.8347811698913574">
        <ele>705.9716084425934</ele>
        <time>2021-07-15T00:16:37.417Z</time>
      </trkpt>
      <trkpt lat="42.72264369763434" lon="1.834791898727417">
        <ele>705.858634945441</ele>
        <time>2021-07-15T00:16:51.172Z</time>
      </trkpt>
      <trkpt lat="42.72282608784735" lon="1.8349850177764893">
        <ele>705.7771267877399</ele>
        <time>2021-07-15T00:17:04.931Z</time>
      </trkpt>
      <trkpt lat="42.723019206896424" lon="1.8351995944976807">
        <ele>705.7939356654556</ele>
        <time>2021-07-15T00:17:18.694Z</time>
      </trkpt>
      <trkpt lat="42.72304058074951" lon="1.8352210521697998">
        <ele>705.7033019833391</ele>
        <time>2021-07-15T00:17:32.457Z</time>
      </trkpt>
      <trkpt lat="42.72312641143799" lon="1.835167407989502">
        <ele>705.5949361104625</ele>
        <time>2021-07-15T00:17:46.222Z</time>
      </trkpt>
      <trkpt lat="42.723265970125794" lon="1.8349099159240723">
        <ele>705.4151434552246</ele>
        <time>2021-07-15T00:17:59.991Z</time>
      </trkpt>
      <trkpt lat="42.72344836033881" lon="1.8345880508422852">
        <ele>705.3142550684977</ele>
        <time>2021-07-15T00:18:13.764Z</time>
      </trkpt>
      <trkpt lat="42.72381314076483" lon="1.833944320678711">
        <ele>705.1355872468807</ele>
        <time>2021-07-15T00:18:27.547Z</time>
      </trkpt>
      <trkpt lat="42.723931074142456" lon="1.8337297439575195">
        <ele>705.023694360386</ele>
        <time>2021-07-15T00:18:41.333Z</time>
      </trkpt>
      <trkpt lat="42.72428512573242" lon="1.8332362174987793">
        <ele>704.7046148178467</ele>
        <time>2021-07-15T00:18:55.127Z</time>
      </trkpt>
      <trkpt lat="42.72439249791205" lon="1.8331289291381836">
        <ele>704.5124025719497</ele>
        <time>2021-07-15T00:19:08.923Z</time>
      </trkpt>
      <trkpt lat="42.72462853230536" lon="1.8327856063842773">
        <ele>704.333332085539</ele>
        <time>2021-07-15T00:19:22.725Z</time>
      </trkpt>
      <trkpt lat="42.72486448287964" lon="1.8324744701385498">
        <ele>703.9564425678095</ele>
        <time>2021-07-15T00:19:36.532Z</time>
      </trkpt>
      <trkpt lat="42.72508978843689" lon="1.8321311473846436">
        <ele>703.6114431389791</ele>
        <time>2021-07-15T00:19:50.345Z</time>
      </trkpt>
      <trkpt lat="42.72559404373169" lon="1.831444501876831">
        <ele>703.3511973845184</ele>
        <time>2021-07-15T00:20:04.169Z</time>
      </trkpt>
      <trkpt lat="42.725776517763734" lon="1.83121919631958">
        <ele>702.96471603752</ele>
        <time>2021-07-15T00:20:17.997Z</time>
      </trkpt>
      <trkpt lat="42.72617348469794" lon="1.8307685852050781">
        <ele>702.564358303292</ele>
        <time>2021-07-15T00:20:31.833Z</time>
      </trkpt>
      <trkpt lat="42.726452350616455" lon="1.8304574489593506">
        <ele>702.2620285284997</ele>
        <time>2021-07-15T00:20:45.675Z</time>
      </trkpt>
      <trkpt lat="42.726677656173706" lon="1.8301677703857422">
        <ele>701.7291575173946</ele>
        <time>2021-07-15T00:20:59.522Z</time>
      </trkpt>
      <trkpt lat="42.72687077522278" lon="1.8298780918121338">
        <ele>701.4356954515963</ele>
        <time>2021-07-15T00:21:13.374Z</time>
      </trkpt>
      <trkpt lat="42.72705316543579" lon="1.8295562267303467">
        <ele>701.1534583956694</ele>
        <time>2021-07-15T00:21:27.230Z</time>
      </trkpt>
      <trkpt lat="42.727224910631776" lon="1.8292021751403809">
        <ele>700.4894158404159</ele>
        <time>2021-07-15T00:21:41.091Z</time>
      </trkpt>
      <trkpt lat="42.727675437927246" lon="1.8282043933868408">
        <ele>699.6838213413812</ele>
        <time>2021-07-15T00:21:54.966Z</time>
      </trkpt>
      <trkpt lat="42.728168964385986" lon="1.8272709846496582">
        <ele>699.0229404079992</ele>
        <time>2021-07-15T00:22:08.855Z</time>
      </trkpt>
      <trkpt lat="42.728523099794984" lon="1.8265199661254883">
        <ele>698.1389968511278</ele>
        <time>2021-07-15T00:22:22.754Z</time>
      </trkpt>
      <trkpt lat="42.72852301597595" lon="1.8265199661254883">
        <ele>697.4183142631894</ele>
        <time>2021-07-15T00:22:36.653Z</time>
      </trkpt>
      <trkpt lat="42.72868403233588" lon="1.826176643371582">
        <ele>696.7422956147701</ele>
        <time>2021-07-15T00:22:50.557Z</time>
      </trkpt>
      <trkpt lat="42.72894152440131" lon="1.8256187438964844">
        <ele>695.7972094656793</ele>
        <time>2021-07-15T00:23:04.469Z</time>
      </trkpt>
      <trkpt lat="42.72909164428711" lon="1.8252861499786377">
        <ele>694.983301731496</ele>
        <time>2021-07-15T00:23:18.385Z</time>
      </trkpt>
      <trkpt lat="42.72924184799194" lon="1.8248355388641357">
        <ele>694.1308526108301</ele>
        <time>2021-07-15T00:23:32.307Z</time>
      </trkpt>
      <trkpt lat="42.72934913635254" lon="1.824406385421753">
        <ele>693.3484466889378</ele>
        <time>2021-07-15T00:23:46.235Z</time>
      </trkpt>
      <trkpt lat="42.729488695040345" lon="1.8238377571105957">
        <ele>692.445802870191</ele>
        <time>2021-07-15T00:24:00.170Z</time>
      </trkpt>
      <trkpt lat="42.729606712237" lon="1.8232369422912598">
        <ele>691.5135943067055</ele>
        <time>2021-07-15T00:24:14.112Z</time>
      </trkpt>
      <trkpt lat="42.72963881492615" lon="1.822957992553711">
        <ele>690.5478194706345</ele>
        <time>2021-07-15T00:24:28.057Z</time>
      </trkpt>
      <trkpt lat="42.729681730270386" lon="1.8225181102752686">
        <ele>689.5056610001193</ele>
        <time>2021-07-15T00:24:42.008Z</time>
      </trkpt>
      <trkpt lat="42.729692459106445" lon="1.8221104145050049">
        <ele>688.423253807403</ele>
        <time>2021-07-15T00:24:55.963Z</time>
      </trkpt>
      <trkpt lat="42.729692459106445" lon="1.821659803390503">
        <ele>687.2399279394563</ele>
        <time>2021-07-15T00:25:09.924Z</time>
      </trkpt>
      <trkpt lat="42.72967108525336" lon="1.8211877346038818">
        <ele>686.0880179484126</ele>
        <time>2021-07-15T00:25:23.890Z</time>
      </trkpt>
      <trkpt lat="42.72952079772949" lon="1.819535493850708">
        <ele>684.7800702743682</ele>
        <time>2021-07-15T00:25:37.876Z</time>
      </trkpt>
      <trkpt lat="42.729424238204956" lon="1.81898832321167">
        <ele>683.6894601744827</ele>
        <time>2021-07-15T00:25:51.868Z</time>
      </trkpt>
      <trkpt lat="42.729231202974916" lon="1.818087100982666">
        <ele>682.7233214774443</ele>
        <time>2021-07-15T00:26:05.872Z</time>
      </trkpt>
      <trkpt lat="42.729209745302796" lon="1.8179905414581299">
        <ele>681.7906395520935</ele>
        <time>2021-07-15T00:26:19.877Z</time>
      </trkpt>
      <trkpt lat="42.72914528846741" lon="1.8176257610321045">
        <ele>680.8765729245779</ele>
        <time>2021-07-15T00:26:33.886Z</time>
      </trkpt>
      <trkpt lat="42.72911318577826" lon="1.8172717094421387">
        <ele>680.0117125616243</ele>
        <time>2021-07-15T00:26:47.899Z</time>
      </trkpt>
      <trkpt lat="42.72913455963135" lon="1.8168318271636963">
        <ele>679.1950286607469</ele>
        <time>2021-07-15T00:27:01.918Z</time>
      </trkpt>
      <trkpt lat="42.72918828763068" lon="1.8165850639343262">
        <ele>678.4210794825666</ele>
        <time>2021-07-15T00:27:15.940Z</time>
      </trkpt>
      <trkpt lat="42.729188203811646" lon="1.8165850639343262">
        <ele>677.6968891207015</ele>
        <time>2021-07-15T00:27:29.962Z</time>
      </trkpt>
      <trkpt lat="42.729467153549194" lon="1.8155443668365479">
        <ele>676.9000549377167</ele>
        <time>2021-07-15T00:27:43.997Z</time>
      </trkpt>
      <trkpt lat="42.729724729433656" lon="1.8148255348205566">
        <ele>676.226893014367</ele>
        <time>2021-07-15T00:27:58.041Z</time>
      </trkpt>
      <trkpt lat="42.72987493313849" lon="1.8143749237060547">
        <ele>675.6853689447564</ele>
        <time>2021-07-15T00:28:12.091Z</time>
      </trkpt>
      <trkpt lat="42.72987484931946" lon="1.8143749237060547">
        <ele>675.1673499767066</ele>
        <time>2021-07-15T00:28:26.141Z</time>
      </trkpt>
      <trkpt lat="42.729971492663026" lon="1.8140745162963867">
        <ele>674.7126975060822</ele>
        <time>2021-07-15T00:28:40.195Z</time>
      </trkpt>
      <trkpt lat="42.730014408007264" lon="1.8139457702636719">
        <ele>674.2935030436386</ele>
        <time>2021-07-15T00:28:54.250Z</time>
      </trkpt>
      <trkpt lat="42.7300573233515" lon="1.813817024230957">
        <ele>673.9179762374245</ele>
        <time>2021-07-15T00:29:08.307Z</time>
      </trkpt>
      <trkpt lat="42.730185985565186" lon="1.813441514968872">
        <ele>673.5635234089835</ele>
        <time>2021-07-15T00:29:22.369Z</time>
      </trkpt>
      <trkpt lat="42.73056149482727" lon="1.8121647834777832">
        <ele>673.2525808599262</ele>
        <time>2021-07-15T00:29:36.447Z</time>
      </trkpt>
      <trkpt lat="42.7312695980072" lon="1.8100297451019287">
        <ele>672.9582433505764</ele>
        <time>2021-07-15T00:29:50.553Z</time>
      </trkpt>
      <trkpt lat="42.73133397102356" lon="1.8098258972167969">
        <ele>672.7990594192959</ele>
        <time>2021-07-15T00:30:04.661Z</time>
      </trkpt>
      <trkpt lat="42.731451988220215" lon="1.8095040321350098">
        <ele>672.6445046364265</ele>
        <time>2021-07-15T00:30:18.774Z</time>
      </trkpt>
      <trkpt lat="42.73151636123657" lon="1.8092036247253418">
        <ele>672.5191457092976</ele>
        <time>2021-07-15T00:30:32.890Z</time>
      </trkpt>
      <trkpt lat="42.73158073425293" lon="1.808699369430542">
        <ele>672.4298186479296</ele>
        <time>2021-07-15T00:30:47.012Z</time>
      </trkpt>
      <trkpt lat="42.73165583610535" lon="1.808549165725708">
        <ele>672.3637757549052</ele>
        <time>2021-07-15T00:31:01.137Z</time>
      </trkpt>
      <trkpt lat="42.731731021776795" lon="1.8084204196929932">
        <ele>672.3306862804791</ele>
        <time>2021-07-15T00:31:15.263Z</time>
      </trkpt>
      <trkpt lat="42.73181676864624" lon="1.808323860168457">
        <ele>672.3367944523546</ele>
        <time>2021-07-15T00:31:29.391Z</time>
      </trkpt>
      <trkpt lat="42.73187041282654" lon="1.8081843852996826">
        <ele>672.3018876114769</ele>
        <time>2021-07-15T00:31:43.521Z</time>
      </trkpt>
      <trkpt lat="42.73213863372803" lon="1.807476282119751">
        <ele>672.3199948945603</ele>
        <time>2021-07-15T00:31:57.661Z</time>
      </trkpt>
      <trkpt lat="42.732224464416504" lon="1.8073046207427979">
        <ele>672.3132267334545</ele>
        <time>2021-07-15T00:32:11.803Z</time>
      </trkpt>
      <trkpt lat="42.732471227645874" lon="1.8069076538085938">
        <ele>672.2866352654262</ele>
        <time>2021-07-15T00:32:25.951Z</time>
      </trkpt>
      <trkpt lat="42.73280382156372" lon="1.8063819408416748">
        <ele>672.3500744839516</ele>
        <time>2021-07-15T00:32:40.107Z</time>
      </trkpt>
      <trkpt lat="42.732964754104614" lon="1.8061888217926025">
        <ele>672.3631341853012</ele>
        <time>2021-07-15T00:32:54.267Z</time>
      </trkpt>
      <trkpt lat="42.733393907547" lon="1.8057703971862793">
        <ele>672.3612428248787</ele>
        <time>2021-07-15T00:33:08.435Z</time>
      </trkpt>
      <trkpt lat="42.73339399136603" lon="1.8057703971862793">
        <ele>672.2244232125599</ele>
        <time>2021-07-15T00:33:22.603Z</time>
      </trkpt>
      <trkpt lat="42.733458280563354" lon="1.8056738376617432">
        <ele>672.1217244561126</ele>
        <time>2021-07-15T00:33:36.773Z</time>
      </trkpt>
      <trkpt lat="42.73352265357971" lon="1.8055236339569092">
        <ele>671.9434956944742</ele>
        <time>2021-07-15T00:33:50.945Z</time>
      </trkpt>
      <trkpt lat="42.73401618003845" lon="1.8041503429412842">
        <ele>671.6931171577387</ele>
        <time>2021-07-15T00:34:05.135Z</time>
      </trkpt>
      <trkpt lat="42.73412346839905" lon="1.803807020187378">
        <ele>671.2447825934975</ele>
        <time>2021-07-15T00:34:19.329Z</time>
      </trkpt>
      <trkpt lat="42.73433804512024" lon="1.8032169342041016">
        <ele>670.8051372480425</ele>
        <time>2021-07-15T00:34:33.531Z</time>
      </trkpt>
      <trkpt lat="42.73578643798828" lon="1.7995691299438477">
        <ele>670.3424893175713</ele>
        <time>2021-07-15T00:34:47.782Z</time>
      </trkpt>
      <trkpt lat="42.73635506629944" lon="1.7985284328460693">
        <ele>669.8880650666381</ele>
        <time>2021-07-15T00:35:02.048Z</time>
      </trkpt>
      <trkpt lat="42.736709117889404" lon="1.7979276180267334">
        <ele>669.0440661893335</ele>
        <time>2021-07-15T00:35:16.323Z</time>
      </trkpt>
      <trkpt lat="42.736709201708436" lon="1.7979276180267334">
        <ele>668.2960116791012</ele>
        <time>2021-07-15T00:35:30.598Z</time>
      </trkpt>
      <trkpt lat="42.73684859275818" lon="1.7976701259613037">
        <ele>667.4599615167649</ele>
        <time>2021-07-15T00:35:44.877Z</time>
      </trkpt>
      <trkpt lat="42.736955964937806" lon="1.7973589897155762">
        <ele>666.5787778627673</ele>
        <time>2021-07-15T00:35:59.160Z</time>
      </trkpt>
      <trkpt lat="42.737470865249634" lon="1.795213222503662">
        <ele>665.3558530590142</ele>
        <time>2021-07-15T00:36:13.470Z</time>
      </trkpt>
      <trkpt lat="42.73759961128235" lon="1.7948698997497559">
        <ele>664.3143147820776</ele>
        <time>2021-07-15T00:36:27.784Z</time>
      </trkpt>
      <trkpt lat="42.73798584938049" lon="1.7940330505371094">
        <ele>663.2959505527274</ele>
        <time>2021-07-15T00:36:42.110Z</time>
      </trkpt>
      <trkpt lat="42.73859739303589" lon="1.7930781841278076">
        <ele>661.9603603469947</ele>
        <time>2021-07-15T00:36:56.451Z</time>
      </trkpt>
      <trkpt lat="42.738908529281616" lon="1.7926275730133057">
        <ele>660.8265658410564</ele>
        <time>2021-07-15T00:37:10.799Z</time>
      </trkpt>
      <trkpt lat="42.73890861310065" lon="1.7926275730133057">
        <ele>659.6961588096633</ele>
        <time>2021-07-15T00:37:25.147Z</time>
      </trkpt>
      <trkpt lat="42.739176750183105" lon="1.7922520637512207">
        <ele>658.446418424191</ele>
        <time>2021-07-15T00:37:39.501Z</time>
      </trkpt>
      <trkpt lat="42.73917683400214" lon="1.7922520637512207">
        <ele>657.3153306796007</ele>
        <time>2021-07-15T00:37:53.855Z</time>
      </trkpt>
      <trkpt lat="42.740968465805054" lon="1.7897307872772217">
        <ele>655.8665371213673</ele>
        <time>2021-07-15T00:38:08.250Z</time>
      </trkpt>
      <trkpt lat="42.74109721183777" lon="1.7894947528839111">
        <ele>654.7800611353484</ele>
        <time>2021-07-15T00:38:22.649Z</time>
      </trkpt>
      <trkpt lat="42.741440534591675" lon="1.7883360385894775">
        <ele>653.486909270953</ele>
        <time>2021-07-15T00:38:37.063Z</time>
      </trkpt>
      <trkpt lat="42.741858959198" lon="1.7867588996887207">
        <ele>652.3905873182839</ele>
        <time>2021-07-15T00:38:51.496Z</time>
      </trkpt>
      <trkpt lat="42.74185904301703" lon="1.7867588996887207">
        <ele>651.4709913637098</ele>
        <time>2021-07-15T00:39:05.929Z</time>
      </trkpt>
      <trkpt lat="42.74188041687012" lon="1.7866837978363037">
        <ele>650.6349938314091</ele>
        <time>2021-07-15T00:39:20.363Z</time>
      </trkpt>
      <trkpt lat="42.74188050068915" lon="1.7866837978363037">
        <ele>649.8732465570918</ele>
        <time>2021-07-15T00:39:34.797Z</time>
      </trkpt>
      <trkpt lat="42.74229884147644" lon="1.7854499816894531">
        <ele>649.2161504390139</ele>
        <time>2021-07-15T00:39:49.247Z</time>
      </trkpt>
      <trkpt lat="42.742717266082764" lon="1.784656047821045">
        <ele>648.4383348364734</ele>
        <time>2021-07-15T00:40:03.709Z</time>
      </trkpt>
      <trkpt lat="42.74274945259094" lon="1.7844414710998535">
        <ele>647.9351108503056</ele>
        <time>2021-07-15T00:40:18.173Z</time>
      </trkpt>
      <trkpt lat="42.742695892229676" lon="1.78428053855896">
        <ele>647.4618989600742</ele>
        <time>2021-07-15T00:40:32.639Z</time>
      </trkpt>
      <trkpt lat="42.74267443455756" lon="1.784226894378662">
        <ele>647.1708349482053</ele>
        <time>2021-07-15T00:40:47.106Z</time>
      </trkpt>
      <trkpt lat="42.74251350201666" lon="1.784055233001709">
        <ele>646.8414856476768</ele>
        <time>2021-07-15T00:41:01.576Z</time>
      </trkpt>
      <trkpt lat="42.742449129000306" lon="1.7839586734771729">
        <ele>646.8896022232782</ele>
        <time>2021-07-15T00:41:16.048Z</time>
      </trkpt>
      <trkpt lat="42.742406129837036" lon="1.7837440967559814">
        <ele>647.0578721299619</ele>
        <time>2021-07-15T00:41:30.523Z</time>
      </trkpt>
      <trkpt lat="42.742449045181274" lon="1.7835617065429688">
        <ele>647.2674701122849</ele>
        <time>2021-07-15T00:41:45.000Z</time>
      </trkpt>
      <trkpt lat="42.74263143539429" lon="1.7831969261169434">
        <ele>647.576396234347</ele>
        <time>2021-07-15T00:41:59.482Z</time>
      </trkpt>
      <trkpt lat="42.742942655459046" lon="1.7827248573303223">
        <ele>648.052585405727</ele>
        <time>2021-07-15T00:42:13.972Z</time>
      </trkpt>
      <trkpt lat="42.74307131767273" lon="1.7824673652648926">
        <ele>648.4910612438832</ele>
        <time>2021-07-15T00:42:28.465Z</time>
      </trkpt>
      <trkpt lat="42.74311423301697" lon="1.7822527885437012">
        <ele>649.0593563462276</ele>
        <time>2021-07-15T00:42:42.961Z</time>
      </trkpt>
      <trkpt lat="42.74312496185303" lon="1.7820703983306885">
        <ele>649.7082361482653</ele>
        <time>2021-07-15T00:42:57.459Z</time>
      </trkpt>
      <trkpt lat="42.74312504567206" lon="1.7820703983306885">
        <ele>650.3922466838794</ele>
        <time>2021-07-15T00:43:11.957Z</time>
      </trkpt>
      <trkpt lat="42.743167877197266" lon="1.7809975147247314">
        <ele>651.298200292324</ele>
        <time>2021-07-15T00:43:26.468Z</time>
      </trkpt>
      <trkpt lat="42.743178606033325" lon="1.7804288864135742">
        <ele>652.2998133503337</ele>
        <time>2021-07-15T00:43:40.985Z</time>
      </trkpt>
      <trkpt lat="42.743210876360536" lon="1.780182123184204">
        <ele>653.0948202954046</ele>
        <time>2021-07-15T00:43:55.505Z</time>
      </trkpt>
      <trkpt lat="42.7432644367218" lon="1.7797315120697021">
        <ele>653.9581787619846</ele>
        <time>2021-07-15T00:44:10.031Z</time>
      </trkpt>
      <trkpt lat="42.7433717250824" lon="1.7793238162994385">
        <ele>654.8024586199449</ele>
        <time>2021-07-15T00:44:24.562Z</time>
      </trkpt>
      <trkpt lat="42.74335026741028" lon="1.779184341430664">
        <ele>655.5931699481737</ele>
        <time>2021-07-15T00:44:39.094Z</time>
      </trkpt>
      <trkpt lat="42.743650674819946" lon="1.7788946628570557">
        <ele>656.2849878826636</ele>
        <time>2021-07-15T00:44:53.632Z</time>
      </trkpt>
      <trkpt lat="42.74453043937683" lon="1.7783582210540771">
        <ele>656.9369110487884</ele>
        <time>2021-07-15T00:45:08.186Z</time>
      </trkpt>
      <trkpt lat="42.744691371917725" lon="1.7782294750213623">
        <ele>657.4074044405004</ele>
        <time>2021-07-15T00:45:22.743Z</time>
      </trkpt>
      <trkpt lat="42.744916677474976" lon="1.7779505252838135">
        <ele>657.7739564930858</ele>
        <time>2021-07-15T00:45:37.305Z</time>
      </trkpt>
      <trkpt lat="42.74512052536011" lon="1.7776072025299072">
        <ele>657.9728689103886</ele>
        <time>2021-07-15T00:45:51.872Z</time>
      </trkpt>
      <trkpt lat="42.74552822113037" lon="1.7768454551696777">
        <ele>658.0329325563644</ele>
        <time>2021-07-15T00:46:06.450Z</time>
      </trkpt>
      <trkpt lat="42.745710611343384" lon="1.7766308784484863">
        <ele>657.99376449842</ele>
        <time>2021-07-15T00:46:21.032Z</time>
      </trkpt>
      <trkpt lat="42.7458393573761" lon="1.776491403579712">
        <ele>657.7970443352061</ele>
        <time>2021-07-15T00:46:35.616Z</time>
      </trkpt>
      <trkpt lat="42.74633288383484" lon="1.776115894317627">
        <ele>657.4610445271114</ele>
        <time>2021-07-15T00:46:50.210Z</time>
      </trkpt>
      <trkpt lat="42.74803876876831" lon="1.7747104167938232">
        <ele>656.9480306337359</ele>
        <time>2021-07-15T00:47:04.835Z</time>
      </trkpt>
      <trkpt lat="42.74827480316162" lon="1.7743992805480957">
        <ele>656.3980609670384</ele>
        <time>2021-07-15T00:47:19.466Z</time>
      </trkpt>
      <trkpt lat="42.74888634681702" lon="1.7734766006469727">
        <ele>655.5764328161192</ele>
        <time>2021-07-15T00:47:34.111Z</time>
      </trkpt>
      <trkpt lat="42.74912238121033" lon="1.7731761932373047">
        <ele>654.4965012558563</ele>
        <time>2021-07-15T00:47:48.762Z</time>
      </trkpt>
      <trkpt lat="42.74933695793152" lon="1.7729723453521729">
        <ele>653.2823023047051</ele>
        <time>2021-07-15T00:48:03.417Z</time>
      </trkpt>
      <trkpt lat="42.749658823013306" lon="1.7728006839752197">
        <ele>651.8793490779142</ele>
        <time>2021-07-15T00:48:18.077Z</time>
      </trkpt>
      <trkpt lat="42.75023818016052" lon="1.7725324630737305">
        <ele>650.4512486608951</ele>
        <time>2021-07-15T00:48:32.747Z</time>
      </trkpt>
      <trkpt lat="42.75152564048767" lon="1.7719852924346924">
        <ele>648.9886934875291</ele>
        <time>2021-07-15T00:48:47.439Z</time>
      </trkpt>
      <trkpt lat="42.75309205055237" lon="1.7711913585662842">
        <ele>646.7597758773757</ele>
        <time>2021-07-15T00:49:02.157Z</time>
      </trkpt>
      <trkpt lat="42.75435813702643" lon="1.7705905437469482">
        <ele>644.4015619842428</ele>
        <time>2021-07-15T00:49:16.897Z</time>
      </trkpt>
      <trkpt lat="42.7543580532074" lon="1.7705905437469482">
        <ele>642.6566548516901</ele>
        <time>2021-07-15T00:49:31.637Z</time>
      </trkpt>
      <trkpt lat="42.75458335876465" lon="1.7704832553863525">
        <ele>640.9029197300913</ele>
        <time>2021-07-15T00:49:46.381Z</time>
      </trkpt>
      <trkpt lat="42.75485157966614" lon="1.7703866958618164">
        <ele>639.0534282096562</ele>
        <time>2021-07-15T00:50:01.129Z</time>
      </trkpt>
      <trkpt lat="42.75507688522339" lon="1.7703545093536377">
        <ele>637.108222427948</ele>
        <time>2021-07-15T00:50:15.881Z</time>
      </trkpt>
      <trkpt lat="42.75523781776428" lon="1.7703866958618164">
        <ele>635.1816545728373</ele>
        <time>2021-07-15T00:50:30.635Z</time>
      </trkpt>
      <trkpt lat="42.755430936813354" lon="1.7704510688781738">
        <ele>633.2044034454782</ele>
        <time>2021-07-15T00:50:45.392Z</time>
      </trkpt>
      <trkpt lat="42.75578498840332" lon="1.7706334590911865">
        <ele>631.0720557006578</ele>
        <time>2021-07-15T00:51:00.156Z</time>
      </trkpt>
      <trkpt lat="42.75599956512451" lon="1.770697832107544">
        <ele>629.0803755705551</ele>
        <time>2021-07-15T00:51:14.923Z</time>
      </trkpt>
      <trkpt lat="42.7562141418457" lon="1.7707085609436035">
        <ele>627.1788081616617</ele>
        <time>2021-07-15T00:51:29.693Z</time>
      </trkpt>
      <trkpt lat="42.75634288787842" lon="1.7706763744354248">
        <ele>625.3735100328707</ele>
        <time>2021-07-15T00:51:44.466Z</time>
      </trkpt>
      <trkpt lat="42.75648236274719" lon="1.770622730255127">
        <ele>623.6286325667892</ele>
        <time>2021-07-15T00:51:59.241Z</time>
      </trkpt>
      <trkpt lat="42.75689014233649" lon="1.7703330516815186">
        <ele>622.0677491001237</ele>
        <time>2021-07-15T00:52:14.023Z</time>
      </trkpt>
      <trkpt lat="42.756890058517456" lon="1.7703330516815186">
        <ele>620.393582942726</ele>
        <time>2021-07-15T00:52:28.805Z</time>
      </trkpt>
      <trkpt lat="42.75797367095947" lon="1.7693030834197998">
        <ele>618.5594492265936</ele>
        <time>2021-07-15T00:52:43.608Z</time>
      </trkpt>
      <trkpt lat="42.758413553237915" lon="1.7688417434692383">
        <ele>616.7923071612474</ele>
        <time>2021-07-15T00:52:58.420Z</time>
      </trkpt>
      <trkpt lat="42.758692502975464" lon="1.7685306072235107">
        <ele>615.3909363184454</ele>
        <time>2021-07-15T00:53:13.238Z</time>
      </trkpt>
      <trkpt lat="42.758939266204834" lon="1.7681336402893066">
        <ele>613.8082940984159</ele>
        <time>2021-07-15T00:53:28.062Z</time>
      </trkpt>
      <trkpt lat="42.759443605318666" lon="1.7668354511260986">
        <ele>612.3139190830827</ele>
        <time>2021-07-15T00:53:42.904Z</time>
      </trkpt>
      <trkpt lat="42.759443521499634" lon="1.7668354511260986">
        <ele>611.0302428556802</ele>
        <time>2021-07-15T00:53:57.746Z</time>
      </trkpt>
      <trkpt lat="42.759636640548706" lon="1.7663097381591797">
        <ele>609.8488326025829</ele>
        <time>2021-07-15T00:54:12.594Z</time>
      </trkpt>
      <trkpt lat="42.76006587781012" lon="1.7650222778320312">
        <ele>608.9210193175483</ele>
        <time>2021-07-15T00:54:27.459Z</time>
      </trkpt>
      <trkpt lat="42.76021599769592" lon="1.7645609378814697">
        <ele>607.8662757469308</ele>
        <time>2021-07-15T00:54:42.330Z</time>
      </trkpt>
      <trkpt lat="42.76025891304016" lon="1.7643141746520996">
        <ele>606.8561572230955</ele>
        <time>2021-07-15T00:54:57.204Z</time>
      </trkpt>
      <trkpt lat="42.76029118336737" lon="1.7637884616851807">
        <ele>605.9509702812787</ele>
        <time>2021-07-15T00:55:12.084Z</time>
      </trkpt>
      <trkpt lat="42.76032336987555" lon="1.7633485794067383">
        <ele>605.1098821631658</ele>
        <time>2021-07-15T00:55:26.969Z</time>
      </trkpt>
      <trkpt lat="42.760376930236816" lon="1.762683391571045">
        <ele>604.2409847259482</ele>
        <time>2021-07-15T00:55:41.862Z</time>
      </trkpt>
      <trkpt lat="42.760430658236146" lon="1.762458086013794">
        <ele>603.3868239607975</ele>
        <time>2021-07-15T00:55:56.758Z</time>
      </trkpt>
      <trkpt lat="42.760484302416444" lon="1.76230788230896">
        <ele>602.6065682568899</ele>
        <time>2021-07-15T00:56:11.656Z</time>
      </trkpt>
      <trkpt lat="42.76057004928589" lon="1.7621898651123047">
        <ele>601.8719661002517</ele>
        <time>2021-07-15T00:56:26.556Z</time>
      </trkpt>
      <trkpt lat="42.76080616749823" lon="1.7618680000305176">
        <ele>601.1164256832424</ele>
        <time>2021-07-15T00:56:41.461Z</time>
      </trkpt>
      <trkpt lat="42.761192405596375" lon="1.7613637447357178">
        <ele>600.4079886473173</ele>
        <time>2021-07-15T00:56:56.375Z</time>
      </trkpt>
      <trkpt lat="42.7612566947937" lon="1.7611920833587646">
        <ele>599.9117016422186</ele>
        <time>2021-07-15T00:57:11.291Z</time>
      </trkpt>
      <trkpt lat="42.76157864369452" lon="1.7601943016052246">
        <ele>599.390019190434</ele>
        <time>2021-07-15T00:57:26.220Z</time>
      </trkpt>
      <trkpt lat="42.76157855987549" lon="1.7601943016052246">
        <ele>598.9912586386346</ele>
        <time>2021-07-15T00:57:41.149Z</time>
      </trkpt>
      <trkpt lat="42.76195406913757" lon="1.7590892314910889">
        <ele>598.7960025343377</ele>
        <time>2021-07-15T00:57:56.092Z</time>
      </trkpt>
      <trkpt lat="42.76229739189148" lon="1.758134365081787">
        <ele>598.5659032382682</ele>
        <time>2021-07-15T00:58:11.048Z</time>
      </trkpt>
      <trkpt lat="42.76281237602234" lon="1.75681471824646">
        <ele>598.6860999581111</ele>
        <time>2021-07-15T00:58:26.022Z</time>
      </trkpt>
      <trkpt lat="42.76350975036621" lon="1.7551946640014648">
        <ele>597.9824778617858</ele>
        <time>2021-07-15T00:58:41.018Z</time>
      </trkpt>
      <trkpt lat="42.76400327682495" lon="1.75331711769104">
        <ele>597.6892457843678</ele>
        <time>2021-07-15T00:58:56.037Z</time>
      </trkpt>
      <trkpt lat="42.76426076889038" lon="1.7525875568389893">
        <ele>597.5409438998274</ele>
        <time>2021-07-15T00:59:11.066Z</time>
      </trkpt>
      <trkpt lat="42.76507616043091" lon="1.7505598068237305">
        <ele>597.620944930486</ele>
        <time>2021-07-15T00:59:26.122Z</time>
      </trkpt>
      <trkpt lat="42.765634059906006" lon="1.7492079734802246">
        <ele>597.5211277463933</ele>
        <time>2021-07-15T00:59:41.196Z</time>
      </trkpt>
      <trkpt lat="42.76565560139716" lon="1.7491328716278076">
        <ele>597.6097698671854</ele>
        <time>2021-07-15T00:59:56.271Z</time>
      </trkpt>
      <trkpt lat="42.765698516741395" lon="1.7489826679229736">
        <ele>597.7452753805032</ele>
        <time>2021-07-15T01:00:11.348Z</time>
      </trkpt>
      <trkpt lat="42.765709245577455" lon="1.7489397525787354">
        <ele>597.991959193412</ele>
        <time>2021-07-15T01:00:26.426Z</time>
      </trkpt>
      <trkpt lat="42.76576288975775" lon="1.748521327972412">
        <ele>598.260392240237</ele>
        <time>2021-07-15T01:00:41.509Z</time>
      </trkpt>
      <trkpt lat="42.76576288975775" lon="1.7482852935791016">
        <ele>598.6627690622938</ele>
        <time>2021-07-15T01:00:56.594Z</time>
      </trkpt>
      <trkpt lat="42.76577353477478" lon="1.7471909523010254">
        <ele>599.0268089710913</ele>
        <time>2021-07-15T01:01:11.692Z</time>
      </trkpt>
      <trkpt lat="42.76585936546326" lon="1.7466223239898682">
        <ele>599.289875502922</ele>
        <time>2021-07-15T01:01:26.797Z</time>
      </trkpt>
      <trkpt lat="42.76606321334839" lon="1.7459678649902344">
        <ele>600.0065300595611</ele>
        <time>2021-07-15T01:01:41.911Z</time>
      </trkpt>
      <trkpt lat="42.76632078923285" lon="1.7454636096954346">
        <ele>600.7526224702427</ele>
        <time>2021-07-15T01:01:57.032Z</time>
      </trkpt>
      <trkpt lat="42.76632070541382" lon="1.7454636096954346">
        <ele>601.3836568485247</ele>
        <time>2021-07-15T01:02:12.153Z</time>
      </trkpt>
      <trkpt lat="42.76705026626587" lon="1.7439615726470947">
        <ele>602.2239909254265</ele>
        <time>2021-07-15T01:02:27.295Z</time>
      </trkpt>
      <trkpt lat="42.7673077583313" lon="1.7434680461883545">
        <ele>603.045167411784</ele>
        <time>2021-07-15T01:02:42.444Z</time>
      </trkpt>
      <trkpt lat="42.76760816574097" lon="1.7429852485656738">
        <ele>603.6248072222966</ele>
        <time>2021-07-15T01:02:57.601Z</time>
      </trkpt>
      <trkpt lat="42.76797294616699" lon="1.742480993270874">
        <ele>604.3197975752958</ele>
        <time>2021-07-15T01:03:12.766Z</time>
      </trkpt>
      <trkpt lat="42.768133878707886" lon="1.7422020435333252">
        <ele>605.0367793375556</ele>
        <time>2021-07-15T01:03:27.935Z</time>
      </trkpt>
      <trkpt lat="42.7682626247406" lon="1.7419230937957764">
        <ele>605.6215950966018</ele>
        <time>2021-07-15T01:03:43.108Z</time>
      </trkpt>
      <trkpt lat="42.76832699775696" lon="1.7416977882385254">
        <ele>606.2439503769388</ele>
        <time>2021-07-15T01:03:58.284Z</time>
      </trkpt>
      <trkpt lat="42.76836999692023" lon="1.7415046691894531">
        <ele>606.8679232303218</ele>
        <time>2021-07-15T01:04:13.462Z</time>
      </trkpt>
      <trkpt lat="42.768369913101196" lon="1.7415046691894531">
        <ele>607.4436385890733</ele>
        <time>2021-07-15T01:04:28.640Z</time>
      </trkpt>
      <trkpt lat="42.76845574378967" lon="1.740356683731079">
        <ele>608.5327565183181</ele>
        <time>2021-07-15T01:04:43.832Z</time>
      </trkpt>
      <trkpt lat="42.76852011680603" lon="1.739959716796875">
        <ele>609.2034088124467</ele>
        <time>2021-07-15T01:04:59.029Z</time>
      </trkpt>
      <trkpt lat="42.768659591674805" lon="1.7394661903381348">
        <ele>609.601049272828</ele>
        <time>2021-07-15T01:05:14.232Z</time>
      </trkpt>
      <trkpt lat="42.76885271072388" lon="1.738983392715454">
        <ele>609.7640109738197</ele>
        <time>2021-07-15T01:05:29.441Z</time>
      </trkpt>
      <trkpt lat="42.76905664242804" lon="1.7386400699615479">
        <ele>609.6909102014736</ele>
        <time>2021-07-15T01:05:44.655Z</time>
      </trkpt>
      <trkpt lat="42.76905655860901" lon="1.7386400699615479">
        <ele>609.7456066445658</ele>
        <time>2021-07-15T01:05:59.869Z</time>
      </trkpt>
      <trkpt lat="42.769174575805664" lon="1.7384254932403564">
        <ele>609.6252434062096</ele>
        <time>2021-07-15T01:06:15.087Z</time>
      </trkpt>
      <trkpt lat="42.76960372924805" lon="1.7374491691589355">
        <ele>609.4726219359894</ele>
        <time>2021-07-15T01:06:30.318Z</time>
      </trkpt>
      <trkpt lat="42.76976466178894" lon="1.7371809482574463">
        <ele>609.1469738708363</ele>
        <time>2021-07-15T01:06:45.553Z</time>
      </trkpt>
      <trkpt lat="42.76997923851013" lon="1.7369341850280762">
        <ele>608.8115007020277</ele>
        <time>2021-07-15T01:07:00.793Z</time>
      </trkpt>
      <trkpt lat="42.77024745941162" lon="1.7365801334381104">
        <ele>608.2655509777098</ele>
        <time>2021-07-15T01:07:16.039Z</time>
      </trkpt>
      <trkpt lat="42.77044057846069" lon="1.7362260818481445">
        <ele>607.4648214833628</ele>
        <time>2021-07-15T01:07:31.290Z</time>
      </trkpt>
      <trkpt lat="42.77051568031311" lon="1.7359042167663574">
        <ele>606.7050587664953</ele>
        <time>2021-07-15T01:07:46.545Z</time>
      </trkpt>
      <trkpt lat="42.77054786682129" lon="1.7355287075042725">
        <ele>605.7569674467118</ele>
        <time>2021-07-15T01:08:01.804Z</time>
      </trkpt>
      <trkpt lat="42.77051568031311" lon="1.7352497577667236">
        <ele>604.7031167560168</ele>
        <time>2021-07-15T01:08:17.066Z</time>
      </trkpt>
      <trkpt lat="42.770408391952515" lon="1.734766960144043">
        <ele>603.6634433921353</ele>
        <time>2021-07-15T01:08:32.334Z</time>
      </trkpt>
      <trkpt lat="42.77029037475586" lon="1.7342305183410645">
        <ele>602.2275048171614</ele>
        <time>2021-07-15T01:08:47.609Z</time>
      </trkpt>
      <trkpt lat="42.77026891708374" lon="1.733940839767456">
        <ele>600.8607675836531</ele>
        <time>2021-07-15T01:09:02.887Z</time>
      </trkpt>
      <trkpt lat="42.77029045857489" lon="1.7335331439971924">
        <ele>599.2720822190579</ele>
        <time>2021-07-15T01:09:18.170Z</time>
      </trkpt>
      <trkpt lat="42.770376205444336" lon="1.7331469058990479">
        <ele>597.612403700459</ele>
        <time>2021-07-15T01:09:33.458Z</time>
      </trkpt>
      <trkpt lat="42.770462119951844" lon="1.7328572273254395">
        <ele>595.9299852017782</ele>
        <time>2021-07-15T01:09:48.750Z</time>
      </trkpt>
      <trkpt lat="42.770633697509766" lon="1.732245683670044">
        <ele>593.9276607911349</ele>
        <time>2021-07-15T01:10:04.049Z</time>
      </trkpt>
      <trkpt lat="42.770676612854004" lon="1.7320525646209717">
        <ele>592.0838962748151</ele>
        <time>2021-07-15T01:10:19.351Z</time>
      </trkpt>
      <trkpt lat="42.77083762921393" lon="1.729799509048462">
        <ele>589.7588426830305</ele>
        <time>2021-07-15T01:10:34.679Z</time>
      </trkpt>
      <trkpt lat="42.770944917574525" lon="1.7281687259674072">
        <ele>587.5820894008785</ele>
        <time>2021-07-15T01:10:50.027Z</time>
      </trkpt>
      <trkpt lat="42.771148681640625" lon="1.725175380706787">
        <ele>584.970909944481</ele>
        <time>2021-07-15T01:11:05.410Z</time>
      </trkpt>
      <trkpt lat="42.77130961418152" lon="1.7226219177246094">
        <ele>582.7662327816512</ele>
        <time>2021-07-15T01:11:20.823Z</time>
      </trkpt>
      <trkpt lat="42.77154573239386" lon="1.718909740447998">
        <ele>580.8440622313519</ele>
        <time>2021-07-15T01:11:36.280Z</time>
      </trkpt>
      <trkpt lat="42.77154564857483" lon="1.718909740447998">
        <ele>579.0594596447705</ele>
        <time>2021-07-15T01:11:51.737Z</time>
      </trkpt>
      <trkpt lat="42.77157791890204" lon="1.7183411121368408">
        <ele>577.2428676238699</ele>
        <time>2021-07-15T01:12:07.201Z</time>
      </trkpt>
      <trkpt lat="42.77173885144293" lon="1.7160236835479736">
        <ele>575.4975805553693</ele>
        <time>2021-07-15T01:12:22.692Z</time>
      </trkpt>
      <trkpt lat="42.77180322445929" lon="1.7150259017944336">
        <ele>573.8677931996122</ele>
        <time>2021-07-15T01:12:38.195Z</time>
      </trkpt>
      <trkpt lat="42.771878242492676" lon="1.713942289352417">
        <ele>572.3287888411038</ele>
        <time>2021-07-15T01:12:53.711Z</time>
      </trkpt>
      <trkpt lat="42.77208209037781" lon="1.710820198059082">
        <ele>570.9561911886874</ele>
        <time>2021-07-15T01:13:09.264Z</time>
      </trkpt>
      <trkpt lat="42.77210363186896" lon="1.71036958694458">
        <ele>569.7068511387984</ele>
        <time>2021-07-15T01:13:24.822Z</time>
      </trkpt>
      <trkpt lat="42.77210363186896" lon="1.7103266716003418">
        <ele>568.472827993825</ele>
        <time>2021-07-15T01:13:40.381Z</time>
      </trkpt>
      <trkpt lat="42.77211436070502" lon="1.7101871967315674">
        <ele>567.3290947894375</ele>
        <time>2021-07-15T01:13:55.942Z</time>
      </trkpt>
      <trkpt lat="42.7721465472132" lon="1.7096614837646484">
        <ele>566.2833974424136</ele>
        <time>2021-07-15T01:14:11.509Z</time>
      </trkpt>
      <trkpt lat="42.7722430229187" lon="1.7086207866668701">
        <ele>565.3593538665162</ele>
        <time>2021-07-15T01:14:27.088Z</time>
      </trkpt>
      <trkpt lat="42.77233958244324" lon="1.7081594467163086">
        <ele>564.4926376332262</ele>
        <time>2021-07-15T01:14:42.673Z</time>
      </trkpt>
      <trkpt lat="42.77284383773804" lon="1.7064642906188965">
        <ele>563.8330846683934</ele>
        <time>2021-07-15T01:14:58.279Z</time>
      </trkpt>
      <trkpt lat="42.77288683690131" lon="1.7062711715698242">
        <ele>562.9782618145684</ele>
        <time>2021-07-15T01:15:13.888Z</time>
      </trkpt>
      <trkpt lat="42.772886753082275" lon="1.7062711715698242">
        <ele>562.1462964081768</ele>
        <time>2021-07-15T01:15:29.497Z</time>
      </trkpt>
      <trkpt lat="42.77313360013068" lon="1.705026626586914">
        <ele>561.4237320972644</ele>
        <time>2021-07-15T01:15:45.121Z</time>
      </trkpt>
      <trkpt lat="42.7734983805567" lon="1.703106164932251">
        <ele>560.6691190322899</ele>
        <time>2021-07-15T01:16:00.768Z</time>
      </trkpt>
      <trkpt lat="42.773637771606445" lon="1.7021727561950684">
        <ele>559.9416174675735</ele>
        <time>2021-07-15T01:16:16.426Z</time>
      </trkpt>
      <trkpt lat="42.77378797531128" lon="1.7012286186218262">
        <ele>559.158337869078</ele>
        <time>2021-07-15T01:16:32.096Z</time>
      </trkpt>
      <trkpt lat="42.773863077163696" lon="1.7009389400482178">
        <ele>558.3068601307741</ele>
        <time>2021-07-15T01:16:47.769Z</time>
      </trkpt>
      <trkpt lat="42.77400255203247" lon="1.700606346130371">
        <ele>557.4756294578787</ele>
        <time>2021-07-15T01:17:03.447Z</time>
      </trkpt>
      <trkpt lat="42.77497887611389" lon="1.6986966133117676">
        <ele>556.3162632366148</ele>
        <time>2021-07-15T01:17:19.152Z</time>
      </trkpt>
      <trkpt lat="42.77556896209717" lon="1.6974198818206787">
        <ele>555.679680739001</ele>
        <time>2021-07-15T01:17:34.875Z</time>
      </trkpt>
      <trkpt lat="42.775880098342896" lon="1.696990728378296">
        <ele>555.0676685803819</ele>
        <time>2021-07-15T01:17:50.605Z</time>
      </trkpt>
      <trkpt lat="42.77608394622803" lon="1.6967976093292236">
        <ele>554.5830370929348</ele>
        <time>2021-07-15T01:18:06.339Z</time>
      </trkpt>
      <trkpt lat="42.7763307094574" lon="1.6966581344604492">
        <ele>553.6713057163488</ele>
        <time>2021-07-15T01:18:22.077Z</time>
      </trkpt>
      <trkpt lat="42.77635216712952" lon="1.6966474056243896">
        <ele>552.9686017515755</ele>
        <time>2021-07-15T01:18:37.816Z</time>
      </trkpt>
      <trkpt lat="42.7772855758667" lon="1.6964328289031982">
        <ele>551.8132550723896</ele>
        <time>2021-07-15T01:18:53.570Z</time>
      </trkpt>
      <trkpt lat="42.778379917144775" lon="1.6961216926574707">
        <ele>551.1138267357352</ele>
        <time>2021-07-15T01:19:09.342Z</time>
      </trkpt>
      <trkpt lat="42.77892708778381" lon="1.6959285736083984">
        <ele>550.5683791453956</ele>
        <time>2021-07-15T01:19:25.123Z</time>
      </trkpt>
      <trkpt lat="42.77901300229132" lon="1.6958427429199219">
        <ele>550.0021817387325</ele>
        <time>2021-07-15T01:19:40.906Z</time>
      </trkpt>
      <trkpt lat="42.77946352958679" lon="1.69539213180542">
        <ele>549.6406423957125</ele>
        <time>2021-07-15T01:19:56.698Z</time>
      </trkpt>
      <trkpt lat="42.78034329414368" lon="1.6945874691009521">
        <ele>548.8528293082497</ele>
        <time>2021-07-15T01:20:12.507Z</time>
      </trkpt>
      <trkpt lat="42.780654430389404" lon="1.6942119598388672">
        <ele>548.2416520336053</ele>
        <time>2021-07-15T01:20:28.322Z</time>
      </trkpt>
      <trkpt lat="42.780654514208436" lon="1.6942119598388672">
        <ele>547.6771753518699</ele>
        <time>2021-07-15T01:20:44.137Z</time>
      </trkpt>
      <trkpt lat="42.780869007110596" lon="1.6941475868225098">
        <ele>546.8696898855906</ele>
        <time>2021-07-15T01:20:59.956Z</time>
      </trkpt>
      <trkpt lat="42.781351804733276" lon="1.6941368579864502">
        <ele>546.2932889320662</ele>
        <time>2021-07-15T01:21:15.782Z</time>
      </trkpt>
      <trkpt lat="42.782156467437744" lon="1.6940617561340332">
        <ele>545.7911504271276</ele>
        <time>2021-07-15T01:21:31.621Z</time>
      </trkpt>
      <trkpt lat="42.782875299453735" lon="1.693965196609497">
        <ele>545.3411805599903</ele>
        <time>2021-07-15T01:21:47.472Z</time>
      </trkpt>
      <trkpt lat="42.783111333847046" lon="1.6939222812652588">
        <ele>544.8766340658156</ele>
        <time>2021-07-15T01:22:03.327Z</time>
      </trkpt>
      <trkpt lat="42.78326153755188" lon="1.6938471794128418">
        <ele>544.4522686692367</ele>
        <time>2021-07-15T01:22:19.184Z</time>
      </trkpt>
      <trkpt lat="42.783401012420654" lon="1.6937506198883057">
        <ele>543.998103419462</ele>
        <time>2021-07-15T01:22:35.044Z</time>
      </trkpt>
      <trkpt lat="42.78351902961731" lon="1.6936218738555908">
        <ele>543.6428188592262</ele>
        <time>2021-07-15T01:22:50.906Z</time>
      </trkpt>
      <trkpt lat="42.78370141983032" lon="1.6933107376098633">
        <ele>543.2682626505392</ele>
        <time>2021-07-15T01:23:06.773Z</time>
      </trkpt>
      <trkpt lat="42.78379797935486" lon="1.6930532455444336">
        <ele>542.8664054227061</ele>
        <time>2021-07-15T01:23:22.643Z</time>
      </trkpt>
      <trkpt lat="42.783873081207275" lon="1.6927635669708252">
        <ele>542.5392045348415</ele>
        <time>2021-07-15T01:23:38.517Z</time>
      </trkpt>
      <trkpt lat="42.78445243835449" lon="1.6894912719726562">
        <ele>541.8334237422638</ele>
        <time>2021-07-15T01:23:54.431Z</time>
      </trkpt>
      <trkpt lat="42.78451689518988" lon="1.6892445087432861">
        <ele>541.50913899344</ele>
        <time>2021-07-15T01:24:10.348Z</time>
      </trkpt>
      <trkpt lat="42.78475292958319" lon="1.6886436939239502">
        <ele>541.1415208781386</ele>
        <time>2021-07-15T01:24:26.273Z</time>
      </trkpt>
      <trkpt lat="42.784849405288696" lon="1.6884291172027588">
        <ele>540.8505179737231</ele>
        <time>2021-07-15T01:24:42.201Z</time>
      </trkpt>
      <trkpt lat="42.78488167561591" lon="1.688246726989746">
        <ele>540.568443936419</ele>
        <time>2021-07-15T01:24:58.131Z</time>
      </trkpt>
      <trkpt lat="42.78503179550171" lon="1.687098741531372">
        <ele>540.2029150370631</ele>
        <time>2021-07-15T01:25:14.075Z</time>
      </trkpt>
      <trkpt lat="42.78503187932074" lon="1.687098741531372">
        <ele>539.9206016746804</ele>
        <time>2021-07-15T01:25:30.019Z</time>
      </trkpt>
      <trkpt lat="42.78520345687866" lon="1.6861653327941895">
        <ele>539.5867209339365</ele>
        <time>2021-07-15T01:25:45.974Z</time>
      </trkpt>
      <trkpt lat="42.78523572720587" lon="1.6861438751220703">
        <ele>539.3145372212507</ele>
        <time>2021-07-15T01:26:01.929Z</time>
      </trkpt>
      <trkpt lat="42.78522491455078" lon="1.6860902309417725">
        <ele>539.0379096605371</ele>
        <time>2021-07-15T01:26:17.885Z</time>
      </trkpt>
      <trkpt lat="42.785396659746766" lon="1.68540358543396">
        <ele>538.7283796171401</ele>
        <time>2021-07-15T01:26:33.850Z</time>
      </trkpt>
      <trkpt lat="42.785804271698" lon="1.6835153102874756">
        <ele>538.5146862292975</ele>
        <time>2021-07-15T01:26:49.838Z</time>
      </trkpt>
      <trkpt lat="42.78580435551703" lon="1.6835153102874756">
        <ele>538.2063679425066</ele>
        <time>2021-07-15T01:27:05.826Z</time>
      </trkpt>
      <trkpt lat="42.78658756054938" lon="1.679931879043579">
        <ele>537.7719826013247</ele>
        <time>2021-07-15T01:27:21.858Z</time>
      </trkpt>
      <trkpt lat="42.786694848909974" lon="1.6794812679290771">
        <ele>537.3968117036895</ele>
        <time>2021-07-15T01:27:37.896Z</time>
      </trkpt>
      <trkpt lat="42.78676986694336" lon="1.6791057586669922">
        <ele>537.038094169986</ele>
        <time>2021-07-15T01:27:53.938Z</time>
      </trkpt>
      <trkpt lat="42.78692007064819" lon="1.6784727573394775">
        <ele>536.8324377641163</ele>
        <time>2021-07-15T01:28:09.988Z</time>
      </trkpt>
      <trkpt lat="42.78695225715637" lon="1.6783547401428223">
        <ele>536.4291565768906</ele>
        <time>2021-07-15T01:28:26.039Z</time>
      </trkpt>
      <trkpt lat="42.78698444366455" lon="1.6782796382904053">
        <ele>535.9628329974346</ele>
        <time>2021-07-15T01:28:42.091Z</time>
      </trkpt>
      <trkpt lat="42.78707027435303" lon="1.6782045364379883">
        <ele>535.4369520158494</ele>
        <time>2021-07-15T01:28:58.145Z</time>
      </trkpt>
      <trkpt lat="42.78719902038574" lon="1.6781508922576904">
        <ele>534.9172631292524</ele>
        <time>2021-07-15T01:29:14.201Z</time>
      </trkpt>
      <trkpt lat="42.78757452964783" lon="1.6780650615692139">
        <ele>534.3881484761921</ele>
        <time>2021-07-15T01:29:30.263Z</time>
      </trkpt>
      <trkpt lat="42.78833627700806" lon="1.678086519241333">
        <ele>533.3504489701645</ele>
        <time>2021-07-15T01:29:46.337Z</time>
      </trkpt>
      <trkpt lat="42.78833636082709" lon="1.678086519241333">
        <ele>532.6433443461794</ele>
        <time>2021-07-15T01:30:02.412Z</time>
      </trkpt>
      <trkpt lat="42.78856158256531" lon="1.6780757904052734">
        <ele>531.8220765939648</ele>
        <time>2021-07-15T01:30:18.490Z</time>
      </trkpt>
      <trkpt lat="42.788625955581665" lon="1.6780543327331543">
        <ele>531.0519892546604</ele>
        <time>2021-07-15T01:30:34.569Z</time>
      </trkpt>
      <trkpt lat="42.789098024368286" lon="1.6776466369628906">
        <ele>530.2280274206189</ele>
        <time>2021-07-15T01:30:50.657Z</time>
      </trkpt>
      <trkpt lat="42.78925895690918" lon="1.6775500774383545">
        <ele>529.2399226964162</ele>
        <time>2021-07-15T01:31:06.748Z</time>
      </trkpt>
      <trkpt lat="42.78975248336792" lon="1.677260398864746">
        <ele>528.3238332625508</ele>
        <time>2021-07-15T01:31:22.848Z</time>
      </trkpt>
      <trkpt lat="42.79053568840027" lon="1.676863431930542">
        <ele>527.2490669230942</ele>
        <time>2021-07-15T01:31:38.961Z</time>
      </trkpt>
      <trkpt lat="42.792112827301025" lon="1.6759836673736572">
        <ele>526.1225409389479</ele>
        <time>2021-07-15T01:31:55.101Z</time>
      </trkpt>
      <trkpt lat="42.792638540267944" lon="1.6756618022918701">
        <ele>525.1078672432511</ele>
        <time>2021-07-15T01:32:11.250Z</time>
      </trkpt>
      <trkpt lat="42.792638624086976" lon="1.6756618022918701">
        <ele>524.1871939788605</ele>
        <time>2021-07-15T01:32:27.399Z</time>
      </trkpt>
      <trkpt lat="42.79379725456238" lon="1.675018072128296">
        <ele>523.1447857963153</ele>
        <time>2021-07-15T01:32:43.568Z</time>
      </trkpt>
      <trkpt lat="42.794344425201416" lon="1.674642562866211">
        <ele>522.1377911615037</ele>
        <time>2021-07-15T01:32:59.747Z</time>
      </trkpt>
      <trkpt lat="42.79452681541443" lon="1.6745460033416748">
        <ele>521.2391672956257</ele>
        <time>2021-07-15T01:33:15.929Z</time>
      </trkpt>
      <trkpt lat="42.79470928944647" lon="1.6744709014892578">
        <ele>520.3414218459948</ele>
        <time>2021-07-15T01:33:32.114Z</time>
      </trkpt>
      <trkpt lat="42.79480576515198" lon="1.6744279861450195">
        <ele>519.4442942712346</ele>
        <time>2021-07-15T01:33:48.301Z</time>
      </trkpt>
      <trkpt lat="42.794848680496216" lon="1.674363613128662">
        <ele>518.5592289781829</ele>
        <time>2021-07-15T01:34:04.489Z</time>
      </trkpt>
      <trkpt lat="42.79492378234863" lon="1.6741597652435303">
        <ele>517.6826125053135</ele>
        <time>2021-07-15T01:34:20.680Z</time>
      </trkpt>
      <trkpt lat="42.79497751034796" lon="1.6740846633911133">
        <ele>516.818493605354</ele>
        <time>2021-07-15T01:34:36.872Z</time>
      </trkpt>
      <trkpt lat="42.79497742652893" lon="1.6740846633911133">
        <ele>515.9693169072999</ele>
        <time>2021-07-15T01:34:53.064Z</time>
      </trkpt>
      <trkpt lat="42.795116901397705" lon="1.6737306118011475">
        <ele>515.097209644309</ele>
        <time>2021-07-15T01:35:09.261Z</time>
      </trkpt>
      <trkpt lat="42.795846462249756" lon="1.6720569133758545">
        <ele>514.2284047654349</ele>
        <time>2021-07-15T01:35:25.481Z</time>
      </trkpt>
      <trkpt lat="42.79654383659363" lon="1.670747995376587">
        <ele>513.4636736624378</ele>
        <time>2021-07-15T01:35:41.720Z</time>
      </trkpt>
      <trkpt lat="42.79727339744568" lon="1.6691601276397705">
        <ele>512.65907953121</ele>
        <time>2021-07-15T01:35:57.981Z</time>
      </trkpt>
      <trkpt lat="42.79745578765869" lon="1.6687309741973877">
        <ele>511.8974790421855</ele>
        <time>2021-07-15T01:36:14.248Z</time>
      </trkpt>
      <trkpt lat="42.79758461751044" lon="1.6683554649353027">
        <ele>511.0631932060164</ele>
        <time>2021-07-15T01:36:30.519Z</time>
      </trkpt>
      <trkpt lat="42.79770255088806" lon="1.6679906845092773">
        <ele>510.3270832208566</ele>
        <time>2021-07-15T01:36:46.795Z</time>
      </trkpt>
      <trkpt lat="42.79778838157654" lon="1.6676580905914307">
        <ele>509.6132418164691</ele>
        <time>2021-07-15T01:37:03.075Z</time>
      </trkpt>
      <trkpt lat="42.798357009887695" lon="1.6648149490356445">
        <ele>508.68825810205175</ele>
        <time>2021-07-15T01:37:19.390Z</time>
      </trkpt>
      <trkpt lat="42.798850536346436" lon="1.6624116897583008">
        <ele>508.0786458190139</ele>
        <time>2021-07-15T01:37:35.734Z</time>
      </trkpt>
      <trkpt lat="42.7991081122309" lon="1.6609740257263184">
        <ele>507.4273181190558</ele>
        <time>2021-07-15T01:37:52.096Z</time>
      </trkpt>
      <trkpt lat="42.79911884106696" lon="1.66093111038208">
        <ele>506.85482201493994</ele>
        <time>2021-07-15T01:38:08.458Z</time>
      </trkpt>
      <trkpt lat="42.799333333969116" lon="1.6596651077270508">
        <ele>506.26252090104697</ele>
        <time>2021-07-15T01:38:24.836Z</time>
      </trkpt>
      <trkpt lat="42.79944062232971" lon="1.6588497161865234">
        <ele>505.6635613743282</ele>
        <time>2021-07-15T01:38:41.223Z</time>
      </trkpt>
      <trkpt lat="42.7997088432312" lon="1.6570687294006348">
        <ele>505.1852439574204</ele>
        <time>2021-07-15T01:38:57.632Z</time>
      </trkpt>
      <trkpt lat="42.80000925064087" lon="1.6552233695983887">
        <ele>504.70293710993485</ele>
        <time>2021-07-15T01:39:14.063Z</time>
      </trkpt>
      <trkpt lat="42.80017018318176" lon="1.654418706893921">
        <ele>504.2561868447566</ele>
        <time>2021-07-15T01:39:30.504Z</time>
      </trkpt>
      <trkpt lat="42.800352573394775" lon="1.6537535190582275">
        <ele>503.88419949739347</ele>
        <time>2021-07-15T01:39:46.953Z</time>
      </trkpt>
      <trkpt lat="42.800384759902954" lon="1.6534960269927979">
        <ele>503.5194146471498</ele>
        <time>2021-07-15T01:40:03.405Z</time>
      </trkpt>
      <trkpt lat="42.800406301394105" lon="1.6529381275177002">
        <ele>503.1461756142711</ele>
        <time>2021-07-15T01:40:19.864Z</time>
      </trkpt>
      <trkpt lat="42.80040621757507" lon="1.6529381275177002">
        <ele>502.751681946647</ele>
        <time>2021-07-15T01:40:36.323Z</time>
      </trkpt>
      <trkpt lat="42.80045986175537" lon="1.6526269912719727">
        <ele>502.3469358390585</ele>
        <time>2021-07-15T01:40:52.786Z</time>
      </trkpt>
      <trkpt lat="42.800610065460205" lon="1.6520369052886963">
        <ele>501.88508075039124</ele>
        <time>2021-07-15T01:41:09.256Z</time>
      </trkpt>
      <trkpt lat="42.80070662498474" lon="1.6517257690429688">
        <ele>501.497747735645</ele>
        <time>2021-07-15T01:41:25.730Z</time>
      </trkpt>
      <trkpt lat="42.800846099853516" lon="1.6514360904693604">
        <ele>501.11222397756467</ele>
        <time>2021-07-15T01:41:42.208Z</time>
      </trkpt>
      <trkpt lat="42.80102849006653" lon="1.6511142253875732">
        <ele>500.8273470784834</ele>
        <time>2021-07-15T01:41:58.691Z</time>
      </trkpt>
      <trkpt lat="42.80153274536133" lon="1.6504919528961182">
        <ele>500.41839219193264</ele>
        <time>2021-07-15T01:42:15.185Z</time>
      </trkpt>
      <trkpt lat="42.80171513557434" lon="1.6503524780273438">
        <ele>499.93367266763244</ele>
        <time>2021-07-15T01:42:31.682Z</time>
      </trkpt>
      <trkpt lat="42.80225157737732" lon="1.6497087478637695">
        <ele>499.5208141548171</ele>
        <time>2021-07-15T01:42:48.191Z</time>
      </trkpt>
      <trkpt lat="42.80327081680298" lon="1.6485071182250977">
        <ele>499.1987484862973</ele>
        <time>2021-07-15T01:43:04.721Z</time>
      </trkpt>
      <trkpt lat="42.80504115857184" lon="1.646275520324707">
        <ele>498.23355912681905</ele>
        <time>2021-07-15T01:43:21.290Z</time>
      </trkpt>
      <trkpt lat="42.80504107475281" lon="1.646275520324707">
        <ele>497.7789757000878</ele>
        <time>2021-07-15T01:43:37.859Z</time>
      </trkpt>
      <trkpt lat="42.80947208404541" lon="1.640610694885254">
        <ele>497.36383658720933</ele>
        <time>2021-07-15T01:43:54.525Z</time>
      </trkpt>
      <trkpt lat="42.80975103378296" lon="1.6402244567871094">
        <ele>496.94410721563656</ele>
        <time>2021-07-15T01:44:11.198Z</time>
      </trkpt>
      <trkpt lat="42.81005144119263" lon="1.6397202014923096">
        <ele>496.35041493193603</ele>
        <time>2021-07-15T01:44:27.878Z</time>
      </trkpt>
      <trkpt lat="42.81394600868225" lon="1.6325533390045166">
        <ele>495.5952009430989</ele>
        <time>2021-07-15T01:44:44.663Z</time>
      </trkpt>
      <trkpt lat="42.8142786026001" lon="1.6319310665130615">
        <ele>495.01210151689304</ele>
        <time>2021-07-15T01:45:01.457Z</time>
      </trkpt>
      <trkpt lat="42.81545877456665" lon="1.6295278072357178">
        <ele>494.83041658347094</ele>
        <time>2021-07-15T01:45:18.285Z</time>
      </trkpt>
      <trkpt lat="42.815576791763306" lon="1.6292381286621094">
        <ele>494.3096652918699</ele>
        <time>2021-07-15T01:45:35.117Z</time>
      </trkpt>
      <trkpt lat="42.81604894436896" lon="1.628326177597046">
        <ele>493.6737300657696</ele>
        <time>2021-07-15T01:45:51.962Z</time>
      </trkpt>
      <trkpt lat="42.81667113304138" lon="1.6271138191223145">
        <ele>493.2002742693072</ele>
        <time>2021-07-15T01:46:08.825Z</time>
      </trkpt>
      <trkpt lat="42.8177011013031" lon="1.625000238418579">
        <ele>493.3368262855569</ele>
        <time>2021-07-15T01:46:25.717Z</time>
      </trkpt>
      <trkpt lat="42.818334102630615" lon="1.6237342357635498">
        <ele>492.882946884596</ele>
        <time>2021-07-15T01:46:42.627Z</time>
      </trkpt>
      <trkpt lat="42.818570137023926" lon="1.6233587265014648">
        <ele>492.41552513914337</ele>
        <time>2021-07-15T01:46:59.543Z</time>
      </trkpt>
      <trkpt lat="42.818870544433594" lon="1.6229188442230225">
        <ele>492.1840688364788</ele>
        <time>2021-07-15T01:47:16.466Z</time>
      </trkpt>
      <trkpt lat="42.81927824020386" lon="1.62247896194458">
        <ele>491.2987001596222</ele>
        <time>2021-07-15T01:47:33.398Z</time>
      </trkpt>
      <trkpt lat="42.81964302062988" lon="1.6221356391906738">
        <ele>490.8005929583791</ele>
        <time>2021-07-15T01:47:50.337Z</time>
      </trkpt>
      <trkpt lat="42.81987905502319" lon="1.6219747066497803">
        <ele>490.31009329520043</ele>
        <time>2021-07-15T01:48:07.280Z</time>
      </trkpt>
      <trkpt lat="42.820115089416504" lon="1.6218245029449463">
        <ele>489.8802893658235</ele>
        <time>2021-07-15T01:48:24.227Z</time>
      </trkpt>
      <trkpt lat="42.82063007354736" lon="1.621556282043457">
        <ele>489.58143798025753</ele>
        <time>2021-07-15T01:48:41.183Z</time>
      </trkpt>
      <trkpt lat="42.82118805684149" lon="1.6211915016174316">
        <ele>489.39557420701885</ele>
        <time>2021-07-15T01:48:58.149Z</time>
      </trkpt>
      <trkpt lat="42.821820974349976" lon="1.6207194328308105">
        <ele>489.2532489683291</ele>
        <time>2021-07-15T01:49:15.126Z</time>
      </trkpt>
      <trkpt lat="42.822593534365296" lon="1.6201722621917725">
        <ele>489.1851491499268</ele>
        <time>2021-07-15T01:49:32.117Z</time>
      </trkpt>
      <trkpt lat="42.82408484257758" lon="1.6190457344055176">
        <ele>489.3333118085824</ele>
        <time>2021-07-15T01:49:49.136Z</time>
      </trkpt>
      <trkpt lat="42.82493242062628" lon="1.6184020042419434">
        <ele>489.39907458519974</ele>
        <time>2021-07-15T01:50:06.170Z</time>
      </trkpt>
      <trkpt lat="42.82493233680725" lon="1.6184020042419434">
        <ele>489.5154943349336</ele>
        <time>2021-07-15T01:50:23.204Z</time>
      </trkpt>
      <trkpt lat="42.82570481300354" lon="1.617811918258667">
        <ele>489.6609802586471</ele>
        <time>2021-07-15T01:50:40.252Z</time>
      </trkpt>
      <trkpt lat="42.82601594924927" lon="1.6175007820129395">
        <ele>489.8333998610749</ele>
        <time>2021-07-15T01:50:57.307Z</time>
      </trkpt>
      <trkpt lat="42.82653101719916" lon="1.6168248653411865">
        <ele>490.14040895964433</ele>
        <time>2021-07-15T01:51:14.373Z</time>
      </trkpt>
      <trkpt lat="42.8271210193634" lon="1.616041660308838">
        <ele>490.6409250209829</ele>
        <time>2021-07-15T01:51:31.452Z</time>
      </trkpt>
      <trkpt lat="42.827614545822144" lon="1.615365743637085">
        <ele>490.8337712133882</ele>
        <time>2021-07-15T01:51:48.542Z</time>
      </trkpt>
      <trkpt lat="42.82801151275635" lon="1.6147541999816895">
        <ele>491.16822820873847</ele>
        <time>2021-07-15T01:52:05.642Z</time>
      </trkpt>
      <trkpt lat="42.83018946647644" lon="1.6111278533935547">
        <ele>491.4048884858618</ele>
        <time>2021-07-15T01:52:22.797Z</time>
      </trkpt>
      <trkpt lat="42.83076890744269" lon="1.610119342803955">
        <ele>491.7366200390538</ele>
        <time>2021-07-15T01:52:39.967Z</time>
      </trkpt>
      <trkpt lat="42.83101558685303" lon="1.6098403930664062">
        <ele>491.6895764698901</ele>
        <time>2021-07-15T01:52:57.142Z</time>
      </trkpt>
      <trkpt lat="42.83144474029541" lon="1.6094112396240234">
        <ele>492.0934994058629</ele>
        <time>2021-07-15T01:53:14.326Z</time>
      </trkpt>
      <trkpt lat="42.83186316490173" lon="1.608896255493164">
        <ele>492.0586656309348</ele>
        <time>2021-07-15T01:53:31.519Z</time>
      </trkpt>
      <trkpt lat="42.8322172164917" lon="1.6085100173950195">
        <ele>492.32538124087296</ele>
        <time>2021-07-15T01:53:48.719Z</time>
      </trkpt>
      <trkpt lat="42.83252835273743" lon="1.608273983001709">
        <ele>491.92686221216013</ele>
        <time>2021-07-15T01:54:05.925Z</time>
      </trkpt>
      <trkpt lat="42.83295750617981" lon="1.6079843044281006">
        <ele>491.9854651138554</ele>
        <time>2021-07-15T01:54:23.139Z</time>
      </trkpt>
      <trkpt lat="42.8337836265564" lon="1.60750150680542">
        <ele>491.7796827755783</ele>
        <time>2021-07-15T01:54:40.367Z</time>
      </trkpt>
      <trkpt lat="42.83413767814636" lon="1.607372760772705">
        <ele>491.5418556938015</ele>
        <time>2021-07-15T01:54:57.601Z</time>
      </trkpt>
      <trkpt lat="42.834813594818115" lon="1.6072332859039307">
        <ele>491.4567604842342</ele>
        <time>2021-07-15T01:55:14.846Z</time>
      </trkpt>
      <trkpt lat="42.83497452735901" lon="1.6071689128875732">
        <ele>491.3764857477196</ele>
        <time>2021-07-15T01:55:32.093Z</time>
      </trkpt>
      <trkpt lat="42.83521056175232" lon="1.6070294380187988">
        <ele>491.3154221948431</ele>
        <time>2021-07-15T01:55:49.345Z</time>
      </trkpt>
      <trkpt lat="42.836594665423036" lon="1.6060101985931396">
        <ele>490.9323981283851</ele>
        <time>2021-07-15T01:56:06.622Z</time>
      </trkpt>
      <trkpt lat="42.836594581604004" lon="1.6060101985931396">
        <ele>490.84214301832446</ele>
        <time>2021-07-15T01:56:23.899Z</time>
      </trkpt>
      <trkpt lat="42.836787700653076" lon="1.6058707237243652">
        <ele>490.71186733430113</ele>
        <time>2021-07-15T01:56:41.179Z</time>
      </trkpt>
      <trkpt lat="42.837098836898804" lon="1.6055810451507568">
        <ele>490.5844545291331</ele>
        <time>2021-07-15T01:56:58.465Z</time>
      </trkpt>
      <trkpt lat="42.83727049827576" lon="1.6053235530853271">
        <ele>490.44584725000016</ele>
        <time>2021-07-15T01:57:15.755Z</time>
      </trkpt>
      <trkpt lat="42.83745288848877" lon="1.6049909591674805">
        <ele>490.28015435013816</ele>
        <time>2021-07-15T01:57:33.050Z</time>
      </trkpt>
      <trkpt lat="42.83768892288208" lon="1.6044974327087402">
        <ele>490.0283888395667</ele>
        <time>2021-07-15T01:57:50.352Z</time>
      </trkpt>
      <trkpt lat="42.837785482406616" lon="1.6045188903808594">
        <ele>489.72068375261586</ele>
        <time>2021-07-15T01:58:07.656Z</time>
      </trkpt>
      <trkpt lat="42.83786058425903" lon="1.604475975036621">
        <ele>489.3955717506443</ele>
        <time>2021-07-15T01:58:24.961Z</time>
      </trkpt>
      <trkpt lat="42.83789277076721" lon="1.6044116020202637">
        <ele>489.0490987515354</ele>
        <time>2021-07-15T01:58:42.267Z</time>
      </trkpt>
      <trkpt lat="42.83790349960327" lon="1.6043365001678467">
        <ele>488.66788286490754</ele>
        <time>2021-07-15T01:58:59.574Z</time>
      </trkpt>
      <trkpt lat="42.83789277076721" lon="1.6042506694793701">
        <ele>488.24673071927106</ele>
        <time>2021-07-15T01:59:16.882Z</time>
      </trkpt>
      <trkpt lat="42.837849855422974" lon="1.604154109954834">
        <ele>487.7830344530475</ele>
        <time>2021-07-15T01:59:34.191Z</time>
      </trkpt>
      <trkpt lat="42.8380108717829" lon="1.603853702545166">
        <ele>487.2312875548363</ele>
        <time>2021-07-15T01:59:51.505Z</time>
      </trkpt>
      <trkpt lat="42.838332736864686" lon="1.6035103797912598">
        <ele>486.6165074312296</ele>
        <time>2021-07-15T02:00:08.825Z</time>
      </trkpt>
      <trkpt lat="42.8389120940119" lon="1.6029417514801025">
        <ele>485.970508263383</ele>
        <time>2021-07-15T02:00:26.157Z</time>
      </trkpt>
      <trkpt lat="42.83891201019287" lon="1.6029417514801025">
        <ele>485.4265679199537</ele>
        <time>2021-07-15T02:00:43.489Z</time>
      </trkpt>
      <trkpt lat="42.8392231464386" lon="1.6028237342834473">
        <ele>484.822785941272</ele>
        <time>2021-07-15T02:01:00.826Z</time>
      </trkpt>
      <trkpt lat="42.8396737575531" lon="1.602705717086792">
        <ele>484.2304021429004</ele>
        <time>2021-07-15T02:01:18.170Z</time>
      </trkpt>
      <trkpt lat="42.84023174084723" lon="1.6026091575622559">
        <ele>483.6163729317162</ele>
        <time>2021-07-15T02:01:35.523Z</time>
      </trkpt>
      <trkpt lat="42.8406286239624" lon="1.602555513381958">
        <ele>482.99206671840716</ele>
        <time>2021-07-15T02:01:52.882Z</time>
      </trkpt>
      <trkpt lat="42.84178742207587" lon="1.602330207824707">
        <ele>482.38421158097293</ele>
        <time>2021-07-15T02:02:10.260Z</time>
      </trkpt>
      <trkpt lat="42.84265645779669" lon="1.6021692752838135">
        <ele>481.9290314824841</ele>
        <time>2021-07-15T02:02:27.652Z</time>
      </trkpt>
      <trkpt lat="42.84314998425543" lon="1.6020727157592773">
        <ele>481.52088814998183</ele>
        <time>2021-07-15T02:02:45.052Z</time>
      </trkpt>
      <trkpt lat="42.843568325042725" lon="1.6019976139068604">
        <ele>481.06998951397173</ele>
        <time>2021-07-15T02:03:02.459Z</time>
      </trkpt>
      <trkpt lat="42.84389027394354" lon="1.6019225120544434">
        <ele>480.67911323522185</ele>
        <time>2021-07-15T02:03:19.871Z</time>
      </trkpt>
      <trkpt lat="42.84389019012451" lon="1.6019225120544434">
        <ele>480.32877333729965</ele>
        <time>2021-07-15T02:03:37.283Z</time>
      </trkpt>
      <trkpt lat="42.84411549568176" lon="1.601858139038086">
        <ele>479.9845251674658</ele>
        <time>2021-07-15T02:03:54.699Z</time>
      </trkpt>
      <trkpt lat="42.84469485282898" lon="1.6015684604644775">
        <ele>479.6813455535257</ele>
        <time>2021-07-15T02:04:12.125Z</time>
      </trkpt>
      <trkpt lat="42.84488797187805" lon="1.6014289855957031">
        <ele>479.37796778640904</ele>
        <time>2021-07-15T02:04:29.554Z</time>
      </trkpt>
      <trkpt lat="42.84512400627136" lon="1.6010534763336182">
        <ele>479.08551740385735</ele>
        <time>2021-07-15T02:04:46.989Z</time>
      </trkpt>
      <trkpt lat="42.84519910812378" lon="1.601107120513916">
        <ele>478.7592967123406</ele>
        <time>2021-07-15T02:05:04.425Z</time>
      </trkpt>
      <trkpt lat="42.845274209976196" lon="1.6010856628417969">
        <ele>478.4535026975515</ele>
        <time>2021-07-15T02:05:21.863Z</time>
      </trkpt>
      <trkpt lat="42.845349395647645" lon="1.60125732421875">
        <ele>478.151007078156</ele>
        <time>2021-07-15T02:05:39.303Z</time>
      </trkpt>
      <trkpt lat="42.84547805786133" lon="1.601557731628418">
        <ele>477.8705292388007</ele>
        <time>2021-07-15T02:05:56.747Z</time>
      </trkpt>
      <trkpt lat="42.84593939781189" lon="1.6027164459228516">
        <ele>477.6247661801267</ele>
        <time>2021-07-15T02:06:14.207Z</time>
      </trkpt>
      <trkpt lat="42.84593939781189" lon="1.6029095649719238">
        <ele>477.4678795247596</ele>
        <time>2021-07-15T02:06:31.669Z</time>
      </trkpt>
      <trkpt lat="42.84591794013977" lon="1.603177785873413">
        <ele>477.33510585800013</ele>
        <time>2021-07-15T02:06:49.134Z</time>
      </trkpt>
      <trkpt lat="42.84589648246765" lon="1.603403091430664">
        <ele>477.21770388947266</ele>
        <time>2021-07-15T02:07:06.602Z</time>
      </trkpt>
      <trkpt lat="42.84590721130371" lon="1.603531837463379">
        <ele>477.10914260742175</ele>
        <time>2021-07-15T02:07:24.071Z</time>
      </trkpt>
      <trkpt lat="42.84593939781189" lon="1.603606939315796">
        <ele>477.01794984612366</ele>
        <time>2021-07-15T02:07:41.541Z</time>
      </trkpt>
      <trkpt lat="42.84591651521623" lon="1.6036488488316536">
        <ele>476.9476318989051</ele>
        <time>2021-07-15T02:07:59.012Z</time>
      </trkpt>
      <trkpt lat="42.84593939781189" lon="1.603606939315796">
        <ele>475.21657562075393</ele>
        <time>2021-07-14T19:36:26.000Z</time>
      </trkpt>
      <trkpt lat="42.84600377082825" lon="1.6036605834960938">
        <ele>475.09267670872237</ele>
        <time>2021-07-14T19:36:26.001Z</time>
      </trkpt>
      <trkpt lat="42.84626126289368" lon="1.6037464141845703">
        <ele>474.80520042461205</ele>
        <time>2021-07-14T19:36:26.006Z</time>
      </trkpt>
      <trkpt lat="42.846347177401185" lon="1.6037893295288086">
        <ele>474.55999891852423</ele>
        <time>2021-07-14T19:36:26.013Z</time>
      </trkpt>
      <trkpt lat="42.84641146659851" lon="1.6038858890533447">
        <ele>474.3291414788374</ele>
        <time>2021-07-14T19:36:26.021Z</time>
      </trkpt>
      <trkpt lat="42.84650810994208" lon="1.6041004657745361">
        <ele>474.1926955338904</ele>
        <time>2021-07-14T19:36:26.032Z</time>
      </trkpt>
      <trkpt lat="42.846572482958436" lon="1.6042721271514893">
        <ele>474.1455902905567</ele>
        <time>2021-07-14T19:36:26.046Z</time>
      </trkpt>
      <trkpt lat="42.846829891204834" lon="1.604905128479004">
        <ele>474.4563950948051</ele>
        <time>2021-07-14T19:36:26.068Z</time>
      </trkpt>
      <trkpt lat="42.84690499305725" lon="1.6050446033477783">
        <ele>474.6486736946098</ele>
        <time>2021-07-14T19:36:26.092Z</time>
      </trkpt>
      <trkpt lat="42.847055196762085" lon="1.6048729419708252">
        <ele>474.79375508585133</ele>
        <time>2021-07-14T19:36:26.119Z</time>
      </trkpt>
      <trkpt lat="42.84734487533569" lon="1.6041326522827148">
        <ele>474.5466141432771</ele>
        <time>2021-07-14T19:36:26.156Z</time>
      </trkpt>
      <trkpt lat="42.84745216369629" lon="1.6038644313812256">
        <ele>474.30354718987815</ele>
        <time>2021-07-14T19:36:26.197Z</time>
      </trkpt>
      <trkpt lat="42.84760236740112" lon="1.6035854816436768">
        <ele>474.1840210584426</ele>
        <time>2021-07-14T19:36:26.242Z</time>
      </trkpt>
      <trkpt lat="42.8476345539093" lon="1.6035103797912598">
        <ele>474.0896930421526</ele>
        <time>2021-07-14T19:36:26.288Z</time>
      </trkpt>
      <trkpt lat="42.84764528274536" lon="1.6034245491027832">
        <ele>474.0311944644881</ele>
        <time>2021-07-14T19:36:26.335Z</time>
      </trkpt>
      <trkpt lat="42.84762382507324" lon="1.6032099723815918">
        <ele>473.9978563310245</ele>
        <time>2021-07-14T19:36:26.384Z</time>
      </trkpt>
      <trkpt lat="42.847559452056885" lon="1.602855920791626">
        <ele>473.9201629503301</ele>
        <time>2021-07-14T19:36:26.438Z</time>
      </trkpt>
      <trkpt lat="42.84750580787659" lon="1.6027700901031494">
        <ele>473.8948528896424</ele>
        <time>2021-07-14T19:36:26.493Z</time>
      </trkpt>
      <trkpt lat="42.84747362136841" lon="1.6027593612670898">
        <ele>473.90155007830793</ele>
        <time>2021-07-14T19:36:26.549Z</time>
      </trkpt>
      <trkpt lat="42.84722685813904" lon="1.6027915477752686">
        <ele>473.9990740827152</ele>
        <time>2021-07-14T19:36:26.609Z</time>
      </trkpt>
      <trkpt lat="42.84674414433539" lon="1.6028881072998047">
        <ele>473.83700804231336</ele>
        <time>2021-07-14T19:36:26.676Z</time>
      </trkpt>
      <trkpt lat="42.8464759234339" lon="1.602931022644043">
        <ele>473.8632633746001</ele>
        <time>2021-07-14T19:36:26.748Z</time>
      </trkpt>
      <trkpt lat="42.84616470336914" lon="1.6029846668243408">
        <ele>474.0402486017199</ele>
        <time>2021-07-14T19:36:26.825Z</time>
      </trkpt>
      <trkpt lat="42.846068143844604" lon="1.6029417514801025">
        <ele>474.17796825187304</ele>
        <time>2021-07-14T19:36:26.903Z</time>
      </trkpt>
      <trkpt lat="42.84593939781189" lon="1.6027164459228516">
        <ele>474.39874609075144</ele>
        <time>2021-07-14T19:36:26.985Z</time>
      </trkpt>
      <trkpt lat="42.84547805786133" lon="1.601557731628418">
        <ele>474.6920767660994</ele>
        <time>2021-07-14T19:36:27.082Z</time>
      </trkpt>
      <trkpt lat="42.845349395647645" lon="1.60125732421875">
        <ele>474.89586714923263</ele>
        <time>2021-07-14T19:36:27.183Z</time>
      </trkpt>
      <trkpt lat="42.84527429379523" lon="1.6010856628417969">
        <ele>475.09678162910905</ele>
        <time>2021-07-14T19:36:27.287Z</time>
      </trkpt>
      <trkpt lat="42.845327854156494" lon="1.6009998321533203">
        <ele>475.27352158546273</ele>
        <time>2021-07-14T19:36:27.392Z</time>
      </trkpt>
      <trkpt lat="42.845327854156494" lon="1.6008925437927246">
        <ele>475.4498801854757</ele>
        <time>2021-07-14T19:36:27.498Z</time>
      </trkpt>
      <trkpt lat="42.84560680389404" lon="1.600785255432129">
        <ele>475.5500438164146</ele>
        <time>2021-07-14T19:36:27.609Z</time>
      </trkpt>
      <trkpt lat="42.845821380615234" lon="1.6006457805633545">
        <ele>475.6772795884719</ele>
        <time>2021-07-14T19:36:27.724Z</time>
      </trkpt>
      <trkpt lat="42.846089685335755" lon="1.6004204750061035">
        <ele>475.7455442022399</ele>
        <time>2021-07-14T19:36:27.844Z</time>
      </trkpt>
      <trkpt lat="42.846282720565796" lon="1.600281000137329">
        <ele>475.7253587200273</ele>
        <time>2021-07-14T19:36:27.967Z</time>
      </trkpt>
      <trkpt lat="42.84666904248297" lon="1.6000664234161377">
        <ele>475.4927816248669</ele>
        <time>2021-07-14T19:36:28.097Z</time>
      </trkpt>
      <trkpt lat="42.847130382433534" lon="1.5999054908752441">
        <ele>475.3561037569009</ele>
        <time>2021-07-14T19:36:28.235Z</time>
      </trkpt>
      <trkpt lat="42.84747362136841" lon="1.5998303890228271">
        <ele>475.3896437218761</ele>
        <time>2021-07-14T19:36:28.378Z</time>
      </trkpt>
      <trkpt lat="42.84747370518744" lon="1.5998303890228271">
        <ele>475.39342862435046</ele>
        <time>2021-07-14T19:36:28.521Z</time>
      </trkpt>
      <trkpt lat="42.84893274307251" lon="1.5996265411376953">
        <ele>475.97678376799274</ele>
        <time>2021-07-14T19:36:28.688Z</time>
      </trkpt>
      <trkpt lat="42.84942626953125" lon="1.5995407104492188">
        <ele>476.24625148552946</ele>
        <time>2021-07-14T19:36:28.863Z</time>
      </trkpt>
      <trkpt lat="42.84993052482605" lon="1.5993690490722656">
        <ele>476.1940905425784</ele>
        <time>2021-07-14T19:36:29.046Z</time>
      </trkpt>
      <trkpt lat="42.850027084350586" lon="1.5993046760559082">
        <ele>476.2642276915017</ele>
        <time>2021-07-14T19:36:29.231Z</time>
      </trkpt>
      <trkpt lat="42.85009145736694" lon="1.5993475914001465">
        <ele>476.3036599077159</ele>
        <time>2021-07-14T19:36:29.417Z</time>
      </trkpt>
      <trkpt lat="42.85016655921936" lon="1.5993154048919678">
        <ele>476.43790239268696</ele>
        <time>2021-07-14T19:36:29.604Z</time>
      </trkpt>
      <trkpt lat="42.85018801689148" lon="1.59926176071167">
        <ele>476.6373760277952</ele>
        <time>2021-07-14T19:36:29.792Z</time>
      </trkpt>
      <trkpt lat="42.85018801689148" lon="1.5991652011871338">
        <ele>476.89080363798985</ele>
        <time>2021-07-14T19:36:29.981Z</time>
      </trkpt>
      <trkpt lat="42.85014510154724" lon="1.5991008281707764">
        <ele>477.23100417117416</ele>
        <time>2021-07-14T19:36:30.171Z</time>
      </trkpt>
      <trkpt lat="42.8502094745636" lon="1.5987467765808105">
        <ele>477.59376311370283</ele>
        <time>2021-07-14T19:36:30.365Z</time>
      </trkpt>
      <trkpt lat="42.85039194859564" lon="1.5981996059417725">
        <ele>478.0619095503303</ele>
        <time>2021-07-14T19:36:30.566Z</time>
      </trkpt>
      <trkpt lat="42.85043486393988" lon="1.598060131072998">
        <ele>478.54507030466596</ele>
        <time>2021-07-14T19:36:30.769Z</time>
      </trkpt>
      <trkpt lat="42.85068154335022" lon="1.5973305702209473">
        <ele>479.0326858359605</ele>
        <time>2021-07-14T19:36:30.981Z</time>
      </trkpt>
      <trkpt lat="42.85068162716925" lon="1.5973305702209473">
        <ele>479.54957306488427</ele>
        <time>2021-07-14T19:36:31.193Z</time>
      </trkpt>
      <trkpt lat="42.85153993405402" lon="1.5948843955993652">
        <ele>480.4518851516941</ele>
        <time>2021-07-14T19:36:31.437Z</time>
      </trkpt>
      <trkpt lat="42.85201200284064" lon="1.5935540199279785">
        <ele>481.66722857459854</ele>
        <time>2021-07-14T19:36:31.699Z</time>
      </trkpt>
      <trkpt lat="42.85214066505432" lon="1.5931892395019531">
        <ele>482.4204941278628</ele>
        <time>2021-07-14T19:36:31.965Z</time>
      </trkpt>
      <trkpt lat="42.85214074887335" lon="1.5931892395019531">
        <ele>483.15735235537744</ele>
        <time>2021-07-14T19:36:32.231Z</time>
      </trkpt>
      <trkpt lat="42.85238742828369" lon="1.5924382209777832">
        <ele>483.84119264300887</ele>
        <time>2021-07-14T19:36:32.507Z</time>
      </trkpt>
      <trkpt lat="42.85248407162726" lon="1.5922129154205322">
        <ele>484.47639587910436</ele>
        <time>2021-07-14T19:36:32.786Z</time>
      </trkpt>
      <trkpt lat="42.852580547332764" lon="1.5919876098632812">
        <ele>485.06459826902403</ele>
        <time>2021-07-14T19:36:33.068Z</time>
      </trkpt>
      <trkpt lat="42.85265564918518" lon="1.5918481349945068">
        <ele>485.6233316436384</ele>
        <time>2021-07-14T19:36:33.352Z</time>
      </trkpt>
      <trkpt lat="42.852784395217896" lon="1.5916764736175537">
        <ele>486.1510564132911</ele>
        <time>2021-07-14T19:36:33.639Z</time>
      </trkpt>
      <trkpt lat="42.85297751426697" lon="1.5916550159454346">
        <ele>486.6359919328979</ele>
        <time>2021-07-14T19:36:33.929Z</time>
      </trkpt>
      <trkpt lat="42.853117072954774" lon="1.5915477275848389">
        <ele>487.13106277034774</ele>
        <time>2021-07-14T19:36:34.222Z</time>
      </trkpt>
      <trkpt lat="42.85311698913574" lon="1.5915477275848389">
        <ele>487.5570192078651</ele>
        <time>2021-07-14T19:36:34.515Z</time>
      </trkpt>
      <trkpt lat="42.85325646400452" lon="1.5913331508636475">
        <ele>488.01996474282976</ele>
        <time>2021-07-14T19:36:34.811Z</time>
      </trkpt>
      <trkpt lat="42.853310108184814" lon="1.5911614894866943">
        <ele>488.4350285941125</ele>
        <time>2021-07-14T19:36:35.109Z</time>
      </trkpt>
      <trkpt lat="42.853320837020874" lon="1.5909790992736816">
        <ele>488.8154064073806</ele>
        <time>2021-07-14T19:36:35.410Z</time>
      </trkpt>
      <trkpt lat="42.853310192003846" lon="1.590871810913086">
        <ele>489.17292427169394</ele>
        <time>2021-07-14T19:36:35.712Z</time>
      </trkpt>
      <trkpt lat="42.853310108184814" lon="1.590871810913086">
        <ele>489.5238904672797</ele>
        <time>2021-07-14T19:36:36.014Z</time>
      </trkpt>
      <trkpt lat="42.853267192840576" lon="1.590721607208252">
        <ele>489.83520881136525</ele>
        <time>2021-07-14T19:36:36.318Z</time>
      </trkpt>
      <trkpt lat="42.85320281982422" lon="1.5905821323394775">
        <ele>490.13987362324406</ele>
        <time>2021-07-14T19:36:36.624Z</time>
      </trkpt>
      <trkpt lat="42.853074073791504" lon="1.5904533863067627">
        <ele>490.4652349412403</ele>
        <time>2021-07-14T19:36:36.932Z</time>
      </trkpt>
      <trkpt lat="42.853074073791504" lon="1.5902280807495117">
        <ele>490.86440724417787</ele>
        <time>2021-07-14T19:36:37.243Z</time>
      </trkpt>
      <trkpt lat="42.85308480262756" lon="1.5900778770446777">
        <ele>491.26458211329805</ele>
        <time>2021-07-14T19:36:37.556Z</time>
      </trkpt>
      <trkpt lat="42.85344958305359" lon="1.5893268585205078">
        <ele>491.85245759543386</ele>
        <time>2021-07-14T19:36:37.879Z</time>
      </trkpt>
      <trkpt lat="42.85354622639716" lon="1.5890586376190186">
        <ele>492.4610395145337</ele>
        <time>2021-07-14T19:36:38.206Z</time>
      </trkpt>
      <trkpt lat="42.85385727882385" lon="1.5881574153900146">
        <ele>493.1279469401211</ele>
        <time>2021-07-14T19:36:38.545Z</time>
      </trkpt>
      <trkpt lat="42.8541362285614" lon="1.5872454643249512">
        <ele>493.8187527879053</ele>
        <time>2021-07-14T19:36:38.895Z</time>
      </trkpt>
      <trkpt lat="42.85438299179077" lon="1.5866124629974365">
        <ele>494.5015200178019</ele>
        <time>2021-07-14T19:36:39.254Z</time>
      </trkpt>
      <trkpt lat="42.8543830756098" lon="1.5866124629974365">
        <ele>495.2069042186601</ele>
        <time>2021-07-14T19:36:39.613Z</time>
      </trkpt>
      <trkpt lat="42.85468339920044" lon="1.586000919342041">
        <ele>495.9924523811204</ele>
        <time>2021-07-14T19:36:39.980Z</time>
      </trkpt>
      <trkpt lat="42.855305671691895" lon="1.5850353240966797">
        <ele>496.7819799588059</ele>
        <time>2021-07-14T19:36:40.362Z</time>
      </trkpt>
      <trkpt lat="42.855767011642456" lon="1.5844452381134033">
        <ele>497.65710725208544</ele>
        <time>2021-07-14T19:36:40.754Z</time>
      </trkpt>
      <trkpt lat="42.85587430000305" lon="1.5843379497528076">
        <ele>498.56637927284163</ele>
        <time>2021-07-14T19:36:41.149Z</time>
      </trkpt>
      <trkpt lat="42.856035232543945" lon="1.584252119064331">
        <ele>499.55058998141465</ele>
        <time>2021-07-14T19:36:41.546Z</time>
      </trkpt>
      <trkpt lat="42.85619616508484" lon="1.5841984748840332">
        <ele>500.5791167623305</ele>
        <time>2021-07-14T19:36:41.946Z</time>
      </trkpt>
      <trkpt lat="42.85636782646179" lon="1.5840482711791992">
        <ele>501.7244104489176</ele>
        <time>2021-07-14T19:36:42.349Z</time>
      </trkpt>
      <trkpt lat="42.85649665631354" lon="1.5838658809661865">
        <ele>502.89797793193895</ele>
        <time>2021-07-14T19:36:42.755Z</time>
      </trkpt>
      <trkpt lat="42.85666823387146" lon="1.5834903717041016">
        <ele>504.2107157067549</ele>
        <time>2021-07-14T19:36:43.166Z</time>
      </trkpt>
      <trkpt lat="42.85675406455994" lon="1.5833508968353271">
        <ele>505.5720318616686</ele>
        <time>2021-07-14T19:36:43.580Z</time>
      </trkpt>
      <trkpt lat="42.85675414837897" lon="1.5833508968353271">
        <ele>506.9410826124689</ele>
        <time>2021-07-14T19:36:43.994Z</time>
      </trkpt>
      <trkpt lat="42.85685062408447" lon="1.583254337310791">
        <ele>508.4417677134437</ele>
        <time>2021-07-14T19:36:44.410Z</time>
      </trkpt>
      <trkpt lat="42.857065200805664" lon="1.5831363201141357">
        <ele>510.08252074972427</ele>
        <time>2021-07-14T19:36:44.829Z</time>
      </trkpt>
      <trkpt lat="42.85742998123169" lon="1.583082675933838">
        <ele>511.82697903735516</ele>
        <time>2021-07-14T19:36:45.254Z</time>
      </trkpt>
      <trkpt lat="42.8576123714447" lon="1.5829432010650635">
        <ele>513.4957469484586</ele>
        <time>2021-07-14T19:36:45.682Z</time>
      </trkpt>
      <trkpt lat="42.85769820213318" lon="1.5828144550323486">
        <ele>515.2148057803648</ele>
        <time>2021-07-14T19:36:46.113Z</time>
      </trkpt>
      <trkpt lat="42.85784840583801" lon="1.582331657409668">
        <ele>517.0582732761903</ele>
        <time>2021-07-14T19:36:46.550Z</time>
      </trkpt>
      <trkpt lat="42.85818099975586" lon="1.581408977508545">
        <ele>519.1027038115587</ele>
        <time>2021-07-14T19:36:46.999Z</time>
      </trkpt>
      <trkpt lat="42.858524322509766" lon="1.5806257724761963">
        <ele>521.2603628380433</ele>
        <time>2021-07-14T19:36:47.458Z</time>
      </trkpt>
      <trkpt lat="42.85858869552612" lon="1.5804111957550049">
        <ele>523.1720907110224</ele>
        <time>2021-07-14T19:36:47.920Z</time>
      </trkpt>
      <trkpt lat="42.8586208820343" lon="1.5801751613616943">
        <ele>525.0934994315916</ele>
        <time>2021-07-14T19:36:48.385Z</time>
      </trkpt>
      <trkpt lat="42.85866388119757" lon="1.5792953968048096">
        <ele>527.2790610377724</ele>
        <time>2021-07-14T19:36:48.860Z</time>
      </trkpt>
      <trkpt lat="42.858760356903076" lon="1.5783727169036865">
        <ele>529.3738147261151</ele>
        <time>2021-07-14T19:36:49.346Z</time>
      </trkpt>
      <trkpt lat="42.85874962806702" lon="1.5782010555267334">
        <ele>531.2517844687285</ele>
        <time>2021-07-14T19:36:49.834Z</time>
      </trkpt>
      <trkpt lat="42.85870671272278" lon="1.5780293941497803">
        <ele>533.0815538174727</ele>
        <time>2021-07-14T19:36:50.325Z</time>
      </trkpt>
      <trkpt lat="42.85857796669006" lon="1.5777075290679932">
        <ele>534.7668894392413</ele>
        <time>2021-07-14T19:36:50.820Z</time>
      </trkpt>
      <trkpt lat="42.858545780181885" lon="1.57753586769104">
        <ele>536.4914126586955</ele>
        <time>2021-07-14T19:36:51.317Z</time>
      </trkpt>
      <trkpt lat="42.858545780181885" lon="1.577364206314087">
        <ele>538.1998229419792</ele>
        <time>2021-07-14T19:36:51.816Z</time>
      </trkpt>
      <trkpt lat="42.85859942436218" lon="1.5771818161010742">
        <ele>539.9605368111313</ele>
        <time>2021-07-14T19:36:52.317Z</time>
      </trkpt>
      <trkpt lat="42.85889983177185" lon="1.5766024589538574">
        <ele>541.8828293995737</ele>
        <time>2021-07-14T19:36:52.827Z</time>
      </trkpt>
      <trkpt lat="42.859017848968506" lon="1.5764093399047852">
        <ele>543.6253846327701</ele>
        <time>2021-07-14T19:36:53.340Z</time>
      </trkpt>
      <trkpt lat="42.85913586616516" lon="1.576312780380249">
        <ele>545.3455987559977</ele>
        <time>2021-07-14T19:36:53.855Z</time>
      </trkpt>
      <trkpt lat="42.859361255541444" lon="1.5762054920196533">
        <ele>547.0325072081956</ele>
        <time>2021-07-14T19:36:54.374Z</time>
      </trkpt>
      <trkpt lat="42.85940417088568" lon="1.5761840343475342">
        <ele>548.7180772941279</ele>
        <time>2021-07-14T19:36:54.893Z</time>
      </trkpt>
      <trkpt lat="42.85987615585327" lon="1.5759801864624023">
        <ele>550.487315232067</ele>
        <time>2021-07-14T19:36:55.420Z</time>
      </trkpt>
      <trkpt lat="42.86015518940985" lon="1.5758299827575684">
        <ele>552.3036009713437</ele>
        <time>2021-07-14T19:36:55.952Z</time>
      </trkpt>
      <trkpt lat="42.86020883359015" lon="1.5757977962493896">
        <ele>554.0706636511509</ele>
        <time>2021-07-14T19:36:56.485Z</time>
      </trkpt>
      <trkpt lat="42.86038041114807" lon="1.5756690502166748">
        <ele>555.8938425945327</ele>
        <time>2021-07-14T19:36:57.021Z</time>
      </trkpt>
      <trkpt lat="42.86060571670532" lon="1.5754330158233643">
        <ele>557.8458368984977</ele>
        <time>2021-07-14T19:36:57.562Z</time>
      </trkpt>
      <trkpt lat="42.860798835754395" lon="1.5751862525939941">
        <ele>559.8876747222993</ele>
        <time>2021-07-14T19:36:58.107Z</time>
      </trkpt>
      <trkpt lat="42.861034870147705" lon="1.5748322010040283">
        <ele>561.8694156063664</ele>
        <time>2021-07-14T19:36:58.658Z</time>
      </trkpt>
      <trkpt lat="42.86160349845886" lon="1.5738880634307861">
        <ele>563.9095792172014</ele>
        <time>2021-07-14T19:36:59.223Z</time>
      </trkpt>
      <trkpt lat="42.861807346343994" lon="1.5732872486114502">
        <ele>566.1324522450195</ele>
        <time>2021-07-14T19:36:59.796Z</time>
      </trkpt>
      <trkpt lat="42.86195755004883" lon="1.5729117393493652">
        <ele>568.3004840150255</ele>
        <time>2021-07-14T19:37:00.374Z</time>
      </trkpt>
      <trkpt lat="42.86222577095032" lon="1.5726113319396973">
        <ele>570.6803998931659</ele>
        <time>2021-07-14T19:37:00.957Z</time>
      </trkpt>
      <trkpt lat="42.86257982254028" lon="1.5722894668579102">
        <ele>573.3919200050061</ele>
        <time>2021-07-14T19:37:01.547Z</time>
      </trkpt>
      <trkpt lat="42.86271929740906" lon="1.5721285343170166">
        <ele>575.8336695478205</ele>
        <time>2021-07-14T19:37:02.140Z</time>
      </trkpt>
      <trkpt lat="42.86284804344177" lon="1.571967601776123">
        <ele>578.180856342602</ele>
        <time>2021-07-14T19:37:02.736Z</time>
      </trkpt>
      <trkpt lat="42.86322355270386" lon="1.5713775157928467">
        <ele>580.4850341488095</ele>
        <time>2021-07-14T19:37:03.341Z</time>
      </trkpt>
      <trkpt lat="42.863523960113525" lon="1.5709805488586426">
        <ele>583.0834865159906</ele>
        <time>2021-07-14T19:37:03.953Z</time>
      </trkpt>
      <trkpt lat="42.863813638687134" lon="1.5706586837768555">
        <ele>586.0234542184801</ele>
        <time>2021-07-14T19:37:04.571Z</time>
      </trkpt>
      <trkpt lat="42.864553928375244" lon="1.5701329708099365">
        <ele>588.7479868676033</ele>
        <time>2021-07-14T19:37:05.202Z</time>
      </trkpt>
      <trkpt lat="42.864768505096436" lon="1.569993495941162">
        <ele>591.3485584395751</ele>
        <time>2021-07-14T19:37:05.837Z</time>
      </trkpt>
      <trkpt lat="42.865530252456665" lon="1.5697038173675537">
        <ele>594.3762566019816</ele>
        <time>2021-07-14T19:37:06.485Z</time>
      </trkpt>
      <trkpt lat="42.86586284637451" lon="1.5694785118103027">
        <ele>597.1556756242969</ele>
        <time>2021-07-14T19:37:07.138Z</time>
      </trkpt>
      <trkpt lat="42.86637783050537" lon="1.5692102909088135">
        <ele>600.1854261917347</ele>
        <time>2021-07-14T19:37:07.800Z</time>
      </trkpt>
      <trkpt lat="42.867493629455566" lon="1.5684163570404053">
        <ele>603.1346215362482</ele>
        <time>2021-07-14T19:37:08.482Z</time>
      </trkpt>
      <trkpt lat="42.86767601966858" lon="1.5683305263519287">
        <ele>605.9760050367174</ele>
        <time>2021-07-14T19:37:09.168Z</time>
      </trkpt>
      <trkpt lat="42.86796569824219" lon="1.5682661533355713">
        <ele>608.9059629267541</ele>
        <time>2021-07-14T19:37:09.858Z</time>
      </trkpt>
      <trkpt lat="42.86844849586487" lon="1.56829833984375">
        <ele>612.0928815727034</ele>
        <time>2021-07-14T19:37:10.556Z</time>
      </trkpt>
      <trkpt lat="42.86866307258606" lon="1.5682768821716309">
        <ele>614.9702297014774</ele>
        <time>2021-07-14T19:37:11.257Z</time>
      </trkpt>
      <trkpt lat="42.869768142700195" lon="1.567997932434082">
        <ele>617.8521284200999</ele>
        <time>2021-07-14T19:37:11.976Z</time>
      </trkpt>
      <trkpt lat="42.86985397338867" lon="1.5679657459259033">
        <ele>620.6342180998975</ele>
        <time>2021-07-14T19:37:12.697Z</time>
      </trkpt>
      <trkpt lat="42.87020802497864" lon="1.567697525024414">
        <ele>623.2976752867655</ele>
        <time>2021-07-14T19:37:13.424Z</time>
      </trkpt>
      <trkpt lat="42.87058353424072" lon="1.5676546096801758">
        <ele>626.154587082322</ele>
        <time>2021-07-14T19:37:14.157Z</time>
      </trkpt>
      <trkpt lat="42.87069082260132" lon="1.5676331520080566">
        <ele>628.7317948285483</ele>
        <time>2021-07-14T19:37:14.892Z</time>
      </trkpt>
      <trkpt lat="42.870808839797974" lon="1.5675795078277588">
        <ele>631.1291512314837</ele>
        <time>2021-07-14T19:37:15.629Z</time>
      </trkpt>
      <trkpt lat="42.87096977233887" lon="1.5674400329589844">
        <ele>633.404041468224</ele>
        <time>2021-07-14T19:37:16.369Z</time>
      </trkpt>
      <trkpt lat="42.871055603027344" lon="1.567322015762329">
        <ele>635.6245329207574</ele>
        <time>2021-07-14T19:37:17.111Z</time>
      </trkpt>
      <trkpt lat="42.871173620224" lon="1.5669894218444824">
        <ele>637.8264142119945</ele>
        <time>2021-07-14T19:37:17.857Z</time>
      </trkpt>
      <trkpt lat="42.87146338261664" lon="1.5657341480255127">
        <ele>640.1616391571961</ele>
        <time>2021-07-14T19:37:18.619Z</time>
      </trkpt>
      <trkpt lat="42.871549213305116" lon="1.5653800964355469">
        <ele>642.3211845293454</ele>
        <time>2021-07-14T19:37:19.385Z</time>
      </trkpt>
      <trkpt lat="42.87163496017456" lon="1.5651977062225342">
        <ele>644.2758825145982</ele>
        <time>2021-07-14T19:37:20.154Z</time>
      </trkpt>
      <trkpt lat="42.87186026573181" lon="1.5649938583374023">
        <ele>646.1078837478856</ele>
        <time>2021-07-14T19:37:20.927Z</time>
      </trkpt>
      <trkpt lat="42.87186034955084" lon="1.5649938583374023">
        <ele>647.6666150630263</ele>
        <time>2021-07-14T19:37:21.700Z</time>
      </trkpt>
      <trkpt lat="42.872278690338135" lon="1.5647149085998535">
        <ele>649.2599414577504</ele>
        <time>2021-07-14T19:37:22.481Z</time>
      </trkpt>
      <trkpt lat="42.8731906414032" lon="1.5640389919281006">
        <ele>650.5372473872856</ele>
        <time>2021-07-14T19:37:23.278Z</time>
      </trkpt>
      <trkpt lat="42.87319072522223" lon="1.5640389919281006">
        <ele>651.6650219508094</ele>
        <time>2021-07-14T19:37:24.075Z</time>
      </trkpt>
      <trkpt lat="42.87326582707465" lon="1.5639638900756836">
        <ele>652.6596882868002</ele>
        <time>2021-07-14T19:37:24.874Z</time>
      </trkpt>
      <trkpt lat="42.873330200091004" lon="1.5638458728790283">
        <ele>653.5151540848947</ele>
        <time>2021-07-14T19:37:25.674Z</time>
      </trkpt>
      <trkpt lat="42.873544692993164" lon="1.5633738040924072">
        <ele>654.3822344197899</ele>
        <time>2021-07-14T19:37:26.481Z</time>
      </trkpt>
      <trkpt lat="42.87361979484558" lon="1.5630626678466797">
        <ele>654.9266336252208</ele>
        <time>2021-07-14T19:37:27.292Z</time>
      </trkpt>
      <trkpt lat="42.87366279400885" lon="1.5628910064697266">
        <ele>655.2661642413196</ele>
        <time>2021-07-14T19:37:28.105Z</time>
      </trkpt>
      <trkpt lat="42.87392028607428" lon="1.562204360961914">
        <ele>655.4677060145816</ele>
        <time>2021-07-14T19:37:28.927Z</time>
      </trkpt>
      <trkpt lat="42.874038219451904" lon="1.561957597732544">
        <ele>655.5626996121084</ele>
        <time>2021-07-14T19:37:29.752Z</time>
      </trkpt>
      <trkpt lat="42.87457466125488" lon="1.5610671043395996">
        <ele>655.8116799141796</ele>
        <time>2021-07-14T19:37:30.591Z</time>
      </trkpt>
      <trkpt lat="42.874767780303955" lon="1.5604233741760254">
        <ele>656.092847130531</ele>
        <time>2021-07-14T19:37:31.438Z</time>
      </trkpt>
      <trkpt lat="42.87492871284485" lon="1.5596938133239746">
        <ele>655.8191495713805</ele>
        <time>2021-07-14T19:37:32.294Z</time>
      </trkpt>
      <trkpt lat="42.875014543533325" lon="1.5592002868652344">
        <ele>655.3130190541066</ele>
        <time>2021-07-14T19:37:33.156Z</time>
      </trkpt>
      <trkpt lat="42.875014543533325" lon="1.5586960315704346">
        <ele>654.6870636098577</ele>
        <time>2021-07-14T19:37:34.024Z</time>
      </trkpt>
      <trkpt lat="42.87490725517273" lon="1.5570008754730225">
        <ele>653.8287942546923</ele>
        <time>2021-07-14T19:37:34.912Z</time>
      </trkpt>
      <trkpt lat="42.875025272369385" lon="1.5560030937194824">
        <ele>653.0203241205058</ele>
        <time>2021-07-14T19:37:35.812Z</time>
      </trkpt>
      <trkpt lat="42.8751540184021" lon="1.5551233291625977">
        <ele>652.0116085323389</ele>
        <time>2021-07-14T19:37:36.722Z</time>
      </trkpt>
      <trkpt lat="42.87522912025452" lon="1.5549087524414062">
        <ele>650.9091054081036</ele>
        <time>2021-07-14T19:37:37.635Z</time>
      </trkpt>
      <trkpt lat="42.875304222106934" lon="1.5545117855072021">
        <ele>649.7895272701298</ele>
        <time>2021-07-14T19:37:38.553Z</time>
      </trkpt>
      <trkpt lat="42.875272035598755" lon="1.5540826320648193">
        <ele>648.6813833305654</ele>
        <time>2021-07-14T19:37:39.476Z</time>
      </trkpt>
      <trkpt lat="42.87518620491028" lon="1.553342342376709">
        <ele>647.5225120851987</ele>
        <time>2021-07-14T19:37:40.408Z</time>
      </trkpt>
      <trkpt lat="42.87523993290961" lon="1.5527844429016113">
        <ele>646.5718827473331</ele>
        <time>2021-07-14T19:37:41.347Z</time>
      </trkpt>
      <trkpt lat="42.87536859512329" lon="1.5517973899841309">
        <ele>645.5822858431134</ele>
        <time>2021-07-14T19:37:42.297Z</time>
      </trkpt>
      <trkpt lat="42.87547588348389" lon="1.5507030487060547">
        <ele>644.4299605695517</ele>
        <time>2021-07-14T19:37:43.260Z</time>
      </trkpt>
      <trkpt lat="42.875550985336304" lon="1.5504992008209229">
        <ele>643.5853889821858</ele>
        <time>2021-07-14T19:37:44.226Z</time>
      </trkpt>
      <trkpt lat="42.87566900253296" lon="1.5503382682800293">
        <ele>642.8191178678537</ele>
        <time>2021-07-14T19:37:45.195Z</time>
      </trkpt>
      <trkpt lat="42.87606596946716" lon="1.5500164031982422">
        <ele>642.0384036300268</ele>
        <time>2021-07-14T19:37:46.171Z</time>
      </trkpt>
      <trkpt lat="42.876066053286195" lon="1.5500164031982422">
        <ele>641.6207139805057</ele>
        <time>2021-07-14T19:37:47.147Z</time>
      </trkpt>
      <trkpt lat="42.87624844349921" lon="1.5498876571655273">
        <ele>641.2843464646348</ele>
        <time>2021-07-14T19:37:48.126Z</time>
      </trkpt>
      <trkpt lat="42.87697792053223" lon="1.549469232559204">
        <ele>641.1774641468309</ele>
        <time>2021-07-14T19:37:49.118Z</time>
      </trkpt>
      <trkpt lat="42.87723549641669" lon="1.5491795539855957">
        <ele>641.3899683300039</ele>
        <time>2021-07-14T19:37:50.115Z</time>
      </trkpt>
      <trkpt lat="42.87738570012152" lon="1.5490293502807617">
        <ele>641.6840040275187</ele>
        <time>2021-07-14T19:37:51.115Z</time>
      </trkpt>
      <trkpt lat="42.87769675254822" lon="1.5486109256744385">
        <ele>642.1378563805597</ele>
        <time>2021-07-14T19:37:52.122Z</time>
      </trkpt>
      <trkpt lat="42.87784704007208" lon="1.5482783317565918">
        <ele>642.6091736858797</ele>
        <time>2021-07-14T19:37:53.134Z</time>
      </trkpt>
      <trkpt lat="42.878029346466064" lon="1.547924280166626">
        <ele>643.3140036453203</ele>
        <time>2021-07-14T19:37:54.151Z</time>
      </trkpt>
      <trkpt lat="42.878490686416626" lon="1.5474092960357666">
        <ele>644.283045582702</ele>
        <time>2021-07-14T19:37:55.178Z</time>
      </trkpt>
      <trkpt lat="42.87886619567871" lon="1.5469050407409668">
        <ele>645.169142078599</ele>
        <time>2021-07-14T19:37:56.213Z</time>
      </trkpt>
      <trkpt lat="42.879295349121094" lon="1.5466690063476562">
        <ele>646.1376248529484</ele>
        <time>2021-07-14T19:37:57.256Z</time>
      </trkpt>
      <trkpt lat="42.87962794303894" lon="1.5464437007904053">
        <ele>647.2844566982938</ele>
        <time>2021-07-14T19:37:58.304Z</time>
      </trkpt>
      <trkpt lat="42.87985324859619" lon="1.5461111068725586">
        <ele>648.4393708188927</ele>
        <time>2021-07-14T19:37:59.358Z</time>
      </trkpt>
      <trkpt lat="42.879981994628906" lon="1.5457463264465332">
        <ele>649.5275107727368</ele>
        <time>2021-07-14T19:38:00.417Z</time>
      </trkpt>
      <trkpt lat="42.880046367645264" lon="1.545349359512329">
        <ele>650.6958842600893</ele>
        <time>2021-07-14T19:38:01.480Z</time>
      </trkpt>
      <trkpt lat="42.880057180300355" lon="1.5449309349060059">
        <ele>651.8689573443319</ele>
        <time>2021-07-14T19:38:02.548Z</time>
      </trkpt>
      <trkpt lat="42.880046367645264" lon="1.544501781463623">
        <ele>653.024061730103</ele>
        <time>2021-07-14T19:38:03.621Z</time>
      </trkpt>
      <trkpt lat="42.879981994628906" lon="1.544104814529419">
        <ele>654.1994033253422</ele>
        <time>2021-07-14T19:38:04.699Z</time>
      </trkpt>
      <trkpt lat="42.8798855189234" lon="1.5437400341033936">
        <ele>655.3823584708698</ele>
        <time>2021-07-14T19:38:05.782Z</time>
      </trkpt>
      <trkpt lat="42.879745960235596" lon="1.5434181690216064">
        <ele>656.603149325678</ele>
        <time>2021-07-14T19:38:06.869Z</time>
      </trkpt>
      <trkpt lat="42.879520738497376" lon="1.5430855751037598">
        <ele>657.7320065505169</ele>
        <time>2021-07-14T19:38:07.961Z</time>
      </trkpt>
      <trkpt lat="42.87945636548102" lon="1.542978286743164">
        <ele>658.8062642027785</ele>
        <time>2021-07-14T19:38:09.055Z</time>
      </trkpt>
      <trkpt lat="42.87941336631775" lon="1.542903184890747">
        <ele>659.8518596122323</ele>
        <time>2021-07-14T19:38:10.150Z</time>
      </trkpt>
      <trkpt lat="42.87941345013678" lon="1.542903184890747">
        <ele>660.850464284281</ele>
        <time>2021-07-14T19:38:11.245Z</time>
      </trkpt>
      <trkpt lat="42.87920951843262" lon="1.54258131980896">
        <ele>661.8591522382127</ele>
        <time>2021-07-14T19:38:12.345Z</time>
      </trkpt>
      <trkpt lat="42.87905931472778" lon="1.5422272682189941">
        <ele>662.7862786305636</ele>
        <time>2021-07-14T19:38:13.450Z</time>
      </trkpt>
      <trkpt lat="42.87889838218689" lon="1.5418195724487305">
        <ele>663.6873205626298</ele>
        <time>2021-07-14T19:38:14.560Z</time>
      </trkpt>
      <trkpt lat="42.87884473800659" lon="1.54158353805542">
        <ele>664.6163142473497</ele>
        <time>2021-07-14T19:38:15.673Z</time>
      </trkpt>
      <trkpt lat="42.87871607579291" lon="1.5409398078918457">
        <ele>665.4719617789373</ele>
        <time>2021-07-14T19:38:16.794Z</time>
      </trkpt>
      <trkpt lat="42.87866243161261" lon="1.5406394004821777">
        <ele>666.3161048422986</ele>
        <time>2021-07-14T19:38:17.919Z</time>
      </trkpt>
      <trkpt lat="42.87841566838324" lon="1.5393948554992676">
        <ele>667.2705620906866</ele>
        <time>2021-07-14T19:38:19.059Z</time>
      </trkpt>
      <trkpt lat="42.878297567367554" lon="1.5387940406799316">
        <ele>668.1216695374626</ele>
        <time>2021-07-14T19:38:20.206Z</time>
      </trkpt>
      <trkpt lat="42.878254652023315" lon="1.5384507179260254">
        <ele>668.9124351569278</ele>
        <time>2021-07-14T19:38:21.357Z</time>
      </trkpt>
      <trkpt lat="42.878233194351196" lon="1.5378391742706299">
        <ele>669.8364065627374</ele>
        <time>2021-07-14T19:38:22.516Z</time>
      </trkpt>
      <trkpt lat="42.87824400700629" lon="1.5370774269104004">
        <ele>670.669671047362</ele>
        <time>2021-07-14T19:38:23.683Z</time>
      </trkpt>
      <trkpt lat="42.878276193514466" lon="1.5357470512390137">
        <ele>671.7496783760334</ele>
        <time>2021-07-14T19:38:24.866Z</time>
      </trkpt>
      <trkpt lat="42.878286838531494" lon="1.5347492694854736">
        <ele>672.7556364801155</ele>
        <time>2021-07-14T19:38:26.061Z</time>
      </trkpt>
      <trkpt lat="42.87834048271179" lon="1.5342557430267334">
        <ele>673.8162877800673</ele>
        <time>2021-07-14T19:38:27.262Z</time>
      </trkpt>
      <trkpt lat="42.8784263972193" lon="1.5336549282073975">
        <ele>674.9400384635067</ele>
        <time>2021-07-14T19:38:28.470Z</time>
      </trkpt>
      <trkpt lat="42.878533601760864" lon="1.5329468250274658">
        <ele>676.0916969674424</ele>
        <time>2021-07-14T19:38:29.686Z</time>
      </trkpt>
      <trkpt lat="42.87859797477722" lon="1.5323567390441895">
        <ele>677.163607419019</ele>
        <time>2021-07-14T19:38:30.909Z</time>
      </trkpt>
      <trkpt lat="42.87858724594116" lon="1.5319061279296875">
        <ele>678.3598336848772</ele>
        <time>2021-07-14T19:38:32.138Z</time>
      </trkpt>
      <trkpt lat="42.878512144088745" lon="1.5314340591430664">
        <ele>679.7020626482104</ele>
        <time>2021-07-14T19:38:33.372Z</time>
      </trkpt>
      <trkpt lat="42.87808299064636" lon="1.5293312072753906">
        <ele>681.0671771738977</ele>
        <time>2021-07-14T19:38:34.632Z</time>
      </trkpt>
      <trkpt lat="42.878040075302124" lon="1.528998613357544">
        <ele>682.4534786011486</ele>
        <time>2021-07-14T19:38:35.896Z</time>
      </trkpt>
      <trkpt lat="42.878029346466064" lon="1.5286767482757568">
        <ele>683.9480722210403</ele>
        <time>2021-07-14T19:38:37.164Z</time>
      </trkpt>
      <trkpt lat="42.878029430285096" lon="1.5286767482757568">
        <ele>685.5521148442092</ele>
        <time>2021-07-14T19:38:38.432Z</time>
      </trkpt>
      <trkpt lat="42.87810444831848" lon="1.5281081199645996">
        <ele>687.2628389482937</ele>
        <time>2021-07-14T19:38:39.707Z</time>
      </trkpt>
      <trkpt lat="42.87816890515387" lon="1.5277433395385742">
        <ele>689.0875785117419</ele>
        <time>2021-07-14T19:38:40.986Z</time>
      </trkpt>
      <trkpt lat="42.8788770083338" lon="1.5241062641143799">
        <ele>691.3785837617587</ele>
        <time>2021-07-14T19:38:42.309Z</time>
      </trkpt>
      <trkpt lat="42.878984212875366" lon="1.5235590934753418">
        <ele>693.4139811853142</ele>
        <time>2021-07-14T19:38:43.639Z</time>
      </trkpt>
      <trkpt lat="42.87968158721924" lon="1.519932746887207">
        <ele>696.1841350547023</ele>
        <time>2021-07-14T19:38:45.013Z</time>
      </trkpt>
      <trkpt lat="42.87981033325195" lon="1.518634557723999">
        <ele>698.3927991145902</ele>
        <time>2021-07-14T19:38:46.403Z</time>
      </trkpt>
      <trkpt lat="42.87989616394043" lon="1.518334150314331">
        <ele>700.6702422382597</ele>
        <time>2021-07-14T19:38:47.796Z</time>
      </trkpt>
      <trkpt lat="42.880003452301025" lon="1.518162488937378">
        <ele>703.0062957810396</ele>
        <time>2021-07-14T19:38:49.192Z</time>
      </trkpt>
      <trkpt lat="42.880271673202515" lon="1.5177762508392334">
        <ele>705.4451419932407</ele>
        <time>2021-07-14T19:38:50.594Z</time>
      </trkpt>
      <trkpt lat="42.88040041923523" lon="1.5175509452819824">
        <ele>707.8789199044488</ele>
        <time>2021-07-14T19:38:52.000Z</time>
      </trkpt>
      <trkpt lat="42.88043260574341" lon="1.5173900127410889">
        <ele>710.2935154955371</ele>
        <time>2021-07-14T19:38:53.408Z</time>
      </trkpt>
      <trkpt lat="42.88041114807129" lon="1.5172076225280762">
        <ele>712.6957204547105</ele>
        <time>2021-07-14T19:38:54.818Z</time>
      </trkpt>
      <trkpt lat="42.88036823272705" lon="1.5169286727905273">
        <ele>715.2089318249527</ele>
        <time>2021-07-14T19:38:56.231Z</time>
      </trkpt>
      <trkpt lat="42.88031458854675" lon="1.5167677402496338">
        <ele>717.728419522504</ele>
        <time>2021-07-14T19:38:57.646Z</time>
      </trkpt>
      <trkpt lat="42.8801965713501" lon="1.5165317058563232">
        <ele>720.2915564360865</ele>
        <time>2021-07-14T19:38:59.065Z</time>
      </trkpt>
      <trkpt lat="42.88010001182556" lon="1.5161776542663574">
        <ele>722.9460346241927</ele>
        <time>2021-07-14T19:39:00.488Z</time>
      </trkpt>
      <trkpt lat="42.88005709648132" lon="1.515812873840332">
        <ele>725.6603761018165</ele>
        <time>2021-07-14T19:39:01.915Z</time>
      </trkpt>
      <trkpt lat="42.880046367645264" lon="1.5153729915618896">
        <ele>728.4479547211076</ele>
        <time>2021-07-14T19:39:03.348Z</time>
      </trkpt>
      <trkpt lat="42.880046367645264" lon="1.5149116516113281">
        <ele>731.2713191492364</ele>
        <time>2021-07-14T19:39:04.786Z</time>
      </trkpt>
      <trkpt lat="42.880078637972474" lon="1.5146005153656006">
        <ele>734.0318218293362</ele>
        <time>2021-07-14T19:39:06.228Z</time>
      </trkpt>
      <trkpt lat="42.880239486694336" lon="1.5142464637756348">
        <ele>736.9542726502596</ele>
        <time>2021-07-14T19:39:07.675Z</time>
      </trkpt>
      <trkpt lat="42.88047552108765" lon="1.5135383605957031">
        <ele>740.0183555739768</ele>
        <time>2021-07-14T19:39:09.131Z</time>
      </trkpt>
      <trkpt lat="42.8805935382843" lon="1.513216495513916">
        <ele>742.8925387693042</ele>
        <time>2021-07-14T19:39:10.591Z</time>
      </trkpt>
      <trkpt lat="42.88063645362854" lon="1.512894630432129">
        <ele>745.725100505015</ele>
        <time>2021-07-14T19:39:12.055Z</time>
      </trkpt>
      <trkpt lat="42.88069009780884" lon="1.5120470523834229">
        <ele>748.5202777871823</ele>
        <time>2021-07-14T19:39:13.529Z</time>
      </trkpt>
      <trkpt lat="42.88072228431702" lon="1.5117788314819336">
        <ele>751.3113326588646</ele>
        <time>2021-07-14T19:39:15.006Z</time>
      </trkpt>
      <trkpt lat="42.88080811500549" lon="1.5114247798919678">
        <ele>754.1694295273878</ele>
        <time>2021-07-14T19:39:16.487Z</time>
      </trkpt>
      <trkpt lat="42.88084030151367" lon="1.5111351013183594">
        <ele>756.940266993488</ele>
        <time>2021-07-14T19:39:17.972Z</time>
      </trkpt>
      <trkpt lat="42.88080811500549" lon="1.5104591846466064">
        <ele>759.714943972014</ele>
        <time>2021-07-14T19:39:19.465Z</time>
      </trkpt>
      <trkpt lat="42.88080811500549" lon="1.510094404220581">
        <ele>762.4845249473672</ele>
        <time>2021-07-14T19:39:20.962Z</time>
      </trkpt>
      <trkpt lat="42.88090467453003" lon="1.5093863010406494">
        <ele>765.5015520423347</ele>
        <time>2021-07-14T19:39:22.468Z</time>
      </trkpt>
      <trkpt lat="42.88091540336609" lon="1.5090858936309814">
        <ele>768.284574395326</ele>
        <time>2021-07-14T19:39:23.977Z</time>
      </trkpt>
      <trkpt lat="42.88086175918579" lon="1.5087532997131348">
        <ele>771.1012726127142</ele>
        <time>2021-07-14T19:39:25.490Z</time>
      </trkpt>
      <trkpt lat="42.88071155548096" lon="1.5081202983856201">
        <ele>773.6439191587049</ele>
        <time>2021-07-14T19:39:27.011Z</time>
      </trkpt>
      <trkpt lat="42.8806471824646" lon="1.5077555179595947">
        <ele>776.12903881133</ele>
        <time>2021-07-14T19:39:28.536Z</time>
      </trkpt>
      <trkpt lat="42.8805935382843" lon="1.5070152282714844">
        <ele>778.7641057955484</ele>
        <time>2021-07-14T19:39:30.070Z</time>
      </trkpt>
      <trkpt lat="42.88061499595642" lon="1.5064895153045654">
        <ele>781.3119385748274</ele>
        <time>2021-07-14T19:39:31.610Z</time>
      </trkpt>
      <trkpt lat="42.88061507977545" lon="1.5064895153045654">
        <ele>783.625883949877</ele>
        <time>2021-07-14T19:39:33.150Z</time>
      </trkpt>
      <trkpt lat="42.88065791130066" lon="1.50587797164917">
        <ele>786.2194464001793</ele>
        <time>2021-07-14T19:39:34.697Z</time>
      </trkpt>
      <trkpt lat="42.8806471824646" lon="1.5057814121246338">
        <ele>788.4603508504736</ele>
        <time>2021-07-14T19:39:36.246Z</time>
      </trkpt>
      <trkpt lat="42.88062572479248" lon="1.505674123764038">
        <ele>790.6431165126829</ele>
        <time>2021-07-14T19:39:37.796Z</time>
      </trkpt>
      <trkpt lat="42.88058280944824" lon="1.5055882930755615">
        <ele>792.7267508595769</ele>
        <time>2021-07-14T19:39:39.347Z</time>
      </trkpt>
      <trkpt lat="42.88044333457947" lon="1.505352258682251">
        <ele>794.7061231739167</ele>
        <time>2021-07-14T19:39:40.902Z</time>
      </trkpt>
      <trkpt lat="42.88042187690735" lon="1.5052664279937744">
        <ele>796.6859054017054</ele>
        <time>2021-07-14T19:39:42.458Z</time>
      </trkpt>
      <trkpt lat="42.88041114807129" lon="1.5051698684692383">
        <ele>798.6051968312969</ele>
        <time>2021-07-14T19:39:44.015Z</time>
      </trkpt>
      <trkpt lat="42.88042187690735" lon="1.5050733089447021">
        <ele>800.5027227201547</ele>
        <time>2021-07-14T19:39:45.573Z</time>
      </trkpt>
      <trkpt lat="42.88058280944824" lon="1.504601240158081">
        <ele>802.5902626575136</ele>
        <time>2021-07-14T19:39:47.137Z</time>
      </trkpt>
      <trkpt lat="42.88071155548096" lon="1.504300832748413">
        <ele>804.5011476553664</ele>
        <time>2021-07-14T19:39:48.705Z</time>
      </trkpt>
      <trkpt lat="42.88085103034973" lon="1.5040969848632812">
        <ele>806.3277558066343</ele>
        <time>2021-07-14T19:39:50.277Z</time>
      </trkpt>
      <trkpt lat="42.880990505218506" lon="1.5039253234863281">
        <ele>808.0618448566122</ele>
        <time>2021-07-14T19:39:51.852Z</time>
      </trkpt>
      <trkpt lat="42.881280183792114" lon="1.5036678314208984">
        <ele>809.891507859782</ele>
        <time>2021-07-14T19:39:53.432Z</time>
      </trkpt>
      <trkpt lat="42.88196682929993" lon="1.50313138961792">
        <ele>811.8231853718676</ele>
        <time>2021-07-14T19:39:55.025Z</time>
      </trkpt>
      <trkpt lat="42.88213849067688" lon="1.5029597282409668">
        <ele>813.4030394760314</ele>
        <time>2021-07-14T19:39:56.621Z</time>
      </trkpt>
      <trkpt lat="42.882256507873535" lon="1.502777338027954">
        <ele>814.9074286882155</ele>
        <time>2021-07-14T19:39:58.220Z</time>
      </trkpt>
      <trkpt lat="42.88234233856201" lon="1.5026164054870605">
        <ele>816.4549490863515</ele>
        <time>2021-07-14T19:39:59.821Z</time>
      </trkpt>
      <trkpt lat="42.8825569152832" lon="1.5021443367004395">
        <ele>818.2421243107746</ele>
        <time>2021-07-14T19:40:01.429Z</time>
      </trkpt>
      <trkpt lat="42.88256764411926" lon="1.5020477771759033">
        <ele>819.7572417607718</ele>
        <time>2021-07-14T19:40:03.038Z</time>
      </trkpt>
      <trkpt lat="42.882567727938294" lon="1.5020477771759033">
        <ele>821.1790222221567</ele>
        <time>2021-07-14T19:40:04.647Z</time>
      </trkpt>
      <trkpt lat="42.8825569152832" lon="1.501833200454712">
        <ele>822.7853231747386</ele>
        <time>2021-07-14T19:40:06.259Z</time>
      </trkpt>
      <trkpt lat="42.882556999102235" lon="1.501833200454712">
        <ele>824.1670035203022</ele>
        <time>2021-07-14T19:40:07.871Z</time>
      </trkpt>
      <trkpt lat="42.882513999938965" lon="1.501779556274414">
        <ele>825.6042669524481</ele>
        <time>2021-07-14T19:40:09.484Z</time>
      </trkpt>
      <trkpt lat="42.88246035575867" lon="1.501758098602295">
        <ele>827.0043595557283</ele>
        <time>2021-07-14T19:40:11.097Z</time>
      </trkpt>
      <trkpt lat="42.88232088088989" lon="1.5017902851104736">
        <ele>828.3128487994118</ele>
        <time>2021-07-14T19:40:12.713Z</time>
      </trkpt>
      <trkpt lat="42.882159948349" lon="1.5018653869628906">
        <ele>829.6027332028864</ele>
        <time>2021-07-14T19:40:14.331Z</time>
      </trkpt>
      <trkpt lat="42.88195610046387" lon="1.501929759979248">
        <ele>830.939233569965</ele>
        <time>2021-07-14T19:40:15.953Z</time>
      </trkpt>
      <trkpt lat="42.881741523742676" lon="1.501929759979248">
        <ele>832.3452791435411</ele>
        <time>2021-07-14T19:40:17.578Z</time>
      </trkpt>
      <trkpt lat="42.88174160756171" lon="1.501929759979248">
        <ele>833.7590211400136</ele>
        <time>2021-07-14T19:40:19.203Z</time>
      </trkpt>
      <trkpt lat="42.88137674331665" lon="1.5016400814056396">
        <ele>835.3823550338802</ele>
        <time>2021-07-14T19:40:20.835Z</time>
      </trkpt>
      <trkpt lat="42.88088321685791" lon="1.5012860298156738">
        <ele>837.1727552941629</ele>
        <time>2021-07-14T19:40:22.476Z</time>
      </trkpt>
      <trkpt lat="42.88063645362854" lon="1.5012216567993164">
        <ele>838.6635039195328</ele>
        <time>2021-07-14T19:40:24.121Z</time>
      </trkpt>
      <trkpt lat="42.88045406341553" lon="1.5011358261108398">
        <ele>840.2169514806263</ele>
        <time>2021-07-14T19:40:25.769Z</time>
      </trkpt>
      <trkpt lat="42.880293130874634" lon="1.5009534358978271">
        <ele>841.8486565100018</ele>
        <time>2021-07-14T19:40:27.420Z</time>
      </trkpt>
      <trkpt lat="42.88025029934943" lon="1.5008676052093506">
        <ele>843.4870072676097</ele>
        <time>2021-07-14T19:40:29.073Z</time>
      </trkpt>
      <trkpt lat="42.87984251976013" lon="1.500180959701538">
        <ele>845.6534350320123</ele>
        <time>2021-07-14T19:40:30.736Z</time>
      </trkpt>
      <trkpt lat="42.879745960235596" lon="1.4999663829803467">
        <ele>847.5754656359859</ele>
        <time>2021-07-14T19:40:32.402Z</time>
      </trkpt>
      <trkpt lat="42.879735231399536" lon="1.4998161792755127">
        <ele>849.3686022457275</ele>
        <time>2021-07-14T19:40:34.070Z</time>
      </trkpt>
      <trkpt lat="42.879767417907715" lon="1.4997196197509766">
        <ele>851.0862485313105</ele>
        <time>2021-07-14T19:40:35.739Z</time>
      </trkpt>
      <trkpt lat="42.879821145907044" lon="1.499708890914917">
        <ele>852.7391299378808</ele>
        <time>2021-07-14T19:40:37.409Z</time>
      </trkpt>
      <trkpt lat="42.87984251976013" lon="1.4996981620788574">
        <ele>854.4966869729981</ele>
        <time>2021-07-14T19:40:39.079Z</time>
      </trkpt>
      <trkpt lat="42.87991762161255" lon="1.4997625350952148">
        <ele>856.2024902200653</ele>
        <time>2021-07-14T19:40:40.751Z</time>
      </trkpt>
      <trkpt lat="42.88013228215277" lon="1.499955654144287">
        <ele>857.8547632088757</ele>
        <time>2021-07-14T19:40:42.427Z</time>
      </trkpt>
      <trkpt lat="42.88047560490668" lon="1.500309705734253">
        <ele>859.7310366510173</ele>
        <time>2021-07-14T19:40:44.110Z</time>
      </trkpt>
      <trkpt lat="42.88071155548096" lon="1.5005671977996826">
        <ele>861.6165835557407</ele>
        <time>2021-07-14T19:40:45.797Z</time>
      </trkpt>
      <trkpt lat="42.88087248802185" lon="1.500610113143921">
        <ele>863.6548480030738</ele>
        <time>2021-07-14T19:40:47.487Z</time>
      </trkpt>
      <trkpt lat="42.881033420562744" lon="1.5006208419799805">
        <ele>865.7577817454115</ele>
        <time>2021-07-14T19:40:49.180Z</time>
      </trkpt>
      <trkpt lat="42.88121581077576" lon="1.5005779266357422">
        <ele>868.0190143710947</ele>
        <time>2021-07-14T19:40:50.876Z</time>
      </trkpt>
      <trkpt lat="42.88140892982483" lon="1.5004920959472656">
        <ele>870.2261339136168</ele>
        <time>2021-07-14T19:40:52.575Z</time>
      </trkpt>
      <trkpt lat="42.88162350654602" lon="1.500309705734253">
        <ele>872.459417890954</ele>
        <time>2021-07-14T19:40:54.278Z</time>
      </trkpt>
      <trkpt lat="42.881795167922974" lon="1.5001273155212402">
        <ele>874.7252210922445</ele>
        <time>2021-07-14T19:40:55.984Z</time>
      </trkpt>
      <trkpt lat="42.881977558135986" lon="1.4999878406524658">
        <ele>876.977930385594</ele>
        <time>2021-07-14T19:40:57.694Z</time>
      </trkpt>
      <trkpt lat="42.88220286369324" lon="1.4998805522918701">
        <ele>879.2308810230813</ele>
        <time>2021-07-14T19:40:59.408Z</time>
      </trkpt>
      <trkpt lat="42.882481813430786" lon="1.4998269081115723">
        <ele>881.3787582628247</ele>
        <time>2021-07-14T19:41:01.126Z</time>
      </trkpt>
      <trkpt lat="42.882739305496216" lon="1.4997518062591553">
        <ele>883.562436714911</ele>
        <time>2021-07-14T19:41:02.848Z</time>
      </trkpt>
      <trkpt lat="42.883007526397705" lon="1.499558687210083">
        <ele>885.8218232956506</ele>
        <time>2021-07-14T19:41:04.575Z</time>
      </trkpt>
      <trkpt lat="42.88300761021674" lon="1.499558687210083">
        <ele>887.8240739961839</ele>
        <time>2021-07-14T19:41:06.302Z</time>
      </trkpt>
      <trkpt lat="42.883254289627075" lon="1.4992797374725342">
        <ele>889.959519461481</ele>
        <time>2021-07-14T19:41:08.034Z</time>
      </trkpt>
      <trkpt lat="42.883533239364624" lon="1.4988398551940918">
        <ele>892.0147973452027</ele>
        <time>2021-07-14T19:41:09.773Z</time>
      </trkpt>
      <trkpt lat="42.88371562957764" lon="1.4984750747680664">
        <ele>894.0569050160511</ele>
        <time>2021-07-14T19:41:11.517Z</time>
      </trkpt>
      <trkpt lat="42.88388729095459" lon="1.4979815483093262">
        <ele>896.0050027772406</ele>
        <time>2021-07-14T19:41:13.268Z</time>
      </trkpt>
      <trkpt lat="42.88388737477362" lon="1.4979815483093262">
        <ele>897.7489069851819</ele>
        <time>2021-07-14T19:41:15.019Z</time>
      </trkpt>
      <trkpt lat="42.88394093513489" lon="1.4977455139160156">
        <ele>899.5121400277426</ele>
        <time>2021-07-14T19:41:16.773Z</time>
      </trkpt>
      <trkpt lat="42.88394101895392" lon="1.4977455139160156">
        <ele>901.1245456120241</ele>
        <time>2021-07-14T19:41:18.527Z</time>
      </trkpt>
      <trkpt lat="42.883983850479126" lon="1.497509479522705">
        <ele>902.7726810347532</ele>
        <time>2021-07-14T19:41:20.283Z</time>
      </trkpt>
      <trkpt lat="42.88398393429816" lon="1.497509479522705">
        <ele>904.2511348416954</ele>
        <time>2021-07-14T19:41:22.039Z</time>
      </trkpt>
      <trkpt lat="42.884037494659424" lon="1.4971017837524414">
        <ele>905.7537155249577</ele>
        <time>2021-07-14T19:41:23.800Z</time>
      </trkpt>
      <trkpt lat="42.884026765823364" lon="1.4969301223754883">
        <ele>907.1741040320128</ele>
        <time>2021-07-14T19:41:25.563Z</time>
      </trkpt>
      <trkpt lat="42.88396239280701" lon="1.4966726303100586">
        <ele>908.5752925925392</ele>
        <time>2021-07-14T19:41:27.330Z</time>
      </trkpt>
      <trkpt lat="42.883790731430054" lon="1.496340036392212">
        <ele>910.0036094534005</ele>
        <time>2021-07-14T19:41:29.101Z</time>
      </trkpt>
      <trkpt lat="42.88358688354492" lon="1.4960825443267822">
        <ele>911.3691030889505</ele>
        <time>2021-07-14T19:41:30.877Z</time>
      </trkpt>
      <trkpt lat="42.883543968200684" lon="1.4959967136383057">
        <ele>912.4793477672904</ele>
        <time>2021-07-14T19:41:32.654Z</time>
      </trkpt>
      <trkpt lat="42.883522510528564" lon="1.4959216117858887">
        <ele>913.5194822898009</ele>
        <time>2021-07-14T19:41:34.432Z</time>
      </trkpt>
      <trkpt lat="42.883533239364624" lon="1.4958572387695312">
        <ele>914.5276004477171</ele>
        <time>2021-07-14T19:41:36.211Z</time>
      </trkpt>
      <trkpt lat="42.88362979888916" lon="1.4956963062286377">
        <ele>915.4384392985787</ele>
        <time>2021-07-14T19:41:37.992Z</time>
      </trkpt>
      <trkpt lat="42.88371562957764" lon="1.495664119720459">
        <ele>916.3847828061439</ele>
        <time>2021-07-14T19:41:39.775Z</time>
      </trkpt>
      <trkpt lat="42.883973121643066" lon="1.4956748485565186">
        <ele>917.2533491267393</ele>
        <time>2021-07-14T19:41:41.562Z</time>
      </trkpt>
      <trkpt lat="42.884252071380615" lon="1.4956426620483398">
        <ele>918.2055471717604</ele>
        <time>2021-07-14T19:41:43.353Z</time>
      </trkpt>
      <trkpt lat="42.88425215519965" lon="1.4956426620483398">
        <ele>919.194706176703</ele>
        <time>2021-07-14T19:41:45.144Z</time>
      </trkpt>
      <trkpt lat="42.88484215736389" lon="1.4955353736877441">
        <ele>920.3767520739259</ele>
        <time>2021-07-14T19:41:46.945Z</time>
      </trkpt>
      <trkpt lat="42.88506746292114" lon="1.4955246448516846">
        <ele>921.5361041902199</ele>
        <time>2021-07-14T19:41:48.749Z</time>
      </trkpt>
      <trkpt lat="42.88517475128174" lon="1.4955568313598633">
        <ele>922.6443509786495</ele>
        <time>2021-07-14T19:41:50.555Z</time>
      </trkpt>
      <trkpt lat="42.885271310806274" lon="1.4956104755401611">
        <ele>923.7899983635884</ele>
        <time>2021-07-14T19:41:52.363Z</time>
      </trkpt>
      <trkpt lat="42.885528802871704" lon="1.4959001541137695">
        <ele>924.9922569727655</ele>
        <time>2021-07-14T19:41:54.176Z</time>
      </trkpt>
      <trkpt lat="42.88560398854315" lon="1.4959430694580078">
        <ele>926.2373275119712</ele>
        <time>2021-07-14T19:41:55.990Z</time>
      </trkpt>
      <trkpt lat="42.88562536239624" lon="1.495964527130127">
        <ele>927.5032679357269</ele>
        <time>2021-07-14T19:41:57.805Z</time>
      </trkpt>
      <trkpt lat="42.88571119308472" lon="1.495964527130127">
        <ele>928.8900118154236</ele>
        <time>2021-07-14T19:41:59.621Z</time>
      </trkpt>
      <trkpt lat="42.88582921028137" lon="1.49588942527771">
        <ele>930.3940587493757</ele>
        <time>2021-07-14T19:42:01.439Z</time>
      </trkpt>
      <trkpt lat="42.88607597351074" lon="1.4952564239501953">
        <ele>932.313185211211</ele>
        <time>2021-07-14T19:42:03.266Z</time>
      </trkpt>
      <trkpt lat="42.8861403465271" lon="1.4951491355895996">
        <ele>933.8684564627642</ele>
        <time>2021-07-14T19:42:05.094Z</time>
      </trkpt>
      <trkpt lat="42.88625844754279" lon="1.495063304901123">
        <ele>935.4432207643694</ele>
        <time>2021-07-14T19:42:06.924Z</time>
      </trkpt>
      <trkpt lat="42.88648375310004" lon="1.494913101196289">
        <ele>937.0753829015266</ele>
        <time>2021-07-14T19:42:08.759Z</time>
      </trkpt>
      <trkpt lat="42.88658022880554" lon="1.4947843551635742">
        <ele>938.7846551473209</ele>
        <time>2021-07-14T19:42:10.596Z</time>
      </trkpt>
      <trkpt lat="42.88689136505127" lon="1.4941728115081787">
        <ele>940.5359781081962</ele>
        <time>2021-07-14T19:42:12.441Z</time>
      </trkpt>
      <trkpt lat="42.88693428039551" lon="1.494065523147583">
        <ele>942.369192266091</ele>
        <time>2021-07-14T19:42:14.288Z</time>
      </trkpt>
      <trkpt lat="42.886977195739746" lon="1.4938294887542725">
        <ele>944.2408013177826</ele>
        <time>2021-07-14T19:42:16.138Z</time>
      </trkpt>
      <trkpt lat="42.886987924575806" lon="1.493593454360962">
        <ele>946.1854249844703</ele>
        <time>2021-07-14T19:42:17.990Z</time>
      </trkpt>
      <trkpt lat="42.887030839920044" lon="1.4934003353118896">
        <ele>948.2108662112528</ele>
        <time>2021-07-14T19:42:19.845Z</time>
      </trkpt>
      <trkpt lat="42.88738489151001" lon="1.4926278591156006">
        <ele>950.5839888054999</ele>
        <time>2021-07-14T19:42:21.711Z</time>
      </trkpt>
      <trkpt lat="42.88741707801819" lon="1.4924776554107666">
        <ele>952.698799946364</ele>
        <time>2021-07-14T19:42:23.578Z</time>
      </trkpt>
      <trkpt lat="42.88742780685425" lon="1.4921987056732178">
        <ele>954.8585542277012</ele>
        <time>2021-07-14T19:42:25.449Z</time>
      </trkpt>
      <trkpt lat="42.88741707801819" lon="1.491844654083252">
        <ele>956.9661638712819</ele>
        <time>2021-07-14T19:42:27.324Z</time>
      </trkpt>
      <trkpt lat="42.8875029925257" lon="1.4912116527557373">
        <ele>959.3451217301647</ele>
        <time>2021-07-14T19:42:29.206Z</time>
      </trkpt>
      <trkpt lat="42.887502908706665" lon="1.490943431854248">
        <ele>961.6312481052315</ele>
        <time>2021-07-14T19:42:31.092Z</time>
      </trkpt>
      <trkpt lat="42.88741707801819" lon="1.490546464920044">
        <ele>963.8134250830067</ele>
        <time>2021-07-14T19:42:32.982Z</time>
      </trkpt>
      <trkpt lat="42.88741707801819" lon="1.4900851249694824">
        <ele>966.277989860467</ele>
        <time>2021-07-14T19:42:34.878Z</time>
      </trkpt>
      <trkpt lat="42.887728214263916" lon="1.4888513088226318">
        <ele>969.0538367145843</ele>
        <time>2021-07-14T19:42:36.789Z</time>
      </trkpt>
      <trkpt lat="42.887781858444214" lon="1.4887762069702148">
        <ele>971.449213681334</ele>
        <time>2021-07-14T19:42:38.701Z</time>
      </trkpt>
      <trkpt lat="42.888243198394775" lon="1.4883041381835938">
        <ele>974.1818686259369</ele>
        <time>2021-07-14T19:42:40.623Z</time>
      </trkpt>
      <trkpt lat="42.888522231951356" lon="1.487950086593628">
        <ele>976.7042743156387</ele>
        <time>2021-07-14T19:42:42.551Z</time>
      </trkpt>
      <trkpt lat="42.88883328437805" lon="1.4874780178070068">
        <ele>979.2797512709012</ele>
        <time>2021-07-14T19:42:44.486Z</time>
      </trkpt>
      <trkpt lat="42.88897284306586" lon="1.4873063564300537">
        <ele>981.7109244240739</ele>
        <time>2021-07-14T19:42:46.424Z</time>
      </trkpt>
      <trkpt lat="42.88904786109924" lon="1.4871776103973389">
        <ele>984.1236895118363</ele>
        <time>2021-07-14T19:42:48.364Z</time>
      </trkpt>
      <trkpt lat="42.88908004760742" lon="1.4870595932006836">
        <ele>986.4908746654895</ele>
        <time>2021-07-14T19:42:50.306Z</time>
      </trkpt>
      <trkpt lat="42.88910150527954" lon="1.4864373207092285">
        <ele>988.794851373915</ele>
        <time>2021-07-14T19:42:52.255Z</time>
      </trkpt>
      <trkpt lat="42.88914442062378" lon="1.4863085746765137">
        <ele>991.1202299239828</ele>
        <time>2021-07-14T19:42:54.206Z</time>
      </trkpt>
      <trkpt lat="42.88919806480408" lon="1.4861905574798584">
        <ele>993.4201800951071</ele>
        <time>2021-07-14T19:42:56.158Z</time>
      </trkpt>
      <trkpt lat="42.88954138755798" lon="1.4857935905456543">
        <ele>995.8397310376525</ele>
        <time>2021-07-14T19:42:58.118Z</time>
      </trkpt>
      <trkpt lat="42.88979887962341" lon="1.4852464199066162">
        <ele>998.1122514097401</ele>
        <time>2021-07-14T19:43:00.085Z</time>
      </trkpt>
      <trkpt lat="42.88990616798401" lon="1.4851176738739014">
        <ele>1000.3325298032016</ele>
        <time>2021-07-14T19:43:02.054Z</time>
      </trkpt>
      <trkpt lat="42.890002727508545" lon="1.4850425720214844">
        <ele>1002.5304693239482</ele>
        <time>2021-07-14T19:43:04.025Z</time>
      </trkpt>
      <trkpt lat="42.89009928703308" lon="1.4850211143493652">
        <ele>1004.7245825698633</ele>
        <time>2021-07-14T19:43:05.998Z</time>
      </trkpt>
      <trkpt lat="42.89035677909851" lon="1.4850211143493652">
        <ele>1007.2153964772511</ele>
        <time>2021-07-14T19:43:07.975Z</time>
      </trkpt>
      <trkpt lat="42.89041042327881" lon="1.484978199005127">
        <ele>1009.3406481052621</ele>
        <time>2021-07-14T19:43:09.953Z</time>
      </trkpt>
      <trkpt lat="42.89045333862305" lon="1.4849138259887695">
        <ele>1011.415275131276</ele>
        <time>2021-07-14T19:43:11.932Z</time>
      </trkpt>
      <trkpt lat="42.890485525131226" lon="1.484827995300293">
        <ele>1013.4481113214283</ele>
        <time>2021-07-14T19:43:13.912Z</time>
      </trkpt>
      <trkpt lat="42.89061427116394" lon="1.4838731288909912">
        <ele>1015.6247175218257</ele>
        <time>2021-07-14T19:43:15.903Z</time>
      </trkpt>
      <trkpt lat="42.89061427116394" lon="1.4833474159240723">
        <ele>1017.6757461552561</ele>
        <time>2021-07-14T19:43:17.901Z</time>
      </trkpt>
      <trkpt lat="42.890625" lon="1.4831650257110596">
        <ele>1019.7108968865186</ele>
        <time>2021-07-14T19:43:19.901Z</time>
      </trkpt>
      <trkpt lat="42.89068937301636" lon="1.4828217029571533">
        <ele>1021.7396172910845</ele>
        <time>2021-07-14T19:43:21.905Z</time>
      </trkpt>
      <trkpt lat="42.89079666137695" lon="1.482532024383545">
        <ele>1023.8018109656696</ele>
        <time>2021-07-14T19:43:23.913Z</time>
      </trkpt>
      <trkpt lat="42.89092540740967" lon="1.482253074645996">
        <ele>1025.954873296856</ele>
        <time>2021-07-14T19:43:25.925Z</time>
      </trkpt>
      <trkpt lat="42.8910756111145" lon="1.4819848537445068">
        <ele>1028.1042266754894</ele>
        <time>2021-07-14T19:43:27.941Z</time>
      </trkpt>
      <trkpt lat="42.8911828994751" lon="1.4818346500396729">
        <ele>1030.1999830357195</ele>
        <time>2021-07-14T19:43:29.959Z</time>
      </trkpt>
      <trkpt lat="42.89131164550781" lon="1.4817273616790771">
        <ele>1032.312184910878</ele>
        <time>2021-07-14T19:43:31.980Z</time>
      </trkpt>
      <trkpt lat="42.89146184921265" lon="1.4816415309906006">
        <ele>1034.4287904852558</ele>
        <time>2021-07-14T19:43:34.003Z</time>
      </trkpt>
      <trkpt lat="42.89185881614685" lon="1.4815878868103027">
        <ele>1036.7824356016476</ele>
        <time>2021-07-14T19:43:36.033Z</time>
      </trkpt>
      <trkpt lat="42.89190173149109" lon="1.4815664291381836">
        <ele>1038.8653725402369</ele>
        <time>2021-07-14T19:43:38.063Z</time>
      </trkpt>
      <trkpt lat="42.891987562179565" lon="1.4814484119415283">
        <ele>1040.9741500262112</ele>
        <time>2021-07-14T19:43:40.095Z</time>
      </trkpt>
      <trkpt lat="42.892223596572876" lon="1.4809226989746094">
        <ele>1043.2703757045642</ele>
        <time>2021-07-14T19:43:42.134Z</time>
      </trkpt>
      <trkpt lat="42.89237380027771" lon="1.4806437492370605">
        <ele>1045.5167359464244</ele>
        <time>2021-07-14T19:43:44.178Z</time>
      </trkpt>
      <trkpt lat="42.89257764816284" lon="1.480332612991333">
        <ele>1047.6625530481142</ele>
        <time>2021-07-14T19:43:46.226Z</time>
      </trkpt>
      <trkpt lat="42.89267420768738" lon="1.4802253246307373">
        <ele>1049.8074236458374</ele>
        <time>2021-07-14T19:43:48.276Z</time>
      </trkpt>
      <trkpt lat="42.89287805557251" lon="1.480107307434082">
        <ele>1052.1017408939288</ele>
        <time>2021-07-14T19:43:50.330Z</time>
      </trkpt>
      <trkpt lat="42.89329648017883" lon="1.4799141883850098">
        <ele>1054.5500892509995</ele>
        <time>2021-07-14T19:43:52.391Z</time>
      </trkpt>
      <trkpt lat="42.89342522621155" lon="1.4798176288604736">
        <ele>1056.8130629120787</ele>
        <time>2021-07-14T19:43:54.454Z</time>
      </trkpt>
      <trkpt lat="42.893489599227905" lon="1.4797532558441162">
        <ele>1059.0555483420499</ele>
        <time>2021-07-14T19:43:56.519Z</time>
      </trkpt>
      <trkpt lat="42.893543327227235" lon="1.4796459674835205">
        <ele>1061.2841355212008</ele>
        <time>2021-07-14T19:43:58.585Z</time>
      </trkpt>
      <trkpt lat="42.89356470108032" lon="1.4792168140411377">
        <ele>1063.4911107857506</ele>
        <time>2021-07-14T19:44:00.656Z</time>
      </trkpt>
      <trkpt lat="42.893511056900024" lon="1.4784979820251465">
        <ele>1065.798404441167</ele>
        <time>2021-07-14T19:44:02.736Z</time>
      </trkpt>
      <trkpt lat="42.893521785736084" lon="1.4781761169433594">
        <ele>1068.1641798868332</ele>
        <time>2021-07-14T19:44:04.820Z</time>
      </trkpt>
      <trkpt lat="42.89360761642456" lon="1.4777040481567383">
        <ele>1070.6562271982693</ele>
        <time>2021-07-14T19:44:06.909Z</time>
      </trkpt>
      <trkpt lat="42.893757820129395" lon="1.4763200283050537">
        <ele>1073.3801747466719</ele>
        <time>2021-07-14T19:44:09.015Z</time>
      </trkpt>
      <trkpt lat="42.89384365081787" lon="1.4761054515838623">
        <ele>1075.8544829267398</ele>
        <time>2021-07-14T19:44:11.124Z</time>
      </trkpt>
      <trkpt lat="42.893961668014526" lon="1.4759230613708496">
        <ele>1078.377699504292</ele>
        <time>2021-07-14T19:44:13.235Z</time>
      </trkpt>
      <trkpt lat="42.89416551589966" lon="1.475740671157837">
        <ele>1080.9232361605427</ele>
        <time>2021-07-14T19:44:15.350Z</time>
      </trkpt>
      <trkpt lat="42.89457321166992" lon="1.475461721420288">
        <ele>1083.5262109475705</ele>
        <time>2021-07-14T19:44:17.473Z</time>
      </trkpt>
      <trkpt lat="42.89472349919379" lon="1.475311517715454">
        <ele>1085.9547286291067</ele>
        <time>2021-07-14T19:44:19.599Z</time>
      </trkpt>
      <trkpt lat="42.894755601882935" lon="1.4752256870269775">
        <ele>1088.2975123420292</ele>
        <time>2021-07-14T19:44:21.726Z</time>
      </trkpt>
      <trkpt lat="42.89480924606323" lon="1.47491455078125">
        <ele>1090.6560201963284</ele>
        <time>2021-07-14T19:44:23.857Z</time>
      </trkpt>
      <trkpt lat="42.89489507675171" lon="1.4745819568634033">
        <ele>1093.126666869221</ele>
        <time>2021-07-14T19:44:25.992Z</time>
      </trkpt>
      <trkpt lat="42.89492726325989" lon="1.4742493629455566">
        <ele>1095.4768358833896</ele>
        <time>2021-07-14T19:44:28.131Z</time>
      </trkpt>
      <trkpt lat="42.89490580558777" lon="1.4738738536834717">
        <ele>1097.7907065973063</ele>
        <time>2021-07-14T19:44:30.274Z</time>
      </trkpt>
      <trkpt lat="42.89490580558777" lon="1.4734983444213867">
        <ele>1100.24028461735</ele>
        <time>2021-07-14T19:44:32.421Z</time>
      </trkpt>
      <trkpt lat="42.89492726325989" lon="1.4734017848968506">
        <ele>1102.580000273212</ele>
        <time>2021-07-14T19:44:34.570Z</time>
      </trkpt>
      <trkpt lat="42.89492734707892" lon="1.4734017848968506">
        <ele>1104.796463998196</ele>
        <time>2021-07-14T19:44:36.719Z</time>
      </trkpt>
      <trkpt lat="42.89492726325989" lon="1.4731550216674805">
        <ele>1107.0377420001064</ele>
        <time>2021-07-14T19:44:38.871Z</time>
      </trkpt>
      <trkpt lat="42.894991636276245" lon="1.472768783569336">
        <ele>1109.3176871608057</ele>
        <time>2021-07-14T19:44:41.027Z</time>
      </trkpt>
      <trkpt lat="42.89557099342346" lon="1.471470594406128">
        <ele>1111.8829562047915</ele>
        <time>2021-07-14T19:44:43.201Z</time>
      </trkpt>
      <trkpt lat="42.895667552948" lon="1.4711594581604004">
        <ele>1114.0903505174956</ele>
        <time>2021-07-14T19:44:45.379Z</time>
      </trkpt>
      <trkpt lat="42.89568901062012" lon="1.4708375930786133">
        <ele>1116.2005606011235</ele>
        <time>2021-07-14T19:44:47.561Z</time>
      </trkpt>
      <trkpt lat="42.8955602645874" lon="1.4696896076202393">
        <ele>1118.2934000724247</ele>
        <time>2021-07-14T19:44:49.756Z</time>
      </trkpt>
      <trkpt lat="42.89554953575134" lon="1.4687132835388184">
        <ele>1120.015642632898</ele>
        <time>2021-07-14T19:44:51.963Z</time>
      </trkpt>
      <trkpt lat="42.89557099342346" lon="1.4684879779815674">
        <ele>1121.9167872454377</ele>
        <time>2021-07-14T19:44:54.173Z</time>
      </trkpt>
      <trkpt lat="42.89562463760376" lon="1.4682197570800781">
        <ele>1123.8646452131047</ele>
        <time>2021-07-14T19:44:56.386Z</time>
      </trkpt>
      <trkpt lat="42.895731925964355" lon="1.467897891998291">
        <ele>1125.798643655402</ele>
        <time>2021-07-14T19:44:58.603Z</time>
      </trkpt>
      <trkpt lat="42.89589285850525" lon="1.4675867557525635">
        <ele>1127.7595747094326</ele>
        <time>2021-07-14T19:45:00.825Z</time>
      </trkpt>
      <trkpt lat="42.895967960357666" lon="1.4673292636871338">
        <ele>1129.5383273872187</ele>
        <time>2021-07-14T19:45:03.050Z</time>
      </trkpt>
      <trkpt lat="42.89597877301276" lon="1.4670932292938232">
        <ele>1131.1223451595151</ele>
        <time>2021-07-14T19:45:05.278Z</time>
      </trkpt>
      <trkpt lat="42.896021604537964" lon="1.4665353298187256">
        <ele>1132.627187769659</ele>
        <time>2021-07-14T19:45:07.512Z</time>
      </trkpt>
      <trkpt lat="42.896236181259155" lon="1.4653658866882324">
        <ele>1134.2655719046315</ele>
        <time>2021-07-14T19:45:09.760Z</time>
      </trkpt>
      <trkpt lat="42.89634346961975" lon="1.464904546737671">
        <ele>1135.7159162414305</ele>
        <time>2021-07-14T19:45:12.014Z</time>
      </trkpt>
      <trkpt lat="42.896504402160645" lon="1.464529037475586">
        <ele>1137.1522196379756</ele>
        <time>2021-07-14T19:45:14.273Z</time>
      </trkpt>
      <trkpt lat="42.896740436553955" lon="1.4641749858856201">
        <ele>1138.727025888427</ele>
        <time>2021-07-14T19:45:16.538Z</time>
      </trkpt>
      <trkpt lat="42.89680480957031" lon="1.4640355110168457">
        <ele>1140.0133065293999</ele>
        <time>2021-07-14T19:45:18.805Z</time>
      </trkpt>
      <trkpt lat="42.89693355560303" lon="1.4634454250335693">
        <ele>1141.273938465834</ele>
        <time>2021-07-14T19:45:21.079Z</time>
      </trkpt>
      <trkpt lat="42.8970730304718" lon="1.4628982543945312">
        <ele>1142.5849319179385</ele>
        <time>2021-07-14T19:45:23.360Z</time>
      </trkpt>
      <trkpt lat="42.89706230163574" lon="1.4627373218536377">
        <ele>1143.669368551625</ele>
        <time>2021-07-14T19:45:25.643Z</time>
      </trkpt>
      <trkpt lat="42.897019386291504" lon="1.4625656604766846">
        <ele>1144.6870583390523</ele>
        <time>2021-07-14T19:45:27.928Z</time>
      </trkpt>
      <trkpt lat="42.89693355560303" lon="1.4623510837554932">
        <ele>1145.6482655643788</ele>
        <time>2021-07-14T19:45:30.216Z</time>
      </trkpt>
      <trkpt lat="42.89682626724243" lon="1.462157964706421">
        <ele>1146.5544077529748</ele>
        <time>2021-07-14T19:45:32.507Z</time>
      </trkpt>
      <trkpt lat="42.896761894226074" lon="1.462007761001587">
        <ele>1147.4584559920245</ele>
        <time>2021-07-14T19:45:34.800Z</time>
      </trkpt>
      <trkpt lat="42.896751165390015" lon="1.4618897438049316">
        <ele>1148.394384821947</ele>
        <time>2021-07-14T19:45:37.094Z</time>
      </trkpt>
      <trkpt lat="42.89678335189819" lon="1.461803913116455">
        <ele>1149.329318914953</ele>
        <time>2021-07-14T19:45:39.389Z</time>
      </trkpt>
      <trkpt lat="42.89684772491455" lon="1.461728811264038">
        <ele>1150.293117426548</ele>
        <time>2021-07-14T19:45:41.685Z</time>
      </trkpt>
      <trkpt lat="42.89694428443909" lon="1.461728811264038">
        <ele>1151.2381053891163</ele>
        <time>2021-07-14T19:45:43.983Z</time>
      </trkpt>
      <trkpt lat="42.897019386291504" lon="1.4617717266082764">
        <ele>1152.14106975765</ele>
        <time>2021-07-14T19:45:46.282Z</time>
      </trkpt>
      <trkpt lat="42.89710521697998" lon="1.4619219303131104">
        <ele>1153.069526932238</ele>
        <time>2021-07-14T19:45:48.584Z</time>
      </trkpt>
      <trkpt lat="42.89713740348816" lon="1.4621365070343018">
        <ele>1153.8819451674408</ele>
        <time>2021-07-14T19:45:50.888Z</time>
      </trkpt>
      <trkpt lat="42.897223234176636" lon="1.4629089832305908">
        <ele>1154.6053833116684</ele>
        <time>2021-07-14T19:45:53.201Z</time>
      </trkpt>
      <trkpt lat="42.897233963012695" lon="1.4632415771484375">
        <ele>1155.4232716622741</ele>
        <time>2021-07-14T19:45:55.518Z</time>
      </trkpt>
      <trkpt lat="42.89713740348816" lon="1.46392822265625">
        <ele>1156.259653911072</ele>
        <time>2021-07-14T19:45:57.843Z</time>
      </trkpt>
      <trkpt lat="42.89705157279968" lon="1.4642822742462158">
        <ele>1157.1090578714404</ele>
        <time>2021-07-14T19:46:00.173Z</time>
      </trkpt>
      <trkpt lat="42.89683699607849" lon="1.4649474620819092">
        <ele>1158.0021411630073</ele>
        <time>2021-07-14T19:46:02.511Z</time>
      </trkpt>
      <trkpt lat="42.89678335189819" lon="1.4652907848358154">
        <ele>1158.91379290547</ele>
        <time>2021-07-14T19:46:04.853Z</time>
      </trkpt>
      <trkpt lat="42.896761894226074" lon="1.4664387702941895">
        <ele>1160.0234273246233</ele>
        <time>2021-07-14T19:46:07.209Z</time>
      </trkpt>
      <trkpt lat="42.89665460586548" lon="1.467350721359253">
        <ele>1160.821957277993</ele>
        <time>2021-07-14T19:46:09.576Z</time>
      </trkpt>
      <trkpt lat="42.896493673324585" lon="1.4682626724243164">
        <ele>1161.6341617795936</ele>
        <time>2021-07-14T19:46:11.954Z</time>
      </trkpt>
      <trkpt lat="42.896493673324585" lon="1.4683806896209717">
        <ele>1162.4699094773637</ele>
        <time>2021-07-14T19:46:14.333Z</time>
      </trkpt>
      <trkpt lat="42.896525859832764" lon="1.4684557914733887">
        <ele>1163.3550539297025</ele>
        <time>2021-07-14T19:46:16.713Z</time>
      </trkpt>
      <trkpt lat="42.89668679237366" lon="1.4686381816864014">
        <ele>1164.4092754423104</ele>
        <time>2021-07-14T19:46:19.097Z</time>
      </trkpt>
      <trkpt lat="42.896729707717896" lon="1.4687132835388184">
        <ele>1165.2926261471134</ele>
        <time>2021-07-14T19:46:21.482Z</time>
      </trkpt>
      <trkpt lat="42.89689064025879" lon="1.4691102504730225">
        <ele>1166.3386805946125</ele>
        <time>2021-07-14T19:46:23.872Z</time>
      </trkpt>
      <trkpt lat="42.89694428443909" lon="1.4691853523254395">
        <ele>1167.276458659811</ele>
        <time>2021-07-14T19:46:26.263Z</time>
      </trkpt>
      <trkpt lat="42.896997928619385" lon="1.4692282676696777">
        <ele>1168.211022182215</ele>
        <time>2021-07-14T19:46:28.655Z</time>
      </trkpt>
      <trkpt lat="42.89705157279968" lon="1.4692282676696777">
        <ele>1169.0893063811718</ele>
        <time>2021-07-14T19:46:31.048Z</time>
      </trkpt>
      <trkpt lat="42.89716958999634" lon="1.4691853523254395">
        <ele>1169.9928621639706</ele>
        <time>2021-07-14T19:46:33.443Z</time>
      </trkpt>
      <trkpt lat="42.897255420684814" lon="1.469099521636963">
        <ele>1170.8443526629508</ele>
        <time>2021-07-14T19:46:35.840Z</time>
      </trkpt>
      <trkpt lat="42.89730906486511" lon="1.4690136909484863">
        <ele>1171.6124351456633</ele>
        <time>2021-07-14T19:46:38.238Z</time>
      </trkpt>
      <trkpt lat="42.89734125137329" lon="1.4689385890960693">
        <ele>1172.3464918653344</ele>
        <time>2021-07-14T19:46:40.637Z</time>
      </trkpt>
      <trkpt lat="42.89735198020935" lon="1.4688634872436523">
        <ele>1173.0689463910553</ele>
        <time>2021-07-14T19:46:43.037Z</time>
      </trkpt>
      <trkpt lat="42.89733052253723" lon="1.4687669277191162">
        <ele>1173.8131779613814</ele>
        <time>2021-07-14T19:46:45.438Z</time>
      </trkpt>
      <trkpt lat="42.897244691848755" lon="1.4686167240142822">
        <ele>1174.5007889718004</ele>
        <time>2021-07-14T19:46:47.842Z</time>
      </trkpt>
      <trkpt lat="42.89714813232422" lon="1.468498706817627">
        <ele>1175.2507264688327</ele>
        <time>2021-07-14T19:46:50.248Z</time>
      </trkpt>
      <trkpt lat="42.89708375930786" lon="1.468445062637329">
        <ele>1176.0027925152808</ele>
        <time>2021-07-14T19:46:52.655Z</time>
      </trkpt>
      <trkpt lat="42.897019386291504" lon="1.4684128761291504">
        <ele>1176.7447355955417</ele>
        <time>2021-07-14T19:46:55.063Z</time>
      </trkpt>
      <trkpt lat="42.89680480957031" lon="1.4684021472930908">
        <ele>1177.2985479156036</ele>
        <time>2021-07-14T19:46:57.474Z</time>
      </trkpt>
      <trkpt lat="42.896740436553955" lon="1.4683806896209717">
        <ele>1178.064467644036</ele>
        <time>2021-07-14T19:46:59.886Z</time>
      </trkpt>
      <trkpt lat="42.89669752120972" lon="1.4683163166046143">
        <ele>1178.9022996264957</ele>
        <time>2021-07-14T19:47:02.299Z</time>
      </trkpt>
      <trkpt lat="42.89668679237366" lon="1.4682304859161377">
        <ele>1179.8139945491466</ele>
        <time>2021-07-14T19:47:04.713Z</time>
      </trkpt>
      <trkpt lat="42.89669752120972" lon="1.468123197555542">
        <ele>1180.8463777018037</ele>
        <time>2021-07-14T19:47:07.129Z</time>
      </trkpt>
      <trkpt lat="42.89686918258667" lon="1.4676189422607422">
        <ele>1182.1492753927032</ele>
        <time>2021-07-14T19:47:09.551Z</time>
      </trkpt>
      <trkpt lat="42.896976470947266" lon="1.4672327041625977">
        <ele>1183.3137050024332</ele>
        <time>2021-07-14T19:47:11.978Z</time>
      </trkpt>
      <trkpt lat="42.89711594581604" lon="1.466825008392334">
        <ele>1184.6156828789913</ele>
        <time>2021-07-14T19:47:14.410Z</time>
      </trkpt>
      <trkpt lat="42.89735198020935" lon="1.466073989868164">
        <ele>1185.8756466295754</ele>
        <time>2021-07-14T19:47:16.852Z</time>
      </trkpt>
      <trkpt lat="42.897491455078125" lon="1.4657413959503174">
        <ele>1187.0332479887686</ele>
        <time>2021-07-14T19:47:19.299Z</time>
      </trkpt>
      <trkpt lat="42.89828538894653" lon="1.4641320705413818">
        <ele>1188.5090182244585</ele>
        <time>2021-07-14T19:47:21.768Z</time>
      </trkpt>
      <trkpt lat="42.89855360984802" lon="1.4636814594268799">
        <ele>1189.9730256620119</ele>
        <time>2021-07-14T19:47:24.244Z</time>
      </trkpt>
      <trkpt lat="42.8985857963562" lon="1.4635205268859863">
        <ele>1191.1439272667976</ele>
        <time>2021-07-14T19:47:26.722Z</time>
      </trkpt>
      <trkpt lat="42.8985857963562" lon="1.4633381366729736">
        <ele>1192.287983843109</ele>
        <time>2021-07-14T19:47:29.202Z</time>
      </trkpt>
      <trkpt lat="42.89854288101196" lon="1.4631128311157227">
        <ele>1193.4064085455348</ele>
        <time>2021-07-14T19:47:31.685Z</time>
      </trkpt>
      <trkpt lat="42.89833903312683" lon="1.4624905586242676">
        <ele>1194.4365559138937</ele>
        <time>2021-07-14T19:47:34.176Z</time>
      </trkpt>
      <trkpt lat="42.898253202438354" lon="1.46217942237854">
        <ele>1195.6473474880154</ele>
        <time>2021-07-14T19:47:36.671Z</time>
      </trkpt>
      <trkpt lat="42.89814591407776" lon="1.4619004726409912">
        <ele>1196.7090511728936</ele>
        <time>2021-07-14T19:47:39.170Z</time>
      </trkpt>
      <trkpt lat="42.89804935455322" lon="1.4615893363952637">
        <ele>1197.705150640691</ele>
        <time>2021-07-14T19:47:41.673Z</time>
      </trkpt>
      <trkpt lat="42.897984981536865" lon="1.4612782001495361">
        <ele>1198.6434091271801</ele>
        <time>2021-07-14T19:47:44.179Z</time>
      </trkpt>
      <trkpt lat="42.89795279502869" lon="1.4610528945922852">
        <ele>1199.6023529301062</ele>
        <time>2021-07-14T19:47:46.688Z</time>
      </trkpt>
      <trkpt lat="42.89794206619263" lon="1.460859775543213">
        <ele>1200.5987709457313</ele>
        <time>2021-07-14T19:47:49.199Z</time>
      </trkpt>
      <trkpt lat="42.897995710372925" lon="1.460709571838379">
        <ele>1201.655129506653</ele>
        <time>2021-07-14T19:47:51.712Z</time>
      </trkpt>
      <trkpt lat="42.89809226989746" lon="1.4606022834777832">
        <ele>1202.755731726881</ele>
        <time>2021-07-14T19:47:54.227Z</time>
      </trkpt>
      <trkpt lat="42.89839267730713" lon="1.460484266281128">
        <ele>1204.063980846549</ele>
        <time>2021-07-14T19:47:56.747Z</time>
      </trkpt>
      <trkpt lat="42.89844632148743" lon="1.4604413509368896">
        <ele>1205.084988662549</ele>
        <time>2021-07-14T19:47:59.268Z</time>
      </trkpt>
      <trkpt lat="42.898467779159546" lon="1.4603769779205322">
        <ele>1206.0428895366995</ele>
        <time>2021-07-14T19:48:01.790Z</time>
      </trkpt>
      <trkpt lat="42.898478507995605" lon="1.4603126049041748">
        <ele>1206.9786260394217</ele>
        <time>2021-07-14T19:48:04.313Z</time>
      </trkpt>
      <trkpt lat="42.898467779159546" lon="1.4601945877075195">
        <ele>1207.9103851507925</ele>
        <time>2021-07-14T19:48:06.837Z</time>
      </trkpt>
      <trkpt lat="42.89842486381531" lon="1.460130214691162">
        <ele>1208.773626542575</ele>
        <time>2021-07-14T19:48:09.362Z</time>
      </trkpt>
      <trkpt lat="42.89832830429077" lon="1.4600229263305664">
        <ele>1209.5257183112608</ele>
        <time>2021-07-14T19:48:11.889Z</time>
      </trkpt>
      <trkpt lat="42.898242473602295" lon="1.4598941802978516">
        <ele>1210.2606633783407</ele>
        <time>2021-07-14T19:48:14.418Z</time>
      </trkpt>
      <trkpt lat="42.898188829422" lon="1.4597225189208984">
        <ele>1211.0547012474624</ele>
        <time>2021-07-14T19:48:16.950Z</time>
      </trkpt>
      <trkpt lat="42.89819955825806" lon="1.459507942199707">
        <ele>1212.042599161719</ele>
        <time>2021-07-14T19:48:19.484Z</time>
      </trkpt>
      <trkpt lat="42.898242473602295" lon="1.4593899250030518">
        <ele>1213.1523940710113</ele>
        <time>2021-07-14T19:48:22.020Z</time>
      </trkpt>
      <trkpt lat="42.89832830429077" lon="1.4592933654785156">
        <ele>1214.3953078538354</ele>
        <time>2021-07-14T19:48:24.557Z</time>
      </trkpt>
      <trkpt lat="42.898521423339844" lon="1.459261178970337">
        <ele>1215.774321540683</ele>
        <time>2021-07-14T19:48:27.098Z</time>
      </trkpt>
      <trkpt lat="42.89866089820862" lon="1.459261178970337">
        <ele>1217.0713519675355</ele>
        <time>2021-07-14T19:48:29.641Z</time>
      </trkpt>
      <trkpt lat="42.89878964424133" lon="1.4592289924621582">
        <ele>1218.3598139988799</ele>
        <time>2021-07-14T19:48:32.186Z</time>
      </trkpt>
      <trkpt lat="42.89888620376587" lon="1.4591538906097412">
        <ele>1219.6607423265348</ele>
        <time>2021-07-14T19:48:34.733Z</time>
      </trkpt>
      <trkpt lat="42.898972034454346" lon="1.4590036869049072">
        <ele>1220.9387002059134</ele>
        <time>2021-07-14T19:48:37.282Z</time>
      </trkpt>
      <trkpt lat="42.8990364074707" lon="1.458832025527954">
        <ele>1222.1926447610062</ele>
        <time>2021-07-14T19:48:39.833Z</time>
      </trkpt>
      <trkpt lat="42.89904713630676" lon="1.4586389064788818">
        <ele>1223.4544616941762</ele>
        <time>2021-07-14T19:48:42.386Z</time>
      </trkpt>
      <trkpt lat="42.899025678634644" lon="1.4584457874298096">
        <ele>1224.8514719440614</ele>
        <time>2021-07-14T19:48:44.942Z</time>
      </trkpt>
      <trkpt lat="42.898961305618286" lon="1.4583277702331543">
        <ele>1226.1643252331132</ele>
        <time>2021-07-14T19:48:47.499Z</time>
      </trkpt>
      <trkpt lat="42.89867162704468" lon="1.4581775665283203">
        <ele>1227.1746906911874</ele>
        <time>2021-07-14T19:48:50.061Z</time>
      </trkpt>
      <trkpt lat="42.89860725402832" lon="1.458113193511963">
        <ele>1228.4776659150853</ele>
        <time>2021-07-14T19:48:52.625Z</time>
      </trkpt>
      <trkpt lat="42.89857506752014" lon="1.458038091659546">
        <ele>1229.85793311209</ele>
        <time>2021-07-14T19:48:55.190Z</time>
      </trkpt>
      <trkpt lat="42.89856433868408" lon="1.4579308032989502">
        <ele>1231.2336296934645</ele>
        <time>2021-07-14T19:48:57.756Z</time>
      </trkpt>
      <trkpt lat="42.89859652519226" lon="1.457759141921997">
        <ele>1232.7549856108317</ele>
        <time>2021-07-14T19:49:00.324Z</time>
      </trkpt>
      <trkpt lat="42.89890766143799" lon="1.4568042755126953">
        <ele>1234.6545578233922</ele>
        <time>2021-07-14T19:49:02.904Z</time>
      </trkpt>
      <trkpt lat="42.89910078048706" lon="1.4564180374145508">
        <ele>1236.130797733791</ele>
        <time>2021-07-14T19:49:05.490Z</time>
      </trkpt>
      <trkpt lat="42.89913296699524" lon="1.456289291381836">
        <ele>1237.3767368456702</ele>
        <time>2021-07-14T19:49:08.077Z</time>
      </trkpt>
      <trkpt lat="42.89916515350342" lon="1.4559674263000488">
        <ele>1238.53089807769</ele>
        <time>2021-07-14T19:49:10.668Z</time>
      </trkpt>
      <trkpt lat="42.8991973400116" lon="1.4556562900543213">
        <ele>1239.8107844819106</ele>
        <time>2021-07-14T19:49:13.263Z</time>
      </trkpt>
      <trkpt lat="42.899240255355835" lon="1.4541113376617432">
        <ele>1241.1396602855343</ele>
        <time>2021-07-14T19:49:15.876Z</time>
      </trkpt>
      <trkpt lat="42.899218797683716" lon="1.4539074897766113">
        <ele>1242.1710329307157</ele>
        <time>2021-07-14T19:49:18.492Z</time>
      </trkpt>
      <trkpt lat="42.89907932281494" lon="1.4534032344818115">
        <ele>1243.1117916345158</ele>
        <time>2021-07-14T19:49:21.114Z</time>
      </trkpt>
      <trkpt lat="42.899025678634644" lon="1.4531457424163818">
        <ele>1243.937468952879</ele>
        <time>2021-07-14T19:49:23.739Z</time>
      </trkpt>
      <trkpt lat="42.899015033617616" lon="1.4529848098754883">
        <ele>1244.6376633888267</ele>
        <time>2021-07-14T19:49:26.366Z</time>
      </trkpt>
      <trkpt lat="42.89904713630676" lon="1.4528560638427734">
        <ele>1245.2134959541254</ele>
        <time>2021-07-14T19:49:28.995Z</time>
      </trkpt>
      <trkpt lat="42.89915450848639" lon="1.4526844024658203">
        <ele>1245.5969022290092</ele>
        <time>2021-07-14T19:49:31.626Z</time>
      </trkpt>
      <trkpt lat="42.89922961033881" lon="1.4526307582855225">
        <ele>1245.8308755690043</ele>
        <time>2021-07-14T19:49:34.259Z</time>
      </trkpt>
      <trkpt lat="42.8995406627655" lon="1.452544927597046">
        <ele>1245.9872119414542</ele>
        <time>2021-07-14T19:49:36.897Z</time>
      </trkpt>
      <trkpt lat="42.8995943069458" lon="1.4525127410888672">
        <ele>1246.0248473909269</ele>
        <time>2021-07-14T19:49:39.536Z</time>
      </trkpt>
      <trkpt lat="42.89965867996216" lon="1.4524376392364502">
        <ele>1245.9450606574565</ele>
        <time>2021-07-14T19:49:42.176Z</time>
      </trkpt>
      <trkpt lat="42.899712324142456" lon="1.4522981643676758">
        <ele>1245.7142345544478</ele>
        <time>2021-07-14T19:49:44.818Z</time>
      </trkpt>
      <trkpt lat="42.89978742599487" lon="1.451869010925293">
        <ele>1245.2780320746715</ele>
        <time>2021-07-14T19:49:47.465Z</time>
      </trkpt>
      <trkpt lat="42.900002002716064" lon="1.4509034156799316">
        <ele>1244.5227396194114</ele>
        <time>2021-07-14T19:49:50.124Z</time>
      </trkpt>
      <trkpt lat="42.90033459663391" lon="1.4498841762542725">
        <ele>1243.5938136234095</ele>
        <time>2021-07-14T19:49:52.796Z</time>
      </trkpt>
      <trkpt lat="42.900452613830566" lon="1.449573040008545">
        <ele>1242.823254242286</ele>
        <time>2021-07-14T19:49:55.472Z</time>
      </trkpt>
      <trkpt lat="42.90057063102722" lon="1.4493048191070557">
        <ele>1242.0633734553803</ele>
        <time>2021-07-14T19:49:58.152Z</time>
      </trkpt>
      <trkpt lat="42.90059208869934" lon="1.4491868019104004">
        <ele>1241.1298845685023</ele>
        <time>2021-07-14T19:50:00.833Z</time>
      </trkpt>
      <trkpt lat="42.9006028175354" lon="1.4490580558776855">
        <ele>1240.0700329373612</ele>
        <time>2021-07-14T19:50:03.516Z</time>
      </trkpt>
      <trkpt lat="42.90058135986328" lon="1.4488863945007324">
        <ele>1238.8529553164096</ele>
        <time>2021-07-14T19:50:06.201Z</time>
      </trkpt>
      <trkpt lat="42.900516986846924" lon="1.4484894275665283">
        <ele>1237.2982746726761</ele>
        <time>2021-07-14T19:50:08.891Z</time>
      </trkpt>
      <trkpt lat="42.90053844451904" lon="1.4481890201568604">
        <ele>1235.9566245992487</ele>
        <time>2021-07-14T19:50:11.584Z</time>
      </trkpt>
      <trkpt lat="42.90061354637146" lon="1.447845697402954">
        <ele>1234.6125446778292</ele>
        <time>2021-07-14T19:50:14.281Z</time>
      </trkpt>
      <trkpt lat="42.900731563568115" lon="1.4475023746490479">
        <ele>1233.3547706439726</ele>
        <time>2021-07-14T19:50:16.983Z</time>
      </trkpt>
      <trkpt lat="42.90103197097778" lon="1.4468157291412354">
        <ele>1231.855078143787</ele>
        <time>2021-07-14T19:50:19.694Z</time>
      </trkpt>
      <trkpt lat="42.90140748023987" lon="1.4458394050598145">
        <ele>1230.2455304931264</ele>
        <time>2021-07-14T19:50:22.418Z</time>
      </trkpt>
      <trkpt lat="42.901493310928345" lon="1.4456677436828613">
        <ele>1228.7901202667122</ele>
        <time>2021-07-14T19:50:25.145Z</time>
      </trkpt>
      <trkpt lat="42.90158987045288" lon="1.4455389976501465">
        <ele>1227.3223450187904</ele>
        <time>2021-07-14T19:50:27.874Z</time>
      </trkpt>
      <trkpt lat="42.901761531829834" lon="1.4454102516174316">
        <ele>1225.8658431367855</ele>
        <time>2021-07-14T19:50:30.606Z</time>
      </trkpt>
      <trkpt lat="42.90192246437073" lon="1.4453566074371338">
        <ele>1224.3687486100457</ele>
        <time>2021-07-14T19:50:33.340Z</time>
      </trkpt>
      <trkpt lat="42.90212631225586" lon="1.4453136920928955">
        <ele>1222.822332857648</ele>
        <time>2021-07-14T19:50:36.078Z</time>
      </trkpt>
      <trkpt lat="42.902727127075195" lon="1.445249319076538">
        <ele>1221.0099753074164</ele>
        <time>2021-07-14T19:50:38.825Z</time>
      </trkpt>
      <trkpt lat="42.90304899215698" lon="1.4452922344207764">
        <ele>1219.4704154806518</ele>
        <time>2021-07-14T19:50:41.578Z</time>
      </trkpt>
      <trkpt lat="42.90319927968085" lon="1.4453566074371338">
        <ele>1218.0445559146278</ele>
        <time>2021-07-14T19:50:44.333Z</time>
      </trkpt>
      <trkpt lat="42.90329575538635" lon="1.4454102516174316">
        <ele>1216.6446107842103</ele>
        <time>2021-07-14T19:50:47.090Z</time>
      </trkpt>
      <trkpt lat="42.90337085723877" lon="1.4454209804534912">
        <ele>1215.2320385817452</ele>
        <time>2021-07-14T19:50:49.848Z</time>
      </trkpt>
      <trkpt lat="42.90342450141907" lon="1.4454102516174316">
        <ele>1213.821481704223</ele>
        <time>2021-07-14T19:50:52.607Z</time>
      </trkpt>
      <trkpt lat="42.903478145599365" lon="1.4453673362731934">
        <ele>1212.428890948483</ele>
        <time>2021-07-14T19:50:55.367Z</time>
      </trkpt>
      <trkpt lat="42.903510332107544" lon="1.4452922344207764">
        <ele>1211.0406333099047</ele>
        <time>2021-07-14T19:50:58.128Z</time>
      </trkpt>
      <trkpt lat="42.90354251861572" lon="1.445174217224121">
        <ele>1209.6959827313162</ele>
        <time>2021-07-14T19:51:00.890Z</time>
      </trkpt>
      <trkpt lat="42.90354251861572" lon="1.4450132846832275">
        <ele>1208.3421915632837</ele>
        <time>2021-07-14T19:51:03.654Z</time>
      </trkpt>
      <trkpt lat="42.90353178977966" lon="1.4448630809783936">
        <ele>1206.9896931215649</ele>
        <time>2021-07-14T19:51:06.420Z</time>
      </trkpt>
      <trkpt lat="42.903499603271484" lon="1.4447236061096191">
        <ele>1205.6466801484025</ele>
        <time>2021-07-14T19:51:09.188Z</time>
      </trkpt>
      <trkpt lat="42.90344595909119" lon="1.4445841312408447">
        <ele>1204.3446799677663</ele>
        <time>2021-07-14T19:51:11.958Z</time>
      </trkpt>
      <trkpt lat="42.90314555168152" lon="1.444004774093628">
        <ele>1202.9066507087541</ele>
        <time>2021-07-14T19:51:14.736Z</time>
      </trkpt>
      <trkpt lat="42.90294178761542" lon="1.4434683322906494">
        <ele>1201.4772928869263</ele>
        <time>2021-07-14T19:51:17.521Z</time>
      </trkpt>
      <trkpt lat="42.90288805961609" lon="1.4433503150939941">
        <ele>1200.2224740020424</ele>
        <time>2021-07-14T19:51:20.308Z</time>
      </trkpt>
      <trkpt lat="42.90280222892761" lon="1.4430177211761475">
        <ele>1198.8817116667742</ele>
        <time>2021-07-14T19:51:23.099Z</time>
      </trkpt>
      <trkpt lat="42.90269494056702" lon="1.4424598217010498">
        <ele>1197.5981993965788</ele>
        <time>2021-07-14T19:51:25.897Z</time>
      </trkpt>
      <trkpt lat="42.9026734828949" lon="1.4423418045043945">
        <ele>1196.5082159682408</ele>
        <time>2021-07-14T19:51:28.696Z</time>
      </trkpt>
      <trkpt lat="42.9026734828949" lon="1.4419984817504883">
        <ele>1195.533167913899</ele>
        <time>2021-07-14T19:51:31.499Z</time>
      </trkpt>
      <trkpt lat="42.902770042419434" lon="1.4412689208984375">
        <ele>1194.6443516682411</ele>
        <time>2021-07-14T19:51:34.311Z</time>
      </trkpt>
      <trkpt lat="42.90283441543579" lon="1.4409470558166504">
        <ele>1193.6649710914799</ele>
        <time>2021-07-14T19:51:37.127Z</time>
      </trkpt>
      <trkpt lat="42.90292024612427" lon="1.4406895637512207">
        <ele>1192.757418366769</ele>
        <time>2021-07-14T19:51:39.946Z</time>
      </trkpt>
      <trkpt lat="42.903016805648804" lon="1.4405500888824463">
        <ele>1191.9620710846125</ele>
        <time>2021-07-14T19:51:42.767Z</time>
      </trkpt>
      <trkpt lat="42.90318855084479" lon="1.4403998851776123">
        <ele>1191.1943549189668</ele>
        <time>2021-07-14T19:51:45.592Z</time>
      </trkpt>
      <trkpt lat="42.90328502655029" lon="1.440356969833374">
        <ele>1190.4393549122847</ele>
        <time>2021-07-14T19:51:48.418Z</time>
      </trkpt>
      <trkpt lat="42.90337085723877" lon="1.440356969833374">
        <ele>1189.786158750548</ele>
        <time>2021-07-14T19:51:51.246Z</time>
      </trkpt>
      <trkpt lat="42.90343523025513" lon="1.4403784275054932">
        <ele>1189.1808047219188</ele>
        <time>2021-07-14T19:51:54.075Z</time>
      </trkpt>
      <trkpt lat="42.903488874435425" lon="1.4404428005218506">
        <ele>1188.6099100280746</ele>
        <time>2021-07-14T19:51:56.905Z</time>
      </trkpt>
      <trkpt lat="42.90358543395996" lon="1.4406681060791016">
        <ele>1188.129919615743</ele>
        <time>2021-07-14T19:51:59.738Z</time>
      </trkpt>
      <trkpt lat="42.90363907814026" lon="1.4407646656036377">
        <ele>1187.5532740110975</ele>
        <time>2021-07-14T19:52:02.572Z</time>
      </trkpt>
      <trkpt lat="42.903714179992676" lon="1.4407861232757568">
        <ele>1186.934540588086</ele>
        <time>2021-07-14T19:52:05.407Z</time>
      </trkpt>
      <trkpt lat="42.90381073951721" lon="1.4407753944396973">
        <ele>1186.3801924764373</ele>
        <time>2021-07-14T19:52:08.244Z</time>
      </trkpt>
      <trkpt lat="42.90385365486145" lon="1.4407217502593994">
        <ele>1185.7853197024892</ele>
        <time>2021-07-14T19:52:11.082Z</time>
      </trkpt>
      <trkpt lat="42.90403604507446" lon="1.4402925968170166">
        <ele>1185.0027857455702</ele>
        <time>2021-07-14T19:52:13.926Z</time>
      </trkpt>
      <trkpt lat="42.90406823158264" lon="1.4401531219482422">
        <ele>1184.3689401428815</ele>
        <time>2021-07-14T19:52:16.771Z</time>
      </trkpt>
      <trkpt lat="42.9040789604187" lon="1.4400029182434082">
        <ele>1183.7155467120226</ele>
        <time>2021-07-14T19:52:19.618Z</time>
      </trkpt>
      <trkpt lat="42.9040789604187" lon="1.4398527145385742">
        <ele>1183.0830906501549</ele>
        <time>2021-07-14T19:52:22.467Z</time>
      </trkpt>
      <trkpt lat="42.90405750274658" lon="1.4396917819976807">
        <ele>1182.4171831448243</ele>
        <time>2021-07-14T19:52:25.318Z</time>
      </trkpt>
      <trkpt lat="42.90384292602539" lon="1.4388227462768555">
        <ele>1181.2343531789202</ele>
        <time>2021-07-14T19:52:28.180Z</time>
      </trkpt>
      <trkpt lat="42.90384292602539" lon="1.4387154579162598">
        <ele>1180.6280795528464</ele>
        <time>2021-07-14T19:52:31.043Z</time>
      </trkpt>
      <trkpt lat="42.90387511253357" lon="1.4385974407196045">
        <ele>1180.0550829809263</ele>
        <time>2021-07-14T19:52:33.907Z</time>
      </trkpt>
      <trkpt lat="42.90392875671387" lon="1.4385008811950684">
        <ele>1179.514211562439</ele>
        <time>2021-07-14T19:52:36.773Z</time>
      </trkpt>
      <trkpt lat="42.90403604507446" lon="1.4383721351623535">
        <ele>1178.9666188559988</ele>
        <time>2021-07-14T19:52:39.641Z</time>
      </trkpt>
      <trkpt lat="42.904207706451416" lon="1.4382648468017578">
        <ele>1178.3987133691649</ele>
        <time>2021-07-14T19:52:42.512Z</time>
      </trkpt>
      <trkpt lat="42.90493726730347" lon="1.4382219314575195">
        <ele>1177.944324491151</ele>
        <time>2021-07-14T19:52:45.395Z</time>
      </trkpt>
      <trkpt lat="42.90502309799194" lon="1.4381897449493408">
        <ele>1177.3132632975212</ele>
        <time>2021-07-14T19:52:48.279Z</time>
      </trkpt>
      <trkpt lat="42.90509819984436" lon="1.4381253719329834">
        <ele>1176.6608021443294</ele>
        <time>2021-07-14T19:52:51.165Z</time>
      </trkpt>
      <trkpt lat="42.90516257286072" lon="1.4380395412445068">
        <ele>1176.024081107008</ele>
        <time>2021-07-14T19:52:54.052Z</time>
      </trkpt>
      <trkpt lat="42.905205488204956" lon="1.4379322528839111">
        <ele>1175.3705536096572</ele>
        <time>2021-07-14T19:52:56.941Z</time>
      </trkpt>
      <trkpt lat="42.905216217041016" lon="1.4378035068511963">
        <ele>1174.6633487580252</ele>
        <time>2021-07-14T19:52:59.831Z</time>
      </trkpt>
      <trkpt lat="42.905216217041016" lon="1.4376640319824219">
        <ele>1173.932160824723</ele>
        <time>2021-07-14T19:53:02.723Z</time>
      </trkpt>
      <trkpt lat="42.90518403053284" lon="1.437513828277588">
        <ele>1173.163479699801</ele>
        <time>2021-07-14T19:53:05.617Z</time>
      </trkpt>
      <trkpt lat="42.90518403053284" lon="1.4372456073760986">
        <ele>1172.4235380471248</ele>
        <time>2021-07-14T19:53:08.514Z</time>
      </trkpt>
      <trkpt lat="42.905237674713135" lon="1.4369666576385498">
        <ele>1171.8277619986934</ele>
        <time>2021-07-14T19:53:11.414Z</time>
      </trkpt>
      <trkpt lat="42.905237674713135" lon="1.436837911605835">
        <ele>1171.21110955831</ele>
        <time>2021-07-14T19:53:14.316Z</time>
      </trkpt>
      <trkpt lat="42.905226945877075" lon="1.4367413520812988">
        <ele>1170.586703083071</ele>
        <time>2021-07-14T19:53:17.219Z</time>
      </trkpt>
      <trkpt lat="42.9051411151886" lon="1.4365804195404053">
        <ele>1169.9261518188596</ele>
        <time>2021-07-14T19:53:20.124Z</time>
      </trkpt>
      <trkpt lat="42.90507674217224" lon="1.4365267753601074">
        <ele>1169.2285155684383</ele>
        <time>2021-07-14T19:53:23.030Z</time>
      </trkpt>
      <trkpt lat="42.90491580963135" lon="1.43646240234375">
        <ele>1168.3924263180888</ele>
        <time>2021-07-14T19:53:25.939Z</time>
      </trkpt>
      <trkpt lat="42.90484070777893" lon="1.4364087581634521">
        <ele>1167.684728922695</ele>
        <time>2021-07-14T19:53:28.849Z</time>
      </trkpt>
      <trkpt lat="42.90478706359863" lon="1.4363229274749756">
        <ele>1167.0153699713092</ele>
        <time>2021-07-14T19:53:31.761Z</time>
      </trkpt>
      <trkpt lat="42.90466904640198" lon="1.4359581470489502">
        <ele>1166.491818525319</ele>
        <time>2021-07-14T19:53:34.677Z</time>
      </trkpt>
      <trkpt lat="42.90460467338562" lon="1.4358186721801758">
        <ele>1165.8886130370943</ele>
        <time>2021-07-14T19:53:37.595Z</time>
      </trkpt>
      <trkpt lat="42.90411114692688" lon="1.435239315032959">
        <ele>1164.7675946888373</ele>
        <time>2021-07-14T19:53:40.524Z</time>
      </trkpt>
      <trkpt lat="42.90405750274658" lon="1.4350783824920654">
        <ele>1164.0511199701796</ele>
        <time>2021-07-14T19:53:43.455Z</time>
      </trkpt>
      <trkpt lat="42.90403604507446" lon="1.4349174499511719">
        <ele>1163.4213015201508</ele>
        <time>2021-07-14T19:53:46.388Z</time>
      </trkpt>
      <trkpt lat="42.90404677391052" lon="1.4347350597381592">
        <ele>1162.8757658023073</ele>
        <time>2021-07-14T19:53:49.323Z</time>
      </trkpt>
      <trkpt lat="42.90408968925476" lon="1.434488296508789">
        <ele>1162.3223108628556</ele>
        <time>2021-07-14T19:53:52.261Z</time>
      </trkpt>
      <trkpt lat="42.90416479110718" lon="1.4342522621154785">
        <ele>1161.714068612185</ele>
        <time>2021-07-14T19:53:55.202Z</time>
      </trkpt>
      <trkpt lat="42.90435799397528" lon="1.4339518547058105">
        <ele>1161.1782772025724</ele>
        <time>2021-07-14T19:53:58.148Z</time>
      </trkpt>
      <trkpt lat="42.90459394454956" lon="1.4336514472961426">
        <ele>1160.5764115990974</ele>
        <time>2021-07-14T19:54:01.099Z</time>
      </trkpt>
      <trkpt lat="42.90485143661499" lon="1.4332222938537598">
        <ele>1159.7280042781367</ele>
        <time>2021-07-14T19:54:04.056Z</time>
      </trkpt>
      <trkpt lat="42.90509819984436" lon="1.433018445968628">
        <ele>1159.177200157451</ele>
        <time>2021-07-14T19:54:07.018Z</time>
      </trkpt>
      <trkpt lat="42.905259216204286" lon="1.4329540729522705">
        <ele>1158.7546071216846</ele>
        <time>2021-07-14T19:54:09.983Z</time>
      </trkpt>
      <trkpt lat="42.90543079376221" lon="1.4329004287719727">
        <ele>1158.384358084778</ele>
        <time>2021-07-14T19:54:12.950Z</time>
      </trkpt>
      <trkpt lat="42.905473709106445" lon="1.4328575134277344">
        <ele>1157.7429924344506</ele>
        <time>2021-07-14T19:54:15.918Z</time>
      </trkpt>
      <trkpt lat="42.905516624450684" lon="1.432793140411377">
        <ele>1157.0639451857933</ele>
        <time>2021-07-14T19:54:18.887Z</time>
      </trkpt>
      <trkpt lat="42.90552735328674" lon="1.4327073097229004">
        <ele>1156.2998888096795</ele>
        <time>2021-07-14T19:54:21.857Z</time>
      </trkpt>
      <trkpt lat="42.90552735328674" lon="1.4326107501983643">
        <ele>1155.489714138211</ele>
        <time>2021-07-14T19:54:24.828Z</time>
      </trkpt>
      <trkpt lat="42.905484437942505" lon="1.4325141906738281">
        <ele>1154.5680555746599</ele>
        <time>2021-07-14T19:54:27.801Z</time>
      </trkpt>
      <trkpt lat="42.90528059005737" lon="1.432192325592041">
        <ele>1153.3380760566938</ele>
        <time>2021-07-14T19:54:30.779Z</time>
      </trkpt>
      <trkpt lat="42.90492653846741" lon="1.431666612625122">
        <ele>1151.9990451023148</ele>
        <time>2021-07-14T19:54:33.765Z</time>
      </trkpt>
      <trkpt lat="42.90457248687744" lon="1.4313876628875732">
        <ele>1150.69293867318</ele>
        <time>2021-07-14T19:54:36.758Z</time>
      </trkpt>
      <trkpt lat="42.904508113861084" lon="1.4313125610351562">
        <ele>1149.5925229892118</ele>
        <time>2021-07-14T19:54:39.752Z</time>
      </trkpt>
      <trkpt lat="42.904475927352905" lon="1.4312160015106201">
        <ele>1148.5251231134012</ele>
        <time>2021-07-14T19:54:42.747Z</time>
      </trkpt>
      <trkpt lat="42.904475927352905" lon="1.4311087131500244">
        <ele>1147.5059885609005</ele>
        <time>2021-07-14T19:54:45.744Z</time>
      </trkpt>
      <trkpt lat="42.9045832157135" lon="1.4306044578552246">
        <ele>1146.4535538390933</ele>
        <time>2021-07-14T19:54:48.747Z</time>
      </trkpt>
      <trkpt lat="42.904701232910156" lon="1.4302289485931396">
        <ele>1145.1163084760883</ele>
        <time>2021-07-14T19:54:51.755Z</time>
      </trkpt>
      <trkpt lat="42.90502309799194" lon="1.4297783374786377">
        <ele>1144.0685497346976</ele>
        <time>2021-07-14T19:54:54.770Z</time>
      </trkpt>
      <trkpt lat="42.90528059005737" lon="1.4295101165771484">
        <ele>1142.8668229900413</ele>
        <time>2021-07-14T19:54:57.790Z</time>
      </trkpt>
      <trkpt lat="42.90580630302429" lon="1.429295539855957">
        <ele>1141.8159959150064</ele>
        <time>2021-07-14T19:55:00.819Z</time>
      </trkpt>
      <trkpt lat="42.90635347366333" lon="1.4290165901184082">
        <ele>1140.557295485814</ele>
        <time>2021-07-14T19:55:03.857Z</time>
      </trkpt>
      <trkpt lat="42.906450033187866" lon="1.4289522171020508">
        <ele>1139.279142839779</ele>
        <time>2021-07-14T19:55:06.897Z</time>
      </trkpt>
      <trkpt lat="42.90653586387634" lon="1.4288127422332764">
        <ele>1137.8768485897572</ele>
        <time>2021-07-14T19:55:09.939Z</time>
      </trkpt>
      <trkpt lat="42.90656805038452" lon="1.4286410808563232">
        <ele>1136.4065355545727</ele>
        <time>2021-07-14T19:55:12.983Z</time>
      </trkpt>
      <trkpt lat="42.90653586387634" lon="1.4284372329711914">
        <ele>1134.9766445282007</ele>
        <time>2021-07-14T19:55:16.030Z</time>
      </trkpt>
      <trkpt lat="42.906460762023926" lon="1.42822265625">
        <ele>1133.5239602177485</ele>
        <time>2021-07-14T19:55:19.079Z</time>
      </trkpt>
      <trkpt lat="42.90618181228638" lon="1.4280509948730469">
        <ele>1131.826412892065</ele>
        <time>2021-07-14T19:55:22.133Z</time>
      </trkpt>
      <trkpt lat="42.90611743927002" lon="1.4279329776763916">
        <ele>1130.3371083183852</ele>
        <time>2021-07-14T19:55:25.189Z</time>
      </trkpt>
      <trkpt lat="42.906010150909424" lon="1.4268708229064941">
        <ele>1128.7101992240423</ele>
        <time>2021-07-14T19:55:28.258Z</time>
      </trkpt>
      <trkpt lat="42.90602087974548" lon="1.4266347885131836">
        <ele>1127.1382224719764</ele>
        <time>2021-07-14T19:55:31.329Z</time>
      </trkpt>
      <trkpt lat="42.90606379508972" lon="1.4264845848083496">
        <ele>1125.6326911692363</ele>
        <time>2021-07-14T19:55:34.402Z</time>
      </trkpt>
      <trkpt lat="42.9061496257782" lon="1.426323652267456">
        <ele>1124.0980151855674</ele>
        <time>2021-07-14T19:55:37.478Z</time>
      </trkpt>
      <trkpt lat="42.90683627128601" lon="1.4255833625793457">
        <ele>1122.2745231129907</ele>
        <time>2021-07-14T19:55:40.568Z</time>
      </trkpt>
      <trkpt lat="42.90708303451538" lon="1.4254438877105713">
        <ele>1120.7708425098074</ele>
        <time>2021-07-14T19:55:43.662Z</time>
      </trkpt>
      <trkpt lat="42.90734052658081" lon="1.4253151416778564">
        <ele>1119.254951402053</ele>
        <time>2021-07-14T19:55:46.760Z</time>
      </trkpt>
      <trkpt lat="42.9076087474823" lon="1.4252400398254395">
        <ele>1117.8441754924581</ele>
        <time>2021-07-14T19:55:49.863Z</time>
      </trkpt>
      <trkpt lat="42.907694578170776" lon="1.4251434803009033">
        <ele>1116.3696616409843</ele>
        <time>2021-07-14T19:55:52.968Z</time>
      </trkpt>
      <trkpt lat="42.90779113769531" lon="1.425004005432129">
        <ele>1114.8547265947027</ele>
        <time>2021-07-14T19:55:56.075Z</time>
      </trkpt>
      <trkpt lat="42.90781267918646" lon="1.4248323440551758">
        <ele>1113.3148403544556</ele>
        <time>2021-07-14T19:55:59.184Z</time>
      </trkpt>
      <trkpt lat="42.90780186653137" lon="1.4243924617767334">
        <ele>1111.7540732990751</ele>
        <time>2021-07-14T19:56:02.298Z</time>
      </trkpt>
      <trkpt lat="42.90767312049866" lon="1.4240169525146484">
        <ele>1110.240655041042</ele>
        <time>2021-07-14T19:56:05.417Z</time>
      </trkpt>
      <trkpt lat="42.90753364562988" lon="1.4236736297607422">
        <ele>1108.8626017922138</ele>
        <time>2021-07-14T19:56:08.541Z</time>
      </trkpt>
      <trkpt lat="42.907458543777466" lon="1.423577070236206">
        <ele>1107.4710845841153</ele>
        <time>2021-07-14T19:56:11.666Z</time>
      </trkpt>
      <trkpt lat="42.9071581363678" lon="1.423330307006836">
        <ele>1105.9921692024163</ele>
        <time>2021-07-14T19:56:14.797Z</time>
      </trkpt>
      <trkpt lat="42.906997203826904" lon="1.4232337474822998">
        <ele>1104.5718948615631</ele>
        <time>2021-07-14T19:56:17.931Z</time>
      </trkpt>
      <trkpt lat="42.90668606758118" lon="1.4232230186462402">
        <ele>1102.8049048536886</ele>
        <time>2021-07-14T19:56:21.070Z</time>
      </trkpt>
      <trkpt lat="42.906514406204224" lon="1.4231693744659424">
        <ele>1101.3942634707857</ele>
        <time>2021-07-14T19:56:24.211Z</time>
      </trkpt>
      <trkpt lat="42.90638566017151" lon="1.423051357269287">
        <ele>1100.1321260018256</ele>
        <time>2021-07-14T19:56:27.355Z</time>
      </trkpt>
      <trkpt lat="42.90627837181091" lon="1.422879695892334">
        <ele>1098.9138233169301</ele>
        <time>2021-07-14T19:56:30.502Z</time>
      </trkpt>
      <trkpt lat="42.906224727630615" lon="1.4227080345153809">
        <ele>1097.7937046870793</ele>
        <time>2021-07-14T19:56:33.651Z</time>
      </trkpt>
      <trkpt lat="42.906213998794556" lon="1.4224398136138916">
        <ele>1096.7144614366662</ele>
        <time>2021-07-14T19:56:36.803Z</time>
      </trkpt>
      <trkpt lat="42.90632128715515" lon="1.4215385913848877">
        <ele>1095.6865257500865</ele>
        <time>2021-07-14T19:56:39.966Z</time>
      </trkpt>
      <trkpt lat="42.90637493133545" lon="1.4212381839752197">
        <ele>1094.5566628814586</ele>
        <time>2021-07-14T19:56:43.132Z</time>
      </trkpt>
      <trkpt lat="42.90641784667969" lon="1.421130895614624">
        <ele>1093.511668022598</ele>
        <time>2021-07-14T19:56:46.300Z</time>
      </trkpt>
      <trkpt lat="42.906460762023926" lon="1.421055793762207">
        <ele>1092.5585001548143</ele>
        <time>2021-07-14T19:56:49.469Z</time>
      </trkpt>
      <trkpt lat="42.90652513504028" lon="1.4210021495819092">
        <ele>1091.7013430603372</ele>
        <time>2021-07-14T19:56:52.639Z</time>
      </trkpt>
      <trkpt lat="42.90668606758118" lon="1.4209377765655518">
        <ele>1091.1282852864426</ele>
        <time>2021-07-14T19:56:55.812Z</time>
      </trkpt>
      <trkpt lat="42.90678262710571" lon="1.4208197593688965">
        <ele>1090.220112950593</ele>
        <time>2021-07-14T19:56:58.987Z</time>
      </trkpt>
      <trkpt lat="42.90685772895813" lon="1.4205408096313477">
        <ele>1089.143088433282</ele>
        <time>2021-07-14T19:57:02.165Z</time>
      </trkpt>
      <trkpt lat="42.906997203826904" lon="1.420379877090454">
        <ele>1088.365565862838</ele>
        <time>2021-07-14T19:57:05.346Z</time>
      </trkpt>
      <trkpt lat="42.9070508480072" lon="1.420304775238037">
        <ele>1087.4341992049735</ele>
        <time>2021-07-14T19:57:08.528Z</time>
      </trkpt>
      <trkpt lat="42.90706157684326" lon="1.4201867580413818">
        <ele>1086.3897864468627</ele>
        <time>2021-07-14T19:57:11.712Z</time>
      </trkpt>
      <trkpt lat="42.907007932662964" lon="1.4200150966644287">
        <ele>1085.1774266000193</ele>
        <time>2021-07-14T19:57:14.898Z</time>
      </trkpt>
      <trkpt lat="42.906954288482666" lon="1.419907808303833">
        <ele>1083.9592626579442</ele>
        <time>2021-07-14T19:57:18.086Z</time>
      </trkpt>
      <trkpt lat="42.90693283081055" lon="1.4197897911071777">
        <ele>1082.7886426748848</ele>
        <time>2021-07-14T19:57:21.275Z</time>
      </trkpt>
      <trkpt lat="42.906975746154785" lon="1.4195644855499268">
        <ele>1081.7523761203524</ele>
        <time>2021-07-14T19:57:24.467Z</time>
      </trkpt>
      <trkpt lat="42.906975746154785" lon="1.4193177223205566">
        <ele>1080.6603763455535</ele>
        <time>2021-07-14T19:57:27.662Z</time>
      </trkpt>
      <trkpt lat="42.90692210197449" lon="1.4191889762878418">
        <ele>1079.4379964336135</ele>
        <time>2021-07-14T19:57:30.858Z</time>
      </trkpt>
      <trkpt lat="42.906707525253296" lon="1.4189207553863525">
        <ele>1077.8166256447507</ele>
        <time>2021-07-14T19:57:34.059Z</time>
      </trkpt>
      <trkpt lat="42.90666460990906" lon="1.418834924697876">
        <ele>1076.5511412519472</ele>
        <time>2021-07-14T19:57:37.261Z</time>
      </trkpt>
      <trkpt lat="42.90666460990906" lon="1.4186739921569824">
        <ele>1075.356889825477</ele>
        <time>2021-07-14T19:57:40.465Z</time>
      </trkpt>
      <trkpt lat="42.906965017318726" lon="1.4176976680755615">
        <ele>1074.1657606487443</ele>
        <time>2021-07-14T19:57:43.682Z</time>
      </trkpt>
      <trkpt lat="42.907201051712036" lon="1.4170539379119873">
        <ele>1072.6392759685914</ele>
        <time>2021-07-14T19:57:46.907Z</time>
      </trkpt>
      <trkpt lat="42.90735125541687" lon="1.4167964458465576">
        <ele>1071.3027695350597</ele>
        <time>2021-07-14T19:57:50.136Z</time>
      </trkpt>
      <trkpt lat="42.907458543777466" lon="1.4166784286499023">
        <ele>1069.9877590394533</ele>
        <time>2021-07-14T19:57:53.367Z</time>
      </trkpt>
      <trkpt lat="42.90759801864624" lon="1.4165925979614258">
        <ele>1068.8166873331968</ele>
        <time>2021-07-14T19:57:56.601Z</time>
      </trkpt>
      <trkpt lat="42.90784486569464" lon="1.416538953781128">
        <ele>1067.7748870915816</ele>
        <time>2021-07-14T19:57:59.839Z</time>
      </trkpt>
      <trkpt lat="42.90791988372803" lon="1.4165067672729492">
        <ele>1066.5229560931652</ele>
        <time>2021-07-14T19:58:03.078Z</time>
      </trkpt>
      <trkpt lat="42.9079628828913" lon="1.4164423942565918">
        <ele>1065.1771525255879</ele>
        <time>2021-07-14T19:58:06.318Z</time>
      </trkpt>
      <trkpt lat="42.90798434056342" lon="1.4163994789123535">
        <ele>1063.813272266411</ele>
        <time>2021-07-14T19:58:09.558Z</time>
      </trkpt>
      <trkpt lat="42.907962799072266" lon="1.416260004043579">
        <ele>1062.35743096463</ele>
        <time>2021-07-14T19:58:12.800Z</time>
      </trkpt>
      <trkpt lat="42.90788769721985" lon="1.4161419868469238">
        <ele>1060.8318800971545</ele>
        <time>2021-07-14T19:58:16.044Z</time>
      </trkpt>
      <trkpt lat="42.90759801864624" lon="1.4159274101257324">
        <ele>1059.1775397142837</ele>
        <time>2021-07-14T19:58:19.293Z</time>
      </trkpt>
      <trkpt lat="42.90742635726929" lon="1.4156806468963623">
        <ele>1057.9036120003423</ele>
        <time>2021-07-14T19:58:22.546Z</time>
      </trkpt>
      <trkpt lat="42.90717959403992" lon="1.4155304431915283">
        <ele>1056.15610533212</ele>
        <time>2021-07-14T19:58:25.804Z</time>
      </trkpt>
      <trkpt lat="42.90701866149902" lon="1.4153802394866943">
        <ele>1054.4440482480259</ele>
        <time>2021-07-14T19:58:29.065Z</time>
      </trkpt>
      <trkpt lat="42.90686845779419" lon="1.4150583744049072">
        <ele>1053.0132856046498</ele>
        <time>2021-07-14T19:58:32.330Z</time>
      </trkpt>
      <trkpt lat="42.906707525253296" lon="1.414865255355835">
        <ele>1051.3744813296664</ele>
        <time>2021-07-14T19:58:35.599Z</time>
      </trkpt>
      <trkpt lat="42.90657877922058" lon="1.4146614074707031">
        <ele>1049.8541190496653</ele>
        <time>2021-07-14T19:58:38.871Z</time>
      </trkpt>
      <trkpt lat="42.906493032351136" lon="1.41448974609375">
        <ele>1048.3436555503222</ele>
        <time>2021-07-14T19:58:42.145Z</time>
      </trkpt>
      <trkpt lat="42.906450033187866" lon="1.414414644241333">
        <ele>1046.8668153872718</ele>
        <time>2021-07-14T19:58:45.420Z</time>
      </trkpt>
      <trkpt lat="42.90628910064697" lon="1.4142215251922607">
        <ele>1045.1331539780317</ele>
        <time>2021-07-14T19:58:48.699Z</time>
      </trkpt>
      <trkpt lat="42.906246185302734" lon="1.4140820503234863">
        <ele>1043.6669480822452</ele>
        <time>2021-07-14T19:58:51.980Z</time>
      </trkpt>
      <trkpt lat="42.906246185302734" lon="1.4138996601104736">
        <ele>1042.291825876276</ele>
        <time>2021-07-14T19:58:55.263Z</time>
      </trkpt>
      <trkpt lat="42.90640711784363" lon="1.4126980304718018">
        <ele>1040.9057344100738</ele>
        <time>2021-07-14T19:58:58.560Z</time>
      </trkpt>
      <trkpt lat="42.906471490859985" lon="1.4123976230621338">
        <ele>1039.5435594630712</ele>
        <time>2021-07-14T19:59:01.861Z</time>
      </trkpt>
      <trkpt lat="42.90663242340088" lon="1.4120113849639893">
        <ele>1038.1801777701608</ele>
        <time>2021-07-14T19:59:05.167Z</time>
      </trkpt>
      <trkpt lat="42.90682554244995" lon="1.4116895198822021">
        <ele>1036.9386749833498</ele>
        <time>2021-07-14T19:59:08.478Z</time>
      </trkpt>
      <trkpt lat="42.906954288482666" lon="1.4115285873413086">
        <ele>1035.8359016586228</ele>
        <time>2021-07-14T19:59:11.792Z</time>
      </trkpt>
      <trkpt lat="42.906997203826904" lon="1.4113998413085938">
        <ele>1034.6342813962583</ele>
        <time>2021-07-14T19:59:15.107Z</time>
      </trkpt>
      <trkpt lat="42.906997203826904" lon="1.4113140106201172">
        <ele>1033.3966500896595</ele>
        <time>2021-07-14T19:59:18.423Z</time>
      </trkpt>
      <trkpt lat="42.90684700012207" lon="1.410691738128662">
        <ele>1031.6400858701936</ele>
        <time>2021-07-14T19:59:21.747Z</time>
      </trkpt>
      <trkpt lat="42.90681481361389" lon="1.4104986190795898">
        <ele>1030.5014583188836</ele>
        <time>2021-07-14T19:59:25.073Z</time>
      </trkpt>
      <trkpt lat="42.90681481361389" lon="1.4102840423583984">
        <ele>1029.5054118956423</ele>
        <time>2021-07-14T19:59:28.402Z</time>
      </trkpt>
      <trkpt lat="42.90683627128601" lon="1.4101338386535645">
        <ele>1028.464467871841</ele>
        <time>2021-07-14T19:59:31.733Z</time>
      </trkpt>
      <trkpt lat="42.906943559646606" lon="1.4098012447357178">
        <ele>1027.504514173912</ele>
        <time>2021-07-14T19:59:35.068Z</time>
      </trkpt>
      <trkpt lat="42.90694364346564" lon="1.4098012447357178">
        <ele>1026.5208323692073</ele>
        <time>2021-07-14T19:59:38.403Z</time>
      </trkpt>
      <trkpt lat="42.907007932662964" lon="1.4096295833587646">
        <ele>1025.5945326156664</ele>
        <time>2021-07-14T19:59:41.740Z</time>
      </trkpt>
      <trkpt lat="42.907029474154115" lon="1.4094150066375732">
        <ele>1024.6807392036408</ele>
        <time>2021-07-14T19:59:45.080Z</time>
      </trkpt>
      <trkpt lat="42.90701866149902" lon="1.409296989440918">
        <ele>1023.7640095174033</ele>
        <time>2021-07-14T19:59:48.421Z</time>
      </trkpt>
      <trkpt lat="42.906965017318726" lon="1.4091682434082031">
        <ele>1022.7754847784004</ele>
        <time>2021-07-14T19:59:51.764Z</time>
      </trkpt>
      <trkpt lat="42.90682554244995" lon="1.4089643955230713">
        <ele>1021.6676701299352</ele>
        <time>2021-07-14T19:59:55.110Z</time>
      </trkpt>
      <trkpt lat="42.906750440597534" lon="1.4088034629821777">
        <ele>1020.6558752023094</ele>
        <time>2021-07-14T19:59:58.458Z</time>
      </trkpt>
      <trkpt lat="42.90670760907233" lon="1.4085352420806885">
        <ele>1019.7400300824078</ele>
        <time>2021-07-14T20:00:01.810Z</time>
      </trkpt>
      <trkpt lat="42.90670760907233" lon="1.4082777500152588">
        <ele>1018.7474484996046</ele>
        <time>2021-07-14T20:00:05.165Z</time>
      </trkpt>
      <trkpt lat="42.906739795580506" lon="1.407773494720459">
        <ele>1017.5993038613653</ele>
        <time>2021-07-14T20:00:08.526Z</time>
      </trkpt>
      <trkpt lat="42.90678262710571" lon="1.4073765277862549">
        <ele>1016.5603024047714</ele>
        <time>2021-07-14T20:00:11.891Z</time>
      </trkpt>
      <trkpt lat="42.90693283081055" lon="1.4067435264587402">
        <ele>1015.6291032213069</ele>
        <time>2021-07-14T20:00:15.264Z</time>
      </trkpt>
      <trkpt lat="42.906986474990845" lon="1.4064431190490723">
        <ele>1014.5827202427995</ele>
        <time>2021-07-14T20:00:18.641Z</time>
      </trkpt>
      <trkpt lat="42.907007932662964" lon="1.4060568809509277">
        <ele>1013.4697222934524</ele>
        <time>2021-07-14T20:00:22.022Z</time>
      </trkpt>
      <trkpt lat="42.906997203826904" lon="1.405402421951294">
        <ele>1012.1378602552358</ele>
        <time>2021-07-14T20:00:25.411Z</time>
      </trkpt>
      <trkpt lat="42.907007932662964" lon="1.4050805568695068">
        <ele>1010.945704393328</ele>
        <time>2021-07-14T20:00:28.804Z</time>
      </trkpt>
      <trkpt lat="42.9070508480072" lon="1.4048874378204346">
        <ele>1009.8107290422934</ele>
        <time>2021-07-14T20:00:32.199Z</time>
      </trkpt>
      <trkpt lat="42.90711522102356" lon="1.4046728610992432">
        <ele>1008.6458914020018</ele>
        <time>2021-07-14T20:00:35.597Z</time>
      </trkpt>
      <trkpt lat="42.907469272613525" lon="1.4041578769683838">
        <ele>1007.6258672241913</ele>
        <time>2021-07-14T20:00:39.003Z</time>
      </trkpt>
      <trkpt lat="42.90753364562988" lon="1.4039862155914307">
        <ele>1006.4126384400508</ele>
        <time>2021-07-14T20:00:42.411Z</time>
      </trkpt>
      <trkpt lat="42.90757656097412" lon="1.4037609100341797">
        <ele>1005.1060788389478</ele>
        <time>2021-07-14T20:00:45.822Z</time>
      </trkpt>
      <trkpt lat="42.90757664479315" lon="1.4037609100341797">
        <ele>1003.8498183132021</ele>
        <time>2021-07-14T20:00:49.233Z</time>
      </trkpt>
      <trkpt lat="42.90759801864624" lon="1.4033746719360352">
        <ele>1002.5136901327212</ele>
        <time>2021-07-14T20:00:52.649Z</time>
      </trkpt>
      <trkpt lat="42.907533729448915" lon="1.4027953147888184">
        <ele>1001.0652781263461</ele>
        <time>2021-07-14T20:00:56.072Z</time>
      </trkpt>
      <trkpt lat="42.907501459121704" lon="1.40250563621521">
        <ele>999.7067705697652</ele>
        <time>2021-07-14T20:00:59.498Z</time>
      </trkpt>
      <trkpt lat="42.90742635726929" lon="1.4023017883300781">
        <ele>998.251395871105</ele>
        <time>2021-07-14T20:01:02.927Z</time>
      </trkpt>
      <trkpt lat="42.90730834007263" lon="1.4020872116088867">
        <ele>996.6846555486923</ele>
        <time>2021-07-14T20:01:06.359Z</time>
      </trkpt>
      <trkpt lat="42.90730842389166" lon="1.4020872116088867">
        <ele>995.1210909650122</ele>
        <time>2021-07-14T20:01:09.791Z</time>
      </trkpt>
      <trkpt lat="42.90714740753174" lon="1.4018189907073975">
        <ele>993.4015261080108</ele>
        <time>2021-07-14T20:01:13.227Z</time>
      </trkpt>
      <trkpt lat="42.90704011917114" lon="1.4015722274780273">
        <ele>991.6652531506611</ele>
        <time>2021-07-14T20:01:16.666Z</time>
      </trkpt>
      <trkpt lat="42.90692210197449" lon="1.4009392261505127">
        <ele>989.786506177712</ele>
        <time>2021-07-14T20:01:20.113Z</time>
      </trkpt>
      <trkpt lat="42.90681481361389" lon="1.4005959033966064">
        <ele>987.7964853500398</ele>
        <time>2021-07-14T20:01:23.564Z</time>
      </trkpt>
      <trkpt lat="42.906761169433594" lon="1.4003705978393555">
        <ele>985.9219658301961</ele>
        <time>2021-07-14T20:01:27.018Z</time>
      </trkpt>
      <trkpt lat="42.906739711761475" lon="1.399780511856079">
        <ele>984.066976498633</ele>
        <time>2021-07-14T20:01:30.479Z</time>
      </trkpt>
      <trkpt lat="42.90680408477783" lon="1.3989007472991943">
        <ele>981.7986384107913</ele>
        <time>2021-07-14T20:01:33.951Z</time>
      </trkpt>
      <trkpt lat="42.90688991546631" lon="1.3985466957092285">
        <ele>979.7636347376451</ele>
        <time>2021-07-14T20:01:37.427Z</time>
      </trkpt>
      <trkpt lat="42.906965017318726" lon="1.3983213901519775">
        <ele>977.7593976622736</ele>
        <time>2021-07-14T20:01:40.906Z</time>
      </trkpt>
      <trkpt lat="42.907254695892334" lon="1.3977313041687012">
        <ele>976.0352863265701</ele>
        <time>2021-07-14T20:01:44.393Z</time>
      </trkpt>
      <trkpt lat="42.90730834007263" lon="1.3974952697753906">
        <ele>973.9565003034921</ele>
        <time>2021-07-14T20:01:47.883Z</time>
      </trkpt>
      <trkpt lat="42.90732979774475" lon="1.39725923538208">
        <ele>971.7270503722866</ele>
        <time>2021-07-14T20:01:51.376Z</time>
      </trkpt>
      <trkpt lat="42.90732979774475" lon="1.3969266414642334">
        <ele>969.4304627055656</ele>
        <time>2021-07-14T20:01:54.873Z</time>
      </trkpt>
      <trkpt lat="42.90717959403992" lon="1.3961970806121826">
        <ele>967.0395106183908</ele>
        <time>2021-07-14T20:01:58.379Z</time>
      </trkpt>
      <trkpt lat="42.90717959403992" lon="1.3959288597106934">
        <ele>964.8894570555817</ele>
        <time>2021-07-14T20:02:01.888Z</time>
      </trkpt>
      <trkpt lat="42.90731906890869" lon="1.3956499099731445">
        <ele>962.9941228211833</ele>
        <time>2021-07-14T20:02:05.401Z</time>
      </trkpt>
      <trkpt lat="42.907555103302" lon="1.3953816890716553">
        <ele>961.3628293581116</ele>
        <time>2021-07-14T20:02:08.919Z</time>
      </trkpt>
      <trkpt lat="42.90757656097412" lon="1.3952744007110596">
        <ele>959.4677493692134</ele>
        <time>2021-07-14T20:02:12.438Z</time>
      </trkpt>
      <trkpt lat="42.90756583213806" lon="1.3951241970062256">
        <ele>957.5184374065516</ele>
        <time>2021-07-14T20:02:15.959Z</time>
      </trkpt>
      <trkpt lat="42.90711522102356" lon="1.3941478729248047">
        <ele>954.846522977977</ele>
        <time>2021-07-14T20:02:19.493Z</time>
      </trkpt>
      <trkpt lat="42.90706157684326" lon="1.3939762115478516">
        <ele>952.9552677533558</ele>
        <time>2021-07-14T20:02:23.030Z</time>
      </trkpt>
      <trkpt lat="42.90706157684326" lon="1.3938045501708984">
        <ele>951.2625485135264</ele>
        <time>2021-07-14T20:02:26.569Z</time>
      </trkpt>
      <trkpt lat="42.90708303451538" lon="1.393589973449707">
        <ele>949.7116194840619</ele>
        <time>2021-07-14T20:02:30.110Z</time>
      </trkpt>
      <trkpt lat="42.907222509384155" lon="1.3931286334991455">
        <ele>948.4087974985596</ele>
        <time>2021-07-14T20:02:33.657Z</time>
      </trkpt>
      <trkpt lat="42.907233238220215" lon="1.3930213451385498">
        <ele>947.013196670529</ele>
        <time>2021-07-14T20:02:37.205Z</time>
      </trkpt>
      <trkpt lat="42.907201051712036" lon="1.3928711414337158">
        <ele>945.7499973766337</ele>
        <time>2021-07-14T20:02:40.755Z</time>
      </trkpt>
      <trkpt lat="42.90714740753174" lon="1.3927531242370605">
        <ele>944.582049087355</ele>
        <time>2021-07-14T20:02:44.307Z</time>
      </trkpt>
      <trkpt lat="42.90686845779419" lon="1.3923454284667969">
        <ele>943.4035802747453</ele>
        <time>2021-07-14T20:02:47.865Z</time>
      </trkpt>
      <trkpt lat="42.906718254089355" lon="1.3920342922210693">
        <ele>942.4780045210141</ele>
        <time>2021-07-14T20:02:51.428Z</time>
      </trkpt>
      <trkpt lat="42.90662169456482" lon="1.3917982578277588">
        <ele>941.7010416099802</ele>
        <time>2021-07-14T20:02:54.994Z</time>
      </trkpt>
      <trkpt lat="42.906546676531434" lon="1.3913476467132568">
        <ele>941.149322848267</ele>
        <time>2021-07-14T20:02:58.565Z</time>
      </trkpt>
      <trkpt lat="42.906482219696045" lon="1.3910150527954102">
        <ele>940.8484677374397</ele>
        <time>2021-07-14T20:03:02.140Z</time>
      </trkpt>
      <trkpt lat="42.90641784667969" lon="1.39076828956604">
        <ele>940.7179116800913</ele>
        <time>2021-07-14T20:03:05.718Z</time>
      </trkpt>
      <trkpt lat="42.90640711784363" lon="1.3906824588775635">
        <ele>940.8002239341722</ele>
        <time>2021-07-14T20:03:09.297Z</time>
      </trkpt>
      <trkpt lat="42.90641793049872" lon="1.3905644416809082">
        <ele>941.1092865215701</ele>
        <time>2021-07-14T20:03:12.878Z</time>
      </trkpt>
      <trkpt lat="42.90642857551575" lon="1.3904786109924316">
        <ele>941.6080537547591</ele>
        <time>2021-07-14T20:03:16.460Z</time>
      </trkpt>
      <trkpt lat="42.906471490859985" lon="1.3905000686645508">
        <ele>942.3378139136697</ele>
        <time>2021-07-14T20:03:20.043Z</time>
      </trkpt>
      <trkpt lat="42.906514406204224" lon="1.3905537128448486">
        <ele>943.2967037609412</ele>
        <time>2021-07-14T20:03:23.627Z</time>
      </trkpt>
      <trkpt lat="42.906514406204224" lon="1.3908326625823975">
        <ele>944.4050692857893</ele>
        <time>2021-07-14T20:03:27.214Z</time>
      </trkpt>
      <trkpt lat="42.90665396489203" lon="1.3913476467132568">
        <ele>945.9248297289398</ele>
        <time>2021-07-14T20:03:30.807Z</time>
      </trkpt>
      <trkpt lat="42.906653881073" lon="1.3913476467132568">
        <ele>947.5168790755113</ele>
        <time>2021-07-14T20:03:34.400Z</time>
      </trkpt>
      <trkpt lat="42.906761169433594" lon="1.3917231559753418">
        <ele>949.4432614335759</ele>
        <time>2021-07-14T20:03:37.998Z</time>
      </trkpt>
      <trkpt lat="42.90680408477783" lon="1.3918089866638184">
        <ele>951.5343888361577</ele>
        <time>2021-07-14T20:03:41.597Z</time>
      </trkpt>
      <trkpt lat="42.90688991546631" lon="1.3919055461883545">
        <ele>953.926314978135</ele>
        <time>2021-07-14T20:03:45.198Z</time>
      </trkpt>
      <trkpt lat="42.90709376335144" lon="1.3922381401062012">
        <ele>956.6811371274093</ele>
        <time>2021-07-14T20:03:48.804Z</time>
      </trkpt>
      <trkpt lat="42.907254695892334" lon="1.3923776149749756">
        <ele>959.4914389432602</ele>
        <time>2021-07-14T20:03:52.413Z</time>
      </trkpt>
      <trkpt lat="42.907490730285645" lon="1.3926887512207031">
        <ele>962.5086440588752</ele>
        <time>2021-07-14T20:03:56.027Z</time>
      </trkpt>
      <trkpt lat="42.90759801864624" lon="1.3928818702697754">
        <ele>965.6181235427123</ele>
        <time>2021-07-14T20:03:59.644Z</time>
      </trkpt>
      <trkpt lat="42.90767312049866" lon="1.3930857181549072">
        <ele>968.8940905236739</ele>
        <time>2021-07-14T20:04:03.264Z</time>
      </trkpt>
      <trkpt lat="42.90786623954773" lon="1.393364667892456">
        <ele>972.645356218796</ele>
        <time>2021-07-14T20:04:06.888Z</time>
      </trkpt>
      <trkpt lat="42.90789842605591" lon="1.3934826850891113">
        <ele>976.188169851604</ele>
        <time>2021-07-14T20:04:10.514Z</time>
      </trkpt>
      <trkpt lat="42.90790915489197" lon="1.393589973449707">
        <ele>979.8034394991295</ele>
        <time>2021-07-14T20:04:14.141Z</time>
      </trkpt>
      <trkpt lat="42.90783405303955" lon="1.3939118385314941">
        <ele>983.3457350971668</ele>
        <time>2021-07-14T20:04:17.772Z</time>
      </trkpt>
      <trkpt lat="42.90785551071167" lon="1.394190788269043">
        <ele>987.3213635093157</ele>
        <time>2021-07-14T20:04:21.406Z</time>
      </trkpt>
      <trkpt lat="42.90802717208862" lon="1.394941806793213">
        <ele>991.7260773281007</ele>
        <time>2021-07-14T20:04:25.050Z</time>
      </trkpt>
      <trkpt lat="42.90808081626892" lon="1.395113468170166">
        <ele>995.874015423914</ele>
        <time>2021-07-14T20:04:28.696Z</time>
      </trkpt>
      <trkpt lat="42.90812373161316" lon="1.3951992988586426">
        <ele>1000.0986379202513</ele>
        <time>2021-07-14T20:04:32.343Z</time>
      </trkpt>
      <trkpt lat="42.90835976600647" lon="1.3954567909240723">
        <ele>1004.793098516876</ele>
        <time>2021-07-14T20:04:35.995Z</time>
      </trkpt>
      <trkpt lat="42.90847786702216" lon="1.395810842514038">
        <ele>1009.2161391835233</ele>
        <time>2021-07-14T20:04:39.652Z</time>
      </trkpt>
      <trkpt lat="42.908499240875244" lon="1.3959074020385742">
        <ele>1013.602261721532</ele>
        <time>2021-07-14T20:04:43.310Z</time>
      </trkpt>
      <trkpt lat="42.90864944458008" lon="1.3961970806121826">
        <ele>1018.4184890488622</ele>
        <time>2021-07-14T20:04:46.972Z</time>
      </trkpt>
      <trkpt lat="42.9086709022522" lon="1.3963258266448975">
        <ele>1022.9312571308228</ele>
        <time>2021-07-14T20:04:50.635Z</time>
      </trkpt>
      <trkpt lat="42.90864944458008" lon="1.3964438438415527">
        <ele>1027.469456290685</ele>
        <time>2021-07-14T20:04:54.300Z</time>
      </trkpt>
      <trkpt lat="42.90842413902283" lon="1.3968944549560547">
        <ele>1031.8516024033975</ele>
        <time>2021-07-14T20:04:57.971Z</time>
      </trkpt>
      <trkpt lat="42.90834903717041" lon="1.3972270488739014">
        <ele>1036.512584989432</ele>
        <time>2021-07-14T20:05:01.646Z</time>
      </trkpt>
      <trkpt lat="42.90842413902283" lon="1.3976454734802246">
        <ele>1041.4421254124136</ele>
        <time>2021-07-14T20:05:05.326Z</time>
      </trkpt>
      <trkpt lat="42.90843486785889" lon="1.3978493213653564">
        <ele>1046.1324810777867</ele>
        <time>2021-07-14T20:05:09.009Z</time>
      </trkpt>
      <trkpt lat="42.90843486785889" lon="1.39876127243042">
        <ele>1051.350611200182</ele>
        <time>2021-07-14T20:05:12.703Z</time>
      </trkpt>
      <trkpt lat="42.90838122367859" lon="1.399158239364624">
        <ele>1056.0322937936485</ele>
        <time>2021-07-14T20:05:16.401Z</time>
      </trkpt>
      <trkpt lat="42.90839195251465" lon="1.399705410003662">
        <ele>1060.9457827661106</ele>
        <time>2021-07-14T20:05:20.106Z</time>
      </trkpt>
      <trkpt lat="42.90842413902283" lon="1.4000916481018066">
        <ele>1065.4339053173833</ele>
        <time>2021-07-14T20:05:23.815Z</time>
      </trkpt>
      <trkpt lat="42.90852069854736" lon="1.4006710052490234">
        <ele>1070.0504717579433</ele>
        <time>2021-07-14T20:05:27.531Z</time>
      </trkpt>
      <trkpt lat="42.908703088760376" lon="1.401432752609253">
        <ele>1074.5327182432848</ele>
        <time>2021-07-14T20:05:31.257Z</time>
      </trkpt>
      <trkpt lat="42.908756732940674" lon="1.4015400409698486">
        <ele>1078.962624929856</ele>
        <time>2021-07-14T20:05:34.984Z</time>
      </trkpt>
      <trkpt lat="42.90879964828491" lon="1.4015722274780273">
        <ele>1083.383167464097</ele>
        <time>2021-07-14T20:05:38.712Z</time>
      </trkpt>
      <trkpt lat="42.90886402130127" lon="1.401582956314087">
        <ele>1087.841923891856</ele>
        <time>2021-07-14T20:05:42.441Z</time>
      </trkpt>
      <trkpt lat="42.90889620780945" lon="1.4015400409698486">
        <ele>1092.215940722429</ele>
        <time>2021-07-14T20:05:46.171Z</time>
      </trkpt>
      <trkpt lat="42.90889620780945" lon="1.4014756679534912">
        <ele>1096.4939920276097</ele>
        <time>2021-07-14T20:05:49.902Z</time>
      </trkpt>
      <trkpt lat="42.90877819061279" lon="1.400907039642334">
        <ele>1100.6829347029493</ele>
        <time>2021-07-14T20:05:53.640Z</time>
      </trkpt>
      <trkpt lat="42.90879964828491" lon="1.4007031917572021">
        <ele>1104.967776570651</ele>
        <time>2021-07-14T20:05:57.380Z</time>
      </trkpt>
      <trkpt lat="42.9091215133667" lon="1.3994801044464111">
        <ele>1109.9133026854893</ele>
        <time>2021-07-14T20:06:01.135Z</time>
      </trkpt>
      <trkpt lat="42.90938973426819" lon="1.3987934589385986">
        <ele>1114.250468060975</ele>
        <time>2021-07-14T20:06:04.899Z</time>
      </trkpt>
      <trkpt lat="42.90955066680908" lon="1.3984501361846924">
        <ele>1118.4751830046473</ele>
        <time>2021-07-14T20:06:08.668Z</time>
      </trkpt>
      <trkpt lat="42.90966868400574" lon="1.3982141017913818">
        <ele>1122.595692168035</ele>
        <time>2021-07-14T20:06:12.441Z</time>
      </trkpt>
      <trkpt lat="42.90984034538269" lon="1.3979780673980713">
        <ele>1126.7183153134156</ele>
        <time>2021-07-14T20:06:16.217Z</time>
      </trkpt>
      <trkpt lat="42.909990549087524" lon="1.3978064060211182">
        <ele>1130.7604718282419</ele>
        <time>2021-07-14T20:06:19.997Z</time>
      </trkpt>
      <trkpt lat="42.91015148162842" lon="1.397688388824463">
        <ele>1134.7968875536267</ele>
        <time>2021-07-14T20:06:23.779Z</time>
      </trkpt>
      <trkpt lat="42.91076302528381" lon="1.3974523544311523">
        <ele>1139.4417870329362</ele>
        <time>2021-07-14T20:06:27.572Z</time>
      </trkpt>
      <trkpt lat="42.91090250015259" lon="1.3973557949066162">
        <ele>1143.3990046595954</ele>
        <time>2021-07-14T20:06:31.367Z</time>
      </trkpt>
      <trkpt lat="42.910988330841064" lon="1.3972485065460205">
        <ele>1147.2789780751136</ele>
        <time>2021-07-14T20:06:35.164Z</time>
      </trkpt>
      <trkpt lat="42.91102051734924" lon="1.3971197605133057">
        <ele>1151.0191884791575</ele>
        <time>2021-07-14T20:06:38.963Z</time>
      </trkpt>
      <trkpt lat="42.91102051734924" lon="1.396958827972412">
        <ele>1154.6890322093354</ele>
        <time>2021-07-14T20:06:42.764Z</time>
      </trkpt>
      <trkpt lat="42.910999059677124" lon="1.3967657089233398">
        <ele>1158.3378327378593</ele>
        <time>2021-07-14T20:06:46.567Z</time>
      </trkpt>
      <trkpt lat="42.91091322898865" lon="1.3963258266448975">
        <ele>1162.0289173510014</ele>
        <time>2021-07-14T20:06:50.375Z</time>
      </trkpt>
      <trkpt lat="42.910741567611694" lon="1.395810842514038">
        <ele>1165.5164169965665</ele>
        <time>2021-07-14T20:06:54.190Z</time>
      </trkpt>
      <trkpt lat="42.910720109939575" lon="1.3955211639404297">
        <ele>1169.082366599489</ele>
        <time>2021-07-14T20:06:58.008Z</time>
      </trkpt>
      <trkpt lat="42.91076302528381" lon="1.3953816890716553">
        <ele>1172.6719791372493</ele>
        <time>2021-07-14T20:07:01.828Z</time>
      </trkpt>
      <trkpt lat="42.91083812713623" lon="1.3952744007110596">
        <ele>1176.3763244265479</ele>
        <time>2021-07-14T20:07:05.650Z</time>
      </trkpt>
      <trkpt lat="42.91091322898865" lon="1.3951992988586426">
        <ele>1180.0628211719304</ele>
        <time>2021-07-14T20:07:09.473Z</time>
      </trkpt>
      <trkpt lat="42.91157841682434" lon="1.3948559761047363">
        <ele>1184.3932191212689</ele>
        <time>2021-07-14T20:07:13.308Z</time>
      </trkpt>
      <trkpt lat="42.9121470451355" lon="1.3944697380065918">
        <ele>1188.2660463003867</ele>
        <time>2021-07-14T20:07:17.153Z</time>
      </trkpt>
      <trkpt lat="42.91235089302063" lon="1.394287347793579">
        <ele>1191.8573629420957</ele>
        <time>2021-07-14T20:07:21.002Z</time>
      </trkpt>
      <trkpt lat="42.912479639053345" lon="1.3940942287445068">
        <ele>1195.3756706839667</ele>
        <time>2021-07-14T20:07:24.854Z</time>
      </trkpt>
      <trkpt lat="42.91267275810242" lon="1.3937079906463623">
        <ele>1198.8896867565275</ele>
        <time>2021-07-14T20:07:28.711Z</time>
      </trkpt>
      <trkpt lat="42.91284441947937" lon="1.3934612274169922">
        <ele>1202.5118387156735</ele>
        <time>2021-07-14T20:07:32.572Z</time>
      </trkpt>
      <trkpt lat="42.913005352020264" lon="1.3933110237121582">
        <ele>1206.1057016173568</ele>
        <time>2021-07-14T20:07:36.436Z</time>
      </trkpt>
      <trkpt lat="42.91327357292175" lon="1.393193006515503">
        <ele>1209.849147982496</ele>
        <time>2021-07-14T20:07:40.305Z</time>
      </trkpt>
      <trkpt lat="42.913949489593506" lon="1.3927638530731201">
        <ele>1213.5729821069438</ele>
        <time>2021-07-14T20:07:44.186Z</time>
      </trkpt>
      <trkpt lat="42.91415333747864" lon="1.3926029205322266">
        <ele>1216.8712984043477</ele>
        <time>2021-07-14T20:07:48.071Z</time>
      </trkpt>
      <trkpt lat="42.91431427001953" lon="1.3924098014831543">
        <ele>1219.9299388333015</ele>
        <time>2021-07-14T20:07:51.959Z</time>
      </trkpt>
      <trkpt lat="42.91440010070801" lon="1.3922595977783203">
        <ele>1223.0303708315284</ele>
        <time>2021-07-14T20:07:55.849Z</time>
      </trkpt>
      <trkpt lat="42.914475202560425" lon="1.3920557498931885">
        <ele>1226.1701897168305</ele>
        <time>2021-07-14T20:07:59.742Z</time>
      </trkpt>
      <trkpt lat="42.91455030441284" lon="1.391841173171997">
        <ele>1229.34767646691</ele>
        <time>2021-07-14T20:08:03.638Z</time>
      </trkpt>
      <trkpt lat="42.9145610332489" lon="1.3915085792541504">
        <ele>1232.3047757999698</ele>
        <time>2021-07-14T20:08:07.538Z</time>
      </trkpt>
      <trkpt lat="42.91459330357611" lon="1.3913154602050781">
        <ele>1235.2095779368922</ele>
        <time>2021-07-14T20:08:11.440Z</time>
      </trkpt>
      <trkpt lat="42.91459321975708" lon="1.3913154602050781">
        <ele>1238.0983140476433</ele>
        <time>2021-07-14T20:08:15.342Z</time>
      </trkpt>
      <trkpt lat="42.914743423461914" lon="1.3910579681396484">
        <ele>1241.120395309921</ele>
        <time>2021-07-14T20:08:19.248Z</time>
      </trkpt>
      <trkpt lat="42.91489362716675" lon="1.3908648490905762">
        <ele>1244.2164141744438</ele>
        <time>2021-07-14T20:08:23.157Z</time>
      </trkpt>
      <trkpt lat="42.91531205177307" lon="1.3905751705169678">
        <ele>1247.5992511703394</ele>
        <time>2021-07-14T20:08:27.074Z</time>
      </trkpt>
      <trkpt lat="42.915505170822144" lon="1.3904035091400146">
        <ele>1250.5266521890492</ele>
        <time>2021-07-14T20:08:30.994Z</time>
      </trkpt>
      <trkpt lat="42.91566610336304" lon="1.3902103900909424">
        <ele>1253.444778432714</ele>
        <time>2021-07-14T20:08:34.918Z</time>
      </trkpt>
      <trkpt lat="42.915730476379395" lon="1.3900387287139893">
        <ele>1256.1810636155992</ele>
        <time>2021-07-14T20:08:38.844Z</time>
      </trkpt>
      <trkpt lat="42.91576266288757" lon="1.3895773887634277">
        <ele>1258.7342073611478</ele>
        <time>2021-07-14T20:08:42.775Z</time>
      </trkpt>
      <trkpt lat="42.91577339172363" lon="1.3894915580749512">
        <ele>1261.4623273348684</ele>
        <time>2021-07-14T20:08:46.708Z</time>
      </trkpt>
      <trkpt lat="42.91580557823181" lon="1.3894057273864746">
        <ele>1264.2130322770058</ele>
        <time>2021-07-14T20:08:50.642Z</time>
      </trkpt>
      <trkpt lat="42.91586995124817" lon="1.389319896697998">
        <ele>1267.0859579103844</ele>
        <time>2021-07-14T20:08:54.577Z</time>
      </trkpt>
      <trkpt lat="42.91604161262512" lon="1.3891267776489258">
        <ele>1270.0979426924605</ele>
        <time>2021-07-14T20:08:58.516Z</time>
      </trkpt>
      <trkpt lat="42.916202545166016" lon="1.3889873027801514">
        <ele>1273.0175910633861</ele>
        <time>2021-07-14T20:09:02.458Z</time>
      </trkpt>
      <trkpt lat="42.91683554649353" lon="1.3885903358459473">
        <ele>1276.3677982272989</ele>
        <time>2021-07-14T20:09:06.411Z</time>
      </trkpt>
      <trkpt lat="42.91688919067383" lon="1.3885259628295898">
        <ele>1279.1526789584268</ele>
        <time>2021-07-14T20:09:10.365Z</time>
      </trkpt>
      <trkpt lat="42.916942834854126" lon="1.3883328437805176">
        <ele>1281.8291794130291</ele>
        <time>2021-07-14T20:09:14.321Z</time>
      </trkpt>
      <trkpt lat="42.91692137718201" lon="1.3879144191741943">
        <ele>1284.3532406026377</ele>
        <time>2021-07-14T20:09:18.282Z</time>
      </trkpt>
      <trkpt lat="42.916932106018066" lon="1.3878393173217773">
        <ele>1287.0686828591517</ele>
        <time>2021-07-14T20:09:22.244Z</time>
      </trkpt>
      <trkpt lat="42.916996479034424" lon="1.3876891136169434">
        <ele>1289.8505544534123</ele>
        <time>2021-07-14T20:09:26.208Z</time>
      </trkpt>
      <trkpt lat="42.91711449623108" lon="1.3875818252563477">
        <ele>1292.7255104571864</ele>
        <time>2021-07-14T20:09:30.175Z</time>
      </trkpt>
      <trkpt lat="42.91754364967346" lon="1.3873565196990967">
        <ele>1296.0601657507373</ele>
        <time>2021-07-14T20:09:34.149Z</time>
      </trkpt>
      <trkpt lat="42.917640209198" lon="1.387249231338501">
        <ele>1298.9273683617694</ele>
        <time>2021-07-14T20:09:38.125Z</time>
      </trkpt>
      <trkpt lat="42.91782259941101" lon="1.3867664337158203">
        <ele>1301.6008815433042</ele>
        <time>2021-07-14T20:09:42.107Z</time>
      </trkpt>
      <trkpt lat="42.9180908203125" lon="1.3862943649291992">
        <ele>1304.471187839013</ele>
        <time>2021-07-14T20:09:46.096Z</time>
      </trkpt>
      <trkpt lat="42.91817665100098" lon="1.3860797882080078">
        <ele>1307.1961316226234</ele>
        <time>2021-07-14T20:09:50.088Z</time>
      </trkpt>
      <trkpt lat="42.91830539703369" lon="1.3853716850280762">
        <ele>1310.043785043299</ele>
        <time>2021-07-14T20:09:54.089Z</time>
      </trkpt>
      <trkpt lat="42.918498516082764" lon="1.3848352432250977">
        <ele>1313.2298841617007</ele>
        <time>2021-07-14T20:09:58.097Z</time>
      </trkpt>
      <trkpt lat="42.91857361793518" lon="1.3845133781433105">
        <ele>1316.1988008252536</ele>
        <time>2021-07-14T20:10:02.109Z</time>
      </trkpt>
      <trkpt lat="42.91857361793518" lon="1.384427547454834">
        <ele>1318.8078514463182</ele>
        <time>2021-07-14T20:10:06.122Z</time>
      </trkpt>
      <trkpt lat="42.918541431427" lon="1.3840627670288086">
        <ele>1321.2431676636227</ele>
        <time>2021-07-14T20:10:10.139Z</time>
      </trkpt>
      <trkpt lat="42.91857361793518" lon="1.3836979866027832">
        <ele>1323.8196827697948</ele>
        <time>2021-07-14T20:10:14.160Z</time>
      </trkpt>
      <trkpt lat="42.91858434677124" lon="1.383601427078247">
        <ele>1326.301903498504</ele>
        <time>2021-07-14T20:10:18.183Z</time>
      </trkpt>
      <trkpt lat="42.91861653327942" lon="1.3835477828979492">
        <ele>1328.7896359037736</ele>
        <time>2021-07-14T20:10:22.206Z</time>
      </trkpt>
      <trkpt lat="42.918680906295776" lon="1.38352632522583">
        <ele>1331.3127228904318</ele>
        <time>2021-07-14T20:10:26.230Z</time>
      </trkpt>
      <trkpt lat="42.918702363967896" lon="1.3835692405700684">
        <ele>1333.6735933276748</ele>
        <time>2021-07-14T20:10:30.255Z</time>
      </trkpt>
      <trkpt lat="42.918723821640015" lon="1.3836336135864258">
        <ele>1335.961494404733</ele>
        <time>2021-07-14T20:10:34.281Z</time>
      </trkpt>
      <trkpt lat="42.91867017745972" lon="1.3839447498321533">
        <ele>1337.9988878444797</ele>
        <time>2021-07-14T20:10:38.311Z</time>
      </trkpt>
      <trkpt lat="42.918680906295776" lon="1.3840413093566895">
        <ele>1340.1022651666492</ele>
        <time>2021-07-14T20:10:42.342Z</time>
      </trkpt>
      <trkpt lat="42.91880965232849" lon="1.3844811916351318">
        <ele>1342.386307940164</ele>
        <time>2021-07-14T20:10:46.378Z</time>
      </trkpt>
      <trkpt lat="42.91885256767273" lon="1.3848567008972168">
        <ele>1344.3507087484868</ele>
        <time>2021-07-14T20:10:50.419Z</time>
      </trkpt>
      <trkpt lat="42.91883111000061" lon="1.385650634765625">
        <ele>1346.3792743731692</ele>
        <time>2021-07-14T20:10:54.469Z</time>
      </trkpt>
      <trkpt lat="42.91885256767273" lon="1.386423110961914">
        <ele>1348.1593363489696</ele>
        <time>2021-07-14T20:10:58.528Z</time>
      </trkpt>
      <trkpt lat="42.91882038116455" lon="1.386873722076416">
        <ele>1349.9459931803003</ele>
        <time>2021-07-14T20:11:02.593Z</time>
      </trkpt>
      <trkpt lat="42.9186487197876" lon="1.387345790863037">
        <ele>1351.4380732822715</ele>
        <time>2021-07-14T20:11:06.664Z</time>
      </trkpt>
      <trkpt lat="42.91851997375488" lon="1.3878178596496582">
        <ele>1352.8614561041381</ele>
        <time>2021-07-14T20:11:10.741Z</time>
      </trkpt>
      <trkpt lat="42.918434143066406" lon="1.3881826400756836">
        <ele>1354.034452602522</ele>
        <time>2021-07-14T20:11:14.822Z</time>
      </trkpt>
      <trkpt lat="42.91833758354187" lon="1.3888800144195557">
        <ele>1355.0121647487276</ele>
        <time>2021-07-14T20:11:18.912Z</time>
      </trkpt>
      <trkpt lat="42.91834831237793" lon="1.3891053199768066">
        <ele>1355.8918100935975</ele>
        <time>2021-07-14T20:11:23.004Z</time>
      </trkpt>
      <trkpt lat="42.91842341423035" lon="1.3890516757965088">
        <ele>1356.590431313402</ele>
        <time>2021-07-14T20:11:27.098Z</time>
      </trkpt>
      <trkpt lat="42.918530786409974" lon="1.3885259628295898">
        <ele>1357.0755587628946</ele>
        <time>2021-07-14T20:11:31.198Z</time>
      </trkpt>
      <trkpt lat="42.91853070259094" lon="1.3885259628295898">
        <ele>1357.365699828675</ele>
        <time>2021-07-14T20:11:35.298Z</time>
      </trkpt>
      <trkpt lat="42.9186487197876" lon="1.388096809387207">
        <ele>1357.5746328481237</ele>
        <time>2021-07-14T20:11:39.403Z</time>
      </trkpt>
      <trkpt lat="42.9190456867218" lon="1.3871097564697266">
        <ele>1357.44039583443</ele>
        <time>2021-07-14T20:11:43.522Z</time>
      </trkpt>
      <trkpt lat="42.91912078857422" lon="1.3869166374206543">
        <ele>1357.2734446483528</ele>
        <time>2021-07-14T20:11:47.643Z</time>
      </trkpt>
      <trkpt lat="42.9191529750824" lon="1.3866913318634033">
        <ele>1356.9175008389539</ele>
        <time>2021-07-14T20:11:51.767Z</time>
      </trkpt>
      <trkpt lat="42.91917443275452" lon="1.3863694667816162">
        <ele>1356.470450744675</ele>
        <time>2021-07-14T20:11:55.895Z</time>
      </trkpt>
      <trkpt lat="42.91912087239325" lon="1.383354663848877">
        <ele>1355.3155110171392</ele>
        <time>2021-07-14T20:12:00.058Z</time>
      </trkpt>
      <trkpt lat="42.91906714439392" lon="1.3823354244232178">
        <ele>1354.881647921843</ele>
        <time>2021-07-14T20:12:04.233Z</time>
      </trkpt>
      <trkpt lat="42.918981313705444" lon="1.3816487789154053">
        <ele>1354.5710025465478</ele>
        <time>2021-07-14T20:12:08.416Z</time>
      </trkpt>
      <trkpt lat="42.918981313705444" lon="1.3813912868499756">
        <ele>1354.1347654565952</ele>
        <time>2021-07-14T20:12:12.602Z</time>
      </trkpt>
      <trkpt lat="42.91901350021362" lon="1.3810157775878906">
        <ele>1353.5406931430393</ele>
        <time>2021-07-14T20:12:16.793Z</time>
      </trkpt>
      <trkpt lat="42.91901350021362" lon="1.38077974319458">
        <ele>1352.8203511515528</ele>
        <time>2021-07-14T20:12:20.987Z</time>
      </trkpt>
      <trkpt lat="42.918981313705444" lon="1.3804256916046143">
        <ele>1352.1451947614944</ele>
        <time>2021-07-14T20:12:25.185Z</time>
      </trkpt>
      <trkpt lat="42.918970584869385" lon="1.3800609111785889">
        <ele>1351.5810459674453</ele>
        <time>2021-07-14T20:12:29.387Z</time>
      </trkpt>
      <trkpt lat="42.918970584869385" lon="1.379835605621338">
        <ele>1351.0182770845022</ele>
        <time>2021-07-14T20:12:33.592Z</time>
      </trkpt>
      <trkpt lat="42.91902422904968" lon="1.379610300064087">
        <ele>1350.5809089638583</ele>
        <time>2021-07-14T20:12:37.799Z</time>
      </trkpt>
      <trkpt lat="42.91926026344299" lon="1.379084587097168">
        <ele>1350.2165458990685</ele>
        <time>2021-07-14T20:12:42.014Z</time>
      </trkpt>
      <trkpt lat="42.919721603393555" lon="1.3784945011138916">
        <ele>1349.718081545932</ele>
        <time>2021-07-14T20:12:46.239Z</time>
      </trkpt>
      <trkpt lat="42.91987180709839" lon="1.3782262802124023">
        <ele>1349.3072977027668</ele>
        <time>2021-07-14T20:12:50.468Z</time>
      </trkpt>
      <trkpt lat="42.92008638381958" lon="1.3776147365570068">
        <ele>1348.8355028904848</ele>
        <time>2021-07-14T20:12:54.705Z</time>
      </trkpt>
      <trkpt lat="42.920451164245605" lon="1.37703537940979">
        <ele>1348.6865937231541</ele>
        <time>2021-07-14T20:12:58.951Z</time>
      </trkpt>
      <trkpt lat="42.92063355445862" lon="1.376810073852539">
        <ele>1348.6111154136534</ele>
        <time>2021-07-14T20:13:03.201Z</time>
      </trkpt>
      <trkpt lat="42.92109489440918" lon="1.376434564590454">
        <ele>1348.4555476039695</ele>
        <time>2021-07-14T20:13:07.459Z</time>
      </trkpt>
      <trkpt lat="42.921245098114014" lon="1.3762414455413818">
        <ele>1348.535342318412</ele>
        <time>2021-07-14T20:13:11.721Z</time>
      </trkpt>
      <trkpt lat="42.921448945999146" lon="1.3758659362792969">
        <ele>1348.7325042019756</ele>
        <time>2021-07-14T20:13:15.988Z</time>
      </trkpt>
      <trkpt lat="42.92182445526123" lon="1.3749110698699951">
        <ele>1349.1313958398455</ele>
        <time>2021-07-14T20:13:20.268Z</time>
      </trkpt>
      <trkpt lat="42.92211413383484" lon="1.3743102550506592">
        <ele>1349.706511063143</ele>
        <time>2021-07-14T20:13:24.556Z</time>
      </trkpt>
      <trkpt lat="42.92226433753967" lon="1.3741278648376465">
        <ele>1350.370412989507</ele>
        <time>2021-07-14T20:13:28.847Z</time>
      </trkpt>
      <trkpt lat="42.922457456588745" lon="1.3739562034606934">
        <ele>1351.034251943403</ele>
        <time>2021-07-14T20:13:33.142Z</time>
      </trkpt>
      <trkpt lat="42.92266130447388" lon="1.3738596439361572">
        <ele>1351.9947350979933</ele>
        <time>2021-07-14T20:13:37.441Z</time>
      </trkpt>
      <trkpt lat="42.922961711883545" lon="1.373741626739502">
        <ele>1352.9405593381919</ele>
        <time>2021-07-14T20:13:41.745Z</time>
      </trkpt>
      <trkpt lat="42.92316555976868" lon="1.3737308979034424">
        <ele>1354.0478238811088</ele>
        <time>2021-07-14T20:13:46.052Z</time>
      </trkpt>
      <trkpt lat="42.92336940765381" lon="1.3737523555755615">
        <ele>1355.1934957982521</ele>
        <time>2021-07-14T20:13:50.362Z</time>
      </trkpt>
      <trkpt lat="42.92413123883307" lon="1.3739240169525146">
        <ele>1356.4869669905463</ele>
        <time>2021-07-14T20:13:54.685Z</time>
      </trkpt>
      <trkpt lat="42.9243350867182" lon="1.3739776611328125">
        <ele>1357.8848084138303</ele>
        <time>2021-07-14T20:13:59.011Z</time>
      </trkpt>
      <trkpt lat="42.92481780052185" lon="1.3741278648376465">
        <ele>1359.6121471905758</ele>
        <time>2021-07-14T20:14:03.345Z</time>
      </trkpt>
      <trkpt lat="42.92508602142334" lon="1.3742458820343018">
        <ele>1361.125074544121</ele>
        <time>2021-07-14T20:14:07.683Z</time>
      </trkpt>
      <trkpt lat="42.92516112327576" lon="1.3742458820343018">
        <ele>1362.741354315199</ele>
        <time>2021-07-14T20:14:12.022Z</time>
      </trkpt>
      <trkpt lat="42.925214767456055" lon="1.374213695526123">
        <ele>1364.453979093202</ele>
        <time>2021-07-14T20:14:16.362Z</time>
      </trkpt>
      <trkpt lat="42.92527914047241" lon="1.374138593673706">
        <ele>1366.2572347517537</ele>
        <time>2021-07-14T20:14:20.704Z</time>
      </trkpt>
      <trkpt lat="42.92532205581665" lon="1.3740098476409912">
        <ele>1368.1397562736556</ele>
        <time>2021-07-14T20:14:25.047Z</time>
      </trkpt>
      <trkpt lat="42.92536497116089" lon="1.3738596439361572">
        <ele>1370.0879523390295</ele>
        <time>2021-07-14T20:14:29.392Z</time>
      </trkpt>
      <trkpt lat="42.92540788650513" lon="1.3734734058380127">
        <ele>1372.151737619128</ele>
        <time>2021-07-14T20:14:33.742Z</time>
      </trkpt>
      <trkpt lat="42.925472259521484" lon="1.3730549812316895">
        <ele>1374.0742873535046</ele>
        <time>2021-07-14T20:14:38.097Z</time>
      </trkpt>
      <trkpt lat="42.92578339576721" lon="1.3726365566253662">
        <ele>1375.999678507829</ele>
        <time>2021-07-14T20:14:42.459Z</time>
      </trkpt>
      <trkpt lat="42.926470041275024" lon="1.3718211650848389">
        <ele>1378.2464834115467</ele>
        <time>2021-07-14T20:14:46.836Z</time>
      </trkpt>
      <trkpt lat="42.926684617996216" lon="1.371617317199707">
        <ele>1380.1129456284534</ele>
        <time>2021-07-14T20:14:51.217Z</time>
      </trkpt>
      <trkpt lat="42.92688846588135" lon="1.3714778423309326">
        <ele>1382.1268508302305</ele>
        <time>2021-07-14T20:14:55.601Z</time>
      </trkpt>
      <trkpt lat="42.92759656906128" lon="1.371145248413086">
        <ele>1384.4483724556903</ele>
        <time>2021-07-14T20:14:59.997Z</time>
      </trkpt>
      <trkpt lat="42.927929162979126" lon="1.3710594177246094">
        <ele>1386.444982578084</ele>
        <time>2021-07-14T20:15:04.399Z</time>
      </trkpt>
      <trkpt lat="42.92810082435608" lon="1.3709735870361328">
        <ele>1388.4814009162033</ele>
        <time>2021-07-14T20:15:08.804Z</time>
      </trkpt>
      <trkpt lat="42.92889475822449" lon="1.3703620433807373">
        <ele>1390.9146860293931</ele>
        <time>2021-07-14T20:15:13.223Z</time>
      </trkpt>
      <trkpt lat="42.92904496192932" lon="1.3701367378234863">
        <ele>1393.0184724807373</ele>
        <time>2021-07-14T20:15:17.646Z</time>
      </trkpt>
      <trkpt lat="42.929184436798096" lon="1.3699650764465332">
        <ele>1395.1027472335336</ele>
        <time>2021-07-14T20:15:22.072Z</time>
      </trkpt>
      <trkpt lat="42.92936682701111" lon="1.3698363304138184">
        <ele>1396.974184262757</ele>
        <time>2021-07-14T20:15:26.501Z</time>
      </trkpt>
      <trkpt lat="42.929527759552" lon="1.369696855545044">
        <ele>1398.8218840797683</ele>
        <time>2021-07-14T20:15:30.933Z</time>
      </trkpt>
      <trkpt lat="42.92960286140442" lon="1.369621753692627">
        <ele>1400.7805191810835</ele>
        <time>2021-07-14T20:15:35.367Z</time>
      </trkpt>
      <trkpt lat="42.92968877591193" lon="1.3695037364959717">
        <ele>1402.7939711911317</ele>
        <time>2021-07-14T20:15:39.803Z</time>
      </trkpt>
      <trkpt lat="42.929688692092896" lon="1.3695037364959717">
        <ele>1404.7814523009936</ele>
        <time>2021-07-14T20:15:44.239Z</time>
      </trkpt>
      <trkpt lat="42.92974233627319" lon="1.3694286346435547">
        <ele>1406.7432524719807</ele>
        <time>2021-07-14T20:15:48.676Z</time>
      </trkpt>
      <trkpt lat="42.92984962463379" lon="1.369321346282959">
        <ele>1408.7112387706343</ele>
        <time>2021-07-14T20:15:53.115Z</time>
      </trkpt>
      <trkpt lat="42.93030023574829" lon="1.3689994812011719">
        <ele>1410.927104690779</ele>
        <time>2021-07-14T20:15:57.562Z</time>
      </trkpt>
      <trkpt lat="42.93062210083008" lon="1.3688385486602783">
        <ele>1413.058762644888</ele>
        <time>2021-07-14T20:16:02.015Z</time>
      </trkpt>
      <trkpt lat="42.93081521987915" lon="1.368849277496338">
        <ele>1415.03660137209</ele>
        <time>2021-07-14T20:16:06.471Z</time>
      </trkpt>
      <trkpt lat="42.93111562728882" lon="1.3689994812011719">
        <ele>1416.9659642704003</ele>
        <time>2021-07-14T20:16:10.932Z</time>
      </trkpt>
      <trkpt lat="42.931233644485474" lon="1.3690102100372314">
        <ele>1419.0253389595678</ele>
        <time>2021-07-14T20:16:15.395Z</time>
      </trkpt>
      <trkpt lat="42.93129801750183" lon="1.368945837020874">
        <ele>1421.152088903381</ele>
        <time>2021-07-14T20:16:19.859Z</time>
      </trkpt>
      <trkpt lat="42.93137311935425" lon="1.3688063621520996">
        <ele>1423.347027705291</ele>
        <time>2021-07-14T20:16:24.325Z</time>
      </trkpt>
      <trkpt lat="42.931416034698486" lon="1.36854887008667">
        <ele>1425.532298124996</ele>
        <time>2021-07-14T20:16:28.794Z</time>
      </trkpt>
      <trkpt lat="42.931416034698486" lon="1.3683128356933594">
        <ele>1427.6172095289085</ele>
        <time>2021-07-14T20:16:33.266Z</time>
      </trkpt>
      <trkpt lat="42.93133020401001" lon="1.367722749710083">
        <ele>1429.7353517194629</ele>
        <time>2021-07-14T20:16:37.745Z</time>
      </trkpt>
      <trkpt lat="42.93105125427246" lon="1.366875171661377">
        <ele>1431.95852332087</ele>
        <time>2021-07-14T20:16:42.235Z</time>
      </trkpt>
      <trkpt lat="42.93062210083008" lon="1.3658344745635986">
        <ele>1434.2444004173458</ele>
        <time>2021-07-14T20:16:46.739Z</time>
      </trkpt>
      <trkpt lat="42.93038606643677" lon="1.364729404449463">
        <ele>1436.4733008319572</ele>
        <time>2021-07-14T20:16:51.256Z</time>
      </trkpt>
      <trkpt lat="42.93035387992859" lon="1.36430025100708">
        <ele>1438.3153741676429</ele>
        <time>2021-07-14T20:16:55.779Z</time>
      </trkpt>
      <trkpt lat="42.93037533760071" lon="1.3635706901550293">
        <ele>1439.938222029342</ele>
        <time>2021-07-14T20:17:00.310Z</time>
      </trkpt>
      <trkpt lat="42.93030023574829" lon="1.362830400466919">
        <ele>1441.6036237658602</ele>
        <time>2021-07-14T20:17:04.850Z</time>
      </trkpt>
      <trkpt lat="42.93005347251892" lon="1.3616502285003662">
        <ele>1443.0544350943196</ele>
        <time>2021-07-14T20:17:09.404Z</time>
      </trkpt>
      <trkpt lat="42.92980670928955" lon="1.3609743118286133">
        <ele>1444.615297764742</ele>
        <time>2021-07-14T20:17:13.967Z</time>
      </trkpt>
      <trkpt lat="42.929441928863525" lon="1.3602876663208008">
        <ele>1445.9503854426257</ele>
        <time>2021-07-14T20:17:18.540Z</time>
      </trkpt>
      <trkpt lat="42.92933464050293" lon="1.359933614730835">
        <ele>1446.7423574076097</ele>
        <time>2021-07-14T20:17:23.118Z</time>
      </trkpt>
      <trkpt lat="42.92929172515869" lon="1.3596010208129883">
        <ele>1447.25320725083</ele>
        <time>2021-07-14T20:17:27.700Z</time>
      </trkpt>
      <trkpt lat="42.92927026748657" lon="1.3593220710754395">
        <ele>1447.509207238732</ele>
        <time>2021-07-14T20:17:32.285Z</time>
      </trkpt>
      <trkpt lat="42.92928099632263" lon="1.3590753078460693">
        <ele>1447.5515937004848</ele>
        <time>2021-07-14T20:17:36.873Z</time>
      </trkpt>
      <trkpt lat="42.92932391166687" lon="1.3588392734527588">
        <ele>1447.4379425900825</ele>
        <time>2021-07-14T20:17:41.464Z</time>
      </trkpt>
      <trkpt lat="42.92940982617438" lon="1.35856032371521">
        <ele>1447.1798270845848</ele>
        <time>2021-07-14T20:17:46.058Z</time>
      </trkpt>
      <trkpt lat="42.92940974235535" lon="1.35856032371521">
        <ele>1446.8549596914288</ele>
        <time>2021-07-14T20:17:50.652Z</time>
      </trkpt>
      <trkpt lat="42.929452657699585" lon="1.3583457469940186">
        <ele>1446.2552679593718</ele>
        <time>2021-07-14T20:17:55.249Z</time>
      </trkpt>
      <trkpt lat="42.929506385698915" lon="1.3582277297973633">
        <ele>1445.4292638997117</ele>
        <time>2021-07-14T20:17:59.847Z</time>
      </trkpt>
      <trkpt lat="42.92950630187988" lon="1.3582277297973633">
        <ele>1444.5619854648403</ele>
        <time>2021-07-14T20:18:04.445Z</time>
      </trkpt>
      <trkpt lat="42.929956912994385" lon="1.3571226596832275">
        <ele>1443.2101947738574</ele>
        <time>2021-07-14T20:18:09.058Z</time>
      </trkpt>
      <trkpt lat="42.929946184158325" lon="1.3569939136505127">
        <ele>1441.9865341520417</ele>
        <time>2021-07-14T20:18:13.673Z</time>
      </trkpt>
      <trkpt lat="42.92990335263312" lon="1.356961727142334">
        <ele>1440.599501576156</ele>
        <time>2021-07-14T20:18:18.289Z</time>
      </trkpt>
      <trkpt lat="42.92990326881409" lon="1.356961727142334">
        <ele>1439.0799691238867</ele>
        <time>2021-07-14T20:18:22.905Z</time>
      </trkpt>
      <trkpt lat="42.92983889579773" lon="1.3569509983062744">
        <ele>1437.3813727187312</ele>
        <time>2021-07-14T20:18:27.522Z</time>
      </trkpt>
      <trkpt lat="42.92954921722412" lon="1.357262134552002">
        <ele>1435.432751582624</ele>
        <time>2021-07-14T20:18:32.145Z</time>
      </trkpt>
      <trkpt lat="42.92831540107727" lon="1.3581526279449463">
        <ele>1433.2651742089738</ele>
        <time>2021-07-14T20:18:36.790Z</time>
      </trkpt>
      <trkpt lat="42.928229654207826" lon="1.358184814453125">
        <ele>1431.108983480969</ele>
        <time>2021-07-14T20:18:41.436Z</time>
      </trkpt>
      <trkpt lat="42.928229570388794" lon="1.358184814453125">
        <ele>1428.8735123273914</ele>
        <time>2021-07-14T20:18:46.082Z</time>
      </trkpt>
      <trkpt lat="42.928197383880615" lon="1.3581418991088867">
        <ele>1426.430792687438</ele>
        <time>2021-07-14T20:18:50.729Z</time>
      </trkpt>
      <trkpt lat="42.928197383880615" lon="1.3580453395843506">
        <ele>1423.83854022576</ele>
        <time>2021-07-14T20:18:55.377Z</time>
      </trkpt>
      <trkpt lat="42.92828329838812" lon="1.3579487800598145">
        <ele>1421.2274413709931</ele>
        <time>2021-07-14T20:19:00.027Z</time>
      </trkpt>
      <trkpt lat="42.9285192489624" lon="1.357712745666504">
        <ele>1418.406255839533</ele>
        <time>2021-07-14T20:19:04.682Z</time>
      </trkpt>
      <trkpt lat="42.92886257171631" lon="1.3572514057159424">
        <ele>1415.4304206062366</ele>
        <time>2021-07-14T20:19:09.344Z</time>
      </trkpt>
      <trkpt lat="42.928980672731996" lon="1.357036828994751">
        <ele>1412.3387563375786</ele>
        <time>2021-07-14T20:19:14.010Z</time>
      </trkpt>
      <trkpt lat="42.928980588912964" lon="1.357036828994751">
        <ele>1409.2580686825222</ele>
        <time>2021-07-14T20:19:18.676Z</time>
      </trkpt>
      <trkpt lat="42.9291307926178" lon="1.356661319732666">
        <ele>1405.7762856664845</ele>
        <time>2021-07-14T20:19:23.347Z</time>
      </trkpt>
      <trkpt lat="42.929173707962036" lon="1.3564682006835938">
        <ele>1402.3675723873725</ele>
        <time>2021-07-14T20:19:28.020Z</time>
      </trkpt>
      <trkpt lat="42.929184436798096" lon="1.3562428951263428">
        <ele>1398.8824423481724</ele>
        <time>2021-07-14T20:19:32.696Z</time>
      </trkpt>
      <trkpt lat="42.9291307926178" lon="1.3556742668151855">
        <ele>1395.321094512126</ele>
        <time>2021-07-14T20:19:37.378Z</time>
      </trkpt>
      <trkpt lat="42.9291307926178" lon="1.3555026054382324">
        <ele>1391.7066731159025</ele>
        <time>2021-07-14T20:19:42.062Z</time>
      </trkpt>
      <trkpt lat="42.92915225028992" lon="1.3553524017333984">
        <ele>1388.0422859231335</ele>
        <time>2021-07-14T20:19:46.748Z</time>
      </trkpt>
      <trkpt lat="42.92932391166687" lon="1.3547301292419434">
        <ele>1384.080630244711</ele>
        <time>2021-07-14T20:19:51.442Z</time>
      </trkpt>
      <trkpt lat="42.929431200027466" lon="1.354215145111084">
        <ele>1380.2533175149633</ele>
        <time>2021-07-14T20:19:56.142Z</time>
      </trkpt>
      <trkpt lat="42.92949557304382" lon="1.3537216186523438">
        <ele>1376.2842769234276</ele>
        <time>2021-07-14T20:20:00.848Z</time>
      </trkpt>
      <trkpt lat="42.92951703071594" lon="1.353442668914795">
        <ele>1372.3645768911074</ele>
        <time>2021-07-14T20:20:05.557Z</time>
      </trkpt>
      <trkpt lat="42.929527759552" lon="1.35306715965271">
        <ele>1368.4403061354096</ele>
        <time>2021-07-14T20:20:10.271Z</time>
      </trkpt>
      <trkpt lat="42.929484844207764" lon="1.3527131080627441">
        <ele>1364.3702236565082</ele>
        <time>2021-07-14T20:20:14.989Z</time>
      </trkpt>
      <trkpt lat="42.92927026748657" lon="1.3516616821289062">
        <ele>1360.103936545442</ele>
        <time>2021-07-14T20:20:19.720Z</time>
      </trkpt>
      <trkpt lat="42.92929172515869" lon="1.3514149188995361">
        <ele>1356.1421476859718</ele>
        <time>2021-07-14T20:20:24.454Z</time>
      </trkpt>
      <trkpt lat="42.929474115371704" lon="1.3506853580474854">
        <ele>1352.1485710124136</ele>
        <time>2021-07-14T20:20:29.197Z</time>
      </trkpt>
      <trkpt lat="42.92974233627319" lon="1.3494408130645752">
        <ele>1347.8503550418918</ele>
        <time>2021-07-14T20:20:33.955Z</time>
      </trkpt>
      <trkpt lat="42.92980670928955" lon="1.3490331172943115">
        <ele>1343.9490216990143</ele>
        <time>2021-07-14T20:20:38.718Z</time>
      </trkpt>
      <trkpt lat="42.92980670928955" lon="1.3488507270812988">
        <ele>1340.1992628920095</ele>
        <time>2021-07-14T20:20:43.483Z</time>
      </trkpt>
      <trkpt lat="42.929677963256836" lon="1.3474130630493164">
        <ele>1336.3548011935186</ele>
        <time>2021-07-14T20:20:48.265Z</time>
      </trkpt>
      <trkpt lat="42.9296350479126" lon="1.3472843170166016">
        <ele>1332.829777228315</ele>
        <time>2021-07-14T20:20:53.049Z</time>
      </trkpt>
      <trkpt lat="42.92955994606018" lon="1.3471877574920654">
        <ele>1329.337494112914</ele>
        <time>2021-07-14T20:20:57.835Z</time>
      </trkpt>
      <trkpt lat="42.929227352142334" lon="1.3469839096069336">
        <ele>1325.6779723302864</ele>
        <time>2021-07-14T20:21:02.626Z</time>
      </trkpt>
      <trkpt lat="42.929173707962036" lon="1.346898078918457">
        <ele>1322.3980956141681</ele>
        <time>2021-07-14T20:21:07.419Z</time>
      </trkpt>
      <trkpt lat="42.92914152145386" lon="1.3467693328857422">
        <ele>1319.1887989354088</ele>
        <time>2021-07-14T20:21:12.213Z</time>
      </trkpt>
      <trkpt lat="42.92915225028992" lon="1.3465869426727295">
        <ele>1316.1708080035426</ele>
        <time>2021-07-14T20:21:17.009Z</time>
      </trkpt>
      <trkpt lat="42.929205894470215" lon="1.3463401794433594">
        <ele>1313.248746198032</ele>
        <time>2021-07-14T20:21:21.808Z</time>
      </trkpt>
      <trkpt lat="42.92930245399475" lon="1.3460934162139893">
        <ele>1310.543687564983</ele>
        <time>2021-07-14T20:21:26.611Z</time>
      </trkpt>
      <trkpt lat="42.93004274368286" lon="1.3448596000671387">
        <ele>1307.6306218645905</ele>
        <time>2021-07-14T20:21:31.432Z</time>
      </trkpt>
      <trkpt lat="42.930182218551636" lon="1.3444197177886963">
        <ele>1304.8711221211245</ele>
        <time>2021-07-14T20:21:36.259Z</time>
      </trkpt>
      <trkpt lat="42.930235862731934" lon="1.3440442085266113">
        <ele>1302.2472223887514</ele>
        <time>2021-07-14T20:21:41.091Z</time>
      </trkpt>
      <trkpt lat="42.93025732040405" lon="1.343700885772705">
        <ele>1299.9063338590963</ele>
        <time>2021-07-14T20:21:45.927Z</time>
      </trkpt>
      <trkpt lat="42.930235862731934" lon="1.3433575630187988">
        <ele>1297.830911398395</ele>
        <time>2021-07-14T20:21:50.767Z</time>
      </trkpt>
      <trkpt lat="42.930192947387695" lon="1.342928409576416">
        <ele>1296.02969201622</ele>
        <time>2021-07-14T20:21:55.612Z</time>
      </trkpt>
      <trkpt lat="42.930203676223755" lon="1.3427460193634033">
        <ele>1294.4229498483849</ele>
        <time>2021-07-14T20:22:00.459Z</time>
      </trkpt>
      <trkpt lat="42.93031096458435" lon="1.342606544494629">
        <ele>1293.0942509528113</ele>
        <time>2021-07-14T20:22:05.308Z</time>
      </trkpt>
      <trkpt lat="42.930428981781006" lon="1.3425636291503906">
        <ele>1292.0377845382145</ele>
        <time>2021-07-14T20:22:10.159Z</time>
      </trkpt>
      <trkpt lat="42.93055781163275" lon="1.3426172733306885">
        <ele>1291.043716685809</ele>
        <time>2021-07-14T20:22:15.012Z</time>
      </trkpt>
      <trkpt lat="42.93055772781372" lon="1.3426172733306885">
        <ele>1290.0896562508021</ele>
        <time>2021-07-14T20:22:19.865Z</time>
      </trkpt>
      <trkpt lat="42.93057918548584" lon="1.342628002166748">
        <ele>1289.2909532183828</ele>
        <time>2021-07-14T20:22:24.719Z</time>
      </trkpt>
      <trkpt lat="42.93090105056763" lon="1.3429498672485352">
        <ele>1288.7798582264113</ele>
        <time>2021-07-14T20:22:29.579Z</time>
      </trkpt>
      <trkpt lat="42.93106206692755" lon="1.3430464267730713">
        <ele>1288.185042985025</ele>
        <time>2021-07-14T20:22:34.442Z</time>
      </trkpt>
      <trkpt lat="42.931212186813354" lon="1.3430571556091309">
        <ele>1287.6556231805744</ele>
        <time>2021-07-14T20:22:39.307Z</time>
      </trkpt>
      <trkpt lat="42.93137311935425" lon="1.3430356979370117">
        <ele>1287.171223583111</ele>
        <time>2021-07-14T20:22:44.175Z</time>
      </trkpt>
      <trkpt lat="42.931469678878784" lon="1.3429713249206543">
        <ele>1286.818999863206</ele>
        <time>2021-07-14T20:22:49.045Z</time>
      </trkpt>
      <trkpt lat="42.93155550956726" lon="1.3428854942321777">
        <ele>1286.5779271953793</ele>
        <time>2021-07-14T20:22:53.916Z</time>
      </trkpt>
      <trkpt lat="42.93159850873053" lon="1.342778205871582">
        <ele>1286.4522997828603</ele>
        <time>2021-07-14T20:22:58.789Z</time>
      </trkpt>
      <trkpt lat="42.931716442108154" lon="1.3424241542816162">
        <ele>1286.2881054201725</ele>
        <time>2021-07-14T20:23:03.666Z</time>
      </trkpt>
      <trkpt lat="42.93177008628845" lon="1.3420915603637695">
        <ele>1286.4402294273796</ele>
        <time>2021-07-14T20:23:08.547Z</time>
      </trkpt>
      <trkpt lat="42.93175935745239" lon="1.342005729675293">
        <ele>1286.6501166118087</ele>
        <time>2021-07-14T20:23:13.429Z</time>
      </trkpt>
      <trkpt lat="42.931694984436035" lon="1.3418769836425781">
        <ele>1286.9219253756792</ele>
        <time>2021-07-14T20:23:18.313Z</time>
      </trkpt>
      <trkpt lat="42.93159850873053" lon="1.3418018817901611">
        <ele>1287.1977153039577</ele>
        <time>2021-07-14T20:23:23.199Z</time>
      </trkpt>
      <trkpt lat="42.931426763534546" lon="1.3416945934295654">
        <ele>1287.4927756652887</ele>
        <time>2021-07-14T20:23:28.088Z</time>
      </trkpt>
      <trkpt lat="42.93138384819031" lon="1.3416087627410889">
        <ele>1287.8743426813883</ele>
        <time>2021-07-14T20:23:32.978Z</time>
      </trkpt>
      <trkpt lat="42.93135166168213" lon="1.3415229320526123">
        <ele>1288.26569032927</ele>
        <time>2021-07-14T20:23:37.869Z</time>
      </trkpt>
      <trkpt lat="42.93134093284607" lon="1.3412439823150635">
        <ele>1288.7100511014187</ele>
        <time>2021-07-14T20:23:42.764Z</time>
      </trkpt>
      <trkpt lat="42.93125510215759" lon="1.340728998184204">
        <ele>1289.0560100804728</ele>
        <time>2021-07-14T20:23:47.665Z</time>
      </trkpt>
      <trkpt lat="42.93127655982971" lon="1.340557336807251">
        <ele>1289.5887524747855</ele>
        <time>2021-07-14T20:23:52.568Z</time>
      </trkpt>
      <trkpt lat="42.9314911365509" lon="1.3401389122009277">
        <ele>1290.402456106342</ele>
        <time>2021-07-14T20:23:57.477Z</time>
      </trkpt>
      <trkpt lat="42.9315447807312" lon="1.3400638103485107">
        <ele>1290.9833509995728</ele>
        <time>2021-07-14T20:24:02.387Z</time>
      </trkpt>
      <trkpt lat="42.931662797927856" lon="1.3399994373321533">
        <ele>1291.5820375458823</ele>
        <time>2021-07-14T20:24:07.299Z</time>
      </trkpt>
      <trkpt lat="42.93189883232117" lon="1.3399994373321533">
        <ele>1292.3029816072144</ele>
        <time>2021-07-14T20:24:12.215Z</time>
      </trkpt>
      <trkpt lat="42.931973934173584" lon="1.339956521987915">
        <ele>1292.8465352875228</ele>
        <time>2021-07-14T20:24:17.132Z</time>
      </trkpt>
      <trkpt lat="42.93203830718994" lon="1.339881420135498">
        <ele>1293.3370146992665</ele>
        <time>2021-07-14T20:24:22.051Z</time>
      </trkpt>
      <trkpt lat="42.93211340904236" lon="1.339656114578247">
        <ele>1293.674946178377</ele>
        <time>2021-07-14T20:24:26.973Z</time>
      </trkpt>
      <trkpt lat="42.932199239730835" lon="1.3392055034637451">
        <ele>1293.9107704577714</ele>
        <time>2021-07-14T20:24:31.900Z</time>
      </trkpt>
      <trkpt lat="42.93236017227173" lon="1.3387441635131836">
        <ele>1294.245523393648</ele>
        <time>2021-07-14T20:24:36.833Z</time>
      </trkpt>
      <trkpt lat="42.93239235877991" lon="1.338561773300171">
        <ele>1294.5795189514342</ele>
        <time>2021-07-14T20:24:41.768Z</time>
      </trkpt>
      <trkpt lat="42.93239235877991" lon="1.3383901119232178">
        <ele>1294.7650110416387</ele>
        <time>2021-07-14T20:24:46.705Z</time>
      </trkpt>
      <trkpt lat="42.932413816452026" lon="1.338186264038086">
        <ele>1294.9678121553034</ele>
        <time>2021-07-14T20:24:51.645Z</time>
      </trkpt>
      <trkpt lat="42.93257474899292" lon="1.3376498222351074">
        <ele>1295.262944270853</ele>
        <time>2021-07-14T20:24:56.592Z</time>
      </trkpt>
      <trkpt lat="42.93259620666504" lon="1.3374674320220947">
        <ele>1295.3001843634306</ele>
        <time>2021-07-14T20:25:01.541Z</time>
      </trkpt>
      <trkpt lat="42.93259620666504" lon="1.3371455669403076">
        <ele>1295.3433152628418</ele>
        <time>2021-07-14T20:25:06.493Z</time>
      </trkpt>
      <trkpt lat="42.93261766433716" lon="1.3369739055633545">
        <ele>1295.4196315370793</ele>
        <time>2021-07-14T20:25:11.448Z</time>
      </trkpt>
      <trkpt lat="42.932724952697754" lon="1.3365769386291504">
        <ele>1295.3909670868343</ele>
        <time>2021-07-14T20:25:16.407Z</time>
      </trkpt>
      <trkpt lat="42.93274641036987" lon="1.3364160060882568">
        <ele>1295.210906979165</ele>
        <time>2021-07-14T20:25:21.368Z</time>
      </trkpt>
      <trkpt lat="42.932714223861694" lon="1.3358795642852783">
        <ele>1294.8234155611383</ele>
        <time>2021-07-14T20:25:26.336Z</time>
      </trkpt>
      <trkpt lat="42.9326069355011" lon="1.335235834121704">
        <ele>1294.527226238125</ele>
        <time>2021-07-14T20:25:31.311Z</time>
      </trkpt>
      <trkpt lat="42.93261766433716" lon="1.3347744941711426">
        <ele>1294.522022076691</ele>
        <time>2021-07-14T20:25:36.292Z</time>
      </trkpt>
      <trkpt lat="42.93258547782898" lon="1.3346564769744873">
        <ele>1294.133523007944</ele>
        <time>2021-07-14T20:25:41.274Z</time>
      </trkpt>
      <trkpt lat="42.9325532913208" lon="1.3345706462860107">
        <ele>1293.665960917917</ele>
        <time>2021-07-14T20:25:46.258Z</time>
      </trkpt>
      <trkpt lat="42.93234944343567" lon="1.3343775272369385">
        <ele>1292.9242813469239</ele>
        <time>2021-07-14T20:25:51.246Z</time>
      </trkpt>
      <trkpt lat="42.931920289993286" lon="1.333862543106079">
        <ele>1291.6037261172578</ele>
        <time>2021-07-14T20:25:56.243Z</time>
      </trkpt>
      <trkpt lat="42.93187737464905" lon="1.3337230682373047">
        <ele>1290.8245647892697</ele>
        <time>2021-07-14T20:26:01.241Z</time>
      </trkpt>
      <trkpt lat="42.93187737464905" lon="1.3335728645324707">
        <ele>1290.0748787614543</ele>
        <time>2021-07-14T20:26:06.241Z</time>
      </trkpt>
      <trkpt lat="42.93233871459961" lon="1.3320600986480713">
        <ele>1289.4790047564284</ele>
        <time>2021-07-14T20:26:11.260Z</time>
      </trkpt>
      <trkpt lat="42.93240308761597" lon="1.3318026065826416">
        <ele>1288.7428263344073</ele>
        <time>2021-07-14T20:26:16.283Z</time>
      </trkpt>
      <trkpt lat="42.932446002960205" lon="1.3314807415008545">
        <ele>1287.9560001058785</ele>
        <time>2021-07-14T20:26:21.309Z</time>
      </trkpt>
      <trkpt lat="42.932456731796265" lon="1.3312768936157227">
        <ele>1287.0187922681837</ele>
        <time>2021-07-14T20:26:26.338Z</time>
      </trkpt>
      <trkpt lat="42.932424545288086" lon="1.3311052322387695">
        <ele>1285.8851943670384</ele>
        <time>2021-07-14T20:26:31.369Z</time>
      </trkpt>
      <trkpt lat="42.93224215507507" lon="1.3305258750915527">
        <ele>1284.9358066892223</ele>
        <time>2021-07-14T20:26:36.407Z</time>
      </trkpt>
      <trkpt lat="42.9321563243866" lon="1.330418586730957">
        <ele>1283.7168800083327</ele>
        <time>2021-07-14T20:26:41.447Z</time>
      </trkpt>
      <trkpt lat="42.93205976486206" lon="1.3303756713867188">
        <ele>1282.3525459923142</ele>
        <time>2021-07-14T20:26:46.489Z</time>
      </trkpt>
      <trkpt lat="42.931941747665405" lon="1.3303756713867188">
        <ele>1280.8887323458418</ele>
        <time>2021-07-14T20:26:51.533Z</time>
      </trkpt>
      <trkpt lat="42.93164134025574" lon="1.3304400444030762">
        <ele>1279.1883710931158</ele>
        <time>2021-07-14T20:26:56.582Z</time>
      </trkpt>
      <trkpt lat="42.93154486455023" lon="1.3304078578948975">
        <ele>1277.6896153216098</ele>
        <time>2021-07-14T20:27:01.632Z</time>
      </trkpt>
      <trkpt lat="42.9315447807312" lon="1.3304078578948975">
        <ele>1276.280466847868</ele>
        <time>2021-07-14T20:27:06.682Z</time>
      </trkpt>
      <trkpt lat="42.93150186538696" lon="1.3303864002227783">
        <ele>1274.781471757031</ele>
        <time>2021-07-14T20:27:11.733Z</time>
      </trkpt>
      <trkpt lat="42.93143757618964" lon="1.330268383026123">
        <ele>1273.2044961063316</ele>
        <time>2021-07-14T20:27:16.786Z</time>
      </trkpt>
      <trkpt lat="42.931426763534546" lon="1.330043077468872">
        <ele>1271.727841191755</ele>
        <time>2021-07-14T20:27:21.841Z</time>
      </trkpt>
      <trkpt lat="42.931469678878784" lon="1.3295817375183105">
        <ele>1270.1878076243224</ele>
        <time>2021-07-14T20:27:26.902Z</time>
      </trkpt>
      <trkpt lat="42.93160915374756" lon="1.328948736190796">
        <ele>1268.3850412301022</ele>
        <time>2021-07-14T20:27:31.971Z</time>
      </trkpt>
      <trkpt lat="42.93182373046875" lon="1.3284015655517578">
        <ele>1266.803872155354</ele>
        <time>2021-07-14T20:27:37.047Z</time>
      </trkpt>
      <trkpt lat="42.93252110481262" lon="1.3270926475524902">
        <ele>1265.08573424824</ele>
        <time>2021-07-14T20:27:42.142Z</time>
      </trkpt>
      <trkpt lat="42.93278932571411" lon="1.326448917388916">
        <ele>1263.2296374201383</ele>
        <time>2021-07-14T20:27:47.246Z</time>
      </trkpt>
      <trkpt lat="42.93281078338623" lon="1.326148509979248">
        <ele>1261.4188386501792</ele>
        <time>2021-07-14T20:27:52.353Z</time>
      </trkpt>
      <trkpt lat="42.932714223861694" lon="1.3254296779632568">
        <ele>1259.3984187874553</ele>
        <time>2021-07-14T20:27:57.469Z</time>
      </trkpt>
      <trkpt lat="42.932714223861694" lon="1.3252043724060059">
        <ele>1257.7676003377828</ele>
        <time>2021-07-14T20:28:02.587Z</time>
      </trkpt>
      <trkpt lat="42.93275713920593" lon="1.3250327110290527">
        <ele>1256.2571486113688</ele>
        <time>2021-07-14T20:28:07.707Z</time>
      </trkpt>
      <trkpt lat="42.93280005455017" lon="1.3250112533569336">
        <ele>1254.765094041174</ele>
        <time>2021-07-14T20:28:12.828Z</time>
      </trkpt>
      <trkpt lat="42.93284305371344" lon="1.3250434398651123">
        <ele>1253.2542470081953</ele>
        <time>2021-07-14T20:28:17.950Z</time>
      </trkpt>
      <trkpt lat="42.932960987091064" lon="1.3252794742584229">
        <ele>1251.7579006487454</ele>
        <time>2021-07-14T20:28:23.075Z</time>
      </trkpt>
      <trkpt lat="42.93307900428772" lon="1.3256335258483887">
        <ele>1250.227788549052</ele>
        <time>2021-07-14T20:28:28.205Z</time>
      </trkpt>
      <trkpt lat="42.93334722518921" lon="1.3265562057495117">
        <ele>1248.691972513615</ele>
        <time>2021-07-14T20:28:33.347Z</time>
      </trkpt>
      <trkpt lat="42.93358325958252" lon="1.3278329372406006">
        <ele>1247.3904131118802</ele>
        <time>2021-07-14T20:28:38.504Z</time>
      </trkpt>
      <trkpt lat="42.93385148048401" lon="1.3281548023223877">
        <ele>1245.1848519949754</ele>
        <time>2021-07-14T20:28:43.667Z</time>
      </trkpt>
      <trkpt lat="42.934173345565796" lon="1.3284873962402344">
        <ele>1243.2010937956347</ele>
        <time>2021-07-14T20:28:48.836Z</time>
      </trkpt>
      <trkpt lat="42.934473752975464" lon="1.328519582748413">
        <ele>1240.7877366852895</ele>
        <time>2021-07-14T20:28:54.010Z</time>
      </trkpt>
      <trkpt lat="42.934677600860596" lon="1.3284015655517578">
        <ele>1238.1497556719191</ele>
        <time>2021-07-14T20:28:59.188Z</time>
      </trkpt>
      <trkpt lat="42.934913635253906" lon="1.3283264636993408">
        <ele>1235.511169086837</ele>
        <time>2021-07-14T20:29:04.369Z</time>
      </trkpt>
      <trkpt lat="42.935171127319336" lon="1.328369379043579">
        <ele>1232.9917615199734</ele>
        <time>2021-07-14T20:29:09.555Z</time>
      </trkpt>
      <trkpt lat="42.93533214367926" lon="1.3283371925354004">
        <ele>1230.3308117031738</ele>
        <time>2021-07-14T20:29:14.743Z</time>
      </trkpt>
      <trkpt lat="42.93533205986023" lon="1.3283371925354004">
        <ele>1227.5126690600623</ele>
        <time>2021-07-14T20:29:19.931Z</time>
      </trkpt>
      <trkpt lat="42.93537497520447" lon="1.3283264636993408">
        <ele>1224.525035690821</ele>
        <time>2021-07-14T20:29:25.120Z</time>
      </trkpt>
      <trkpt lat="42.935471534729004" lon="1.3281548023223877">
        <ele>1221.1263309598817</ele>
        <time>2021-07-14T20:29:30.311Z</time>
      </trkpt>
      <trkpt lat="42.935460805892944" lon="1.327972412109375">
        <ele>1217.4594825564652</ele>
        <time>2021-07-14T20:29:35.505Z</time>
      </trkpt>
      <trkpt lat="42.93553590774536" lon="1.3277685642242432">
        <ele>1213.7358174368337</ele>
        <time>2021-07-14T20:29:40.701Z</time>
      </trkpt>
      <trkpt lat="42.93579339981079" lon="1.3274574279785156">
        <ele>1209.819486609183</ele>
        <time>2021-07-14T20:29:45.903Z</time>
      </trkpt>
      <trkpt lat="42.93625473976135" lon="1.3270175457000732">
        <ele>1205.6401285238453</ele>
        <time>2021-07-14T20:29:51.114Z</time>
      </trkpt>
      <trkpt lat="42.9365336894989" lon="1.3268887996673584">
        <ele>1201.6771127321717</ele>
        <time>2021-07-14T20:29:56.330Z</time>
      </trkpt>
      <trkpt lat="42.9369843006134" lon="1.3268458843231201">
        <ele>1197.631035182415</ele>
        <time>2021-07-14T20:30:01.553Z</time>
      </trkpt>
      <trkpt lat="42.93738126754761" lon="1.326749324798584">
        <ele>1193.2192612122628</ele>
        <time>2021-07-14T20:30:06.782Z</time>
      </trkpt>
      <trkpt lat="42.93762803077698" lon="1.3264060020446777">
        <ele>1188.255873229555</ele>
        <time>2021-07-14T20:30:12.017Z</time>
      </trkpt>
      <trkpt lat="42.937917709350586" lon="1.3260626792907715">
        <ele>1183.2927686775965</ele>
        <time>2021-07-14T20:30:17.258Z</time>
      </trkpt>
      <trkpt lat="42.938218200579286" lon="1.3250219821929932">
        <ele>1177.8769259320807</ele>
        <time>2021-07-14T20:30:22.512Z</time>
      </trkpt>
      <trkpt lat="42.938218116760254" lon="1.3250219821929932">
        <ele>1172.967361291916</ele>
        <time>2021-07-14T20:30:27.766Z</time>
      </trkpt>
      <trkpt lat="42.93878674507141" lon="1.3245177268981934">
        <ele>1167.7491731966668</ele>
        <time>2021-07-14T20:30:33.031Z</time>
      </trkpt>
      <trkpt lat="42.93930172920227" lon="1.3244104385375977">
        <ele>1162.7805811685907</ele>
        <time>2021-07-14T20:30:38.304Z</time>
      </trkpt>
      <trkpt lat="42.939720153808594" lon="1.3241100311279297">
        <ele>1157.4433612750913</ele>
        <time>2021-07-14T20:30:43.585Z</time>
      </trkpt>
      <trkpt lat="42.9400098323822" lon="1.3238096237182617">
        <ele>1151.873148214396</ele>
        <time>2021-07-14T20:30:48.872Z</time>
      </trkpt>
      <trkpt lat="42.94023513793945" lon="1.3232624530792236">
        <ele>1145.9444113324953</ele>
        <time>2021-07-14T20:30:54.166Z</time>
      </trkpt>
      <trkpt lat="42.94064283370972" lon="1.3225972652435303">
        <ele>1140.299670039546</ele>
        <time>2021-07-14T20:30:59.470Z</time>
      </trkpt>
      <trkpt lat="42.94189810752869" lon="1.3202476501464844">
        <ele>1133.6024862235752</ele>
        <time>2021-07-14T20:31:04.808Z</time>
      </trkpt>
      <trkpt lat="42.94205904006958" lon="1.3197863101959229">
        <ele>1127.6035169530203</ele>
        <time>2021-07-14T20:31:10.152Z</time>
      </trkpt>
      <trkpt lat="42.942198514938354" lon="1.3195288181304932">
        <ele>1121.9492362943668</ele>
        <time>2021-07-14T20:31:15.500Z</time>
      </trkpt>
      <trkpt lat="42.942466735839844" lon="1.3190996646881104">
        <ele>1116.3686704186491</ele>
        <time>2021-07-14T20:31:20.855Z</time>
      </trkpt>
      <trkpt lat="42.94324994087219" lon="1.3179945945739746">
        <ele>1110.3486665819717</ele>
        <time>2021-07-14T20:31:26.228Z</time>
      </trkpt>
      <trkpt lat="42.943421602249146" lon="1.3175976276397705">
        <ele>1104.6060207920443</ele>
        <time>2021-07-14T20:31:31.606Z</time>
      </trkpt>
      <trkpt lat="42.943453788757324" lon="1.3174045085906982">
        <ele>1098.9876975961101</ele>
        <time>2021-07-14T20:31:36.987Z</time>
      </trkpt>
      <trkpt lat="42.94356107711792" lon="1.3172435760498047">
        <ele>1093.5547669855557</ele>
        <time>2021-07-14T20:31:42.370Z</time>
      </trkpt>
      <trkpt lat="42.943968772888184" lon="1.3171792030334473">
        <ele>1088.3747979056336</ele>
        <time>2021-07-14T20:31:47.760Z</time>
      </trkpt>
      <trkpt lat="42.944151163101196" lon="1.3171148300170898">
        <ele>1083.0821406880073</ele>
        <time>2021-07-14T20:31:53.153Z</time>
      </trkpt>
      <trkpt lat="42.944419384002686" lon="1.316910982131958">
        <ele>1077.6450265462681</ele>
        <time>2021-07-14T20:31:58.551Z</time>
      </trkpt>
      <trkpt lat="42.94461250305176" lon="1.3167071342468262">
        <ele>1072.320796712204</ele>
        <time>2021-07-14T20:32:03.953Z</time>
      </trkpt>
      <trkpt lat="42.9449987411499" lon="1.3161814212799072">
        <ele>1066.8052585278178</ele>
        <time>2021-07-14T20:32:09.363Z</time>
      </trkpt>
      <trkpt lat="42.945148944854736" lon="1.3158810138702393">
        <ele>1061.6370863415193</ele>
        <time>2021-07-14T20:32:14.778Z</time>
      </trkpt>
      <trkpt lat="42.945406436920166" lon="1.3149476051330566">
        <ele>1056.2055221586538</ele>
        <time>2021-07-14T20:32:20.204Z</time>
      </trkpt>
      <trkpt lat="42.94563174247742" lon="1.3144111633300781">
        <ele>1051.1884144976052</ele>
        <time>2021-07-14T20:32:25.638Z</time>
      </trkpt>
      <trkpt lat="42.94585704803467" lon="1.3140463829040527">
        <ele>1046.3884288167371</ele>
        <time>2021-07-14T20:32:31.077Z</time>
      </trkpt>
      <trkpt lat="42.94607162475586" lon="1.313788890838623">
        <ele>1041.8109189432948</ele>
        <time>2021-07-14T20:32:36.521Z</time>
      </trkpt>
      <trkpt lat="42.94631838798523" lon="1.3133597373962402">
        <ele>1037.1662013953662</ele>
        <time>2021-07-14T20:32:41.971Z</time>
      </trkpt>
      <trkpt lat="42.9466187953949" lon="1.3126623630523682">
        <ele>1032.4604376727475</ele>
        <time>2021-07-14T20:32:47.431Z</time>
      </trkpt>
      <trkpt lat="42.94708013534546" lon="1.3119328022003174">
        <ele>1028.0024375570113</ele>
        <time>2021-07-14T20:32:52.902Z</time>
      </trkpt>
      <trkpt lat="42.9475200176239" lon="1.311192512512207">
        <ele>1023.595832135155</ele>
        <time>2021-07-14T20:32:58.384Z</time>
      </trkpt>
      <trkpt lat="42.947648763656616" lon="1.3107311725616455">
        <ele>1019.5335529299286</ele>
        <time>2021-07-14T20:33:03.872Z</time>
      </trkpt>
      <trkpt lat="42.947659492492676" lon="1.3098299503326416">
        <ele>1015.0565841530578</ele>
        <time>2021-07-14T20:33:09.371Z</time>
      </trkpt>
      <trkpt lat="42.947680950164795" lon="1.3097119331359863">
        <ele>1011.4308257883857</ele>
        <time>2021-07-14T20:33:14.871Z</time>
      </trkpt>
      <trkpt lat="42.94777759350836" lon="1.309593915939331">
        <ele>1008.0556197425146</ele>
        <time>2021-07-14T20:33:20.373Z</time>
      </trkpt>
      <trkpt lat="42.947949171066284" lon="1.3096368312835693">
        <ele>1005.0531977905383</ele>
        <time>2021-07-14T20:33:25.878Z</time>
      </trkpt>
      <trkpt lat="42.94804573059082" lon="1.3097119331359863">
        <ele>1002.1756755776644</ele>
        <time>2021-07-14T20:33:31.385Z</time>
      </trkpt>
      <trkpt lat="42.948185205459595" lon="1.309894323348999">
        <ele>999.6575831224725</ele>
        <time>2021-07-14T20:33:36.895Z</time>
      </trkpt>
      <trkpt lat="42.94878602027893" lon="1.3103663921356201">
        <ele>996.642206895571</ele>
        <time>2021-07-14T20:33:42.416Z</time>
      </trkpt>
      <trkpt lat="42.94912934303284" lon="1.3105273246765137">
        <ele>993.7182408755427</ele>
        <time>2021-07-14T20:33:47.943Z</time>
      </trkpt>
      <trkpt lat="42.94918307103217" lon="1.310516595840454">
        <ele>991.0687180501122</ele>
        <time>2021-07-14T20:33:53.470Z</time>
      </trkpt>
      <trkpt lat="42.949419021606445" lon="1.310495138168335">
        <ele>988.2788758275217</ele>
        <time>2021-07-14T20:33:59.001Z</time>
      </trkpt>
      <trkpt lat="42.9495370388031" lon="1.310420036315918">
        <ele>985.8021861288249</ele>
        <time>2021-07-14T20:34:04.534Z</time>
      </trkpt>
      <trkpt lat="42.949644327163696" lon="1.3102912902832031">
        <ele>983.4928252756716</ele>
        <time>2021-07-14T20:34:10.070Z</time>
      </trkpt>
      <trkpt lat="42.94976234436035" lon="1.31011962890625">
        <ele>981.3410600837265</ele>
        <time>2021-07-14T20:34:15.608Z</time>
      </trkpt>
      <trkpt lat="42.94988036155701" lon="1.3099908828735352">
        <ele>979.338324827489</ele>
        <time>2021-07-14T20:34:21.149Z</time>
      </trkpt>
      <trkpt lat="42.95005202293396" lon="1.3099157810211182">
        <ele>977.4847101455401</ele>
        <time>2021-07-14T20:34:26.693Z</time>
      </trkpt>
      <trkpt lat="42.95028805732727" lon="1.3098299503326416">
        <ele>975.6334545258562</ele>
        <time>2021-07-14T20:34:32.241Z</time>
      </trkpt>
      <trkpt lat="42.950459718704224" lon="1.309722661972046">
        <ele>973.8205172894068</ele>
        <time>2021-07-14T20:34:37.792Z</time>
      </trkpt>
      <trkpt lat="42.950599193573" lon="1.3095831871032715">
        <ele>972.1208368804475</ele>
        <time>2021-07-14T20:34:43.345Z</time>
      </trkpt>
      <trkpt lat="42.9509961605072" lon="1.3094544410705566">
        <ele>970.3706246635809</ele>
        <time>2021-07-14T20:34:48.905Z</time>
      </trkpt>
      <trkpt lat="42.951157093048096" lon="1.3093578815460205">
        <ele>968.7882171956853</ele>
        <time>2021-07-14T20:34:54.468Z</time>
      </trkpt>
      <trkpt lat="42.95122146606445" lon="1.3092398643493652">
        <ele>967.2904068642308</ele>
        <time>2021-07-14T20:35:00.032Z</time>
      </trkpt>
      <trkpt lat="42.95125365257263" lon="1.3090789318084717">
        <ele>965.8526791410723</ele>
        <time>2021-07-14T20:35:05.598Z</time>
      </trkpt>
      <trkpt lat="42.951200008392334" lon="1.3088107109069824">
        <ele>964.4043885600496</ele>
        <time>2021-07-14T20:35:11.168Z</time>
      </trkpt>
      <trkpt lat="42.95108199119568" lon="1.308424472808838">
        <ele>962.8815059618307</ele>
        <time>2021-07-14T20:35:16.743Z</time>
      </trkpt>
      <trkpt lat="42.9510498046875" lon="1.3079094886779785">
        <ele>961.3936533458294</ele>
        <time>2021-07-14T20:35:22.324Z</time>
      </trkpt>
      <trkpt lat="42.9511034488678" lon="1.307673454284668">
        <ele>960.158961863186</ele>
        <time>2021-07-14T20:35:27.908Z</time>
      </trkpt>
      <trkpt lat="42.951457500457764" lon="1.3069117069244385">
        <ele>958.9213398465693</ele>
        <time>2021-07-14T20:35:33.502Z</time>
      </trkpt>
      <trkpt lat="42.95157551765442" lon="1.3065361976623535">
        <ele>957.5703027703855</ele>
        <time>2021-07-14T20:35:39.101Z</time>
      </trkpt>
      <trkpt lat="42.95160778798163" lon="1.306450366973877">
        <ele>956.4914055337329</ele>
        <time>2021-07-14T20:35:44.701Z</time>
      </trkpt>
      <trkpt lat="42.95184373855591" lon="1.3060212135314941">
        <ele>955.3287098058825</ele>
        <time>2021-07-14T20:35:50.307Z</time>
      </trkpt>
      <trkpt lat="42.951897382736206" lon="1.3059461116790771">
        <ele>954.2752920406533</ele>
        <time>2021-07-14T20:35:55.915Z</time>
      </trkpt>
      <trkpt lat="42.95196175575256" lon="1.3059031963348389">
        <ele>953.2982336179831</ele>
        <time>2021-07-14T20:36:01.524Z</time>
      </trkpt>
      <trkpt lat="42.9520583152771" lon="1.3058924674987793">
        <ele>952.411028274598</ele>
        <time>2021-07-14T20:36:07.134Z</time>
      </trkpt>
      <trkpt lat="42.95212268829346" lon="1.3059461116790771">
        <ele>951.5000796304031</ele>
        <time>2021-07-14T20:36:12.746Z</time>
      </trkpt>
      <trkpt lat="42.952165603637695" lon="1.3060426712036133">
        <ele>950.6201375157473</ele>
        <time>2021-07-14T20:36:18.359Z</time>
      </trkpt>
      <trkpt lat="42.952208518981934" lon="1.3062787055969238">
        <ele>949.8474349908706</ele>
        <time>2021-07-14T20:36:23.975Z</time>
      </trkpt>
      <trkpt lat="42.95226216316223" lon="1.3063108921051025">
        <ele>948.8614827862364</ele>
        <time>2021-07-14T20:36:29.592Z</time>
      </trkpt>
      <trkpt lat="42.95231580734253" lon="1.306300163269043">
        <ele>947.8073638144192</ele>
        <time>2021-07-14T20:36:35.210Z</time>
      </trkpt>
      <trkpt lat="42.95234799385071" lon="1.306225061416626">
        <ele>946.6834632255711</ele>
        <time>2021-07-14T20:36:40.829Z</time>
      </trkpt>
      <trkpt lat="42.95234799385071" lon="1.3061392307281494">
        <ele>945.5247674560719</ele>
        <time>2021-07-14T20:36:46.449Z</time>
      </trkpt>
      <trkpt lat="42.952144145965576" lon="1.3055169582366943">
        <ele>943.8916247781758</ele>
        <time>2021-07-14T20:36:52.077Z</time>
      </trkpt>
      <trkpt lat="42.95204758644104" lon="1.3052916526794434">
        <ele>942.5588231546772</ele>
        <time>2021-07-14T20:36:57.708Z</time>
      </trkpt>
      <trkpt lat="42.951983297243714" lon="1.3052380084991455">
        <ele>941.2870005117951</ele>
        <time>2021-07-14T20:37:03.340Z</time>
      </trkpt>
      <trkpt lat="42.95196175575256" lon="1.3052165508270264">
        <ele>940.0614918067905</ele>
        <time>2021-07-14T20:37:08.972Z</time>
      </trkpt>
      <trkpt lat="42.95188665390015" lon="1.305227279663086">
        <ele>938.7711678985502</ele>
        <time>2021-07-14T20:37:14.605Z</time>
      </trkpt>
      <trkpt lat="42.95175790786743" lon="1.3053131103515625">
        <ele>937.4131275869672</ele>
        <time>2021-07-14T20:37:20.241Z</time>
      </trkpt>
      <trkpt lat="42.951639890670776" lon="1.3054203987121582">
        <ele>936.0602674847368</ele>
        <time>2021-07-14T20:37:25.879Z</time>
      </trkpt>
      <trkpt lat="42.951500415802" lon="1.305677890777588">
        <ele>934.8832888524039</ele>
        <time>2021-07-14T20:37:31.521Z</time>
      </trkpt>
      <trkpt lat="42.95135021209717" lon="1.3058710098266602">
        <ele>933.5275547329047</ele>
        <time>2021-07-14T20:37:37.166Z</time>
      </trkpt>
      <trkpt lat="42.9511034488678" lon="1.306074857711792">
        <ele>932.032947865528</ele>
        <time>2021-07-14T20:37:42.816Z</time>
      </trkpt>
      <trkpt lat="42.950931787490845" lon="1.306300163269043">
        <ele>930.6071541585129</ele>
        <time>2021-07-14T20:37:48.470Z</time>
      </trkpt>
      <trkpt lat="42.95084595680237" lon="1.306300163269043">
        <ele>929.118594771289</ele>
        <time>2021-07-14T20:37:54.125Z</time>
      </trkpt>
      <trkpt lat="42.95080304145813" lon="1.3062465190887451">
        <ele>927.6442093791318</ele>
        <time>2021-07-14T20:37:59.781Z</time>
      </trkpt>
      <trkpt lat="42.95081377029419" lon="1.306149959564209">
        <ele>926.2120800060065</ele>
        <time>2021-07-14T20:38:05.438Z</time>
      </trkpt>
      <trkpt lat="42.95087814331055" lon="1.3060426712036133">
        <ele>924.8468046357368</ele>
        <time>2021-07-14T20:38:11.097Z</time>
      </trkpt>
      <trkpt lat="42.95109272003174" lon="1.3058173656463623">
        <ele>923.6105976337592</ele>
        <time>2021-07-14T20:38:16.760Z</time>
      </trkpt>
      <trkpt lat="42.95126438140869" lon="1.305602788925171">
        <ele>922.2133705027876</ele>
        <time>2021-07-14T20:38:22.427Z</time>
      </trkpt>
      <trkpt lat="42.95132875442505" lon="1.3054418563842773">
        <ele>920.7234433630854</ele>
        <time>2021-07-14T20:38:28.096Z</time>
      </trkpt>
      <trkpt lat="42.95133948326111" lon="1.305248737335205">
        <ele>919.0814646120891</ele>
        <time>2021-07-14T20:38:33.767Z</time>
      </trkpt>
      <trkpt lat="42.95131802558899" lon="1.3048946857452393">
        <ele>917.2743734506889</ele>
        <time>2021-07-14T20:38:39.442Z</time>
      </trkpt>
      <trkpt lat="42.95137166976929" lon="1.3046371936798096">
        <ele>915.725429479207</ele>
        <time>2021-07-14T20:38:45.120Z</time>
      </trkpt>
      <trkpt lat="42.951446771621704" lon="1.3043797016143799">
        <ele>914.1894066459663</ele>
        <time>2021-07-14T20:38:50.802Z</time>
      </trkpt>
      <trkpt lat="42.95156478881836" lon="1.304175853729248">
        <ele>912.7183648678135</ele>
        <time>2021-07-14T20:38:56.487Z</time>
      </trkpt>
      <trkpt lat="42.95173645019531" lon="1.3039612770080566">
        <ele>911.3032986162834</ele>
        <time>2021-07-14T20:39:02.175Z</time>
      </trkpt>
      <trkpt lat="42.951918840408325" lon="1.3038969039916992">
        <ele>909.852998262038</ele>
        <time>2021-07-14T20:39:07.866Z</time>
      </trkpt>
      <trkpt lat="42.95274496078491" lon="1.3045620918273926">
        <ele>908.250505775829</ele>
        <time>2021-07-14T20:39:13.573Z</time>
      </trkpt>
      <trkpt lat="42.952927350997925" lon="1.3046586513519287">
        <ele>906.5100748012704</ele>
        <time>2021-07-14T20:39:19.283Z</time>
      </trkpt>
      <trkpt lat="42.95304536819458" lon="1.3046693801879883">
        <ele>904.795293043765</ele>
        <time>2021-07-14T20:39:24.995Z</time>
      </trkpt>
      <trkpt lat="42.953174114227295" lon="1.3046371936798096">
        <ele>902.9888165474654</ele>
        <time>2021-07-14T20:39:30.709Z</time>
      </trkpt>
      <trkpt lat="42.95331358909607" lon="1.3044655323028564">
        <ele>901.0317532957132</ele>
        <time>2021-07-14T20:39:36.426Z</time>
      </trkpt>
      <trkpt lat="42.953431606292725" lon="1.3042616844177246">
        <ele>899.2328263139216</ele>
        <time>2021-07-14T20:39:42.146Z</time>
      </trkpt>
      <trkpt lat="42.953431690111756" lon="1.3042616844177246">
        <ele>897.5624109748583</ele>
        <time>2021-07-14T20:39:47.866Z</time>
      </trkpt>
      <trkpt lat="42.953892946243286" lon="1.3035321235656738">
        <ele>895.8078268539371</ele>
        <time>2021-07-14T20:39:53.597Z</time>
      </trkpt>
      <trkpt lat="42.953903675079346" lon="1.3034462928771973">
        <ele>894.0708626072644</ele>
        <time>2021-07-14T20:39:59.329Z</time>
      </trkpt>
      <trkpt lat="42.95387148857117" lon="1.3033819198608398">
        <ele>892.30682529672</ele>
        <time>2021-07-14T20:40:05.062Z</time>
      </trkpt>
      <trkpt lat="42.95383930206299" lon="1.3033497333526611">
        <ele>890.5459964410206</ele>
        <time>2021-07-14T20:40:10.796Z</time>
      </trkpt>
      <trkpt lat="42.95373201370239" lon="1.3033926486968994">
        <ele>888.7400048108077</ele>
        <time>2021-07-14T20:40:16.532Z</time>
      </trkpt>
      <trkpt lat="42.95356035232544" lon="1.3035964965820312">
        <ele>886.977816634954</ele>
        <time>2021-07-14T20:40:22.271Z</time>
      </trkpt>
      <trkpt lat="42.953399419784546" lon="1.3037681579589844">
        <ele>885.2556293805701</ele>
        <time>2021-07-14T20:40:28.014Z</time>
      </trkpt>
      <trkpt lat="42.95323848724365" lon="1.3038432598114014">
        <ele>883.4828902048343</ele>
        <time>2021-07-14T20:40:33.759Z</time>
      </trkpt>
      <trkpt lat="42.95308828353882" lon="1.3038647174835205">
        <ele>881.7451045535036</ele>
        <time>2021-07-14T20:40:39.507Z</time>
      </trkpt>
      <trkpt lat="42.952927350997925" lon="1.3038218021392822">
        <ele>879.9749749871685</ele>
        <time>2021-07-14T20:40:45.257Z</time>
      </trkpt>
      <trkpt lat="42.952702045440674" lon="1.303650140762329">
        <ele>878.2463043521411</ele>
        <time>2021-07-14T20:40:51.011Z</time>
      </trkpt>
      <trkpt lat="42.952208518981934" lon="1.3032102584838867">
        <ele>876.5971796280567</ele>
        <time>2021-07-14T20:40:56.775Z</time>
      </trkpt>
      <trkpt lat="42.95159697532654" lon="1.3024377822875977">
        <ele>874.0944375322063</ele>
        <time>2021-07-14T20:41:02.552Z</time>
      </trkpt>
      <trkpt lat="42.951425313949585" lon="1.302276849746704">
        <ele>872.0070753853292</ele>
        <time>2021-07-14T20:41:08.333Z</time>
      </trkpt>
      <trkpt lat="42.95130729675293" lon="1.302255392074585">
        <ele>870.0945448210886</ele>
        <time>2021-07-14T20:41:14.116Z</time>
      </trkpt>
      <trkpt lat="42.95125365257263" lon="1.3022124767303467">
        <ele>868.244895802251</ele>
        <time>2021-07-14T20:41:19.900Z</time>
      </trkpt>
      <trkpt lat="42.95123219490051" lon="1.3021373748779297">
        <ele>866.4249134013437</ele>
        <time>2021-07-14T20:41:25.684Z</time>
      </trkpt>
      <trkpt lat="42.95123219490051" lon="1.3020515441894531">
        <ele>864.6621243889031</ele>
        <time>2021-07-14T20:41:31.469Z</time>
      </trkpt>
      <trkpt lat="42.95126438140869" lon="1.3020193576812744">
        <ele>863.0160495954696</ele>
        <time>2021-07-14T20:41:37.255Z</time>
      </trkpt>
      <trkpt lat="42.95130729675293" lon="1.3019871711730957">
        <ele>861.4004466235223</ele>
        <time>2021-07-14T20:41:43.042Z</time>
      </trkpt>
      <trkpt lat="42.951393127441406" lon="1.3020086288452148">
        <ele>859.8999776367988</ele>
        <time>2021-07-14T20:41:48.830Z</time>
      </trkpt>
      <trkpt lat="42.95186519622803" lon="1.3024485111236572">
        <ele>858.8860850220517</ele>
        <time>2021-07-14T20:41:54.627Z</time>
      </trkpt>
      <trkpt lat="42.95234799385071" lon="1.3028132915496826">
        <ele>857.1980441602947</ele>
        <time>2021-07-14T20:42:00.433Z</time>
      </trkpt>
      <trkpt lat="42.95262694358826" lon="1.3029205799102783">
        <ele>855.2641064587808</ele>
        <time>2021-07-14T20:42:06.244Z</time>
      </trkpt>
      <trkpt lat="42.95283079147339" lon="1.3029420375823975">
        <ele>853.5759420970735</ele>
        <time>2021-07-14T20:42:12.058Z</time>
      </trkpt>
      <trkpt lat="42.952905893325806" lon="1.3028883934020996">
        <ele>851.8974417457514</ele>
        <time>2021-07-14T20:42:17.874Z</time>
      </trkpt>
      <trkpt lat="42.95297026634216" lon="1.3027918338775635">
        <ele>850.2500303936024</ele>
        <time>2021-07-14T20:42:23.691Z</time>
      </trkpt>
      <trkpt lat="42.95298099517822" lon="1.302706003189087">
        <ele>848.5740718006459</ele>
        <time>2021-07-14T20:42:29.509Z</time>
      </trkpt>
      <trkpt lat="42.95297026634216" lon="1.302555799484253">
        <ele>846.8289933201715</ele>
        <time>2021-07-14T20:42:35.329Z</time>
      </trkpt>
      <trkpt lat="42.95285224914551" lon="1.3020408153533936">
        <ele>844.8550403081751</ele>
        <time>2021-07-14T20:42:41.155Z</time>
      </trkpt>
      <trkpt lat="42.95285224914551" lon="1.3019227981567383">
        <ele>843.2136343290063</ele>
        <time>2021-07-14T20:42:46.983Z</time>
      </trkpt>
      <trkpt lat="42.95288443565369" lon="1.3017511367797852">
        <ele>841.6077267072553</ele>
        <time>2021-07-14T20:42:52.813Z</time>
      </trkpt>
      <trkpt lat="42.95298099517822" lon="1.3014400005340576">
        <ele>840.1727596362077</ele>
        <time>2021-07-14T20:42:58.647Z</time>
      </trkpt>
      <trkpt lat="42.9529595375061" lon="1.3013112545013428">
        <ele>838.5953234967583</ele>
        <time>2021-07-14T20:43:04.482Z</time>
      </trkpt>
      <trkpt lat="42.95287370681763" lon="1.3011395931243896">
        <ele>837.0364532970907</ele>
        <time>2021-07-14T20:43:10.320Z</time>
      </trkpt>
      <trkpt lat="42.95233726501465" lon="1.3006460666656494">
        <ele>834.9992424826253</ele>
        <time>2021-07-14T20:43:16.168Z</time>
      </trkpt>
      <trkpt lat="42.95229434967041" lon="1.3004851341247559">
        <ele>833.4422027590817</ele>
        <time>2021-07-14T20:43:22.018Z</time>
      </trkpt>
      <trkpt lat="42.95227289199829" lon="1.2998950481414795">
        <ele>831.7361963882225</ele>
        <time>2021-07-14T20:43:27.875Z</time>
      </trkpt>
      <trkpt lat="42.952165603637695" lon="1.2994658946990967">
        <ele>829.892603773492</ele>
        <time>2021-07-14T20:43:33.737Z</time>
      </trkpt>
      <trkpt lat="42.95212268829346" lon="1.299283504486084">
        <ele>828.3610814552978</ele>
        <time>2021-07-14T20:43:39.602Z</time>
      </trkpt>
      <trkpt lat="42.952165603637695" lon="1.2990903854370117">
        <ele>827.0095843780674</ele>
        <time>2021-07-14T20:43:45.469Z</time>
      </trkpt>
      <trkpt lat="42.95221924781799" lon="1.2989616394042969">
        <ele>825.7410487831044</ele>
        <time>2021-07-14T20:43:51.338Z</time>
      </trkpt>
      <trkpt lat="42.95234799385071" lon="1.2987792491912842">
        <ele>824.5769191231693</ele>
        <time>2021-07-14T20:43:57.210Z</time>
      </trkpt>
      <trkpt lat="42.9525089263916" lon="1.2986505031585693">
        <ele>823.3899577306706</ele>
        <time>2021-07-14T20:44:03.085Z</time>
      </trkpt>
      <trkpt lat="42.952669858932495" lon="1.2986397743225098">
        <ele>822.3058744533388</ele>
        <time>2021-07-14T20:44:08.962Z</time>
      </trkpt>
      <trkpt lat="42.95300245285034" lon="1.2986934185028076">
        <ele>821.4105596546549</ele>
        <time>2021-07-14T20:44:14.845Z</time>
      </trkpt>
      <trkpt lat="42.95305609703064" lon="1.2986183166503906">
        <ele>820.305015683811</ele>
        <time>2021-07-14T20:44:20.729Z</time>
      </trkpt>
      <trkpt lat="42.9530668258667" lon="1.298532485961914">
        <ele>819.1867265322444</ele>
        <time>2021-07-14T20:44:26.614Z</time>
      </trkpt>
      <trkpt lat="42.95304536819458" lon="1.2984895706176758">
        <ele>818.1130523273512</ele>
        <time>2021-07-14T20:44:32.499Z</time>
      </trkpt>
      <trkpt lat="42.95298099517822" lon="1.2984788417816162">
        <ele>817.0662335033476</ele>
        <time>2021-07-14T20:44:38.385Z</time>
      </trkpt>
      <trkpt lat="42.95288443565369" lon="1.298532485961914">
        <ele>816.0796504107873</ele>
        <time>2021-07-14T20:44:44.273Z</time>
      </trkpt>
      <trkpt lat="42.95280933380127" lon="1.298532485961914">
        <ele>815.1011487690689</ele>
        <time>2021-07-14T20:44:50.162Z</time>
      </trkpt>
      <trkpt lat="42.95272350311279" lon="1.2985002994537354">
        <ele>814.1118436642373</ele>
        <time>2021-07-14T20:44:56.053Z</time>
      </trkpt>
      <trkpt lat="42.95255184173584" lon="1.2983500957489014">
        <ele>812.9495754934034</ele>
        <time>2021-07-14T20:45:01.947Z</time>
      </trkpt>
      <trkpt lat="42.95246601104736" lon="1.298307180404663">
        <ele>811.9636968017803</ele>
        <time>2021-07-14T20:45:07.842Z</time>
      </trkpt>
      <trkpt lat="42.95228362083435" lon="1.298307180404663">
        <ele>810.976478640172</ele>
        <time>2021-07-14T20:45:13.740Z</time>
      </trkpt>
      <trkpt lat="42.9521119594574" lon="1.2984895706176758">
        <ele>810.2306354729947</ele>
        <time>2021-07-14T20:45:19.642Z</time>
      </trkpt>
      <trkpt lat="42.95197248458862" lon="1.2986934185028076">
        <ele>809.534609857446</ele>
        <time>2021-07-14T20:45:25.547Z</time>
      </trkpt>
      <trkpt lat="42.951650619506836" lon="1.2989938259124756">
        <ele>808.6461200259694</ele>
        <time>2021-07-14T20:45:31.458Z</time>
      </trkpt>
      <trkpt lat="42.9516077041626" lon="1.298983097076416">
        <ele>807.9170776988902</ele>
        <time>2021-07-14T20:45:37.370Z</time>
      </trkpt>
      <trkpt lat="42.95157560147345" lon="1.2989401817321777">
        <ele>807.2285760958332</ele>
        <time>2021-07-14T20:45:43.283Z</time>
      </trkpt>
      <trkpt lat="42.9515540599823" lon="1.2988650798797607">
        <ele>806.5776983146254</ele>
        <time>2021-07-14T20:45:49.197Z</time>
      </trkpt>
      <trkpt lat="42.95159697532654" lon="1.2987685203552246">
        <ele>805.9653718730602</ele>
        <time>2021-07-14T20:45:55.112Z</time>
      </trkpt>
      <trkpt lat="42.95188665390015" lon="1.2985432147979736">
        <ele>805.4923461006539</ele>
        <time>2021-07-14T20:46:01.032Z</time>
      </trkpt>
      <trkpt lat="42.95213341712952" lon="1.2980926036834717">
        <ele>804.6294358789874</ele>
        <time>2021-07-14T20:46:06.959Z</time>
      </trkpt>
      <trkpt lat="42.95255184173584" lon="1.2979423999786377">
        <ele>804.3171103078178</ele>
        <time>2021-07-14T20:46:12.893Z</time>
      </trkpt>
      <trkpt lat="42.95259475708008" lon="1.297835111618042">
        <ele>803.7882561861443</ele>
        <time>2021-07-14T20:46:18.828Z</time>
      </trkpt>
      <trkpt lat="42.95257329940796" lon="1.297760009765625">
        <ele>803.2276805638875</ele>
        <time>2021-07-14T20:46:24.764Z</time>
      </trkpt>
      <trkpt lat="42.95227289199829" lon="1.2975025177001953">
        <ele>802.3159028534465</ele>
        <time>2021-07-14T20:46:30.706Z</time>
      </trkpt>
      <trkpt lat="42.952197790145874" lon="1.2973523139953613">
        <ele>801.7184486501621</ele>
        <time>2021-07-14T20:46:36.650Z</time>
      </trkpt>
      <trkpt lat="42.952144145965576" lon="1.2969446182250977">
        <ele>801.1982624419302</ele>
        <time>2021-07-14T20:46:42.599Z</time>
      </trkpt>
      <trkpt lat="42.952144145965576" lon="1.296762228012085">
        <ele>800.7567359812325</ele>
        <time>2021-07-14T20:46:48.550Z</time>
      </trkpt>
      <trkpt lat="42.95222997665405" lon="1.2963652610778809">
        <ele>800.4691900564145</ele>
        <time>2021-07-14T20:46:54.506Z</time>
      </trkpt>
      <trkpt lat="42.95222997665405" lon="1.2961721420288086">
        <ele>800.0840423925563</ele>
        <time>2021-07-14T20:47:00.464Z</time>
      </trkpt>
      <trkpt lat="42.952144145965576" lon="1.2958288192749023">
        <ele>799.5858596353605</ele>
        <time>2021-07-14T20:47:06.427Z</time>
      </trkpt>
      <trkpt lat="42.9521119594574" lon="1.29563570022583">
        <ele>799.0113949358129</ele>
        <time>2021-07-14T20:47:12.392Z</time>
      </trkpt>
      <trkpt lat="42.95212268829346" lon="1.2955176830291748">
        <ele>798.4448263262714</ele>
        <time>2021-07-14T20:47:18.358Z</time>
      </trkpt>
      <trkpt lat="42.952176332473755" lon="1.2953674793243408">
        <ele>797.856596279536</ele>
        <time>2021-07-14T20:47:24.326Z</time>
      </trkpt>
      <trkpt lat="42.95231580734253" lon="1.2951314449310303">
        <ele>797.2835439667954</ele>
        <time>2021-07-14T20:47:30.298Z</time>
      </trkpt>
      <trkpt lat="42.95238018035889" lon="1.2949490547180176">
        <ele>796.6423163484508</ele>
        <time>2021-07-14T20:47:36.272Z</time>
      </trkpt>
      <trkpt lat="42.952412366867065" lon="1.2947559356689453">
        <ele>795.9893866677787</ele>
        <time>2021-07-14T20:47:42.248Z</time>
      </trkpt>
      <trkpt lat="42.952412366867065" lon="1.2945735454559326">
        <ele>795.1665909367223</ele>
        <time>2021-07-14T20:47:48.227Z</time>
      </trkpt>
      <trkpt lat="42.95234799385071" lon="1.294187307357788">
        <ele>794.1410119865011</ele>
        <time>2021-07-14T20:47:54.210Z</time>
      </trkpt>
      <trkpt lat="42.952208518981934" lon="1.2938761711120605">
        <ele>792.9665285363832</ele>
        <time>2021-07-14T20:48:00.198Z</time>
      </trkpt>
      <trkpt lat="42.952197790145874" lon="1.2935757637023926">
        <ele>792.002930976106</ele>
        <time>2021-07-14T20:48:06.189Z</time>
      </trkpt>
      <trkpt lat="42.952401638031006" lon="1.2930715084075928">
        <ele>791.0205202122186</ele>
        <time>2021-07-14T20:48:12.187Z</time>
      </trkpt>
      <trkpt lat="42.95259475708008" lon="1.2928462028503418">
        <ele>789.7039115825885</ele>
        <time>2021-07-14T20:48:18.189Z</time>
      </trkpt>
      <trkpt lat="42.9529595375061" lon="1.292341947555542">
        <ele>787.9844509149235</ele>
        <time>2021-07-14T20:48:24.199Z</time>
      </trkpt>
      <trkpt lat="42.953206300735474" lon="1.2920737266540527">
        <ele>786.6002493823943</ele>
        <time>2021-07-14T20:48:30.214Z</time>
      </trkpt>
      <trkpt lat="42.953431606292725" lon="1.29189133644104">
        <ele>785.387440842222</ele>
        <time>2021-07-14T20:48:36.233Z</time>
      </trkpt>
      <trkpt lat="42.95352816581726" lon="1.2917304039001465">
        <ele>783.8301161734753</ele>
        <time>2021-07-14T20:48:42.255Z</time>
      </trkpt>
      <trkpt lat="42.95352816581726" lon="1.2915480136871338">
        <ele>782.0174353563648</ele>
        <time>2021-07-14T20:48:48.279Z</time>
      </trkpt>
      <trkpt lat="42.95347452163696" lon="1.291193962097168">
        <ele>779.8929159571493</ele>
        <time>2021-07-14T20:48:54.307Z</time>
      </trkpt>
      <trkpt lat="42.95350670814514" lon="1.2910008430480957">
        <ele>777.9990821865562</ele>
        <time>2021-07-14T20:49:00.338Z</time>
      </trkpt>
      <trkpt lat="42.953699827194214" lon="1.2906575202941895">
        <ele>776.4279228356829</ele>
        <time>2021-07-14T20:49:06.374Z</time>
      </trkpt>
      <trkpt lat="42.95372128486633" lon="1.290518045425415">
        <ele>774.5824936346472</ele>
        <time>2021-07-14T20:49:12.411Z</time>
      </trkpt>
      <trkpt lat="42.953667640686035" lon="1.2903034687042236">
        <ele>772.5567975745058</ele>
        <time>2021-07-14T20:49:18.451Z</time>
      </trkpt>
      <trkpt lat="42.95352816581726" lon="1.2900781631469727">
        <ele>770.2355534988392</ele>
        <time>2021-07-14T20:49:24.495Z</time>
      </trkpt>
      <trkpt lat="42.953399419784546" lon="1.2897992134094238">
        <ele>767.959874722832</ele>
        <time>2021-07-14T20:49:30.542Z</time>
      </trkpt>
      <trkpt lat="42.95337796211243" lon="1.2891876697540283">
        <ele>765.9635369619384</ele>
        <time>2021-07-14T20:49:36.597Z</time>
      </trkpt>
      <trkpt lat="42.95327067375183" lon="1.2888014316558838">
        <ele>763.6266336763183</ele>
        <time>2021-07-14T20:49:42.656Z</time>
      </trkpt>
      <trkpt lat="42.95324921607971" lon="1.288468837738037">
        <ele>761.4138606044602</ele>
        <time>2021-07-14T20:49:48.719Z</time>
      </trkpt>
      <trkpt lat="42.95329213142395" lon="1.2880825996398926">
        <ele>759.2536295082195</ele>
        <time>2021-07-14T20:49:54.787Z</time>
      </trkpt>
      <trkpt lat="42.95329221524298" lon="1.2880825996398926">
        <ele>757.2056998431643</ele>
        <time>2021-07-14T20:50:00.855Z</time>
      </trkpt>
      <trkpt lat="42.95334577560425" lon="1.287750005722046">
        <ele>755.0978449421389</ele>
        <time>2021-07-14T20:50:06.927Z</time>
      </trkpt>
      <trkpt lat="42.95328140258789" lon="1.2875032424926758">
        <ele>752.8648482661722</ele>
        <time>2021-07-14T20:50:13.002Z</time>
      </trkpt>
      <trkpt lat="42.95305609703064" lon="1.286923885345459">
        <ele>750.4276406469548</ele>
        <time>2021-07-14T20:50:19.085Z</time>
      </trkpt>
      <trkpt lat="42.952927350997925" lon="1.2864625453948975">
        <ele>748.4426437365044</ele>
        <time>2021-07-14T20:50:25.174Z</time>
      </trkpt>
      <trkpt lat="42.95289524830878" lon="1.2861835956573486">
        <ele>746.5285337922307</ele>
        <time>2021-07-14T20:50:31.266Z</time>
      </trkpt>
      <trkpt lat="42.952905893325806" lon="1.2860333919525146">
        <ele>744.647797740403</ele>
        <time>2021-07-14T20:50:37.360Z</time>
      </trkpt>
      <trkpt lat="42.95292743481696" lon="1.285926103591919">
        <ele>742.7816679243364</ele>
        <time>2021-07-14T20:50:43.455Z</time>
      </trkpt>
      <trkpt lat="42.95299172401428" lon="1.285851001739502">
        <ele>740.994246145409</ele>
        <time>2021-07-14T20:50:49.551Z</time>
      </trkpt>
      <trkpt lat="42.9530668258667" lon="1.2858080863952637">
        <ele>739.2392493916909</ele>
        <time>2021-07-14T20:50:55.649Z</time>
      </trkpt>
      <trkpt lat="42.9534637928009" lon="1.2856578826904297">
        <ele>737.6642992474744</ele>
        <time>2021-07-14T20:51:01.753Z</time>
      </trkpt>
      <trkpt lat="42.95349597930908" lon="1.2856042385101318">
        <ele>735.9116858387276</ele>
        <time>2021-07-14T20:51:07.858Z</time>
      </trkpt>
      <trkpt lat="42.95349597930908" lon="1.2855613231658936">
        <ele>734.1493351928847</ele>
        <time>2021-07-14T20:51:13.963Z</time>
      </trkpt>
      <trkpt lat="42.95347452163696" lon="1.2855076789855957">
        <ele>732.3665009119088</ele>
        <time>2021-07-14T20:51:20.069Z</time>
      </trkpt>
      <trkpt lat="42.953442418947816" lon="1.2854862213134766">
        <ele>730.6250943492897</ele>
        <time>2021-07-14T20:51:26.176Z</time>
      </trkpt>
      <trkpt lat="42.953174114227295" lon="1.2856042385101318">
        <ele>728.8897424302205</ele>
        <time>2021-07-14T20:51:32.287Z</time>
      </trkpt>
      <trkpt lat="42.95302391052246" lon="1.285625696182251">
        <ele>727.1311497678128</ele>
        <time>2021-07-14T20:51:38.401Z</time>
      </trkpt>
      <trkpt lat="42.95271277427673" lon="1.2856149673461914">
        <ele>725.2516812158583</ele>
        <time>2021-07-14T20:51:44.520Z</time>
      </trkpt>
      <trkpt lat="42.952433824539185" lon="1.2856793403625488">
        <ele>723.3901808996872</ele>
        <time>2021-07-14T20:51:50.643Z</time>
      </trkpt>
      <trkpt lat="42.952176332473755" lon="1.285797357559204">
        <ele>721.2643800193787</ele>
        <time>2021-07-14T20:51:56.771Z</time>
      </trkpt>
      <trkpt lat="42.95212268829346" lon="1.285775899887085">
        <ele>719.5238877803354</ele>
        <time>2021-07-14T20:52:02.899Z</time>
      </trkpt>
      <trkpt lat="42.9521119594574" lon="1.2857115268707275">
        <ele>717.8997302821912</ele>
        <time>2021-07-14T20:52:09.028Z</time>
      </trkpt>
      <trkpt lat="42.95213341712952" lon="1.2856471538543701">
        <ele>716.3642315937313</ele>
        <time>2021-07-14T20:52:15.158Z</time>
      </trkpt>
      <trkpt lat="42.95238026417792" lon="1.2854111194610596">
        <ele>715.2459168277932</ele>
        <time>2021-07-14T20:52:21.293Z</time>
      </trkpt>
      <trkpt lat="42.952648401260376" lon="1.2851643562316895">
        <ele>713.6358411568045</ele>
        <time>2021-07-14T20:52:27.433Z</time>
      </trkpt>
      <trkpt lat="42.95303463935852" lon="1.284928321838379">
        <ele>712.0655209000564</ele>
        <time>2021-07-14T20:52:33.580Z</time>
      </trkpt>
      <trkpt lat="42.95310974121094" lon="1.2847459316253662">
        <ele>710.4173941511594</ele>
        <time>2021-07-14T20:52:39.729Z</time>
      </trkpt>
      <trkpt lat="42.953152656555176" lon="1.284627914428711">
        <ele>708.7945028794313</ele>
        <time>2021-07-14T20:52:45.880Z</time>
      </trkpt>
      <trkpt lat="42.953206300735474" lon="1.2841236591339111">
        <ele>706.7464824123099</ele>
        <time>2021-07-14T20:52:52.037Z</time>
      </trkpt>
      <trkpt lat="42.953195571899414" lon="1.2839627265930176">
        <ele>705.0688327942617</ele>
        <time>2021-07-14T20:52:58.196Z</time>
      </trkpt>
      <trkpt lat="42.953163385391235" lon="1.2838125228881836">
        <ele>703.3767980437624</ele>
        <time>2021-07-14T20:53:04.357Z</time>
      </trkpt>
      <trkpt lat="42.953163385391235" lon="1.2836623191833496">
        <ele>701.8137674488912</ele>
        <time>2021-07-14T20:53:10.519Z</time>
      </trkpt>
      <trkpt lat="42.953195571899414" lon="1.2834477424621582">
        <ele>700.2744739984502</ele>
        <time>2021-07-14T20:53:16.684Z</time>
      </trkpt>
      <trkpt lat="42.95324921607971" lon="1.283254623413086">
        <ele>698.7954826116209</ele>
        <time>2021-07-14T20:53:22.851Z</time>
      </trkpt>
      <trkpt lat="42.953388690948486" lon="1.2829434871673584">
        <ele>697.4073152727842</ele>
        <time>2021-07-14T20:53:29.023Z</time>
      </trkpt>
      <trkpt lat="42.95348525047302" lon="1.2828147411346436">
        <ele>695.9412622389591</ele>
        <time>2021-07-14T20:53:35.197Z</time>
      </trkpt>
      <trkpt lat="42.95359253883362" lon="1.282728910446167">
        <ele>694.4993074645728</ele>
        <time>2021-07-14T20:53:41.373Z</time>
      </trkpt>
      <trkpt lat="42.95374274253845" lon="1.2826859951019287">
        <ele>693.1701810772141</ele>
        <time>2021-07-14T20:53:47.551Z</time>
      </trkpt>
      <trkpt lat="42.953903675079346" lon="1.282728910446167">
        <ele>691.9218423713262</ele>
        <time>2021-07-14T20:53:53.732Z</time>
      </trkpt>
      <trkpt lat="42.953957319259644" lon="1.2827074527740479">
        <ele>690.5347714806547</ele>
        <time>2021-07-14T20:53:59.914Z</time>
      </trkpt>
      <trkpt lat="42.95397877693176" lon="1.28265380859375">
        <ele>689.0943768630057</ele>
        <time>2021-07-14T20:54:06.096Z</time>
      </trkpt>
      <trkpt lat="42.95397877693176" lon="1.2825894355773926">
        <ele>687.6290726782054</ele>
        <time>2021-07-14T20:54:12.279Z</time>
      </trkpt>
      <trkpt lat="42.953935861587524" lon="1.2825357913970947">
        <ele>686.1800087741356</ele>
        <time>2021-07-14T20:54:18.463Z</time>
      </trkpt>
      <trkpt lat="42.95381784439087" lon="1.2824928760528564">
        <ele>684.7427199362708</ele>
        <time>2021-07-14T20:54:24.649Z</time>
      </trkpt>
      <trkpt lat="42.95361399650574" lon="1.2824499607086182">
        <ele>683.2553652762522</ele>
        <time>2021-07-14T20:54:30.838Z</time>
      </trkpt>
      <trkpt lat="42.953431606292725" lon="1.2824499607086182">
        <ele>681.827638546358</ele>
        <time>2021-07-14T20:54:37.030Z</time>
      </trkpt>
      <trkpt lat="42.95278787612915" lon="1.2826323509216309">
        <ele>679.9029424823107</ele>
        <time>2021-07-14T20:54:43.233Z</time>
      </trkpt>
      <trkpt lat="42.952659130096436" lon="1.2827074527740479">
        <ele>678.5054763707212</ele>
        <time>2021-07-14T20:54:49.438Z</time>
      </trkpt>
      <trkpt lat="42.95258402824402" lon="1.2828254699707031">
        <ele>677.1600567362154</ele>
        <time>2021-07-14T20:54:55.645Z</time>
      </trkpt>
      <trkpt lat="42.95255184173584" lon="1.282975673675537">
        <ele>675.927525661378</ele>
        <time>2021-07-14T20:55:01.854Z</time>
      </trkpt>
      <trkpt lat="42.95253038406372" lon="1.2834692001342773">
        <ele>675.0069835117504</ele>
        <time>2021-07-14T20:55:08.069Z</time>
      </trkpt>
      <trkpt lat="42.95248746871948" lon="1.2835979461669922">
        <ele>673.8491107546596</ele>
        <time>2021-07-14T20:55:14.285Z</time>
      </trkpt>
      <trkpt lat="42.952412366867065" lon="1.28365159034729">
        <ele>672.6157469982504</ele>
        <time>2021-07-14T20:55:20.503Z</time>
      </trkpt>
      <trkpt lat="42.95232653617859" lon="1.2836623191833496">
        <ele>671.3888380167666</ele>
        <time>2021-07-14T20:55:26.722Z</time>
      </trkpt>
      <trkpt lat="42.95196175575256" lon="1.2836086750030518">
        <ele>669.96137567424</ele>
        <time>2021-07-14T20:55:32.947Z</time>
      </trkpt>
      <trkpt lat="42.9516077041626" lon="1.2835872173309326">
        <ele>668.4306232814968</ele>
        <time>2021-07-14T20:55:39.177Z</time>
      </trkpt>
      <trkpt lat="42.95151114463806" lon="1.2835979461669922">
        <ele>667.1058293126963</ele>
        <time>2021-07-14T20:55:45.409Z</time>
      </trkpt>
      <trkpt lat="42.951436042785645" lon="1.28365159034729">
        <ele>665.8378316748601</ele>
        <time>2021-07-14T20:55:51.642Z</time>
      </trkpt>
      <trkpt lat="42.95138239860535" lon="1.2837159633636475">
        <ele>664.6079610779091</ele>
        <time>2021-07-14T20:55:57.877Z</time>
      </trkpt>
      <trkpt lat="42.95136094093323" lon="1.283801794052124">
        <ele>663.4297407101722</ele>
        <time>2021-07-14T20:56:04.113Z</time>
      </trkpt>
      <trkpt lat="42.95132875442505" lon="1.2838554382324219">
        <ele>662.1795720831597</ele>
        <time>2021-07-14T20:56:10.349Z</time>
      </trkpt>
      <trkpt lat="42.95127511024475" lon="1.2838661670684814">
        <ele>660.8387020910588</ele>
        <time>2021-07-14T20:56:16.586Z</time>
      </trkpt>
      <trkpt lat="42.95124292373657" lon="1.2838339805603027">
        <ele>659.4853537899085</ele>
        <time>2021-07-14T20:56:22.824Z</time>
      </trkpt>
      <trkpt lat="42.95123219490051" lon="1.2836945056915283">
        <ele>658.0310210994273</ele>
        <time>2021-07-14T20:56:29.064Z</time>
      </trkpt>
      <trkpt lat="42.95130729675293" lon="1.2835121154785156">
        <ele>656.605504331234</ele>
        <time>2021-07-14T20:56:35.306Z</time>
      </trkpt>
      <trkpt lat="42.951425313949585" lon="1.2833940982818604">
        <ele>655.2311849405367</ele>
        <time>2021-07-14T20:56:41.550Z</time>
      </trkpt>
      <trkpt lat="42.951650619506836" lon="1.2833082675933838">
        <ele>653.9955025392709</ele>
        <time>2021-07-14T20:56:47.798Z</time>
      </trkpt>
      <trkpt lat="42.95198321342468" lon="1.283276081085205">
        <ele>652.77936608563</ele>
        <time>2021-07-14T20:56:54.051Z</time>
      </trkpt>
      <trkpt lat="42.95204758644104" lon="1.2832331657409668">
        <ele>651.2836683004002</ele>
        <time>2021-07-14T20:57:00.306Z</time>
      </trkpt>
      <trkpt lat="42.95209050178528" lon="1.2831580638885498">
        <ele>649.7194218851778</ele>
        <time>2021-07-14T20:57:06.562Z</time>
      </trkpt>
      <trkpt lat="42.95210123062134" lon="1.283050775527954">
        <ele>648.0413815369127</ele>
        <time>2021-07-14T20:57:12.819Z</time>
      </trkpt>
      <trkpt lat="42.95204758644104" lon="1.282503604888916">
        <ele>645.8518747028199</ele>
        <time>2021-07-14T20:57:19.082Z</time>
      </trkpt>
      <trkpt lat="42.9520583152771" lon="1.2823212146759033">
        <ele>644.0618123014956</ele>
        <time>2021-07-14T20:57:25.348Z</time>
      </trkpt>
      <trkpt lat="42.95224070549011" lon="1.2817955017089844">
        <ele>642.1293247453245</ele>
        <time>2021-07-14T20:57:31.620Z</time>
      </trkpt>
      <trkpt lat="42.95253038406372" lon="1.2812912464141846">
        <ele>640.3514631929752</ele>
        <time>2021-07-14T20:57:37.900Z</time>
      </trkpt>
      <trkpt lat="42.952680587768555" lon="1.2811517715454102">
        <ele>638.5024262581564</ele>
        <time>2021-07-14T20:57:44.183Z</time>
      </trkpt>
      <trkpt lat="42.95276641845703" lon="1.2811517715454102">
        <ele>636.796927467174</ele>
        <time>2021-07-14T20:57:50.467Z</time>
      </trkpt>
      <trkpt lat="42.952927350997925" lon="1.2812483310699463">
        <ele>635.2875056774166</ele>
        <time>2021-07-14T20:57:56.754Z</time>
      </trkpt>
      <trkpt lat="42.95309901237488" lon="1.281280517578125">
        <ele>633.5832573460317</ele>
        <time>2021-07-14T20:58:03.044Z</time>
      </trkpt>
      <trkpt lat="42.953163385391235" lon="1.2812376022338867">
        <ele>631.7014485441707</ele>
        <time>2021-07-14T20:58:09.335Z</time>
      </trkpt>
      <trkpt lat="42.953184843063354" lon="1.2811839580535889">
        <ele>629.7525375040502</ele>
        <time>2021-07-14T20:58:15.627Z</time>
      </trkpt>
      <trkpt lat="42.953206300735474" lon="1.2810444831848145">
        <ele>627.6957292371217</ele>
        <time>2021-07-14T20:58:21.920Z</time>
      </trkpt>
      <trkpt lat="42.95310974121094" lon="1.2807655334472656">
        <ele>625.4206080487153</ele>
        <time>2021-07-14T20:58:28.217Z</time>
      </trkpt>
      <trkpt lat="42.9529595375061" lon="1.2802398204803467">
        <ele>622.8605228435731</ele>
        <time>2021-07-14T20:58:34.521Z</time>
      </trkpt>
      <trkpt lat="42.952927350997925" lon="1.2799930572509766">
        <ele>620.7971456696746</ele>
        <time>2021-07-14T20:58:40.828Z</time>
      </trkpt>
      <trkpt lat="42.952916622161865" lon="1.2797999382019043">
        <ele>618.7808900740081</ele>
        <time>2021-07-14T20:58:47.137Z</time>
      </trkpt>
      <trkpt lat="42.952948808670044" lon="1.279585361480713">
        <ele>616.8042117920459</ele>
        <time>2021-07-14T20:58:53.448Z</time>
      </trkpt>
      <trkpt lat="42.95313119888306" lon="1.2790274620056152">
        <ele>614.7747103873935</ele>
        <time>2021-07-14T20:58:59.767Z</time>
      </trkpt>
      <trkpt lat="42.95323848724365" lon="1.2785553932189941">
        <ele>612.868263461291</ele>
        <time>2021-07-14T20:59:06.091Z</time>
      </trkpt>
      <trkpt lat="42.95335650444031" lon="1.2778043746948242">
        <ele>610.904770605906</ele>
        <time>2021-07-14T20:59:12.424Z</time>
      </trkpt>
      <trkpt lat="42.953442335128784" lon="1.2775468826293945">
        <ele>608.9517459229417</ele>
        <time>2021-07-14T20:59:18.761Z</time>
      </trkpt>
      <trkpt lat="42.954161167144775" lon="1.276237964630127">
        <ele>607.0139408737731</ele>
        <time>2021-07-14T20:59:25.117Z</time>
      </trkpt>
      <trkpt lat="42.9544723033905" lon="1.2759697437286377">
        <ele>605.3163295076607</ele>
        <time>2021-07-14T20:59:31.479Z</time>
      </trkpt>
      <trkpt lat="42.95453667640686" lon="1.2758839130401611">
        <ele>603.6124537625371</ele>
        <time>2021-07-14T20:59:37.842Z</time>
      </trkpt>
      <trkpt lat="42.9546332359314" lon="1.275465488433838">
        <ele>601.7244936647699</ele>
        <time>2021-07-14T20:59:44.210Z</time>
      </trkpt>
      <trkpt lat="42.9550838470459" lon="1.2743926048278809">
        <ele>599.8271027409893</ele>
        <time>2021-07-14T20:59:50.593Z</time>
      </trkpt>
      <trkpt lat="42.955148220062256" lon="1.2743175029754639">
        <ele>598.3245184441282</ele>
        <time>2021-07-14T20:59:56.977Z</time>
      </trkpt>
      <trkpt lat="42.95514830388129" lon="1.2743175029754639">
        <ele>596.8816587428112</ele>
        <time>2021-07-14T21:00:03.361Z</time>
      </trkpt>
      <trkpt lat="42.955641746520996" lon="1.273716688156128">
        <ele>595.5850379134042</ele>
        <time>2021-07-14T21:00:09.756Z</time>
      </trkpt>
      <trkpt lat="42.955888509750366" lon="1.2732982635498047">
        <ele>594.1196575735912</ele>
        <time>2021-07-14T21:00:16.157Z</time>
      </trkpt>
      <trkpt lat="42.95607089996338" lon="1.273115873336792">
        <ele>593.0262681960876</ele>
        <time>2021-07-14T21:00:22.562Z</time>
      </trkpt>
      <trkpt lat="42.956199645996094" lon="1.2730085849761963">
        <ele>591.8418358625819</ele>
        <time>2021-07-14T21:00:28.969Z</time>
      </trkpt>
      <trkpt lat="42.956703985109925" lon="1.2727618217468262">
        <ele>590.7217163857024</ele>
        <time>2021-07-14T21:00:35.385Z</time>
      </trkpt>
      <trkpt lat="42.95686483383179" lon="1.2726116180419922">
        <ele>589.5863584735041</ele>
        <time>2021-07-14T21:00:41.804Z</time>
      </trkpt>
      <trkpt lat="42.95697212219238" lon="1.2724506855010986">
        <ele>588.4455206350787</ele>
        <time>2021-07-14T21:00:48.226Z</time>
      </trkpt>
      <trkpt lat="42.95702576637268" lon="1.272289752960205">
        <ele>587.4277323379902</ele>
        <time>2021-07-14T21:00:54.650Z</time>
      </trkpt>
      <trkpt lat="42.95707941055298" lon="1.2717211246490479">
        <ele>586.2678328270761</ele>
        <time>2021-07-14T21:01:01.080Z</time>
      </trkpt>
      <trkpt lat="42.9570472240448" lon="1.2711310386657715">
        <ele>585.477023297703</ele>
        <time>2021-07-14T21:01:07.517Z</time>
      </trkpt>
      <trkpt lat="42.95709013938904" lon="1.2709486484527588">
        <ele>584.7085229393936</ele>
        <time>2021-07-14T21:01:13.957Z</time>
      </trkpt>
      <trkpt lat="42.957444190979004" lon="1.2701547145843506">
        <ele>584.0105441553557</ele>
        <time>2021-07-14T21:01:20.407Z</time>
      </trkpt>
      <trkpt lat="42.95758366584778" lon="1.2697362899780273">
        <ele>583.1778922977749</ele>
        <time>2021-07-14T21:01:26.863Z</time>
      </trkpt>
      <trkpt lat="42.95760520733893" lon="1.2696290016174316">
        <ele>582.5179260415862</ele>
        <time>2021-07-14T21:01:33.320Z</time>
      </trkpt>
      <trkpt lat="42.95762658119202" lon="1.269521713256836">
        <ele>581.8508130845319</ele>
        <time>2021-07-14T21:01:39.778Z</time>
      </trkpt>
      <trkpt lat="42.95761593617499" lon="1.2693822383880615">
        <ele>581.3102042788771</ele>
        <time>2021-07-14T21:01:46.238Z</time>
      </trkpt>
      <trkpt lat="42.95754083432257" lon="1.2691783905029297">
        <ele>581.0898397038102</ele>
        <time>2021-07-14T21:01:52.701Z</time>
      </trkpt>
      <trkpt lat="42.95746564865112" lon="1.2690389156341553">
        <ele>580.8715797912207</ele>
        <time>2021-07-14T21:01:59.166Z</time>
      </trkpt>
      <trkpt lat="42.95745491981506" lon="1.2688994407653809">
        <ele>580.4751128599142</ele>
        <time>2021-07-14T21:02:05.632Z</time>
      </trkpt>
      <trkpt lat="42.95759439468384" lon="1.267998218536377">
        <ele>579.5900635629177</ele>
        <time>2021-07-14T21:02:12.109Z</time>
      </trkpt>
      <trkpt lat="42.9575514793396" lon="1.2671613693237305">
        <ele>579.2804763670899</ele>
        <time>2021-07-14T21:02:18.596Z</time>
      </trkpt>
      <trkpt lat="42.957648038864136" lon="1.2662816047668457">
        <ele>578.3072125280133</ele>
        <time>2021-07-14T21:02:25.094Z</time>
      </trkpt>
      <trkpt lat="42.957690954208374" lon="1.265648603439331">
        <ele>577.7281567404992</ele>
        <time>2021-07-14T21:02:31.599Z</time>
      </trkpt>
      <trkpt lat="42.957669496536255" lon="1.2655413150787354">
        <ele>577.1937743494586</ele>
        <time>2021-07-14T21:02:38.105Z</time>
      </trkpt>
      <trkpt lat="42.95766958035529" lon="1.2655413150787354">
        <ele>576.6207201018406</ele>
        <time>2021-07-14T21:02:44.611Z</time>
      </trkpt>
      <trkpt lat="42.957658767700195" lon="1.265476942062378">
        <ele>576.0583140612337</ele>
        <time>2021-07-14T21:02:51.118Z</time>
      </trkpt>
      <trkpt lat="42.957444190979004" lon="1.264876127243042">
        <ele>575.4385491140536</ele>
        <time>2021-07-14T21:02:57.633Z</time>
      </trkpt>
      <trkpt lat="42.95736908912659" lon="1.2646079063415527">
        <ele>574.7105503422555</ele>
        <time>2021-07-14T21:03:04.151Z</time>
      </trkpt>
      <trkpt lat="42.95734763145447" lon="1.2640714645385742">
        <ele>573.8020088877834</ele>
        <time>2021-07-14T21:03:10.676Z</time>
      </trkpt>
      <trkpt lat="42.95736908912659" lon="1.2639212608337402">
        <ele>573.1105136637766</ele>
        <time>2021-07-14T21:03:17.202Z</time>
      </trkpt>
      <trkpt lat="42.957487190142274" lon="1.2636208534240723">
        <ele>572.375948628426</ele>
        <time>2021-07-14T21:03:23.732Z</time>
      </trkpt>
      <trkpt lat="42.95751929283142" lon="1.2634491920471191">
        <ele>571.7391532488382</ele>
        <time>2021-07-14T21:03:30.265Z</time>
      </trkpt>
      <trkpt lat="42.95751929283142" lon="1.2631916999816895">
        <ele>571.2126591050817</ele>
        <time>2021-07-14T21:03:36.801Z</time>
      </trkpt>
      <trkpt lat="42.957412004470825" lon="1.2628161907196045">
        <ele>570.813933011622</ele>
        <time>2021-07-14T21:03:43.341Z</time>
      </trkpt>
      <trkpt lat="42.95730471611023" lon="1.2625372409820557">
        <ele>570.5799783636646</ele>
        <time>2021-07-14T21:03:49.885Z</time>
      </trkpt>
      <trkpt lat="42.957197427749634" lon="1.2615609169006348">
        <ele>570.3100228861327</ele>
        <time>2021-07-14T21:03:56.441Z</time>
      </trkpt>
      <trkpt lat="42.95720815658569" lon="1.2613677978515625">
        <ele>569.9055177482094</ele>
        <time>2021-07-14T21:04:02.999Z</time>
      </trkpt>
      <trkpt lat="42.95727252960205" lon="1.2610888481140137">
        <ele>569.4986661002824</ele>
        <time>2021-07-14T21:04:09.560Z</time>
      </trkpt>
      <trkpt lat="42.95736908912659" lon="1.2605416774749756">
        <ele>569.076526325582</ele>
        <time>2021-07-14T21:04:16.128Z</time>
      </trkpt>
      <trkpt lat="42.95754075050354" lon="1.2588036060333252">
        <ele>569.0779662411753</ele>
        <time>2021-07-14T21:04:22.717Z</time>
      </trkpt>
      <trkpt lat="42.95754083432257" lon="1.2588036060333252">
        <ele>568.9179777816928</ele>
        <time>2021-07-14T21:04:29.306Z</time>
      </trkpt>
      <trkpt lat="42.9576051235199" lon="1.2585139274597168">
        <ele>568.8875194399309</ele>
        <time>2021-07-14T21:04:35.898Z</time>
      </trkpt>
      <trkpt lat="42.95773386955261" lon="1.2581706047058105">
        <ele>568.773749199878</ele>
        <time>2021-07-14T21:04:42.495Z</time>
      </trkpt>
      <trkpt lat="42.957905530929565" lon="1.257634162902832">
        <ele>568.6059261470773</ele>
        <time>2021-07-14T21:04:49.099Z</time>
      </trkpt>
      <trkpt lat="42.957926988601685" lon="1.2573659420013428">
        <ele>568.5144911353118</ele>
        <time>2021-07-14T21:04:55.706Z</time>
      </trkpt>
      <trkpt lat="42.957916259765625" lon="1.2571406364440918">
        <ele>568.441232401845</ele>
        <time>2021-07-14T21:05:02.315Z</time>
      </trkpt>
      <trkpt lat="42.95785188674927" lon="1.2568938732147217">
        <ele>568.4397131904475</ele>
        <time>2021-07-14T21:05:08.927Z</time>
      </trkpt>
      <trkpt lat="42.957422733306885" lon="1.2563574314117432">
        <ele>568.5808662414701</ele>
        <time>2021-07-14T21:05:15.549Z</time>
      </trkpt>
      <trkpt lat="42.95720815658569" lon="1.2559497356414795">
        <ele>569.0567315180722</ele>
        <time>2021-07-14T21:05:22.177Z</time>
      </trkpt>
      <trkpt lat="42.957143783569336" lon="1.2557673454284668">
        <ele>569.1885635692508</ele>
        <time>2021-07-14T21:05:28.807Z</time>
      </trkpt>
      <trkpt lat="42.957143783569336" lon="1.255584955215454">
        <ele>568.967622514584</ele>
        <time>2021-07-14T21:05:35.439Z</time>
      </trkpt>
      <trkpt lat="42.95720815658569" lon="1.2552416324615479">
        <ele>568.439444365652</ele>
        <time>2021-07-14T21:05:42.075Z</time>
      </trkpt>
      <trkpt lat="42.95726180076599" lon="1.2550592422485352">
        <ele>568.1143894550106</ele>
        <time>2021-07-14T21:05:48.714Z</time>
      </trkpt>
      <trkpt lat="42.95737981796265" lon="1.2549090385437012">
        <ele>567.5890902415283</ele>
        <time>2021-07-14T21:05:55.355Z</time>
      </trkpt>
      <trkpt lat="42.95754075050354" lon="1.2547266483306885">
        <ele>566.8037111643841</ele>
        <time>2021-07-14T21:06:02.000Z</time>
      </trkpt>
      <trkpt lat="42.95758366584778" lon="1.2546086311340332">
        <ele>566.368827843649</ele>
        <time>2021-07-14T21:06:08.646Z</time>
      </trkpt>
      <trkpt lat="42.957637310028076" lon="1.2540507316589355">
        <ele>566.0588878030239</ele>
        <time>2021-07-14T21:06:15.299Z</time>
      </trkpt>
      <trkpt lat="42.957733953371644" lon="1.2535786628723145">
        <ele>565.5866588369689</ele>
        <time>2021-07-14T21:06:21.957Z</time>
      </trkpt>
      <trkpt lat="42.95780897140503" lon="1.2530851364135742">
        <ele>564.973445488725</ele>
        <time>2021-07-14T21:06:28.621Z</time>
      </trkpt>
      <trkpt lat="42.95777678489685" lon="1.2525057792663574">
        <ele>564.3805728273845</ele>
        <time>2021-07-14T21:06:35.292Z</time>
      </trkpt>
      <trkpt lat="42.95776613987982" lon="1.2524092197418213">
        <ele>563.8912840451464</ele>
        <time>2021-07-14T21:06:41.964Z</time>
      </trkpt>
      <trkpt lat="42.95774459838867" lon="1.2522590160369873">
        <ele>563.343838281448</ele>
        <time>2021-07-14T21:06:48.638Z</time>
      </trkpt>
      <trkpt lat="42.957701766863465" lon="1.252216100692749">
        <ele>562.8702116280639</ele>
        <time>2021-07-14T21:06:55.313Z</time>
      </trkpt>
      <trkpt lat="42.957648038864136" lon="1.252140998840332">
        <ele>562.3750907824483</ele>
        <time>2021-07-14T21:07:01.989Z</time>
      </trkpt>
      <trkpt lat="42.956929206848145" lon="1.2517762184143066">
        <ele>562.3284144578672</ele>
        <time>2021-07-14T21:07:08.678Z</time>
      </trkpt>
      <trkpt lat="42.956693172454834" lon="1.251615285873413">
        <ele>561.9012851666283</ele>
        <time>2021-07-14T21:07:15.371Z</time>
      </trkpt>
      <trkpt lat="42.95661807060242" lon="1.25144362449646">
        <ele>561.3221403165257</ele>
        <time>2021-07-14T21:07:22.066Z</time>
      </trkpt>
      <trkpt lat="42.9565966129303" lon="1.2512826919555664">
        <ele>560.6062524361715</ele>
        <time>2021-07-14T21:07:28.763Z</time>
      </trkpt>
      <trkpt lat="42.95678973197937" lon="1.250596046447754">
        <ele>559.6718136753411</ele>
        <time>2021-07-14T21:07:35.469Z</time>
      </trkpt>
      <trkpt lat="42.95684337615967" lon="1.250145435333252">
        <ele>558.8281427396804</ele>
        <time>2021-07-14T21:07:42.180Z</time>
      </trkpt>
      <trkpt lat="42.956907749176025" lon="1.2497484683990479">
        <ele>558.0141434850827</ele>
        <time>2021-07-14T21:07:48.896Z</time>
      </trkpt>
      <trkpt lat="42.956918478012085" lon="1.2491154670715332">
        <ele>557.0263042571167</ele>
        <time>2021-07-14T21:07:55.619Z</time>
      </trkpt>
      <trkpt lat="42.95698285102844" lon="1.2489008903503418">
        <ele>555.8815800026725</ele>
        <time>2021-07-14T21:08:02.345Z</time>
      </trkpt>
      <trkpt lat="42.957186698913574" lon="1.2485790252685547">
        <ele>554.4516568498021</ele>
        <time>2021-07-14T21:08:09.076Z</time>
      </trkpt>
      <trkpt lat="42.95724034309387" lon="1.2484288215637207">
        <ele>553.2652604383835</ele>
        <time>2021-07-14T21:08:15.809Z</time>
      </trkpt>
      <trkpt lat="42.957240426912904" lon="1.2484288215637207">
        <ele>552.1949938586267</ele>
        <time>2021-07-14T21:08:22.542Z</time>
      </trkpt>
      <trkpt lat="42.95728325843811" lon="1.2481391429901123">
        <ele>551.0148106573113</ele>
        <time>2021-07-14T21:08:29.278Z</time>
      </trkpt>
      <trkpt lat="42.957197427749634" lon="1.2476134300231934">
        <ele>550.0965927769903</ele>
        <time>2021-07-14T21:08:36.021Z</time>
      </trkpt>
      <trkpt lat="42.95720815658569" lon="1.2471842765808105">
        <ele>548.9221674738087</ele>
        <time>2021-07-14T21:08:42.769Z</time>
      </trkpt>
      <trkpt lat="42.95729398727417" lon="1.2467765808105469">
        <ele>547.5520065899259</ele>
        <time>2021-07-14T21:08:49.522Z</time>
      </trkpt>
      <trkpt lat="42.957433462142944" lon="1.246325969696045">
        <ele>546.2416513086412</ele>
        <time>2021-07-14T21:08:56.280Z</time>
      </trkpt>
      <trkpt lat="42.957433462142944" lon="1.2462079524993896">
        <ele>545.0802723882548</ele>
        <time>2021-07-14T21:09:03.040Z</time>
      </trkpt>
      <trkpt lat="42.957433545961976" lon="1.2462079524993896">
        <ele>543.9215834270051</ele>
        <time>2021-07-14T21:09:09.800Z</time>
      </trkpt>
      <trkpt lat="42.957433462142944" lon="1.2460577487945557">
        <ele>542.7548103864817</ele>
        <time>2021-07-14T21:09:16.562Z</time>
      </trkpt>
      <trkpt lat="42.95741208828986" lon="1.24595046043396">
        <ele>541.6542354929531</ele>
        <time>2021-07-14T21:09:23.325Z</time>
      </trkpt>
      <trkpt lat="42.95735844410956" lon="1.2456715106964111">
        <ele>540.6713793671536</ele>
        <time>2021-07-14T21:09:30.091Z</time>
      </trkpt>
      <trkpt lat="42.95733690261841" lon="1.245574951171875">
        <ele>539.6257775942322</ele>
        <time>2021-07-14T21:09:36.859Z</time>
      </trkpt>
      <trkpt lat="42.95735836029053" lon="1.2450385093688965">
        <ele>538.4797309824175</ele>
        <time>2021-07-14T21:09:43.633Z</time>
      </trkpt>
      <trkpt lat="42.95737990178168" lon="1.2449097633361816">
        <ele>537.3066307995434</ele>
        <time>2021-07-14T21:09:50.408Z</time>
      </trkpt>
      <trkpt lat="42.95750856399536" lon="1.24420166015625">
        <ele>535.6557539863193</ele>
        <time>2021-07-14T21:09:57.192Z</time>
      </trkpt>
      <trkpt lat="42.95772314071655" lon="1.2436652183532715">
        <ele>534.1931648413247</ele>
        <time>2021-07-14T21:10:03.983Z</time>
      </trkpt>
      <trkpt lat="42.957723224535584" lon="1.2436652183532715">
        <ele>533.1717802048481</ele>
        <time>2021-07-14T21:10:10.774Z</time>
      </trkpt>
      <trkpt lat="42.957905530929565" lon="1.2433111667633057">
        <ele>532.1399310024233</ele>
        <time>2021-07-14T21:10:17.570Z</time>
      </trkpt>
      <trkpt lat="42.95803427696228" lon="1.2429463863372803">
        <ele>531.1668436450041</ele>
        <time>2021-07-14T21:10:24.371Z</time>
      </trkpt>
      <trkpt lat="42.95806646347046" lon="1.2425708770751953">
        <ele>530.2709643115245</ele>
        <time>2021-07-14T21:10:31.176Z</time>
      </trkpt>
      <trkpt lat="42.95802354812622" lon="1.241830587387085">
        <ele>529.589258377039</ele>
        <time>2021-07-14T21:10:37.990Z</time>
      </trkpt>
      <trkpt lat="42.957948446273804" lon="1.2414765357971191">
        <ele>528.9140229746668</ele>
        <time>2021-07-14T21:10:44.808Z</time>
      </trkpt>
      <trkpt lat="42.957937717437744" lon="1.2411975860595703">
        <ele>528.2178473733165</ele>
        <time>2021-07-14T21:10:51.630Z</time>
      </trkpt>
      <trkpt lat="42.957959258928895" lon="1.2410688400268555">
        <ele>527.4825068625175</ele>
        <time>2021-07-14T21:10:58.453Z</time>
      </trkpt>
      <trkpt lat="42.9580557346344" lon="1.2408435344696045">
        <ele>526.6191322111696</ele>
        <time>2021-07-14T21:11:05.279Z</time>
      </trkpt>
      <trkpt lat="42.95812010765076" lon="1.240403652191162">
        <ele>525.8428538893413</ele>
        <time>2021-07-14T21:11:12.111Z</time>
      </trkpt>
      <trkpt lat="42.95808792114258" lon="1.2400174140930176">
        <ele>525.115748201734</ele>
        <time>2021-07-14T21:11:18.947Z</time>
      </trkpt>
      <trkpt lat="42.95804500579834" lon="1.239856481552124">
        <ele>524.4759473968521</ele>
        <time>2021-07-14T21:11:25.785Z</time>
      </trkpt>
      <trkpt lat="42.95795917510986" lon="1.2397277355194092">
        <ele>523.9262350494763</ele>
        <time>2021-07-14T21:11:32.625Z</time>
      </trkpt>
      <trkpt lat="42.957959258928895" lon="1.2397277355194092">
        <ele>523.3687538704431</ele>
        <time>2021-07-14T21:11:39.465Z</time>
      </trkpt>
      <trkpt lat="42.957680225372314" lon="1.2392663955688477">
        <ele>523.1366369498974</ele>
        <time>2021-07-14T21:11:46.312Z</time>
      </trkpt>
      <trkpt lat="42.95758366584778" lon="1.239030361175537">
        <ele>522.6371141674359</ele>
        <time>2021-07-14T21:11:53.162Z</time>
      </trkpt>
      <trkpt lat="42.95754075050354" lon="1.2387514114379883">
        <ele>522.1474982343944</ele>
        <time>2021-07-14T21:12:00.016Z</time>
      </trkpt>
      <trkpt lat="42.95756220817566" lon="1.2384510040283203">
        <ele>521.4208607201167</ele>
        <time>2021-07-14T21:12:06.873Z</time>
      </trkpt>
      <trkpt lat="42.95747637748718" lon="1.237657070159912">
        <ele>521.032886133773</ele>
        <time>2021-07-14T21:12:13.740Z</time>
      </trkpt>
      <trkpt lat="42.95748710632324" lon="1.2374639511108398">
        <ele>520.5030147262132</ele>
        <time>2021-07-14T21:12:20.609Z</time>
      </trkpt>
      <trkpt lat="42.9575514793396" lon="1.2369704246520996">
        <ele>519.7412713398273</ele>
        <time>2021-07-14T21:12:27.484Z</time>
      </trkpt>
      <trkpt lat="42.9575514793396" lon="1.236487627029419">
        <ele>519.0428590518411</ele>
        <time>2021-07-14T21:12:34.365Z</time>
      </trkpt>
      <trkpt lat="42.95731544494629" lon="1.2343955039978027">
        <ele>518.2407218167498</ele>
        <time>2021-07-14T21:12:41.270Z</time>
      </trkpt>
      <trkpt lat="42.957401275634766" lon="1.2338483333587646">
        <ele>517.6125416529836</ele>
        <time>2021-07-14T21:12:48.182Z</time>
      </trkpt>
      <trkpt lat="42.95736908912659" lon="1.2336766719818115">
        <ele>517.0642891898574</ele>
        <time>2021-07-14T21:12:55.096Z</time>
      </trkpt>
      <trkpt lat="42.95727252960205" lon="1.2332797050476074">
        <ele>516.5584118163205</ele>
        <time>2021-07-14T21:13:02.015Z</time>
      </trkpt>
      <trkpt lat="42.9571008682251" lon="1.2327325344085693">
        <ele>516.2616243502838</ele>
        <time>2021-07-14T21:13:08.941Z</time>
      </trkpt>
      <trkpt lat="42.9570472240448" lon="1.2324857711791992">
        <ele>515.7560024450363</ele>
        <time>2021-07-14T21:13:15.870Z</time>
      </trkpt>
      <trkpt lat="42.95704730786383" lon="1.2324857711791992">
        <ele>515.2379379907208</ele>
        <time>2021-07-14T21:13:22.799Z</time>
      </trkpt>
      <trkpt lat="42.95705795288086" lon="1.2323462963104248">
        <ele>514.6346856361445</ele>
        <time>2021-07-14T21:13:29.730Z</time>
      </trkpt>
      <trkpt lat="42.95707941055298" lon="1.2322282791137695">
        <ele>514.0495208657308</ele>
        <time>2021-07-14T21:13:36.662Z</time>
      </trkpt>
      <trkpt lat="42.95756220817566" lon="1.231541633605957">
        <ele>512.9774993086041</ele>
        <time>2021-07-14T21:13:43.605Z</time>
      </trkpt>
      <trkpt lat="42.95759439468384" lon="1.2314343452453613">
        <ele>512.4367143921531</ele>
        <time>2021-07-14T21:13:50.550Z</time>
      </trkpt>
      <trkpt lat="42.95762658119202" lon="1.2312626838684082">
        <ele>511.9080714193943</ele>
        <time>2021-07-14T21:13:57.497Z</time>
      </trkpt>
      <trkpt lat="42.95753010548651" lon="1.230318546295166">
        <ele>511.59167644811316</ele>
        <time>2021-07-14T21:14:04.455Z</time>
      </trkpt>
      <trkpt lat="42.957455003634095" lon="1.229546070098877">
        <ele>511.1558602430838</ele>
        <time>2021-07-14T21:14:11.422Z</time>
      </trkpt>
      <trkpt lat="42.957422733306885" lon="1.2290525436401367">
        <ele>510.599495351468</ele>
        <time>2021-07-14T21:14:18.395Z</time>
      </trkpt>
      <trkpt lat="42.957401275634766" lon="1.2289667129516602">
        <ele>510.0266524986123</ele>
        <time>2021-07-14T21:14:25.369Z</time>
      </trkpt>
      <trkpt lat="42.95733698643744" lon="1.228870153427124">
        <ele>509.44459632289954</ele>
        <time>2021-07-14T21:14:32.345Z</time>
      </trkpt>
      <trkpt lat="42.95730471611023" lon="1.2287843227386475">
        <ele>508.8379377968778</ele>
        <time>2021-07-14T21:14:39.322Z</time>
      </trkpt>
      <trkpt lat="42.95730479992926" lon="1.2287843227386475">
        <ele>508.1545696202166</ele>
        <time>2021-07-14T21:14:46.299Z</time>
      </trkpt>
      <trkpt lat="42.957175970077515" lon="1.2284624576568604">
        <ele>507.57157568772</ele>
        <time>2021-07-14T21:14:53.280Z</time>
      </trkpt>
      <trkpt lat="42.957176053896546" lon="1.2284624576568604">
        <ele>506.8086857353554</ele>
        <time>2021-07-14T21:15:00.261Z</time>
      </trkpt>
      <trkpt lat="42.95711159706116" lon="1.228044033050537">
        <ele>505.8786460855267</ele>
        <time>2021-07-14T21:15:07.247Z</time>
      </trkpt>
      <trkpt lat="42.95705795288086" lon="1.2278509140014648">
        <ele>504.90964487242</ele>
        <time>2021-07-14T21:15:14.235Z</time>
      </trkpt>
      <trkpt lat="42.95662879943848" lon="1.2269926071166992">
        <ele>503.7107264532535</ele>
        <time>2021-07-14T21:15:21.236Z</time>
      </trkpt>
      <trkpt lat="42.95655369758606" lon="1.226820945739746">
        <ele>502.79299231808454</ele>
        <time>2021-07-14T21:15:28.239Z</time>
      </trkpt>
      <trkpt lat="42.95653223991394" lon="1.2266385555267334">
        <ele>501.8302795464534</ele>
        <time>2021-07-14T21:15:35.244Z</time>
      </trkpt>
      <trkpt lat="42.95654296875" lon="1.2264883518218994">
        <ele>500.8448546305625</ele>
        <time>2021-07-14T21:15:42.251Z</time>
      </trkpt>
      <trkpt lat="42.95686491765082" lon="1.2252545356750488">
        <ele>499.4811041256668</ele>
        <time>2021-07-14T21:15:49.273Z</time>
      </trkpt>
      <trkpt lat="42.956950748339295" lon="1.2249970436096191">
        <ele>498.4149593729192</ele>
        <time>2021-07-14T21:15:56.299Z</time>
      </trkpt>
      <trkpt lat="42.95703649520874" lon="1.2246215343475342">
        <ele>497.3282928684142</ele>
        <time>2021-07-14T21:16:03.329Z</time>
      </trkpt>
      <trkpt lat="42.957197427749634" lon="1.2236130237579346">
        <ele>496.161763410503</ele>
        <time>2021-07-14T21:16:10.371Z</time>
      </trkpt>
      <trkpt lat="42.957197511568666" lon="1.2236130237579346">
        <ele>495.08641094179075</ele>
        <time>2021-07-14T21:16:17.413Z</time>
      </trkpt>
      <trkpt lat="42.95722961425781" lon="1.2234628200531006">
        <ele>494.0467698461342</ele>
        <time>2021-07-14T21:16:24.457Z</time>
      </trkpt>
      <trkpt lat="42.95725107192993" lon="1.2231087684631348">
        <ele>492.9543623475804</ele>
        <time>2021-07-14T21:16:31.505Z</time>
      </trkpt>
      <trkpt lat="42.957154512405396" lon="1.2220251560211182">
        <ele>491.831774366534</ele>
        <time>2021-07-14T21:16:38.566Z</time>
      </trkpt>
      <trkpt lat="42.95709013938904" lon="1.2218105792999268">
        <ele>490.65346479170813</ele>
        <time>2021-07-14T21:16:45.630Z</time>
      </trkpt>
      <trkpt lat="42.95682191848755" lon="1.2210917472839355">
        <ele>489.4730343512632</ele>
        <time>2021-07-14T21:16:52.703Z</time>
      </trkpt>
      <trkpt lat="42.95678973197937" lon="1.220930814743042">
        <ele>488.31453762043844</ele>
        <time>2021-07-14T21:16:59.778Z</time>
      </trkpt>
      <trkpt lat="42.95674681663513" lon="1.2195789813995361">
        <ele>487.10301670488366</ele>
        <time>2021-07-14T21:17:06.869Z</time>
      </trkpt>
      <trkpt lat="42.956650257110596" lon="1.2176477909088135">
        <ele>486.2117249278532</ele>
        <time>2021-07-14T21:17:13.983Z</time>
      </trkpt>
      <trkpt lat="42.9565966129303" lon="1.2169075012207031">
        <ele>484.80671933963504</ele>
        <time>2021-07-14T21:17:21.106Z</time>
      </trkpt>
      <trkpt lat="42.95655369758606" lon="1.2158024311065674">
        <ele>483.68550513052907</ele>
        <time>2021-07-14T21:17:28.242Z</time>
      </trkpt>
      <trkpt lat="42.95652151107788" lon="1.2154912948608398">
        <ele>482.7451963222928</ele>
        <time>2021-07-14T21:17:35.381Z</time>
      </trkpt>
      <trkpt lat="42.95645713806152" lon="1.2152230739593506">
        <ele>481.76443689757576</ele>
        <time>2021-07-14T21:17:42.524Z</time>
      </trkpt>
      <trkpt lat="42.95606017112732" lon="1.2138926982879639">
        <ele>480.31786357340434</ele>
        <time>2021-07-14T21:17:49.684Z</time>
      </trkpt>
      <trkpt lat="42.955942153930664" lon="1.2134313583374023">
        <ele>479.17495178293257</ele>
        <time>2021-07-14T21:17:56.849Z</time>
      </trkpt>
      <trkpt lat="42.955931425094604" lon="1.213216781616211">
        <ele>478.1597024801738</ele>
        <time>2021-07-14T21:18:04.017Z</time>
      </trkpt>
      <trkpt lat="42.955952882766724" lon="1.2130343914031982">
        <ele>477.17005507477324</ele>
        <time>2021-07-14T21:18:11.187Z</time>
      </trkpt>
      <trkpt lat="42.956188917160034" lon="1.2121868133544922">
        <ele>476.32799338617576</ele>
        <time>2021-07-14T21:18:18.368Z</time>
      </trkpt>
      <trkpt lat="42.95624256134033" lon="1.2119615077972412">
        <ele>475.30247768260847</ele>
        <time>2021-07-14T21:18:25.552Z</time>
      </trkpt>
      <trkpt lat="42.95637130737305" lon="1.2105882167816162">
        <ele>474.20449317361965</ele>
        <time>2021-07-14T21:18:32.752Z</time>
      </trkpt>
      <trkpt lat="42.95637139119208" lon="1.2105882167816162">
        <ele>473.29392136640115</ele>
        <time>2021-07-14T21:18:39.952Z</time>
      </trkpt>
      <trkpt lat="42.956403493881226" lon="1.2100625038146973">
        <ele>472.37185956633164</ele>
        <time>2021-07-14T21:18:47.158Z</time>
      </trkpt>
      <trkpt lat="42.95623183250427" lon="1.2089896202087402">
        <ele>471.34573997035614</ele>
        <time>2021-07-14T21:18:54.377Z</time>
      </trkpt>
      <trkpt lat="42.95625329017639" lon="1.2086677551269531">
        <ele>470.4450195232772</ele>
        <time>2021-07-14T21:19:01.600Z</time>
      </trkpt>
      <trkpt lat="42.95628547668457" lon="1.2084531784057617">
        <ele>469.599249069737</ele>
        <time>2021-07-14T21:19:08.825Z</time>
      </trkpt>
      <trkpt lat="42.95636057853699" lon="1.2082386016845703">
        <ele>468.8013955884454</ele>
        <time>2021-07-14T21:19:16.053Z</time>
      </trkpt>
      <trkpt lat="42.95647859573364" lon="1.2080025672912598">
        <ele>468.03031698867505</ele>
        <time>2021-07-14T21:19:23.284Z</time>
      </trkpt>
      <trkpt lat="42.95660734176636" lon="1.207669973373413">
        <ele>467.294024455725</ele>
        <time>2021-07-14T21:19:30.520Z</time>
      </trkpt>
      <trkpt lat="42.956682443618774" lon="1.2074553966522217">
        <ele>466.65211543061235</ele>
        <time>2021-07-14T21:19:37.759Z</time>
      </trkpt>
      <trkpt lat="42.95676827430725" lon="1.2068867683410645">
        <ele>466.03455885780795</ele>
        <time>2021-07-14T21:19:45.004Z</time>
      </trkpt>
      <trkpt lat="42.95684337615967" lon="1.2060928344726562">
        <ele>465.2170913651065</ele>
        <time>2021-07-14T21:19:52.259Z</time>
      </trkpt>
      <trkpt lat="42.956886291503906" lon="1.2057280540466309">
        <ele>464.41622231515873</ele>
        <time>2021-07-14T21:19:59.518Z</time>
      </trkpt>
      <trkpt lat="42.95700430870056" lon="1.2052881717681885">
        <ele>463.586507408574</ele>
        <time>2021-07-14T21:20:06.783Z</time>
      </trkpt>
      <trkpt lat="42.957197427749634" lon="1.204676628112793">
        <ele>462.82610981418566</ele>
        <time>2021-07-14T21:20:14.056Z</time>
      </trkpt>
      <trkpt lat="42.95728325843811" lon="1.204376220703125">
        <ele>462.2726507806759</ele>
        <time>2021-07-14T21:20:21.332Z</time>
      </trkpt>
      <trkpt lat="42.95736908912659" lon="1.2032818794250488">
        <ele>461.38340865104897</ele>
        <time>2021-07-14T21:20:28.621Z</time>
      </trkpt>
      <trkpt lat="42.95756229199469" lon="1.2020587921142578">
        <ele>460.73705637941134</ele>
        <time>2021-07-14T21:20:35.925Z</time>
      </trkpt>
      <trkpt lat="42.9576051235199" lon="1.2017261981964111">
        <ele>460.1503002883162</ele>
        <time>2021-07-14T21:20:43.233Z</time>
      </trkpt>
      <trkpt lat="42.957669496536255" lon="1.2013506889343262">
        <ele>459.4259655850068</ele>
        <time>2021-07-14T21:20:50.545Z</time>
      </trkpt>
      <trkpt lat="42.957690954208374" lon="1.20100736618042">
        <ele>458.71501445877936</ele>
        <time>2021-07-14T21:20:57.861Z</time>
      </trkpt>
      <trkpt lat="42.957680225372314" lon="1.2007927894592285">
        <ele>458.0481373328817</ele>
        <time>2021-07-14T21:21:05.180Z</time>
      </trkpt>
      <trkpt lat="42.95753002166748" lon="1.2000524997711182">
        <ele>457.40354696279996</ele>
        <time>2021-07-14T21:21:12.508Z</time>
      </trkpt>
      <trkpt lat="42.957154512405396" lon="1.1983788013458252">
        <ele>456.84025635723765</ele>
        <time>2021-07-14T21:21:19.857Z</time>
      </trkpt>
      <trkpt lat="42.95711159706116" lon="1.1979281902313232">
        <ele>456.4042230974778</ele>
        <time>2021-07-14T21:21:27.211Z</time>
      </trkpt>
      <trkpt lat="42.95713313855231" lon="1.1978209018707275">
        <ele>455.9152033666327</ele>
        <time>2021-07-14T21:21:34.566Z</time>
      </trkpt>
      <trkpt lat="42.957165241241455" lon="1.1976277828216553">
        <ele>455.4111125122015</ele>
        <time>2021-07-14T21:21:41.924Z</time>
      </trkpt>
      <trkpt lat="42.95748710632324" lon="1.1970162391662598">
        <ele>455.0180433426283</ele>
        <time>2021-07-14T21:21:49.290Z</time>
      </trkpt>
      <trkpt lat="42.9576051235199" lon="1.1965656280517578">
        <ele>454.27883978076784</ele>
        <time>2021-07-14T21:21:56.662Z</time>
      </trkpt>
      <trkpt lat="42.95775541104376" lon="1.1956751346588135">
        <ele>453.4836048180762</ele>
        <time>2021-07-14T21:22:04.045Z</time>
      </trkpt>
      <trkpt lat="42.957744682207704" lon="1.1947524547576904">
        <ele>452.9165763862384</ele>
        <time>2021-07-14T21:22:11.439Z</time>
      </trkpt>
      <trkpt lat="42.95772314071655" lon="1.194462776184082">
        <ele>452.42981073088606</ele>
        <time>2021-07-14T21:22:18.836Z</time>
      </trkpt>
      <trkpt lat="42.9576051235199" lon="1.1939799785614014">
        <ele>451.81470716561205</ele>
        <time>2021-07-14T21:22:26.239Z</time>
      </trkpt>
      <trkpt lat="42.95760520733893" lon="1.1939799785614014">
        <ele>451.2624775191248</ele>
        <time>2021-07-14T21:22:33.642Z</time>
      </trkpt>
      <trkpt lat="42.957433462142944" lon="1.1933362483978271">
        <ele>450.57424468570275</ele>
        <time>2021-07-14T21:22:41.053Z</time>
      </trkpt>
      <trkpt lat="42.957390546798706" lon="1.1930787563323975">
        <ele>449.9335354826262</ele>
        <time>2021-07-14T21:22:48.467Z</time>
      </trkpt>
      <trkpt lat="42.95737981796265" lon="1.192864179611206">
        <ele>449.3230778327261</ele>
        <time>2021-07-14T21:22:55.884Z</time>
      </trkpt>
      <trkpt lat="42.957412004470825" lon="1.192563772201538">
        <ele>448.7616061448796</ele>
        <time>2021-07-14T21:23:03.304Z</time>
      </trkpt>
      <trkpt lat="42.95754075050354" lon="1.191866397857666">
        <ele>448.30756445132823</ele>
        <time>2021-07-14T21:23:10.733Z</time>
      </trkpt>
      <trkpt lat="42.9575514793396" lon="1.1916840076446533">
        <ele>447.71092217285786</ele>
        <time>2021-07-14T21:23:18.164Z</time>
      </trkpt>
      <trkpt lat="42.95750856399536" lon="1.1915123462677002">
        <ele>447.043950369091</ele>
        <time>2021-07-14T21:23:25.597Z</time>
      </trkpt>
      <trkpt lat="42.95722961425781" lon="1.191115379333496">
        <ele>446.27324647711623</ele>
        <time>2021-07-14T21:23:33.036Z</time>
      </trkpt>
      <trkpt lat="42.956897020339966" lon="1.1907398700714111">
        <ele>445.64726825157356</ele>
        <time>2021-07-14T21:23:40.482Z</time>
      </trkpt>
      <trkpt lat="42.95674681663513" lon="1.190493106842041">
        <ele>445.099538746382</ele>
        <time>2021-07-14T21:23:47.932Z</time>
      </trkpt>
      <trkpt lat="42.95671463012695" lon="1.1903750896453857">
        <ele>444.48529343406653</ele>
        <time>2021-07-14T21:23:55.384Z</time>
      </trkpt>
      <trkpt lat="42.95671463012695" lon="1.1902141571044922">
        <ele>443.76512975626576</ele>
        <time>2021-07-14T21:24:02.837Z</time>
      </trkpt>
      <trkpt lat="42.95675754547119" lon="1.1899030208587646">
        <ele>443.0519715034641</ele>
        <time>2021-07-14T21:24:10.294Z</time>
      </trkpt>
      <trkpt lat="42.957186698913574" lon="1.1878108978271484">
        <ele>441.960187947002</ele>
        <time>2021-07-14T21:24:17.777Z</time>
      </trkpt>
      <trkpt lat="42.95732617378235" lon="1.1869418621063232">
        <ele>441.11465313694646</ele>
        <time>2021-07-14T21:24:25.270Z</time>
      </trkpt>
      <trkpt lat="42.95728325843811" lon="1.1866950988769531">
        <ele>440.3878929409524</ele>
        <time>2021-07-14T21:24:32.766Z</time>
      </trkpt>
      <trkpt lat="42.95709013938904" lon="1.1860942840576172">
        <ele>439.48487329226214</ele>
        <time>2021-07-14T21:24:40.270Z</time>
      </trkpt>
      <trkpt lat="42.95703649520874" lon="1.185847520828247">
        <ele>438.73236737495415</ele>
        <time>2021-07-14T21:24:47.777Z</time>
      </trkpt>
      <trkpt lat="42.95705795288086" lon="1.185600757598877">
        <ele>437.86297036778797</ele>
        <time>2021-07-14T21:24:55.287Z</time>
      </trkpt>
      <trkpt lat="42.95711159706116" lon="1.1853218078613281">
        <ele>436.96699614794994</ele>
        <time>2021-07-14T21:25:02.800Z</time>
      </trkpt>
      <trkpt lat="42.95729398727417" lon="1.1848711967468262">
        <ele>436.0420822158285</ele>
        <time>2021-07-14T21:25:10.319Z</time>
      </trkpt>
      <trkpt lat="42.95732617378235" lon="1.1846888065338135">
        <ele>435.18025942617226</ele>
        <time>2021-07-14T21:25:17.840Z</time>
      </trkpt>
      <trkpt lat="42.95730479992926" lon="1.1844313144683838">
        <ele>434.3778148243633</ele>
        <time>2021-07-14T21:25:25.364Z</time>
      </trkpt>
      <trkpt lat="42.95730471611023" lon="1.184377670288086">
        <ele>433.50561801629397</ele>
        <time>2021-07-14T21:25:32.889Z</time>
      </trkpt>
      <trkpt lat="42.957133054733276" lon="1.1839485168457031">
        <ele>432.6039479743007</ele>
        <time>2021-07-14T21:25:40.420Z</time>
      </trkpt>
      <trkpt lat="42.956939935684204" lon="1.1836588382720947">
        <ele>431.63428831860483</ele>
        <time>2021-07-14T21:25:47.955Z</time>
      </trkpt>
      <trkpt lat="42.95682191848755" lon="1.1834228038787842">
        <ele>430.6143595668119</ele>
        <time>2021-07-14T21:25:55.494Z</time>
      </trkpt>
      <trkpt lat="42.956693172454834" lon="1.1829400062561035">
        <ele>429.60740622074917</ele>
        <time>2021-07-14T21:26:03.039Z</time>
      </trkpt>
      <trkpt lat="42.95651078224182" lon="1.1819958686828613">
        <ele>428.6173780310345</ele>
        <time>2021-07-14T21:26:10.595Z</time>
      </trkpt>
      <trkpt lat="42.95651078224182" lon="1.1816847324371338">
        <ele>427.675076678209</ele>
        <time>2021-07-14T21:26:18.155Z</time>
      </trkpt>
      <trkpt lat="42.95647859573364" lon="1.1811912059783936">
        <ele>426.7702922309569</ele>
        <time>2021-07-14T21:26:25.721Z</time>
      </trkpt>
      <trkpt lat="42.95640357770026" lon="1.1806762218475342">
        <ele>425.6068038459808</ele>
        <time>2021-07-14T21:26:33.293Z</time>
      </trkpt>
      <trkpt lat="42.95631774701178" lon="1.1801505088806152">
        <ele>424.40082783603765</ele>
        <time>2021-07-14T21:26:40.871Z</time>
      </trkpt>
      <trkpt lat="42.956135272979736" lon="1.178959608078003">
        <ele>423.1309764632234</ele>
        <time>2021-07-14T21:26:48.464Z</time>
      </trkpt>
      <trkpt lat="42.95611381530762" lon="1.178433895111084">
        <ele>422.1205529881091</ele>
        <time>2021-07-14T21:26:56.063Z</time>
      </trkpt>
      <trkpt lat="42.95610308647156" lon="1.1780691146850586">
        <ele>421.1506055519278</ele>
        <time>2021-07-14T21:27:03.666Z</time>
      </trkpt>
      <trkpt lat="42.956167459487915" lon="1.177661418914795">
        <ele>420.1491414251435</ele>
        <time>2021-07-14T21:27:11.274Z</time>
      </trkpt>
      <trkpt lat="42.956242645159364" lon="1.1775434017181396">
        <ele>419.26015852578723</ele>
        <time>2021-07-14T21:27:18.884Z</time>
      </trkpt>
      <trkpt lat="42.95634984970093" lon="1.1774468421936035">
        <ele>418.41763877577176</ele>
        <time>2021-07-14T21:27:26.496Z</time>
      </trkpt>
      <trkpt lat="42.95658588409424" lon="1.1772966384887695">
        <ele>417.6343844756859</ele>
        <time>2021-07-14T21:27:34.112Z</time>
      </trkpt>
      <trkpt lat="42.956671714782715" lon="1.1771571636199951">
        <ele>416.89798297996623</ele>
        <time>2021-07-14T21:27:41.730Z</time>
      </trkpt>
      <trkpt lat="42.95676835812628" lon="1.1769318580627441">
        <ele>416.138042783276</ele>
        <time>2021-07-14T21:27:49.351Z</time>
      </trkpt>
      <trkpt lat="42.95677900314331" lon="1.1768460273742676">
        <ele>415.43741633044164</ele>
        <time>2021-07-14T21:27:56.973Z</time>
      </trkpt>
      <trkpt lat="42.95676835812628" lon="1.1767280101776123">
        <ele>414.8002611731056</ele>
        <time>2021-07-14T21:28:04.597Z</time>
      </trkpt>
      <trkpt lat="42.95751929283142" lon="1.1762988567352295">
        <ele>414.1808268970399</ele>
        <time>2021-07-14T21:28:12.234Z</time>
      </trkpt>
      <trkpt lat="42.958141565322876" lon="1.1760520935058594">
        <ele>413.60050804972974</ele>
        <time>2021-07-14T21:28:19.881Z</time>
      </trkpt>
      <trkpt lat="42.9601263999939" lon="1.1753547191619873">
        <ele>413.0964341556432</ele>
        <time>2021-07-14T21:28:27.561Z</time>
      </trkpt>
      <trkpt lat="42.96105980873108" lon="1.1751937866210938">
        <ele>412.63885668492276</ele>
        <time>2021-07-14T21:28:35.256Z</time>
      </trkpt>
      <trkpt lat="42.96134948730469" lon="1.1750972270965576">
        <ele>412.12276626836785</ele>
        <time>2021-07-14T21:28:42.956Z</time>
      </trkpt>
      <trkpt lat="42.96161770820618" lon="1.1749470233917236">
        <ele>411.57090529347107</ele>
        <time>2021-07-14T21:28:50.660Z</time>
      </trkpt>
      <trkpt lat="42.96207913197577" lon="1.1746251583099365">
        <ele>411.16963570294627</ele>
        <time>2021-07-14T21:28:58.373Z</time>
      </trkpt>
      <trkpt lat="42.96207904815674" lon="1.1746251583099365">
        <ele>410.7439421998596</ele>
        <time>2021-07-14T21:29:06.086Z</time>
      </trkpt>
      <trkpt lat="42.96230435371399" lon="1.1744320392608643">
        <ele>410.6136366602177</ele>
        <time>2021-07-14T21:29:13.803Z</time>
      </trkpt>
      <trkpt lat="42.96258330345154" lon="1.174163818359375">
        <ele>410.3220733507718</ele>
        <time>2021-07-14T21:29:21.525Z</time>
      </trkpt>
      <trkpt lat="42.96285152435303" lon="1.1738204956054688">
        <ele>409.8532960051947</ele>
        <time>2021-07-14T21:29:29.253Z</time>
      </trkpt>
      <trkpt lat="42.963666915893555" lon="1.1726832389831543">
        <ele>409.0545506221349</ele>
        <time>2021-07-14T21:29:37.000Z</time>
      </trkpt>
      <trkpt lat="42.964214170351624" lon="1.1719214916229248">
        <ele>408.4589450571046</ele>
        <time>2021-07-14T21:29:44.759Z</time>
      </trkpt>
      <trkpt lat="42.964653968811035" lon="1.1714279651641846">
        <ele>408.17109204723926</ele>
        <time>2021-07-14T21:29:52.528Z</time>
      </trkpt>
      <trkpt lat="42.96501874923706" lon="1.171095371246338">
        <ele>407.7877651218771</ele>
        <time>2021-07-14T21:30:00.304Z</time>
      </trkpt>
      <trkpt lat="42.96550163067877" lon="1.1707520484924316">
        <ele>407.38883668424245</ele>
        <time>2021-07-14T21:30:08.088Z</time>
      </trkpt>
      <trkpt lat="42.96550154685974" lon="1.1707520484924316">
        <ele>407.0035456746533</ele>
        <time>2021-07-14T21:30:15.872Z</time>
      </trkpt>
      <trkpt lat="42.96745419502258" lon="1.1694002151489258">
        <ele>406.5422277492477</ele>
        <time>2021-07-14T21:30:23.691Z</time>
      </trkpt>
      <trkpt lat="42.967668771743774" lon="1.1692500114440918">
        <ele>406.17420636587076</ele>
        <time>2021-07-14T21:30:31.514Z</time>
      </trkpt>
      <trkpt lat="42.96781905926764" lon="1.1691105365753174">
        <ele>405.772813049437</ele>
        <time>2021-07-14T21:30:39.340Z</time>
      </trkpt>
      <trkpt lat="42.96951421536505" lon="1.1672115325927734">
        <ele>405.2612131334536</ele>
        <time>2021-07-14T21:30:47.201Z</time>
      </trkpt>
      <trkpt lat="42.971198642626405" lon="1.1652374267578125">
        <ele>404.92837180413744</ele>
        <time>2021-07-14T21:30:55.098Z</time>
      </trkpt>
      <trkpt lat="42.9714560508728" lon="1.1649692058563232">
        <ele>404.523076275328</ele>
        <time>2021-07-14T21:31:03.000Z</time>
      </trkpt>
      <trkpt lat="42.97185301780701" lon="1.1646044254302979">
        <ele>404.09818173669726</ele>
        <time>2021-07-14T21:31:10.910Z</time>
      </trkpt>
      <trkpt lat="42.97251828946173" lon="1.1640357971191406">
        <ele>403.8396312689786</ele>
        <time>2021-07-14T21:31:18.832Z</time>
      </trkpt>
      <trkpt lat="42.9725182056427" lon="1.1640357971191406">
        <ele>403.48393568822</ele>
        <time>2021-07-14T21:31:26.754Z</time>
      </trkpt>
      <trkpt lat="42.972925985231996" lon="1.163703203201294">
        <ele>403.1545053120486</ele>
        <time>2021-07-14T21:31:34.684Z</time>
      </trkpt>
      <trkpt lat="42.97330141067505" lon="1.1633598804473877">
        <ele>402.6190683658488</ele>
        <time>2021-07-14T21:31:42.621Z</time>
      </trkpt>
      <trkpt lat="42.97369837760925" lon="1.1629414558410645">
        <ele>402.2068971765688</ele>
        <time>2021-07-14T21:31:50.566Z</time>
      </trkpt>
      <trkpt lat="42.97403105534613" lon="1.1626088619232178">
        <ele>401.8722811609221</ele>
        <time>2021-07-14T21:31:58.518Z</time>
      </trkpt>
      <trkpt lat="42.9748357180506" lon="1.1616754531860352">
        <ele>401.4515051380615</ele>
        <time>2021-07-14T21:32:06.487Z</time>
      </trkpt>
      <trkpt lat="42.9753936175257" lon="1.1609995365142822">
        <ele>401.28674391932685</ele>
        <time>2021-07-14T21:32:14.467Z</time>
      </trkpt>
      <trkpt lat="42.97556519508362" lon="1.1607205867767334">
        <ele>401.00989863171833</ele>
        <time>2021-07-14T21:32:22.452Z</time>
      </trkpt>
      <trkpt lat="42.97562965191901" lon="1.1605167388916016">
        <ele>400.68549667974423</ele>
        <time>2021-07-14T21:32:30.439Z</time>
      </trkpt>
      <trkpt lat="42.97595143318176" lon="1.1595189571380615">
        <ele>400.45679789316193</ele>
        <time>2021-07-14T21:32:38.439Z</time>
      </trkpt>
      <trkpt lat="42.97605880536139" lon="1.1590683460235596">
        <ele>400.02295394089333</ele>
        <time>2021-07-14T21:32:46.445Z</time>
      </trkpt>
      <trkpt lat="42.97628402709961" lon="1.1579310894012451">
        <ele>399.597268014503</ele>
        <time>2021-07-14T21:32:54.465Z</time>
      </trkpt>
      <trkpt lat="42.97650933265686" lon="1.1564075946807861">
        <ele>399.2124782183505</ele>
        <time>2021-07-14T21:33:02.503Z</time>
      </trkpt>
      <trkpt lat="42.97661670483649" lon="1.1559033393859863">
        <ele>398.92701051257427</ele>
        <time>2021-07-14T21:33:10.547Z</time>
      </trkpt>
      <trkpt lat="42.976616621017456" lon="1.1559033393859863">
        <ele>398.6150685027929</ele>
        <time>2021-07-14T21:33:18.591Z</time>
      </trkpt>
      <trkpt lat="42.97677755355835" lon="1.1554527282714844">
        <ele>398.22346470656834</ele>
        <time>2021-07-14T21:33:26.641Z</time>
      </trkpt>
      <trkpt lat="42.97683119773865" lon="1.1553454399108887">
        <ele>397.92308941407293</ele>
        <time>2021-07-14T21:33:34.692Z</time>
      </trkpt>
      <trkpt lat="42.97701367177069" lon="1.1550235748291016">
        <ele>397.675609377256</ele>
        <time>2021-07-14T21:33:42.748Z</time>
      </trkpt>
      <trkpt lat="42.97704585827887" lon="1.1549699306488037">
        <ele>397.38709004432144</ele>
        <time>2021-07-14T21:33:50.805Z</time>
      </trkpt>
      <trkpt lat="42.97726035118103" lon="1.1546587944030762">
        <ele>397.0665633441636</ele>
        <time>2021-07-14T21:33:58.867Z</time>
      </trkpt>
      <trkpt lat="42.97733553685248" lon="1.15456223487854">
        <ele>396.7821158281074</ele>
        <time>2021-07-14T21:34:06.931Z</time>
      </trkpt>
      <trkpt lat="42.97755011357367" lon="1.1543262004852295">
        <ele>396.4771570951749</ele>
        <time>2021-07-14T21:34:14.999Z</time>
      </trkpt>
      <trkpt lat="42.97755002975464" lon="1.1543262004852295">
        <ele>396.2174439460911</ele>
        <time>2021-07-14T21:34:23.067Z</time>
      </trkpt>
      <trkpt lat="42.97776460647583" lon="1.154090166091919">
        <ele>395.9568205880416</ele>
        <time>2021-07-14T21:34:31.139Z</time>
      </trkpt>
      <trkpt lat="42.97862299717963" lon="1.1532318592071533">
        <ele>395.64078469486026</ele>
        <time>2021-07-14T21:34:39.229Z</time>
      </trkpt>
      <trkpt lat="42.97884821891785" lon="1.153017282485962">
        <ele>395.3832285615605</ele>
        <time>2021-07-14T21:34:47.323Z</time>
      </trkpt>
      <trkpt lat="42.97862299717963" lon="1.1525988578796387">
        <ele>395.22558004947064</ele>
        <time>2021-07-14T21:34:55.423Z</time>
      </trkpt>
      <trkpt lat="42.97894477844238" lon="1.1522984504699707">
        <ele>395.0288802320108</ele>
        <time>2021-07-14T21:35:03.529Z</time>
      </trkpt>
      <trkpt lat="42.979116439819336" lon="1.152116060256958">
        <ele>394.8829545147146</ele>
        <time>2021-07-14T21:35:11.639Z</time>
      </trkpt>
      <trkpt lat="42.97911652363837" lon="1.152116060256958">
        <ele>394.7081875905351</ele>
        <time>2021-07-14T21:35:19.749Z</time>
      </trkpt>
      <trkpt lat="42.97958850860596" lon="1.1512362957000732">
        <ele>394.59231964468694</ele>
        <time>2021-07-14T21:35:27.872Z</time>
      </trkpt>
      <trkpt lat="42.979910457506776" lon="1.1504101753234863">
        <ele>394.29741802278386</ele>
        <time>2021-07-14T21:35:36.006Z</time>
      </trkpt>
      <trkpt lat="42.9800820350647" lon="1.14982008934021">
        <ele>394.1901765047685</ele>
        <time>2021-07-14T21:35:44.147Z</time>
      </trkpt>
      <trkpt lat="42.98008211888373" lon="1.14982008934021">
        <ele>394.0766338660783</ele>
        <time>2021-07-14T21:35:52.288Z</time>
      </trkpt>
      <trkpt lat="42.980157136917114" lon="1.1489510536193848">
        <ele>393.9040206002004</ele>
        <time>2021-07-14T21:36:00.439Z</time>
      </trkpt>
      <trkpt lat="42.98018932342529" lon="1.1487257480621338">
        <ele>393.82466995580364</ele>
        <time>2021-07-14T21:36:08.593Z</time>
      </trkpt>
      <trkpt lat="42.98022150993347" lon="1.1486506462097168">
        <ele>393.7839243529188</ele>
        <time>2021-07-14T21:36:16.748Z</time>
      </trkpt>
      <trkpt lat="42.980157220736146" lon="1.1484038829803467">
        <ele>393.7101980733106</ele>
        <time>2021-07-14T21:36:24.906Z</time>
      </trkpt>
      <trkpt lat="42.98010357655585" lon="1.1480176448822021">
        <ele>393.6436001706194</ele>
        <time>2021-07-14T21:36:33.069Z</time>
      </trkpt>
      <trkpt lat="42.98008211888373" lon="1.147620677947998">
        <ele>393.5488851055884</ele>
        <time>2021-07-14T21:36:41.236Z</time>
      </trkpt>
      <trkpt lat="42.98007130622864" lon="1.1475133895874023">
        <ele>393.57442083606213</ele>
        <time>2021-07-14T21:36:49.405Z</time>
      </trkpt>
      <trkpt lat="42.97999620437622" lon="1.1467623710632324">
        <ele>393.7194083991236</ele>
        <time>2021-07-14T21:36:57.582Z</time>
      </trkpt>
      <trkpt lat="42.97999628819525" lon="1.1467194557189941">
        <ele>393.7979951513752</ele>
        <time>2021-07-14T21:37:05.760Z</time>
      </trkpt>
      <trkpt lat="42.97995328903198" lon="1.1463117599487305">
        <ele>393.9357669584514</ele>
        <time>2021-07-14T21:37:13.943Z</time>
      </trkpt>
      <trkpt lat="42.97994256019592" lon="1.145946979522705">
        <ele>394.04240975431384</ele>
        <time>2021-07-14T21:37:22.130Z</time>
      </trkpt>
      <trkpt lat="42.979942644014955" lon="1.145946979522705">
        <ele>394.14727866636997</ele>
        <time>2021-07-14T21:37:30.317Z</time>
      </trkpt>
      <trkpt lat="42.97994256019592" lon="1.1456143856048584">
        <ele>394.26174127188057</ele>
        <time>2021-07-14T21:37:38.508Z</time>
      </trkpt>
      <trkpt lat="42.9799747467041" lon="1.1452388763427734">
        <ele>394.3746277484896</ele>
        <time>2021-07-14T21:37:46.703Z</time>
      </trkpt>
      <trkpt lat="42.98003911972046" lon="1.1449062824249268">
        <ele>394.4777507550035</ele>
        <time>2021-07-14T21:37:54.903Z</time>
      </trkpt>
      <trkpt lat="42.980135679244995" lon="1.1445307731628418">
        <ele>394.6030797645536</ele>
        <time>2021-07-14T21:38:03.107Z</time>
      </trkpt>
      <trkpt lat="42.98024296760559" lon="1.1442410945892334">
        <ele>394.7939629781707</ele>
        <time>2021-07-14T21:38:11.315Z</time>
      </trkpt>
      <trkpt lat="42.98030734062195" lon="1.1441445350646973">
        <ele>394.92978612027184</ele>
        <time>2021-07-14T21:38:19.525Z</time>
      </trkpt>
      <trkpt lat="42.9803288821131" lon="1.1441338062286377">
        <ele>395.03992996325127</ele>
        <time>2021-07-14T21:38:27.735Z</time>
      </trkpt>
      <trkpt lat="42.98035025596619" lon="1.1441123485565186">
        <ele>395.1414970825384</ele>
        <time>2021-07-14T21:38:35.945Z</time>
      </trkpt>
      <trkpt lat="42.980371713638306" lon="1.1440479755401611">
        <ele>395.2405729759979</ele>
        <time>2021-07-14T21:38:44.156Z</time>
      </trkpt>
      <trkpt lat="42.980371713638306" lon="1.1439943313598633">
        <ele>395.32570709992285</ele>
        <time>2021-07-14T21:38:52.368Z</time>
      </trkpt>
      <trkpt lat="42.98039325512946" lon="1.1439406871795654">
        <ele>395.3820211664662</ele>
        <time>2021-07-14T21:39:00.581Z</time>
      </trkpt>
      <trkpt lat="42.980457628145814" lon="1.1437797546386719">
        <ele>395.4215009472452</ele>
        <time>2021-07-14T21:39:08.796Z</time>
      </trkpt>
      <trkpt lat="42.98052191734314" lon="1.143629550933838">
        <ele>395.43663314898333</ele>
        <time>2021-07-14T21:39:17.013Z</time>
      </trkpt>
      <trkpt lat="42.98070430755615" lon="1.1433398723602295">
        <ele>395.41361723446664</ele>
        <time>2021-07-14T21:39:25.234Z</time>
      </trkpt>
      <trkpt lat="42.98102617263794" lon="1.142975091934204">
        <ele>395.4658166894077</ele>
        <time>2021-07-14T21:39:33.462Z</time>
      </trkpt>
      <trkpt lat="42.98120856285095" lon="1.142803430557251">
        <ele>395.47571587578034</ele>
        <time>2021-07-14T21:39:41.693Z</time>
      </trkpt>
      <trkpt lat="42.9814338684082" lon="1.1426210403442383">
        <ele>395.49251541099557</ele>
        <time>2021-07-14T21:39:49.929Z</time>
      </trkpt>
      <trkpt lat="42.98158407211304" lon="1.1425352096557617">
        <ele>395.4161535057662</ele>
        <time>2021-07-14T21:39:58.167Z</time>
      </trkpt>
      <trkpt lat="42.98158415593207" lon="1.1425352096557617">
        <ele>395.25775074316965</ele>
        <time>2021-07-14T21:40:06.405Z</time>
      </trkpt>
      <trkpt lat="42.98163780011237" lon="1.142503023147583">
        <ele>395.0825087918049</ele>
        <time>2021-07-14T21:40:14.644Z</time>
      </trkpt>
      <trkpt lat="42.98218488693237" lon="1.1422455310821533">
        <ele>394.6789360141096</ele>
        <time>2021-07-14T21:40:22.892Z</time>
      </trkpt>
      <trkpt lat="42.98323639668524" lon="1.141805648803711">
        <ele>394.27408445439096</ele>
        <time>2021-07-14T21:40:31.158Z</time>
      </trkpt>
      <trkpt lat="42.98331149853766" lon="1.1417734622955322">
        <ele>394.02729157729004</ele>
        <time>2021-07-14T21:40:39.425Z</time>
      </trkpt>
      <trkpt lat="42.98357963562012" lon="1.141601800918579">
        <ele>393.7466107168295</ele>
        <time>2021-07-14T21:40:47.697Z</time>
      </trkpt>
      <trkpt lat="42.98357971943915" lon="1.141601800918579">
        <ele>393.4798680531061</ele>
        <time>2021-07-14T21:40:55.969Z</time>
      </trkpt>
      <trkpt lat="42.983676278963685" lon="1.1415374279022217">
        <ele>393.1577342893597</ele>
        <time>2021-07-14T21:41:04.243Z</time>
      </trkpt>
      <trkpt lat="42.983890771865845" lon="1.1413979530334473">
        <ele>392.8540429187845</ele>
        <time>2021-07-14T21:41:12.521Z</time>
      </trkpt>
      <trkpt lat="42.983890855684876" lon="1.1413979530334473">
        <ele>392.6019567760826</ele>
        <time>2021-07-14T21:41:20.799Z</time>
      </trkpt>
      <trkpt lat="42.98425555229187" lon="1.1411404609680176">
        <ele>392.29317724345395</ele>
        <time>2021-07-14T21:41:29.083Z</time>
      </trkpt>
      <trkpt lat="42.9842556361109" lon="1.1411404609680176">
        <ele>392.07761313952375</ele>
        <time>2021-07-14T21:41:37.367Z</time>
      </trkpt>
      <trkpt lat="42.98452385701239" lon="1.1409580707550049">
        <ele>391.8438685424183</ele>
        <time>2021-07-14T21:41:45.656Z</time>
      </trkpt>
      <trkpt lat="42.98460968770087" lon="1.140904426574707">
        <ele>391.6894648164466</ele>
        <time>2021-07-14T21:41:53.946Z</time>
      </trkpt>
      <trkpt lat="42.98494219779968" lon="1.140679121017456">
        <ele>391.6353274140099</ele>
        <time>2021-07-14T21:42:02.242Z</time>
      </trkpt>
      <trkpt lat="42.984942281618714" lon="1.140679121017456">
        <ele>391.54761637486547</ele>
        <time>2021-07-14T21:42:10.538Z</time>
      </trkpt>
      <trkpt lat="42.98553228378296" lon="1.140303611755371">
        <ele>391.4082931739206</ele>
        <time>2021-07-14T21:42:18.845Z</time>
      </trkpt>
      <trkpt lat="42.98553236760199" lon="1.140303611755371">
        <ele>391.4052245624332</ele>
        <time>2021-07-14T21:42:27.152Z</time>
      </trkpt>
      <trkpt lat="42.98583269119263" lon="1.1401104927062988">
        <ele>391.3532344233659</ele>
        <time>2021-07-14T21:42:35.464Z</time>
      </trkpt>
      <trkpt lat="42.98574686050415" lon="1.1398208141326904">
        <ele>391.39929273535915</ele>
        <time>2021-07-14T21:42:43.780Z</time>
      </trkpt>
      <trkpt lat="42.98556455411017" lon="1.1394023895263672">
        <ele>391.63876262412373</ele>
        <time>2021-07-14T21:42:52.101Z</time>
      </trkpt>
      <trkpt lat="42.98556447029114" lon="1.1394023895263672">
        <ele>391.8331554853909</ele>
        <time>2021-07-14T21:43:00.422Z</time>
      </trkpt>
      <trkpt lat="42.985189044848084" lon="1.1384797096252441">
        <ele>392.15528889939117</ele>
        <time>2021-07-14T21:43:08.756Z</time>
      </trkpt>
      <trkpt lat="42.98518896102905" lon="1.1384797096252441">
        <ele>392.44726175374126</ele>
        <time>2021-07-14T21:43:17.090Z</time>
      </trkpt>
      <trkpt lat="42.98437365330756" lon="1.1361515522003174">
        <ele>392.96462559541703</ele>
        <time>2021-07-14T21:43:25.454Z</time>
      </trkpt>
      <trkpt lat="42.984373569488525" lon="1.1361515522003174">
        <ele>393.34467325227047</ele>
        <time>2021-07-14T21:43:33.818Z</time>
      </trkpt>
      <trkpt lat="42.98403024673462" lon="1.1351752281188965">
        <ele>393.88038946723736</ele>
        <time>2021-07-14T21:43:42.195Z</time>
      </trkpt>
      <trkpt lat="42.98362263478339" lon="1.1341238021850586">
        <ele>394.3147470896017</ele>
        <time>2021-07-14T21:43:50.586Z</time>
      </trkpt>
      <trkpt lat="42.98338660039008" lon="1.1335444450378418">
        <ele>394.8508354589079</ele>
        <time>2021-07-14T21:43:58.985Z</time>
      </trkpt>
      <trkpt lat="42.98320412635803" lon="1.133115291595459">
        <ele>395.38823305108986</ele>
        <time>2021-07-14T21:44:07.389Z</time>
      </trkpt>
      <trkpt lat="42.98286088742316" lon="1.1326968669891357">
        <ele>395.89452978310146</ele>
        <time>2021-07-14T21:44:15.801Z</time>
      </trkpt>
      <trkpt lat="42.98273214139044" lon="1.1325359344482422">
        <ele>396.4851999868042</ele>
        <time>2021-07-14T21:44:24.216Z</time>
      </trkpt>
      <trkpt lat="42.98197031021118" lon="1.1316454410552979">
        <ele>397.1207051695802</ele>
        <time>2021-07-14T21:44:32.647Z</time>
      </trkpt>
      <trkpt lat="42.98172354698181" lon="1.1313021183013916">
        <ele>397.6873992337013</ele>
        <time>2021-07-14T21:44:41.083Z</time>
      </trkpt>
      <trkpt lat="42.981401765719056" lon="1.131066083908081">
        <ele>398.334932283581</ele>
        <time>2021-07-14T21:44:49.525Z</time>
      </trkpt>
      <trkpt lat="42.9813373927027" lon="1.1309802532196045">
        <ele>398.99163213605834</ele>
        <time>2021-07-14T21:44:57.969Z</time>
      </trkpt>
      <trkpt lat="42.98082232475281" lon="1.1302506923675537">
        <ele>399.64263421339683</ele>
        <time>2021-07-14T21:45:06.424Z</time>
      </trkpt>
      <trkpt lat="42.98013576306403" lon="1.12884521484375">
        <ele>400.3968679300164</ele>
        <time>2021-07-14T21:45:14.899Z</time>
      </trkpt>
      <trkpt lat="42.980135679244995" lon="1.12884521484375">
        <ele>401.04889214921434</ele>
        <time>2021-07-14T21:45:23.374Z</time>
      </trkpt>
      <trkpt lat="42.97906279563904" lon="1.1266779899597168">
        <ele>401.8738519937953</ele>
        <time>2021-07-14T21:45:31.880Z</time>
      </trkpt>
      <trkpt lat="42.97868728637695" lon="1.1258196830749512">
        <ele>402.4796432038057</ele>
        <time>2021-07-14T21:45:40.398Z</time>
      </trkpt>
      <trkpt lat="42.97829040326178" lon="1.1248111724853516">
        <ele>403.21414741987826</ele>
        <time>2021-07-14T21:45:48.929Z</time>
      </trkpt>
      <trkpt lat="42.97823675908148" lon="1.1246716976165771">
        <ele>403.80685590671663</ele>
        <time>2021-07-14T21:45:57.462Z</time>
      </trkpt>
      <trkpt lat="42.978118658065796" lon="1.124328374862671">
        <ele>404.4218998194513</ele>
        <time>2021-07-14T21:46:06.000Z</time>
      </trkpt>
      <trkpt lat="42.977646589279175" lon="1.1228477954864502">
        <ele>404.96626568233955</ele>
        <time>2021-07-14T21:46:14.556Z</time>
      </trkpt>
      <trkpt lat="42.9775071144104" lon="1.1225688457489014">
        <ele>405.60252570851037</ele>
        <time>2021-07-14T21:46:23.116Z</time>
      </trkpt>
      <trkpt lat="42.97723889350891" lon="1.1221504211425781">
        <ele>406.22802392113283</ele>
        <time>2021-07-14T21:46:31.683Z</time>
      </trkpt>
      <trkpt lat="42.97685265541077" lon="1.1214101314544678">
        <ele>406.82799394481447</ele>
        <time>2021-07-14T21:46:40.261Z</time>
      </trkpt>
      <trkpt lat="42.97673463821411" lon="1.1212491989135742">
        <ele>407.3363969014348</ele>
        <time>2021-07-14T21:46:48.841Z</time>
      </trkpt>
      <trkpt lat="42.9766058921814" lon="1.1211204528808594">
        <ele>407.83168754363726</ele>
        <time>2021-07-14T21:46:57.424Z</time>
      </trkpt>
      <trkpt lat="42.97647714614868" lon="1.1210131645202637">
        <ele>408.3166939001506</ele>
        <time>2021-07-14T21:47:06.009Z</time>
      </trkpt>
      <trkpt lat="42.975640296936035" lon="1.1207664012908936">
        <ele>408.7742050912075</ele>
        <time>2021-07-14T21:47:14.608Z</time>
      </trkpt>
      <trkpt lat="42.97502875328064" lon="1.1204981803894043">
        <ele>409.11433944197137</ele>
        <time>2021-07-14T21:47:23.217Z</time>
      </trkpt>
      <trkpt lat="42.974867820739746" lon="1.1204767227172852">
        <ele>409.4540744092593</ele>
        <time>2021-07-14T21:47:31.829Z</time>
      </trkpt>
      <trkpt lat="42.974674701690674" lon="1.1204874515533447">
        <ele>409.8960233291954</ele>
        <time>2021-07-14T21:47:40.444Z</time>
      </trkpt>
      <trkpt lat="42.97449231147766" lon="1.1205518245697021">
        <ele>410.2820362017663</ele>
        <time>2021-07-14T21:47:49.062Z</time>
      </trkpt>
      <trkpt lat="42.97406315803528" lon="1.120755672454834">
        <ele>410.70803525078793</ele>
        <time>2021-07-14T21:47:57.687Z</time>
      </trkpt>
      <trkpt lat="42.97370910644531" lon="1.1209166049957275">
        <ele>410.9623669258188</ele>
        <time>2021-07-14T21:48:06.318Z</time>
      </trkpt>
      <trkpt lat="42.97354825772345" lon="1.1209595203399658">
        <ele>411.1986204454805</ele>
        <time>2021-07-14T21:48:14.952Z</time>
      </trkpt>
      <trkpt lat="42.97354817390442" lon="1.1209595203399658">
        <ele>411.48262496863356</ele>
        <time>2021-07-14T21:48:23.586Z</time>
      </trkpt>
      <trkpt lat="42.97319412231445" lon="1.1209595203399658">
        <ele>411.6107986436598</ele>
        <time>2021-07-14T21:48:32.225Z</time>
      </trkpt>
      <trkpt lat="42.9730224609375" lon="1.120905876159668">
        <ele>411.8115243402277</ele>
        <time>2021-07-14T21:48:40.867Z</time>
      </trkpt>
      <trkpt lat="42.972882986068726" lon="1.1208415031433105">
        <ele>412.0682680243853</ele>
        <time>2021-07-14T21:48:49.512Z</time>
      </trkpt>
      <trkpt lat="42.972668409347534" lon="1.1206698417663574">
        <ele>412.4061715336124</ele>
        <time>2021-07-14T21:48:58.161Z</time>
      </trkpt>
      <trkpt lat="42.97255047596991" lon="1.120530366897583">
        <ele>412.75507258303827</ele>
        <time>2021-07-14T21:49:06.812Z</time>
      </trkpt>
      <trkpt lat="42.972410917282104" lon="1.1203479766845703">
        <ele>413.11597802325775</ele>
        <time>2021-07-14T21:49:15.466Z</time>
      </trkpt>
      <trkpt lat="42.97230362892151" lon="1.1201226711273193">
        <ele>413.46234718645974</ele>
        <time>2021-07-14T21:49:24.123Z</time>
      </trkpt>
      <trkpt lat="42.97219634056091" lon="1.1198222637176514">
        <ele>413.87958470124806</ele>
        <time>2021-07-14T21:49:32.784Z</time>
      </trkpt>
      <trkpt lat="42.972142696380615" lon="1.1195218563079834">
        <ele>414.29936701306923</ele>
        <time>2021-07-14T21:49:41.449Z</time>
      </trkpt>
      <trkpt lat="42.97200322151184" lon="1.1184382438659668">
        <ele>414.8658036680261</ele>
        <time>2021-07-14T21:49:50.127Z</time>
      </trkpt>
      <trkpt lat="42.971649169921875" lon="1.1156165599822998">
        <ele>415.2314016820874</ele>
        <time>2021-07-14T21:49:58.838Z</time>
      </trkpt>
      <trkpt lat="42.97146677970886" lon="1.1135029792785645">
        <ele>415.79260699680555</ele>
        <time>2021-07-14T21:50:07.574Z</time>
      </trkpt>
      <trkpt lat="42.971413135528564" lon="1.1132776737213135">
        <ele>416.28046210540083</ele>
        <time>2021-07-14T21:50:16.313Z</time>
      </trkpt>
      <trkpt lat="42.97132730484009" lon="1.1129558086395264">
        <ele>416.751698136311</ele>
        <time>2021-07-14T21:50:25.056Z</time>
      </trkpt>
      <trkpt lat="42.96998628415167" lon="1.109619140625">
        <ele>417.17971763214746</ele>
        <time>2021-07-14T21:50:33.844Z</time>
      </trkpt>
      <trkpt lat="42.96982526779175" lon="1.1092329025268555">
        <ele>417.7452409798315</ele>
        <time>2021-07-14T21:50:42.637Z</time>
      </trkpt>
      <trkpt lat="42.96935328282416" lon="1.1080312728881836">
        <ele>418.33972652919056</ele>
        <time>2021-07-14T21:50:51.446Z</time>
      </trkpt>
      <trkpt lat="42.968666637316346" lon="1.106325387954712">
        <ele>418.9175446804383</ele>
        <time>2021-07-14T21:51:00.278Z</time>
      </trkpt>
      <trkpt lat="42.9680335521698" lon="1.1047589778900146">
        <ele>419.44161246357373</ele>
        <time>2021-07-14T21:51:09.131Z</time>
      </trkpt>
      <trkpt lat="42.96777606010437" lon="1.1038577556610107">
        <ele>419.94818427552616</ele>
        <time>2021-07-14T21:51:17.995Z</time>
      </trkpt>
      <trkpt lat="42.967679500579834" lon="1.1036217212677002">
        <ele>420.4302135328348</ele>
        <time>2021-07-14T21:51:26.863Z</time>
      </trkpt>
      <trkpt lat="42.96756148338318" lon="1.1034071445465088">
        <ele>420.91993880634317</ele>
        <time>2021-07-14T21:51:35.734Z</time>
      </trkpt>
      <trkpt lat="42.96726107597351" lon="1.1029136180877686">
        <ele>421.47807719969205</ele>
        <time>2021-07-14T21:51:44.612Z</time>
      </trkpt>
      <trkpt lat="42.967143058776855" lon="1.1026668548583984">
        <ele>422.0012019425611</ele>
        <time>2021-07-14T21:51:53.494Z</time>
      </trkpt>
      <trkpt lat="42.96704649925232" lon="1.1023879051208496">
        <ele>422.54753820342455</ele>
        <time>2021-07-14T21:52:02.379Z</time>
      </trkpt>
      <trkpt lat="42.96699293889105" lon="1.1021733283996582">
        <ele>423.09329853927574</ele>
        <time>2021-07-14T21:52:11.267Z</time>
      </trkpt>
      <trkpt lat="42.96705722808838" lon="1.1021089553833008">
        <ele>423.6111248285372</ele>
        <time>2021-07-14T21:52:20.156Z</time>
      </trkpt>
      <trkpt lat="42.96706795692444" lon="1.1020660400390625">
        <ele>424.1159808605669</ele>
        <time>2021-07-14T21:52:29.046Z</time>
      </trkpt>
      <trkpt lat="42.96706804074347" lon="1.1019587516784668">
        <ele>424.61797112134036</ele>
        <time>2021-07-14T21:52:37.937Z</time>
      </trkpt>
      <trkpt lat="42.9670250415802" lon="1.1018836498260498">
        <ele>425.1168198664934</ele>
        <time>2021-07-14T21:52:46.829Z</time>
      </trkpt>
      <trkpt lat="42.96699285507202" lon="1.1018621921539307">
        <ele>425.61221487497346</ele>
        <time>2021-07-14T21:52:55.722Z</time>
      </trkpt>
      <trkpt lat="42.966928482055664" lon="1.1018621921539307">
        <ele>426.1037588551202</ele>
        <time>2021-07-14T21:53:04.616Z</time>
      </trkpt>
      <trkpt lat="42.9668212775141" lon="1.1007678508758545">
        <ele>426.59935071977</ele>
        <time>2021-07-14T21:53:13.523Z</time>
      </trkpt>
      <trkpt lat="42.96658515930176" lon="1.099083423614502">
        <ele>427.27167485250754</ele>
        <time>2021-07-14T21:53:22.450Z</time>
      </trkpt>
      <trkpt lat="42.96653151512146" lon="1.0988473892211914">
        <ele>427.736705450659</ele>
        <time>2021-07-14T21:53:31.380Z</time>
      </trkpt>
      <trkpt lat="42.966456497088075" lon="1.0986435413360596">
        <ele>428.200010666078</ele>
        <time>2021-07-14T21:53:40.312Z</time>
      </trkpt>
      <trkpt lat="42.96584486961365" lon="1.0975706577301025">
        <ele>428.6364499970224</ele>
        <time>2021-07-14T21:53:49.260Z</time>
      </trkpt>
      <trkpt lat="42.965233409777284" lon="1.0966694355010986">
        <ele>429.148175516213</ele>
        <time>2021-07-14T21:53:58.223Z</time>
      </trkpt>
      <trkpt lat="42.96472907066345" lon="1.0958969593048096">
        <ele>429.56527370655715</ele>
        <time>2021-07-14T21:54:07.198Z</time>
      </trkpt>
      <trkpt lat="42.96404250897467" lon="1.094909906387329">
        <ele>430.0495925755242</ele>
        <time>2021-07-14T21:54:16.189Z</time>
      </trkpt>
      <trkpt lat="42.96401032246649" lon="1.0948669910430908">
        <ele>430.4747675469314</ele>
        <time>2021-07-14T21:54:25.181Z</time>
      </trkpt>
      <trkpt lat="42.9639030341059" lon="1.0946846008300781">
        <ele>430.9232917621116</ele>
        <time>2021-07-14T21:54:34.175Z</time>
      </trkpt>
      <trkpt lat="42.963677728548646" lon="1.0942983627319336">
        <ele>431.41725628912786</ele>
        <time>2021-07-14T21:54:43.175Z</time>
      </trkpt>
      <trkpt lat="42.96323776245117" lon="1.0935258865356445">
        <ele>431.7719037316086</ele>
        <time>2021-07-14T21:54:52.187Z</time>
      </trkpt>
      <trkpt lat="42.9630446434021" lon="1.0932791233062744">
        <ele>432.0864903482707</ele>
        <time>2021-07-14T21:55:01.203Z</time>
      </trkpt>
      <trkpt lat="42.96302326954901" lon="1.0932576656341553">
        <ele>432.4251047045884</ele>
        <time>2021-07-14T21:55:10.219Z</time>
      </trkpt>
      <trkpt lat="42.962679946795106" lon="1.0929358005523682">
        <ele>432.74759076503653</ele>
        <time>2021-07-14T21:55:19.242Z</time>
      </trkpt>
      <trkpt lat="42.96260476112366" lon="1.0928714275360107">
        <ele>433.0635473192864</ele>
        <time>2021-07-14T21:55:28.266Z</time>
      </trkpt>
      <trkpt lat="42.96250820159912" lon="1.0926353931427002">
        <ele>433.37223052613615</ele>
        <time>2021-07-14T21:55:37.294Z</time>
      </trkpt>
      <trkpt lat="42.96249747276306" lon="1.0925710201263428">
        <ele>433.6751810298299</ele>
        <time>2021-07-14T21:55:46.322Z</time>
      </trkpt>
      <trkpt lat="42.962433099746704" lon="1.0925066471099854">
        <ele>433.9669503201363</ele>
        <time>2021-07-14T21:55:55.352Z</time>
      </trkpt>
      <trkpt lat="42.96228289604187" lon="1.0923027992248535">
        <ele>434.26007212256695</ele>
        <time>2021-07-14T21:56:04.385Z</time>
      </trkpt>
      <trkpt lat="42.96202540397644" lon="1.0917341709136963">
        <ele>434.6274662328035</ele>
        <time>2021-07-14T21:56:13.426Z</time>
      </trkpt>
      <trkpt lat="42.961885929107666" lon="1.0913372039794922">
        <ele>434.9678635420869</ele>
        <time>2021-07-14T21:56:22.472Z</time>
      </trkpt>
      <trkpt lat="42.96180018223822" lon="1.090918779373169">
        <ele>435.3000431261182</ele>
        <time>2021-07-14T21:56:31.523Z</time>
      </trkpt>
      <trkpt lat="42.96178945340216" lon="1.090843677520752">
        <ele>435.5350837347833</ele>
        <time>2021-07-14T21:56:40.575Z</time>
      </trkpt>
      <trkpt lat="42.96159625053406" lon="1.08964204788208">
        <ele>435.7136107825098</ele>
        <time>2021-07-14T21:56:49.642Z</time>
      </trkpt>
      <trkpt lat="42.9615318775177" lon="1.0888588428497314">
        <ele>435.9002137928421</ele>
        <time>2021-07-14T21:56:58.718Z</time>
      </trkpt>
      <trkpt lat="42.96145677566528" lon="1.088494062423706">
        <ele>436.0601909836621</ele>
        <time>2021-07-14T21:57:07.798Z</time>
      </trkpt>
      <trkpt lat="42.96112418174744" lon="1.0878503322601318">
        <ele>436.1285325162374</ele>
        <time>2021-07-14T21:57:16.888Z</time>
      </trkpt>
      <trkpt lat="42.96075940132141" lon="1.0872602462768555">
        <ele>436.38951859439555</ele>
        <time>2021-07-14T21:57:25.987Z</time>
      </trkpt>
      <trkpt lat="42.96056628227234" lon="1.087024211883545">
        <ele>436.60445512341016</ele>
        <time>2021-07-14T21:57:35.090Z</time>
      </trkpt>
      <trkpt lat="42.96052345074713" lon="1.0870027542114258">
        <ele>436.81509264579586</ele>
        <time>2021-07-14T21:57:44.193Z</time>
      </trkpt>
      <trkpt lat="42.96033024787903" lon="1.0869061946868896">
        <ele>437.03468794466437</ele>
        <time>2021-07-14T21:57:53.300Z</time>
      </trkpt>
      <trkpt lat="42.95979380607605" lon="1.0867667198181152">
        <ele>437.22442177308665</ele>
        <time>2021-07-14T21:58:02.416Z</time>
      </trkpt>
      <trkpt lat="42.95927882194519" lon="1.086573600769043">
        <ele>437.5360487331427</ele>
        <time>2021-07-14T21:58:11.540Z</time>
      </trkpt>
      <trkpt lat="42.9589569568634" lon="1.0863590240478516">
        <ele>437.83900849034427</ele>
        <time>2021-07-14T21:58:20.670Z</time>
      </trkpt>
      <trkpt lat="42.95874238014221" lon="1.0860693454742432">
        <ele>438.1167676716142</ele>
        <time>2021-07-14T21:58:29.805Z</time>
      </trkpt>
      <trkpt lat="42.95853853225708" lon="1.085371971130371">
        <ele>438.39947709824105</ele>
        <time>2021-07-14T21:58:38.948Z</time>
      </trkpt>
      <trkpt lat="42.95809864997864" lon="1.0848784446716309">
        <ele>438.7358685502405</ele>
        <time>2021-07-14T21:58:48.101Z</time>
      </trkpt>
      <trkpt lat="42.95776605606079" lon="1.0847282409667969">
        <ele>439.09606513649544</ele>
        <time>2021-07-14T21:58:57.259Z</time>
      </trkpt>
      <trkpt lat="42.95705795288086" lon="1.084502935409546">
        <ele>439.446095944065</ele>
        <time>2021-07-14T21:59:06.429Z</time>
      </trkpt>
      <trkpt lat="42.95677900314331" lon="1.0843205451965332">
        <ele>439.8117276070576</ele>
        <time>2021-07-14T21:59:15.604Z</time>
      </trkpt>
      <trkpt lat="42.9560387134552" lon="1.0833120346069336">
        <ele>440.205786404482</ele>
        <time>2021-07-14T21:59:24.795Z</time>
      </trkpt>
      <trkpt lat="42.954933727160096" lon="1.081005334854126">
        <ele>440.81067030110665</ele>
        <time>2021-07-14T21:59:34.019Z</time>
      </trkpt>
      <trkpt lat="42.954933643341064" lon="1.081005334854126">
        <ele>441.22219955950305</ele>
        <time>2021-07-14T21:59:43.243Z</time>
      </trkpt>
      <trkpt lat="42.95446157455444" lon="1.0801362991333008">
        <ele>441.613600667177</ele>
        <time>2021-07-14T21:59:52.480Z</time>
      </trkpt>
      <trkpt lat="42.95417197979987" lon="1.0791921615600586">
        <ele>442.0962056326823</ele>
        <time>2021-07-14T22:00:01.729Z</time>
      </trkpt>
      <trkpt lat="42.953431606292725" lon="1.0779154300689697">
        <ele>442.5977318977782</ele>
        <time>2021-07-14T22:00:10.997Z</time>
      </trkpt>
      <trkpt lat="42.952466094866395" lon="1.0766816139221191">
        <ele>443.1848386027508</ele>
        <time>2021-07-14T22:00:20.286Z</time>
      </trkpt>
      <trkpt lat="42.95246601104736" lon="1.0766816139221191">
        <ele>443.6465909433482</ele>
        <time>2021-07-14T22:00:29.575Z</time>
      </trkpt>
      <trkpt lat="42.95187592506409" lon="1.075834035873413">
        <ele>444.14142285229923</ele>
        <time>2021-07-14T22:00:38.878Z</time>
      </trkpt>
      <trkpt lat="42.95112490653992" lon="1.0749006271362305">
        <ele>444.6350582924947</ele>
        <time>2021-07-14T22:00:48.197Z</time>
      </trkpt>
      <trkpt lat="42.95079231262207" lon="1.0743319988250732">
        <ele>445.1422904531699</ele>
        <time>2021-07-14T22:00:57.524Z</time>
      </trkpt>
      <trkpt lat="42.95061000622809" lon="1.0739350318908691">
        <ele>445.6531228397944</ele>
        <time>2021-07-14T22:01:06.857Z</time>
      </trkpt>
      <trkpt lat="42.95006283558905" lon="1.0727763175964355">
        <ele>446.22003268618903</ele>
        <time>2021-07-14T22:01:16.206Z</time>
      </trkpt>
      <trkpt lat="42.949912548065186" lon="1.072465181350708">
        <ele>446.72449466078024</ele>
        <time>2021-07-14T22:01:25.559Z</time>
      </trkpt>
      <trkpt lat="42.949730241671205" lon="1.0721969604492188">
        <ele>447.28310338144945</ele>
        <time>2021-07-14T22:01:34.917Z</time>
      </trkpt>
      <trkpt lat="42.94952639378607" lon="1.072014570236206">
        <ele>447.83950835007283</ele>
        <time>2021-07-14T22:01:44.279Z</time>
      </trkpt>
      <trkpt lat="42.94951566495001" lon="1.0720038414001465">
        <ele>448.36352049102567</ele>
        <time>2021-07-14T22:01:53.641Z</time>
      </trkpt>
      <trkpt lat="42.949161529541016" lon="1.0716712474822998">
        <ele>448.8308205149775</ele>
        <time>2021-07-14T22:02:03.010Z</time>
      </trkpt>
      <trkpt lat="42.948925495147705" lon="1.0713815689086914">
        <ele>449.2991447014444</ele>
        <time>2021-07-14T22:02:12.384Z</time>
      </trkpt>
      <trkpt lat="42.9488290194422" lon="1.0711884498596191">
        <ele>449.88498694140964</ele>
        <time>2021-07-14T22:02:21.761Z</time>
      </trkpt>
      <trkpt lat="42.94876456260681" lon="1.0710704326629639">
        <ele>450.51215094346423</ele>
        <time>2021-07-14T22:02:31.139Z</time>
      </trkpt>
      <trkpt lat="42.948646545410156" lon="1.0707056522369385">
        <ele>451.19127127706827</ele>
        <time>2021-07-14T22:02:40.522Z</time>
      </trkpt>
      <trkpt lat="42.94857144355774" lon="1.0704481601715088">
        <ele>451.8400370321556</ele>
        <time>2021-07-14T22:02:49.908Z</time>
      </trkpt>
      <trkpt lat="42.948442697525024" lon="1.06941819190979">
        <ele>452.6128096951964</ele>
        <time>2021-07-14T22:02:59.307Z</time>
      </trkpt>
      <trkpt lat="42.94829249382019" lon="1.068720817565918">
        <ele>453.36701814320634</ele>
        <time>2021-07-14T22:03:08.714Z</time>
      </trkpt>
      <trkpt lat="42.94827103614807" lon="1.06842041015625">
        <ele>454.09894539879053</ele>
        <time>2021-07-14T22:03:18.125Z</time>
      </trkpt>
      <trkpt lat="42.9482711199671" lon="1.0679805278778076">
        <ele>454.8543318772098</ele>
        <time>2021-07-14T22:03:27.541Z</time>
      </trkpt>
      <trkpt lat="42.94826030731201" lon="1.0669398307800293">
        <ele>455.71674618723546</ele>
        <time>2021-07-14T22:03:36.969Z</time>
      </trkpt>
      <trkpt lat="42.94826039113104" lon="1.066371202468872">
        <ele>456.6435892424312</ele>
        <time>2021-07-14T22:03:46.404Z</time>
      </trkpt>
      <trkpt lat="42.948142290115356" lon="1.0648906230926514">
        <ele>457.67503836339455</ele>
        <time>2021-07-14T22:03:55.856Z</time>
      </trkpt>
      <trkpt lat="42.94788479804993" lon="1.0626912117004395">
        <ele>458.5988701895195</ele>
        <time>2021-07-14T22:04:05.334Z</time>
      </trkpt>
      <trkpt lat="42.94772386550903" lon="1.0619723796844482">
        <ele>459.5069955104839</ele>
        <time>2021-07-14T22:04:14.821Z</time>
      </trkpt>
      <trkpt lat="42.94774532318115" lon="1.0617578029632568">
        <ele>460.5141602483809</ele>
        <time>2021-07-14T22:04:24.311Z</time>
      </trkpt>
      <trkpt lat="42.9483784083277" lon="1.0590648651123047">
        <ele>461.84685475101026</ele>
        <time>2021-07-14T22:04:33.834Z</time>
      </trkpt>
      <trkpt lat="42.948249662294984" lon="1.0585176944732666">
        <ele>462.94858003779206</ele>
        <time>2021-07-14T22:04:43.364Z</time>
      </trkpt>
      <trkpt lat="42.94762738980353" lon="1.0573053359985352">
        <ele>464.12476305028446</ele>
        <time>2021-07-14T22:04:52.911Z</time>
      </trkpt>
      <trkpt lat="42.9476273059845" lon="1.0573053359985352">
        <ele>465.2466316556993</ele>
        <time>2021-07-14T22:05:02.458Z</time>
      </trkpt>
      <trkpt lat="42.94749855995178" lon="1.0569298267364502">
        <ele>466.34553690222435</ele>
        <time>2021-07-14T22:05:12.010Z</time>
      </trkpt>
      <trkpt lat="42.947402000427246" lon="1.0562539100646973">
        <ele>467.6166145200504</ele>
        <time>2021-07-14T22:05:21.570Z</time>
      </trkpt>
      <trkpt lat="42.94734835624695" lon="1.0552990436553955">
        <ele>468.82586884633963</ele>
        <time>2021-07-14T22:05:31.141Z</time>
      </trkpt>
      <trkpt lat="42.94731616973877" lon="1.055009365081787">
        <ele>470.0514300727383</ele>
        <time>2021-07-14T22:05:40.716Z</time>
      </trkpt>
      <trkpt lat="42.947219694033265" lon="1.0546445846557617">
        <ele>471.32575706049056</ele>
        <time>2021-07-14T22:05:50.295Z</time>
      </trkpt>
      <trkpt lat="42.94721961021423" lon="1.0546445846557617">
        <ele>472.56403647200875</ele>
        <time>2021-07-14T22:05:59.874Z</time>
      </trkpt>
      <trkpt lat="42.946951389312744" lon="1.0535824298858643">
        <ele>474.03418080604877</ele>
        <time>2021-07-14T22:06:09.467Z</time>
      </trkpt>
      <trkpt lat="42.94683337211609" lon="1.052842140197754">
        <ele>475.3858726484377</ele>
        <time>2021-07-14T22:06:19.068Z</time>
      </trkpt>
      <trkpt lat="42.946693897247314" lon="1.0516297817230225">
        <ele>476.70856037672206</ele>
        <time>2021-07-14T22:06:28.684Z</time>
      </trkpt>
      <trkpt lat="42.946704626083374" lon="1.051318645477295">
        <ele>478.02256158862735</ele>
        <time>2021-07-14T22:06:38.304Z</time>
      </trkpt>
      <trkpt lat="42.94677972793579" lon="1.050964593887329">
        <ele>479.36875811690635</ele>
        <time>2021-07-14T22:06:47.928Z</time>
      </trkpt>
      <trkpt lat="42.9470157623291" lon="1.0500848293304443">
        <ele>480.64354742600244</ele>
        <time>2021-07-14T22:06:57.563Z</time>
      </trkpt>
      <trkpt lat="42.94704794883728" lon="1.049666404724121">
        <ele>481.94807980578275</ele>
        <time>2021-07-14T22:07:07.203Z</time>
      </trkpt>
      <trkpt lat="42.9470157623291" lon="1.0492801666259766">
        <ele>483.13303448264486</ele>
        <time>2021-07-14T22:07:16.847Z</time>
      </trkpt>
      <trkpt lat="42.94654369354248" lon="1.0475742816925049">
        <ele>484.50807395845015</ele>
        <time>2021-07-14T22:07:26.513Z</time>
      </trkpt>
      <trkpt lat="42.94631838798523" lon="1.046673059463501">
        <ele>485.64383896959725</ele>
        <time>2021-07-14T22:07:36.190Z</time>
      </trkpt>
      <trkpt lat="42.94625401496887" lon="1.0462331771850586">
        <ele>486.7821708720028</ele>
        <time>2021-07-14T22:07:45.872Z</time>
      </trkpt>
      <trkpt lat="42.94607162475586" lon="1.043550968170166">
        <ele>487.93223353959735</ele>
        <time>2021-07-14T22:07:55.586Z</time>
      </trkpt>
      <trkpt lat="42.94601798057556" lon="1.0432720184326172">
        <ele>489.0759544485491</ele>
        <time>2021-07-14T22:08:05.303Z</time>
      </trkpt>
      <trkpt lat="42.945942878723145" lon="1.0429930686950684">
        <ele>490.1760417258099</ele>
        <time>2021-07-14T22:08:15.024Z</time>
      </trkpt>
      <trkpt lat="42.94576057232916" lon="1.0425209999084473">
        <ele>491.0994821833724</ele>
        <time>2021-07-14T22:08:24.751Z</time>
      </trkpt>
      <trkpt lat="42.94576048851013" lon="1.0425209999084473">
        <ele>492.0924196628931</ele>
        <time>2021-07-14T22:08:34.478Z</time>
      </trkpt>
      <trkpt lat="42.94547080993652" lon="1.0420596599578857">
        <ele>493.17072323524525</ele>
        <time>2021-07-14T22:08:44.212Z</time>
      </trkpt>
      <trkpt lat="42.94506311416626" lon="1.0410618782043457">
        <ele>494.2091619108139</ele>
        <time>2021-07-14T22:08:53.960Z</time>
      </trkpt>
      <trkpt lat="42.94477343559265" lon="1.040557622909546">
        <ele>495.1206396572877</ele>
        <time>2021-07-14T22:09:03.715Z</time>
      </trkpt>
      <trkpt lat="42.943453788757324" lon="1.038658618927002">
        <ele>496.2377792870751</ele>
        <time>2021-07-14T22:09:13.501Z</time>
      </trkpt>
      <trkpt lat="42.94330366887152" lon="1.0384869575500488">
        <ele>497.1706762345065</ele>
        <time>2021-07-14T22:09:23.290Z</time>
      </trkpt>
      <trkpt lat="42.94330358505249" lon="1.0384869575500488">
        <ele>498.0338899711079</ele>
        <time>2021-07-14T22:09:33.079Z</time>
      </trkpt>
      <trkpt lat="42.943153381347656" lon="1.0383689403533936">
        <ele>498.90372351128804</ele>
        <time>2021-07-14T22:09:42.871Z</time>
      </trkpt>
      <trkpt lat="42.94155478477478" lon="1.0373497009277344">
        <ele>499.7960008179758</ele>
        <time>2021-07-14T22:09:52.691Z</time>
      </trkpt>
      <trkpt lat="42.94124364852905" lon="1.037135124206543">
        <ele>500.5917978252166</ele>
        <time>2021-07-14T22:10:02.517Z</time>
      </trkpt>
      <trkpt lat="42.94109344482422" lon="1.036984920501709">
        <ele>501.4302344341786</ele>
        <time>2021-07-14T22:10:12.346Z</time>
      </trkpt>
      <trkpt lat="42.940696477890015" lon="1.0363733768463135">
        <ele>502.2255202066086</ele>
        <time>2021-07-14T22:10:22.184Z</time>
      </trkpt>
      <trkpt lat="42.94050335884094" lon="1.0361266136169434">
        <ele>503.1057026334024</ele>
        <time>2021-07-14T22:10:32.026Z</time>
      </trkpt>
      <trkpt lat="42.939966917037964" lon="1.0356009006500244">
        <ele>504.1301345245681</ele>
        <time>2021-07-14T22:10:41.879Z</time>
      </trkpt>
      <trkpt lat="42.93981671333313" lon="1.0354399681091309">
        <ele>505.00596852138244</ele>
        <time>2021-07-14T22:10:51.735Z</time>
      </trkpt>
      <trkpt lat="42.939677238464355" lon="1.0351932048797607">
        <ele>505.84839525002724</ele>
        <time>2021-07-14T22:11:01.595Z</time>
      </trkpt>
      <trkpt lat="42.93884038925171" lon="1.033315658569336">
        <ele>506.63371792164884</ele>
        <time>2021-07-14T22:11:11.480Z</time>
      </trkpt>
      <trkpt lat="42.93867954052985" lon="1.0330796241760254">
        <ele>507.5300719486421</ele>
        <time>2021-07-14T22:11:21.369Z</time>
      </trkpt>
      <trkpt lat="42.938679456710815" lon="1.0330796241760254">
        <ele>508.41992349732607</ele>
        <time>2021-07-14T22:11:31.258Z</time>
      </trkpt>
      <trkpt lat="42.9384005907923" lon="1.032789945602417">
        <ele>509.4094771192563</ele>
        <time>2021-07-14T22:11:41.153Z</time>
      </trkpt>
      <trkpt lat="42.93783187866211" lon="1.0323500633239746">
        <ele>510.40949205062816</ele>
        <time>2021-07-14T22:11:51.058Z</time>
      </trkpt>
      <trkpt lat="42.93768175877631" lon="1.032189130783081">
        <ele>511.384897145984</ele>
        <time>2021-07-14T22:12:00.966Z</time>
      </trkpt>
      <trkpt lat="42.937681674957275" lon="1.032189130783081">
        <ele>512.3999241860668</ele>
        <time>2021-07-14T22:12:10.874Z</time>
      </trkpt>
      <trkpt lat="42.93753147125244" lon="1.03196382522583">
        <ele>513.4347609445196</ele>
        <time>2021-07-14T22:12:20.786Z</time>
      </trkpt>
      <trkpt lat="42.937413454055786" lon="1.031738519668579">
        <ele>514.524252799238</ele>
        <time>2021-07-14T22:12:30.701Z</time>
      </trkpt>
      <trkpt lat="42.93729552067816" lon="1.0313844680786133">
        <ele>515.705923213601</ele>
        <time>2021-07-14T22:12:40.621Z</time>
      </trkpt>
      <trkpt lat="42.937188148498535" lon="1.03096604347229">
        <ele>516.9092212875062</ele>
        <time>2021-07-14T22:12:50.546Z</time>
      </trkpt>
      <trkpt lat="42.937016570940614" lon="1.0305261611938477">
        <ele>518.1899633132977</ele>
        <time>2021-07-14T22:13:00.477Z</time>
      </trkpt>
      <trkpt lat="42.93701648712158" lon="1.0305261611938477">
        <ele>519.4531600952425</ele>
        <time>2021-07-14T22:13:10.408Z</time>
      </trkpt>
      <trkpt lat="42.93680191040039" lon="1.030193567276001">
        <ele>520.8767019522538</ele>
        <time>2021-07-14T22:13:20.344Z</time>
      </trkpt>
      <trkpt lat="42.93599724769592" lon="1.0291635990142822">
        <ele>522.2751087024736</ele>
        <time>2021-07-14T22:13:30.298Z</time>
      </trkpt>
      <trkpt lat="42.93575048446655" lon="1.0289812088012695">
        <ele>523.7014903065553</ele>
        <time>2021-07-14T22:13:40.256Z</time>
      </trkpt>
      <trkpt lat="42.93409824371338" lon="1.0280048847198486">
        <ele>525.0382310422815</ele>
        <time>2021-07-14T22:13:50.243Z</time>
      </trkpt>
      <trkpt lat="42.93375492095947" lon="1.0278654098510742">
        <ele>526.4741824427088</ele>
        <time>2021-07-14T22:14:00.236Z</time>
      </trkpt>
      <trkpt lat="42.93354034423828" lon="1.0278332233428955">
        <ele>527.9319210260833</ele>
        <time>2021-07-14T22:14:10.232Z</time>
      </trkpt>
      <trkpt lat="42.93337941169739" lon="1.0278546810150146">
        <ele>529.375421367142</ele>
        <time>2021-07-14T22:14:20.231Z</time>
      </trkpt>
      <trkpt lat="42.93310046195984" lon="1.0279083251953125">
        <ele>530.7964704967485</ele>
        <time>2021-07-14T22:14:30.234Z</time>
      </trkpt>
      <trkpt lat="42.93209203518927" lon="1.0283374786376953">
        <ele>532.2130267994642</ele>
        <time>2021-07-14T22:14:40.254Z</time>
      </trkpt>
      <trkpt lat="42.931008422747254" lon="1.0287988185882568">
        <ele>533.8279630609114</ele>
        <time>2021-07-14T22:14:50.292Z</time>
      </trkpt>
      <trkpt lat="42.92883038520813" lon="1.0297214984893799">
        <ele>535.5624435948268</ele>
        <time>2021-07-14T22:15:00.367Z</time>
      </trkpt>
      <trkpt lat="42.92831540107727" lon="1.0297966003417969">
        <ele>536.8663416191359</ele>
        <time>2021-07-14T22:15:10.450Z</time>
      </trkpt>
      <trkpt lat="42.92726397514343" lon="1.029742956161499">
        <ele>538.2126272136115</ele>
        <time>2021-07-14T22:15:20.550Z</time>
      </trkpt>
      <trkpt lat="42.92641639709473" lon="1.0296034812927246">
        <ele>539.5300676821224</ele>
        <time>2021-07-14T22:15:30.664Z</time>
      </trkpt>
      <trkpt lat="42.925708293914795" lon="1.0296249389648438">
        <ele>540.5207299658618</ele>
        <time>2021-07-14T22:15:40.789Z</time>
      </trkpt>
      <trkpt lat="42.92503237724304" lon="1.0299038887023926">
        <ele>541.7283530960776</ele>
        <time>2021-07-14T22:15:50.925Z</time>
      </trkpt>
      <trkpt lat="42.922693490982056" lon="1.0312557220458984">
        <ele>542.4557928683926</ele>
        <time>2021-07-14T22:16:01.102Z</time>
      </trkpt>
      <trkpt lat="42.92269357480109" lon="1.0312557220458984">
        <ele>543.1098040527328</ele>
        <time>2021-07-14T22:16:11.279Z</time>
      </trkpt>
      <trkpt lat="42.922478914260864" lon="1.0313844680786133">
        <ele>543.5760200099487</ele>
        <time>2021-07-14T22:16:21.460Z</time>
      </trkpt>
      <trkpt lat="42.92232871055603" lon="1.0314273834228516">
        <ele>543.9413930954385</ele>
        <time>2021-07-14T22:16:31.643Z</time>
      </trkpt>
      <trkpt lat="42.92232879437506" lon="1.0314273834228516">
        <ele>544.1701951958744</ele>
        <time>2021-07-14T22:16:41.826Z</time>
      </trkpt>
      <trkpt lat="42.92210340499878" lon="1.031491756439209">
        <ele>544.3098134778418</ele>
        <time>2021-07-14T22:16:52.013Z</time>
      </trkpt>
      <trkpt lat="42.92180308140814" lon="1.0315239429473877">
        <ele>544.2565019699698</ele>
        <time>2021-07-14T22:17:02.205Z</time>
      </trkpt>
      <trkpt lat="42.921438217163086" lon="1.0315454006195068">
        <ele>544.1676792342996</ele>
        <time>2021-07-14T22:17:12.403Z</time>
      </trkpt>
      <trkpt lat="42.92144265957177" lon="1.0316492523998022">
        <ele>543.808991695605</ele>
        <time>2021-07-14T22:17:22.602Z</time>
      </trkpt>
      <trkpt lat="42.92144265957177" lon="1.031649336218834">
        <ele>543.2866707919552</ele>
        <time>2021-07-14T22:17:32.801Z</time>
      </trkpt>
      <trkpt lat="42.92143830098212" lon="1.0315454006195068">
        <ele>542.6055657947572</ele>
        <time>2021-07-14T22:17:43.001Z</time>
      </trkpt>
      <trkpt lat="42.92129874229431" lon="1.0315239429473877">
        <ele>541.8681463827504</ele>
        <time>2021-07-14T22:17:53.203Z</time>
      </trkpt>
      <trkpt lat="42.92138465680182" lon="1.0306119918823242">
        <ele>540.5613162727946</ele>
        <time>2021-07-14T22:18:03.416Z</time>
      </trkpt>
      <trkpt lat="42.92138457298279" lon="1.0306119918823242">
        <ele>539.5160676466937</ele>
        <time>2021-07-14T22:18:13.629Z</time>
      </trkpt>
      <trkpt lat="42.92166352272034" lon="1.0300004482269287">
        <ele>538.1250706204296</ele>
        <time>2021-07-14T22:18:23.850Z</time>
      </trkpt>
      <trkpt lat="42.921738708391786" lon="1.029893159866333">
        <ele>536.8533093597205</ele>
        <time>2021-07-14T22:18:34.073Z</time>
      </trkpt>
      <trkpt lat="42.92213559150696" lon="1.0293996334075928">
        <ele>535.2837101179629</ele>
        <time>2021-07-14T22:18:44.305Z</time>
      </trkpt>
      <trkpt lat="42.92237162590027" lon="1.029195785522461">
        <ele>533.8628897364157</ele>
        <time>2021-07-14T22:18:54.541Z</time>
      </trkpt>
      <trkpt lat="42.92250037193298" lon="1.029142141342163">
        <ele>532.4229372919602</ele>
        <time>2021-07-14T22:19:04.779Z</time>
      </trkpt>
      <trkpt lat="42.92280077934265" lon="1.0291314125061035">
        <ele>530.8709673318554</ele>
        <time>2021-07-14T22:19:15.022Z</time>
      </trkpt>
      <trkpt lat="42.922961711883545" lon="1.0291099548339844">
        <ele>529.3572738769369</ele>
        <time>2021-07-14T22:19:25.268Z</time>
      </trkpt>
      <trkpt lat="42.92309045791626" lon="1.029067039489746">
        <ele>527.822502598015</ele>
        <time>2021-07-14T22:19:35.516Z</time>
      </trkpt>
      <trkpt lat="42.92371281422675" lon="1.0285305976867676">
        <ele>526.0887400366748</ele>
        <time>2021-07-14T22:19:45.776Z</time>
      </trkpt>
      <trkpt lat="42.923755729570985" lon="1.0285091400146484">
        <ele>524.6743849770655</ele>
        <time>2021-07-14T22:19:56.036Z</time>
      </trkpt>
      <trkpt lat="42.92389512062073" lon="1.028444766998291">
        <ele>523.2390468869414</ele>
        <time>2021-07-14T22:20:06.299Z</time>
      </trkpt>
      <trkpt lat="42.92484998703003" lon="1.0283160209655762">
        <ele>521.8342192658965</ele>
        <time>2021-07-14T22:20:16.577Z</time>
      </trkpt>
      <trkpt lat="42.92508602142334" lon="1.0281872749328613">
        <ele>520.6199727295339</ele>
        <time>2021-07-14T22:20:26.859Z</time>
      </trkpt>
      <trkpt lat="42.925214767456055" lon="1.028069257736206">
        <ele>519.4340567195602</ele>
        <time>2021-07-14T22:20:37.144Z</time>
      </trkpt>
      <trkpt lat="42.92534351348877" lon="1.0279083251953125">
        <ele>518.325290469709</ele>
        <time>2021-07-14T22:20:47.432Z</time>
      </trkpt>
      <trkpt lat="42.925719022750854" lon="1.0274147987365723">
        <ele>517.241533710734</ele>
        <time>2021-07-14T22:20:57.728Z</time>
      </trkpt>
      <trkpt lat="42.92604088783264" lon="1.0269320011138916">
        <ele>516.3037628958286</ele>
        <time>2021-07-14T22:21:08.032Z</time>
      </trkpt>
      <trkpt lat="42.92652368545532" lon="1.0265350341796875">
        <ele>515.5356822952303</ele>
        <time>2021-07-14T22:21:18.345Z</time>
      </trkpt>
      <trkpt lat="42.927199602127075" lon="1.0258913040161133">
        <ele>514.5409883019418</ele>
        <time>2021-07-14T22:21:28.671Z</time>
      </trkpt>
      <trkpt lat="42.927703857421875" lon="1.0258805751800537">
        <ele>513.861902906395</ele>
        <time>2021-07-14T22:21:39.005Z</time>
      </trkpt>
      <trkpt lat="42.92788633145392" lon="1.025848388671875">
        <ele>513.3252102541705</ele>
        <time>2021-07-14T22:21:49.342Z</time>
      </trkpt>
      <trkpt lat="42.92783260345459" lon="1.0255908966064453">
        <ele>512.7687246770186</ele>
        <time>2021-07-14T22:21:59.682Z</time>
      </trkpt>
      <trkpt lat="42.92781114578247" lon="1.025376319885254">
        <ele>512.3242395897489</ele>
        <time>2021-07-14T22:22:10.024Z</time>
      </trkpt>
      <trkpt lat="42.92780050076544" lon="1.025097370147705">
        <ele>512.0080482552528</ele>
        <time>2021-07-14T22:22:20.370Z</time>
      </trkpt>
      <trkpt lat="42.92778977192938" lon="1.0247540473937988">
        <ele>511.8317784990736</ele>
        <time>2021-07-14T22:22:30.720Z</time>
      </trkpt>
      <trkpt lat="42.92778968811035" lon="1.0247540473937988">
        <ele>511.6404900068931</ele>
        <time>2021-07-14T22:22:41.070Z</time>
      </trkpt>
      <trkpt lat="42.92778977192938" lon="1.02447509765625">
        <ele>511.5984634591069</ele>
        <time>2021-07-14T22:22:51.423Z</time>
      </trkpt>
      <trkpt lat="42.927961433306336" lon="1.0239815711975098">
        <ele>511.68281016634205</ele>
        <time>2021-07-14T22:23:01.782Z</time>
      </trkpt>
      <trkpt lat="42.9280149936676" lon="1.023799180984497">
        <ele>511.7515833289473</ele>
        <time>2021-07-14T22:23:12.144Z</time>
      </trkpt>
      <trkpt lat="42.92805790901184" lon="1.0235631465911865">
        <ele>511.8298529182174</ele>
        <time>2021-07-14T22:23:22.509Z</time>
      </trkpt>
      <trkpt lat="42.92806872166693" lon="1.0233485698699951">
        <ele>511.9211182877781</ele>
        <time>2021-07-14T22:23:32.876Z</time>
      </trkpt>
      <trkpt lat="42.928015077486634" lon="1.0229194164276123">
        <ele>511.978172859852</ele>
        <time>2021-07-14T22:23:43.248Z</time>
      </trkpt>
      <trkpt lat="42.927939891815186" lon="1.022704839706421">
        <ele>512.0576879542417</ele>
        <time>2021-07-14T22:23:53.623Z</time>
      </trkpt>
      <trkpt lat="42.92754292488098" lon="1.0219752788543701">
        <ele>512.2296805373232</ele>
        <time>2021-07-14T22:24:04.009Z</time>
      </trkpt>
      <trkpt lat="42.926974296569824" lon="1.0209667682647705">
        <ele>512.3352072230339</ele>
        <time>2021-07-14T22:24:14.410Z</time>
      </trkpt>
      <trkpt lat="42.92689927853644" lon="1.0207843780517578">
        <ele>512.5526555079538</ele>
        <time>2021-07-14T22:24:24.813Z</time>
      </trkpt>
      <trkpt lat="42.92680263519287" lon="1.0205698013305664">
        <ele>512.7482488248363</ele>
        <time>2021-07-14T22:24:35.219Z</time>
      </trkpt>
      <trkpt lat="42.926738345995545" lon="1.0203337669372559">
        <ele>512.8991961397857</ele>
        <time>2021-07-14T22:24:45.628Z</time>
      </trkpt>
      <trkpt lat="42.926727617159486" lon="1.0201728343963623">
        <ele>513.0038611679582</ele>
        <time>2021-07-14T22:24:56.039Z</time>
      </trkpt>
      <trkpt lat="42.926695346832275" lon="1.0196363925933838">
        <ele>512.9893383521257</ele>
        <time>2021-07-14T22:25:06.456Z</time>
      </trkpt>
      <trkpt lat="42.92664178647101" lon="1.0191106796264648">
        <ele>513.212461215838</ele>
        <time>2021-07-14T22:25:16.880Z</time>
      </trkpt>
      <trkpt lat="42.92662024497986" lon="1.018606424331665">
        <ele>513.4779933903184</ele>
        <time>2021-07-14T22:25:27.309Z</time>
      </trkpt>
      <trkpt lat="42.9266631603241" lon="1.0182416439056396">
        <ele>513.7788555623681</ele>
        <time>2021-07-14T22:25:37.743Z</time>
      </trkpt>
      <trkpt lat="42.92687773704529" lon="1.0174691677093506">
        <ele>514.0730566746764</ele>
        <time>2021-07-14T22:25:48.187Z</time>
      </trkpt>
      <trkpt lat="42.92703866958618" lon="1.0170400142669678">
        <ele>514.4072180962305</ele>
        <time>2021-07-14T22:25:58.636Z</time>
      </trkpt>
      <trkpt lat="42.92737126350403" lon="1.0164499282836914">
        <ele>514.7330694330526</ele>
        <time>2021-07-14T22:26:09.094Z</time>
      </trkpt>
      <trkpt lat="42.92745717801154" lon="1.0162353515625">
        <ele>515.0217308291468</ele>
        <time>2021-07-14T22:26:19.555Z</time>
      </trkpt>
      <trkpt lat="42.9275107383728" lon="1.015913486480713">
        <ele>515.2671968962885</ele>
        <time>2021-07-14T22:26:30.020Z</time>
      </trkpt>
      <trkpt lat="42.927510822191834" lon="1.015763282775879">
        <ele>515.5687508881127</ele>
        <time>2021-07-14T22:26:40.486Z</time>
      </trkpt>
      <trkpt lat="42.927478551864624" lon="1.015613079071045">
        <ele>515.8975685256925</ele>
        <time>2021-07-14T22:26:50.954Z</time>
      </trkpt>
      <trkpt lat="42.92734980583191" lon="1.0152482986450195">
        <ele>516.2408541580437</ele>
        <time>2021-07-14T22:27:01.427Z</time>
      </trkpt>
      <trkpt lat="42.927006483078" lon="1.0146689414978027">
        <ele>516.6353395289973</ele>
        <time>2021-07-14T22:27:11.909Z</time>
      </trkpt>
      <trkpt lat="42.926974380388856" lon="1.0146045684814453">
        <ele>517.0497000266555</ele>
        <time>2021-07-14T22:27:22.392Z</time>
      </trkpt>
      <trkpt lat="42.92686709202826" lon="1.014411449432373">
        <ele>517.5001017794493</ele>
        <time>2021-07-14T22:27:32.878Z</time>
      </trkpt>
      <trkpt lat="42.926759803667665" lon="1.01423978805542">
        <ele>517.959338545736</ele>
        <time>2021-07-14T22:27:43.366Z</time>
      </trkpt>
      <trkpt lat="42.92675971984863" lon="1.01423978805542">
        <ele>518.4396297556937</ele>
        <time>2021-07-14T22:27:53.854Z</time>
      </trkpt>
      <trkpt lat="42.926684617996216" lon="1.014111042022705">
        <ele>518.9386070440814</ele>
        <time>2021-07-14T22:28:04.344Z</time>
      </trkpt>
      <trkpt lat="42.926427125930786" lon="1.0133171081542969">
        <ele>519.4162530082667</ele>
        <time>2021-07-14T22:28:14.844Z</time>
      </trkpt>
      <trkpt lat="42.92607307434082" lon="1.0122978687286377">
        <ele>520.12849313011</ele>
        <time>2021-07-14T22:28:25.358Z</time>
      </trkpt>
      <trkpt lat="42.92589068412781" lon="1.0115468502044678">
        <ele>520.7110828097282</ele>
        <time>2021-07-14T22:28:35.881Z</time>
      </trkpt>
      <trkpt lat="42.925719022750854" lon="1.0106563568115234">
        <ele>521.3464091277269</ele>
        <time>2021-07-14T22:28:46.415Z</time>
      </trkpt>
      <trkpt lat="42.92559027671814" lon="1.0089826583862305">
        <ele>521.9870338055919</ele>
        <time>2021-07-14T22:28:56.969Z</time>
      </trkpt>
      <trkpt lat="42.92540788650513" lon="1.0062789916992188">
        <ele>522.7563499188054</ele>
        <time>2021-07-14T22:29:07.554Z</time>
      </trkpt>
      <trkpt lat="42.925429344177246" lon="1.005399227142334">
        <ele>523.4932864821542</ele>
        <time>2021-07-14T22:29:18.150Z</time>
      </trkpt>
      <trkpt lat="42.925472343340516" lon="1.0046160221099854">
        <ele>524.1425960269768</ele>
        <time>2021-07-14T22:29:28.755Z</time>
      </trkpt>
      <trkpt lat="42.925472259521484" lon="1.0046160221099854">
        <ele>524.7838141771699</ele>
        <time>2021-07-14T22:29:39.360Z</time>
      </trkpt>
      <trkpt lat="42.9255473613739" lon="1.0040903091430664">
        <ele>525.4950558769666</ele>
        <time>2021-07-14T22:29:49.971Z</time>
      </trkpt>
      <trkpt lat="42.925676107406616" lon="1.0032856464385986">
        <ele>526.1393542620141</ele>
        <time>2021-07-14T22:30:00.592Z</time>
      </trkpt>
      <trkpt lat="42.92584776878357" lon="1.0024166107177734">
        <ele>526.7149723876216</ele>
        <time>2021-07-14T22:30:11.224Z</time>
      </trkpt>
      <trkpt lat="42.925955057144165" lon="1.0019338130950928">
        <ele>527.3728150922077</ele>
        <time>2021-07-14T22:30:21.862Z</time>
      </trkpt>
      <trkpt lat="42.92611598968506" lon="1.0014724731445312">
        <ele>528.0762038135088</ele>
        <time>2021-07-14T22:30:32.506Z</time>
      </trkpt>
      <trkpt lat="42.92629837989807" lon="1.0011398792266846">
        <ele>528.7417340281979</ele>
        <time>2021-07-14T22:30:43.154Z</time>
      </trkpt>
      <trkpt lat="42.9265558719635" lon="1.000732183456421">
        <ele>529.4491962829379</ele>
        <time>2021-07-14T22:30:53.809Z</time>
      </trkpt>
      <trkpt lat="42.927435636520386" lon="0.9993374347686768">
        <ele>530.0409540909684</ele>
        <time>2021-07-14T22:31:04.485Z</time>
      </trkpt>
      <trkpt lat="42.928186655044556" lon="0.9978246688842773">
        <ele>530.6809095388592</ele>
        <time>2021-07-14T22:31:15.183Z</time>
      </trkpt>
      <trkpt lat="42.928465604782104" lon="0.9973526000976562">
        <ele>531.2807932793285</ele>
        <time>2021-07-14T22:31:25.888Z</time>
      </trkpt>
      <trkpt lat="42.92875528335571" lon="0.9968912601470947">
        <ele>531.8782615107757</ele>
        <time>2021-07-14T22:31:36.600Z</time>
      </trkpt>
      <trkpt lat="42.92938828468323" lon="0.9960436820983887">
        <ele>532.5284308963263</ele>
        <time>2021-07-14T22:31:47.326Z</time>
      </trkpt>
      <trkpt lat="42.92987108230591" lon="0.9953999519348145">
        <ele>533.1401907083005</ele>
        <time>2021-07-14T22:31:58.063Z</time>
      </trkpt>
      <trkpt lat="42.92998909950256" lon="0.9951746463775635">
        <ele>533.6346536715309</ele>
        <time>2021-07-14T22:32:08.803Z</time>
      </trkpt>
      <trkpt lat="42.9300856590271" lon="0.9949386119842529">
        <ele>534.1554748629328</ele>
        <time>2021-07-14T22:32:19.546Z</time>
      </trkpt>
      <trkpt lat="42.9301393032074" lon="0.9947025775909424">
        <ele>534.6608826109764</ele>
        <time>2021-07-14T22:32:30.292Z</time>
      </trkpt>
      <trkpt lat="42.93026804924011" lon="0.993887186050415">
        <ele>535.0214320030832</ele>
        <time>2021-07-14T22:32:41.048Z</time>
      </trkpt>
      <trkpt lat="42.93035396374762" lon="0.9935009479522705">
        <ele>535.5109638955062</ele>
        <time>2021-07-14T22:32:51.809Z</time>
      </trkpt>
      <trkpt lat="42.93040752410889" lon="0.9933829307556152">
        <ele>535.9948085484725</ele>
        <time>2021-07-14T22:33:02.572Z</time>
      </trkpt>
      <trkpt lat="42.93051481246948" lon="0.9932434558868408">
        <ele>536.4882775427033</ele>
        <time>2021-07-14T22:33:13.337Z</time>
      </trkpt>
      <trkpt lat="42.93087959289551" lon="0.992889404296875">
        <ele>537.0615951523007</ele>
        <time>2021-07-14T22:33:24.109Z</time>
      </trkpt>
      <trkpt lat="42.931169271469116" lon="0.9924709796905518">
        <ele>537.6502392760182</ele>
        <time>2021-07-14T22:33:34.888Z</time>
      </trkpt>
      <trkpt lat="42.93125510215759" lon="0.9923958778381348">
        <ele>538.1292795512811</ele>
        <time>2021-07-14T22:33:45.668Z</time>
      </trkpt>
      <trkpt lat="42.931480491533875" lon="0.9922993183135986">
        <ele>538.6206714664052</ele>
        <time>2021-07-14T22:33:56.452Z</time>
      </trkpt>
      <trkpt lat="42.93187737464905" lon="0.9921383857727051">
        <ele>539.1094895066726</ele>
        <time>2021-07-14T22:34:07.243Z</time>
      </trkpt>
      <trkpt lat="42.931963205337524" lon="0.9920954704284668">
        <ele>539.5239085412442</ele>
        <time>2021-07-14T22:34:18.035Z</time>
      </trkpt>
      <trkpt lat="42.932006204500794" lon="0.9920203685760498">
        <ele>539.9230555078678</ele>
        <time>2021-07-14T22:34:28.828Z</time>
      </trkpt>
      <trkpt lat="42.93200612068176" lon="0.9920203685760498">
        <ele>540.3246747634225</ele>
        <time>2021-07-14T22:34:39.621Z</time>
      </trkpt>
      <trkpt lat="42.93208122253418" lon="0.9918808937072754">
        <ele>540.7324860793785</ele>
        <time>2021-07-14T22:34:50.417Z</time>
      </trkpt>
      <trkpt lat="42.93211340904236" lon="0.9917306900024414">
        <ele>541.1349062321956</ele>
        <time>2021-07-14T22:35:01.214Z</time>
      </trkpt>
      <trkpt lat="42.93214559555054" lon="0.9915268421173096">
        <ele>541.5392279055674</ele>
        <time>2021-07-14T22:35:12.014Z</time>
      </trkpt>
      <trkpt lat="42.932199239730835" lon="0.9909689426422119">
        <ele>541.8707402700718</ele>
        <time>2021-07-14T22:35:22.820Z</time>
      </trkpt>
      <trkpt lat="42.93229579925537" lon="0.990443229675293">
        <ele>542.2794942821781</ele>
        <time>2021-07-14T22:35:33.633Z</time>
      </trkpt>
      <trkpt lat="42.93229579925537" lon="0.9903252124786377">
        <ele>542.6523982705055</ele>
        <time>2021-07-14T22:35:44.447Z</time>
      </trkpt>
      <trkpt lat="42.93228507041931" lon="0.9901750087738037">
        <ele>543.0391941926692</ele>
        <time>2021-07-14T22:35:55.263Z</time>
      </trkpt>
      <trkpt lat="42.932167053222656" lon="0.9894239902496338">
        <ele>543.5051606687205</ele>
        <time>2021-07-14T22:36:06.088Z</time>
      </trkpt>
      <trkpt lat="42.93207049369812" lon="0.9886300563812256">
        <ele>543.8053916786757</ele>
        <time>2021-07-14T22:36:16.922Z</time>
      </trkpt>
      <trkpt lat="42.93205976486206" lon="0.9880936145782471">
        <ele>544.1178458324741</ele>
        <time>2021-07-14T22:36:27.763Z</time>
      </trkpt>
      <trkpt lat="42.93212413787842" lon="0.9872567653656006">
        <ele>544.4563238439399</ele>
        <time>2021-07-14T22:36:38.614Z</time>
      </trkpt>
      <trkpt lat="42.93213486671448" lon="0.9869992733001709">
        <ele>544.769095174981</ele>
        <time>2021-07-14T22:36:49.468Z</time>
      </trkpt>
      <trkpt lat="42.93212413787842" lon="0.9867525100708008">
        <ele>545.0706217946541</ele>
        <time>2021-07-14T22:37:00.325Z</time>
      </trkpt>
      <trkpt lat="42.93205984868109" lon="0.9859800338745117">
        <ele>545.3038247974603</ele>
        <time>2021-07-14T22:37:11.191Z</time>
      </trkpt>
      <trkpt lat="42.93201684951782" lon="0.9856259822845459">
        <ele>545.6390722643671</ele>
        <time>2021-07-14T22:37:22.061Z</time>
      </trkpt>
      <trkpt lat="42.93201684951782" lon="0.9851539134979248">
        <ele>545.941591246866</ele>
        <time>2021-07-14T22:37:32.936Z</time>
      </trkpt>
      <trkpt lat="42.93207049369812" lon="0.9846603870391846">
        <ele>546.2179874453742</ele>
        <time>2021-07-14T22:37:43.817Z</time>
      </trkpt>
      <trkpt lat="42.93225288391113" lon="0.9835231304168701">
        <ele>546.6267812652359</ele>
        <time>2021-07-14T22:37:54.712Z</time>
      </trkpt>
      <trkpt lat="42.93238162994385" lon="0.9830617904663086">
        <ele>546.9454221205401</ele>
        <time>2021-07-14T22:38:05.613Z</time>
      </trkpt>
      <trkpt lat="42.932692766189575" lon="0.9822678565979004">
        <ele>547.3936148121958</ele>
        <time>2021-07-14T22:38:16.524Z</time>
      </trkpt>
      <trkpt lat="42.93283224105835" lon="0.9817636013031006">
        <ele>547.8158035866016</ele>
        <time>2021-07-14T22:38:27.442Z</time>
      </trkpt>
      <trkpt lat="42.932950258255005" lon="0.9811735153198242">
        <ele>548.1418731219605</ele>
        <time>2021-07-14T22:38:38.367Z</time>
      </trkpt>
      <trkpt lat="42.93310046195984" lon="0.980154275894165">
        <ele>548.4114886352147</ele>
        <time>2021-07-14T22:38:49.304Z</time>
      </trkpt>
      <trkpt lat="42.933207750320435" lon="0.9795534610748291">
        <ele>548.7220173060468</ele>
        <time>2021-07-14T22:39:00.248Z</time>
      </trkpt>
      <trkpt lat="42.93332576751709" lon="0.9789848327636719">
        <ele>549.0256221890791</ele>
        <time>2021-07-14T22:39:11.199Z</time>
      </trkpt>
      <trkpt lat="42.93339014053345" lon="0.9787595272064209">
        <ele>549.4027316691507</ele>
        <time>2021-07-14T22:39:22.153Z</time>
      </trkpt>
      <trkpt lat="42.933454513549805" lon="0.9785664081573486">
        <ele>549.760780877376</ele>
        <time>2021-07-14T22:39:33.110Z</time>
      </trkpt>
      <trkpt lat="42.93354034423828" lon="0.9783947467803955">
        <ele>550.1292097646342</ele>
        <time>2021-07-14T22:39:44.069Z</time>
      </trkpt>
      <trkpt lat="42.93413043022156" lon="0.9773755073547363">
        <ele>550.5393804960639</ele>
        <time>2021-07-14T22:39:55.043Z</time>
      </trkpt>
      <trkpt lat="42.93432354927063" lon="0.9770643711090088">
        <ele>550.9571115162055</ele>
        <time>2021-07-14T22:40:06.022Z</time>
      </trkpt>
      <trkpt lat="42.93465614318848" lon="0.9766888618469238">
        <ele>551.4128521573427</ele>
        <time>2021-07-14T22:40:17.008Z</time>
      </trkpt>
      <trkpt lat="42.93489217758179" lon="0.9764635562896729">
        <ele>551.8536776300682</ele>
        <time>2021-07-14T22:40:27.999Z</time>
      </trkpt>
      <trkpt lat="42.93507465161383" lon="0.976259708404541">
        <ele>552.3294964075296</ele>
        <time>2021-07-14T22:40:38.993Z</time>
      </trkpt>
      <trkpt lat="42.9350745677948" lon="0.976259708404541">
        <ele>552.8042984312074</ele>
        <time>2021-07-14T22:40:49.987Z</time>
      </trkpt>
      <trkpt lat="42.935171127319336" lon="0.97603440284729">
        <ele>553.3096973382318</ele>
        <time>2021-07-14T22:41:00.985Z</time>
      </trkpt>
      <trkpt lat="42.93564327992499" lon="0.9743714332580566">
        <ele>553.7721223017616</ele>
        <time>2021-07-14T22:41:12.003Z</time>
      </trkpt>
      <trkpt lat="42.93567546643317" lon="0.9742105007171631">
        <ele>554.3114922160266</ele>
        <time>2021-07-14T22:41:23.023Z</time>
      </trkpt>
      <trkpt lat="42.93569692410529" lon="0.9740817546844482">
        <ele>554.8606942474412</ele>
        <time>2021-07-14T22:41:34.045Z</time>
      </trkpt>
      <trkpt lat="42.935750568285584" lon="0.9738028049468994">
        <ele>555.4508577571297</ele>
        <time>2021-07-14T22:41:45.070Z</time>
      </trkpt>
      <trkpt lat="42.93589004315436" lon="0.9731805324554443">
        <ele>556.0891582944184</ele>
        <time>2021-07-14T22:41:56.103Z</time>
      </trkpt>
      <trkpt lat="42.9359329584986" lon="0.9729659557342529">
        <ele>556.7327990666415</ele>
        <time>2021-07-14T22:42:07.139Z</time>
      </trkpt>
      <trkpt lat="42.93627619743347" lon="0.9712064266204834">
        <ele>557.4935091683187</ele>
        <time>2021-07-14T22:42:18.196Z</time>
      </trkpt>
      <trkpt lat="42.936512315645814" lon="0.9701550006866455">
        <ele>558.2986248087502</ele>
        <time>2021-07-14T22:42:29.266Z</time>
      </trkpt>
      <trkpt lat="42.93651223182678" lon="0.9701550006866455">
        <ele>558.9811811774304</ele>
        <time>2021-07-14T22:42:40.336Z</time>
      </trkpt>
      <trkpt lat="42.93681263923645" lon="0.96854567527771">
        <ele>559.8737349577843</ele>
        <time>2021-07-14T22:42:51.425Z</time>
      </trkpt>
      <trkpt lat="42.936962842941284" lon="0.9678912162780762">
        <ele>560.8483281667145</ele>
        <time>2021-07-14T22:43:02.523Z</time>
      </trkpt>
      <trkpt lat="42.9370379447937" lon="0.9674191474914551">
        <ele>561.5058870647255</ele>
        <time>2021-07-14T22:43:13.626Z</time>
      </trkpt>
      <trkpt lat="42.93702721595764" lon="0.9668505191802979">
        <ele>562.2580974916209</ele>
        <time>2021-07-14T22:43:24.736Z</time>
      </trkpt>
      <trkpt lat="42.936973655596375" lon="0.9661424160003662">
        <ele>562.7938642422973</ele>
        <time>2021-07-14T22:43:35.854Z</time>
      </trkpt>
      <trkpt lat="42.936962926760316" lon="0.9658098220825195">
        <ele>563.4400131189595</ele>
        <time>2021-07-14T22:43:46.976Z</time>
      </trkpt>
      <trkpt lat="42.936909198760986" lon="0.9651124477386475">
        <ele>564.1232284685375</ele>
        <time>2021-07-14T22:43:58.106Z</time>
      </trkpt>
      <trkpt lat="42.93663024902344" lon="0.9637606143951416">
        <ele>564.8393190036094</ele>
        <time>2021-07-14T22:44:09.253Z</time>
      </trkpt>
      <trkpt lat="42.936501586809754" lon="0.9634494781494141">
        <ele>565.590703240128</ele>
        <time>2021-07-14T22:44:20.404Z</time>
      </trkpt>
      <trkpt lat="42.936426401138306" lon="0.9633529186248779">
        <ele>566.2217079410173</ele>
        <time>2021-07-14T22:44:31.557Z</time>
      </trkpt>
      <trkpt lat="42.936179637908936" lon="0.9630632400512695">
        <ele>566.909550549753</ele>
        <time>2021-07-14T22:44:42.715Z</time>
      </trkpt>
      <trkpt lat="42.93614753521979" lon="0.9629344940185547">
        <ele>567.4935628276048</ele>
        <time>2021-07-14T22:44:53.875Z</time>
      </trkpt>
      <trkpt lat="42.936168909072876" lon="0.9628915786743164">
        <ele>568.0357559954822</ele>
        <time>2021-07-14T22:45:05.035Z</time>
      </trkpt>
      <trkpt lat="42.936211908236146" lon="0.9628379344940186">
        <ele>568.5451788446571</ele>
        <time>2021-07-14T22:45:16.196Z</time>
      </trkpt>
      <trkpt lat="42.936469400301576" lon="0.9626984596252441">
        <ele>568.8986803471386</ele>
        <time>2021-07-14T22:45:27.362Z</time>
      </trkpt>
      <trkpt lat="42.936716079711914" lon="0.9625160694122314">
        <ele>569.3492565717777</ele>
        <time>2021-07-14T22:45:38.532Z</time>
      </trkpt>
      <trkpt lat="42.93688774108887" lon="0.9623229503631592">
        <ele>569.891773855348</ele>
        <time>2021-07-14T22:45:49.706Z</time>
      </trkpt>
      <trkpt lat="42.936995113268495" lon="0.9621298313140869">
        <ele>570.4934536347901</ele>
        <time>2021-07-14T22:46:00.882Z</time>
      </trkpt>
      <trkpt lat="42.93699502944946" lon="0.9621298313140869">
        <ele>571.0451504946898</ele>
        <time>2021-07-14T22:46:12.058Z</time>
      </trkpt>
      <trkpt lat="42.93710231781006" lon="0.9618616104125977">
        <ele>571.6338837649505</ele>
        <time>2021-07-14T22:46:23.238Z</time>
      </trkpt>
      <trkpt lat="42.937155961990356" lon="0.9616148471832275">
        <ele>572.2473477665235</ele>
        <time>2021-07-14T22:46:34.421Z</time>
      </trkpt>
      <trkpt lat="42.937188148498535" lon="0.9605205059051514">
        <ele>572.9661665893487</ele>
        <time>2021-07-14T22:46:45.617Z</time>
      </trkpt>
      <trkpt lat="42.937177419662476" lon="0.9594905376434326">
        <ele>573.6867314055673</ele>
        <time>2021-07-14T22:46:56.825Z</time>
      </trkpt>
      <trkpt lat="42.937198877334595" lon="0.9588253498077393">
        <ele>574.3265523856762</ele>
        <time>2021-07-14T22:47:08.041Z</time>
      </trkpt>
      <trkpt lat="42.93726325035095" lon="0.9580743312835693">
        <ele>575.3125473480899</ele>
        <time>2021-07-14T22:47:19.266Z</time>
      </trkpt>
      <trkpt lat="42.93725252151489" lon="0.9575808048248291">
        <ele>575.9131901265134</ele>
        <time>2021-07-14T22:47:30.497Z</time>
      </trkpt>
      <trkpt lat="42.937198877334595" lon="0.9573018550872803">
        <ele>576.5209803863436</ele>
        <time>2021-07-14T22:47:41.731Z</time>
      </trkpt>
      <trkpt lat="42.93708086013794" lon="0.9570229053497314">
        <ele>577.034130086032</ele>
        <time>2021-07-14T22:47:52.969Z</time>
      </trkpt>
      <trkpt lat="42.936683893203735" lon="0.956186056137085">
        <ele>577.5009352890172</ele>
        <time>2021-07-14T22:48:04.218Z</time>
      </trkpt>
      <trkpt lat="42.93663024902344" lon="0.955960750579834">
        <ele>578.0791204392862</ele>
        <time>2021-07-14T22:48:15.470Z</time>
      </trkpt>
      <trkpt lat="42.93660879135132" lon="0.9557676315307617">
        <ele>578.6219504075681</ele>
        <time>2021-07-14T22:48:26.725Z</time>
      </trkpt>
      <trkpt lat="42.93663024902344" lon="0.9555208683013916">
        <ele>579.2141551797415</ele>
        <time>2021-07-14T22:48:37.982Z</time>
      </trkpt>
      <trkpt lat="42.936662435531616" lon="0.9553277492523193">
        <ele>579.8345729498476</ele>
        <time>2021-07-14T22:48:49.242Z</time>
      </trkpt>
      <trkpt lat="42.936726808547974" lon="0.9551239013671875">
        <ele>580.4361285847749</ele>
        <time>2021-07-14T22:49:00.504Z</time>
      </trkpt>
      <trkpt lat="42.93708086013794" lon="0.9543943405151367">
        <ele>581.1614318845627</ele>
        <time>2021-07-14T22:49:11.777Z</time>
      </trkpt>
      <trkpt lat="42.937510097399354" lon="0.9536969661712646">
        <ele>582.0013170630548</ele>
        <time>2021-07-14T22:49:23.060Z</time>
      </trkpt>
      <trkpt lat="42.93751001358032" lon="0.9536969661712646">
        <ele>582.7487952253773</ele>
        <time>2021-07-14T22:49:34.343Z</time>
      </trkpt>
      <trkpt lat="42.93777831830084" lon="0.9533107280731201">
        <ele>583.5802629134608</ele>
        <time>2021-07-14T22:49:45.633Z</time>
      </trkpt>
      <trkpt lat="42.93788552284241" lon="0.9530746936798096">
        <ele>584.4738290651192</ele>
        <time>2021-07-14T22:49:56.926Z</time>
      </trkpt>
      <trkpt lat="42.937928438186646" lon="0.9528279304504395">
        <ele>585.4600657253745</ele>
        <time>2021-07-14T22:50:08.222Z</time>
      </trkpt>
      <trkpt lat="42.937917709350586" lon="0.9524953365325928">
        <ele>586.4029053689263</ele>
        <time>2021-07-14T22:50:19.522Z</time>
      </trkpt>
      <trkpt lat="42.93785333633423" lon="0.9520447254180908">
        <ele>587.4091688169663</ele>
        <time>2021-07-14T22:50:30.827Z</time>
      </trkpt>
      <trkpt lat="42.937692403793335" lon="0.9516477584838867">
        <ele>588.4184436308465</ele>
        <time>2021-07-14T22:50:42.138Z</time>
      </trkpt>
      <trkpt lat="42.93755292892456" lon="0.9513795375823975">
        <ele>589.3888468765676</ele>
        <time>2021-07-14T22:50:53.452Z</time>
      </trkpt>
      <trkpt lat="42.937477827072144" lon="0.9511971473693848">
        <ele>590.3846102102559</ele>
        <time>2021-07-14T22:51:04.769Z</time>
      </trkpt>
      <trkpt lat="42.937445640563965" lon="0.9510469436645508">
        <ele>591.4268754575146</ele>
        <time>2021-07-14T22:51:16.088Z</time>
      </trkpt>
      <trkpt lat="42.937424182891846" lon="0.9508752822875977">
        <ele>592.5438868784752</ele>
        <time>2021-07-14T22:51:27.409Z</time>
      </trkpt>
      <trkpt lat="42.937434911727905" lon="0.950242280960083">
        <ele>593.9839392256793</ele>
        <time>2021-07-14T22:51:38.737Z</time>
      </trkpt>
      <trkpt lat="42.937424182891846" lon="0.949941873550415">
        <ele>595.2749605218721</ele>
        <time>2021-07-14T22:51:50.069Z</time>
      </trkpt>
      <trkpt lat="42.93737053871155" lon="0.9495234489440918">
        <ele>596.6250521371844</ele>
        <time>2021-07-14T22:52:01.406Z</time>
      </trkpt>
      <trkpt lat="42.937177419662476" lon="0.9483861923217773">
        <ele>598.1796010123624</ele>
        <time>2021-07-14T22:52:12.756Z</time>
      </trkpt>
      <trkpt lat="42.93710231781006" lon="0.9480106830596924">
        <ele>599.6995254658093</ele>
        <time>2021-07-14T22:52:24.111Z</time>
      </trkpt>
      <trkpt lat="42.93701648712158" lon="0.9478390216827393">
        <ele>601.1334757991433</ele>
        <time>2021-07-14T22:52:35.468Z</time>
      </trkpt>
      <trkpt lat="42.93689846992493" lon="0.9476780891418457">
        <ele>602.5524789282555</ele>
        <time>2021-07-14T22:52:46.828Z</time>
      </trkpt>
      <trkpt lat="42.93666251935065" lon="0.9474849700927734">
        <ele>603.881657797426</ele>
        <time>2021-07-14T22:52:58.192Z</time>
      </trkpt>
      <trkpt lat="42.936662435531616" lon="0.9474849700927734">
        <ele>605.2844356036665</ele>
        <time>2021-07-14T22:53:09.556Z</time>
      </trkpt>
      <trkpt lat="42.93607234954834" lon="0.9470558166503906">
        <ele>606.7532841323593</ele>
        <time>2021-07-14T22:53:20.931Z</time>
      </trkpt>
      <trkpt lat="42.93584704399109" lon="0.9468197822570801">
        <ele>608.2108442054741</ele>
        <time>2021-07-14T22:53:32.311Z</time>
      </trkpt>
      <trkpt lat="42.935696840286255" lon="0.946648120880127">
        <ele>609.6993553426395</ele>
        <time>2021-07-14T22:53:43.694Z</time>
      </trkpt>
      <trkpt lat="42.935450077056885" lon="0.9461545944213867">
        <ele>611.3472551989105</ele>
        <time>2021-07-14T22:53:55.084Z</time>
      </trkpt>
      <trkpt lat="42.93536424636841" lon="0.94582200050354">
        <ele>612.9834077124907</ele>
        <time>2021-07-14T22:54:06.478Z</time>
      </trkpt>
      <trkpt lat="42.93533214367926" lon="0.9456181526184082">
        <ele>614.5346784233234</ele>
        <time>2021-07-14T22:54:17.874Z</time>
      </trkpt>
      <trkpt lat="42.93531060218811" lon="0.9454572200775146">
        <ele>616.019500084491</ele>
        <time>2021-07-14T22:54:29.272Z</time>
      </trkpt>
      <trkpt lat="42.93528922833502" lon="0.9449958801269531">
        <ele>617.4440821812613</ele>
        <time>2021-07-14T22:54:40.676Z</time>
      </trkpt>
      <trkpt lat="42.935267770662904" lon="0.9448885917663574">
        <ele>618.9113471382153</ele>
        <time>2021-07-14T22:54:52.081Z</time>
      </trkpt>
      <trkpt lat="42.935203313827515" lon="0.944448709487915">
        <ele>620.3805579363576</ele>
        <time>2021-07-14T22:55:03.491Z</time>
      </trkpt>
      <trkpt lat="42.935203397646546" lon="0.9441483020782471">
        <ele>621.9283733020304</ele>
        <time>2021-07-14T22:55:14.905Z</time>
      </trkpt>
      <trkpt lat="42.935214126482606" lon="0.9440946578979492">
        <ele>623.4498881842762</ele>
        <time>2021-07-14T22:55:26.320Z</time>
      </trkpt>
      <trkpt lat="42.93525695800781" lon="0.9437835216522217">
        <ele>625.0162645000632</ele>
        <time>2021-07-14T22:55:37.738Z</time>
      </trkpt>
      <trkpt lat="42.93533205986023" lon="0.9435582160949707">
        <ele>626.5388744903032</ele>
        <time>2021-07-14T22:55:49.159Z</time>
      </trkpt>
      <trkpt lat="42.9355788230896" lon="0.9430539608001709">
        <ele>628.1280114484496</ele>
        <time>2021-07-14T22:56:00.587Z</time>
      </trkpt>
      <trkpt lat="42.93591150082648" lon="0.942302942276001">
        <ele>629.7531458322198</ele>
        <time>2021-07-14T22:56:12.026Z</time>
      </trkpt>
      <trkpt lat="42.93612599372864" lon="0.9417986869812012">
        <ele>631.3822853710033</ele>
        <time>2021-07-14T22:56:23.472Z</time>
      </trkpt>
      <trkpt lat="42.93613680638373" lon="0.9416377544403076">
        <ele>632.9254811034641</ele>
        <time>2021-07-14T22:56:34.919Z</time>
      </trkpt>
      <trkpt lat="42.93613680638373" lon="0.9415733814239502">
        <ele>634.3986998664479</ele>
        <time>2021-07-14T22:56:46.367Z</time>
      </trkpt>
      <trkpt lat="42.9360830783844" lon="0.9413909912109375">
        <ele>636.0423774429169</ele>
        <time>2021-07-14T22:56:57.817Z</time>
      </trkpt>
      <trkpt lat="42.93602951802313" lon="0.9413373470306396">
        <ele>637.5214611738938</ele>
        <time>2021-07-14T22:57:09.269Z</time>
      </trkpt>
      <trkpt lat="42.935975790023804" lon="0.9413158893585205">
        <ele>638.9115861842912</ele>
        <time>2021-07-14T22:57:20.721Z</time>
      </trkpt>
      <trkpt lat="42.93562173843384" lon="0.9413588047027588">
        <ele>640.1952810376506</ele>
        <time>2021-07-14T22:57:32.179Z</time>
      </trkpt>
      <trkpt lat="42.93505311012268" lon="0.9413158893585205">
        <ele>641.6238225615607</ele>
        <time>2021-07-14T22:57:43.646Z</time>
      </trkpt>
      <trkpt lat="42.93489217758179" lon="0.9412622451782227">
        <ele>642.8416623031146</ele>
        <time>2021-07-14T22:57:55.116Z</time>
      </trkpt>
      <trkpt lat="42.93476343154907" lon="0.9411013126373291">
        <ele>644.048344463481</ele>
        <time>2021-07-14T22:58:06.589Z</time>
      </trkpt>
      <trkpt lat="42.93461331166327" lon="0.9407687187194824">
        <ele>645.2736981909418</ele>
        <time>2021-07-14T22:58:18.066Z</time>
      </trkpt>
      <trkpt lat="42.934463024139404" lon="0.9404253959655762">
        <ele>646.3500772555341</ele>
        <time>2021-07-14T22:58:29.548Z</time>
      </trkpt>
      <trkpt lat="42.93435573577881" lon="0.9401035308837891">
        <ele>647.3577625541336</ele>
        <time>2021-07-14T22:58:41.034Z</time>
      </trkpt>
      <trkpt lat="42.93429136276245" lon="0.9398031234741211">
        <ele>648.3429254550803</ele>
        <time>2021-07-14T22:58:52.524Z</time>
      </trkpt>
      <trkpt lat="42.934248531237245" lon="0.9395456314086914">
        <ele>649.2434933792692</ele>
        <time>2021-07-14T22:59:04.017Z</time>
      </trkpt>
      <trkpt lat="42.934226989746094" lon="0.9394276142120361">
        <ele>650.0748613916525</ele>
        <time>2021-07-14T22:59:15.511Z</time>
      </trkpt>
      <trkpt lat="42.93419488705695" lon="0.9383225440979004">
        <ele>651.1808723009256</ele>
        <time>2021-07-14T22:59:27.018Z</time>
      </trkpt>
      <trkpt lat="42.93414124287665" lon="0.9377861022949219">
        <ele>651.8799790720691</ele>
        <time>2021-07-14T22:59:38.532Z</time>
      </trkpt>
      <trkpt lat="42.93407678604126" lon="0.9371852874755859">
        <ele>652.468652640013</ele>
        <time>2021-07-14T22:59:50.053Z</time>
      </trkpt>
      <trkpt lat="42.934023225679994" lon="0.9369492530822754">
        <ele>652.8968849746259</ele>
        <time>2021-07-14T23:00:01.577Z</time>
      </trkpt>
      <trkpt lat="42.93402314186096" lon="0.9369492530822754">
        <ele>653.2608566284705</ele>
        <time>2021-07-14T23:00:13.101Z</time>
      </trkpt>
      <trkpt lat="42.933454513549805" lon="0.9357798099517822">
        <ele>653.5555667803671</ele>
        <time>2021-07-14T23:00:24.641Z</time>
      </trkpt>
      <trkpt lat="42.93311127461493" lon="0.9351253509521484">
        <ele>653.7195106813065</ele>
        <time>2021-07-14T23:00:36.191Z</time>
      </trkpt>
      <trkpt lat="42.93288588523865" lon="0.9347069263458252">
        <ele>653.6962820226681</ele>
        <time>2021-07-14T23:00:47.747Z</time>
      </trkpt>
      <trkpt lat="42.932714307680726" lon="0.9343314170837402">
        <ele>653.6139406035988</ele>
        <time>2021-07-14T23:00:59.308Z</time>
      </trkpt>
      <trkpt lat="42.93237098492682" lon="0.9336984157562256">
        <ele>653.4993955332908</ele>
        <time>2021-07-14T23:01:10.878Z</time>
      </trkpt>
      <trkpt lat="42.93237090110779" lon="0.9336984157562256">
        <ele>653.3411549298262</ele>
        <time>2021-07-14T23:01:22.448Z</time>
      </trkpt>
      <trkpt lat="42.93230652809143" lon="0.9335696697235107">
        <ele>653.1485108865754</ele>
        <time>2021-07-14T23:01:34.020Z</time>
      </trkpt>
      <trkpt lat="42.93183445930481" lon="0.9329795837402344">
        <ele>652.9192091691799</ele>
        <time>2021-07-14T23:01:45.602Z</time>
      </trkpt>
      <trkpt lat="42.93169506825507" lon="0.93284010887146">
        <ele>652.5095831160766</ele>
        <time>2021-07-14T23:01:57.187Z</time>
      </trkpt>
      <trkpt lat="42.931437492370605" lon="0.9325826168060303">
        <ele>652.0289716479231</ele>
        <time>2021-07-14T23:02:08.777Z</time>
      </trkpt>
      <trkpt lat="42.93113716877997" lon="0.932239294052124">
        <ele>651.5170584410234</ele>
        <time>2021-07-14T23:02:20.373Z</time>
      </trkpt>
      <trkpt lat="42.93085813522339" lon="0.9318637847900391">
        <ele>650.9038166020226</ele>
        <time>2021-07-14T23:02:31.976Z</time>
      </trkpt>
      <trkpt lat="42.930761659517884" lon="0.9317135810852051">
        <ele>650.2491774344505</ele>
        <time>2021-07-14T23:02:43.581Z</time>
      </trkpt>
      <trkpt lat="42.93037533760071" lon="0.931016206741333">
        <ele>649.6424947026055</ele>
        <time>2021-07-14T23:02:55.196Z</time>
      </trkpt>
      <trkpt lat="42.929924726486206" lon="0.9302759170532227">
        <ele>648.6756813488138</ele>
        <time>2021-07-14T23:03:06.823Z</time>
      </trkpt>
      <trkpt lat="42.92981743812561" lon="0.930018424987793">
        <ele>647.8214714884944</ele>
        <time>2021-07-14T23:03:18.453Z</time>
      </trkpt>
      <trkpt lat="42.929774606600404" lon="0.9298038482666016">
        <ele>646.9993405882628</ele>
        <time>2021-07-14T23:03:30.086Z</time>
      </trkpt>
      <trkpt lat="42.92976379394531" lon="0.9297287464141846">
        <ele>646.1750070471373</ele>
        <time>2021-07-14T23:03:41.720Z</time>
      </trkpt>
      <trkpt lat="42.92976379394531" lon="0.9295248985290527">
        <ele>645.3060546463274</ele>
        <time>2021-07-14T23:03:53.356Z</time>
      </trkpt>
      <trkpt lat="42.92980670928955" lon="0.9292995929718018">
        <ele>644.404110044227</ele>
        <time>2021-07-14T23:04:04.995Z</time>
      </trkpt>
      <trkpt lat="42.92984962463379" lon="0.9291708469390869">
        <ele>643.5217538444474</ele>
        <time>2021-07-14T23:04:16.635Z</time>
      </trkpt>
      <trkpt lat="42.929935455322266" lon="0.9290635585784912">
        <ele>642.6592776284836</ele>
        <time>2021-07-14T23:04:28.277Z</time>
      </trkpt>
      <trkpt lat="42.93010711669922" lon="0.9289026260375977">
        <ele>641.7942211153518</ele>
        <time>2021-07-14T23:04:39.923Z</time>
      </trkpt>
      <trkpt lat="42.93039687909186" lon="0.9287416934967041">
        <ele>640.9621117601296</ele>
        <time>2021-07-14T23:04:51.574Z</time>
      </trkpt>
      <trkpt lat="42.93039679527283" lon="0.9287416934967041">
        <ele>640.1256038350293</ele>
        <time>2021-07-14T23:05:03.225Z</time>
      </trkpt>
      <trkpt lat="42.93056845664978" lon="0.9286558628082275">
        <ele>639.2635538949761</ele>
        <time>2021-07-14T23:05:14.879Z</time>
      </trkpt>
      <trkpt lat="42.930943965911865" lon="0.9285914897918701">
        <ele>638.4452895781999</ele>
        <time>2021-07-14T23:05:26.539Z</time>
      </trkpt>
      <trkpt lat="42.931169271469116" lon="0.9285056591033936">
        <ele>637.6524542413349</ele>
        <time>2021-07-14T23:05:38.202Z</time>
      </trkpt>
      <trkpt lat="42.93135166168213" lon="0.9283447265625">
        <ele>636.9087074443</ele>
        <time>2021-07-14T23:05:49.869Z</time>
      </trkpt>
      <trkpt lat="42.931941747665405" lon="0.9277117252349854">
        <ele>636.2063925753763</ele>
        <time>2021-07-14T23:06:01.548Z</time>
      </trkpt>
      <trkpt lat="42.93202757835388" lon="0.9275400638580322">
        <ele>635.4904758407533</ele>
        <time>2021-07-14T23:06:13.229Z</time>
      </trkpt>
      <trkpt lat="42.93202757835388" lon="0.9274649620056152">
        <ele>634.8153438458023</ele>
        <time>2021-07-14T23:06:24.911Z</time>
      </trkpt>
      <trkpt lat="42.93200612068176" lon="0.9273254871368408">
        <ele>634.1511968972134</ele>
        <time>2021-07-14T23:06:36.595Z</time>
      </trkpt>
      <trkpt lat="42.93188810348511" lon="0.9271109104156494">
        <ele>633.4555065409207</ele>
        <time>2021-07-14T23:06:48.282Z</time>
      </trkpt>
      <trkpt lat="42.93183445930481" lon="0.9269499778747559">
        <ele>632.8698077651985</ele>
        <time>2021-07-14T23:06:59.971Z</time>
      </trkpt>
      <trkpt lat="42.93181300163269" lon="0.9267568588256836">
        <ele>632.3642058581852</ele>
        <time>2021-07-14T23:07:11.662Z</time>
      </trkpt>
      <trkpt lat="42.93182373046875" lon="0.926445722579956">
        <ele>631.918083796467</ele>
        <time>2021-07-14T23:07:23.357Z</time>
      </trkpt>
      <trkpt lat="42.93214559555054" lon="0.9241282939910889">
        <ele>631.288675637951</ele>
        <time>2021-07-14T23:07:35.080Z</time>
      </trkpt>
      <trkpt lat="42.93224215507507" lon="0.9236240386962891">
        <ele>630.9539419227021</ele>
        <time>2021-07-14T23:07:46.809Z</time>
      </trkpt>
      <trkpt lat="42.932456731796265" lon="0.9227120876312256">
        <ele>630.9341382163508</ele>
        <time>2021-07-14T23:07:58.549Z</time>
      </trkpt>
      <trkpt lat="42.93258547782898" lon="0.9220361709594727">
        <ele>630.8103524193295</ele>
        <time>2021-07-14T23:08:10.297Z</time>
      </trkpt>
      <trkpt lat="42.93261766433716" lon="0.9216713905334473">
        <ele>630.7159026624415</ele>
        <time>2021-07-14T23:08:22.050Z</time>
      </trkpt>
      <trkpt lat="42.9326605796814" lon="0.9205019474029541">
        <ele>630.9333635737729</ele>
        <time>2021-07-14T23:08:33.816Z</time>
      </trkpt>
      <trkpt lat="42.93263912200928" lon="0.9202659130096436">
        <ele>630.9685418762275</ele>
        <time>2021-07-14T23:08:45.585Z</time>
      </trkpt>
      <trkpt lat="42.93238171376288" lon="0.9193646907806396">
        <ele>630.9614186182895</ele>
        <time>2021-07-14T23:08:57.366Z</time>
      </trkpt>
      <trkpt lat="42.93238162994385" lon="0.9193646907806396">
        <ele>631.0901217627519</ele>
        <time>2021-07-14T23:09:09.147Z</time>
      </trkpt>
      <trkpt lat="42.93233879841864" lon="0.9192037582397461">
        <ele>631.2559495885116</ele>
        <time>2021-07-14T23:09:20.930Z</time>
      </trkpt>
      <trkpt lat="42.93233871459961" lon="0.9192037582397461">
        <ele>631.5020003609728</ele>
        <time>2021-07-14T23:09:32.713Z</time>
      </trkpt>
      <trkpt lat="42.932220697402954" lon="0.9186780452728271">
        <ele>631.7349264828131</ele>
        <time>2021-07-14T23:09:44.502Z</time>
      </trkpt>
      <trkpt lat="42.93213486671448" lon="0.9180986881256104">
        <ele>632.1053346744982</ele>
        <time>2021-07-14T23:09:56.298Z</time>
      </trkpt>
      <trkpt lat="42.9321026802063" lon="0.9178411960601807">
        <ele>632.6000093593641</ele>
        <time>2021-07-14T23:10:08.097Z</time>
      </trkpt>
      <trkpt lat="42.9321026802063" lon="0.9176158905029297">
        <ele>633.1597135786552</ele>
        <time>2021-07-14T23:10:19.899Z</time>
      </trkpt>
      <trkpt lat="42.9321563243866" lon="0.916982889175415">
        <ele>633.8028286206662</ele>
        <time>2021-07-14T23:10:31.708Z</time>
      </trkpt>
      <trkpt lat="42.93213486671448" lon="0.9168112277984619">
        <ele>634.3703349387001</ele>
        <time>2021-07-14T23:10:43.519Z</time>
      </trkpt>
      <trkpt lat="42.93209195137024" lon="0.9166395664215088">
        <ele>634.9915706846925</ele>
        <time>2021-07-14T23:10:55.332Z</time>
      </trkpt>
      <trkpt lat="42.93202757835388" lon="0.9164786338806152">
        <ele>635.6611876393788</ele>
        <time>2021-07-14T23:11:07.148Z</time>
      </trkpt>
      <trkpt lat="42.931920289993286" lon="0.9163284301757812">
        <ele>636.3575658374887</ele>
        <time>2021-07-14T23:11:18.966Z</time>
      </trkpt>
      <trkpt lat="42.93182373046875" lon="0.9162318706512451">
        <ele>637.0986355542354</ele>
        <time>2021-07-14T23:11:30.786Z</time>
      </trkpt>
      <trkpt lat="42.931727170944214" lon="0.9161460399627686">
        <ele>637.9166393789674</ele>
        <time>2021-07-14T23:11:42.608Z</time>
      </trkpt>
      <trkpt lat="42.93161988258362" lon="0.9160816669464111">
        <ele>638.8022400947445</ele>
        <time>2021-07-14T23:11:54.432Z</time>
      </trkpt>
      <trkpt lat="42.93105125427246" lon="0.9158670902252197">
        <ele>639.9079936858848</ele>
        <time>2021-07-14T23:12:06.265Z</time>
      </trkpt>
      <trkpt lat="42.93038606643677" lon="0.915759801864624">
        <ele>641.0409091895954</ele>
        <time>2021-07-14T23:12:18.109Z</time>
      </trkpt>
      <trkpt lat="42.930192947387695" lon="0.9157061576843262">
        <ele>642.0863795215437</ele>
        <time>2021-07-14T23:12:29.956Z</time>
      </trkpt>
      <trkpt lat="42.929999912157655" lon="0.9155988693237305">
        <ele>643.1726054165557</ele>
        <time>2021-07-14T23:12:41.806Z</time>
      </trkpt>
      <trkpt lat="42.92999982833862" lon="0.9155988693237305">
        <ele>644.2666122845067</ele>
        <time>2021-07-14T23:12:53.656Z</time>
      </trkpt>
      <trkpt lat="42.92991399765015" lon="0.9155237674713135">
        <ele>645.4075969669157</ele>
        <time>2021-07-14T23:13:05.508Z</time>
      </trkpt>
      <trkpt lat="42.929731691256166" lon="0.9152984619140625">
        <ele>646.604067637876</ele>
        <time>2021-07-14T23:13:17.364Z</time>
      </trkpt>
      <trkpt lat="42.929731607437134" lon="0.9152984619140625">
        <ele>647.7818859202779</ele>
        <time>2021-07-14T23:13:29.220Z</time>
      </trkpt>
      <trkpt lat="42.92937755584717" lon="0.914762020111084">
        <ele>649.1353830420502</ele>
        <time>2021-07-14T23:13:41.084Z</time>
      </trkpt>
      <trkpt lat="42.92931318283081" lon="0.9146225452423096">
        <ele>650.3429352929469</ele>
        <time>2021-07-14T23:13:52.950Z</time>
      </trkpt>
      <trkpt lat="42.92927026748657" lon="0.9144508838653564">
        <ele>651.5937754021553</ele>
        <time>2021-07-14T23:14:04.818Z</time>
      </trkpt>
      <trkpt lat="42.92924880981445" lon="0.9142899513244629">
        <ele>652.8624901708399</ele>
        <time>2021-07-14T23:14:16.688Z</time>
      </trkpt>
      <trkpt lat="42.92924880981445" lon="0.9135496616363525">
        <ele>654.2527931769755</ele>
        <time>2021-07-14T23:14:28.567Z</time>
      </trkpt>
      <trkpt lat="42.929205894470215" lon="0.9130346775054932">
        <ele>655.6027806151963</ele>
        <time>2021-07-14T23:14:40.452Z</time>
      </trkpt>
      <trkpt lat="42.92900204658508" lon="0.9123587608337402">
        <ele>656.8085911727907</ele>
        <time>2021-07-14T23:14:52.346Z</time>
      </trkpt>
      <trkpt lat="42.928969860076904" lon="0.9121334552764893">
        <ele>657.9542402689951</ele>
        <time>2021-07-14T23:15:04.242Z</time>
      </trkpt>
      <trkpt lat="42.928926944732666" lon="0.9114038944244385">
        <ele>659.3765862702198</ele>
        <time>2021-07-14T23:15:16.147Z</time>
      </trkpt>
      <trkpt lat="42.92886257171631" lon="0.9110605716705322">
        <ele>660.5170847446468</ele>
        <time>2021-07-14T23:15:28.056Z</time>
      </trkpt>
      <trkpt lat="42.92880892753601" lon="0.9105777740478516">
        <ele>661.4266185556972</ele>
        <time>2021-07-14T23:15:39.971Z</time>
      </trkpt>
      <trkpt lat="42.92881965637207" lon="0.9104061126708984">
        <ele>662.4254031184098</ele>
        <time>2021-07-14T23:15:51.888Z</time>
      </trkpt>
      <trkpt lat="42.92885184288025" lon="0.9102451801300049">
        <ele>663.3827998485813</ele>
        <time>2021-07-14T23:16:03.807Z</time>
      </trkpt>
      <trkpt lat="42.929452657699585" lon="0.9089899063110352">
        <ele>664.436239201081</ele>
        <time>2021-07-14T23:16:15.744Z</time>
      </trkpt>
      <trkpt lat="42.92961359024048" lon="0.9084427356719971">
        <ele>665.1876178567009</ele>
        <time>2021-07-14T23:16:27.687Z</time>
      </trkpt>
      <trkpt lat="42.929688692092896" lon="0.9081637859344482">
        <ele>666.188488341221</ele>
        <time>2021-07-14T23:16:39.634Z</time>
      </trkpt>
      <trkpt lat="42.929720878601074" lon="0.9080028533935547">
        <ele>667.0768606666024</ele>
        <time>2021-07-14T23:16:51.583Z</time>
      </trkpt>
      <trkpt lat="42.929699420928955" lon="0.9078633785247803">
        <ele>667.8303172422388</ele>
        <time>2021-07-14T23:17:03.534Z</time>
      </trkpt>
      <trkpt lat="42.92965650558472" lon="0.9077668190002441">
        <ele>668.5038590712093</ele>
        <time>2021-07-14T23:17:15.486Z</time>
      </trkpt>
      <trkpt lat="42.929463386535645" lon="0.9074985980987549">
        <ele>669.034871162417</ele>
        <time>2021-07-14T23:17:27.442Z</time>
      </trkpt>
      <trkpt lat="42.92937755584717" lon="0.9072625637054443">
        <ele>669.7119759501423</ele>
        <time>2021-07-14T23:17:39.401Z</time>
      </trkpt>
      <trkpt lat="42.92933464050293" lon="0.9071016311645508">
        <ele>670.3355808484528</ele>
        <time>2021-07-14T23:17:51.362Z</time>
      </trkpt>
      <trkpt lat="42.92932391166687" lon="0.9069299697875977">
        <ele>670.8875255283356</ele>
        <time>2021-07-14T23:18:03.325Z</time>
      </trkpt>
      <trkpt lat="42.92932391166687" lon="0.9067583084106445">
        <ele>671.3861116233842</ele>
        <time>2021-07-14T23:18:15.290Z</time>
      </trkpt>
      <trkpt lat="42.92936682701111" lon="0.906597375869751">
        <ele>671.8672561791756</ele>
        <time>2021-07-14T23:18:27.258Z</time>
      </trkpt>
      <trkpt lat="42.92940974235535" lon="0.9064364433288574">
        <ele>672.2811412136825</ele>
        <time>2021-07-14T23:18:39.228Z</time>
      </trkpt>
      <trkpt lat="42.92949557304382" lon="0.9062433242797852">
        <ele>672.6642639448079</ele>
        <time>2021-07-14T23:18:51.200Z</time>
      </trkpt>
      <trkpt lat="42.92977452278137" lon="0.9058356285095215">
        <ele>673.1910478575785</ele>
        <time>2021-07-14T23:19:03.179Z</time>
      </trkpt>
      <trkpt lat="42.93001055717468" lon="0.9054386615753174">
        <ele>673.665852665743</ele>
        <time>2021-07-14T23:19:15.164Z</time>
      </trkpt>
      <trkpt lat="42.9300856590271" lon="0.9052777290344238">
        <ele>674.1083708135823</ele>
        <time>2021-07-14T23:19:27.151Z</time>
      </trkpt>
      <trkpt lat="42.93010711669922" lon="0.9051704406738281">
        <ele>674.4863790966903</ele>
        <time>2021-07-14T23:19:39.139Z</time>
      </trkpt>
      <trkpt lat="42.93010711669922" lon="0.905073881149292">
        <ele>674.8355685168585</ele>
        <time>2021-07-14T23:19:51.128Z</time>
      </trkpt>
      <trkpt lat="42.9300856590271" lon="0.9049880504608154">
        <ele>675.16136062484</ele>
        <time>2021-07-14T23:20:03.118Z</time>
      </trkpt>
      <trkpt lat="42.9300320148468" lon="0.9048914909362793">
        <ele>675.4412026965579</ele>
        <time>2021-07-14T23:20:15.110Z</time>
      </trkpt>
      <trkpt lat="42.9296350479126" lon="0.9044516086578369">
        <ele>675.5669893077361</ele>
        <time>2021-07-14T23:20:27.110Z</time>
      </trkpt>
      <trkpt lat="42.92916297912598" lon="0.9040439128875732">
        <ele>675.8973614418682</ele>
        <time>2021-07-14T23:20:39.119Z</time>
      </trkpt>
      <trkpt lat="42.928937673568726" lon="0.9037113189697266">
        <ele>676.2916914642512</ele>
        <time>2021-07-14T23:20:51.133Z</time>
      </trkpt>
      <trkpt lat="42.92888402938843" lon="0.9035289287567139">
        <ele>676.5592957226015</ele>
        <time>2021-07-14T23:21:03.150Z</time>
      </trkpt>
      <trkpt lat="42.92885184288025" lon="0.9033465385437012">
        <ele>676.7784196915109</ele>
        <time>2021-07-14T23:21:15.169Z</time>
      </trkpt>
      <trkpt lat="42.92884111404419" lon="0.9031105041503906">
        <ele>677.0018579597095</ele>
        <time>2021-07-14T23:21:27.191Z</time>
      </trkpt>
      <trkpt lat="42.92885184288025" lon="0.9028744697570801">
        <ele>677.2204188305765</ele>
        <time>2021-07-14T23:21:39.215Z</time>
      </trkpt>
      <trkpt lat="42.92889475822449" lon="0.9026491641998291">
        <ele>677.3843443657622</ele>
        <time>2021-07-14T23:21:51.242Z</time>
      </trkpt>
      <trkpt lat="42.92899131774902" lon="0.9023594856262207">
        <ele>677.4725261611916</ele>
        <time>2021-07-14T23:22:03.273Z</time>
      </trkpt>
      <trkpt lat="42.92915225028992" lon="0.9019947052001953">
        <ele>677.7672854436055</ele>
        <time>2021-07-14T23:22:15.309Z</time>
      </trkpt>
      <trkpt lat="42.92929172515869" lon="0.9017157554626465">
        <ele>677.8508515872226</ele>
        <time>2021-07-14T23:22:27.349Z</time>
      </trkpt>
      <trkpt lat="42.92934545315802" lon="0.9015762805938721">
        <ele>677.9798428201436</ele>
        <time>2021-07-14T23:22:39.391Z</time>
      </trkpt>
      <trkpt lat="42.92934536933899" lon="0.9015762805938721">
        <ele>678.0384427363279</ele>
        <time>2021-07-14T23:22:51.433Z</time>
      </trkpt>
      <trkpt lat="42.92938828468323" lon="0.9014368057250977">
        <ele>678.1347176241543</ele>
        <time>2021-07-14T23:23:03.477Z</time>
      </trkpt>
      <trkpt lat="42.92940974235535" lon="0.9010934829711914">
        <ele>678.2239211338983</ele>
        <time>2021-07-14T23:23:15.525Z</time>
      </trkpt>
      <trkpt lat="42.92940974235535" lon="0.9004926681518555">
        <ele>678.3476443991544</ele>
        <time>2021-07-14T23:23:27.580Z</time>
      </trkpt>
      <trkpt lat="42.929452657699585" lon="0.8997631072998047">
        <ele>678.2695762193614</ele>
        <time>2021-07-14T23:23:39.643Z</time>
      </trkpt>
      <trkpt lat="42.929441928863525" lon="0.8992266654968262">
        <ele>678.5079516884998</ele>
        <time>2021-07-14T23:23:51.713Z</time>
      </trkpt>
      <trkpt lat="42.92932391166687" lon="0.8981215953826904">
        <ele>678.4030247264895</ele>
        <time>2021-07-14T23:24:03.796Z</time>
      </trkpt>
      <trkpt lat="42.929259622469544" lon="0.8979713916778564">
        <ele>678.4801947087951</ele>
        <time>2021-07-14T23:24:15.881Z</time>
      </trkpt>
      <trkpt lat="42.9291307926178" lon="0.8977353572845459">
        <ele>678.5885983451486</ele>
        <time>2021-07-14T23:24:27.969Z</time>
      </trkpt>
      <trkpt lat="42.928980588912964" lon="0.8975529670715332">
        <ele>678.8215853683034</ele>
        <time>2021-07-14T23:24:40.060Z</time>
      </trkpt>
      <trkpt lat="42.92886257171631" lon="0.8973491191864014">
        <ele>679.2352709692151</ele>
        <time>2021-07-14T23:24:52.154Z</time>
      </trkpt>
      <trkpt lat="42.928733825683594" lon="0.897059440612793">
        <ele>679.6608939494492</ele>
        <time>2021-07-14T23:25:04.252Z</time>
      </trkpt>
      <trkpt lat="42.92858362197876" lon="0.8965122699737549">
        <ele>680.419268115812</ele>
        <time>2021-07-14T23:25:16.357Z</time>
      </trkpt>
      <trkpt lat="42.92859435081482" lon="0.8962976932525635">
        <ele>680.9209241022376</ele>
        <time>2021-07-14T23:25:28.465Z</time>
      </trkpt>
      <trkpt lat="42.928680181503296" lon="0.8959650993347168">
        <ele>681.1501129333169</ele>
        <time>2021-07-14T23:25:40.577Z</time>
      </trkpt>
      <trkpt lat="42.92884111404419" lon="0.8953535556793213">
        <ele>681.8451741380853</ele>
        <time>2021-07-14T23:25:52.697Z</time>
      </trkpt>
      <trkpt lat="42.92890557087958" lon="0.8951711654663086">
        <ele>682.7352203612725</ele>
        <time>2021-07-14T23:26:04.819Z</time>
      </trkpt>
      <trkpt lat="42.92901277542114" lon="0.8950531482696533">
        <ele>683.7536533824612</ele>
        <time>2021-07-14T23:26:16.943Z</time>
      </trkpt>
      <trkpt lat="42.92905569076538" lon="0.8949887752532959">
        <ele>684.9497283783762</ele>
        <time>2021-07-14T23:26:29.068Z</time>
      </trkpt>
      <trkpt lat="42.92912014760077" lon="0.894860029220581">
        <ele>686.2893990530847</ele>
        <time>2021-07-14T23:26:41.195Z</time>
      </trkpt>
      <trkpt lat="42.92912006378174" lon="0.894860029220581">
        <ele>687.7211051272446</ele>
        <time>2021-07-14T23:26:53.322Z</time>
      </trkpt>
      <trkpt lat="42.929216623306274" lon="0.8947527408599854">
        <ele>689.3268908562436</ele>
        <time>2021-07-14T23:27:05.451Z</time>
      </trkpt>
      <trkpt lat="42.92964577674866" lon="0.8945703506469727">
        <ele>691.3798105866665</ele>
        <time>2021-07-14T23:27:17.587Z</time>
      </trkpt>
      <trkpt lat="42.92989253997803" lon="0.8944201469421387">
        <ele>693.2243200129935</ele>
        <time>2021-07-14T23:27:29.728Z</time>
      </trkpt>
      <trkpt lat="42.93015003204346" lon="0.8942270278930664">
        <ele>695.0561533482484</ele>
        <time>2021-07-14T23:27:41.873Z</time>
      </trkpt>
      <trkpt lat="42.93038606643677" lon="0.8939909934997559">
        <ele>696.8915842758494</ele>
        <time>2021-07-14T23:27:54.023Z</time>
      </trkpt>
      <trkpt lat="42.93078303337097" lon="0.8931863307952881">
        <ele>699.1657832901428</ele>
        <time>2021-07-14T23:28:06.184Z</time>
      </trkpt>
      <trkpt lat="42.93087959289551" lon="0.8929073810577393">
        <ele>701.2679043591688</ele>
        <time>2021-07-14T23:28:18.349Z</time>
      </trkpt>
      <trkpt lat="42.9308904055506" lon="0.8927786350250244">
        <ele>703.1950725803817</ele>
        <time>2021-07-14T23:28:30.515Z</time>
      </trkpt>
      <trkpt lat="42.93086886405945" lon="0.8925104141235352">
        <ele>705.1310727627842</ele>
        <time>2021-07-14T23:28:42.685Z</time>
      </trkpt>
      <trkpt lat="42.93074011802673" lon="0.8920168876647949">
        <ele>707.241255439726</ele>
        <time>2021-07-14T23:28:54.861Z</time>
      </trkpt>
      <trkpt lat="42.930718660354614" lon="0.8913516998291016">
        <ele>709.5003604413737</ele>
        <time>2021-07-14T23:29:07.045Z</time>
      </trkpt>
      <trkpt lat="42.93105125427246" lon="0.8910834789276123">
        <ele>710.5154754432846</ele>
        <time>2021-07-14T23:29:19.235Z</time>
      </trkpt>
      <trkpt lat="42.93119081296027" lon="0.8909869194030762">
        <ele>711.987698882924</ele>
        <time>2021-07-14T23:29:31.427Z</time>
      </trkpt>
      <trkpt lat="42.93137311935425" lon="0.8909118175506592">
        <ele>713.4978497315876</ele>
        <time>2021-07-14T23:29:43.622Z</time>
      </trkpt>
      <trkpt lat="42.93151259422302" lon="0.8907723426818848">
        <ele>715.0750772646109</ele>
        <time>2021-07-14T23:29:55.820Z</time>
      </trkpt>
      <trkpt lat="42.93216713704169" lon="0.8899140357971191">
        <ele>716.8781862010369</ele>
        <time>2021-07-14T23:30:08.033Z</time>
      </trkpt>
      <trkpt lat="42.932231510058045" lon="0.889817476272583">
        <ele>718.2653694904704</ele>
        <time>2021-07-14T23:30:20.247Z</time>
      </trkpt>
      <trkpt lat="42.932478189468384" lon="0.8893990516662598">
        <ele>720.0692627247151</ele>
        <time>2021-07-14T23:30:32.467Z</time>
      </trkpt>
      <trkpt lat="42.9326069355011" lon="0.8893024921417236">
        <ele>721.1952876143212</ele>
        <time>2021-07-14T23:30:44.690Z</time>
      </trkpt>
      <trkpt lat="42.93273568153381" lon="0.8892381191253662">
        <ele>722.1493228252252</ele>
        <time>2021-07-14T23:30:56.915Z</time>
      </trkpt>
      <trkpt lat="42.933443784713745" lon="0.8892488479614258">
        <ele>722.6538986991354</ele>
        <time>2021-07-14T23:31:09.151Z</time>
      </trkpt>
      <trkpt lat="42.9336154460907" lon="0.8891952037811279">
        <ele>724.0367998197032</ele>
        <time>2021-07-14T23:31:21.390Z</time>
      </trkpt>
      <trkpt lat="42.93384075164795" lon="0.8890664577484131">
        <ele>725.4099239072003</ele>
        <time>2021-07-14T23:31:33.633Z</time>
      </trkpt>
      <trkpt lat="42.933958768844604" lon="0.8889591693878174">
        <ele>726.6885041155374</ele>
        <time>2021-07-14T23:31:45.878Z</time>
      </trkpt>
      <trkpt lat="42.9340124130249" lon="0.8888304233551025">
        <ele>727.993154549936</ele>
        <time>2021-07-14T23:31:58.125Z</time>
      </trkpt>
      <trkpt lat="42.93400168418884" lon="0.8884227275848389">
        <ele>729.6714091351068</ele>
        <time>2021-07-14T23:32:10.377Z</time>
      </trkpt>
      <trkpt lat="42.9340124130249" lon="0.8883047103881836">
        <ele>731.0452072115918</ele>
        <time>2021-07-14T23:32:22.630Z</time>
      </trkpt>
      <trkpt lat="42.93405532836914" lon="0.8881866931915283">
        <ele>732.3750474151934</ele>
        <time>2021-07-14T23:32:34.885Z</time>
      </trkpt>
      <trkpt lat="42.93413043022156" lon="0.8880901336669922">
        <ele>733.6832916178754</ele>
        <time>2021-07-14T23:32:47.142Z</time>
      </trkpt>
      <trkpt lat="42.93428063392639" lon="0.8879828453063965">
        <ele>734.7604283483297</ele>
        <time>2021-07-14T23:32:59.401Z</time>
      </trkpt>
      <trkpt lat="42.93510683812201" lon="0.8874249458312988">
        <ele>736.308013301392</ele>
        <time>2021-07-14T23:33:11.675Z</time>
      </trkpt>
      <trkpt lat="42.935192584991455" lon="0.8873069286346436">
        <ele>737.7079575909434</ele>
        <time>2021-07-14T23:33:23.951Z</time>
      </trkpt>
      <trkpt lat="42.93527841567993" lon="0.8871567249298096">
        <ele>739.0818204181867</ele>
        <time>2021-07-14T23:33:36.229Z</time>
      </trkpt>
      <trkpt lat="42.93535351753235" lon="0.8868026733398438">
        <ele>740.4207953741005</ele>
        <time>2021-07-14T23:33:48.511Z</time>
      </trkpt>
      <trkpt lat="42.93534278869629" lon="0.8859121799468994">
        <ele>741.679297032731</ele>
        <time>2021-07-14T23:34:00.804Z</time>
      </trkpt>
      <trkpt lat="42.93538570404053" lon="0.8857297897338867">
        <ele>743.2753165162973</ele>
        <time>2021-07-14T23:34:13.099Z</time>
      </trkpt>
      <trkpt lat="42.935471534729004" lon="0.8855903148651123">
        <ele>745.0862718201604</ele>
        <time>2021-07-14T23:34:25.396Z</time>
      </trkpt>
      <trkpt lat="42.93554663658142" lon="0.8855152130126953">
        <ele>747.0043740844134</ele>
        <time>2021-07-14T23:34:37.695Z</time>
      </trkpt>
      <trkpt lat="42.93566473759711" lon="0.8854401111602783">
        <ele>749.0211132757958</ele>
        <time>2021-07-14T23:34:49.996Z</time>
      </trkpt>
      <trkpt lat="42.93630838394165" lon="0.8852148056030273">
        <ele>751.5250104219219</ele>
        <time>2021-07-14T23:35:02.308Z</time>
      </trkpt>
      <trkpt lat="42.93655514717102" lon="0.8851075172424316">
        <ele>753.667844742423</ele>
        <time>2021-07-14T23:35:14.624Z</time>
      </trkpt>
      <trkpt lat="42.93683409690857" lon="0.8848392963409424">
        <ele>755.907310908421</ele>
        <time>2021-07-14T23:35:26.945Z</time>
      </trkpt>
      <trkpt lat="42.93700575828552" lon="0.8847105503082275">
        <ele>757.8275131040043</ele>
        <time>2021-07-14T23:35:39.269Z</time>
      </trkpt>
      <trkpt lat="42.93724179267883" lon="0.8845710754394531">
        <ele>759.7321264165207</ele>
        <time>2021-07-14T23:35:51.597Z</time>
      </trkpt>
      <trkpt lat="42.93760657310486" lon="0.8844316005706787">
        <ele>761.6287715382039</ele>
        <time>2021-07-14T23:36:03.931Z</time>
      </trkpt>
      <trkpt lat="42.93774604797363" lon="0.884324312210083">
        <ele>763.8318774607794</ele>
        <time>2021-07-14T23:36:16.268Z</time>
      </trkpt>
      <trkpt lat="42.93785333633423" lon="0.884174108505249">
        <ele>766.1218132375756</ele>
        <time>2021-07-14T23:36:28.607Z</time>
      </trkpt>
      <trkpt lat="42.93803572654724" lon="0.8837664127349854">
        <ele>768.6558764013655</ele>
        <time>2021-07-14T23:36:40.952Z</time>
      </trkpt>
      <trkpt lat="42.93811082839966" lon="0.8836269378662109">
        <ele>770.6714327045995</ele>
        <time>2021-07-14T23:36:53.299Z</time>
      </trkpt>
      <trkpt lat="42.938196659088135" lon="0.8834981918334961">
        <ele>772.6992654069743</ele>
        <time>2021-07-14T23:37:05.648Z</time>
      </trkpt>
      <trkpt lat="42.93828248977661" lon="0.88340163230896">
        <ele>774.8595037805287</ele>
        <time>2021-07-14T23:37:17.999Z</time>
      </trkpt>
      <trkpt lat="42.938432693481445" lon="0.8832943439483643">
        <ele>777.183027653627</ele>
        <time>2021-07-14T23:37:30.353Z</time>
      </trkpt>
      <trkpt lat="42.9390549659729" lon="0.8830153942108154">
        <ele>779.7924934903989</ele>
        <time>2021-07-14T23:37:42.717Z</time>
      </trkpt>
      <trkpt lat="42.939237440004945" lon="0.8828866481781006">
        <ele>782.5208715556898</ele>
        <time>2021-07-14T23:37:55.084Z</time>
      </trkpt>
      <trkpt lat="42.93923735618591" lon="0.8828866481781006">
        <ele>785.432177843704</ele>
        <time>2021-07-14T23:38:07.451Z</time>
      </trkpt>
      <trkpt lat="42.939430475234985" lon="0.88265061378479">
        <ele>788.6958866990228</ele>
        <time>2021-07-14T23:38:19.823Z</time>
      </trkpt>
      <trkpt lat="42.93959140777588" lon="0.8823931217193604">
        <ele>792.1289222124485</ele>
        <time>2021-07-14T23:38:32.199Z</time>
      </trkpt>
      <trkpt lat="42.939698696136475" lon="0.8820712566375732">
        <ele>795.6034513462655</ele>
        <time>2021-07-14T23:38:44.579Z</time>
      </trkpt>
      <trkpt lat="42.939934730529785" lon="0.8814382553100586">
        <ele>798.8412430587625</ele>
        <time>2021-07-14T23:38:56.967Z</time>
      </trkpt>
      <trkpt lat="42.94010639190674" lon="0.8810091018676758">
        <ele>801.782293755655</ele>
        <time>2021-07-14T23:39:09.361Z</time>
      </trkpt>
      <trkpt lat="42.94039607048035" lon="0.880354642868042">
        <ele>804.9039438154184</ele>
        <time>2021-07-14T23:39:21.764Z</time>
      </trkpt>
      <trkpt lat="42.940428256988525" lon="0.8800220489501953">
        <ele>807.6483321640701</ele>
        <time>2021-07-14T23:39:34.171Z</time>
      </trkpt>
      <trkpt lat="42.940428256988525" lon="0.879131555557251">
        <ele>810.6077627112197</ele>
        <time>2021-07-14T23:39:46.588Z</time>
      </trkpt>
      <trkpt lat="42.94036388397217" lon="0.878756046295166">
        <ele>813.3453633159473</ele>
        <time>2021-07-14T23:39:59.010Z</time>
      </trkpt>
      <trkpt lat="42.94033169746399" lon="0.878380537033081">
        <ele>815.645508023724</ele>
        <time>2021-07-14T23:40:11.436Z</time>
      </trkpt>
      <trkpt lat="42.94023513793945" lon="0.8769750595092773">
        <ele>817.9953608941178</ele>
        <time>2021-07-14T23:40:23.879Z</time>
      </trkpt>
      <trkpt lat="42.9401171207428" lon="0.8763527870178223">
        <ele>819.8645860615629</ele>
        <time>2021-07-14T23:40:36.329Z</time>
      </trkpt>
      <trkpt lat="42.9400634765625" lon="0.8761489391326904">
        <ele>822.351881677142</ele>
        <time>2021-07-14T23:40:48.782Z</time>
      </trkpt>
      <trkpt lat="42.939913272857666" lon="0.8759450912475586">
        <ele>825.1141337662398</ele>
        <time>2021-07-14T23:41:01.238Z</time>
      </trkpt>
      <trkpt lat="42.93911933898926" lon="0.8751833438873291">
        <ele>827.7895222536964</ele>
        <time>2021-07-14T23:41:13.710Z</time>
      </trkpt>
      <trkpt lat="42.93832548893988" lon="0.8745503425598145">
        <ele>830.1278409892652</ele>
        <time>2021-07-14T23:41:26.197Z</time>
      </trkpt>
      <trkpt lat="42.9378426913172" lon="0.8737671375274658">
        <ele>832.7894395455081</ele>
        <time>2021-07-14T23:41:38.696Z</time>
      </trkpt>
      <trkpt lat="42.93781042098999" lon="0.8735096454620361">
        <ele>835.294556166416</ele>
        <time>2021-07-14T23:41:51.198Z</time>
      </trkpt>
      <trkpt lat="42.93803572654724" lon="0.8717072010040283">
        <ele>837.3563467242266</ele>
        <time>2021-07-14T23:42:03.721Z</time>
      </trkpt>
      <trkpt lat="42.93807872571051" lon="0.8712565898895264">
        <ele>839.3504587888117</ele>
        <time>2021-07-14T23:42:16.249Z</time>
      </trkpt>
      <trkpt lat="42.938175201416016" lon="0.8704948425292969">
        <ele>841.3022600677718</ele>
        <time>2021-07-14T23:42:28.787Z</time>
      </trkpt>
      <trkpt lat="42.93823957443237" lon="0.8701515197753906">
        <ele>843.3012053681209</ele>
        <time>2021-07-14T23:42:41.329Z</time>
      </trkpt>
      <trkpt lat="42.93848633766174" lon="0.8690571784973145">
        <ele>845.5330124115997</ele>
        <time>2021-07-14T23:42:53.884Z</time>
      </trkpt>
      <trkpt lat="42.93873310089111" lon="0.8684885501861572">
        <ele>847.5941794787389</ele>
        <time>2021-07-14T23:43:06.447Z</time>
      </trkpt>
      <trkpt lat="42.93964513577521" lon="0.8672547340393066">
        <ele>850.1826502620443</ele>
        <time>2021-07-14T23:43:19.030Z</time>
      </trkpt>
      <trkpt lat="42.93964505195618" lon="0.8672547340393066">
        <ele>851.7293083323375</ele>
        <time>2021-07-14T23:43:31.613Z</time>
      </trkpt>
      <trkpt lat="42.93997764587402" lon="0.8668255805969238">
        <ele>853.3377586878812</ele>
        <time>2021-07-14T23:43:44.204Z</time>
      </trkpt>
      <trkpt lat="42.9400634765625" lon="0.8666324615478516">
        <ele>854.5802594766308</ele>
        <time>2021-07-14T23:43:56.797Z</time>
      </trkpt>
      <trkpt lat="42.940138494595885" lon="0.8664731215685606">
        <ele>855.605174795984</ele>
        <time>2021-07-14T23:44:09.393Z</time>
      </trkpt>
      <trkpt lat="42.930852100253105" lon="0.8929867576807737">
        <ele>703.922223510819</ele>
        <time>2021-08-02T19:19:00.000Z</time>
      </trkpt>
      <trkpt lat="42.93087959289551" lon="0.8929073810577393">
        <ele>704.8904366801531</ele>
        <time>2021-08-02T19:19:00.001Z</time>
      </trkpt>
      <trkpt lat="42.9308904055506" lon="0.8927786350250244">
        <ele>706.0571779175189</ele>
        <time>2021-08-02T19:19:00.004Z</time>
      </trkpt>
      <trkpt lat="42.93086886405945" lon="0.8925104141235352">
        <ele>707.7130987310661</ele>
        <time>2021-08-02T19:19:00.010Z</time>
      </trkpt>
      <trkpt lat="42.93074011802673" lon="0.8920168876647949">
        <ele>710.3572040092811</ele>
        <time>2021-08-02T19:19:00.022Z</time>
      </trkpt>
      <trkpt lat="42.930718660354614" lon="0.8913516998291016">
        <ele>712.7258640177511</ele>
        <time>2021-08-02T19:19:00.042Z</time>
      </trkpt>
      <trkpt lat="42.93105125427246" lon="0.8910834789276123">
        <ele>714.6089549033106</ele>
        <time>2021-08-02T19:19:00.068Z</time>
      </trkpt>
      <trkpt lat="42.93119081296027" lon="0.8909869194030762">
        <ele>716.7012029220887</ele>
        <time>2021-08-02T19:19:00.096Z</time>
      </trkpt>
      <trkpt lat="42.93137311935425" lon="0.8909118175506592">
        <ele>718.415955852678</ele>
        <time>2021-08-02T19:19:00.127Z</time>
      </trkpt>
      <trkpt lat="42.93151259422302" lon="0.8907723426818848">
        <ele>719.6624325522857</ele>
        <time>2021-08-02T19:19:00.161Z</time>
      </trkpt>
      <trkpt lat="42.93216713704169" lon="0.8899140357971191">
        <ele>721.4311640926596</ele>
        <time>2021-08-02T19:19:00.210Z</time>
      </trkpt>
      <trkpt lat="42.932231510058045" lon="0.889817476272583">
        <ele>722.660333267269</ele>
        <time>2021-08-02T19:19:00.260Z</time>
      </trkpt>
      <trkpt lat="42.932478189468384" lon="0.8893990516662598">
        <ele>724.2145795731444</ele>
        <time>2021-08-02T19:19:00.317Z</time>
      </trkpt>
      <trkpt lat="42.9326069355011" lon="0.8893024921417236">
        <ele>725.4359247272196</ele>
        <time>2021-08-02T19:19:00.376Z</time>
      </trkpt>
      <trkpt lat="42.93273568153381" lon="0.8892381191253662">
        <ele>726.9074776708914</ele>
        <time>2021-08-02T19:19:00.437Z</time>
      </trkpt>
      <trkpt lat="42.933443784713745" lon="0.8892488479614258">
        <ele>727.766091417388</ele>
        <time>2021-08-02T19:19:00.509Z</time>
      </trkpt>
      <trkpt lat="42.9336154460907" lon="0.8891952037811279">
        <ele>729.3880625358169</ele>
        <time>2021-08-02T19:19:00.584Z</time>
      </trkpt>
      <trkpt lat="42.93384075164795" lon="0.8890664577484131">
        <ele>730.8725157857391</ele>
        <time>2021-08-02T19:19:00.663Z</time>
      </trkpt>
      <trkpt lat="42.933958768844604" lon="0.8889591693878174">
        <ele>732.0813984291849</ele>
        <time>2021-08-02T19:19:00.744Z</time>
      </trkpt>
      <trkpt lat="42.9340124130249" lon="0.8888304233551025">
        <ele>733.3547077392313</ele>
        <time>2021-08-02T19:19:00.827Z</time>
      </trkpt>
      <trkpt lat="42.93400168418884" lon="0.8884227275848389">
        <ele>734.6320769175184</ele>
        <time>2021-08-02T19:19:00.915Z</time>
      </trkpt>
      <trkpt lat="42.9340124130249" lon="0.8883047103881836">
        <ele>735.6679519078101</ele>
        <time>2021-08-02T19:19:01.004Z</time>
      </trkpt>
      <trkpt lat="42.93405532836914" lon="0.8881866931915283">
        <ele>736.5737097135882</ele>
        <time>2021-08-02T19:19:01.095Z</time>
      </trkpt>
      <trkpt lat="42.93413043022156" lon="0.8880901336669922">
        <ele>737.379179782745</ele>
        <time>2021-08-02T19:19:01.188Z</time>
      </trkpt>
      <trkpt lat="42.93428063392639" lon="0.8879828453063965">
        <ele>738.4498176314818</ele>
        <time>2021-08-02T19:19:01.283Z</time>
      </trkpt>
      <trkpt lat="42.93510683812201" lon="0.8874249458312988">
        <ele>740.6237939518226</ele>
        <time>2021-08-02T19:19:01.393Z</time>
      </trkpt>
      <trkpt lat="42.935192584991455" lon="0.8873069286346436">
        <ele>742.3037019807109</ele>
        <time>2021-08-02T19:19:01.505Z</time>
      </trkpt>
      <trkpt lat="42.93527841567993" lon="0.8871567249298096">
        <ele>744.0428799533533</ele>
        <time>2021-08-02T19:19:01.619Z</time>
      </trkpt>
      <trkpt lat="42.93535351753235" lon="0.8868026733398438">
        <ele>746.2253568904393</ele>
        <time>2021-08-02T19:19:01.738Z</time>
      </trkpt>
      <trkpt lat="42.93534278869629" lon="0.8859121799468994">
        <ele>747.7411041015745</ele>
        <time>2021-08-02T19:19:01.867Z</time>
      </trkpt>
      <trkpt lat="42.93538570404053" lon="0.8857297897338867">
        <ele>749.2994550570015</ele>
        <time>2021-08-02T19:19:01.998Z</time>
      </trkpt>
      <trkpt lat="42.935471534729004" lon="0.8855903148651123">
        <ele>750.7391829398379</ele>
        <time>2021-08-02T19:19:02.131Z</time>
      </trkpt>
      <trkpt lat="42.93554663658142" lon="0.8855152130126953">
        <ele>752.2569186368048</ele>
        <time>2021-08-02T19:19:02.266Z</time>
      </trkpt>
      <trkpt lat="42.93566473759711" lon="0.8854401111602783">
        <ele>753.8095593670341</ele>
        <time>2021-08-02T19:19:02.403Z</time>
      </trkpt>
      <trkpt lat="42.93630838394165" lon="0.8852148056030273">
        <ele>756.0056528410657</ele>
        <time>2021-08-02T19:19:02.551Z</time>
      </trkpt>
      <trkpt lat="42.93655514717102" lon="0.8851075172424316">
        <ele>757.9252161252566</ele>
        <time>2021-08-02T19:19:02.703Z</time>
      </trkpt>
      <trkpt lat="42.93683409690857" lon="0.8848392963409424">
        <ele>759.6844764976108</ele>
        <time>2021-08-02T19:19:02.860Z</time>
      </trkpt>
      <trkpt lat="42.93700575828552" lon="0.8847105503082275">
        <ele>761.3571727815054</ele>
        <time>2021-08-02T19:19:03.020Z</time>
      </trkpt>
      <trkpt lat="42.93724179267883" lon="0.8845710754394531">
        <ele>763.4393289430775</ele>
        <time>2021-08-02T19:19:03.185Z</time>
      </trkpt>
      <trkpt lat="42.93760657310486" lon="0.8844316005706787">
        <ele>765.4243690318551</ele>
        <time>2021-08-02T19:19:03.356Z</time>
      </trkpt>
      <trkpt lat="42.93774604797363" lon="0.884324312210083">
        <ele>767.7582879064817</ele>
        <time>2021-08-02T19:19:03.529Z</time>
      </trkpt>
      <trkpt lat="42.93785333633423" lon="0.884174108505249">
        <ele>770.2298031613617</ele>
        <time>2021-08-02T19:19:03.705Z</time>
      </trkpt>
      <trkpt lat="42.93803572654724" lon="0.8837664127349854">
        <ele>772.7204910081327</ele>
        <time>2021-08-02T19:19:03.886Z</time>
      </trkpt>
      <trkpt lat="42.93811082839966" lon="0.8836269378662109">
        <ele>775.4251977390529</ele>
        <time>2021-08-02T19:19:04.069Z</time>
      </trkpt>
      <trkpt lat="42.938196659088135" lon="0.8834981918334961">
        <ele>777.8007959063998</ele>
        <time>2021-08-02T19:19:04.254Z</time>
      </trkpt>
      <trkpt lat="42.93828248977661" lon="0.88340163230896">
        <ele>780.0791820584743</ele>
        <time>2021-08-02T19:19:04.441Z</time>
      </trkpt>
      <trkpt lat="42.938432693481445" lon="0.8832943439483643">
        <ele>782.2870825642954</ele>
        <time>2021-08-02T19:19:04.631Z</time>
      </trkpt>
      <trkpt lat="42.9390549659729" lon="0.8830153942108154">
        <ele>784.7474985109084</ele>
        <time>2021-08-02T19:19:04.831Z</time>
      </trkpt>
      <trkpt lat="42.939237440004945" lon="0.8828866481781006">
        <ele>787.1770452607011</ele>
        <time>2021-08-02T19:19:05.035Z</time>
      </trkpt>
      <trkpt lat="42.93923735618591" lon="0.8828866481781006">
        <ele>789.5956677170851</ele>
        <time>2021-08-02T19:19:05.239Z</time>
      </trkpt>
      <trkpt lat="42.939430475234985" lon="0.88265061378479">
        <ele>792.5465919993392</ele>
        <time>2021-08-02T19:19:05.447Z</time>
      </trkpt>
      <trkpt lat="42.93959140777588" lon="0.8823931217193604">
        <ele>795.2226073287611</ele>
        <time>2021-08-02T19:19:05.659Z</time>
      </trkpt>
      <trkpt lat="42.939698696136475" lon="0.8820712566375732">
        <ele>797.8747263312719</ele>
        <time>2021-08-02T19:19:05.875Z</time>
      </trkpt>
      <trkpt lat="42.939934730529785" lon="0.8814382553100586">
        <ele>800.7998579486017</ele>
        <time>2021-08-02T19:19:06.099Z</time>
      </trkpt>
      <trkpt lat="42.94010639190674" lon="0.8810091018676758">
        <ele>803.7804830851187</ele>
        <time>2021-08-02T19:19:06.329Z</time>
      </trkpt>
      <trkpt lat="42.94039607048035" lon="0.880354642868042">
        <ele>807.0110531572781</ele>
        <time>2021-08-02T19:19:06.568Z</time>
      </trkpt>
      <trkpt lat="42.940428256988525" lon="0.8800220489501953">
        <ele>810.1950794401912</ele>
        <time>2021-08-02T19:19:06.811Z</time>
      </trkpt>
      <trkpt lat="42.940428256988525" lon="0.879131555557251">
        <ele>813.3143041980456</ele>
        <time>2021-08-02T19:19:07.064Z</time>
      </trkpt>
      <trkpt lat="42.94036388397217" lon="0.878756046295166">
        <ele>816.3858112185715</ele>
        <time>2021-08-02T19:19:07.322Z</time>
      </trkpt>
      <trkpt lat="42.94033169746399" lon="0.878380537033081">
        <ele>819.3792019023672</ele>
        <time>2021-08-02T19:19:07.584Z</time>
      </trkpt>
      <trkpt lat="42.94023513793945" lon="0.8769750595092773">
        <ele>822.4794141461318</ele>
        <time>2021-08-02T19:19:07.863Z</time>
      </trkpt>
      <trkpt lat="42.9401171207428" lon="0.8763527870178223">
        <ele>825.1531316629281</ele>
        <time>2021-08-02T19:19:08.149Z</time>
      </trkpt>
      <trkpt lat="42.9400634765625" lon="0.8761489391326904">
        <ele>827.725380296309</ele>
        <time>2021-08-02T19:19:08.438Z</time>
      </trkpt>
      <trkpt lat="42.939913272857666" lon="0.8759450912475586">
        <ele>830.3622734640758</ele>
        <time>2021-08-02T19:19:08.730Z</time>
      </trkpt>
      <trkpt lat="42.93911933898926" lon="0.8751833438873291">
        <ele>833.3114839768836</ele>
        <time>2021-08-02T19:19:09.038Z</time>
      </trkpt>
      <trkpt lat="42.93832548893988" lon="0.8745503425598145">
        <ele>835.6478467993873</ele>
        <time>2021-08-02T19:19:09.361Z</time>
      </trkpt>
      <trkpt lat="42.9378426913172" lon="0.8737671375274658">
        <ele>837.716920369189</ele>
        <time>2021-08-02T19:19:09.696Z</time>
      </trkpt>
      <trkpt lat="42.93781042098999" lon="0.8735096454620361">
        <ele>840.0819088213352</ele>
        <time>2021-08-02T19:19:10.034Z</time>
      </trkpt>
      <trkpt lat="42.93803572654724" lon="0.8717072010040283">
        <ele>842.5551565282566</ele>
        <time>2021-08-02T19:19:10.393Z</time>
      </trkpt>
      <trkpt lat="42.93807872571051" lon="0.8712565898895264">
        <ele>844.5599085765277</ele>
        <time>2021-08-02T19:19:10.758Z</time>
      </trkpt>
      <trkpt lat="42.938175201416016" lon="0.8704948425292969">
        <ele>846.5447819066442</ele>
        <time>2021-08-02T19:19:11.132Z</time>
      </trkpt>
      <trkpt lat="42.93823957443237" lon="0.8701515197753906">
        <ele>848.2754572534002</ele>
        <time>2021-08-02T19:19:11.510Z</time>
      </trkpt>
      <trkpt lat="42.93848633766174" lon="0.8690571784973145">
        <ele>849.9900254132299</ele>
        <time>2021-08-02T19:19:11.901Z</time>
      </trkpt>
      <trkpt lat="42.93873310089111" lon="0.8684885501861572">
        <ele>851.7371301419503</ele>
        <time>2021-08-02T19:19:12.300Z</time>
      </trkpt>
      <trkpt lat="42.93964513577521" lon="0.8672547340393066">
        <ele>853.4895256061782</ele>
        <time>2021-08-02T19:19:12.720Z</time>
      </trkpt>
      <trkpt lat="42.93964505195618" lon="0.8672547340393066">
        <ele>854.9784383172184</ele>
        <time>2021-08-02T19:19:13.140Z</time>
      </trkpt>
      <trkpt lat="42.93997764587402" lon="0.8668255805969238">
        <ele>856.5402602539284</ele>
        <time>2021-08-02T19:19:13.567Z</time>
      </trkpt>
      <trkpt lat="42.9400634765625" lon="0.8666324615478516">
        <ele>857.8940856065194</ele>
        <time>2021-08-02T19:19:13.997Z</time>
      </trkpt>
      <trkpt lat="42.940235221758485" lon="0.8662676811218262">
        <ele>859.3349274166967</ele>
        <time>2021-08-02T19:19:14.432Z</time>
      </trkpt>
      <trkpt lat="42.94034242630005" lon="0.8660101890563965">
        <ele>860.7787829846576</ele>
        <time>2021-08-02T19:19:14.870Z</time>
      </trkpt>
      <trkpt lat="42.940471256151795" lon="0.8658814430236816">
        <ele>862.12323141872</ele>
        <time>2021-08-02T19:19:15.311Z</time>
      </trkpt>
      <trkpt lat="42.94067510403693" lon="0.8657526969909668">
        <ele>863.3226906833163</ele>
        <time>2021-08-02T19:19:15.755Z</time>
      </trkpt>
      <trkpt lat="42.94078239239752" lon="0.8656883239746094">
        <ele>864.4842430995482</ele>
        <time>2021-08-02T19:19:16.201Z</time>
      </trkpt>
      <trkpt lat="42.94093259610236" lon="0.8655166625976562">
        <ele>865.6436491943693</ele>
        <time>2021-08-02T19:19:16.650Z</time>
      </trkpt>
      <trkpt lat="42.94100761413574" lon="0.8654201030731201">
        <ele>866.8885726199355</ele>
        <time>2021-08-02T19:19:17.101Z</time>
      </trkpt>
      <trkpt lat="42.94102915562689" lon="0.8653342723846436">
        <ele>868.0794941409058</ele>
        <time>2021-08-02T19:19:17.553Z</time>
      </trkpt>
      <trkpt lat="42.94109352864325" lon="0.8651626110076904">
        <ele>869.3661341722595</ele>
        <time>2021-08-02T19:19:18.007Z</time>
      </trkpt>
      <trkpt lat="42.94111498631537" lon="0.8650660514831543">
        <ele>870.5850646902531</ele>
        <time>2021-08-02T19:19:18.462Z</time>
      </trkpt>
      <trkpt lat="42.94111498631537" lon="0.8650445938110352">
        <ele>871.7472180977151</ele>
        <time>2021-08-02T19:19:18.918Z</time>
      </trkpt>
      <trkpt lat="42.941200733184814" lon="0.864872932434082">
        <ele>872.9607089065237</ele>
        <time>2021-08-02T19:19:19.376Z</time>
      </trkpt>
      <trkpt lat="42.94127583503723" lon="0.8648407459259033">
        <ele>874.132308143478</ele>
        <time>2021-08-02T19:19:19.835Z</time>
      </trkpt>
      <trkpt lat="42.94167288579047" lon="0.864872932434082">
        <ele>875.3568191949133</ele>
        <time>2021-08-02T19:19:20.301Z</time>
      </trkpt>
      <trkpt lat="42.94180163182318" lon="0.864872932434082">
        <ele>876.6651821874734</ele>
        <time>2021-08-02T19:19:20.769Z</time>
      </trkpt>
      <trkpt lat="42.94183381833136" lon="0.864872932434082">
        <ele>877.9714086294332</ele>
        <time>2021-08-02T19:19:21.237Z</time>
      </trkpt>
      <trkpt lat="42.9419732093811" lon="0.8648943901062012">
        <ele>879.4242314783573</ele>
        <time>2021-08-02T19:19:21.708Z</time>
      </trkpt>
      <trkpt lat="42.94226288795471" lon="0.8648836612701416">
        <ele>880.97243830976</ele>
        <time>2021-08-02T19:19:22.183Z</time>
      </trkpt>
      <trkpt lat="42.942466735839844" lon="0.8648514747619629">
        <ele>882.5071768079706</ele>
        <time>2021-08-02T19:19:22.662Z</time>
      </trkpt>
      <trkpt lat="42.94259548187256" lon="0.8648514747619629">
        <ele>884.072970961879</ele>
        <time>2021-08-02T19:19:23.143Z</time>
      </trkpt>
      <trkpt lat="42.94281005859375" lon="0.8641433715820312">
        <ele>885.9506562435249</ele>
        <time>2021-08-02T19:19:23.633Z</time>
      </trkpt>
      <trkpt lat="42.94283151626587" lon="0.8639287948608398">
        <ele>887.6585173220466</ele>
        <time>2021-08-02T19:19:24.125Z</time>
      </trkpt>
      <trkpt lat="42.94281005859375" lon="0.8636713027954102">
        <ele>889.5733531817467</ele>
        <time>2021-08-02T19:19:24.620Z</time>
      </trkpt>
      <trkpt lat="42.94282078742981" lon="0.8635532855987549">
        <ele>891.4610990352683</ele>
        <time>2021-08-02T19:19:25.117Z</time>
      </trkpt>
      <trkpt lat="42.94286370277405" lon="0.8634889125823975">
        <ele>893.3757212296116</ele>
        <time>2021-08-02T19:19:25.615Z</time>
      </trkpt>
      <trkpt lat="42.942938804626465" lon="0.8634674549102783">
        <ele>895.3266855134289</ele>
        <time>2021-08-02T19:19:26.114Z</time>
      </trkpt>
      <trkpt lat="42.94301390647888" lon="0.863499641418457">
        <ele>897.2764700779093</ele>
        <time>2021-08-02T19:19:26.614Z</time>
      </trkpt>
      <trkpt lat="42.94306755065918" lon="0.8636391162872314">
        <ele>899.1498686323439</ele>
        <time>2021-08-02T19:19:27.116Z</time>
      </trkpt>
      <trkpt lat="42.94313192367554" lon="0.864025354385376">
        <ele>900.9120733060835</ele>
        <time>2021-08-02T19:19:27.623Z</time>
      </trkpt>
      <trkpt lat="42.943464517593384" lon="0.8647656440734863">
        <ele>903.0519672765729</ele>
        <time>2021-08-02T19:19:28.140Z</time>
      </trkpt>
      <trkpt lat="42.94384002685547" lon="0.8653450012207031">
        <ele>905.7247798619852</ele>
        <time>2021-08-02T19:19:28.666Z</time>
      </trkpt>
      <trkpt lat="42.94400095939636" lon="0.865548849105835">
        <ele>908.2203545888805</ele>
        <time>2021-08-02T19:19:29.195Z</time>
      </trkpt>
      <trkpt lat="42.94412970542908" lon="0.8657526969909668">
        <ele>910.7856622766054</ele>
        <time>2021-08-02T19:19:29.728Z</time>
      </trkpt>
      <trkpt lat="42.944215536117554" lon="0.8657741546630859">
        <ele>913.3356467118147</ele>
        <time>2021-08-02T19:19:30.262Z</time>
      </trkpt>
      <trkpt lat="42.94427990913391" lon="0.8657205104827881">
        <ele>915.9155684532541</ele>
        <time>2021-08-02T19:19:30.797Z</time>
      </trkpt>
      <trkpt lat="42.94432282447815" lon="0.8656132221221924">
        <ele>918.5643989516069</ele>
        <time>2021-08-02T19:19:31.334Z</time>
      </trkpt>
      <trkpt lat="42.94431209564209" lon="0.8654630184173584">
        <ele>921.3460483297574</ele>
        <time>2021-08-02T19:19:31.872Z</time>
      </trkpt>
      <trkpt lat="42.944215536117554" lon="0.8652806282043457">
        <ele>924.1292703299283</ele>
        <time>2021-08-02T19:19:32.413Z</time>
      </trkpt>
      <trkpt lat="42.944172620773315" lon="0.8650767803192139">
        <ele>927.0635422116131</ele>
        <time>2021-08-02T19:19:32.956Z</time>
      </trkpt>
      <trkpt lat="42.944183349609375" lon="0.8648622035980225">
        <ele>930.175564720481</ele>
        <time>2021-08-02T19:19:33.502Z</time>
      </trkpt>
      <trkpt lat="42.94433355331421" lon="0.8638107776641846">
        <ele>933.7852986875279</ele>
        <time>2021-08-02T19:19:34.061Z</time>
      </trkpt>
      <trkpt lat="42.94452667236328" lon="0.8627593517303467">
        <ele>937.4687829913348</ele>
        <time>2021-08-02T19:19:34.632Z</time>
      </trkpt>
      <trkpt lat="42.944698333740234" lon="0.8622336387634277">
        <ele>941.093367153197</ele>
        <time>2021-08-02T19:19:35.210Z</time>
      </trkpt>
      <trkpt lat="42.944955825805664" lon="0.8616328239440918">
        <ele>945.0248138292686</ele>
        <time>2021-08-02T19:19:35.796Z</time>
      </trkpt>
      <trkpt lat="42.944955909624696" lon="0.8616328239440918">
        <ele>948.6427675431137</ele>
        <time>2021-08-02T19:19:36.382Z</time>
      </trkpt>
      <trkpt lat="42.94508457183838" lon="0.8612143993377686">
        <ele>952.5481608734608</ele>
        <time>2021-08-02T19:19:36.974Z</time>
      </trkpt>
      <trkpt lat="42.94509530067444" lon="0.8609461784362793">
        <ele>956.3751923759457</ele>
        <time>2021-08-02T19:19:37.569Z</time>
      </trkpt>
      <trkpt lat="42.94503092765808" lon="0.8606672286987305">
        <ele>960.15074445106</ele>
        <time>2021-08-02T19:19:38.167Z</time>
      </trkpt>
      <trkpt lat="42.944945096969604" lon="0.8604097366333008">
        <ele>964.0299042922758</ele>
        <time>2021-08-02T19:19:38.769Z</time>
      </trkpt>
      <trkpt lat="42.944902181625366" lon="0.8596158027648926">
        <ele>968.4105825377861</ele>
        <time>2021-08-02T19:19:39.380Z</time>
      </trkpt>
      <trkpt lat="42.94480562210083" lon="0.8592832088470459">
        <ele>972.5509499609375</ele>
        <time>2021-08-02T19:19:39.995Z</time>
      </trkpt>
      <trkpt lat="42.94458031654358" lon="0.8588862419128418">
        <ele>976.63772973754</ele>
        <time>2021-08-02T19:19:40.616Z</time>
      </trkpt>
      <trkpt lat="42.94455885887146" lon="0.858532190322876">
        <ele>980.8744837615596</ele>
        <time>2021-08-02T19:19:41.241Z</time>
      </trkpt>
      <trkpt lat="42.94455894269049" lon="0.858532190322876">
        <ele>984.9338194631682</ele>
        <time>2021-08-02T19:19:41.866Z</time>
      </trkpt>
      <trkpt lat="42.94453740119934" lon="0.8572125434875488">
        <ele>990.0524441751674</ele>
        <time>2021-08-02T19:19:42.507Z</time>
      </trkpt>
      <trkpt lat="42.94456958770752" lon="0.8571159839630127">
        <ele>994.3150628022545</ele>
        <time>2021-08-02T19:19:43.149Z</time>
      </trkpt>
      <trkpt lat="42.94463396072388" lon="0.8570301532745361">
        <ele>998.5523723923374</ele>
        <time>2021-08-02T19:19:43.792Z</time>
      </trkpt>
      <trkpt lat="42.944709062576294" lon="0.8570408821105957">
        <ele>1002.6361497523828</ele>
        <time>2021-08-02T19:19:44.437Z</time>
      </trkpt>
      <trkpt lat="42.94478416442871" lon="0.8571159839630127">
        <ele>1006.589771171557</ele>
        <time>2021-08-02T19:19:45.083Z</time>
      </trkpt>
      <trkpt lat="42.94486999511719" lon="0.8575344085693359">
        <ele>1010.3209269118336</ele>
        <time>2021-08-02T19:19:45.734Z</time>
      </trkpt>
      <trkpt lat="42.94527769088745" lon="0.8581137657165527">
        <ele>1014.3529476230813</ele>
        <time>2021-08-02T19:19:46.395Z</time>
      </trkpt>
      <trkpt lat="42.945460164919496" lon="0.8584892749786377">
        <ele>1018.3191070083776</ele>
        <time>2021-08-02T19:19:47.061Z</time>
      </trkpt>
      <trkpt lat="42.94573903083801" lon="0.8589935302734375">
        <ele>1022.3074968115607</ele>
        <time>2021-08-02T19:19:47.734Z</time>
      </trkpt>
      <trkpt lat="42.9460608959198" lon="0.8599483966827393">
        <ele>1026.2992774804823</ele>
        <time>2021-08-02T19:19:48.420Z</time>
      </trkpt>
      <trkpt lat="42.94612535275519" lon="0.859980583190918">
        <ele>1030.100505372464</ele>
        <time>2021-08-02T19:19:49.107Z</time>
      </trkpt>
      <trkpt lat="42.946189641952515" lon="0.8599483966827393">
        <ele>1033.8449398521307</ele>
        <time>2021-08-02T19:19:49.795Z</time>
      </trkpt>
      <trkpt lat="42.94626474380493" lon="0.859830379486084">
        <ele>1037.548320833837</ele>
        <time>2021-08-02T19:19:50.485Z</time>
      </trkpt>
      <trkpt lat="42.94612526893616" lon="0.8591115474700928">
        <ele>1040.919595727085</ele>
        <time>2021-08-02T19:19:51.183Z</time>
      </trkpt>
      <trkpt lat="42.946168184280396" lon="0.8583390712738037">
        <ele>1044.6255713242067</ele>
        <time>2021-08-02T19:19:51.891Z</time>
      </trkpt>
      <trkpt lat="42.94630765914917" lon="0.8574485778808594">
        <ele>1048.199979127045</ele>
        <time>2021-08-02T19:19:52.609Z</time>
      </trkpt>
      <trkpt lat="42.94630765914917" lon="0.857234001159668">
        <ele>1051.2755645745683</ele>
        <time>2021-08-02T19:19:53.330Z</time>
      </trkpt>
      <trkpt lat="42.94627547264099" lon="0.857008695602417">
        <ele>1054.2351165378186</ele>
        <time>2021-08-02T19:19:54.053Z</time>
      </trkpt>
      <trkpt lat="42.94632911682129" lon="0.8567404747009277">
        <ele>1057.1967238313234</ele>
        <time>2021-08-02T19:19:54.780Z</time>
      </trkpt>
      <trkpt lat="42.94632911682129" lon="0.856633186340332">
        <ele>1059.8028148961303</ele>
        <time>2021-08-02T19:19:55.508Z</time>
      </trkpt>
      <trkpt lat="42.94627547264099" lon="0.8564293384552002">
        <ele>1062.1756873528311</ele>
        <time>2021-08-02T19:19:56.239Z</time>
      </trkpt>
      <trkpt lat="42.94610381126404" lon="0.8560967445373535">
        <ele>1064.2639364205058</ele>
        <time>2021-08-02T19:19:56.974Z</time>
      </trkpt>
      <trkpt lat="42.94603943824768" lon="0.8558392524719238">
        <ele>1066.2736938553212</ele>
        <time>2021-08-02T19:19:57.712Z</time>
      </trkpt>
      <trkpt lat="42.94599652290344" lon="0.8556139469146729">
        <ele>1068.0932830463785</ele>
        <time>2021-08-02T19:19:58.453Z</time>
      </trkpt>
      <trkpt lat="42.945953607559204" lon="0.8550667762756348">
        <ele>1070.1054588836328</ele>
        <time>2021-08-02T19:19:59.201Z</time>
      </trkpt>
      <trkpt lat="42.945932149887085" lon="0.8549165725708008">
        <ele>1071.5391355782563</ele>
        <time>2021-08-02T19:19:59.950Z</time>
      </trkpt>
      <trkpt lat="42.94587850570679" lon="0.8548414707183838">
        <ele>1072.6311516879878</ele>
        <time>2021-08-02T19:20:00.701Z</time>
      </trkpt>
      <trkpt lat="42.94582486152649" lon="0.8547985553741455">
        <ele>1073.4678657301788</ele>
        <time>2021-08-02T19:20:01.453Z</time>
      </trkpt>
      <trkpt lat="42.945685386657715" lon="0.8547449111938477">
        <ele>1074.007092628499</ele>
        <time>2021-08-02T19:20:02.207Z</time>
      </trkpt>
      <trkpt lat="42.945159673690796" lon="0.8544337749481201">
        <ele>1074.2875544191124</ele>
        <time>2021-08-02T19:20:02.970Z</time>
      </trkpt>
      <trkpt lat="42.9451060295105" lon="0.8543694019317627">
        <ele>1074.3568561171378</ele>
        <time>2021-08-02T19:20:03.734Z</time>
      </trkpt>
      <trkpt lat="42.944934368133545" lon="0.8540689945220947">
        <ele>1074.452573650313</ele>
        <time>2021-08-02T19:20:04.503Z</time>
      </trkpt>
      <trkpt lat="42.94488080777228" lon="0.853961706161499">
        <ele>1074.0985701289449</ele>
        <time>2021-08-02T19:20:05.273Z</time>
      </trkpt>
      <trkpt lat="42.94481635093689" lon="0.853811502456665">
        <ele>1073.4305614115954</ele>
        <time>2021-08-02T19:20:06.045Z</time>
      </trkpt>
      <trkpt lat="42.94464468955994" lon="0.8534896373748779">
        <ele>1072.419760098227</ele>
        <time>2021-08-02T19:20:06.822Z</time>
      </trkpt>
      <trkpt lat="42.943936586380005" lon="0.8523523807525635">
        <ele>1070.7351701388113</ele>
        <time>2021-08-02T19:20:07.617Z</time>
      </trkpt>
      <trkpt lat="42.94372200965881" lon="0.8522129058837891">
        <ele>1069.111558073269</ele>
        <time>2021-08-02T19:20:08.415Z</time>
      </trkpt>
      <trkpt lat="42.94355034828186" lon="0.8521807193756104">
        <ele>1067.3089681013566</ele>
        <time>2021-08-02T19:20:09.216Z</time>
      </trkpt>
      <trkpt lat="42.94327139854431" lon="0.8517837524414062">
        <ele>1065.1039331293687</ele>
        <time>2021-08-02T19:20:10.024Z</time>
      </trkpt>
      <trkpt lat="42.94261693954468" lon="0.8503353595733643">
        <ele>1062.3167719864846</ele>
        <time>2021-08-02T19:20:10.852Z</time>
      </trkpt>
      <trkpt lat="42.94256329536438" lon="0.8501100540161133">
        <ele>1059.7715484126497</ele>
        <time>2021-08-02T19:20:11.682Z</time>
      </trkpt>
      <trkpt lat="42.94262766838074" lon="0.8499276638031006">
        <ele>1056.978668899489</ele>
        <time>2021-08-02T19:20:12.515Z</time>
      </trkpt>
      <trkpt lat="42.94276714324951" lon="0.8498525619506836">
        <ele>1053.9923930085852</ele>
        <time>2021-08-02T19:20:13.350Z</time>
      </trkpt>
      <trkpt lat="42.94324994087219" lon="0.8499383926391602">
        <ele>1050.697045026272</ele>
        <time>2021-08-02T19:20:14.193Z</time>
      </trkpt>
      <trkpt lat="42.94380784034729" lon="0.8500134944915771">
        <ele>1047.3160683265787</ele>
        <time>2021-08-02T19:20:15.045Z</time>
      </trkpt>
      <trkpt lat="42.944194078445435" lon="0.8498632907867432">
        <ele>1043.6870137354026</ele>
        <time>2021-08-02T19:20:15.903Z</time>
      </trkpt>
      <trkpt lat="42.94431209564209" lon="0.8497345447540283">
        <ele>1040.1538199640122</ele>
        <time>2021-08-02T19:20:16.764Z</time>
      </trkpt>
      <trkpt lat="42.944408655166626" lon="0.8493697643280029">
        <ele>1036.5490494549924</ele>
        <time>2021-08-02T19:20:17.629Z</time>
      </trkpt>
      <trkpt lat="42.94447302818298" lon="0.8489513397216797">
        <ele>1032.728021239876</ele>
        <time>2021-08-02T19:20:18.499Z</time>
      </trkpt>
      <trkpt lat="42.9444944858551" lon="0.8481466770172119">
        <ele>1028.4748455432884</ele>
        <time>2021-08-02T19:20:19.379Z</time>
      </trkpt>
      <trkpt lat="42.94453740119934" lon="0.8475780487060547">
        <ele>1024.5708542778025</ele>
        <time>2021-08-02T19:20:20.266Z</time>
      </trkpt>
      <trkpt lat="42.94450521469116" lon="0.8467519283294678">
        <ele>1020.7063957260507</ele>
        <time>2021-08-02T19:20:21.162Z</time>
      </trkpt>
      <trkpt lat="42.944505298510194" lon="0.8467519283294678">
        <ele>1016.6998075354895</ele>
        <time>2021-08-02T19:20:22.058Z</time>
      </trkpt>
      <trkpt lat="42.94452667236328" lon="0.8463120460510254">
        <ele>1012.6430568826206</ele>
        <time>2021-08-02T19:20:22.959Z</time>
      </trkpt>
      <trkpt lat="42.944687604904175" lon="0.8459258079528809">
        <ele>1008.5515871325465</ele>
        <time>2021-08-02T19:20:23.866Z</time>
      </trkpt>
      <trkpt lat="42.94484853744507" lon="0.8447456359863281">
        <ele>1003.6863201309568</ele>
        <time>2021-08-02T19:20:24.787Z</time>
      </trkpt>
      <trkpt lat="42.94462323188782" lon="0.844123363494873">
        <ele>999.521134427362</ele>
        <time>2021-08-02T19:20:25.716Z</time>
      </trkpt>
      <trkpt lat="42.94458031654358" lon="0.8437800407409668">
        <ele>995.1998951180385</ele>
        <time>2021-08-02T19:20:26.649Z</time>
      </trkpt>
      <trkpt lat="42.94456958770752" lon="0.8434689044952393">
        <ele>990.701091335035</ele>
        <time>2021-08-02T19:20:27.586Z</time>
      </trkpt>
      <trkpt lat="42.94434428215027" lon="0.8430933952331543">
        <ele>986.5396521529149</ele>
        <time>2021-08-02T19:20:28.528Z</time>
      </trkpt>
      <trkpt lat="42.943925857543945" lon="0.8427178859710693">
        <ele>982.7389992258453</ele>
        <time>2021-08-02T19:20:29.478Z</time>
      </trkpt>
      <trkpt lat="42.94387221336365" lon="0.8424603939056396">
        <ele>978.5792847073926</ele>
        <time>2021-08-02T19:20:30.432Z</time>
      </trkpt>
      <trkpt lat="42.94401168823242" lon="0.8420312404632568">
        <ele>974.0591481262215</ele>
        <time>2021-08-02T19:20:31.391Z</time>
      </trkpt>
      <trkpt lat="42.94410824775696" lon="0.841677188873291">
        <ele>969.8333006110356</ele>
        <time>2021-08-02T19:20:32.354Z</time>
      </trkpt>
      <trkpt lat="42.9440975189209" lon="0.8415055274963379">
        <ele>966.0127763175702</ele>
        <time>2021-08-02T19:20:33.319Z</time>
      </trkpt>
      <trkpt lat="42.94402241706848" lon="0.8413445949554443">
        <ele>962.3984099741419</ele>
        <time>2021-08-02T19:20:34.287Z</time>
      </trkpt>
      <trkpt lat="42.94329285621643" lon="0.8401644229888916">
        <ele>958.6482064211928</ele>
        <time>2021-08-02T19:20:35.273Z</time>
      </trkpt>
      <trkpt lat="42.94305682182312" lon="0.8394992351531982">
        <ele>954.6766126874378</ele>
        <time>2021-08-02T19:20:36.268Z</time>
      </trkpt>
      <trkpt lat="42.942949533462524" lon="0.8394026756286621">
        <ele>951.4142776363327</ele>
        <time>2021-08-02T19:20:37.265Z</time>
      </trkpt>
      <trkpt lat="42.94254183769226" lon="0.8392095565795898">
        <ele>948.5549377738096</ele>
        <time>2021-08-02T19:20:38.269Z</time>
      </trkpt>
      <trkpt lat="42.94248819351196" lon="0.8391344547271729">
        <ele>945.5583318408635</ele>
        <time>2021-08-02T19:20:39.274Z</time>
      </trkpt>
      <trkpt lat="42.942466735839844" lon="0.8390271663665771">
        <ele>942.5872462602154</ele>
        <time>2021-08-02T19:20:40.280Z</time>
      </trkpt>
      <trkpt lat="42.942466735839844" lon="0.8389627933502197">
        <ele>939.7310190462234</ele>
        <time>2021-08-02T19:20:41.287Z</time>
      </trkpt>
      <trkpt lat="42.94252038002014" lon="0.8388769626617432">
        <ele>936.8777644106137</ele>
        <time>2021-08-02T19:20:42.295Z</time>
      </trkpt>
      <trkpt lat="42.942659854888916" lon="0.838780403137207">
        <ele>934.1652867645003</ele>
        <time>2021-08-02T19:20:43.306Z</time>
      </trkpt>
      <trkpt lat="42.94322848320007" lon="0.8384907245635986">
        <ele>931.0382837206794</ele>
        <time>2021-08-02T19:20:44.326Z</time>
      </trkpt>
      <trkpt lat="42.94331431388855" lon="0.8384048938751221">
        <ele>928.4642017067767</ele>
        <time>2021-08-02T19:20:45.348Z</time>
      </trkpt>
      <trkpt lat="42.94334650039673" lon="0.8382546901702881">
        <ele>926.0833190421774</ele>
        <time>2021-08-02T19:20:46.372Z</time>
      </trkpt>
      <trkpt lat="42.94333577156067" lon="0.8380401134490967">
        <ele>923.8727991415292</ele>
        <time>2021-08-02T19:20:47.398Z</time>
      </trkpt>
      <trkpt lat="42.94327139854431" lon="0.8378255367279053">
        <ele>921.893867220614</ele>
        <time>2021-08-02T19:20:48.427Z</time>
      </trkpt>
      <trkpt lat="42.94309973716736" lon="0.8374714851379395">
        <ele>920.1986529614207</ele>
        <time>2021-08-02T19:20:49.461Z</time>
      </trkpt>
      <trkpt lat="42.942938804626465" lon="0.8369565010070801">
        <ele>918.2533712743349</ele>
        <time>2021-08-02T19:20:50.502Z</time>
      </trkpt>
      <trkpt lat="42.94285297393799" lon="0.836334228515625">
        <ele>915.8936535887872</ele>
        <time>2021-08-02T19:20:51.550Z</time>
      </trkpt>
      <trkpt lat="42.94286370277405" lon="0.8360230922698975">
        <ele>913.4915899572611</ele>
        <time>2021-08-02T19:20:52.602Z</time>
      </trkpt>
      <trkpt lat="42.94281005859375" lon="0.8357870578765869">
        <ele>911.3660845241736</ele>
        <time>2021-08-02T19:20:53.657Z</time>
      </trkpt>
      <trkpt lat="42.942713499069214" lon="0.8357548713684082">
        <ele>909.6808649752938</ele>
        <time>2021-08-02T19:20:54.713Z</time>
      </trkpt>
      <trkpt lat="42.94239163398743" lon="0.8357226848602295">
        <ele>908.2025407265409</ele>
        <time>2021-08-02T19:20:55.774Z</time>
      </trkpt>
      <trkpt lat="42.94205904006958" lon="0.8356583118438721">
        <ele>906.5144994818834</ele>
        <time>2021-08-02T19:20:56.841Z</time>
      </trkpt>
      <trkpt lat="42.94172644615173" lon="0.8354544639587402">
        <ele>904.7333111901846</ele>
        <time>2021-08-02T19:20:57.914Z</time>
      </trkpt>
      <trkpt lat="42.94161915779114" lon="0.8353471755981445">
        <ele>902.9561068556621</ele>
        <time>2021-08-02T19:20:58.989Z</time>
      </trkpt>
      <trkpt lat="42.94155478477478" lon="0.8352291584014893">
        <ele>901.1073387131039</ele>
        <time>2021-08-02T19:21:00.066Z</time>
      </trkpt>
      <trkpt lat="42.94154413975775" lon="0.8351755142211914">
        <ele>899.1747418892292</ele>
        <time>2021-08-02T19:21:01.143Z</time>
      </trkpt>
      <trkpt lat="42.94156559742987" lon="0.8351218700408936">
        <ele>897.1498147357395</ele>
        <time>2021-08-02T19:21:02.221Z</time>
      </trkpt>
      <trkpt lat="42.94158697128296" lon="0.835111141204834">
        <ele>895.0428044081484</ele>
        <time>2021-08-02T19:21:03.299Z</time>
      </trkpt>
      <trkpt lat="42.94199466705322" lon="0.8351755142211914">
        <ele>892.6268373115529</ele>
        <time>2021-08-02T19:21:04.384Z</time>
      </trkpt>
      <trkpt lat="42.94237017631531" lon="0.8351325988769531">
        <ele>889.9862234857932</ele>
        <time>2021-08-02T19:21:05.475Z</time>
      </trkpt>
      <trkpt lat="42.942960262298584" lon="0.834810733795166">
        <ele>886.7720314997566</ele>
        <time>2021-08-02T19:21:06.576Z</time>
      </trkpt>
      <trkpt lat="42.94337877072394" lon="0.8344781398773193">
        <ele>883.7797545363137</ele>
        <time>2021-08-02T19:21:07.685Z</time>
      </trkpt>
      <trkpt lat="42.943486059084535" lon="0.8343386650085449">
        <ele>881.2321946250995</ele>
        <time>2021-08-02T19:21:08.796Z</time>
      </trkpt>
      <trkpt lat="42.9435396194458" lon="0.8342206478118896">
        <ele>878.5943403755327</ele>
        <time>2021-08-02T19:21:09.909Z</time>
      </trkpt>
      <trkpt lat="42.94362545013428" lon="0.8339202404022217">
        <ele>875.6875488289772</ele>
        <time>2021-08-02T19:21:11.026Z</time>
      </trkpt>
      <trkpt lat="42.94386148452759" lon="0.833362340927124">
        <ele>872.9564514075546</ele>
        <time>2021-08-02T19:21:12.150Z</time>
      </trkpt>
      <trkpt lat="42.94410824775696" lon="0.8328258991241455">
        <ele>869.154889556583</ele>
        <time>2021-08-02T19:21:13.282Z</time>
      </trkpt>
      <trkpt lat="42.94431209564209" lon="0.8323216438293457">
        <ele>865.3455984484746</ele>
        <time>2021-08-02T19:21:14.420Z</time>
      </trkpt>
      <trkpt lat="42.944483840838075" lon="0.8321499824523926">
        <ele>862.0176081907525</ele>
        <time>2021-08-02T19:21:15.562Z</time>
      </trkpt>
      <trkpt lat="42.94461258687079" lon="0.8320212364196777">
        <ele>858.739526878584</ele>
        <time>2021-08-02T19:21:16.706Z</time>
      </trkpt>
      <trkpt lat="42.94473052024841" lon="0.8319032192230225">
        <ele>855.3119664102858</ele>
        <time>2021-08-02T19:21:17.853Z</time>
      </trkpt>
      <trkpt lat="42.94537425041199" lon="0.8309483528137207">
        <ele>851.0220878357318</ele>
        <time>2021-08-02T19:21:19.015Z</time>
      </trkpt>
      <trkpt lat="42.94553518295288" lon="0.8298861980438232">
        <ele>846.7770900767441</ele>
        <time>2021-08-02T19:21:20.190Z</time>
      </trkpt>
      <trkpt lat="42.94577121734619" lon="0.829317569732666">
        <ele>842.2441227610907</ele>
        <time>2021-08-02T19:21:21.372Z</time>
      </trkpt>
      <trkpt lat="42.94580340385437" lon="0.829017162322998">
        <ele>837.8887917297986</ele>
        <time>2021-08-02T19:21:22.558Z</time>
      </trkpt>
      <trkpt lat="42.94577121734619" lon="0.8286738395690918">
        <ele>833.5868167100124</ele>
        <time>2021-08-02T19:21:23.748Z</time>
      </trkpt>
      <trkpt lat="42.94579267501831" lon="0.8285772800445557">
        <ele>829.0455485251525</ele>
        <time>2021-08-02T19:21:24.939Z</time>
      </trkpt>
      <trkpt lat="42.94584640301764" lon="0.8284485340118408">
        <ele>824.2794981167771</ele>
        <time>2021-08-02T19:21:26.132Z</time>
      </trkpt>
      <trkpt lat="42.94587858952582" lon="0.8283627033233643">
        <ele>819.4508580794984</ele>
        <time>2021-08-02T19:21:27.326Z</time>
      </trkpt>
      <trkpt lat="42.94609308242798" lon="0.8278155326843262">
        <ele>814.7723131023731</ele>
        <time>2021-08-02T19:21:28.527Z</time>
      </trkpt>
      <trkpt lat="42.94613599777222" lon="0.827643871307373">
        <ele>809.8724741624679</ele>
        <time>2021-08-02T19:21:29.730Z</time>
      </trkpt>
      <trkpt lat="42.946168184280396" lon="0.8271288871765137">
        <ele>804.4623481304632</ele>
        <time>2021-08-02T19:21:30.939Z</time>
      </trkpt>
      <trkpt lat="42.94623255729675" lon="0.8270001411437988">
        <ele>799.352915917753</ele>
        <time>2021-08-02T19:21:32.150Z</time>
      </trkpt>
      <trkpt lat="42.94637203216553" lon="0.8268928527832031">
        <ele>794.1415844343508</ele>
        <time>2021-08-02T19:21:33.364Z</time>
      </trkpt>
      <trkpt lat="42.946758354082704" lon="0.8260667324066162">
        <ele>787.5824964935091</ele>
        <time>2021-08-02T19:21:34.589Z</time>
      </trkpt>
      <trkpt lat="42.946811998263" lon="0.8259487152099609">
        <ele>782.115979585332</ele>
        <time>2021-08-02T19:21:35.816Z</time>
      </trkpt>
      <trkpt lat="42.947176694869995" lon="0.8251011371612549">
        <ele>776.6698296560335</ele>
        <time>2021-08-02T19:21:37.055Z</time>
      </trkpt>
      <trkpt lat="42.947659492492676" lon="0.8244144916534424">
        <ele>769.835840633039</ele>
        <time>2021-08-02T19:21:38.305Z</time>
      </trkpt>
      <trkpt lat="42.947959899902344" lon="0.8241569995880127">
        <ele>764.4154347464408</ele>
        <time>2021-08-02T19:21:39.560Z</time>
      </trkpt>
      <trkpt lat="42.948421239852905" lon="0.8231163024902344">
        <ele>757.5291924681414</ele>
        <time>2021-08-02T19:21:40.830Z</time>
      </trkpt>
      <trkpt lat="42.94862517155707" lon="0.8229553699493408">
        <ele>751.9348595102206</ele>
        <time>2021-08-02T19:21:42.103Z</time>
      </trkpt>
      <trkpt lat="42.948668003082275" lon="0.822826623916626">
        <ele>746.3128433929528</ele>
        <time>2021-08-02T19:21:43.378Z</time>
      </trkpt>
      <trkpt lat="42.948689460754395" lon="0.8226442337036133">
        <ele>740.7368243225668</ele>
        <time>2021-08-02T19:21:44.655Z</time>
      </trkpt>
      <trkpt lat="42.9486358165741" lon="0.8213889598846436">
        <ele>734.7248722563068</ele>
        <time>2021-08-02T19:21:45.947Z</time>
      </trkpt>
      <trkpt lat="42.94857144355774" lon="0.8203375339508057">
        <ele>728.9873991816376</ele>
        <time>2021-08-02T19:21:47.251Z</time>
      </trkpt>
      <trkpt lat="42.948668003082275" lon="0.8196723461151123">
        <ele>723.3751954071065</ele>
        <time>2021-08-02T19:21:48.563Z</time>
      </trkpt>
      <trkpt lat="42.94887185096741" lon="0.8191359043121338">
        <ele>717.9502030830324</ele>
        <time>2021-08-02T19:21:49.883Z</time>
      </trkpt>
      <trkpt lat="42.94935464859009" lon="0.8187925815582275">
        <ele>711.9052722926108</ele>
        <time>2021-08-02T19:21:51.211Z</time>
      </trkpt>
      <trkpt lat="42.94950485229492" lon="0.8187603950500488">
        <ele>706.9707276421982</ele>
        <time>2021-08-02T19:21:52.542Z</time>
      </trkpt>
      <trkpt lat="42.94984817504883" lon="0.8187496662139893">
        <ele>702.1540701199599</ele>
        <time>2021-08-02T19:21:53.878Z</time>
      </trkpt>
      <trkpt lat="42.94999837875366" lon="0.818706750869751">
        <ele>697.5386813965513</ele>
        <time>2021-08-02T19:21:55.217Z</time>
      </trkpt>
      <trkpt lat="42.9504919052124" lon="0.8183205127716064">
        <ele>693.0453054021789</ele>
        <time>2021-08-02T19:21:56.565Z</time>
      </trkpt>
      <trkpt lat="42.95056700706482" lon="0.8182346820831299">
        <ele>688.9113154503142</ele>
        <time>2021-08-02T19:21:57.914Z</time>
      </trkpt>
      <trkpt lat="42.95058846473694" lon="0.8180737495422363">
        <ele>684.9766090848017</ele>
        <time>2021-08-02T19:21:59.265Z</time>
      </trkpt>
      <trkpt lat="42.95010566711426" lon="0.8164536952972412">
        <ele>680.6200789757763</ele>
        <time>2021-08-02T19:22:00.637Z</time>
      </trkpt>
      <trkpt lat="42.949955463409424" lon="0.8163356781005859">
        <ele>677.3802488778493</ele>
        <time>2021-08-02T19:22:02.012Z</time>
      </trkpt>
      <trkpt lat="42.949655055999756" lon="0.8162069320678711">
        <ele>674.4423247805987</ele>
        <time>2021-08-02T19:22:03.392Z</time>
      </trkpt>
      <trkpt lat="42.94947266578674" lon="0.8161640167236328">
        <ele>671.908729461386</ele>
        <time>2021-08-02T19:22:04.775Z</time>
      </trkpt>
      <trkpt lat="42.94934391975403" lon="0.8161747455596924">
        <ele>669.7497141886572</ele>
        <time>2021-08-02T19:22:06.160Z</time>
      </trkpt>
      <trkpt lat="42.949150800704956" lon="0.8163034915924072">
        <ele>668.111718050224</ele>
        <time>2021-08-02T19:22:07.548Z</time>
      </trkpt>
      <trkpt lat="42.94898986816406" lon="0.8164215087890625">
        <ele>666.9715777736374</ele>
        <time>2021-08-02T19:22:08.939Z</time>
      </trkpt>
      <trkpt lat="42.94888257980347" lon="0.8164215087890625">
        <ele>665.8272895504236</ele>
        <time>2021-08-02T19:22:10.332Z</time>
      </trkpt>
      <trkpt lat="42.94873237609863" lon="0.8162713050842285">
        <ele>664.727290697643</ele>
        <time>2021-08-02T19:22:11.728Z</time>
      </trkpt>
      <trkpt lat="42.94854998588562" lon="0.8163034915924072">
        <ele>664.2923292833437</ele>
        <time>2021-08-02T19:22:13.127Z</time>
      </trkpt>
      <trkpt lat="42.94837832450867" lon="0.8160567283630371">
        <ele>663.6077870135787</ele>
        <time>2021-08-02T19:22:14.530Z</time>
      </trkpt>
      <trkpt lat="42.94776678085327" lon="0.8147692680358887">
        <ele>662.8520499441472</ele>
        <time>2021-08-02T19:22:15.951Z</time>
      </trkpt>
      <trkpt lat="42.94758439064026" lon="0.8144259452819824">
        <ele>662.7433664120722</ele>
        <time>2021-08-02T19:22:17.377Z</time>
      </trkpt>
      <trkpt lat="42.94731616973877" lon="0.8142220973968506">
        <ele>663.0107325259755</ele>
        <time>2021-08-02T19:22:18.808Z</time>
      </trkpt>
      <trkpt lat="42.9470157623291" lon="0.8141255378723145">
        <ele>663.6507545094082</ele>
        <time>2021-08-02T19:22:20.243Z</time>
      </trkpt>
      <trkpt lat="42.946715354919434" lon="0.8142435550689697">
        <ele>665.0431288046186</ele>
        <time>2021-08-02T19:22:21.683Z</time>
      </trkpt>
      <trkpt lat="42.94649004936218" lon="0.8141791820526123">
        <ele>666.054052282637</ele>
        <time>2021-08-02T19:22:23.127Z</time>
      </trkpt>
      <trkpt lat="42.94628620147705" lon="0.8138680458068848">
        <ele>666.6960317750822</ele>
        <time>2021-08-02T19:22:24.576Z</time>
      </trkpt>
      <trkpt lat="42.94613599777222" lon="0.8135247230529785">
        <ele>667.3569105370218</ele>
        <time>2021-08-02T19:22:26.030Z</time>
      </trkpt>
      <trkpt lat="42.94587850570679" lon="0.8134174346923828">
        <ele>668.7203190086468</ele>
        <time>2021-08-02T19:22:27.488Z</time>
      </trkpt>
      <trkpt lat="42.94513821601868" lon="0.8136534690856934">
        <ele>670.8695307049536</ele>
        <time>2021-08-02T19:22:28.958Z</time>
      </trkpt>
      <trkpt lat="42.94485926628113" lon="0.8135890960693359">
        <ele>672.5624073379939</ele>
        <time>2021-08-02T19:22:30.433Z</time>
      </trkpt>
      <trkpt lat="42.94455885887146" lon="0.8134067058563232">
        <ele>674.1377783442276</ele>
        <time>2021-08-02T19:22:31.913Z</time>
      </trkpt>
      <trkpt lat="42.94438719749451" lon="0.8132350444793701">
        <ele>675.6172617070006</ele>
        <time>2021-08-02T19:22:33.396Z</time>
      </trkpt>
      <trkpt lat="42.944183349609375" lon="0.8128809928894043">
        <ele>676.9734017969383</ele>
        <time>2021-08-02T19:22:34.885Z</time>
      </trkpt>
      <trkpt lat="42.9440438747406" lon="0.812462568283081">
        <ele>678.3553636706952</ele>
        <time>2021-08-02T19:22:36.379Z</time>
      </trkpt>
      <trkpt lat="42.94376492500305" lon="0.8120763301849365">
        <ele>680.0044031652824</ele>
        <time>2021-08-02T19:22:37.879Z</time>
      </trkpt>
      <trkpt lat="42.943453788757324" lon="0.8119046688079834">
        <ele>681.9978777892222</ele>
        <time>2021-08-02T19:22:39.385Z</time>
      </trkpt>
      <trkpt lat="42.94299244880676" lon="0.8117008209228516">
        <ele>683.9517000720527</ele>
        <time>2021-08-02T19:22:40.899Z</time>
      </trkpt>
      <trkpt lat="42.94256329536438" lon="0.811464786529541">
        <ele>685.8405442462092</ele>
        <time>2021-08-02T19:22:42.420Z</time>
      </trkpt>
      <trkpt lat="42.942445278167725" lon="0.8112716674804688">
        <ele>687.3636660974175</ele>
        <time>2021-08-02T19:22:43.944Z</time>
      </trkpt>
      <trkpt lat="42.94206976890564" lon="0.8110141754150391">
        <ele>688.9731517890216</ele>
        <time>2021-08-02T19:22:45.475Z</time>
      </trkpt>
      <trkpt lat="42.94198393821716" lon="0.8109927177429199">
        <ele>690.755469965778</ele>
        <time>2021-08-02T19:22:47.007Z</time>
      </trkpt>
      <trkpt lat="42.94172644615173" lon="0.8110785484313965">
        <ele>692.8493513877293</ele>
        <time>2021-08-02T19:22:48.543Z</time>
      </trkpt>
      <trkpt lat="42.94105052947998" lon="0.8109605312347412">
        <ele>694.6516413721379</ele>
        <time>2021-08-02T19:22:50.090Z</time>
      </trkpt>
      <trkpt lat="42.94073939323425" lon="0.8108747005462646">
        <ele>696.3690774974175</ele>
        <time>2021-08-02T19:22:51.642Z</time>
      </trkpt>
      <trkpt lat="42.94002056121826" lon="0.8108425140380859">
        <ele>698.9703375903496</ele>
        <time>2021-08-02T19:22:53.206Z</time>
      </trkpt>
      <trkpt lat="42.93982744216919" lon="0.810767412185669">
        <ele>700.8298944025328</ele>
        <time>2021-08-02T19:22:54.773Z</time>
      </trkpt>
      <trkpt lat="42.93962359428406" lon="0.8106601238250732">
        <ele>702.5483780384488</ele>
        <time>2021-08-02T19:22:56.343Z</time>
      </trkpt>
      <trkpt lat="42.939473390579224" lon="0.8103489875793457">
        <ele>703.5379189444552</ele>
        <time>2021-08-02T19:22:57.918Z</time>
      </trkpt>
      <trkpt lat="42.939419746398926" lon="0.809941291809082">
        <ele>703.9753473569232</ele>
        <time>2021-08-02T19:22:59.498Z</time>
      </trkpt>
      <trkpt lat="42.939419746398926" lon="0.8096730709075928">
        <ele>704.7696196151851</ele>
        <time>2021-08-02T19:23:01.081Z</time>
      </trkpt>
      <trkpt lat="42.93937683105469" lon="0.8093833923339844">
        <ele>705.5279583986107</ele>
        <time>2021-08-02T19:23:02.667Z</time>
      </trkpt>
      <trkpt lat="42.939205169677734" lon="0.8091902732849121">
        <ele>706.6247886361937</ele>
        <time>2021-08-02T19:23:04.257Z</time>
      </trkpt>
      <trkpt lat="42.93887257575989" lon="0.8091580867767334">
        <ele>708.5713050654541</ele>
        <time>2021-08-02T19:23:05.852Z</time>
      </trkpt>
      <trkpt lat="42.93856143951416" lon="0.8087718486785889">
        <ele>709.818916405455</ele>
        <time>2021-08-02T19:23:07.454Z</time>
      </trkpt>
      <trkpt lat="42.93837904930115" lon="0.8083534240722656">
        <ele>710.3697892457036</ele>
        <time>2021-08-02T19:23:09.062Z</time>
      </trkpt>
      <trkpt lat="42.93830394744873" lon="0.807945728302002">
        <ele>710.4947392572367</ele>
        <time>2021-08-02T19:23:10.675Z</time>
      </trkpt>
      <trkpt lat="42.938185930252075" lon="0.8074843883514404">
        <ele>710.9791585089231</ele>
        <time>2021-08-02T19:23:12.293Z</time>
      </trkpt>
      <trkpt lat="42.93802499771118" lon="0.8073770999908447">
        <ele>711.7448590316417</ele>
        <time>2021-08-02T19:23:13.914Z</time>
      </trkpt>
      <trkpt lat="42.937445640563965" lon="0.8074843883514404">
        <ele>713.6405836321488</ele>
        <time>2021-08-02T19:23:15.545Z</time>
      </trkpt>
      <trkpt lat="42.93704867362976" lon="0.807344913482666">
        <ele>714.8576222842987</ele>
        <time>2021-08-02T19:23:17.182Z</time>
      </trkpt>
      <trkpt lat="42.93681263923645" lon="0.8069586753845215">
        <ele>715.1848166568213</ele>
        <time>2021-08-02T19:23:18.825Z</time>
      </trkpt>
      <trkpt lat="42.936437129974365" lon="0.8062183856964111">
        <ele>714.7613719003892</ele>
        <time>2021-08-02T19:23:20.479Z</time>
      </trkpt>
      <trkpt lat="42.935922145843506" lon="0.8061003684997559">
        <ele>715.3578741921426</ele>
        <time>2021-08-02T19:23:22.141Z</time>
      </trkpt>
      <trkpt lat="42.935686111450195" lon="0.8061647415161133">
        <ele>715.8614458102948</ele>
        <time>2021-08-02T19:23:23.807Z</time>
      </trkpt>
      <trkpt lat="42.93551445007324" lon="0.8063042163848877">
        <ele>716.2774598759158</ele>
        <time>2021-08-02T19:23:25.476Z</time>
      </trkpt>
      <trkpt lat="42.9350745677948" lon="0.8064436912536621">
        <ele>716.5659382517074</ele>
        <time>2021-08-02T19:23:27.152Z</time>
      </trkpt>
      <trkpt lat="42.934452295303345" lon="0.8061325550079346">
        <ele>717.5068367365873</ele>
        <time>2021-08-02T19:23:28.839Z</time>
      </trkpt>
      <trkpt lat="42.93405532836914" lon="0.8058643341064453">
        <ele>718.2425917990272</ele>
        <time>2021-08-02T19:23:30.533Z</time>
      </trkpt>
      <trkpt lat="42.93387293815613" lon="0.8059394359588623">
        <ele>719.1010386546012</ele>
        <time>2021-08-02T19:23:32.230Z</time>
      </trkpt>
      <trkpt lat="42.933733547106385" lon="0.8063256740570068">
        <ele>719.459263944235</ele>
        <time>2021-08-02T19:23:33.932Z</time>
      </trkpt>
      <trkpt lat="42.93373346328735" lon="0.8063256740570068">
        <ele>720.1356087665242</ele>
        <time>2021-08-02T19:23:35.634Z</time>
      </trkpt>
      <trkpt lat="42.93354034423828" lon="0.8069801330566406">
        <ele>721.4758470889387</ele>
        <time>2021-08-02T19:23:37.344Z</time>
      </trkpt>
      <trkpt lat="42.933411598205566" lon="0.8071732521057129">
        <ele>722.2956585909465</ele>
        <time>2021-08-02T19:23:39.057Z</time>
      </trkpt>
      <trkpt lat="42.933175563812256" lon="0.8073341846466064">
        <ele>723.2202709054512</ele>
        <time>2021-08-02T19:23:40.775Z</time>
      </trkpt>
      <trkpt lat="42.93306827545166" lon="0.807344913482666">
        <ele>724.0197101047228</ele>
        <time>2021-08-02T19:23:42.494Z</time>
      </trkpt>
      <trkpt lat="42.932724952697754" lon="0.807119607925415">
        <ele>724.4063556299975</ele>
        <time>2021-08-02T19:23:44.219Z</time>
      </trkpt>
      <trkpt lat="42.93256402015686" lon="0.8069908618927002">
        <ele>725.1992932932682</ele>
        <time>2021-08-02T19:23:45.947Z</time>
      </trkpt>
      <trkpt lat="42.932467460632324" lon="0.8070230484008789">
        <ele>726.2698975634548</ele>
        <time>2021-08-02T19:23:47.677Z</time>
      </trkpt>
      <trkpt lat="42.93238171376288" lon="0.8071088790893555">
        <ele>727.4483371248599</ele>
        <time>2021-08-02T19:23:49.409Z</time>
      </trkpt>
      <trkpt lat="42.93232798576355" lon="0.8073556423187256">
        <ele>728.8276158389167</ele>
        <time>2021-08-02T19:23:51.144Z</time>
      </trkpt>
      <trkpt lat="42.93228507041931" lon="0.8079886436462402">
        <ele>730.603804453073</ele>
        <time>2021-08-02T19:23:52.886Z</time>
      </trkpt>
      <trkpt lat="42.93239235877991" lon="0.8087074756622314">
        <ele>732.1159817104037</ele>
        <time>2021-08-02T19:23:54.637Z</time>
      </trkpt>
      <trkpt lat="42.93237090110779" lon="0.8088147640228271">
        <ele>733.5387296351628</ele>
        <time>2021-08-02T19:23:56.389Z</time>
      </trkpt>
      <trkpt lat="42.93229579925537" lon="0.8088576793670654">
        <ele>735.0230137428954</ele>
        <time>2021-08-02T19:23:58.142Z</time>
      </trkpt>
      <trkpt lat="42.932231426239014" lon="0.8088040351867676">
        <ele>736.4938034143645</ele>
        <time>2021-08-02T19:23:59.897Z</time>
      </trkpt>
      <trkpt lat="42.932167053222656" lon="0.8087289333343506">
        <ele>738.0082301440634</ele>
        <time>2021-08-02T19:24:01.653Z</time>
      </trkpt>
      <trkpt lat="42.93208122253418" lon="0.8084285259246826">
        <ele>739.4566470729188</ele>
        <time>2021-08-02T19:24:03.413Z</time>
      </trkpt>
      <trkpt lat="42.932049036026" lon="0.8081924915313721">
        <ele>741.0058793025994</ele>
        <time>2021-08-02T19:24:05.176Z</time>
      </trkpt>
      <trkpt lat="42.93200612068176" lon="0.8081173896789551">
        <ele>742.692948108679</ele>
        <time>2021-08-02T19:24:06.940Z</time>
      </trkpt>
      <trkpt lat="42.93181300163269" lon="0.8079242706298828">
        <ele>744.4277656485817</ele>
        <time>2021-08-02T19:24:08.708Z</time>
      </trkpt>
      <trkpt lat="42.931662797927856" lon="0.807870626449585">
        <ele>746.3376186240072</ele>
        <time>2021-08-02T19:24:10.478Z</time>
      </trkpt>
      <trkpt lat="42.931469678878784" lon="0.8077418804168701">
        <ele>748.3481605005804</ele>
        <time>2021-08-02T19:24:12.252Z</time>
      </trkpt>
      <trkpt lat="42.93136239051819" lon="0.8075380325317383">
        <ele>750.2549608260604</ele>
        <time>2021-08-02T19:24:14.028Z</time>
      </trkpt>
      <trkpt lat="42.93125510215759" lon="0.8073878288269043">
        <ele>752.2696540754589</ele>
        <time>2021-08-02T19:24:15.807Z</time>
      </trkpt>
      <trkpt lat="42.930954694747925" lon="0.8072912693023682">
        <ele>754.6246389622574</ele>
        <time>2021-08-02T19:24:17.591Z</time>
      </trkpt>
      <trkpt lat="42.93056845664978" lon="0.8072161674499512">
        <ele>757.1567891477703</ele>
        <time>2021-08-02T19:24:19.381Z</time>
      </trkpt>
      <trkpt lat="42.930428981781006" lon="0.8070766925811768">
        <ele>759.2767482041684</ele>
        <time>2021-08-02T19:24:21.174Z</time>
      </trkpt>
      <trkpt lat="42.93040752410889" lon="0.8070230484008789">
        <ele>761.4403240810163</ele>
        <time>2021-08-02T19:24:22.968Z</time>
      </trkpt>
      <trkpt lat="42.93011784553528" lon="0.8068621158599854">
        <ele>763.7972592491726</ele>
        <time>2021-08-02T19:24:24.767Z</time>
      </trkpt>
      <trkpt lat="42.929967641830444" lon="0.8068943023681641">
        <ele>766.3013283710402</ele>
        <time>2021-08-02T19:24:26.568Z</time>
      </trkpt>
      <trkpt lat="42.92977452278137" lon="0.8070015907287598">
        <ele>768.9763741404404</ele>
        <time>2021-08-02T19:24:28.372Z</time>
      </trkpt>
      <trkpt lat="42.92959213256836" lon="0.8070123195648193">
        <ele>771.5048165768005</ele>
        <time>2021-08-02T19:24:30.179Z</time>
      </trkpt>
      <trkpt lat="42.929238080978394" lon="0.8068728446960449">
        <ele>773.9511295896818</ele>
        <time>2021-08-02T19:24:31.992Z</time>
      </trkpt>
      <trkpt lat="42.928980588912964" lon="0.806647539138794">
        <ele>775.9972369831761</ele>
        <time>2021-08-02T19:24:33.810Z</time>
      </trkpt>
      <trkpt lat="42.92889475822449" lon="0.8065509796142578">
        <ele>778.2602163470459</ele>
        <time>2021-08-02T19:24:35.630Z</time>
      </trkpt>
      <trkpt lat="42.92878746986389" lon="0.8064866065979004">
        <ele>780.5845858712736</ele>
        <time>2021-08-02T19:24:37.452Z</time>
      </trkpt>
      <trkpt lat="42.928733825683594" lon="0.8064866065979004">
        <ele>783.0167440865445</ele>
        <time>2021-08-02T19:24:39.275Z</time>
      </trkpt>
      <trkpt lat="42.92855143547058" lon="0.8066582679748535">
        <ele>785.7063181744628</ele>
        <time>2021-08-02T19:24:41.101Z</time>
      </trkpt>
      <trkpt lat="42.928465604782104" lon="0.8067977428436279">
        <ele>788.3243281718023</ele>
        <time>2021-08-02T19:24:42.929Z</time>
      </trkpt>
      <trkpt lat="42.928229570388794" lon="0.8072268962860107">
        <ele>791.3102434360294</ele>
        <time>2021-08-02T19:24:44.764Z</time>
      </trkpt>
      <trkpt lat="42.9280686378479" lon="0.807420015335083">
        <ele>793.8440453226328</ele>
        <time>2021-08-02T19:24:46.602Z</time>
      </trkpt>
      <trkpt lat="42.927918434143066" lon="0.8076560497283936">
        <ele>796.3582512823432</ele>
        <time>2021-08-02T19:24:48.444Z</time>
      </trkpt>
      <trkpt lat="42.92788624763489" lon="0.8077633380889893">
        <ele>798.6921991294739</ele>
        <time>2021-08-02T19:24:50.287Z</time>
      </trkpt>
      <trkpt lat="42.92776823043823" lon="0.8079671859741211">
        <ele>801.0019144549813</ele>
        <time>2021-08-02T19:24:52.133Z</time>
      </trkpt>
      <trkpt lat="42.927703857421875" lon="0.8080315589904785">
        <ele>803.1374612369186</ele>
        <time>2021-08-02T19:24:53.980Z</time>
      </trkpt>
      <trkpt lat="42.92754292488098" lon="0.8079564571380615">
        <ele>805.0691202368652</ele>
        <time>2021-08-02T19:24:55.830Z</time>
      </trkpt>
      <trkpt lat="42.927424907684326" lon="0.807795524597168">
        <ele>806.9836425076053</ele>
        <time>2021-08-02T19:24:57.683Z</time>
      </trkpt>
      <trkpt lat="42.92730689048767" lon="0.8075916767120361">
        <ele>808.760086447366</ele>
        <time>2021-08-02T19:24:59.539Z</time>
      </trkpt>
      <trkpt lat="42.92724251747131" lon="0.8075380325317383">
        <ele>810.4979448047475</ele>
        <time>2021-08-02T19:25:01.396Z</time>
      </trkpt>
      <trkpt lat="42.926942110061646" lon="0.8075165748596191">
        <ele>812.4106805835846</ele>
        <time>2021-08-02T19:25:03.258Z</time>
      </trkpt>
      <trkpt lat="42.92684563435614" lon="0.8074629306793213">
        <ele>813.948148182333</ele>
        <time>2021-08-02T19:25:05.122Z</time>
      </trkpt>
      <trkpt lat="42.92675971984863" lon="0.8074092864990234">
        <ele>815.3401905590318</ele>
        <time>2021-08-02T19:25:06.987Z</time>
      </trkpt>
      <trkpt lat="42.9266631603241" lon="0.8072268962860107">
        <ele>816.5953994331791</ele>
        <time>2021-08-02T19:25:08.855Z</time>
      </trkpt>
      <trkpt lat="42.926459312438965" lon="0.8067440986633301">
        <ele>817.9088827862125</ele>
        <time>2021-08-02T19:25:10.729Z</time>
      </trkpt>
      <trkpt lat="42.92631983757019" lon="0.80649733543396">
        <ele>819.0457948250801</ele>
        <time>2021-08-02T19:25:12.607Z</time>
      </trkpt>
      <trkpt lat="42.92626619338989" lon="0.8064651489257812">
        <ele>819.9184527180789</ele>
        <time>2021-08-02T19:25:14.486Z</time>
      </trkpt>
      <trkpt lat="42.92583703994751" lon="0.8058536052703857">
        <ele>820.8218942429859</ele>
        <time>2021-08-02T19:25:16.375Z</time>
      </trkpt>
      <trkpt lat="42.92530068196356" lon="0.8052313327789307">
        <ele>820.9718039458942</ele>
        <time>2021-08-02T19:25:18.275Z</time>
      </trkpt>
      <trkpt lat="42.92530059814453" lon="0.8052313327789307">
        <ele>821.2289985786346</ele>
        <time>2021-08-02T19:25:20.175Z</time>
      </trkpt>
      <trkpt lat="42.925204038619995" lon="0.8050704002380371">
        <ele>821.1531137519413</ele>
        <time>2021-08-02T19:25:22.077Z</time>
      </trkpt>
      <trkpt lat="42.9250431060791" lon="0.8050274848937988">
        <ele>821.1812408710003</ele>
        <time>2021-08-02T19:25:23.982Z</time>
      </trkpt>
      <trkpt lat="42.92487144470215" lon="0.8050596714019775">
        <ele>820.9439269353256</ele>
        <time>2021-08-02T19:25:25.890Z</time>
      </trkpt>
      <trkpt lat="42.92460322380066" lon="0.8050596714019775">
        <ele>820.4512091695872</ele>
        <time>2021-08-02T19:25:27.802Z</time>
      </trkpt>
      <trkpt lat="42.92441010475159" lon="0.8049952983856201">
        <ele>819.6968388478225</ele>
        <time>2021-08-02T19:25:29.717Z</time>
      </trkpt>
      <trkpt lat="42.924206256866455" lon="0.805048942565918">
        <ele>818.9722318919632</ele>
        <time>2021-08-02T19:25:31.636Z</time>
      </trkpt>
      <trkpt lat="42.92406678199768" lon="0.805274248123169">
        <ele>818.4476558360873</ele>
        <time>2021-08-02T19:25:33.558Z</time>
      </trkpt>
      <trkpt lat="42.92383074760437" lon="0.8059179782867432">
        <ele>817.9477754078932</ele>
        <time>2021-08-02T19:25:35.489Z</time>
      </trkpt>
      <trkpt lat="42.923455238342285" lon="0.8060574531555176">
        <ele>816.5664404788783</ele>
        <time>2021-08-02T19:25:37.426Z</time>
      </trkpt>
      <trkpt lat="42.9231333732605" lon="0.8061432838439941">
        <ele>815.4465911032166</ele>
        <time>2021-08-02T19:25:39.368Z</time>
      </trkpt>
      <trkpt lat="42.92285442352295" lon="0.8062505722045898">
        <ele>814.4520358508726</ele>
        <time>2021-08-02T19:25:41.315Z</time>
      </trkpt>
      <trkpt lat="42.92267203330994" lon="0.806272029876709">
        <ele>813.293458879715</ele>
        <time>2021-08-02T19:25:43.265Z</time>
      </trkpt>
      <trkpt lat="42.92232871055603" lon="0.8061754703521729">
        <ele>812.159687413294</ele>
        <time>2021-08-02T19:25:45.220Z</time>
      </trkpt>
      <trkpt lat="42.922221422195435" lon="0.8061110973358154">
        <ele>810.9468858314547</ele>
        <time>2021-08-02T19:25:47.177Z</time>
      </trkpt>
      <trkpt lat="42.92184591293335" lon="0.8058750629425049">
        <ele>809.7544711899923</ele>
        <time>2021-08-02T19:25:49.141Z</time>
      </trkpt>
      <trkpt lat="42.921481132507324" lon="0.8055639266967773">
        <ele>808.2775835937276</ele>
        <time>2021-08-02T19:25:51.112Z</time>
      </trkpt>
      <trkpt lat="42.9211699962616" lon="0.8049631118774414">
        <ele>806.2597129901569</ele>
        <time>2021-08-02T19:25:53.091Z</time>
      </trkpt>
      <trkpt lat="42.92109489440918" lon="0.8048450946807861">
        <ele>804.8983367459729</ele>
        <time>2021-08-02T19:25:55.072Z</time>
      </trkpt>
      <trkpt lat="42.92105206288397" lon="0.8047378063201904">
        <ele>803.5694506390745</ele>
        <time>2021-08-02T19:25:57.055Z</time>
      </trkpt>
      <trkpt lat="42.92086967267096" lon="0.8043515682220459">
        <ele>802.5070785715188</ele>
        <time>2021-08-02T19:25:59.043Z</time>
      </trkpt>
      <trkpt lat="42.92086958885193" lon="0.8042442798614502">
        <ele>801.3915725756955</ele>
        <time>2021-08-02T19:26:01.032Z</time>
      </trkpt>
      <trkpt lat="42.92092323303223" lon="0.8041262626647949">
        <ele>800.3084094498458</ele>
        <time>2021-08-02T19:26:03.023Z</time>
      </trkpt>
      <trkpt lat="42.921062707901" lon="0.8039867877960205">
        <ele>799.2862399132187</ele>
        <time>2021-08-02T19:26:05.017Z</time>
      </trkpt>
      <trkpt lat="42.921223640441895" lon="0.8038902282714844">
        <ele>798.3242796658405</ele>
        <time>2021-08-02T19:26:07.013Z</time>
      </trkpt>
      <trkpt lat="42.92130947113037" lon="0.8038902282714844">
        <ele>797.447622141171</ele>
        <time>2021-08-02T19:26:09.011Z</time>
      </trkpt>
      <trkpt lat="42.92155623435974" lon="0.8040404319763184">
        <ele>796.5752574974524</ele>
        <time>2021-08-02T19:26:11.013Z</time>
      </trkpt>
      <trkpt lat="42.921684980392456" lon="0.8040082454681396">
        <ele>795.8696987785659</ele>
        <time>2021-08-02T19:26:13.017Z</time>
      </trkpt>
      <trkpt lat="42.921738624572754" lon="0.8039116859436035">
        <ele>795.2953252301463</ele>
        <time>2021-08-02T19:26:15.023Z</time>
      </trkpt>
      <trkpt lat="42.921738624572754" lon="0.8038151264190674">
        <ele>794.8912862327852</ele>
        <time>2021-08-02T19:26:17.030Z</time>
      </trkpt>
      <trkpt lat="42.92164206504822" lon="0.8035790920257568">
        <ele>794.8403970052075</ele>
        <time>2021-08-02T19:26:19.040Z</time>
      </trkpt>
      <trkpt lat="42.92158842086792" lon="0.8033967018127441">
        <ele>794.7842402407728</ele>
        <time>2021-08-02T19:26:21.052Z</time>
      </trkpt>
      <trkpt lat="42.92158842086792" lon="0.8032357692718506">
        <ele>794.7410638289441</ele>
        <time>2021-08-02T19:26:23.066Z</time>
      </trkpt>
      <trkpt lat="42.92160987854004" lon="0.8031606674194336">
        <ele>794.6705481223516</ele>
        <time>2021-08-02T19:26:25.081Z</time>
      </trkpt>
      <trkpt lat="42.92165279388428" lon="0.8031070232391357">
        <ele>794.6386918217265</ele>
        <time>2021-08-02T19:26:27.097Z</time>
      </trkpt>
      <trkpt lat="42.921727895736694" lon="0.8030533790588379">
        <ele>794.6570570591283</ele>
        <time>2021-08-02T19:26:29.114Z</time>
      </trkpt>
      <trkpt lat="42.92180299758911" lon="0.8030641078948975">
        <ele>794.7900088945787</ele>
        <time>2021-08-02T19:26:31.133Z</time>
      </trkpt>
      <trkpt lat="42.92204976081848" lon="0.8032035827636719">
        <ele>794.9478649045448</ele>
        <time>2021-08-02T19:26:33.156Z</time>
      </trkpt>
      <trkpt lat="42.92213559150696" lon="0.8032786846160889">
        <ele>795.172483355277</ele>
        <time>2021-08-02T19:26:35.180Z</time>
      </trkpt>
      <trkpt lat="42.922232151031494" lon="0.803450345993042">
        <ele>795.3459029588366</ele>
        <time>2021-08-02T19:26:37.207Z</time>
      </trkpt>
      <trkpt lat="42.92232871055603" lon="0.8035683631896973">
        <ele>795.6852652203722</ele>
        <time>2021-08-02T19:26:39.236Z</time>
      </trkpt>
      <trkpt lat="42.922704219818115" lon="0.8039546012878418">
        <ele>795.897583757446</ele>
        <time>2021-08-02T19:26:41.273Z</time>
      </trkpt>
      <trkpt lat="42.92275786399841" lon="0.8039546012878418">
        <ele>796.5445593955637</ele>
        <time>2021-08-02T19:26:43.311Z</time>
      </trkpt>
      <trkpt lat="42.92279005050659" lon="0.8039116859436035">
        <ele>797.3192734415866</ele>
        <time>2021-08-02T19:26:45.349Z</time>
      </trkpt>
      <trkpt lat="42.92279005050659" lon="0.8038580417633057">
        <ele>798.2006574078641</ele>
        <time>2021-08-02T19:26:47.388Z</time>
      </trkpt>
      <trkpt lat="42.92260766029358" lon="0.8037078380584717">
        <ele>799.2723327746199</ele>
        <time>2021-08-02T19:26:49.430Z</time>
      </trkpt>
      <trkpt lat="42.922489643096924" lon="0.8035469055175781">
        <ele>800.4378572113604</ele>
        <time>2021-08-02T19:26:51.475Z</time>
      </trkpt>
      <trkpt lat="42.92239308357239" lon="0.8033859729766846">
        <ele>801.6877781332714</ele>
        <time>2021-08-02T19:26:53.522Z</time>
      </trkpt>
      <trkpt lat="42.92228579521179" lon="0.8031070232391357">
        <ele>803.1830495838144</ele>
        <time>2021-08-02T19:26:55.573Z</time>
      </trkpt>
      <trkpt lat="42.922199964523315" lon="0.8030211925506592">
        <ele>804.4533594457814</ele>
        <time>2021-08-02T19:26:57.626Z</time>
      </trkpt>
      <trkpt lat="42.92213559150696" lon="0.8029139041900635">
        <ele>805.7656776058564</ele>
        <time>2021-08-02T19:26:59.680Z</time>
      </trkpt>
      <trkpt lat="42.9220712184906" lon="0.8027422428131104">
        <ele>807.1788146404961</ele>
        <time>2021-08-02T19:27:01.737Z</time>
      </trkpt>
      <trkpt lat="42.92203903198242" lon="0.8026027679443359">
        <ele>808.6615361179786</ele>
        <time>2021-08-02T19:27:03.795Z</time>
      </trkpt>
      <trkpt lat="42.921985387802124" lon="0.802452564239502">
        <ele>810.2036223838218</ele>
        <time>2021-08-02T19:27:05.855Z</time>
      </trkpt>
      <trkpt lat="42.92182445526123" lon="0.8022809028625488">
        <ele>811.7431884850646</ele>
        <time>2021-08-02T19:27:07.919Z</time>
      </trkpt>
      <trkpt lat="42.92180299758911" lon="0.8022165298461914">
        <ele>813.3965553579003</ele>
        <time>2021-08-02T19:27:09.983Z</time>
      </trkpt>
      <trkpt lat="42.92183518409729" lon="0.8021628856658936">
        <ele>815.162451101533</ele>
        <time>2021-08-02T19:27:12.048Z</time>
      </trkpt>
      <trkpt lat="42.92189955711365" lon="0.8021628856658936">
        <ele>816.9659828674346</ele>
        <time>2021-08-02T19:27:14.114Z</time>
      </trkpt>
      <trkpt lat="42.92226433753967" lon="0.8024203777313232">
        <ele>818.912580249814</ele>
        <time>2021-08-02T19:27:16.187Z</time>
      </trkpt>
      <trkpt lat="42.92238235473633" lon="0.8026027679443359">
        <ele>820.7052770874725</ele>
        <time>2021-08-02T19:27:18.263Z</time>
      </trkpt>
      <trkpt lat="42.92253255844116" lon="0.8029353618621826">
        <ele>822.4390665870214</ele>
        <time>2021-08-02T19:27:20.343Z</time>
      </trkpt>
      <trkpt lat="42.92260766029358" lon="0.8030104637145996">
        <ele>824.3849980629163</ele>
        <time>2021-08-02T19:27:22.425Z</time>
      </trkpt>
      <trkpt lat="42.922693490982056" lon="0.8030211925506592">
        <ele>826.44473083992</ele>
        <time>2021-08-02T19:27:24.508Z</time>
      </trkpt>
      <trkpt lat="42.922961711883545" lon="0.8028924465179443">
        <ele>828.8415971189352</ele>
        <time>2021-08-02T19:27:26.596Z</time>
      </trkpt>
      <trkpt lat="42.92335867881775" lon="0.8028709888458252">
        <ele>831.310688754763</ele>
        <time>2021-08-02T19:27:28.690Z</time>
      </trkpt>
      <trkpt lat="42.92356252670288" lon="0.8027958869934082">
        <ele>833.4982425849423</ele>
        <time>2021-08-02T19:27:30.787Z</time>
      </trkpt>
      <trkpt lat="42.92407751083374" lon="0.8027315139770508">
        <ele>835.5881414633864</ele>
        <time>2021-08-02T19:27:32.893Z</time>
      </trkpt>
      <trkpt lat="42.92413115501404" lon="0.8027100563049316">
        <ele>837.8861639662564</ele>
        <time>2021-08-02T19:27:35.000Z</time>
      </trkpt>
      <trkpt lat="42.92415261268616" lon="0.8026456832885742">
        <ele>840.3086544533469</ele>
        <time>2021-08-02T19:27:37.107Z</time>
      </trkpt>
      <trkpt lat="42.92412042617798" lon="0.8026027679443359">
        <ele>842.7124514116249</ele>
        <time>2021-08-02T19:27:39.215Z</time>
      </trkpt>
      <trkpt lat="42.92407751083374" lon="0.8025813102722168">
        <ele>845.1072430517531</ele>
        <time>2021-08-02T19:27:41.324Z</time>
      </trkpt>
      <trkpt lat="42.92388439178467" lon="0.8026027679443359">
        <ele>847.4099209705425</ele>
        <time>2021-08-02T19:27:43.436Z</time>
      </trkpt>
      <trkpt lat="42.92332649230957" lon="0.8024311065673828">
        <ele>850.1946645913364</ele>
        <time>2021-08-02T19:27:45.557Z</time>
      </trkpt>
      <trkpt lat="42.923219203948975" lon="0.8023560047149658">
        <ele>852.6472550070444</ele>
        <time>2021-08-02T19:27:47.680Z</time>
      </trkpt>
      <trkpt lat="42.92316555976868" lon="0.8022701740264893">
        <ele>855.1977049266522</ele>
        <time>2021-08-02T19:27:49.804Z</time>
      </trkpt>
      <trkpt lat="42.9231333732605" lon="0.8021414279937744">
        <ele>857.8463837640902</ele>
        <time>2021-08-02T19:27:51.930Z</time>
      </trkpt>
      <trkpt lat="42.9230797290802" lon="0.8016479015350342">
        <ele>860.8541253531305</ele>
        <time>2021-08-02T19:27:54.062Z</time>
      </trkpt>
      <trkpt lat="42.9230260848999" lon="0.801476240158081">
        <ele>863.5416645761327</ele>
        <time>2021-08-02T19:27:56.196Z</time>
      </trkpt>
      <trkpt lat="42.922478998079896" lon="0.7999956607818604">
        <ele>866.6434701842516</ele>
        <time>2021-08-02T19:27:58.350Z</time>
      </trkpt>
      <trkpt lat="42.92226433753967" lon="0.7994914054870605">
        <ele>869.3193655575193</ele>
        <time>2021-08-02T19:28:00.510Z</time>
      </trkpt>
      <trkpt lat="42.922242879867554" lon="0.7993412017822266">
        <ele>872.0184589919006</ele>
        <time>2021-08-02T19:28:02.672Z</time>
      </trkpt>
      <trkpt lat="42.92228579521179" lon="0.7992660999298096">
        <ele>874.7748858161287</ele>
        <time>2021-08-02T19:28:04.835Z</time>
      </trkpt>
      <trkpt lat="42.92238235473633" lon="0.7992875576019287">
        <ele>877.5278460929871</ele>
        <time>2021-08-02T19:28:07.000Z</time>
      </trkpt>
      <trkpt lat="42.922478914260864" lon="0.7995343208312988">
        <ele>880.0615981082734</ele>
        <time>2021-08-02T19:28:09.168Z</time>
      </trkpt>
      <trkpt lat="42.9225754737854" lon="0.7996952533721924">
        <ele>882.690458771425</ele>
        <time>2021-08-02T19:28:11.339Z</time>
      </trkpt>
      <trkpt lat="42.922693490982056" lon="0.7998239994049072">
        <ele>885.3877479914961</ele>
        <time>2021-08-02T19:28:13.512Z</time>
      </trkpt>
      <trkpt lat="42.9229296091944" lon="0.7999956607818604">
        <ele>888.2436666832159</ele>
        <time>2021-08-02T19:28:15.689Z</time>
      </trkpt>
      <trkpt lat="42.92309045791626" lon="0.8001458644866943">
        <ele>891.0183917004779</ele>
        <time>2021-08-02T19:28:17.869Z</time>
      </trkpt>
      <trkpt lat="42.92336940765381" lon="0.8005213737487793">
        <ele>893.7601265265295</ele>
        <time>2021-08-02T19:28:20.056Z</time>
      </trkpt>
      <trkpt lat="42.92350888252258" lon="0.8006823062896729">
        <ele>896.4881782485312</ele>
        <time>2021-08-02T19:28:22.246Z</time>
      </trkpt>
      <trkpt lat="42.92416334152222" lon="0.8012402057647705">
        <ele>899.4580285881416</ele>
        <time>2021-08-02T19:28:24.448Z</time>
      </trkpt>
      <trkpt lat="42.924206256866455" lon="0.8013153076171875">
        <ele>902.19480332171</ele>
        <time>2021-08-02T19:28:26.651Z</time>
      </trkpt>
      <trkpt lat="42.924259984865785" lon="0.8013474941253662">
        <ele>905.0223646773408</ele>
        <time>2021-08-02T19:28:28.855Z</time>
      </trkpt>
      <trkpt lat="42.92430281639099" lon="0.8013474941253662">
        <ele>907.8910371766237</ele>
        <time>2021-08-02T19:28:31.060Z</time>
      </trkpt>
      <trkpt lat="42.92432427406311" lon="0.8013045787811279">
        <ele>910.8739178730706</ele>
        <time>2021-08-02T19:28:33.265Z</time>
      </trkpt>
      <trkpt lat="42.92433500289917" lon="0.8012616634368896">
        <ele>913.9018474898758</ele>
        <time>2021-08-02T19:28:35.471Z</time>
      </trkpt>
      <trkpt lat="42.92431354522705" lon="0.8012187480926514">
        <ele>916.9735899865643</ele>
        <time>2021-08-02T19:28:37.678Z</time>
      </trkpt>
      <trkpt lat="42.92412042617798" lon="0.8010256290435791">
        <ele>920.1300767288076</ele>
        <time>2021-08-02T19:28:39.888Z</time>
      </trkpt>
      <trkpt lat="42.923959493637085" lon="0.8007574081420898">
        <ele>923.3884614207375</ele>
        <time>2021-08-02T19:28:42.102Z</time>
      </trkpt>
      <trkpt lat="42.92363771237433" lon="0.7999956607818604">
        <ele>926.9116896024245</ele>
        <time>2021-08-02T19:28:44.327Z</time>
      </trkpt>
      <trkpt lat="42.92355179786682" lon="0.799781084060669">
        <ele>930.2083023071513</ele>
        <time>2021-08-02T19:28:46.555Z</time>
      </trkpt>
      <trkpt lat="42.92339086532593" lon="0.7994699478149414">
        <ele>933.5169936857537</ele>
        <time>2021-08-02T19:28:48.787Z</time>
      </trkpt>
      <trkpt lat="42.9231333732605" lon="0.799030065536499">
        <ele>936.8552622873642</ele>
        <time>2021-08-02T19:28:51.026Z</time>
      </trkpt>
      <trkpt lat="42.922446727752686" lon="0.7974636554718018">
        <ele>940.6622510462585</ele>
        <time>2021-08-02T19:28:53.286Z</time>
      </trkpt>
      <trkpt lat="42.92237162590027" lon="0.7972061634063721">
        <ele>944.0519249694898</ele>
        <time>2021-08-02T19:28:55.549Z</time>
      </trkpt>
      <trkpt lat="42.92228579521179" lon="0.7968306541442871">
        <ele>947.4984306189932</ele>
        <time>2021-08-02T19:28:57.817Z</time>
      </trkpt>
      <trkpt lat="42.922242879867554" lon="0.7964873313903809">
        <ele>951.0477035327317</ele>
        <time>2021-08-02T19:29:00.089Z</time>
      </trkpt>
      <trkpt lat="42.922232151031494" lon="0.7961010932922363">
        <ele>954.5684455849106</ele>
        <time>2021-08-02T19:29:02.366Z</time>
      </trkpt>
      <trkpt lat="42.922199964523315" lon="0.7958006858825684">
        <ele>957.9086198240523</ele>
        <time>2021-08-02T19:29:04.646Z</time>
      </trkpt>
      <trkpt lat="42.9220712184906" lon="0.7950389385223389">
        <ele>961.3114338166806</ele>
        <time>2021-08-02T19:29:06.935Z</time>
      </trkpt>
      <trkpt lat="42.9220175743103" lon="0.7948243618011475">
        <ele>964.5095129269148</ele>
        <time>2021-08-02T19:29:09.227Z</time>
      </trkpt>
      <trkpt lat="42.921942472457886" lon="0.7946527004241943">
        <ele>967.6047363592888</ele>
        <time>2021-08-02T19:29:11.521Z</time>
      </trkpt>
      <trkpt lat="42.921727895736694" lon="0.7943201065063477">
        <ele>970.4866094638166</ele>
        <time>2021-08-02T19:29:13.821Z</time>
      </trkpt>
      <trkpt lat="42.92164206504822" lon="0.7940733432769775">
        <ele>973.5482089933204</ele>
        <time>2021-08-02T19:29:16.124Z</time>
      </trkpt>
      <trkpt lat="42.921491861343384" lon="0.7933437824249268">
        <ele>976.8126836551899</ele>
        <time>2021-08-02T19:29:18.436Z</time>
      </trkpt>
      <trkpt lat="42.92140603065491" lon="0.7930970191955566">
        <ele>979.8126521992546</ele>
        <time>2021-08-02T19:29:20.751Z</time>
      </trkpt>
      <trkpt lat="42.921212911605835" lon="0.7927215099334717">
        <ele>982.6751869297291</ele>
        <time>2021-08-02T19:29:23.071Z</time>
      </trkpt>
      <trkpt lat="42.92112708091736" lon="0.7920455932617188">
        <ele>986.0509874597865</ele>
        <time>2021-08-02T19:29:25.399Z</time>
      </trkpt>
      <trkpt lat="42.92109489440918" lon="0.7914340496063232">
        <ele>989.4367538872468</ele>
        <time>2021-08-02T19:29:27.735Z</time>
      </trkpt>
      <trkpt lat="42.92105197906494" lon="0.7911014556884766">
        <ele>992.3695709564857</ele>
        <time>2021-08-02T19:29:30.075Z</time>
      </trkpt>
      <trkpt lat="42.920429706573486" lon="0.789341926574707">
        <ele>995.4276536811126</ele>
        <time>2021-08-02T19:29:32.438Z</time>
      </trkpt>
      <trkpt lat="42.92037606239319" lon="0.7891380786895752">
        <ele>998.116811821772</ele>
        <time>2021-08-02T19:29:34.803Z</time>
      </trkpt>
      <trkpt lat="42.9203546885401" lon="0.7889556884765625">
        <ele>1000.7095017561621</ele>
        <time>2021-08-02T19:29:37.170Z</time>
      </trkpt>
      <trkpt lat="42.92035460472107" lon="0.7889556884765625">
        <ele>1003.1344377943055</ele>
        <time>2021-08-02T19:29:39.537Z</time>
      </trkpt>
      <trkpt lat="42.92036533355713" lon="0.7888484001159668">
        <ele>1005.5463521542814</ele>
        <time>2021-08-02T19:29:41.906Z</time>
      </trkpt>
      <trkpt lat="42.9205048084259" lon="0.788419246673584">
        <ele>1008.2189130644092</ele>
        <time>2021-08-02T19:29:44.280Z</time>
      </trkpt>
      <trkpt lat="42.92052626609802" lon="0.7883977890014648">
        <ele>1010.4206636128877</ele>
        <time>2021-08-02T19:29:46.654Z</time>
      </trkpt>
      <trkpt lat="42.9205584526062" lon="0.7883763313293457">
        <ele>1012.5492850846738</ele>
        <time>2021-08-02T19:29:49.029Z</time>
      </trkpt>
      <trkpt lat="42.92059063911438" lon="0.7883763313293457">
        <ele>1014.5799497341657</ele>
        <time>2021-08-02T19:29:51.405Z</time>
      </trkpt>
      <trkpt lat="42.9206120967865" lon="0.7883977890014648">
        <ele>1016.5038673071339</ele>
        <time>2021-08-02T19:29:53.781Z</time>
      </trkpt>
      <trkpt lat="42.92064428329468" lon="0.7885050773620605">
        <ele>1018.3119149805023</ele>
        <time>2021-08-02T19:29:56.158Z</time>
      </trkpt>
      <trkpt lat="42.92062282562256" lon="0.7886767387390137">
        <ele>1019.9501107118037</ele>
        <time>2021-08-02T19:29:58.537Z</time>
      </trkpt>
      <trkpt lat="42.92063355445862" lon="0.7887732982635498">
        <ele>1021.6293289197588</ele>
        <time>2021-08-02T19:30:00.918Z</time>
      </trkpt>
      <trkpt lat="42.9206657409668" lon="0.7888591289520264">
        <ele>1023.29607823672</ele>
        <time>2021-08-02T19:30:03.300Z</time>
      </trkpt>
      <trkpt lat="42.92077302932739" lon="0.7889664173126221">
        <ele>1025.005402873228</ele>
        <time>2021-08-02T19:30:05.684Z</time>
      </trkpt>
      <trkpt lat="42.920976877212524" lon="0.7891380786895752">
        <ele>1026.8817736296674</ele>
        <time>2021-08-02T19:30:08.072Z</time>
      </trkpt>
      <trkpt lat="42.92101979255676" lon="0.7892131805419922">
        <ele>1028.5495143507892</ele>
        <time>2021-08-02T19:30:10.461Z</time>
      </trkpt>
      <trkpt lat="42.92107343673706" lon="0.7893848419189453">
        <ele>1030.1766700739147</ele>
        <time>2021-08-02T19:30:12.852Z</time>
      </trkpt>
      <trkpt lat="42.92109489440918" lon="0.7896852493286133">
        <ele>1031.6325439387056</ele>
        <time>2021-08-02T19:30:15.247Z</time>
      </trkpt>
      <trkpt lat="42.92113780975342" lon="0.7898890972137451">
        <ele>1033.150900996955</ele>
        <time>2021-08-02T19:30:17.644Z</time>
      </trkpt>
      <trkpt lat="42.92150259017944" lon="0.7908761501312256">
        <ele>1034.8268931138634</ele>
        <time>2021-08-02T19:30:20.054Z</time>
      </trkpt>
      <trkpt lat="42.92153477668762" lon="0.7908976078033447">
        <ele>1036.4884775074897</ele>
        <time>2021-08-02T19:30:22.465Z</time>
      </trkpt>
      <trkpt lat="42.9215669631958" lon="0.7909083366394043">
        <ele>1038.1814899508292</ele>
        <time>2021-08-02T19:30:24.876Z</time>
      </trkpt>
      <trkpt lat="42.9216206073761" lon="0.790865421295166">
        <ele>1040.0138429657195</ele>
        <time>2021-08-02T19:30:27.288Z</time>
      </trkpt>
      <trkpt lat="42.92164206504822" lon="0.7907795906066895">
        <ele>1041.8297214681425</ele>
        <time>2021-08-02T19:30:29.701Z</time>
      </trkpt>
      <trkpt lat="42.92154550552368" lon="0.790640115737915">
        <ele>1043.4074424431853</ele>
        <time>2021-08-02T19:30:32.116Z</time>
      </trkpt>
      <trkpt lat="42.9215133190155" lon="0.7905542850494385">
        <ele>1045.136459643912</ele>
        <time>2021-08-02T19:30:34.533Z</time>
      </trkpt>
      <trkpt lat="42.921491861343384" lon="0.7904684543609619">
        <ele>1046.9110849306196</ele>
        <time>2021-08-02T19:30:36.951Z</time>
      </trkpt>
      <trkpt lat="42.921470403671265" lon="0.7901895046234131">
        <ele>1048.8852264348993</ele>
        <time>2021-08-02T19:30:39.372Z</time>
      </trkpt>
      <trkpt lat="42.92141675949097" lon="0.7897603511810303">
        <ele>1050.9436091787284</ele>
        <time>2021-08-02T19:30:41.798Z</time>
      </trkpt>
      <trkpt lat="42.92139530181885" lon="0.7891488075256348">
        <ele>1053.150407575813</ele>
        <time>2021-08-02T19:30:44.231Z</time>
      </trkpt>
      <trkpt lat="42.92136311531067" lon="0.7888376712799072">
        <ele>1055.1674610314944</ele>
        <time>2021-08-02T19:30:46.668Z</time>
      </trkpt>
      <trkpt lat="42.92125582695007" lon="0.7881832122802734">
        <ele>1057.240321308308</ele>
        <time>2021-08-02T19:30:49.113Z</time>
      </trkpt>
      <trkpt lat="42.92113780975342" lon="0.7876682281494141">
        <ele>1059.1856474322549</ele>
        <time>2021-08-02T19:30:51.564Z</time>
      </trkpt>
      <trkpt lat="42.920976877212524" lon="0.7864880561828613">
        <ele>1061.450189851448</ele>
        <time>2021-08-02T19:30:54.029Z</time>
      </trkpt>
      <trkpt lat="42.920955419540405" lon="0.7863593101501465">
        <ele>1063.4096810371445</ele>
        <time>2021-08-02T19:30:56.496Z</time>
      </trkpt>
      <trkpt lat="42.92090177536011" lon="0.7862412929534912">
        <ele>1065.280858290692</ele>
        <time>2021-08-02T19:30:58.964Z</time>
      </trkpt>
      <trkpt lat="42.92053699493408" lon="0.7855546474456787">
        <ele>1067.4377125847795</ele>
        <time>2021-08-02T19:31:01.442Z</time>
      </trkpt>
      <trkpt lat="42.920451164245605" lon="0.7853186130523682">
        <ele>1069.4098974646954</ele>
        <time>2021-08-02T19:31:03.924Z</time>
      </trkpt>
      <trkpt lat="42.920451164245605" lon="0.7852864265441895">
        <ele>1071.3356780358495</ele>
        <time>2021-08-02T19:31:06.406Z</time>
      </trkpt>
      <trkpt lat="42.920494079589844" lon="0.7852327823638916">
        <ele>1073.325761769946</ele>
        <time>2021-08-02T19:31:08.889Z</time>
      </trkpt>
      <trkpt lat="42.92054772377014" lon="0.7852542400360107">
        <ele>1075.2655300383267</ele>
        <time>2021-08-02T19:31:11.373Z</time>
      </trkpt>
      <trkpt lat="42.92056918144226" lon="0.7852756977081299">
        <ele>1077.1534600098862</ele>
        <time>2021-08-02T19:31:13.857Z</time>
      </trkpt>
      <trkpt lat="42.9206120967865" lon="0.7854366302490234">
        <ele>1078.9577094815681</ele>
        <time>2021-08-02T19:31:16.343Z</time>
      </trkpt>
      <trkpt lat="42.920740842819214" lon="0.7856833934783936">
        <ele>1080.7608064382516</ele>
        <time>2021-08-02T19:31:18.833Z</time>
      </trkpt>
      <trkpt lat="42.92105197906494" lon="0.7859408855438232">
        <ele>1083.0313701976497</ele>
        <time>2021-08-02T19:31:21.329Z</time>
      </trkpt>
      <trkpt lat="42.92109489440918" lon="0.7860159873962402">
        <ele>1084.9317101992876</ele>
        <time>2021-08-02T19:31:23.826Z</time>
      </trkpt>
      <trkpt lat="42.9211699962616" lon="0.7861554622650146">
        <ele>1086.857990221229</ele>
        <time>2021-08-02T19:31:26.325Z</time>
      </trkpt>
      <trkpt lat="42.92135238647461" lon="0.786670446395874">
        <ele>1088.7697945513348</ele>
        <time>2021-08-02T19:31:28.830Z</time>
      </trkpt>
      <trkpt lat="42.92140603065491" lon="0.7869923114776611">
        <ele>1090.485245457467</ele>
        <time>2021-08-02T19:31:31.339Z</time>
      </trkpt>
      <trkpt lat="42.92141675949097" lon="0.7870352268218994">
        <ele>1092.2941245781049</ele>
        <time>2021-08-02T19:31:33.849Z</time>
      </trkpt>
      <trkpt lat="42.921470403671265" lon="0.7870566844940186">
        <ele>1094.2451795274642</ele>
        <time>2021-08-02T19:31:36.360Z</time>
      </trkpt>
      <trkpt lat="42.92150259017944" lon="0.787045955657959">
        <ele>1096.1501674023332</ele>
        <time>2021-08-02T19:31:38.871Z</time>
      </trkpt>
      <trkpt lat="42.92152404785156" lon="0.7870030403137207">
        <ele>1098.0423895304104</ele>
        <time>2021-08-02T19:31:41.383Z</time>
      </trkpt>
      <trkpt lat="42.92153477668762" lon="0.7869493961334229">
        <ele>1099.9165563985898</ele>
        <time>2021-08-02T19:31:43.896Z</time>
      </trkpt>
      <trkpt lat="42.9215133190155" lon="0.786895751953125">
        <ele>1101.6852894799954</ele>
        <time>2021-08-02T19:31:46.409Z</time>
      </trkpt>
      <trkpt lat="42.921427488327026" lon="0.7866489887237549">
        <ele>1103.419334178514</ele>
        <time>2021-08-02T19:31:48.925Z</time>
      </trkpt>
      <trkpt lat="42.92134165763855" lon="0.7861340045928955">
        <ele>1105.4330958368132</ele>
        <time>2021-08-02T19:31:51.448Z</time>
      </trkpt>
      <trkpt lat="42.92107343673706" lon="0.7852327823638916">
        <ele>1107.2488002303949</ele>
        <time>2021-08-02T19:31:53.982Z</time>
      </trkpt>
      <trkpt lat="42.920976877212524" lon="0.7846534252166748">
        <ele>1109.3252942111544</ele>
        <time>2021-08-02T19:31:56.523Z</time>
      </trkpt>
      <trkpt lat="42.92089104652405" lon="0.784449577331543">
        <ele>1111.0888831888537</ele>
        <time>2021-08-02T19:31:59.067Z</time>
      </trkpt>
      <trkpt lat="42.92065501213074" lon="0.7841062545776367">
        <ele>1112.8458584901568</ele>
        <time>2021-08-02T19:32:01.616Z</time>
      </trkpt>
      <trkpt lat="42.92060136795044" lon="0.783998966217041">
        <ele>1114.6539460116564</ele>
        <time>2021-08-02T19:32:04.167Z</time>
      </trkpt>
      <trkpt lat="42.92056918144226" lon="0.7839024066925049">
        <ele>1116.4841631530633</ele>
        <time>2021-08-02T19:32:06.719Z</time>
      </trkpt>
      <trkpt lat="42.9205048084259" lon="0.7835054397583008">
        <ele>1118.4435720309557</ele>
        <time>2021-08-02T19:32:09.276Z</time>
      </trkpt>
      <trkpt lat="42.920461893081665" lon="0.7833766937255859">
        <ele>1120.268643638643</ele>
        <time>2021-08-02T19:32:11.835Z</time>
      </trkpt>
      <trkpt lat="42.92012929916382" lon="0.7827436923980713">
        <ele>1122.2037227559194</ele>
        <time>2021-08-02T19:32:14.403Z</time>
      </trkpt>
      <trkpt lat="42.91991472244263" lon="0.7823789119720459">
        <ele>1124.4311120412797</ele>
        <time>2021-08-02T19:32:16.976Z</time>
      </trkpt>
      <trkpt lat="42.919743061065674" lon="0.7821214199066162">
        <ele>1126.4654214612538</ele>
        <time>2021-08-02T19:32:19.553Z</time>
      </trkpt>
      <trkpt lat="42.91959285736084" lon="0.7818210124969482">
        <ele>1128.2379899689731</ele>
        <time>2021-08-02T19:32:22.135Z</time>
      </trkpt>
      <trkpt lat="42.9195499420166" lon="0.7817566394805908">
        <ele>1129.9632335585802</ele>
        <time>2021-08-02T19:32:24.718Z</time>
      </trkpt>
      <trkpt lat="42.919453382492065" lon="0.7816708087921143">
        <ele>1131.6806302841514</ele>
        <time>2021-08-02T19:32:27.302Z</time>
      </trkpt>
      <trkpt lat="42.91933544911444" lon="0.7815957069396973">
        <ele>1133.3845496052459</ele>
        <time>2021-08-02T19:32:29.889Z</time>
      </trkpt>
      <trkpt lat="42.91929244995117" lon="0.7815635204315186">
        <ele>1135.0598497968808</ele>
        <time>2021-08-02T19:32:32.476Z</time>
      </trkpt>
      <trkpt lat="42.91928172111511" lon="0.7814884185791016">
        <ele>1136.7201157670254</ele>
        <time>2021-08-02T19:32:35.064Z</time>
      </trkpt>
      <trkpt lat="42.91931390762329" lon="0.7814240455627441">
        <ele>1138.4128182293405</ele>
        <time>2021-08-02T19:32:37.653Z</time>
      </trkpt>
      <trkpt lat="42.91934609413147" lon="0.7814133167266846">
        <ele>1140.1098477512044</ele>
        <time>2021-08-02T19:32:40.243Z</time>
      </trkpt>
      <trkpt lat="42.91938900947571" lon="0.7814240455627441">
        <ele>1141.7840950356822</ele>
        <time>2021-08-02T19:32:42.833Z</time>
      </trkpt>
      <trkpt lat="42.91966795921326" lon="0.7816815376281738">
        <ele>1143.3910970175466</ele>
        <time>2021-08-02T19:32:45.429Z</time>
      </trkpt>
      <trkpt lat="42.91990399360657" lon="0.7819926738739014">
        <ele>1144.862142556785</ele>
        <time>2021-08-02T19:32:48.030Z</time>
      </trkpt>
      <trkpt lat="42.92035460472107" lon="0.7824969291687012">
        <ele>1146.5219780161187</ele>
        <time>2021-08-02T19:32:50.640Z</time>
      </trkpt>
      <trkpt lat="42.92038679122925" lon="0.7825183868408203">
        <ele>1148.2043300173318</ele>
        <time>2021-08-02T19:32:53.251Z</time>
      </trkpt>
      <trkpt lat="42.920440435409546" lon="0.7825076580047607">
        <ele>1149.9866277979688</ele>
        <time>2021-08-02T19:32:55.863Z</time>
      </trkpt>
      <trkpt lat="42.920483350753784" lon="0.7824540138244629">
        <ele>1151.8220438747667</ele>
        <time>2021-08-02T19:32:58.476Z</time>
      </trkpt>
      <trkpt lat="42.920483350753784" lon="0.7824110984802246">
        <ele>1153.5678491246617</ele>
        <time>2021-08-02T19:33:01.089Z</time>
      </trkpt>
      <trkpt lat="42.920429706573486" lon="0.7823359966278076">
        <ele>1155.2655369271195</ele>
        <time>2021-08-02T19:33:03.703Z</time>
      </trkpt>
      <trkpt lat="42.92030096054077" lon="0.7822394371032715">
        <ele>1156.8565946103051</ele>
        <time>2021-08-02T19:33:06.320Z</time>
      </trkpt>
      <trkpt lat="42.92017221450806" lon="0.7820999622344971">
        <ele>1158.524088373047</ele>
        <time>2021-08-02T19:33:08.939Z</time>
      </trkpt>
      <trkpt lat="42.91982889175415" lon="0.781402587890625">
        <ele>1160.7836500864853</ele>
        <time>2021-08-02T19:33:11.568Z</time>
      </trkpt>
      <trkpt lat="42.91932463645935" lon="0.7805657386779785">
        <ele>1162.6919968565608</ele>
        <time>2021-08-02T19:33:14.210Z</time>
      </trkpt>
      <trkpt lat="42.91926026344299" lon="0.7804369926452637">
        <ele>1164.3956214264244</ele>
        <time>2021-08-02T19:33:16.854Z</time>
      </trkpt>
      <trkpt lat="42.91912078857422" lon="0.7799649238586426">
        <ele>1166.489848288058</ele>
        <time>2021-08-02T19:33:19.504Z</time>
      </trkpt>
      <trkpt lat="42.919013584032655" lon="0.7797074317932129">
        <ele>1168.3960244042391</ele>
        <time>2021-08-02T19:33:22.157Z</time>
      </trkpt>
      <trkpt lat="42.91891694068909" lon="0.7793962955474854">
        <ele>1170.1368032491964</ele>
        <time>2021-08-02T19:33:24.814Z</time>
      </trkpt>
      <trkpt lat="42.91882038116455" lon="0.7792139053344727">
        <ele>1171.8204255010664</ele>
        <time>2021-08-02T19:33:27.474Z</time>
      </trkpt>
      <trkpt lat="42.91865944862366" lon="0.7790744304656982">
        <ele>1173.4192859480747</ele>
        <time>2021-08-02T19:33:30.137Z</time>
      </trkpt>
      <trkpt lat="42.91856288909912" lon="0.7790207862854004">
        <ele>1174.9511877796112</ele>
        <time>2021-08-02T19:33:32.802Z</time>
      </trkpt>
      <trkpt lat="42.91828393936157" lon="0.7789134979248047">
        <ele>1176.6411750863062</ele>
        <time>2021-08-02T19:33:35.471Z</time>
      </trkpt>
      <trkpt lat="42.918251752853394" lon="0.778881311416626">
        <ele>1178.1579670995418</ele>
        <time>2021-08-02T19:33:38.141Z</time>
      </trkpt>
      <trkpt lat="42.918241024017334" lon="0.7788276672363281">
        <ele>1179.6208206985066</ele>
        <time>2021-08-02T19:33:40.812Z</time>
      </trkpt>
      <trkpt lat="42.918241024017334" lon="0.7787847518920898">
        <ele>1181.0253775883166</ele>
        <time>2021-08-02T19:33:43.483Z</time>
      </trkpt>
      <trkpt lat="42.91827321052551" lon="0.778731107711792">
        <ele>1182.3555161710528</ele>
        <time>2021-08-02T19:33:46.155Z</time>
      </trkpt>
      <trkpt lat="42.91830539703369" lon="0.7787203788757324">
        <ele>1183.6345400594064</ele>
        <time>2021-08-02T19:33:48.827Z</time>
      </trkpt>
      <trkpt lat="42.91851997375488" lon="0.7787847518920898">
        <ele>1184.7924871010737</ele>
        <time>2021-08-02T19:33:51.503Z</time>
      </trkpt>
      <trkpt lat="42.918734550476074" lon="0.7787740230560303">
        <ele>1186.1465358479861</ele>
        <time>2021-08-02T19:33:54.182Z</time>
      </trkpt>
      <trkpt lat="42.91879892349243" lon="0.7787954807281494">
        <ele>1187.4074870705958</ele>
        <time>2021-08-02T19:33:56.862Z</time>
      </trkpt>
      <trkpt lat="42.91891694068909" lon="0.7789134979248047">
        <ele>1188.614204942999</ele>
        <time>2021-08-02T19:33:59.545Z</time>
      </trkpt>
      <trkpt lat="42.918981313705444" lon="0.7789456844329834">
        <ele>1189.8470674959162</ele>
        <time>2021-08-02T19:34:02.229Z</time>
      </trkpt>
      <trkpt lat="42.91903495788574" lon="0.7789242267608643">
        <ele>1191.1058044109407</ele>
        <time>2021-08-02T19:34:04.914Z</time>
      </trkpt>
      <trkpt lat="42.9190456867218" lon="0.7788383960723877">
        <ele>1192.3889664277008</ele>
        <time>2021-08-02T19:34:07.600Z</time>
      </trkpt>
      <trkpt lat="42.91902422904968" lon="0.7787954807281494">
        <ele>1193.6357863654478</ele>
        <time>2021-08-02T19:34:10.286Z</time>
      </trkpt>
      <trkpt lat="42.918434143066406" lon="0.7781624794006348">
        <ele>1195.0512098768772</ele>
        <time>2021-08-02T19:34:12.984Z</time>
      </trkpt>
      <trkpt lat="42.9181444644928" lon="0.7779157161712646">
        <ele>1196.8098906124972</ele>
        <time>2021-08-02T19:34:15.688Z</time>
      </trkpt>
      <trkpt lat="42.91812300682068" lon="0.7778191566467285">
        <ele>1198.1594919558297</ele>
        <time>2021-08-02T19:34:18.393Z</time>
      </trkpt>
      <trkpt lat="42.9181444644928" lon="0.7777762413024902">
        <ele>1199.4119065712848</ele>
        <time>2021-08-02T19:34:21.099Z</time>
      </trkpt>
      <trkpt lat="42.91817665100098" lon="0.7777547836303711">
        <ele>1200.6332647763209</ele>
        <time>2021-08-02T19:34:23.805Z</time>
      </trkpt>
      <trkpt lat="42.918498516082764" lon="0.7778728008270264">
        <ele>1201.5956924485076</ele>
        <time>2021-08-02T19:34:26.517Z</time>
      </trkpt>
      <trkpt lat="42.91878819465637" lon="0.7778942584991455">
        <ele>1203.226854748572</ele>
        <time>2021-08-02T19:34:29.233Z</time>
      </trkpt>
      <trkpt lat="42.91886329650879" lon="0.7779264450073242">
        <ele>1204.6128122213238</ele>
        <time>2021-08-02T19:34:31.950Z</time>
      </trkpt>
      <trkpt lat="42.918949127197266" lon="0.7780015468597412">
        <ele>1206.0104144060722</ele>
        <time>2021-08-02T19:34:34.669Z</time>
      </trkpt>
      <trkpt lat="42.91907795704901" lon="0.7781732082366943">
        <ele>1207.317333757566</ele>
        <time>2021-08-02T19:34:37.391Z</time>
      </trkpt>
      <trkpt lat="42.91930317878723" lon="0.7785379886627197">
        <ele>1208.5760805209006</ele>
        <time>2021-08-02T19:34:40.119Z</time>
      </trkpt>
      <trkpt lat="42.919496297836304" lon="0.7788598537445068">
        <ele>1210.1407873017322</ele>
        <time>2021-08-02T19:34:42.851Z</time>
      </trkpt>
      <trkpt lat="42.919743061065674" lon="0.7794606685638428">
        <ele>1211.5631835589238</ele>
        <time>2021-08-02T19:34:45.592Z</time>
      </trkpt>
      <trkpt lat="42.91980743408203" lon="0.7794821262359619">
        <ele>1213.2035911953085</ele>
        <time>2021-08-02T19:34:48.334Z</time>
      </trkpt>
      <trkpt lat="42.91983962059021" lon="0.7794713973999023">
        <ele>1214.8389258077632</ele>
        <time>2021-08-02T19:34:51.076Z</time>
      </trkpt>
      <trkpt lat="42.91985034942627" lon="0.7794499397277832">
        <ele>1216.4886090736784</ele>
        <time>2021-08-02T19:34:53.818Z</time>
      </trkpt>
      <trkpt lat="42.91987180709839" lon="0.7793641090393066">
        <ele>1218.306515012328</ele>
        <time>2021-08-02T19:34:56.562Z</time>
      </trkpt>
      <trkpt lat="42.91964650154114" lon="0.7789134979248047">
        <ele>1219.9206276791824</ele>
        <time>2021-08-02T19:34:59.312Z</time>
      </trkpt>
      <trkpt lat="42.91953921318054" lon="0.778656005859375">
        <ele>1221.6603707502563</ele>
        <time>2021-08-02T19:35:02.065Z</time>
      </trkpt>
      <trkpt lat="42.91937828063965" lon="0.7779800891876221">
        <ele>1223.829507457231</ele>
        <time>2021-08-02T19:35:04.827Z</time>
      </trkpt>
      <trkpt lat="42.91916370391846" lon="0.7772290706634521">
        <ele>1225.8027834502536</ele>
        <time>2021-08-02T19:35:07.598Z</time>
      </trkpt>
      <trkpt lat="42.91907787322998" lon="0.7770144939422607">
        <ele>1227.7564869360858</ele>
        <time>2021-08-02T19:35:10.372Z</time>
      </trkpt>
      <trkpt lat="42.91891694068909" lon="0.7767677307128906">
        <ele>1229.6480684546782</ele>
        <time>2021-08-02T19:35:13.150Z</time>
      </trkpt>
      <trkpt lat="42.918680906295776" lon="0.7762420177459717">
        <ele>1231.8054250660725</ele>
        <time>2021-08-02T19:35:15.935Z</time>
      </trkpt>
      <trkpt lat="42.91857361793518" lon="0.7761454582214355">
        <ele>1233.669368862702</ele>
        <time>2021-08-02T19:35:18.722Z</time>
      </trkpt>
      <trkpt lat="42.918241024017334" lon="0.7760918140411377">
        <ele>1235.458122084176</ele>
        <time>2021-08-02T19:35:21.515Z</time>
      </trkpt>
      <trkpt lat="42.918208837509155" lon="0.776059627532959">
        <ele>1237.4101340369527</ele>
        <time>2021-08-02T19:35:24.308Z</time>
      </trkpt>
      <trkpt lat="42.918187379837036" lon="0.7760167121887207">
        <ele>1239.396637659536</ele>
        <time>2021-08-02T19:35:27.102Z</time>
      </trkpt>
      <trkpt lat="42.918187379837036" lon="0.7759523391723633">
        <ele>1241.4305724389174</ele>
        <time>2021-08-02T19:35:29.897Z</time>
      </trkpt>
      <trkpt lat="42.918198108673096" lon="0.775909423828125">
        <ele>1243.4588967075235</ele>
        <time>2021-08-02T19:35:32.692Z</time>
      </trkpt>
      <trkpt lat="42.91827321052551" lon="0.7758557796478271">
        <ele>1245.5142801436714</ele>
        <time>2021-08-02T19:35:35.489Z</time>
      </trkpt>
      <trkpt lat="42.91833758354187" lon="0.775834321975708">
        <ele>1247.557858094514</ele>
        <time>2021-08-02T19:35:38.287Z</time>
      </trkpt>
      <trkpt lat="42.918455600738525" lon="0.7758450508117676">
        <ele>1249.6498200183514</ele>
        <time>2021-08-02T19:35:41.087Z</time>
      </trkpt>
      <trkpt lat="42.91863799095154" lon="0.7758879661560059">
        <ele>1251.8962606936097</ele>
        <time>2021-08-02T19:35:43.889Z</time>
      </trkpt>
      <trkpt lat="42.91884183883667" lon="0.7759737968444824">
        <ele>1254.131843236551</ele>
        <time>2021-08-02T19:35:46.695Z</time>
      </trkpt>
      <trkpt lat="42.91901350021362" lon="0.7760274410247803">
        <ele>1256.2826495995123</ele>
        <time>2021-08-02T19:35:49.504Z</time>
      </trkpt>
      <trkpt lat="42.91911005973816" lon="0.7760059833526611">
        <ele>1258.4815108295343</ele>
        <time>2021-08-02T19:35:52.314Z</time>
      </trkpt>
      <trkpt lat="42.91915305890143" lon="0.7758879661560059">
        <ele>1260.733412265532</ele>
        <time>2021-08-02T19:35:55.126Z</time>
      </trkpt>
      <trkpt lat="42.91912078857422" lon="0.7756948471069336">
        <ele>1263.0359753968578</ele>
        <time>2021-08-02T19:35:57.940Z</time>
      </trkpt>
      <trkpt lat="42.918949127197266" lon="0.7751369476318359">
        <ele>1265.6836867924774</ele>
        <time>2021-08-02T19:36:00.761Z</time>
      </trkpt>
      <trkpt lat="42.91887410916388" lon="0.7748150825500488">
        <ele>1268.1579515931612</ele>
        <time>2021-08-02T19:36:03.586Z</time>
      </trkpt>
      <trkpt lat="42.91886329650879" lon="0.7746219635009766">
        <ele>1270.627203422978</ele>
        <time>2021-08-02T19:36:06.414Z</time>
      </trkpt>
      <trkpt lat="42.91887402534485" lon="0.7745146751403809">
        <ele>1273.1015581346187</ele>
        <time>2021-08-02T19:36:09.243Z</time>
      </trkpt>
      <trkpt lat="42.91900277137756" lon="0.7739460468292236">
        <ele>1275.6935554402198</ele>
        <time>2021-08-02T19:36:12.079Z</time>
      </trkpt>
      <trkpt lat="42.91906714439392" lon="0.7736027240753174">
        <ele>1278.2381362137126</ele>
        <time>2021-08-02T19:36:14.919Z</time>
      </trkpt>
      <trkpt lat="42.91906714439392" lon="0.7734310626983643">
        <ele>1280.7946597723053</ele>
        <time>2021-08-02T19:36:17.761Z</time>
      </trkpt>
      <trkpt lat="42.91905641555786" lon="0.7732808589935303">
        <ele>1283.3804259946908</ele>
        <time>2021-08-02T19:36:20.605Z</time>
      </trkpt>
      <trkpt lat="42.918970584869385" lon="0.772937536239624">
        <ele>1286.0857940685364</ele>
        <time>2021-08-02T19:36:23.453Z</time>
      </trkpt>
      <trkpt lat="42.91891694068909" lon="0.7727980613708496">
        <ele>1288.6948972336938</ele>
        <time>2021-08-02T19:36:26.303Z</time>
      </trkpt>
      <trkpt lat="42.918723821640015" lon="0.7724654674530029">
        <ele>1291.4613991989115</ele>
        <time>2021-08-02T19:36:29.158Z</time>
      </trkpt>
      <trkpt lat="42.918434143066406" lon="0.7721006870269775">
        <ele>1294.3223819500288</ele>
        <time>2021-08-02T19:36:32.019Z</time>
      </trkpt>
      <trkpt lat="42.91834831237793" lon="0.7719612121582031">
        <ele>1296.992419334958</ele>
        <time>2021-08-02T19:36:34.882Z</time>
      </trkpt>
      <trkpt lat="42.91827321052551" lon="0.7717359066009521">
        <ele>1299.6456031334724</ele>
        <time>2021-08-02T19:36:37.748Z</time>
      </trkpt>
      <trkpt lat="42.918241024017334" lon="0.7715964317321777">
        <ele>1302.2446923695757</ele>
        <time>2021-08-02T19:36:40.616Z</time>
      </trkpt>
      <trkpt lat="42.918241024017334" lon="0.7714676856994629">
        <ele>1304.7906822532764</ele>
        <time>2021-08-02T19:36:43.485Z</time>
      </trkpt>
      <trkpt lat="42.91827321052551" lon="0.7709848880767822">
        <ele>1307.358108945577</ele>
        <time>2021-08-02T19:36:46.360Z</time>
      </trkpt>
      <trkpt lat="42.91826248168945" lon="0.7704484462738037">
        <ele>1310.007092911509</ele>
        <time>2021-08-02T19:36:49.241Z</time>
      </trkpt>
      <trkpt lat="42.918208837509155" lon="0.7700836658477783">
        <ele>1312.6840738196697</ele>
        <time>2021-08-02T19:36:52.127Z</time>
      </trkpt>
      <trkpt lat="42.91815519332886" lon="0.7698583602905273">
        <ele>1315.276769351252</ele>
        <time>2021-08-02T19:36:55.016Z</time>
      </trkpt>
      <trkpt lat="42.91813373565674" lon="0.7697403430938721">
        <ele>1317.749438711206</ele>
        <time>2021-08-02T19:36:57.906Z</time>
      </trkpt>
      <trkpt lat="42.9181444644928" lon="0.7696437835693359">
        <ele>1320.1481873546832</ele>
        <time>2021-08-02T19:37:00.797Z</time>
      </trkpt>
      <trkpt lat="42.918241024017334" lon="0.7694292068481445">
        <ele>1322.5146729236499</ele>
        <time>2021-08-02T19:37:03.691Z</time>
      </trkpt>
      <trkpt lat="42.91838049888611" lon="0.7692790031433105">
        <ele>1324.7681376412677</ele>
        <time>2021-08-02T19:37:06.588Z</time>
      </trkpt>
      <trkpt lat="42.91853070259094" lon="0.7691502571105957">
        <ele>1326.8720094729035</ele>
        <time>2021-08-02T19:37:09.488Z</time>
      </trkpt>
      <trkpt lat="42.91875600814819" lon="0.7690107822418213">
        <ele>1328.8413558547154</ele>
        <time>2021-08-02T19:37:12.392Z</time>
      </trkpt>
      <trkpt lat="42.91885256767273" lon="0.7689249515533447">
        <ele>1330.8226741450644</ele>
        <time>2021-08-02T19:37:15.298Z</time>
      </trkpt>
      <trkpt lat="42.91890621185303" lon="0.7688498497009277">
        <ele>1332.7417642514179</ele>
        <time>2021-08-02T19:37:18.205Z</time>
      </trkpt>
      <trkpt lat="42.91901350021362" lon="0.7686460018157959">
        <ele>1334.6376956806098</ele>
        <time>2021-08-02T19:37:21.115Z</time>
      </trkpt>
      <trkpt lat="42.9190993309021" lon="0.7683134078979492">
        <ele>1336.4097171864269</ele>
        <time>2021-08-02T19:37:24.029Z</time>
      </trkpt>
      <trkpt lat="42.91912078857422" lon="0.767970085144043">
        <ele>1338.1319539241076</ele>
        <time>2021-08-02T19:37:26.947Z</time>
      </trkpt>
      <trkpt lat="42.91902422904968" lon="0.7665002346038818">
        <ele>1340.3032016535244</ele>
        <time>2021-08-02T19:37:29.882Z</time>
      </trkpt>
      <trkpt lat="42.91902422904968" lon="0.7663178443908691">
        <ele>1341.6080438935</ele>
        <time>2021-08-02T19:37:32.819Z</time>
      </trkpt>
      <trkpt lat="42.91911005973816" lon="0.7647192478179932">
        <ele>1343.012133295661</ele>
        <time>2021-08-02T19:37:35.775Z</time>
      </trkpt>
      <trkpt lat="42.919195890426636" lon="0.7640647888183594">
        <ele>1343.967814835898</ele>
        <time>2021-08-02T19:37:38.739Z</time>
      </trkpt>
      <trkpt lat="42.91921743191779" lon="0.7636678218841553">
        <ele>1344.763142614302</ele>
        <time>2021-08-02T19:37:41.708Z</time>
      </trkpt>
      <trkpt lat="42.919217348098755" lon="0.7636678218841553">
        <ele>1345.252077511288</ele>
        <time>2021-08-02T19:37:44.677Z</time>
      </trkpt>
      <trkpt lat="42.91939973831177" lon="0.7622730731964111">
        <ele>1345.8422695607628</ele>
        <time>2021-08-02T19:37:47.662Z</time>
      </trkpt>
      <trkpt lat="42.91939973831177" lon="0.7619833946228027">
        <ele>1345.944197608376</ele>
        <time>2021-08-02T19:37:50.651Z</time>
      </trkpt>
      <trkpt lat="42.9193461779505" lon="0.7617902755737305">
        <ele>1345.804186709347</ele>
        <time>2021-08-02T19:37:53.642Z</time>
      </trkpt>
      <trkpt lat="42.919281804934144" lon="0.7615542411804199">
        <ele>1345.4541894490837</ele>
        <time>2021-08-02T19:37:56.636Z</time>
      </trkpt>
      <trkpt lat="42.919195890426636" lon="0.7612752914428711">
        <ele>1344.8657154245354</ele>
        <time>2021-08-02T19:37:59.634Z</time>
      </trkpt>
      <trkpt lat="42.91901350021362" lon="0.7604813575744629">
        <ele>1343.8666415348562</ele>
        <time>2021-08-02T19:38:02.642Z</time>
      </trkpt>
      <trkpt lat="42.918992042541504" lon="0.7601165771484375">
        <ele>1342.627131238446</ele>
        <time>2021-08-02T19:38:05.654Z</time>
      </trkpt>
      <trkpt lat="42.919024312868714" lon="0.759655237197876">
        <ele>1341.338521556575</ele>
        <time>2021-08-02T19:38:08.671Z</time>
      </trkpt>
      <trkpt lat="42.91907787322998" lon="0.759279727935791">
        <ele>1339.9920547985878</ele>
        <time>2021-08-02T19:38:11.693Z</time>
      </trkpt>
      <trkpt lat="42.91907787322998" lon="0.75905442237854">
        <ele>1338.5330039761452</ele>
        <time>2021-08-02T19:38:14.718Z</time>
      </trkpt>
      <trkpt lat="42.9190456867218" lon="0.7589685916900635">
        <ele>1336.9157940659143</ele>
        <time>2021-08-02T19:38:17.744Z</time>
      </trkpt>
      <trkpt lat="42.918734550476074" lon="0.758507251739502">
        <ele>1334.7176661854214</ele>
        <time>2021-08-02T19:38:20.777Z</time>
      </trkpt>
      <trkpt lat="42.918680906295776" lon="0.7583892345428467">
        <ele>1332.8987726831124</ele>
        <time>2021-08-02T19:38:23.812Z</time>
      </trkpt>
      <trkpt lat="42.91856288909912" lon="0.7579708099365234">
        <ele>1331.0758099770223</ele>
        <time>2021-08-02T19:38:26.852Z</time>
      </trkpt>
      <trkpt lat="42.918498516082764" lon="0.7578527927398682">
        <ele>1329.1713602731784</ele>
        <time>2021-08-02T19:38:29.894Z</time>
      </trkpt>
      <trkpt lat="42.91833758354187" lon="0.7576167583465576">
        <ele>1327.1075832725724</ele>
        <time>2021-08-02T19:38:32.939Z</time>
      </trkpt>
      <trkpt lat="42.91802644729614" lon="0.7572305202484131">
        <ele>1324.802293467307</ele>
        <time>2021-08-02T19:38:35.991Z</time>
      </trkpt>
      <trkpt lat="42.917929887771606" lon="0.7570695877075195">
        <ele>1322.6977697343636</ele>
        <time>2021-08-02T19:38:39.046Z</time>
      </trkpt>
      <trkpt lat="42.91787624359131" lon="0.7569515705108643">
        <ele>1320.6860301826569</ele>
        <time>2021-08-02T19:38:42.102Z</time>
      </trkpt>
      <trkpt lat="42.91781187057495" lon="0.7567155361175537">
        <ele>1318.699604081135</ele>
        <time>2021-08-02T19:38:45.161Z</time>
      </trkpt>
      <trkpt lat="42.917736768722534" lon="0.7566726207733154">
        <ele>1316.6844031476116</ele>
        <time>2021-08-02T19:38:48.221Z</time>
      </trkpt>
      <trkpt lat="42.91767239570618" lon="0.7567262649536133">
        <ele>1314.7227786735966</ele>
        <time>2021-08-02T19:38:51.283Z</time>
      </trkpt>
      <trkpt lat="42.91766166687012" lon="0.7567906379699707">
        <ele>1312.944647051376</ele>
        <time>2021-08-02T19:38:54.345Z</time>
      </trkpt>
      <trkpt lat="42.91767239570618" lon="0.7568657398223877">
        <ele>1311.2768296657077</ele>
        <time>2021-08-02T19:38:57.408Z</time>
      </trkpt>
      <trkpt lat="42.917715311050415" lon="0.756983757019043">
        <ele>1309.7405575029766</ele>
        <time>2021-08-02T19:39:00.473Z</time>
      </trkpt>
      <trkpt lat="42.917983531951904" lon="0.7575094699859619">
        <ele>1308.5049489219352</ele>
        <time>2021-08-02T19:39:03.545Z</time>
      </trkpt>
      <trkpt lat="42.91812300682068" lon="0.7578849792480469">
        <ele>1307.0684646373481</ele>
        <time>2021-08-02T19:39:06.622Z</time>
      </trkpt>
      <trkpt lat="42.91815519332886" lon="0.7581210136413574">
        <ele>1305.6225327267603</ele>
        <time>2021-08-02T19:39:09.702Z</time>
      </trkpt>
      <trkpt lat="42.9181444644928" lon="0.7583141326904297">
        <ele>1304.1820240571124</ele>
        <time>2021-08-02T19:39:12.785Z</time>
      </trkpt>
      <trkpt lat="42.91815527714789" lon="0.7585394382476807">
        <ele>1302.821238492646</ele>
        <time>2021-08-02T19:39:15.870Z</time>
      </trkpt>
      <trkpt lat="42.91826248168945" lon="0.7590866088867188">
        <ele>1302.0330524385474</ele>
        <time>2021-08-02T19:39:18.962Z</time>
      </trkpt>
      <trkpt lat="42.918230295181274" lon="0.7591938972473145">
        <ele>1300.8389285258304</ele>
        <time>2021-08-02T19:39:22.055Z</time>
      </trkpt>
      <trkpt lat="42.91816592216492" lon="0.7592260837554932">
        <ele>1299.5945285248013</ele>
        <time>2021-08-02T19:39:25.149Z</time>
      </trkpt>
      <trkpt lat="42.91813373565674" lon="0.7592153549194336">
        <ele>1298.3458781831641</ele>
        <time>2021-08-02T19:39:28.244Z</time>
      </trkpt>
      <trkpt lat="42.91805863380432" lon="0.7591187953948975">
        <ele>1297.0255143912977</ele>
        <time>2021-08-02T19:39:31.340Z</time>
      </trkpt>
      <trkpt lat="42.91804790496826" lon="0.75905442237854">
        <ele>1295.7702532604435</ele>
        <time>2021-08-02T19:39:34.437Z</time>
      </trkpt>
      <trkpt lat="42.9180371761322" lon="0.7587003707885742">
        <ele>1294.2097886531196</ele>
        <time>2021-08-02T19:39:37.538Z</time>
      </trkpt>
      <trkpt lat="42.91789778508246" lon="0.758131742477417">
        <ele>1292.6108390386803</ele>
        <time>2021-08-02T19:39:40.646Z</time>
      </trkpt>
      <trkpt lat="42.917736768722534" lon="0.7575201988220215">
        <ele>1291.3496931009354</ele>
        <time>2021-08-02T19:39:43.762Z</time>
      </trkpt>
      <trkpt lat="42.91767239570618" lon="0.7574665546417236">
        <ele>1290.1164991807989</ele>
        <time>2021-08-02T19:39:46.879Z</time>
      </trkpt>
      <trkpt lat="42.917640209198" lon="0.7574558258056641">
        <ele>1288.9437617086237</ele>
        <time>2021-08-02T19:39:49.997Z</time>
      </trkpt>
      <trkpt lat="42.91758664883673" lon="0.7574880123138428">
        <ele>1287.7340514320608</ele>
        <time>2021-08-02T19:39:53.116Z</time>
      </trkpt>
      <trkpt lat="42.9175865650177" lon="0.7574880123138428">
        <ele>1286.6432518793163</ele>
        <time>2021-08-02T19:39:56.235Z</time>
      </trkpt>
      <trkpt lat="42.91757583618164" lon="0.7575201988220215">
        <ele>1285.5332346083896</ele>
        <time>2021-08-02T19:39:59.354Z</time>
      </trkpt>
      <trkpt lat="42.91756510734558" lon="0.7575953006744385">
        <ele>1284.4165423732445</ele>
        <time>2021-08-02T19:40:02.474Z</time>
      </trkpt>
      <trkpt lat="42.91767239570618" lon="0.7578957080841064">
        <ele>1283.4422946076693</ele>
        <time>2021-08-02T19:40:05.598Z</time>
      </trkpt>
      <trkpt lat="42.91775822639465" lon="0.7583999633789062">
        <ele>1282.6589660663308</ele>
        <time>2021-08-02T19:40:08.728Z</time>
      </trkpt>
      <trkpt lat="42.917747497558594" lon="0.7584536075592041">
        <ele>1281.6404539738137</ele>
        <time>2021-08-02T19:40:11.859Z</time>
      </trkpt>
      <trkpt lat="42.917726039886475" lon="0.7585179805755615">
        <ele>1280.618081716551</ele>
        <time>2021-08-02T19:40:14.991Z</time>
      </trkpt>
      <trkpt lat="42.917704582214355" lon="0.7585501670837402">
        <ele>1279.5378901340832</ele>
        <time>2021-08-02T19:40:18.123Z</time>
      </trkpt>
      <trkpt lat="42.91761875152588" lon="0.7585394382476807">
        <ele>1278.3602554239596</ele>
        <time>2021-08-02T19:40:21.256Z</time>
      </trkpt>
      <trkpt lat="42.91755437850952" lon="0.7584643363952637">
        <ele>1277.0915598879383</ele>
        <time>2021-08-02T19:40:24.391Z</time>
      </trkpt>
      <trkpt lat="42.9175329208374" lon="0.7583999633789062">
        <ele>1275.834247048735</ele>
        <time>2021-08-02T19:40:27.527Z</time>
      </trkpt>
      <trkpt lat="42.9175329208374" lon="0.7581102848052979">
        <ele>1274.280118258504</ele>
        <time>2021-08-02T19:40:30.666Z</time>
      </trkpt>
      <trkpt lat="42.91751146316528" lon="0.757981538772583">
        <ele>1272.9212337223487</ele>
        <time>2021-08-02T19:40:33.807Z</time>
      </trkpt>
      <trkpt lat="42.917468547821045" lon="0.7578635215759277">
        <ele>1271.6765507405642</ele>
        <time>2021-08-02T19:40:36.949Z</time>
      </trkpt>
      <trkpt lat="42.917189598083496" lon="0.7573807239532471">
        <ele>1270.1330889248413</ele>
        <time>2021-08-02T19:40:40.098Z</time>
      </trkpt>
      <trkpt lat="42.91706085205078" lon="0.7571232318878174">
        <ele>1268.7310285372987</ele>
        <time>2021-08-02T19:40:43.251Z</time>
      </trkpt>
      <trkpt lat="42.916996479034424" lon="0.7569515705108643">
        <ele>1267.3705855711273</ele>
        <time>2021-08-02T19:40:46.406Z</time>
      </trkpt>
      <trkpt lat="42.916942834854126" lon="0.7567369937896729">
        <ele>1266.0274757067232</ele>
        <time>2021-08-02T19:40:49.564Z</time>
      </trkpt>
      <trkpt lat="42.916942834854126" lon="0.756608247756958">
        <ele>1264.8129311380924</ele>
        <time>2021-08-02T19:40:52.723Z</time>
      </trkpt>
      <trkpt lat="42.916985750198364" lon="0.7562649250030518">
        <ele>1263.7542375250796</ele>
        <time>2021-08-02T19:40:55.887Z</time>
      </trkpt>
      <trkpt lat="42.916985750198364" lon="0.7562005519866943">
        <ele>1262.586674977113</ele>
        <time>2021-08-02T19:40:59.051Z</time>
      </trkpt>
      <trkpt lat="42.916932106018066" lon="0.7561147212982178">
        <ele>1261.308195512137</ele>
        <time>2021-08-02T19:41:02.217Z</time>
      </trkpt>
      <trkpt lat="42.91686773300171" lon="0.7560932636260986">
        <ele>1260.031467521354</ele>
        <time>2021-08-02T19:41:05.384Z</time>
      </trkpt>
      <trkpt lat="42.91683554649353" lon="0.7561039924621582">
        <ele>1258.843728391159</ele>
        <time>2021-08-02T19:41:08.551Z</time>
      </trkpt>
      <trkpt lat="42.91681408882141" lon="0.7561361789703369">
        <ele>1257.6930274575261</ele>
        <time>2021-08-02T19:41:11.719Z</time>
      </trkpt>
      <trkpt lat="42.91680335998535" lon="0.7562220096588135">
        <ele>1256.5827723958123</ele>
        <time>2021-08-02T19:41:14.888Z</time>
      </trkpt>
      <trkpt lat="42.91680335998535" lon="0.756983757019043">
        <ele>1255.6396446581684</ele>
        <time>2021-08-02T19:41:18.066Z</time>
      </trkpt>
      <trkpt lat="42.91685700416565" lon="0.7573056221008301">
        <ele>1254.652655367967</ele>
        <time>2021-08-02T19:41:21.248Z</time>
      </trkpt>
      <trkpt lat="42.91686773300171" lon="0.7574343681335449">
        <ele>1253.6517225143489</ele>
        <time>2021-08-02T19:41:24.431Z</time>
      </trkpt>
      <trkpt lat="42.91682481765747" lon="0.7575523853302002">
        <ele>1252.6455595187322</ele>
        <time>2021-08-02T19:41:27.616Z</time>
      </trkpt>
      <trkpt lat="42.916706800460815" lon="0.7576274871826172">
        <ele>1251.5546743325895</ele>
        <time>2021-08-02T19:41:30.803Z</time>
      </trkpt>
      <trkpt lat="42.91655659675598" lon="0.7576489448547363">
        <ele>1250.3941178334894</ele>
        <time>2021-08-02T19:41:33.992Z</time>
      </trkpt>
      <trkpt lat="42.916460037231445" lon="0.7576489448547363">
        <ele>1249.1714364292961</ele>
        <time>2021-08-02T19:41:37.183Z</time>
      </trkpt>
      <trkpt lat="42.91626691818237" lon="0.7575738430023193">
        <ele>1247.8274530110848</ele>
        <time>2021-08-02T19:41:40.377Z</time>
      </trkpt>
      <trkpt lat="42.91615962982178" lon="0.7575201988220215">
        <ele>1246.4776201379827</ele>
        <time>2021-08-02T19:41:43.573Z</time>
      </trkpt>
      <trkpt lat="42.915955781936646" lon="0.7573378086090088">
        <ele>1244.9371020626954</ele>
        <time>2021-08-02T19:41:46.773Z</time>
      </trkpt>
      <trkpt lat="42.91584849357605" lon="0.7571983337402344">
        <ele>1243.3612049033848</ele>
        <time>2021-08-02T19:41:49.975Z</time>
      </trkpt>
      <trkpt lat="42.91563391685486" lon="0.7568550109863281">
        <ele>1241.4584262937979</ele>
        <time>2021-08-02T19:41:53.182Z</time>
      </trkpt>
      <trkpt lat="42.915483713150024" lon="0.7566618919372559">
        <ele>1239.7415302152156</ele>
        <time>2021-08-02T19:41:56.393Z</time>
      </trkpt>
      <trkpt lat="42.91541934013367" lon="0.756608247756958">
        <ele>1238.2203196296884</ele>
        <time>2021-08-02T19:41:59.605Z</time>
      </trkpt>
      <trkpt lat="42.91534423828125" lon="0.7565867900848389">
        <ele>1236.7228025726845</ele>
        <time>2021-08-02T19:42:02.818Z</time>
      </trkpt>
      <trkpt lat="42.91527986526489" lon="0.7565867900848389">
        <ele>1235.248745121461</ele>
        <time>2021-08-02T19:42:06.032Z</time>
      </trkpt>
      <trkpt lat="42.91516184806824" lon="0.7566511631011963">
        <ele>1233.7926004408996</ele>
        <time>2021-08-02T19:42:09.248Z</time>
      </trkpt>
      <trkpt lat="42.91509747505188" lon="0.7567369937896729">
        <ele>1232.3880036337714</ele>
        <time>2021-08-02T19:42:12.466Z</time>
      </trkpt>
      <trkpt lat="42.91485071182251" lon="0.7572519779205322">
        <ele>1231.1994539754721</ele>
        <time>2021-08-02T19:42:15.691Z</time>
      </trkpt>
      <trkpt lat="42.91480779647827" lon="0.7572841644287109">
        <ele>1229.7236358963723</ele>
        <time>2021-08-02T19:42:18.917Z</time>
      </trkpt>
      <trkpt lat="42.914754236117005" lon="0.7573056221008301">
        <ele>1228.2142172538552</ele>
        <time>2021-08-02T19:42:22.144Z</time>
      </trkpt>
      <trkpt lat="42.91470059193671" lon="0.7572519779205322">
        <ele>1226.6004052266399</ele>
        <time>2021-08-02T19:42:25.372Z</time>
      </trkpt>
      <trkpt lat="42.914689779281616" lon="0.7571446895599365">
        <ele>1224.9953975925102</ele>
        <time>2021-08-02T19:42:28.601Z</time>
      </trkpt>
      <trkpt lat="42.914732778444886" lon="0.7570374011993408">
        <ele>1223.4748347649165</ele>
        <time>2021-08-02T19:42:31.831Z</time>
      </trkpt>
      <trkpt lat="42.91478633880615" lon="0.7568871974945068">
        <ele>1221.9239326336615</ele>
        <time>2021-08-02T19:42:35.063Z</time>
      </trkpt>
      <trkpt lat="42.91481852531433" lon="0.7567799091339111">
        <ele>1220.3659799370569</ele>
        <time>2021-08-02T19:42:38.297Z</time>
      </trkpt>
      <trkpt lat="42.91486144065857" lon="0.7563185691833496">
        <ele>1218.4739814202758</ele>
        <time>2021-08-02T19:42:41.536Z</time>
      </trkpt>
      <trkpt lat="42.91492581367493" lon="0.7560181617736816">
        <ele>1216.8856670483915</ele>
        <time>2021-08-02T19:42:44.779Z</time>
      </trkpt>
      <trkpt lat="42.91492581367493" lon="0.7559645175933838">
        <ele>1215.4083698666782</ele>
        <time>2021-08-02T19:42:48.022Z</time>
      </trkpt>
      <trkpt lat="42.91488289833069" lon="0.7558894157409668">
        <ele>1213.8888613079407</ele>
        <time>2021-08-02T19:42:51.267Z</time>
      </trkpt>
      <trkpt lat="42.91480779647827" lon="0.7558786869049072">
        <ele>1212.3939318949483</ele>
        <time>2021-08-02T19:42:54.513Z</time>
      </trkpt>
      <trkpt lat="42.91477560997009" lon="0.7559108734130859">
        <ele>1210.9896946093081</ele>
        <time>2021-08-02T19:42:57.759Z</time>
      </trkpt>
      <trkpt lat="42.91471132077277" lon="0.7560396194458008">
        <ele>1209.6315977578229</ele>
        <time>2021-08-02T19:43:01.007Z</time>
      </trkpt>
      <trkpt lat="42.914711236953735" lon="0.7560396194458008">
        <ele>1208.275046002183</ele>
        <time>2021-08-02T19:43:04.255Z</time>
      </trkpt>
      <trkpt lat="42.91460394859314" lon="0.7562434673309326">
        <ele>1206.9653778302904</ele>
        <time>2021-08-02T19:43:07.506Z</time>
      </trkpt>
      <trkpt lat="42.914475202560425" lon="0.7564473152160645">
        <ele>1205.6727735456934</ele>
        <time>2021-08-02T19:43:10.760Z</time>
      </trkpt>
      <trkpt lat="42.914217710494995" lon="0.756758451461792">
        <ele>1204.3617346531132</ele>
        <time>2021-08-02T19:43:14.020Z</time>
      </trkpt>
      <trkpt lat="42.9141640663147" lon="0.7568013668060303">
        <ele>1203.0884626105435</ele>
        <time>2021-08-02T19:43:17.281Z</time>
      </trkpt>
      <trkpt lat="42.91407823562622" lon="0.7568228244781494">
        <ele>1201.8040322957931</ele>
        <time>2021-08-02T19:43:20.543Z</time>
      </trkpt>
      <trkpt lat="42.91401386260986" lon="0.756758451461792">
        <ele>1200.4496212988906</ele>
        <time>2021-08-02T19:43:23.806Z</time>
      </trkpt>
      <trkpt lat="42.914003133773804" lon="0.7567048072814941">
        <ele>1199.1041020016435</ele>
        <time>2021-08-02T19:43:27.070Z</time>
      </trkpt>
      <trkpt lat="42.91402459144592" lon="0.7565975189208984">
        <ele>1197.71420652653</ele>
        <time>2021-08-02T19:43:30.335Z</time>
      </trkpt>
      <trkpt lat="42.91413187980652" lon="0.756382942199707">
        <ele>1196.2326908776981</ele>
        <time>2021-08-02T19:43:33.603Z</time>
      </trkpt>
      <trkpt lat="42.914217710494995" lon="0.7561361789703369">
        <ele>1194.761588513898</ele>
        <time>2021-08-02T19:43:36.875Z</time>
      </trkpt>
      <trkpt lat="42.91429281234741" lon="0.7558465003967285">
        <ele>1193.3434891658326</ele>
        <time>2021-08-02T19:43:40.150Z</time>
      </trkpt>
      <trkpt lat="42.91440010070801" lon="0.7551705837249756">
        <ele>1191.8217817159687</ele>
        <time>2021-08-02T19:43:43.433Z</time>
      </trkpt>
      <trkpt lat="42.914464473724365" lon="0.7548701763153076">
        <ele>1190.480673230225</ele>
        <time>2021-08-02T19:43:46.720Z</time>
      </trkpt>
      <trkpt lat="42.9145073890686" lon="0.7547950744628906">
        <ele>1189.2089475561452</ele>
        <time>2021-08-02T19:43:50.008Z</time>
      </trkpt>
      <trkpt lat="42.91464686393738" lon="0.7546126842498779">
        <ele>1187.967750900381</ele>
        <time>2021-08-02T19:43:53.299Z</time>
      </trkpt>
      <trkpt lat="42.91465759277344" lon="0.7545161247253418">
        <ele>1186.7073954713953</ele>
        <time>2021-08-02T19:43:56.591Z</time>
      </trkpt>
      <trkpt lat="42.91460394859314" lon="0.754462480545044">
        <ele>1185.4317369982518</ele>
        <time>2021-08-02T19:43:59.885Z</time>
      </trkpt>
      <trkpt lat="42.91457176208496" lon="0.7544517517089844">
        <ele>1184.2032300869275</ele>
        <time>2021-08-02T19:44:03.179Z</time>
      </trkpt>
      <trkpt lat="42.91452884674072" lon="0.7544732093811035">
        <ele>1182.9917449270488</ele>
        <time>2021-08-02T19:44:06.474Z</time>
      </trkpt>
      <trkpt lat="42.91442155838013" lon="0.7546019554138184">
        <ele>1181.7916790081404</ele>
        <time>2021-08-02T19:44:09.771Z</time>
      </trkpt>
      <trkpt lat="42.91403532028198" lon="0.7549452781677246">
        <ele>1180.4392924204076</ele>
        <time>2021-08-02T19:44:13.075Z</time>
      </trkpt>
      <trkpt lat="42.91384220123291" lon="0.7551920413970947">
        <ele>1179.217106214281</ele>
        <time>2021-08-02T19:44:16.384Z</time>
      </trkpt>
      <trkpt lat="42.91376709938049" lon="0.7552134990692139">
        <ele>1178.049066694951</ele>
        <time>2021-08-02T19:44:19.694Z</time>
      </trkpt>
      <trkpt lat="42.913702726364136" lon="0.755159854888916">
        <ele>1176.8061381764808</ele>
        <time>2021-08-02T19:44:23.005Z</time>
      </trkpt>
      <trkpt lat="42.913691997528076" lon="0.7551169395446777">
        <ele>1175.5898657917537</ele>
        <time>2021-08-02T19:44:26.317Z</time>
      </trkpt>
      <trkpt lat="42.913713455200195" lon="0.755009651184082">
        <ele>1174.3184043195854</ele>
        <time>2021-08-02T19:44:29.630Z</time>
      </trkpt>
      <trkpt lat="42.91392803192139" lon="0.7546663284301758">
        <ele>1173.1870156757893</ele>
        <time>2021-08-02T19:44:32.948Z</time>
      </trkpt>
      <trkpt lat="42.91402459144592" lon="0.754387378692627">
        <ele>1171.9214231023839</ele>
        <time>2021-08-02T19:44:36.270Z</time>
      </trkpt>
      <trkpt lat="42.91404604911804" lon="0.7540655136108398">
        <ele>1170.5906946120463</ele>
        <time>2021-08-02T19:44:39.596Z</time>
      </trkpt>
      <trkpt lat="42.91404604911804" lon="0.7535719871520996">
        <ele>1169.1096578066351</ele>
        <time>2021-08-02T19:44:42.928Z</time>
      </trkpt>
      <trkpt lat="42.91408896446228" lon="0.7533788681030273">
        <ele>1167.8644966840247</ele>
        <time>2021-08-02T19:44:46.262Z</time>
      </trkpt>
      <trkpt lat="42.914206981658936" lon="0.7531535625457764">
        <ele>1166.6960467265399</ele>
        <time>2021-08-02T19:44:49.599Z</time>
      </trkpt>
      <trkpt lat="42.914206981658936" lon="0.7530999183654785">
        <ele>1165.389546114442</ele>
        <time>2021-08-02T19:44:52.937Z</time>
      </trkpt>
      <trkpt lat="42.914185523986816" lon="0.7530677318572998">
        <ele>1164.0273303290683</ele>
        <time>2021-08-02T19:44:56.275Z</time>
      </trkpt>
      <trkpt lat="42.91413187980652" lon="0.7530355453491211">
        <ele>1162.5788872637854</ele>
        <time>2021-08-02T19:44:59.614Z</time>
      </trkpt>
      <trkpt lat="42.91407823562622" lon="0.7530570030212402">
        <ele>1161.1149484116527</ele>
        <time>2021-08-02T19:45:02.954Z</time>
      </trkpt>
      <trkpt lat="42.914003133773804" lon="0.7531321048736572">
        <ele>1159.592501288267</ele>
        <time>2021-08-02T19:45:06.296Z</time>
      </trkpt>
      <trkpt lat="42.9136061668396" lon="0.7536900043487549">
        <ele>1157.8659321305636</ele>
        <time>2021-08-02T19:45:09.647Z</time>
      </trkpt>
      <trkpt lat="42.91333794593811" lon="0.7541191577911377">
        <ele>1156.3790139005005</ele>
        <time>2021-08-02T19:45:13.004Z</time>
      </trkpt>
      <trkpt lat="42.91327357292175" lon="0.7541298866271973">
        <ele>1154.7863029570758</ele>
        <time>2021-08-02T19:45:16.362Z</time>
      </trkpt>
      <trkpt lat="42.913230657577515" lon="0.7540762424468994">
        <ele>1153.0918725872816</ele>
        <time>2021-08-02T19:45:19.721Z</time>
      </trkpt>
      <trkpt lat="42.913230657577515" lon="0.7540333271026611">
        <ele>1151.3453479708996</ele>
        <time>2021-08-02T19:45:23.081Z</time>
      </trkpt>
      <trkpt lat="42.91337013244629" lon="0.7536792755126953">
        <ele>1149.3415035028956</ele>
        <time>2021-08-02T19:45:26.446Z</time>
      </trkpt>
      <trkpt lat="42.91341304779053" lon="0.7535505294799805">
        <ele>1147.4061674225168</ele>
        <time>2021-08-02T19:45:29.812Z</time>
      </trkpt>
      <trkpt lat="42.9136061668396" lon="0.7527458667755127">
        <ele>1145.2013846217665</ele>
        <time>2021-08-02T19:45:33.188Z</time>
      </trkpt>
      <trkpt lat="42.9136598110199" lon="0.7525849342346191">
        <ele>1143.1619923480193</ele>
        <time>2021-08-02T19:45:36.566Z</time>
      </trkpt>
      <trkpt lat="42.913734912872314" lon="0.7524561882019043">
        <ele>1141.074938020573</ele>
        <time>2021-08-02T19:45:39.946Z</time>
      </trkpt>
      <trkpt lat="42.91383147239685" lon="0.752338171005249">
        <ele>1138.9071956783027</ele>
        <time>2021-08-02T19:45:43.328Z</time>
      </trkpt>
      <trkpt lat="42.913949489593506" lon="0.7522308826446533">
        <ele>1136.693271007964</ele>
        <time>2021-08-02T19:45:46.713Z</time>
      </trkpt>
      <trkpt lat="42.91406750679016" lon="0.7521557807922363">
        <ele>1134.4363332916305</ele>
        <time>2021-08-02T19:45:50.100Z</time>
      </trkpt>
      <trkpt lat="42.914475202560425" lon="0.7519948482513428">
        <ele>1132.1388556953077</ele>
        <time>2021-08-02T19:45:53.493Z</time>
      </trkpt>
      <trkpt lat="42.91487216949463" lon="0.7518124580383301">
        <ele>1129.5761419185833</ele>
        <time>2021-08-02T19:45:56.893Z</time>
      </trkpt>
      <trkpt lat="42.915247678756714" lon="0.7517802715301514">
        <ele>1126.9330389347438</ele>
        <time>2021-08-02T19:46:00.299Z</time>
      </trkpt>
      <trkpt lat="42.91531205177307" lon="0.7517480850219727">
        <ele>1124.1802880634873</ele>
        <time>2021-08-02T19:46:03.706Z</time>
      </trkpt>
      <trkpt lat="42.91537642478943" lon="0.7516729831695557">
        <ele>1121.279868458479</ele>
        <time>2021-08-02T19:46:07.115Z</time>
      </trkpt>
      <trkpt lat="42.91540861129761" lon="0.7515764236450195">
        <ele>1118.440450261266</ele>
        <time>2021-08-02T19:46:10.525Z</time>
      </trkpt>
      <trkpt lat="42.915462255477905" lon="0.7506537437438965">
        <ele>1115.065847067612</ele>
        <time>2021-08-02T19:46:13.946Z</time>
      </trkpt>
      <trkpt lat="42.91530132293701" lon="0.7502996921539307">
        <ele>1111.6433055778962</ele>
        <time>2021-08-02T19:46:17.372Z</time>
      </trkpt>
      <trkpt lat="42.915247678756714" lon="0.7499134540557861">
        <ele>1108.3554035823565</ele>
        <time>2021-08-02T19:46:20.802Z</time>
      </trkpt>
      <trkpt lat="42.915226221084595" lon="0.7495057582855225">
        <ele>1105.1095428161652</ele>
        <time>2021-08-02T19:46:24.237Z</time>
      </trkpt>
      <trkpt lat="42.91526913642883" lon="0.748969316482544">
        <ele>1101.8333892948845</ele>
        <time>2021-08-02T19:46:27.678Z</time>
      </trkpt>
      <trkpt lat="42.91538715362549" lon="0.7482504844665527">
        <ele>1098.6050799913344</ele>
        <time>2021-08-02T19:46:31.128Z</time>
      </trkpt>
      <trkpt lat="42.91535496711731" lon="0.7477247714996338">
        <ele>1095.128903489306</ele>
        <time>2021-08-02T19:46:34.584Z</time>
      </trkpt>
      <trkpt lat="42.915440797805786" lon="0.7471776008605957">
        <ele>1091.957974311249</ele>
        <time>2021-08-02T19:46:38.047Z</time>
      </trkpt>
      <trkpt lat="42.915451526641846" lon="0.7466304302215576">
        <ele>1088.581032492749</ele>
        <time>2021-08-02T19:46:41.516Z</time>
      </trkpt>
      <trkpt lat="42.91559100151062" lon="0.7462871074676514">
        <ele>1085.6346374243515</ele>
        <time>2021-08-02T19:46:44.990Z</time>
      </trkpt>
      <trkpt lat="42.91561245918274" lon="0.7461154460906982">
        <ele>1082.5848542011724</ele>
        <time>2021-08-02T19:46:48.466Z</time>
      </trkpt>
      <trkpt lat="42.91552662849426" lon="0.7452785968780518">
        <ele>1078.9806797945307</ele>
        <time>2021-08-02T19:46:51.952Z</time>
      </trkpt>
      <trkpt lat="42.9155695438385" lon="0.7449781894683838">
        <ele>1076.0256335510974</ele>
        <time>2021-08-02T19:46:55.441Z</time>
      </trkpt>
      <trkpt lat="42.91554808616638" lon="0.7442057132720947">
        <ele>1072.7927034237355</ele>
        <time>2021-08-02T19:46:58.940Z</time>
      </trkpt>
      <trkpt lat="42.91563391685486" lon="0.7438623905181885">
        <ele>1070.0014752200573</ele>
        <time>2021-08-02T19:47:02.443Z</time>
      </trkpt>
      <trkpt lat="42.91559100151062" lon="0.7437872886657715">
        <ele>1067.0290141234875</ele>
        <time>2021-08-02T19:47:05.947Z</time>
      </trkpt>
      <trkpt lat="42.91552662849426" lon="0.7437872886657715">
        <ele>1064.1171321461534</ele>
        <time>2021-08-02T19:47:09.452Z</time>
      </trkpt>
      <trkpt lat="42.915483713150024" lon="0.7438516616821289">
        <ele>1061.3630434811719</ele>
        <time>2021-08-02T19:47:12.958Z</time>
      </trkpt>
      <trkpt lat="42.91534423828125" lon="0.7446885108947754">
        <ele>1058.7305021157658</ele>
        <time>2021-08-02T19:47:16.474Z</time>
      </trkpt>
      <trkpt lat="42.9151725769043" lon="0.7449460029602051">
        <ele>1055.8266555344335</ele>
        <time>2021-08-02T19:47:19.994Z</time>
      </trkpt>
      <trkpt lat="42.91510820388794" lon="0.7450962066650391">
        <ele>1053.222396872904</ele>
        <time>2021-08-02T19:47:23.516Z</time>
      </trkpt>
      <trkpt lat="42.9150652885437" lon="0.7453536987304688">
        <ele>1050.7635524015918</ele>
        <time>2021-08-02T19:47:27.041Z</time>
      </trkpt>
      <trkpt lat="42.91505455970764" lon="0.745621919631958">
        <ele>1048.421715391165</ele>
        <time>2021-08-02T19:47:30.569Z</time>
      </trkpt>
      <trkpt lat="42.91502237319946" lon="0.7456648349761963">
        <ele>1045.9945608690405</ele>
        <time>2021-08-02T19:47:34.098Z</time>
      </trkpt>
      <trkpt lat="42.914947271347046" lon="0.7456755638122559">
        <ele>1043.522579536535</ele>
        <time>2021-08-02T19:47:37.628Z</time>
      </trkpt>
      <trkpt lat="42.91490435600281" lon="0.7456004619598389">
        <ele>1041.1061842419908</ele>
        <time>2021-08-02T19:47:41.160Z</time>
      </trkpt>
      <trkpt lat="42.91489362716675" lon="0.74532151222229">
        <ele>1038.6610566615527</ele>
        <time>2021-08-02T19:47:44.695Z</time>
      </trkpt>
      <trkpt lat="42.91492581367493" lon="0.7449352741241455">
        <ele>1036.275955758631</ele>
        <time>2021-08-02T19:47:48.234Z</time>
      </trkpt>
      <trkpt lat="42.91505455970764" lon="0.7442378997802734">
        <ele>1033.9415017798813</ele>
        <time>2021-08-02T19:47:51.782Z</time>
      </trkpt>
      <trkpt lat="42.91505455970764" lon="0.7435512542724609">
        <ele>1031.2918289690847</ele>
        <time>2021-08-02T19:47:55.338Z</time>
      </trkpt>
      <trkpt lat="42.9150652885437" lon="0.7434117794036865">
        <ele>1028.957618138617</ele>
        <time>2021-08-02T19:47:58.896Z</time>
      </trkpt>
      <trkpt lat="42.91516184806824" lon="0.7429718971252441">
        <ele>1026.6360126751556</ele>
        <time>2021-08-02T19:48:02.459Z</time>
      </trkpt>
      <trkpt lat="42.915183305740356" lon="0.7427573204040527">
        <ele>1024.2736541080858</ele>
        <time>2021-08-02T19:48:06.024Z</time>
      </trkpt>
      <trkpt lat="42.91527986526489" lon="0.7422852516174316">
        <ele>1021.8661345703106</ele>
        <time>2021-08-02T19:48:09.595Z</time>
      </trkpt>
      <trkpt lat="42.915440797805786" lon="0.7418668270111084">
        <ele>1019.5614338308242</ele>
        <time>2021-08-02T19:48:13.172Z</time>
      </trkpt>
      <trkpt lat="42.915494441986084" lon="0.7417809963226318">
        <ele>1017.2760246417691</ele>
        <time>2021-08-02T19:48:16.750Z</time>
      </trkpt>
      <trkpt lat="42.91579484939575" lon="0.7415771484375">
        <ele>1015.251698913436</ele>
        <time>2021-08-02T19:48:20.333Z</time>
      </trkpt>
      <trkpt lat="42.91586995124817" lon="0.7414162158966064">
        <ele>1012.7823749030564</ele>
        <time>2021-08-02T19:48:23.919Z</time>
      </trkpt>
      <trkpt lat="42.91589140892029" lon="0.7410728931427002">
        <ele>1010.0460959119218</ele>
        <time>2021-08-02T19:48:27.509Z</time>
      </trkpt>
      <trkpt lat="42.915719747543335" lon="0.740354061126709">
        <ele>1006.5714813442709</ele>
        <time>2021-08-02T19:48:31.108Z</time>
      </trkpt>
      <trkpt lat="42.915709018707275" lon="0.740053653717041">
        <ele>1003.8212232171904</ele>
        <time>2021-08-02T19:48:34.710Z</time>
      </trkpt>
      <trkpt lat="42.915751934051514" lon="0.7396566867828369">
        <ele>1001.0744315404422</ele>
        <time>2021-08-02T19:48:38.317Z</time>
      </trkpt>
      <trkpt lat="42.915934324264526" lon="0.7393133640289307">
        <ele>998.3237421150106</ele>
        <time>2021-08-02T19:48:41.929Z</time>
      </trkpt>
      <trkpt lat="42.9160737991333" lon="0.738905668258667">
        <ele>995.1628951552154</ele>
        <time>2021-08-02T19:48:45.546Z</time>
      </trkpt>
      <trkpt lat="42.916213274002075" lon="0.7387018203735352">
        <ele>992.1137618463944</ele>
        <time>2021-08-02T19:48:49.166Z</time>
      </trkpt>
      <trkpt lat="42.91635274887085" lon="0.7386589050292969">
        <ele>989.279799643232</ele>
        <time>2021-08-02T19:48:52.789Z</time>
      </trkpt>
      <trkpt lat="42.91653513908386" lon="0.7387447357177734">
        <ele>986.6203907763354</ele>
        <time>2021-08-02T19:48:56.415Z</time>
      </trkpt>
      <trkpt lat="42.916932106018066" lon="0.7388627529144287">
        <ele>984.02954731458</ele>
        <time>2021-08-02T19:49:00.047Z</time>
      </trkpt>
      <trkpt lat="42.91716814041138" lon="0.7387125492095947">
        <ele>980.7556823864202</ele>
        <time>2021-08-02T19:49:03.684Z</time>
      </trkpt>
      <trkpt lat="42.917211055755615" lon="0.7384657859802246">
        <ele>977.2278335554349</ele>
        <time>2021-08-02T19:49:07.323Z</time>
      </trkpt>
      <trkpt lat="42.91711449623108" lon="0.7381761074066162">
        <ele>973.6619299758686</ele>
        <time>2021-08-02T19:49:10.966Z</time>
      </trkpt>
      <trkpt lat="42.91679263114929" lon="0.7375752925872803">
        <ele>969.3124388261253</ele>
        <time>2021-08-02T19:49:14.618Z</time>
      </trkpt>
      <trkpt lat="42.91665324009955" lon="0.7372641563415527">
        <ele>965.289352235513</ele>
        <time>2021-08-02T19:49:18.274Z</time>
      </trkpt>
      <trkpt lat="42.9166316986084" lon="0.7371246814727783">
        <ele>961.5065806695209</ele>
        <time>2021-08-02T19:49:21.932Z</time>
      </trkpt>
      <trkpt lat="42.91667461395264" lon="0.7369959354400635">
        <ele>957.7129542442754</ele>
        <time>2021-08-02T19:49:25.592Z</time>
      </trkpt>
      <trkpt lat="42.916975021362305" lon="0.7363629341125488">
        <ele>953.9255120030286</ele>
        <time>2021-08-02T19:49:29.260Z</time>
      </trkpt>
      <trkpt lat="42.9171359539032" lon="0.735933780670166">
        <ele>949.9456143893874</ele>
        <time>2021-08-02T19:49:32.934Z</time>
      </trkpt>
      <trkpt lat="42.917189598083496" lon="0.7354831695556641">
        <ele>945.6855001148551</ele>
        <time>2021-08-02T19:49:36.613Z</time>
      </trkpt>
      <trkpt lat="42.91726469993591" lon="0.7353115081787109">
        <ele>941.6109456890192</ele>
        <time>2021-08-02T19:49:40.295Z</time>
      </trkpt>
      <trkpt lat="42.91741490364075" lon="0.7344424724578857">
        <ele>936.9889352611103</ele>
        <time>2021-08-02T19:49:43.987Z</time>
      </trkpt>
      <trkpt lat="42.9175329208374" lon="0.7340455055236816">
        <ele>932.6292094606129</ele>
        <time>2021-08-02T19:49:47.684Z</time>
      </trkpt>
      <trkpt lat="42.91761875152588" lon="0.7334446907043457">
        <ele>927.9850082576195</ele>
        <time>2021-08-02T19:49:51.389Z</time>
      </trkpt>
      <trkpt lat="42.917726123705506" lon="0.7328546047210693">
        <ele>923.3368856153974</ele>
        <time>2021-08-02T19:49:55.101Z</time>
      </trkpt>
      <trkpt lat="42.91789770126343" lon="0.7326078414916992">
        <ele>919.0793946131887</ele>
        <time>2021-08-02T19:49:58.817Z</time>
      </trkpt>
      <trkpt lat="42.9180371761322" lon="0.732039213180542">
        <ele>914.3460485291096</ele>
        <time>2021-08-02T19:50:02.540Z</time>
      </trkpt>
      <trkpt lat="42.9180908203125" lon="0.7313525676727295">
        <ele>909.1542533337902</ele>
        <time>2021-08-02T19:50:06.271Z</time>
      </trkpt>
      <trkpt lat="42.918198108673096" lon="0.7309019565582275">
        <ele>904.3244240746419</ele>
        <time>2021-08-02T19:50:10.007Z</time>
      </trkpt>
      <trkpt lat="42.918241024017334" lon="0.7305479049682617">
        <ele>899.318621075504</ele>
        <time>2021-08-02T19:50:13.748Z</time>
      </trkpt>
      <trkpt lat="42.91836977005005" lon="0.7301294803619385">
        <ele>894.5590050245526</ele>
        <time>2021-08-02T19:50:17.494Z</time>
      </trkpt>
      <trkpt lat="42.918455600738525" lon="0.7295608520507812">
        <ele>889.4503950663473</ele>
        <time>2021-08-02T19:50:21.247Z</time>
      </trkpt>
      <trkpt lat="42.91862726211548" lon="0.7288956642150879">
        <ele>884.3706928105879</ele>
        <time>2021-08-02T19:50:25.008Z</time>
      </trkpt>
      <trkpt lat="42.91903495788574" lon="0.7277476787567139">
        <ele>879.3898373971667</ele>
        <time>2021-08-02T19:50:28.784Z</time>
      </trkpt>
      <trkpt lat="42.91906714439392" lon="0.72684645652771">
        <ele>874.2424967165763</ele>
        <time>2021-08-02T19:50:32.571Z</time>
      </trkpt>
      <trkpt lat="42.9190993309021" lon="0.7263743877410889">
        <ele>869.3239136548616</ele>
        <time>2021-08-02T19:50:36.363Z</time>
      </trkpt>
      <trkpt lat="42.919206619262695" lon="0.7259988784790039">
        <ele>864.5443120744616</ele>
        <time>2021-08-02T19:50:40.160Z</time>
      </trkpt>
      <trkpt lat="42.9195499420166" lon="0.7253015041351318">
        <ele>859.8956933593076</ele>
        <time>2021-08-02T19:50:43.967Z</time>
      </trkpt>
      <trkpt lat="42.91987180709839" lon="0.7249259948730469">
        <ele>855.2050155595261</ele>
        <time>2021-08-02T19:50:47.781Z</time>
      </trkpt>
      <trkpt lat="42.9201078414917" lon="0.7246792316436768">
        <ele>850.5093841124415</ele>
        <time>2021-08-02T19:50:51.599Z</time>
      </trkpt>
      <trkpt lat="42.92108416557312" lon="0.7238101959228516">
        <ele>845.5147893406129</ele>
        <time>2021-08-02T19:50:55.436Z</time>
      </trkpt>
      <trkpt lat="42.92174935340881" lon="0.7226622104644775">
        <ele>840.429528897808</ele>
        <time>2021-08-02T19:50:59.290Z</time>
      </trkpt>
      <trkpt lat="42.92203903198242" lon="0.7222330570220947">
        <ele>836.0474468404868</ele>
        <time>2021-08-02T19:51:03.151Z</time>
      </trkpt>
      <trkpt lat="42.92259693145752" lon="0.7216215133666992">
        <ele>831.7615922359307</ele>
        <time>2021-08-02T19:51:07.024Z</time>
      </trkpt>
      <trkpt lat="42.922779405489564" lon="0.7211601734161377">
        <ele>827.2532785782075</ele>
        <time>2021-08-02T19:51:10.903Z</time>
      </trkpt>
      <trkpt lat="42.92277932167053" lon="0.7211601734161377">
        <ele>823.2368710001103</ele>
        <time>2021-08-02T19:51:14.782Z</time>
      </trkpt>
      <trkpt lat="42.92279013432562" lon="0.7209885120391846">
        <ele>819.1660761296378</ele>
        <time>2021-08-02T19:51:18.663Z</time>
      </trkpt>
      <trkpt lat="42.92280086316168" lon="0.7208168506622314">
        <ele>815.2031533655661</ele>
        <time>2021-08-02T19:51:22.546Z</time>
      </trkpt>
      <trkpt lat="42.92276859283447" lon="0.7203125953674316">
        <ele>811.1516966494271</ele>
        <time>2021-08-02T19:51:26.435Z</time>
      </trkpt>
      <trkpt lat="42.92266138829291" lon="0.7200014591217041">
        <ele>807.417146450779</ele>
        <time>2021-08-02T19:51:30.328Z</time>
      </trkpt>
      <trkpt lat="42.92255401611328" lon="0.7199370861053467">
        <ele>803.8324549272155</ele>
        <time>2021-08-02T19:51:34.223Z</time>
      </trkpt>
      <trkpt lat="42.92240381240845" lon="0.7199907302856445">
        <ele>800.357733898848</ele>
        <time>2021-08-02T19:51:38.120Z</time>
      </trkpt>
      <trkpt lat="42.92226433753967" lon="0.7201409339904785">
        <ele>797.0048456227352</ele>
        <time>2021-08-02T19:51:42.020Z</time>
      </trkpt>
      <trkpt lat="42.922210693359375" lon="0.7204091548919678">
        <ele>793.740530248795</ele>
        <time>2021-08-02T19:51:45.923Z</time>
      </trkpt>
      <trkpt lat="42.922199964523315" lon="0.7208704948425293">
        <ele>790.9385270308946</ele>
        <time>2021-08-02T19:51:49.832Z</time>
      </trkpt>
      <trkpt lat="42.92216777801514" lon="0.720977783203125">
        <ele>787.9821213731209</ele>
        <time>2021-08-02T19:51:53.742Z</time>
      </trkpt>
      <trkpt lat="42.9220175743103" lon="0.7211709022521973">
        <ele>784.8876124771291</ele>
        <time>2021-08-02T19:51:57.655Z</time>
      </trkpt>
      <trkpt lat="42.92174935340881" lon="0.7213962078094482">
        <ele>781.705920036332</ele>
        <time>2021-08-02T19:52:01.573Z</time>
      </trkpt>
      <trkpt lat="42.921459674835205" lon="0.7216107845306396">
        <ele>778.9426173673553</ele>
        <time>2021-08-02T19:52:05.497Z</time>
      </trkpt>
      <trkpt lat="42.92101979255676" lon="0.7217931747436523">
        <ele>775.922836282682</ele>
        <time>2021-08-02T19:52:09.428Z</time>
      </trkpt>
      <trkpt lat="42.920687198638916" lon="0.7218682765960693">
        <ele>773.0127553086788</ele>
        <time>2021-08-02T19:52:13.364Z</time>
      </trkpt>
      <trkpt lat="42.92035460472107" lon="0.7218575477600098">
        <ele>770.0755008527003</ele>
        <time>2021-08-02T19:52:17.306Z</time>
      </trkpt>
      <trkpt lat="42.92027950286865" lon="0.7217288017272949">
        <ele>767.2057456089667</ele>
        <time>2021-08-02T19:52:21.250Z</time>
      </trkpt>
      <trkpt lat="42.92030096054077" lon="0.7215678691864014">
        <ele>764.3889043966743</ele>
        <time>2021-08-02T19:52:25.196Z</time>
      </trkpt>
      <trkpt lat="42.920708656311035" lon="0.721052885055542">
        <ele>761.4324266220806</ele>
        <time>2021-08-02T19:52:29.151Z</time>
      </trkpt>
      <trkpt lat="42.92082667350769" lon="0.7207632064819336">
        <ele>758.6045137254181</ele>
        <time>2021-08-02T19:52:33.109Z</time>
      </trkpt>
      <trkpt lat="42.92084813117981" lon="0.7204198837280273">
        <ele>755.7944010489581</ele>
        <time>2021-08-02T19:52:37.071Z</time>
      </trkpt>
      <trkpt lat="42.92079448699951" lon="0.7200121879577637">
        <ele>753.1619035520907</ele>
        <time>2021-08-02T19:52:41.038Z</time>
      </trkpt>
      <trkpt lat="42.92037606239319" lon="0.7191324234008789">
        <ele>750.1090980724596</ele>
        <time>2021-08-02T19:52:45.018Z</time>
      </trkpt>
      <trkpt lat="42.92011857032776" lon="0.7186710834503174">
        <ele>747.2470487245164</ele>
        <time>2021-08-02T19:52:49.004Z</time>
      </trkpt>
      <trkpt lat="42.91996845044196" lon="0.7184886932373047">
        <ele>744.5394107522251</ele>
        <time>2021-08-02T19:52:52.994Z</time>
      </trkpt>
      <trkpt lat="42.91977524757385" lon="0.7182955741882324">
        <ele>741.8417560297291</ele>
        <time>2021-08-02T19:52:56.988Z</time>
      </trkpt>
      <trkpt lat="42.919507110491395" lon="0.7181239128112793">
        <ele>739.0997565199884</ele>
        <time>2021-08-02T19:53:00.986Z</time>
      </trkpt>
      <trkpt lat="42.919431924819946" lon="0.718080997467041">
        <ele>736.4786930226537</ele>
        <time>2021-08-02T19:53:04.986Z</time>
      </trkpt>
      <trkpt lat="42.919206619262695" lon="0.7179844379425049">
        <ele>733.7590998527659</ele>
        <time>2021-08-02T19:53:08.989Z</time>
      </trkpt>
      <trkpt lat="42.91865953244269" lon="0.7178771495819092">
        <ele>731.0652221982372</ele>
        <time>2021-08-02T19:53:13.001Z</time>
      </trkpt>
      <trkpt lat="42.918541431427" lon="0.7179200649261475">
        <ele>728.4606017102907</ele>
        <time>2021-08-02T19:53:17.015Z</time>
      </trkpt>
      <trkpt lat="42.91839122772217" lon="0.7180166244506836">
        <ele>725.8466161220363</ele>
        <time>2021-08-02T19:53:21.032Z</time>
      </trkpt>
      <trkpt lat="42.918230379000306" lon="0.7180702686309814">
        <ele>723.217477663843</ele>
        <time>2021-08-02T19:53:25.051Z</time>
      </trkpt>
      <trkpt lat="42.918230295181274" lon="0.7180702686309814">
        <ele>720.516831928381</ele>
        <time>2021-08-02T19:53:29.070Z</time>
      </trkpt>
      <trkpt lat="42.917522275820374" lon="0.7179415225982666">
        <ele>717.6715668189582</ele>
        <time>2021-08-02T19:53:33.101Z</time>
      </trkpt>
      <trkpt lat="42.91735053062439" lon="0.7178127765655518">
        <ele>714.7337566381386</ele>
        <time>2021-08-02T19:53:37.135Z</time>
      </trkpt>
      <trkpt lat="42.917232513427734" lon="0.7176625728607178">
        <ele>711.7503052637896</ele>
        <time>2021-08-02T19:53:41.172Z</time>
      </trkpt>
      <trkpt lat="42.91713603772223" lon="0.7174909114837646">
        <ele>708.7068903267369</ele>
        <time>2021-08-02T19:53:45.211Z</time>
      </trkpt>
      <trkpt lat="42.9171359539032" lon="0.7174909114837646">
        <ele>705.7514288726982</ele>
        <time>2021-08-02T19:53:49.250Z</time>
      </trkpt>
      <trkpt lat="42.91679263114929" lon="0.7166111469268799">
        <ele>702.1810190807646</ele>
        <time>2021-08-02T19:53:53.301Z</time>
      </trkpt>
      <trkpt lat="42.91658886708319" lon="0.7161390781402588">
        <ele>698.8513835032675</ele>
        <time>2021-08-02T19:53:57.358Z</time>
      </trkpt>
      <trkpt lat="42.91639566421509" lon="0.7156777381896973">
        <ele>695.6073698336588</ele>
        <time>2021-08-02T19:54:01.422Z</time>
      </trkpt>
      <trkpt lat="42.91626691818237" lon="0.7152271270751953">
        <ele>692.390220660541</ele>
        <time>2021-08-02T19:54:05.491Z</time>
      </trkpt>
      <trkpt lat="42.916234731674194" lon="0.7148087024688721">
        <ele>689.2518255052075</ele>
        <time>2021-08-02T19:54:09.565Z</time>
      </trkpt>
      <trkpt lat="42.91606307029724" lon="0.7144761085510254">
        <ele>685.9651978657375</ele>
        <time>2021-08-02T19:54:13.644Z</time>
      </trkpt>
      <trkpt lat="42.91552662849426" lon="0.714036226272583">
        <ele>682.1613846622313</ele>
        <time>2021-08-02T19:54:17.733Z</time>
      </trkpt>
      <trkpt lat="42.91535496711731" lon="0.7138538360595703">
        <ele>678.6795287043833</ele>
        <time>2021-08-02T19:54:21.825Z</time>
      </trkpt>
      <trkpt lat="42.91455030441284" lon="0.7134890556335449">
        <ele>674.5829000613645</ele>
        <time>2021-08-02T19:54:25.931Z</time>
      </trkpt>
      <trkpt lat="42.91417479515076" lon="0.7131993770599365">
        <ele>671.0195948604971</ele>
        <time>2021-08-02T19:54:30.044Z</time>
      </trkpt>
      <trkpt lat="42.913960218429565" lon="0.7129848003387451">
        <ele>667.4531933756767</ele>
        <time>2021-08-02T19:54:34.161Z</time>
      </trkpt>
      <trkpt lat="42.91357398033142" lon="0.7122766971588135">
        <ele>663.845655548896</ele>
        <time>2021-08-02T19:54:38.289Z</time>
      </trkpt>
      <trkpt lat="42.91338086128235" lon="0.7120728492736816">
        <ele>660.1412074196624</ele>
        <time>2021-08-02T19:54:42.420Z</time>
      </trkpt>
      <trkpt lat="42.913230657577515" lon="0.7118582725524902">
        <ele>656.5197130804905</ele>
        <time>2021-08-02T19:54:46.555Z</time>
      </trkpt>
      <trkpt lat="42.91288733482361" lon="0.7114934921264648">
        <ele>652.68307341596</ele>
        <time>2021-08-02T19:54:50.697Z</time>
      </trkpt>
      <trkpt lat="42.912694215774536" lon="0.7112681865692139">
        <ele>648.9251474358132</ele>
        <time>2021-08-02T19:54:54.843Z</time>
      </trkpt>
      <trkpt lat="42.91257619857788" lon="0.7107853889465332">
        <ele>645.3170579835396</ele>
        <time>2021-08-02T19:54:58.995Z</time>
      </trkpt>
      <trkpt lat="42.912447452545166" lon="0.7098305225372314">
        <ele>641.5573654193079</ele>
        <time>2021-08-02T19:55:03.158Z</time>
      </trkpt>
      <trkpt lat="42.912468910217285" lon="0.7094120979309082">
        <ele>637.8157108702721</ele>
        <time>2021-08-02T19:55:07.326Z</time>
      </trkpt>
      <trkpt lat="42.91260838508606" lon="0.7090151309967041">
        <ele>634.1454954075018</ele>
        <time>2021-08-02T19:55:11.499Z</time>
      </trkpt>
      <trkpt lat="42.91268348693848" lon="0.7087147235870361">
        <ele>630.5434944876688</ele>
        <time>2021-08-02T19:55:15.676Z</time>
      </trkpt>
      <trkpt lat="42.91268348693848" lon="0.7085645198822021">
        <ele>626.8537940280214</ele>
        <time>2021-08-02T19:55:19.855Z</time>
      </trkpt>
      <trkpt lat="42.91266202926636" lon="0.7084786891937256">
        <ele>623.099308072748</ele>
        <time>2021-08-02T19:55:24.035Z</time>
      </trkpt>
      <trkpt lat="42.91258692741394" lon="0.708392858505249">
        <ele>619.2262562082583</ele>
        <time>2021-08-02T19:55:28.217Z</time>
      </trkpt>
      <trkpt lat="42.912211418151855" lon="0.7081568241119385">
        <ele>614.9351947018264</ele>
        <time>2021-08-02T19:55:32.405Z</time>
      </trkpt>
      <trkpt lat="42.91205048561096" lon="0.7080066204071045">
        <ele>610.9389279796443</ele>
        <time>2021-08-02T19:55:36.596Z</time>
      </trkpt>
      <trkpt lat="42.911975383758545" lon="0.7078349590301514">
        <ele>607.0644454561575</ele>
        <time>2021-08-02T19:55:40.790Z</time>
      </trkpt>
      <trkpt lat="42.91190028190613" lon="0.7074916362762451">
        <ele>603.2032753053606</ele>
        <time>2021-08-02T19:55:44.988Z</time>
      </trkpt>
      <trkpt lat="42.91179299354553" lon="0.707094669342041">
        <ele>599.3081809610746</ele>
        <time>2021-08-02T19:55:49.191Z</time>
      </trkpt>
      <trkpt lat="42.91146048344672" lon="0.7063651084899902">
        <ele>595.0752537495025</ele>
        <time>2021-08-02T19:55:53.404Z</time>
      </trkpt>
      <trkpt lat="42.911460399627686" lon="0.7063651084899902">
        <ele>591.3030955506267</ele>
        <time>2021-08-02T19:55:57.617Z</time>
      </trkpt>
      <trkpt lat="42.91127800941467" lon="0.7059359550476074">
        <ele>587.1559146312304</ele>
        <time>2021-08-02T19:56:01.836Z</time>
      </trkpt>
      <trkpt lat="42.911202907562256" lon="0.7056248188018799">
        <ele>583.293242211415</ele>
        <time>2021-08-02T19:56:06.059Z</time>
      </trkpt>
      <trkpt lat="42.91105270385742" lon="0.7038867473602295">
        <ele>579.3835852361226</ele>
        <time>2021-08-02T19:56:10.302Z</time>
      </trkpt>
      <trkpt lat="42.910977602005005" lon="0.7036292552947998">
        <ele>575.5742396274701</ele>
        <time>2021-08-02T19:56:14.548Z</time>
      </trkpt>
      <trkpt lat="42.9106342792511" lon="0.7027924060821533">
        <ele>571.379260416604</ele>
        <time>2021-08-02T19:56:18.806Z</time>
      </trkpt>
      <trkpt lat="42.910473346710205" lon="0.7020628452301025">
        <ele>567.6527121206882</ele>
        <time>2021-08-02T19:56:23.073Z</time>
      </trkpt>
      <trkpt lat="42.910451889038086" lon="0.7017409801483154">
        <ele>564.0509964357097</ele>
        <time>2021-08-02T19:56:27.344Z</time>
      </trkpt>
      <trkpt lat="42.910473346710205" lon="0.7013654708862305">
        <ele>560.6551009758213</ele>
        <time>2021-08-02T19:56:31.619Z</time>
      </trkpt>
      <trkpt lat="42.91066646575928" lon="0.7010221481323242">
        <ele>557.5045970204285</ele>
        <time>2021-08-02T19:56:35.899Z</time>
      </trkpt>
      <trkpt lat="42.910763109102845" lon="0.7007002830505371">
        <ele>554.145843324575</ele>
        <time>2021-08-02T19:56:40.183Z</time>
      </trkpt>
      <trkpt lat="42.91090250015259" lon="0.7002067565917969">
        <ele>550.8770852665994</ele>
        <time>2021-08-02T19:56:44.473Z</time>
      </trkpt>
      <trkpt lat="42.910945415496826" lon="0.6998848915100098">
        <ele>547.6942045123001</ele>
        <time>2021-08-02T19:56:48.767Z</time>
      </trkpt>
      <trkpt lat="42.91090250015259" lon="0.6996059417724609">
        <ele>544.4705687233935</ele>
        <time>2021-08-02T19:56:53.065Z</time>
      </trkpt>
      <trkpt lat="42.910945415496826" lon="0.6992733478546143">
        <ele>541.5054877490838</ele>
        <time>2021-08-02T19:56:57.366Z</time>
      </trkpt>
      <trkpt lat="42.91106343269348" lon="0.6987905502319336">
        <ele>538.7624886529695</ele>
        <time>2021-08-02T19:57:01.673Z</time>
      </trkpt>
      <trkpt lat="42.91108497418463" lon="0.6985008716583252">
        <ele>535.8077230363324</ele>
        <time>2021-08-02T19:57:05.984Z</time>
      </trkpt>
      <trkpt lat="42.91109561920166" lon="0.6983721256256104">
        <ele>533.0455100695865</ele>
        <time>2021-08-02T19:57:10.296Z</time>
      </trkpt>
      <trkpt lat="42.911192178726196" lon="0.6980288028717041">
        <ele>530.483886257237</ele>
        <time>2021-08-02T19:57:14.613Z</time>
      </trkpt>
      <trkpt lat="42.91141748428345" lon="0.6975460052490234">
        <ele>528.2855985624794</ele>
        <time>2021-08-02T19:57:18.936Z</time>
      </trkpt>
      <trkpt lat="42.9115355014801" lon="0.6973206996917725">
        <ele>525.8633587672168</ele>
        <time>2021-08-02T19:57:23.263Z</time>
      </trkpt>
      <trkpt lat="42.9115891456604" lon="0.6969559192657471">
        <ele>523.3251434754352</ele>
        <time>2021-08-02T19:57:27.594Z</time>
      </trkpt>
      <trkpt lat="42.91155695915222" lon="0.6966984272003174">
        <ele>520.6890283054137</ele>
        <time>2021-08-02T19:57:31.928Z</time>
      </trkpt>
      <trkpt lat="42.91138529777527" lon="0.6963443756103516">
        <ele>517.903785106667</ele>
        <time>2021-08-02T19:57:36.267Z</time>
      </trkpt>
      <trkpt lat="42.911192178726196" lon="0.6958508491516113">
        <ele>515.5348433231381</ele>
        <time>2021-08-02T19:57:40.613Z</time>
      </trkpt>
      <trkpt lat="42.91129946708679" lon="0.6957006454467773">
        <ele>513.5528532059457</ele>
        <time>2021-08-02T19:57:44.961Z</time>
      </trkpt>
      <trkpt lat="42.91135311126709" lon="0.6955289840698242">
        <ele>511.64439878304006</ele>
        <time>2021-08-02T19:57:49.311Z</time>
      </trkpt>
      <trkpt lat="42.91140675544739" lon="0.695335865020752">
        <ele>509.98857226149875</ele>
        <time>2021-08-02T19:57:53.664Z</time>
      </trkpt>
      <trkpt lat="42.91165351867676" lon="0.6945312023162842">
        <ele>508.1920975700666</ele>
        <time>2021-08-02T19:57:58.027Z</time>
      </trkpt>
      <trkpt lat="42.91221150197089" lon="0.6927716732025146">
        <ele>506.835726095092</ele>
        <time>2021-08-02T19:58:02.413Z</time>
      </trkpt>
      <trkpt lat="42.912211418151855" lon="0.6927716732025146">
        <ele>505.61803924217827</ele>
        <time>2021-08-02T19:58:06.799Z</time>
      </trkpt>
      <trkpt lat="42.91230797767639" lon="0.6924498081207275">
        <ele>504.5127362057208</ele>
        <time>2021-08-02T19:58:11.189Z</time>
      </trkpt>
      <trkpt lat="42.912479639053345" lon="0.6918704509735107">
        <ele>503.688334273609</ele>
        <time>2021-08-02T19:58:15.586Z</time>
      </trkpt>
      <trkpt lat="42.91264057159424" lon="0.691988468170166">
        <ele>502.8638878206832</ele>
        <time>2021-08-02T19:58:19.986Z</time>
      </trkpt>
      <trkpt lat="42.913048351183534" lon="0.6923961639404297">
        <ele>502.1391473776681</ele>
        <time>2021-08-02T19:58:24.394Z</time>
      </trkpt>
      <trkpt lat="42.91337013244629" lon="0.6927287578582764">
        <ele>501.6161400967706</ele>
        <time>2021-08-02T19:58:28.809Z</time>
      </trkpt>
      <trkpt lat="42.913498878479004" lon="0.6928145885467529">
        <ele>501.1991202464682</ele>
        <time>2021-08-02T19:58:33.226Z</time>
      </trkpt>
      <trkpt lat="42.913745725527406" lon="0.6929433345794678">
        <ele>500.9174903233933</ele>
        <time>2021-08-02T19:58:37.647Z</time>
      </trkpt>
      <trkpt lat="42.91392803192139" lon="0.6930184364318848">
        <ele>500.7310168378601</ele>
        <time>2021-08-02T19:58:42.071Z</time>
      </trkpt>
      <trkpt lat="42.9140567779541" lon="0.6930398941040039">
        <ele>500.64408473554874</ele>
        <time>2021-08-02T19:58:46.497Z</time>
      </trkpt>
      <trkpt lat="42.914282167330384" lon="0.6930184364318848">
        <ele>500.6622633391494</ele>
        <time>2021-08-02T19:58:50.927Z</time>
      </trkpt>
      <trkpt lat="42.91437864303589" lon="0.6929969787597656">
        <ele>500.73998906911777</ele>
        <time>2021-08-02T19:58:55.358Z</time>
      </trkpt>
      <trkpt lat="42.91452884674072" lon="0.6929218769073486">
        <ele>500.9120946638322</ele>
        <time>2021-08-02T19:58:59.792Z</time>
      </trkpt>
      <trkpt lat="42.914700508117676" lon="0.6927931308746338">
        <ele>501.158726194521</ele>
        <time>2021-08-02T19:59:04.229Z</time>
      </trkpt>
      <trkpt lat="42.91483998298645" lon="0.6926429271697998">
        <ele>501.36660784980154</ele>
        <time>2021-08-02T19:59:08.669Z</time>
      </trkpt>
      <trkpt lat="42.914958000183105" lon="0.6924927234649658">
        <ele>501.55929032559834</ele>
        <time>2021-08-02T19:59:13.111Z</time>
      </trkpt>
      <trkpt lat="42.91534423828125" lon="0.691913366317749">
        <ele>501.966141343241</ele>
        <time>2021-08-02T19:59:17.563Z</time>
      </trkpt>
      <trkpt lat="42.915505170822144" lon="0.6914305686950684">
        <ele>502.2261508857351</ele>
        <time>2021-08-02T19:59:22.021Z</time>
      </trkpt>
      <trkpt lat="42.91555881500244" lon="0.6912803649902344">
        <ele>502.7943517744144</ele>
        <time>2021-08-02T19:59:26.481Z</time>
      </trkpt>
      <trkpt lat="42.916213274002075" lon="0.6900250911712646">
        <ele>503.8456659644219</ele>
        <time>2021-08-02T19:59:30.959Z</time>
      </trkpt>
      <trkpt lat="42.916685342788696" lon="0.6889736652374268">
        <ele>503.3178797416133</ele>
        <time>2021-08-02T19:59:35.451Z</time>
      </trkpt>
      <trkpt lat="42.916728258132935" lon="0.6885337829589844">
        <ele>503.6768805270299</ele>
        <time>2021-08-02T19:59:39.949Z</time>
      </trkpt>
      <trkpt lat="42.916685342788696" lon="0.6874716281890869">
        <ele>504.56200676014635</ele>
        <time>2021-08-02T19:59:44.459Z</time>
      </trkpt>
      <trkpt lat="42.91676044464111" lon="0.686870813369751">
        <ele>504.8899418707201</ele>
        <time>2021-08-02T19:59:48.976Z</time>
      </trkpt>
      <trkpt lat="42.91688919067383" lon="0.6863987445831299">
        <ele>505.51209486529046</ele>
        <time>2021-08-02T19:59:53.499Z</time>
      </trkpt>
      <trkpt lat="42.91714668273926" lon="0.6857657432556152">
        <ele>506.0940844673687</ele>
        <time>2021-08-02T19:59:58.031Z</time>
      </trkpt>
      <trkpt lat="42.91725397109985" lon="0.6854438781738281">
        <ele>506.6509312610524</ele>
        <time>2021-08-02T20:00:02.567Z</time>
      </trkpt>
      <trkpt lat="42.91736134327948" lon="0.6846177577972412">
        <ele>507.16980153359293</ele>
        <time>2021-08-02T20:00:07.113Z</time>
      </trkpt>
      <trkpt lat="42.9175329208374" lon="0.6826543807983398">
        <ele>507.3271421332073</ele>
        <time>2021-08-02T20:00:11.682Z</time>
      </trkpt>
      <trkpt lat="42.91754364967346" lon="0.6821823120117188">
        <ele>507.89187921681025</ele>
        <time>2021-08-02T20:00:16.257Z</time>
      </trkpt>
      <trkpt lat="42.917200326919556" lon="0.6787168979644775">
        <ele>508.82936637693206</ele>
        <time>2021-08-02T20:00:20.873Z</time>
      </trkpt>
      <trkpt lat="42.91720041073859" lon="0.6787168979644775">
        <ele>509.41406129344307</ele>
        <time>2021-08-02T20:00:25.489Z</time>
      </trkpt>
      <trkpt lat="42.917200326919556" lon="0.6786632537841797">
        <ele>509.98075274625876</ele>
        <time>2021-08-02T20:00:30.105Z</time>
      </trkpt>
      <trkpt lat="42.91720041073859" lon="0.6786632537841797">
        <ele>510.5729229338925</ele>
        <time>2021-08-02T20:00:34.721Z</time>
      </trkpt>
      <trkpt lat="42.916996479034424" lon="0.676957368850708">
        <ele>511.1335214649911</ele>
        <time>2021-08-02T20:00:39.358Z</time>
      </trkpt>
      <trkpt lat="42.916942834854126" lon="0.6762278079986572">
        <ele>511.7735499134457</ele>
        <time>2021-08-02T20:00:44.003Z</time>
      </trkpt>
      <trkpt lat="42.916996479034424" lon="0.6755948066711426">
        <ele>512.4019110082006</ele>
        <time>2021-08-02T20:00:48.656Z</time>
      </trkpt>
      <trkpt lat="42.916996479034424" lon="0.6752622127532959">
        <ele>512.9544908567245</ele>
        <time>2021-08-02T20:00:53.313Z</time>
      </trkpt>
      <trkpt lat="42.916932106018066" lon="0.6749296188354492">
        <ele>513.550151795092</ele>
        <time>2021-08-02T20:00:57.974Z</time>
      </trkpt>
      <trkpt lat="42.916728258132935" lon="0.674285888671875">
        <ele>514.1493396085909</ele>
        <time>2021-08-02T20:01:02.643Z</time>
      </trkpt>
      <trkpt lat="42.916685342788696" lon="0.6740498542785645">
        <ele>514.7439907943146</ele>
        <time>2021-08-02T20:01:07.315Z</time>
      </trkpt>
      <trkpt lat="42.916696071624756" lon="0.6738138198852539">
        <ele>515.1717766762483</ele>
        <time>2021-08-02T20:01:11.990Z</time>
      </trkpt>
      <trkpt lat="42.916738986968994" lon="0.6734919548034668">
        <ele>515.720851067663</ele>
        <time>2021-08-02T20:01:16.668Z</time>
      </trkpt>
      <trkpt lat="42.91677117347717" lon="0.6731808185577393">
        <ele>516.332368613666</ele>
        <time>2021-08-02T20:01:21.350Z</time>
      </trkpt>
      <trkpt lat="42.91678190231323" lon="0.6728267669677734">
        <ele>516.9029002292326</ele>
        <time>2021-08-02T20:01:26.036Z</time>
      </trkpt>
      <trkpt lat="42.916706800460815" lon="0.6723332405090332">
        <ele>517.3586457097431</ele>
        <time>2021-08-02T20:01:30.728Z</time>
      </trkpt>
      <trkpt lat="42.91634202003479" lon="0.6710994243621826">
        <ele>517.908849360241</ele>
        <time>2021-08-02T20:01:35.436Z</time>
      </trkpt>
      <trkpt lat="42.91609525680542" lon="0.670090913772583">
        <ele>518.2675329346021</ele>
        <time>2021-08-02T20:01:40.156Z</time>
      </trkpt>
      <trkpt lat="42.91591286659241" lon="0.6694579124450684">
        <ele>518.6277685434318</ele>
        <time>2021-08-02T20:01:44.884Z</time>
      </trkpt>
      <trkpt lat="42.91564464569092" lon="0.6690073013305664">
        <ele>519.3105202488292</ele>
        <time>2021-08-02T20:01:49.619Z</time>
      </trkpt>
      <trkpt lat="42.91529059410095" lon="0.6685352325439453">
        <ele>519.8039763204049</ele>
        <time>2021-08-02T20:01:54.362Z</time>
      </trkpt>
      <trkpt lat="42.91514039039612" lon="0.668267011642456">
        <ele>520.117499472529</ele>
        <time>2021-08-02T20:01:59.109Z</time>
      </trkpt>
      <trkpt lat="42.91508674621582" lon="0.6681060791015625">
        <ele>520.3518474564454</ele>
        <time>2021-08-02T20:02:03.858Z</time>
      </trkpt>
      <trkpt lat="42.9150652885437" lon="0.6679022312164307">
        <ele>520.5223402995587</ele>
        <time>2021-08-02T20:02:08.610Z</time>
      </trkpt>
      <trkpt lat="42.91508674621582" lon="0.6677091121673584">
        <ele>520.5898090576152</ele>
        <time>2021-08-02T20:02:13.364Z</time>
      </trkpt>
      <trkpt lat="42.915194034576416" lon="0.6672048568725586">
        <ele>520.6525556762974</ele>
        <time>2021-08-02T20:02:18.124Z</time>
      </trkpt>
      <trkpt lat="42.91515111923218" lon="0.6667220592498779">
        <ele>520.2692812936327</ele>
        <time>2021-08-02T20:02:22.890Z</time>
      </trkpt>
      <trkpt lat="42.91482925415039" lon="0.6654024124145508">
        <ele>520.4773331971751</ele>
        <time>2021-08-02T20:02:27.672Z</time>
      </trkpt>
      <trkpt lat="42.91477560997009" lon="0.6649303436279297">
        <ele>520.1690794721794</ele>
        <time>2021-08-02T20:02:32.460Z</time>
      </trkpt>
      <trkpt lat="42.91478633880615" lon="0.6645548343658447">
        <ele>519.7395972548827</ele>
        <time>2021-08-02T20:02:37.252Z</time>
      </trkpt>
      <trkpt lat="42.914786422625184" lon="0.6645548343658447">
        <ele>519.3929431476545</ele>
        <time>2021-08-02T20:02:42.044Z</time>
      </trkpt>
      <trkpt lat="42.91480779647827" lon="0.6641793251037598">
        <ele>518.729414437221</ele>
        <time>2021-08-02T20:02:46.841Z</time>
      </trkpt>
      <trkpt lat="42.91462540626526" lon="0.6631600856781006">
        <ele>518.0405707404466</ele>
        <time>2021-08-02T20:02:51.650Z</time>
      </trkpt>
      <trkpt lat="42.914475202560425" lon="0.6624948978424072">
        <ele>517.4447328210215</ele>
        <time>2021-08-02T20:02:56.467Z</time>
      </trkpt>
      <trkpt lat="42.91447528637946" lon="0.6624948978424072">
        <ele>516.8217609376252</ele>
        <time>2021-08-02T20:03:01.284Z</time>
      </trkpt>
      <trkpt lat="42.91384220123291" lon="0.6596946716308594">
        <ele>516.5213850733805</ele>
        <time>2021-08-02T20:03:06.136Z</time>
      </trkpt>
      <trkpt lat="42.91384228505194" lon="0.6596946716308594">
        <ele>515.760894018309</ele>
        <time>2021-08-02T20:03:10.988Z</time>
      </trkpt>
      <trkpt lat="42.91367062367499" lon="0.6591153144836426">
        <ele>514.9662089574847</ele>
        <time>2021-08-02T20:03:15.847Z</time>
      </trkpt>
      <trkpt lat="42.91361697949469" lon="0.6589865684509277">
        <ele>514.0758083826354</ele>
        <time>2021-08-02T20:03:20.708Z</time>
      </trkpt>
      <trkpt lat="42.913541877642274" lon="0.6588149070739746">
        <ele>513.1155727974967</ele>
        <time>2021-08-02T20:03:25.571Z</time>
      </trkpt>
      <trkpt lat="42.913455963134766" lon="0.6585681438446045">
        <ele>512.0683734089451</ele>
        <time>2021-08-02T20:03:30.437Z</time>
      </trkpt>
      <trkpt lat="42.91335940361023" lon="0.6582677364349365">
        <ele>510.95679853869154</ele>
        <time>2021-08-02T20:03:35.307Z</time>
      </trkpt>
      <trkpt lat="42.9133487585932" lon="0.6580638885498047">
        <ele>509.77170641889563</ele>
        <time>2021-08-02T20:03:40.179Z</time>
      </trkpt>
      <trkpt lat="42.91333802975714" lon="0.6579673290252686">
        <ele>508.546202125759</ele>
        <time>2021-08-02T20:03:45.053Z</time>
      </trkpt>
      <trkpt lat="42.91333794593811" lon="0.6576883792877197">
        <ele>507.26831976782535</ele>
        <time>2021-08-02T20:03:49.930Z</time>
      </trkpt>
      <trkpt lat="42.91338086128235" lon="0.6571304798126221">
        <ele>505.92349048167085</ele>
        <time>2021-08-02T20:03:54.813Z</time>
      </trkpt>
      <trkpt lat="42.91338086128235" lon="0.6568300724029541">
        <ele>504.4953482734496</ele>
        <time>2021-08-02T20:03:59.700Z</time>
      </trkpt>
      <trkpt lat="42.91329503059387" lon="0.6554138660430908">
        <ele>502.9941059184049</ele>
        <time>2021-08-02T20:04:04.604Z</time>
      </trkpt>
      <trkpt lat="42.91333794593811" lon="0.6547272205352783">
        <ele>501.4606657197911</ele>
        <time>2021-08-02T20:04:09.516Z</time>
      </trkpt>
      <trkpt lat="42.913488233461976" lon="0.6537508964538574">
        <ele>499.7468227943012</ele>
        <time>2021-08-02T20:04:14.440Z</time>
      </trkpt>
      <trkpt lat="42.913777912035584" lon="0.6517016887664795">
        <ele>498.08870342021373</ele>
        <time>2021-08-02T20:04:19.388Z</time>
      </trkpt>
      <trkpt lat="42.913853013888" lon="0.6512081623077393">
        <ele>496.622439818901</ele>
        <time>2021-08-02T20:04:24.342Z</time>
      </trkpt>
      <trkpt lat="42.91387438774109" lon="0.6509828567504883">
        <ele>495.20884741151417</ele>
        <time>2021-08-02T20:04:29.299Z</time>
      </trkpt>
      <trkpt lat="42.91387447156012" lon="0.6509828567504883">
        <ele>493.8535852240602</ele>
        <time>2021-08-02T20:04:34.256Z</time>
      </trkpt>
      <trkpt lat="42.91392811574042" lon="0.6506824493408203">
        <ele>492.5110565086097</ele>
        <time>2021-08-02T20:04:39.216Z</time>
      </trkpt>
      <trkpt lat="42.91401386260986" lon="0.64994215965271">
        <ele>491.07263609990736</ele>
        <time>2021-08-02T20:04:44.185Z</time>
      </trkpt>
      <trkpt lat="42.914046132937074" lon="0.6496953964233398">
        <ele>489.8173704931166</ele>
        <time>2021-08-02T20:04:49.157Z</time>
      </trkpt>
      <trkpt lat="42.91405686177313" lon="0.6495881080627441">
        <ele>488.69342099423767</ele>
        <time>2021-08-02T20:04:54.130Z</time>
      </trkpt>
      <trkpt lat="42.91407831944525" lon="0.6494593620300293">
        <ele>487.64778382445763</ele>
        <time>2021-08-02T20:04:59.105Z</time>
      </trkpt>
      <trkpt lat="42.91426062583923" lon="0.648193359375">
        <ele>486.53176716745793</ele>
        <time>2021-08-02T20:05:04.095Z</time>
      </trkpt>
      <trkpt lat="42.91430354118347" lon="0.6481075286865234">
        <ele>485.66709892735184</ele>
        <time>2021-08-02T20:05:09.086Z</time>
      </trkpt>
      <trkpt lat="42.91436791419983" lon="0.647742748260498">
        <ele>484.93421941852165</ele>
        <time>2021-08-02T20:05:14.082Z</time>
      </trkpt>
      <trkpt lat="42.9144109133631" lon="0.6476247310638428">
        <ele>484.30614051015175</ele>
        <time>2021-08-02T20:05:19.079Z</time>
      </trkpt>
      <trkpt lat="42.914486015215516" lon="0.6475389003753662">
        <ele>483.79072615294524</ele>
        <time>2021-08-02T20:05:24.078Z</time>
      </trkpt>
      <trkpt lat="42.914496660232544" lon="0.6474530696868896">
        <ele>483.3878369366013</ele>
        <time>2021-08-02T20:05:29.078Z</time>
      </trkpt>
      <trkpt lat="42.91447528637946" lon="0.6473672389984131">
        <ele>483.0949904393502</ele>
        <time>2021-08-02T20:05:34.079Z</time>
      </trkpt>
      <trkpt lat="42.91445382870734" lon="0.6473350524902344">
        <ele>482.925040448737</ele>
        <time>2021-08-02T20:05:39.080Z</time>
      </trkpt>
      <trkpt lat="42.91440010070801" lon="0.6472921371459961">
        <ele>482.8773973609083</ele>
        <time>2021-08-02T20:05:44.082Z</time>
      </trkpt>
      <trkpt lat="42.91432508267462" lon="0.6472921371459961">
        <ele>482.95329702771573</ele>
        <time>2021-08-02T20:05:49.086Z</time>
      </trkpt>
      <trkpt lat="42.91429281234741" lon="0.6473243236541748">
        <ele>483.143930574127</ele>
        <time>2021-08-02T20:05:54.090Z</time>
      </trkpt>
      <trkpt lat="42.914185523986816" lon="0.6473135948181152">
        <ele>483.4551075350574</ele>
        <time>2021-08-02T20:05:59.096Z</time>
      </trkpt>
      <trkpt lat="42.91383147239685" lon="0.6472063064575195">
        <ele>483.8918998268461</ele>
        <time>2021-08-02T20:06:04.108Z</time>
      </trkpt>
      <trkpt lat="42.91342377662659" lon="0.6469166278839111">
        <ele>484.4385005724564</ele>
        <time>2021-08-02T20:06:09.127Z</time>
      </trkpt>
      <trkpt lat="42.91317701339722" lon="0.6466376781463623">
        <ele>485.11906784386497</ele>
        <time>2021-08-02T20:06:14.151Z</time>
      </trkpt>
      <trkpt lat="42.912994623184204" lon="0.6463801860809326">
        <ele>485.90153384830364</ele>
        <time>2021-08-02T20:06:19.179Z</time>
      </trkpt>
      <trkpt lat="42.91286587715149" lon="0.6461441516876221">
        <ele>486.81315672364843</ele>
        <time>2021-08-02T20:06:24.211Z</time>
      </trkpt>
      <trkpt lat="42.912758588790894" lon="0.6459188461303711">
        <ele>487.8191047816613</ele>
        <time>2021-08-02T20:06:29.246Z</time>
      </trkpt>
      <trkpt lat="42.91267275810242" lon="0.645672082901001">
        <ele>488.9138974125101</ele>
        <time>2021-08-02T20:06:34.284Z</time>
      </trkpt>
      <trkpt lat="42.91255474090576" lon="0.6451034545898438">
        <ele>490.1541502659784</ele>
        <time>2021-08-02T20:06:39.329Z</time>
      </trkpt>
      <trkpt lat="42.91236162185669" lon="0.6440198421478271">
        <ele>491.6279096719501</ele>
        <time>2021-08-02T20:06:44.387Z</time>
      </trkpt>
      <trkpt lat="42.91230797767639" lon="0.643773078918457">
        <ele>492.89446169365874</ele>
        <time>2021-08-02T20:06:49.448Z</time>
      </trkpt>
      <trkpt lat="42.911696434020996" lon="0.6416809558868408">
        <ele>493.99033617992234</ele>
        <time>2021-08-02T20:06:54.536Z</time>
      </trkpt>
      <trkpt lat="42.91169651784003" lon="0.6416809558868408">
        <ele>495.34734291516787</ele>
        <time>2021-08-02T20:06:59.624Z</time>
      </trkpt>
      <trkpt lat="42.911449670791626" lon="0.6408977508544922">
        <ele>497.0116702054555</ele>
        <time>2021-08-02T20:07:04.722Z</time>
      </trkpt>
      <trkpt lat="42.91132092475891" lon="0.6405329704284668">
        <ele>498.56082916428073</ele>
        <time>2021-08-02T20:07:09.825Z</time>
      </trkpt>
      <trkpt lat="42.91106343269348" lon="0.6399214267730713">
        <ele>500.127913938506</ele>
        <time>2021-08-02T20:07:14.936Z</time>
      </trkpt>
      <trkpt lat="42.91078448295593" lon="0.6394064426422119">
        <ele>501.6858036643858</ele>
        <time>2021-08-02T20:07:20.054Z</time>
      </trkpt>
      <trkpt lat="42.910473346710205" lon="0.6388914585113525">
        <ele>503.26864103691327</ele>
        <time>2021-08-02T20:07:25.180Z</time>
      </trkpt>
      <trkpt lat="42.910012006759644" lon="0.638279914855957">
        <ele>504.6745096308486</ele>
        <time>2021-08-02T20:07:30.317Z</time>
      </trkpt>
      <trkpt lat="42.90978670120239" lon="0.6380331516265869">
        <ele>506.16285192549975</ele>
        <time>2021-08-02T20:07:35.458Z</time>
      </trkpt>
      <trkpt lat="42.90941119194031" lon="0.637657642364502">
        <ele>507.70083709655034</ele>
        <time>2021-08-02T20:07:40.607Z</time>
      </trkpt>
      <trkpt lat="42.90890693664551" lon="0.6372284889221191">
        <ele>509.1591347633206</ele>
        <time>2021-08-02T20:07:45.765Z</time>
      </trkpt>
      <trkpt lat="42.908477783203125" lon="0.6369388103485107">
        <ele>510.5254441514962</ele>
        <time>2021-08-02T20:07:50.931Z</time>
      </trkpt>
      <trkpt lat="42.908252561464906" lon="0.6368100643157959">
        <ele>511.775906283743</ele>
        <time>2021-08-02T20:07:56.101Z</time>
      </trkpt>
      <trkpt lat="42.90812381543219" lon="0.6367456912994385">
        <ele>512.9750822073548</ele>
        <time>2021-08-02T20:08:01.273Z</time>
      </trkpt>
      <trkpt lat="42.90761947631836" lon="0.6364667415618896">
        <ele>514.0614117322021</ele>
        <time>2021-08-02T20:08:06.454Z</time>
      </trkpt>
      <trkpt lat="42.90761956013739" lon="0.6364667415618896">
        <ele>515.1754282645194</ele>
        <time>2021-08-02T20:08:11.635Z</time>
      </trkpt>
      <trkpt lat="42.906728982925415" lon="0.6359732151031494">
        <ele>516.2211922991005</ele>
        <time>2021-08-02T20:08:16.831Z</time>
      </trkpt>
      <trkpt lat="42.90618181228638" lon="0.6355869770050049">
        <ele>517.6037348061697</ele>
        <time>2021-08-02T20:08:22.037Z</time>
      </trkpt>
      <trkpt lat="42.90557026863098" lon="0.6350934505462646">
        <ele>518.7761915232675</ele>
        <time>2021-08-02T20:08:27.254Z</time>
      </trkpt>
      <trkpt lat="42.90539860725403" lon="0.6349217891693115">
        <ele>519.6795218708987</ele>
        <time>2021-08-02T20:08:32.475Z</time>
      </trkpt>
      <trkpt lat="42.905205488204956" lon="0.634685754776001">
        <ele>520.4807386219381</ele>
        <time>2021-08-02T20:08:37.700Z</time>
      </trkpt>
      <trkpt lat="42.905012369155884" lon="0.6344068050384521">
        <ele>521.2685659935613</ele>
        <time>2021-08-02T20:08:42.929Z</time>
      </trkpt>
      <trkpt lat="42.90481925010681" lon="0.6340312957763672">
        <ele>521.8890536679768</ele>
        <time>2021-08-02T20:08:48.164Z</time>
      </trkpt>
      <trkpt lat="42.904497385025024" lon="0.6333768367767334">
        <ele>522.4208499063536</ele>
        <time>2021-08-02T20:08:53.408Z</time>
      </trkpt>
      <trkpt lat="42.90441155433655" lon="0.6332480907440186">
        <ele>523.1349713448146</ele>
        <time>2021-08-02T20:08:58.654Z</time>
      </trkpt>
      <trkpt lat="42.90431499481201" lon="0.6331300735473633">
        <ele>523.851876530736</ele>
        <time>2021-08-02T20:09:03.902Z</time>
      </trkpt>
      <trkpt lat="42.90411114692688" lon="0.6329584121704102">
        <ele>524.5571926766836</ele>
        <time>2021-08-02T20:09:09.154Z</time>
      </trkpt>
      <trkpt lat="42.90387511253357" lon="0.6328403949737549">
        <ele>525.2703763379218</ele>
        <time>2021-08-02T20:09:14.410Z</time>
      </trkpt>
      <trkpt lat="42.90361762046814" lon="0.6328082084655762">
        <ele>525.9825004779577</ele>
        <time>2021-08-02T20:09:19.670Z</time>
      </trkpt>
      <trkpt lat="42.903499603271484" lon="0.6328296661376953">
        <ele>526.7004382985851</ele>
        <time>2021-08-02T20:09:24.932Z</time>
      </trkpt>
      <trkpt lat="42.903220653533936" lon="0.632936954498291">
        <ele>527.5358262679229</ele>
        <time>2021-08-02T20:09:30.199Z</time>
      </trkpt>
      <trkpt lat="42.90311336517334" lon="0.6330013275146484">
        <ele>528.224661816802</ele>
        <time>2021-08-02T20:09:35.468Z</time>
      </trkpt>
      <trkpt lat="42.90294170379639" lon="0.633162260055542">
        <ele>529.1577889224358</ele>
        <time>2021-08-02T20:09:40.740Z</time>
      </trkpt>
      <trkpt lat="42.90282377041876" lon="0.633312463760376">
        <ele>530.1297204236155</ele>
        <time>2021-08-02T20:09:46.014Z</time>
      </trkpt>
      <trkpt lat="42.902737855911255" lon="0.6334197521209717">
        <ele>531.00954620569</ele>
        <time>2021-08-02T20:09:51.290Z</time>
      </trkpt>
      <trkpt lat="42.90273793973029" lon="0.6334197521209717">
        <ele>531.8447199940297</ele>
        <time>2021-08-02T20:09:56.566Z</time>
      </trkpt>
      <trkpt lat="42.90236234664917" lon="0.6338489055633545">
        <ele>533.1147867972227</ele>
        <time>2021-08-02T20:10:01.850Z</time>
      </trkpt>
      <trkpt lat="42.90227651596069" lon="0.6339240074157715">
        <ele>534.1749937037018</ele>
        <time>2021-08-02T20:10:07.136Z</time>
      </trkpt>
      <trkpt lat="42.90204048156738" lon="0.634009838104248">
        <ele>535.3528847862653</ele>
        <time>2021-08-02T20:10:12.426Z</time>
      </trkpt>
      <trkpt lat="42.90184736251831" lon="0.634009838104248">
        <ele>536.3651833738675</ele>
        <time>2021-08-02T20:10:17.719Z</time>
      </trkpt>
      <trkpt lat="42.90165424346924" lon="0.633934736251831">
        <ele>537.2674667968487</ele>
        <time>2021-08-02T20:10:23.015Z</time>
      </trkpt>
      <trkpt lat="42.90114998817444" lon="0.633612871170044">
        <ele>538.0111935894676</ele>
        <time>2021-08-02T20:10:28.320Z</time>
      </trkpt>
      <trkpt lat="42.900956869125366" lon="0.6335270404815674">
        <ele>538.9982442981445</ele>
        <time>2021-08-02T20:10:33.628Z</time>
      </trkpt>
      <trkpt lat="42.90029168128967" lon="0.6332588195800781">
        <ele>539.9421747918603</ele>
        <time>2021-08-02T20:10:38.947Z</time>
      </trkpt>
      <trkpt lat="42.89994835853577" lon="0.6331729888916016">
        <ele>541.0143891795153</ele>
        <time>2021-08-02T20:10:44.272Z</time>
      </trkpt>
      <trkpt lat="42.89981961250305" lon="0.6331086158752441">
        <ele>542.1326461792066</ele>
        <time>2021-08-02T20:10:49.599Z</time>
      </trkpt>
      <trkpt lat="42.89981969632208" lon="0.6331086158752441">
        <ele>543.3327539104658</ele>
        <time>2021-08-02T20:10:54.926Z</time>
      </trkpt>
      <trkpt lat="42.89968013763428" lon="0.6330227851867676">
        <ele>544.5419937437289</ele>
        <time>2021-08-02T20:11:00.255Z</time>
      </trkpt>
      <trkpt lat="42.899497747421265" lon="0.632861852645874">
        <ele>545.8381414517165</ele>
        <time>2021-08-02T20:11:05.588Z</time>
      </trkpt>
      <trkpt lat="42.89940118789673" lon="0.6327331066131592">
        <ele>547.1839071352208</ele>
        <time>2021-08-02T20:11:10.923Z</time>
      </trkpt>
      <trkpt lat="42.89933681488037" lon="0.6327974796295166">
        <ele>548.7049058660527</ele>
        <time>2021-08-02T20:11:16.259Z</time>
      </trkpt>
      <trkpt lat="42.89930462837219" lon="0.632786750793457">
        <ele>550.2315114553248</ele>
        <time>2021-08-02T20:11:21.596Z</time>
      </trkpt>
      <trkpt lat="42.899218797683716" lon="0.6326901912689209">
        <ele>551.8005360965307</ele>
        <time>2021-08-02T20:11:26.935Z</time>
      </trkpt>
      <trkpt lat="42.89892911911011" lon="0.6321859359741211">
        <ele>553.4210485512866</ele>
        <time>2021-08-02T20:11:32.281Z</time>
      </trkpt>
      <trkpt lat="42.89866089820862" lon="0.6316494941711426">
        <ele>555.1440292114986</ele>
        <time>2021-08-02T20:11:37.635Z</time>
      </trkpt>
      <trkpt lat="42.89838194847107" lon="0.6312739849090576">
        <ele>557.0556573948088</ele>
        <time>2021-08-02T20:11:42.995Z</time>
      </trkpt>
      <trkpt lat="42.89830684661865" lon="0.6311345100402832">
        <ele>558.9554946497381</ele>
        <time>2021-08-02T20:11:48.357Z</time>
      </trkpt>
      <trkpt lat="42.898221015930176" lon="0.6308984756469727">
        <ele>560.913681545878</ele>
        <time>2021-08-02T20:11:53.722Z</time>
      </trkpt>
      <trkpt lat="42.89817810058594" lon="0.6304800510406494">
        <ele>562.8815735248797</ele>
        <time>2021-08-02T20:11:59.092Z</time>
      </trkpt>
      <trkpt lat="42.8981351852417" lon="0.6303727626800537">
        <ele>564.8421048807046</ele>
        <time>2021-08-02T20:12:04.464Z</time>
      </trkpt>
      <trkpt lat="42.89810299873352" lon="0.6303083896636963">
        <ele>566.7829112515625</ele>
        <time>2021-08-02T20:12:09.837Z</time>
      </trkpt>
      <trkpt lat="42.89782404899597" lon="0.6300508975982666">
        <ele>569.0097571474264</ele>
        <time>2021-08-02T20:12:15.215Z</time>
      </trkpt>
      <trkpt lat="42.897459268569946" lon="0.6295788288116455">
        <ele>571.2657759543403</ele>
        <time>2021-08-02T20:12:20.601Z</time>
      </trkpt>
      <trkpt lat="42.897212505340576" lon="0.629342794418335">
        <ele>573.1886808880996</ele>
        <time>2021-08-02T20:12:25.992Z</time>
      </trkpt>
      <trkpt lat="42.89655804634094" lon="0.6288278102874756">
        <ele>575.2833124670407</ele>
        <time>2021-08-02T20:12:31.395Z</time>
      </trkpt>
      <trkpt lat="42.8961718082428" lon="0.628591775894165">
        <ele>577.152027155221</ele>
        <time>2021-08-02T20:12:36.805Z</time>
      </trkpt>
      <trkpt lat="42.89603233337402" lon="0.6284523010253906">
        <ele>578.7722351368502</ele>
        <time>2021-08-02T20:12:42.218Z</time>
      </trkpt>
      <trkpt lat="42.89558172225952" lon="0.6276798248291016">
        <ele>580.3056559641699</ele>
        <time>2021-08-02T20:12:47.642Z</time>
      </trkpt>
      <trkpt lat="42.89509900845587" lon="0.6269180774688721">
        <ele>581.777760695821</ele>
        <time>2021-08-02T20:12:53.078Z</time>
      </trkpt>
      <trkpt lat="42.893757820129395" lon="0.6247615814208984">
        <ele>583.1318182576085</ele>
        <time>2021-08-02T20:12:58.547Z</time>
      </trkpt>
      <trkpt lat="42.8934467677027" lon="0.6243002414703369">
        <ele>584.2367837545012</ele>
        <time>2021-08-02T20:13:04.024Z</time>
      </trkpt>
      <trkpt lat="42.89336085319519" lon="0.6241607666015625">
        <ele>585.1771348483107</ele>
        <time>2021-08-02T20:13:09.503Z</time>
      </trkpt>
      <trkpt lat="42.89304971694946" lon="0.6238603591918945">
        <ele>586.0677724348502</ele>
        <time>2021-08-02T20:13:14.988Z</time>
      </trkpt>
      <trkpt lat="42.89240598678589" lon="0.6232810020446777">
        <ele>586.4943939077484</ele>
        <time>2021-08-02T20:13:20.485Z</time>
      </trkpt>
      <trkpt lat="42.89216995239258" lon="0.6231307983398438">
        <ele>586.9553138561174</ele>
        <time>2021-08-02T20:13:25.986Z</time>
      </trkpt>
      <trkpt lat="42.89194473065436" lon="0.6230449676513672">
        <ele>587.33439079657</ele>
        <time>2021-08-02T20:13:31.491Z</time>
      </trkpt>
      <trkpt lat="42.89160132408142" lon="0.6229805946350098">
        <ele>587.702249998766</ele>
        <time>2021-08-02T20:13:37.002Z</time>
      </trkpt>
      <trkpt lat="42.89141893386841" lon="0.6229162216186523">
        <ele>587.8471259476354</ele>
        <time>2021-08-02T20:13:42.516Z</time>
      </trkpt>
      <trkpt lat="42.89109706878662" lon="0.6226587295532227">
        <ele>587.6876051140691</ele>
        <time>2021-08-02T20:13:48.036Z</time>
      </trkpt>
      <trkpt lat="42.890968322753906" lon="0.6225299835205078">
        <ele>587.4069985328949</ele>
        <time>2021-08-02T20:13:53.558Z</time>
      </trkpt>
      <trkpt lat="42.89081811904907" lon="0.622326135635376">
        <ele>586.9382173364974</ele>
        <time>2021-08-02T20:13:59.084Z</time>
      </trkpt>
      <trkpt lat="42.890764474868774" lon="0.6221973896026611">
        <ele>586.3743243414831</ele>
        <time>2021-08-02T20:14:04.611Z</time>
      </trkpt>
      <trkpt lat="42.890517795458436" lon="0.6214678287506104">
        <ele>585.1585794688365</ele>
        <time>2021-08-02T20:14:10.148Z</time>
      </trkpt>
      <trkpt lat="42.89043188095093" lon="0.6212425231933594">
        <ele>584.4090477849105</ele>
        <time>2021-08-02T20:14:15.688Z</time>
      </trkpt>
      <trkpt lat="42.89037823677063" lon="0.6211137771606445">
        <ele>583.6925358459448</ele>
        <time>2021-08-02T20:14:21.229Z</time>
      </trkpt>
      <trkpt lat="42.89032459259033" lon="0.6210708618164062">
        <ele>583.0077321678341</ele>
        <time>2021-08-02T20:14:26.771Z</time>
      </trkpt>
      <trkpt lat="42.890249490737915" lon="0.6210601329803467">
        <ele>582.3400686484176</ele>
        <time>2021-08-02T20:14:32.315Z</time>
      </trkpt>
      <trkpt lat="42.88978815078735" lon="0.6211566925048828">
        <ele>581.9929539367295</ele>
        <time>2021-08-02T20:14:37.866Z</time>
      </trkpt>
      <trkpt lat="42.88947709836066" lon="0.6211674213409424">
        <ele>581.5016131014531</ele>
        <time>2021-08-02T20:14:43.422Z</time>
      </trkpt>
      <trkpt lat="42.88930535316467" lon="0.6211459636688232">
        <ele>580.8052405555378</ele>
        <time>2021-08-02T20:14:48.981Z</time>
      </trkpt>
      <trkpt lat="42.88906931877136" lon="0.6210494041442871">
        <ele>579.9557649977426</ele>
        <time>2021-08-02T20:14:54.544Z</time>
      </trkpt>
      <trkpt lat="42.88887619972229" lon="0.6209313869476318">
        <ele>579.0145981494434</ele>
        <time>2021-08-02T20:15:00.110Z</time>
      </trkpt>
      <trkpt lat="42.88783558644354" lon="0.6200945377349854">
        <ele>577.4975789442612</ele>
        <time>2021-08-02T20:15:05.696Z</time>
      </trkpt>
      <trkpt lat="42.88769602775574" lon="0.6199443340301514">
        <ele>576.5668148416615</ele>
        <time>2021-08-02T20:15:11.284Z</time>
      </trkpt>
      <trkpt lat="42.88766384124756" lon="0.6198906898498535">
        <ele>575.7471877762301</ele>
        <time>2021-08-02T20:15:16.873Z</time>
      </trkpt>
      <trkpt lat="42.88764238357544" lon="0.61972975730896">
        <ele>574.795742907573</ele>
        <time>2021-08-02T20:15:22.464Z</time>
      </trkpt>
      <trkpt lat="42.8876531124115" lon="0.6196224689483643">
        <ele>574.0695491564882</ele>
        <time>2021-08-02T20:15:28.056Z</time>
      </trkpt>
      <trkpt lat="42.887492179870605" lon="0.619579553604126">
        <ele>573.5474615221756</ele>
        <time>2021-08-02T20:15:33.651Z</time>
      </trkpt>
      <trkpt lat="42.88740634918213" lon="0.6195366382598877">
        <ele>573.0773711192736</ele>
        <time>2021-08-02T20:15:39.247Z</time>
      </trkpt>
      <trkpt lat="42.88730978965759" lon="0.6194508075714111">
        <ele>572.6725665595375</ele>
        <time>2021-08-02T20:15:44.845Z</time>
      </trkpt>
      <trkpt lat="42.88679480552673" lon="0.6188821792602539">
        <ele>572.3473453245078</ele>
        <time>2021-08-02T20:15:50.454Z</time>
      </trkpt>
      <trkpt lat="42.88658022880554" lon="0.6186783313751221">
        <ele>572.1633031533257</ele>
        <time>2021-08-02T20:15:56.067Z</time>
      </trkpt>
      <trkpt lat="42.885979413986206" lon="0.6182384490966797">
        <ele>572.4099037860045</ele>
        <time>2021-08-02T20:16:01.691Z</time>
      </trkpt>
      <trkpt lat="42.88588285446167" lon="0.6181418895721436">
        <ele>572.3384952301217</ele>
        <time>2021-08-02T20:16:07.317Z</time>
      </trkpt>
      <trkpt lat="42.8856897354126" lon="0.6178951263427734">
        <ele>572.3200685019765</ele>
        <time>2021-08-02T20:16:12.947Z</time>
      </trkpt>
      <trkpt lat="42.88538932800293" lon="0.6173264980316162">
        <ele>572.2669170078748</ele>
        <time>2021-08-02T20:16:18.585Z</time>
      </trkpt>
      <trkpt lat="42.88520693778992" lon="0.6170475482940674">
        <ele>572.3240114918269</ele>
        <time>2021-08-02T20:16:24.228Z</time>
      </trkpt>
      <trkpt lat="42.885078275576234" lon="0.6168973445892334">
        <ele>572.443847258565</ele>
        <time>2021-08-02T20:16:29.874Z</time>
      </trkpt>
      <trkpt lat="42.88486369885504" lon="0.6167256832122803">
        <ele>572.7720335704098</ele>
        <time>2021-08-02T20:16:35.523Z</time>
      </trkpt>
      <trkpt lat="42.88439154624939" lon="0.6164467334747314">
        <ele>573.4035164373122</ele>
        <time>2021-08-02T20:16:41.181Z</time>
      </trkpt>
      <trkpt lat="42.884230613708496" lon="0.6163179874420166">
        <ele>573.7803833175003</ele>
        <time>2021-08-02T20:16:46.842Z</time>
      </trkpt>
      <trkpt lat="42.88411259651184" lon="0.6161785125732422">
        <ele>574.1567131242886</ele>
        <time>2021-08-02T20:16:52.505Z</time>
      </trkpt>
      <trkpt lat="42.884016036987305" lon="0.6160712242126465">
        <ele>574.5646685933098</ele>
        <time>2021-08-02T20:16:58.170Z</time>
      </trkpt>
      <trkpt lat="42.883780002593994" lon="0.6157386302947998">
        <ele>574.9998185380507</ele>
        <time>2021-08-02T20:17:03.841Z</time>
      </trkpt>
      <trkpt lat="42.88362979888916" lon="0.6154274940490723">
        <ele>575.3649785525479</ele>
        <time>2021-08-02T20:17:09.516Z</time>
      </trkpt>
      <trkpt lat="42.88329720497131" lon="0.6146550178527832">
        <ele>575.6615665396401</ele>
        <time>2021-08-02T20:17:15.202Z</time>
      </trkpt>
      <trkpt lat="42.88320064544678" lon="0.6144726276397705">
        <ele>575.9883433243051</ele>
        <time>2021-08-02T20:17:20.890Z</time>
      </trkpt>
      <trkpt lat="42.882986068725586" lon="0.6141936779022217">
        <ele>576.3042478267355</ele>
        <time>2021-08-02T20:17:26.583Z</time>
      </trkpt>
      <trkpt lat="42.88281440734863" lon="0.6140327453613281">
        <ele>576.7508573824341</ele>
        <time>2021-08-02T20:17:32.279Z</time>
      </trkpt>
      <trkpt lat="42.88268566131592" lon="0.6139576435089111">
        <ele>577.3014572857568</ele>
        <time>2021-08-02T20:17:37.978Z</time>
      </trkpt>
      <trkpt lat="42.882524728775024" lon="0.6138825416564941">
        <ele>577.8967415914233</ele>
        <time>2021-08-02T20:17:43.679Z</time>
      </trkpt>
      <trkpt lat="42.88238525390625" lon="0.6138503551483154">
        <ele>578.5356736249869</ele>
        <time>2021-08-02T20:17:49.383Z</time>
      </trkpt>
      <trkpt lat="42.8816020488739" lon="0.6137216091156006">
        <ele>579.2408327598025</ele>
        <time>2021-08-02T20:17:55.099Z</time>
      </trkpt>
      <trkpt lat="42.88043260574341" lon="0.6135177612304688">
        <ele>580.1270220072183</ele>
        <time>2021-08-02T20:18:00.834Z</time>
      </trkpt>
      <trkpt lat="42.8801429271698" lon="0.61348557472229">
        <ele>581.0136774591741</ele>
        <time>2021-08-02T20:18:06.574Z</time>
      </trkpt>
      <trkpt lat="42.880003452301025" lon="0.61348557472229">
        <ele>581.8505792371021</ele>
        <time>2021-08-02T20:18:12.316Z</time>
      </trkpt>
      <trkpt lat="42.87972450256348" lon="0.6135499477386475">
        <ele>582.681656608471</ele>
        <time>2021-08-02T20:18:18.062Z</time>
      </trkpt>
      <trkpt lat="42.879080856218934" lon="0.613785982131958">
        <ele>583.7411996921162</ele>
        <time>2021-08-02T20:18:23.819Z</time>
      </trkpt>
      <trkpt lat="42.87889846600592" lon="0.6138503551483154">
        <ele>584.5633005327827</ele>
        <time>2021-08-02T20:18:29.579Z</time>
      </trkpt>
      <trkpt lat="42.87834048271179" lon="0.6140649318695068">
        <ele>585.6416917226627</ele>
        <time>2021-08-02T20:18:35.348Z</time>
      </trkpt>
      <trkpt lat="42.87810444831848" lon="0.6141185760498047">
        <ele>586.6816802066062</ele>
        <time>2021-08-02T20:18:41.121Z</time>
      </trkpt>
      <trkpt lat="42.87769683636725" lon="0.6140971183776855">
        <ele>587.6545238852405</ele>
        <time>2021-08-02T20:18:46.901Z</time>
      </trkpt>
      <trkpt lat="42.877482175827026" lon="0.6140327453613281">
        <ele>588.6245110113703</ele>
        <time>2021-08-02T20:18:52.684Z</time>
      </trkpt>
      <trkpt lat="42.877278327941895" lon="0.6139469146728516">
        <ele>589.6411584359787</ele>
        <time>2021-08-02T20:18:58.471Z</time>
      </trkpt>
      <trkpt lat="42.877278411760926" lon="0.6139469146728516">
        <ele>590.6134234226465</ele>
        <time>2021-08-02T20:19:04.258Z</time>
      </trkpt>
      <trkpt lat="42.87676342763007" lon="0.6137001514434814">
        <ele>591.7799273564679</ele>
        <time>2021-08-02T20:19:10.053Z</time>
      </trkpt>
      <trkpt lat="42.876538038253784" lon="0.6135928630828857">
        <ele>592.7547951625152</ele>
        <time>2021-08-02T20:19:15.852Z</time>
      </trkpt>
      <trkpt lat="42.87573345936835" lon="0.6132388114929199">
        <ele>593.984812899525</ele>
        <time>2021-08-02T20:19:21.665Z</time>
      </trkpt>
      <trkpt lat="42.8754545096308" lon="0.6131100654602051">
        <ele>594.987844134512</ele>
        <time>2021-08-02T20:19:27.482Z</time>
      </trkpt>
      <trkpt lat="42.87410259246826" lon="0.6124985218048096">
        <ele>596.1246735791024</ele>
        <time>2021-08-02T20:19:33.322Z</time>
      </trkpt>
      <trkpt lat="42.87357687950134" lon="0.6122410297393799">
        <ele>596.9535245443426</ele>
        <time>2021-08-02T20:19:39.171Z</time>
      </trkpt>
      <trkpt lat="42.872503995895386" lon="0.6114792823791504">
        <ele>597.5037238111711</ele>
        <time>2021-08-02T20:19:45.040Z</time>
      </trkpt>
      <trkpt lat="42.87220358848572" lon="0.6112968921661377">
        <ele>598.4194367622142</ele>
        <time>2021-08-02T20:19:50.914Z</time>
      </trkpt>
      <trkpt lat="42.87192463874817" lon="0.6111681461334229">
        <ele>599.4116965888636</ele>
        <time>2021-08-02T20:19:56.793Z</time>
      </trkpt>
      <trkpt lat="42.87146338261664" lon="0.6109964847564697">
        <ele>600.3277055205732</ele>
        <time>2021-08-02T20:20:02.679Z</time>
      </trkpt>
      <trkpt lat="42.871345365419984" lon="0.6109535694122314">
        <ele>601.0863338279896</ele>
        <time>2021-08-02T20:20:08.567Z</time>
      </trkpt>
      <trkpt lat="42.871098602190614" lon="0.6108570098876953">
        <ele>601.9385939003225</ele>
        <time>2021-08-02T20:20:14.459Z</time>
      </trkpt>
      <trkpt lat="42.87084102630615" lon="0.6107068061828613">
        <ele>602.6018743949478</ele>
        <time>2021-08-02T20:20:20.356Z</time>
      </trkpt>
      <trkpt lat="42.87007927894592" lon="0.6101381778717041">
        <ele>602.6836390477536</ele>
        <time>2021-08-02T20:20:26.267Z</time>
      </trkpt>
      <trkpt lat="42.86987543106079" lon="0.6100094318389893">
        <ele>603.3359588587361</ele>
        <time>2021-08-02T20:20:32.181Z</time>
      </trkpt>
      <trkpt lat="42.86969304084778" lon="0.6099236011505127">
        <ele>604.0104058061424</ele>
        <time>2021-08-02T20:20:38.098Z</time>
      </trkpt>
      <trkpt lat="42.86923178471625" lon="0.6097733974456787">
        <ele>604.7288395455563</ele>
        <time>2021-08-02T20:20:44.023Z</time>
      </trkpt>
      <trkpt lat="42.86867380142212" lon="0.6096124649047852">
        <ele>605.5734594241524</ele>
        <time>2021-08-02T20:20:49.957Z</time>
      </trkpt>
      <trkpt lat="42.86845922470093" lon="0.609515905380249">
        <ele>606.3404983982155</ele>
        <time>2021-08-02T20:20:55.895Z</time>
      </trkpt>
      <trkpt lat="42.86826618947089" lon="0.6093978881835938">
        <ele>607.1100265661144</ele>
        <time>2021-08-02T20:21:01.836Z</time>
      </trkpt>
      <trkpt lat="42.86811598576605" lon="0.609290599822998">
        <ele>607.8621615580875</ele>
        <time>2021-08-02T20:21:07.780Z</time>
      </trkpt>
      <trkpt lat="42.86784768104553" lon="0.6090223789215088">
        <ele>608.6414608038842</ele>
        <time>2021-08-02T20:21:13.729Z</time>
      </trkpt>
      <trkpt lat="42.86746152676642" lon="0.6085073947906494">
        <ele>609.4268765021421</ele>
        <time>2021-08-02T20:21:19.687Z</time>
      </trkpt>
      <trkpt lat="42.867279052734375" lon="0.6082713603973389">
        <ele>610.2532914154774</ele>
        <time>2021-08-02T20:21:25.649Z</time>
      </trkpt>
      <trkpt lat="42.86727913655341" lon="0.6082713603973389">
        <ele>610.901972771723</ele>
        <time>2021-08-02T20:21:31.611Z</time>
      </trkpt>
      <trkpt lat="42.86693572998047" lon="0.6078529357910156">
        <ele>611.7264942776942</ele>
        <time>2021-08-02T20:21:37.580Z</time>
      </trkpt>
      <trkpt lat="42.8666889667511" lon="0.6075847148895264">
        <ele>612.3296693014281</ele>
        <time>2021-08-02T20:21:43.554Z</time>
      </trkpt>
      <trkpt lat="42.865283489227295" lon="0.6063187122344971">
        <ele>612.6414269428144</ele>
        <time>2021-08-02T20:21:49.555Z</time>
      </trkpt>
      <trkpt lat="42.86513328552246" lon="0.606147050857544">
        <ele>613.2441284159294</ele>
        <time>2021-08-02T20:21:55.559Z</time>
      </trkpt>
      <trkpt lat="42.86468275822699" lon="0.6057178974151611">
        <ele>613.884962810424</ele>
        <time>2021-08-02T20:22:01.572Z</time>
      </trkpt>
      <trkpt lat="42.8645218256861" lon="0.6055784225463867">
        <ele>614.4488211874601</ele>
        <time>2021-08-02T20:22:07.588Z</time>
      </trkpt>
      <trkpt lat="42.86445745266974" lon="0.6055355072021484">
        <ele>614.9716991431413</ele>
        <time>2021-08-02T20:22:13.605Z</time>
      </trkpt>
      <trkpt lat="42.864274978637695" lon="0.605396032333374">
        <ele>615.425350171281</ele>
        <time>2021-08-02T20:22:19.626Z</time>
      </trkpt>
      <trkpt lat="42.86391019821167" lon="0.6052136421203613">
        <ele>615.7465859819026</ele>
        <time>2021-08-02T20:22:25.653Z</time>
      </trkpt>
      <trkpt lat="42.8637170791626" lon="0.6051492691040039">
        <ele>616.155284468128</ele>
        <time>2021-08-02T20:22:31.683Z</time>
      </trkpt>
      <trkpt lat="42.86347031593323" lon="0.6051170825958252">
        <ele>616.5982948196588</ele>
        <time>2021-08-02T20:22:37.717Z</time>
      </trkpt>
      <trkpt lat="42.863255739212036" lon="0.6051278114318848">
        <ele>616.9928704156431</ele>
        <time>2021-08-02T20:22:43.754Z</time>
      </trkpt>
      <trkpt lat="42.86282658576965" lon="0.6051385402679443">
        <ele>617.3366517595239</ele>
        <time>2021-08-02T20:22:49.798Z</time>
      </trkpt>
      <trkpt lat="42.86263346672058" lon="0.6051921844482422">
        <ele>617.703408590218</ele>
        <time>2021-08-02T20:22:55.845Z</time>
      </trkpt>
      <trkpt lat="42.86139965057373" lon="0.6055784225463867">
        <ele>618.0164688649303</ele>
        <time>2021-08-02T20:23:01.913Z</time>
      </trkpt>
      <trkpt lat="42.86059498786926" lon="0.6058144569396973">
        <ele>618.2218622865013</ele>
        <time>2021-08-02T20:23:07.994Z</time>
      </trkpt>
      <trkpt lat="42.86036968231201" lon="0.6058573722839355">
        <ele>618.3882325497686</ele>
        <time>2021-08-02T20:23:14.078Z</time>
      </trkpt>
      <trkpt lat="42.85997271537781" lon="0.6058251857757568">
        <ele>618.5737640688488</ele>
        <time>2021-08-02T20:23:20.169Z</time>
      </trkpt>
      <trkpt lat="42.859253883361816" lon="0.6055998802185059">
        <ele>618.5991594123639</ele>
        <time>2021-08-02T20:23:26.272Z</time>
      </trkpt>
      <trkpt lat="42.85848140716553" lon="0.6055784225463867">
        <ele>618.2724560311694</ele>
        <time>2021-08-02T20:23:32.387Z</time>
      </trkpt>
      <trkpt lat="42.858309745788574" lon="0.6055891513824463">
        <ele>618.1278013612722</ele>
        <time>2021-08-02T20:23:38.505Z</time>
      </trkpt>
      <trkpt lat="42.85819172859192" lon="0.605621337890625">
        <ele>617.9655575664606</ele>
        <time>2021-08-02T20:23:44.625Z</time>
      </trkpt>
      <trkpt lat="42.857290506362915" lon="0.6059432029724121">
        <ele>618.0196310607538</ele>
        <time>2021-08-02T20:23:50.760Z</time>
      </trkpt>
      <trkpt lat="42.856786251068115" lon="0.6060183048248291">
        <ele>617.6793398495668</ele>
        <time>2021-08-02T20:23:56.903Z</time>
      </trkpt>
      <trkpt lat="42.85645365715027" lon="0.60599684715271">
        <ele>617.4283036364274</ele>
        <time>2021-08-02T20:24:03.051Z</time>
      </trkpt>
      <trkpt lat="42.856292724609375" lon="0.6059432029724121">
        <ele>616.9848152547215</ele>
        <time>2021-08-02T20:24:09.202Z</time>
      </trkpt>
      <trkpt lat="42.8560996055603" lon="0.6058681011199951">
        <ele>616.4125602288063</ele>
        <time>2021-08-02T20:24:15.356Z</time>
      </trkpt>
      <trkpt lat="42.855831468477845" lon="0.6057286262512207">
        <ele>615.8002583266272</ele>
        <time>2021-08-02T20:24:21.514Z</time>
      </trkpt>
      <trkpt lat="42.854865873232484" lon="0.6051814556121826">
        <ele>615.6694709853924</ele>
        <time>2021-08-02T20:24:27.689Z</time>
      </trkpt>
      <trkpt lat="42.85434007644653" lon="0.6048381328582764">
        <ele>614.4523358323036</ele>
        <time>2021-08-02T20:24:33.874Z</time>
      </trkpt>
      <trkpt lat="42.85420060157776" lon="0.6047201156616211">
        <ele>613.5494366870483</ele>
        <time>2021-08-02T20:24:40.061Z</time>
      </trkpt>
      <trkpt lat="42.854039669036865" lon="0.6045591831207275">
        <ele>612.7080622383296</ele>
        <time>2021-08-02T20:24:46.251Z</time>
      </trkpt>
      <trkpt lat="42.853074073791504" lon="0.6033146381378174">
        <ele>611.6455368914587</ele>
        <time>2021-08-02T20:24:52.463Z</time>
      </trkpt>
      <trkpt lat="42.85291314125061" lon="0.6031429767608643">
        <ele>610.93329752609</ele>
        <time>2021-08-02T20:24:58.678Z</time>
      </trkpt>
      <trkpt lat="42.85274147987366" lon="0.6030142307281494">
        <ele>610.2420487983179</ele>
        <time>2021-08-02T20:25:04.896Z</time>
      </trkpt>
      <trkpt lat="42.85274156369269" lon="0.6030142307281494">
        <ele>609.4450045421165</ele>
        <time>2021-08-02T20:25:11.114Z</time>
      </trkpt>
      <trkpt lat="42.852301597595215" lon="0.6027460098266602">
        <ele>608.627246628967</ele>
        <time>2021-08-02T20:25:17.340Z</time>
      </trkpt>
      <trkpt lat="42.85209774971008" lon="0.6026601791381836">
        <ele>607.8024213456704</ele>
        <time>2021-08-02T20:25:23.569Z</time>
      </trkpt>
      <trkpt lat="42.851808071136475" lon="0.602574348449707">
        <ele>607.0175222347749</ele>
        <time>2021-08-02T20:25:29.803Z</time>
      </trkpt>
      <trkpt lat="42.85163649357855" lon="0.6025528907775879">
        <ele>606.250177658774</ele>
        <time>2021-08-02T20:25:36.040Z</time>
      </trkpt>
      <trkpt lat="42.85099267959595" lon="0.6025421619415283">
        <ele>605.5099784986141</ele>
        <time>2021-08-02T20:25:42.287Z</time>
      </trkpt>
      <trkpt lat="42.85099276341498" lon="0.6025421619415283">
        <ele>604.7500759956731</ele>
        <time>2021-08-02T20:25:48.534Z</time>
      </trkpt>
      <trkpt lat="42.8501558303833" lon="0.6025528907775879">
        <ele>603.8221179559698</ele>
        <time>2021-08-02T20:25:54.794Z</time>
      </trkpt>
      <trkpt lat="42.84969449043274" lon="0.6025958061218262">
        <ele>603.037292099636</ele>
        <time>2021-08-02T20:26:01.062Z</time>
      </trkpt>
      <trkpt lat="42.84597158432007" lon="0.6034862995147705">
        <ele>602.2857260327235</ele>
        <time>2021-08-02T20:26:07.390Z</time>
      </trkpt>
      <trkpt lat="42.8459716681391" lon="0.6034862995147705">
        <ele>601.6308693148105</ele>
        <time>2021-08-02T20:26:13.718Z</time>
      </trkpt>
      <trkpt lat="42.84439452923834" lon="0.6038188934326172">
        <ele>601.0223163341827</ele>
        <time>2021-08-02T20:26:20.072Z</time>
      </trkpt>
      <trkpt lat="42.84419068135321" lon="0.603872537612915">
        <ele>600.4233801993848</ele>
        <time>2021-08-02T20:26:26.429Z</time>
      </trkpt>
      <trkpt lat="42.8435576800257" lon="0.6039905548095703">
        <ele>599.8361049754071</ele>
        <time>2021-08-02T20:26:32.796Z</time>
      </trkpt>
      <trkpt lat="42.84264572896063" lon="0.604172945022583">
        <ele>599.284414314384</ele>
        <time>2021-08-02T20:26:39.178Z</time>
      </trkpt>
      <trkpt lat="42.842291593551636" lon="0.6042802333831787">
        <ele>598.7694146574897</ele>
        <time>2021-08-02T20:26:45.566Z</time>
      </trkpt>
      <trkpt lat="42.84172296524048" lon="0.6045055389404297">
        <ele>598.3329748889844</ele>
        <time>2021-08-02T20:26:51.963Z</time>
      </trkpt>
      <trkpt lat="42.84149765968323" lon="0.6045699119567871">
        <ele>597.9877589781994</ele>
        <time>2021-08-02T20:26:58.364Z</time>
      </trkpt>
      <trkpt lat="42.84127235412598" lon="0.604623556137085">
        <ele>597.6730323407235</ele>
        <time>2021-08-02T20:27:04.769Z</time>
      </trkpt>
      <trkpt lat="42.84091830253601" lon="0.6046342849731445">
        <ele>597.4085693668187</ele>
        <time>2021-08-02T20:27:11.179Z</time>
      </trkpt>
      <trkpt lat="42.8406822681427" lon="0.6046128273010254">
        <ele>597.2030573805589</ele>
        <time>2021-08-02T20:27:17.593Z</time>
      </trkpt>
      <trkpt lat="42.84045696258545" lon="0.6045699119567871">
        <ele>597.042102997686</ele>
        <time>2021-08-02T20:27:24.011Z</time>
      </trkpt>
      <trkpt lat="42.8386116027832" lon="0.6040441989898682">
        <ele>597.0722059212638</ele>
        <time>2021-08-02T20:27:30.459Z</time>
      </trkpt>
      <trkpt lat="42.83849358558655" lon="0.6039583683013916">
        <ele>596.8652513128225</ele>
        <time>2021-08-02T20:27:36.909Z</time>
      </trkpt>
      <trkpt lat="42.83781775273383" lon="0.6037759780883789">
        <ele>596.6602750305833</ele>
        <time>2021-08-02T20:27:43.370Z</time>
      </trkpt>
      <trkpt lat="42.83718475140631" lon="0.6035935878753662">
        <ele>596.4639009191815</ele>
        <time>2021-08-02T20:27:49.841Z</time>
      </trkpt>
      <trkpt lat="42.83666976727545" lon="0.6034433841705322">
        <ele>596.2902912856207</ele>
        <time>2021-08-02T20:27:56.321Z</time>
      </trkpt>
      <trkpt lat="42.835564613342285" lon="0.6031537055969238">
        <ele>596.0940577256897</ele>
        <time>2021-08-02T20:28:02.819Z</time>
      </trkpt>
      <trkpt lat="42.835350036621094" lon="0.6031215190887451">
        <ele>596.0534713381718</ele>
        <time>2021-08-02T20:28:09.320Z</time>
      </trkpt>
      <trkpt lat="42.832056283950806" lon="0.6021988391876221">
        <ele>596.2297356445224</ele>
        <time>2021-08-02T20:28:15.875Z</time>
      </trkpt>
      <trkpt lat="42.83205636776984" lon="0.6021988391876221">
        <ele>596.251146405988</ele>
        <time>2021-08-02T20:28:22.430Z</time>
      </trkpt>
      <trkpt lat="42.83170231617987" lon="0.6021022796630859">
        <ele>596.3507906795344</ele>
        <time>2021-08-02T20:28:28.991Z</time>
      </trkpt>
      <trkpt lat="42.83012509346008" lon="0.6016623973846436">
        <ele>596.3070989577318</ele>
        <time>2021-08-02T20:28:35.578Z</time>
      </trkpt>
      <trkpt lat="42.82999634742737" lon="0.6016087532043457">
        <ele>596.3887400501778</ele>
        <time>2021-08-02T20:28:42.167Z</time>
      </trkpt>
      <trkpt lat="42.829835414886475" lon="0.601576566696167">
        <ele>596.5104443651616</ele>
        <time>2021-08-02T20:28:48.758Z</time>
      </trkpt>
      <trkpt lat="42.82927751541138" lon="0.6016087532043457">
        <ele>596.6468192996456</ele>
        <time>2021-08-02T20:28:55.358Z</time>
      </trkpt>
      <trkpt lat="42.82921314239502" lon="0.6015980243682861">
        <ele>596.8173237596501</ele>
        <time>2021-08-02T20:29:01.959Z</time>
      </trkpt>
      <trkpt lat="42.8291380405426" lon="0.6015658378601074">
        <ele>597.0207240500329</ele>
        <time>2021-08-02T20:29:08.562Z</time>
      </trkpt>
      <trkpt lat="42.829073667526245" lon="0.6015121936798096">
        <ele>597.2498689971833</ele>
        <time>2021-08-02T20:29:15.166Z</time>
      </trkpt>
      <trkpt lat="42.82898783683777" lon="0.6015229225158691">
        <ele>597.5017274091834</ele>
        <time>2021-08-02T20:29:21.771Z</time>
      </trkpt>
      <trkpt lat="42.82892354764044" lon="0.6015980243682861">
        <ele>597.7737860566999</ele>
        <time>2021-08-02T20:29:28.378Z</time>
      </trkpt>
      <trkpt lat="42.82891273498535" lon="0.6016194820404053">
        <ele>598.0703034246997</ele>
        <time>2021-08-02T20:29:34.985Z</time>
      </trkpt>
      <trkpt lat="42.828859090805054" lon="0.6016731262207031">
        <ele>598.3914682325644</ele>
        <time>2021-08-02T20:29:41.593Z</time>
      </trkpt>
      <trkpt lat="42.82877326011658" lon="0.6017053127288818">
        <ele>598.7390705763252</ele>
        <time>2021-08-02T20:29:48.202Z</time>
      </trkpt>
      <trkpt lat="42.828129529953" lon="0.6018555164337158">
        <ele>599.1593824085855</ele>
        <time>2021-08-02T20:29:54.822Z</time>
      </trkpt>
      <trkpt lat="42.827850580215454" lon="0.6019413471221924">
        <ele>599.548112633985</ele>
        <time>2021-08-02T20:30:01.446Z</time>
      </trkpt>
      <trkpt lat="42.82703518867493" lon="0.6021451950073242">
        <ele>599.9753134053283</ele>
        <time>2021-08-02T20:30:08.084Z</time>
      </trkpt>
      <trkpt lat="42.8266704082489" lon="0.6022846698760986">
        <ele>600.4176941506978</ele>
        <time>2021-08-02T20:30:14.728Z</time>
      </trkpt>
      <trkpt lat="42.82422423362732" lon="0.603400468826294">
        <ele>600.8500366491281</ele>
        <time>2021-08-02T20:30:21.413Z</time>
      </trkpt>
      <trkpt lat="42.82388091087341" lon="0.6035399436950684">
        <ele>601.3124537048238</ele>
        <time>2021-08-02T20:30:28.104Z</time>
      </trkpt>
      <trkpt lat="42.82329082489014" lon="0.6037008762359619">
        <ele>601.8769698616784</ele>
        <time>2021-08-02T20:30:34.804Z</time>
      </trkpt>
      <trkpt lat="42.82295823097229" lon="0.6037759780883789">
        <ele>602.4491693536602</ele>
        <time>2021-08-02T20:30:41.510Z</time>
      </trkpt>
      <trkpt lat="42.82266855239868" lon="0.6038188934326172">
        <ele>603.0229449984979</ele>
        <time>2021-08-02T20:30:48.220Z</time>
      </trkpt>
      <trkpt lat="42.82266863621771" lon="0.6038188934326172">
        <ele>603.5437424379982</ele>
        <time>2021-08-02T20:30:54.930Z</time>
      </trkpt>
      <trkpt lat="42.822636449709535" lon="0.6038188934326172">
        <ele>604.0801617452928</ele>
        <time>2021-08-02T20:31:01.641Z</time>
      </trkpt>
      <trkpt lat="42.822067737579346" lon="0.6038403511047363">
        <ele>604.609598693325</ele>
        <time>2021-08-02T20:31:08.361Z</time>
      </trkpt>
      <trkpt lat="42.82171368598938" lon="0.6038188934326172">
        <ele>605.1338150647325</ele>
        <time>2021-08-02T20:31:15.087Z</time>
      </trkpt>
      <trkpt lat="42.82122015953064" lon="0.6037437915802002">
        <ele>605.6746969769655</ele>
        <time>2021-08-02T20:31:21.821Z</time>
      </trkpt>
      <trkpt lat="42.82043695449829" lon="0.6035828590393066">
        <ele>606.2494996405851</ele>
        <time>2021-08-02T20:31:28.567Z</time>
      </trkpt>
      <trkpt lat="42.81875252723694" lon="0.6031966209411621">
        <ele>606.8343867244137</ele>
        <time>2021-08-02T20:31:35.341Z</time>
      </trkpt>
      <trkpt lat="42.81875261105597" lon="0.6031966209411621">
        <ele>607.389385868647</ele>
        <time>2021-08-02T20:31:42.115Z</time>
      </trkpt>
      <trkpt lat="42.81347393989563" lon="0.6020164489746094">
        <ele>608.0840119832981</ele>
        <time>2021-08-02T20:31:48.974Z</time>
      </trkpt>
      <trkpt lat="42.81347402371466" lon="0.6020164489746094">
        <ele>608.6339889724356</ele>
        <time>2021-08-02T20:31:55.833Z</time>
      </trkpt>
      <trkpt lat="42.806864976882935" lon="0.6005251407623291">
        <ele>609.373843449183</ele>
        <time>2021-08-02T20:32:02.799Z</time>
      </trkpt>
      <trkpt lat="42.80652173794806" lon="0.6004178524017334">
        <ele>609.9196225902467</ele>
        <time>2021-08-02T20:32:09.771Z</time>
      </trkpt>
      <trkpt lat="42.80652165412903" lon="0.6004178524017334">
        <ele>610.445718979548</ele>
        <time>2021-08-02T20:32:16.743Z</time>
      </trkpt>
      <trkpt lat="42.80618906021118" lon="0.6003320217132568">
        <ele>610.9483722385955</ele>
        <time>2021-08-02T20:32:23.720Z</time>
      </trkpt>
      <trkpt lat="42.80577063560486" lon="0.600203275680542">
        <ele>611.4380554454215</ele>
        <time>2021-08-02T20:32:30.704Z</time>
      </trkpt>
      <trkpt lat="42.80551314353943" lon="0.6001925468444824">
        <ele>611.9267706816056</ele>
        <time>2021-08-02T20:32:37.692Z</time>
      </trkpt>
      <trkpt lat="42.80545949935913" lon="0.6001603603363037">
        <ele>612.41282715695</ele>
        <time>2021-08-02T20:32:44.681Z</time>
      </trkpt>
      <trkpt lat="42.805395210161805" lon="0.6000852584838867">
        <ele>612.8853301891135</ele>
        <time>2021-08-02T20:32:51.672Z</time>
      </trkpt>
      <trkpt lat="42.805320024490356" lon="0.6000208854675293">
        <ele>613.3504114143896</ele>
        <time>2021-08-02T20:32:58.664Z</time>
      </trkpt>
      <trkpt lat="42.80527710914612" lon="0.6000101566314697">
        <ele>613.8085847195067</ele>
        <time>2021-08-02T20:33:05.657Z</time>
      </trkpt>
      <trkpt lat="42.805137634277344" lon="0.5999350547790527">
        <ele>614.2615559779099</ele>
        <time>2021-08-02T20:33:12.652Z</time>
      </trkpt>
      <trkpt lat="42.80497670173645" lon="0.5998170375823975">
        <ele>614.7003445759251</ele>
        <time>2021-08-02T20:33:19.650Z</time>
      </trkpt>
      <trkpt lat="42.804858684539795" lon="0.59975266456604">
        <ele>615.1305584174495</ele>
        <time>2021-08-02T20:33:26.650Z</time>
      </trkpt>
      <trkpt lat="42.80479439534247" lon="0.5996990203857422">
        <ele>615.552248559695</ele>
        <time>2021-08-02T20:33:33.651Z</time>
      </trkpt>
      <trkpt lat="42.80434378422797" lon="0.5993235111236572">
        <ele>615.9919397397641</ele>
        <time>2021-08-02T20:33:40.661Z</time>
      </trkpt>
      <trkpt lat="42.80421503819525" lon="0.5992162227630615">
        <ele>616.4104812852872</ele>
        <time>2021-08-02T20:33:47.673Z</time>
      </trkpt>
      <trkpt lat="42.803893173113465" lon="0.5989694595336914">
        <ele>616.8668308496977</ele>
        <time>2021-08-02T20:33:54.691Z</time>
      </trkpt>
      <trkpt lat="42.80269145965576" lon="0.5980038642883301">
        <ele>617.3464615980012</ele>
        <time>2021-08-02T20:34:01.732Z</time>
      </trkpt>
      <trkpt lat="42.802401864901185" lon="0.5978214740753174">
        <ele>617.7545134469626</ele>
        <time>2021-08-02T20:34:08.778Z</time>
      </trkpt>
      <trkpt lat="42.801843881607056" lon="0.5975425243377686">
        <ele>618.186377725916</ele>
        <time>2021-08-02T20:34:15.833Z</time>
      </trkpt>
      <trkpt lat="42.80169376172125" lon="0.5975103378295898">
        <ele>618.57161828106</ele>
        <time>2021-08-02T20:34:22.891Z</time>
      </trkpt>
      <trkpt lat="42.80169367790222" lon="0.5975103378295898">
        <ele>618.9425168974105</ele>
        <time>2021-08-02T20:34:29.949Z</time>
      </trkpt>
      <trkpt lat="42.80148991383612" lon="0.597456693649292">
        <ele>619.2985088941671</ele>
        <time>2021-08-02T20:34:37.010Z</time>
      </trkpt>
      <trkpt lat="42.80101776123047" lon="0.5973923206329346">
        <ele>619.6381865995972</ele>
        <time>2021-08-02T20:34:44.079Z</time>
      </trkpt>
      <trkpt lat="42.8010714892298" lon="0.5964481830596924">
        <ele>620.0714763169847</ele>
        <time>2021-08-02T20:34:51.159Z</time>
      </trkpt>
      <trkpt lat="42.798871994018555" lon="0.596158504486084">
        <ele>620.5283120219824</ele>
        <time>2021-08-02T20:34:58.274Z</time>
      </trkpt>
      <trkpt lat="42.798872077837586" lon="0.596158504486084">
        <ele>620.8644743352276</ele>
        <time>2021-08-02T20:35:05.389Z</time>
      </trkpt>
      <trkpt lat="42.79741287231445" lon="0.5959224700927734">
        <ele>621.2253381676423</ele>
        <time>2021-08-02T20:35:12.528Z</time>
      </trkpt>
      <trkpt lat="42.796833515167236" lon="0.5958473682403564">
        <ele>621.5967567480387</ele>
        <time>2021-08-02T20:35:19.676Z</time>
      </trkpt>
      <trkpt lat="42.796629751101136" lon="0.595782995223999">
        <ele>621.9320946746149</ele>
        <time>2021-08-02T20:35:26.827Z</time>
      </trkpt>
      <trkpt lat="42.79656529426575" lon="0.5957508087158203">
        <ele>622.2463901974699</ele>
        <time>2021-08-02T20:35:33.979Z</time>
      </trkpt>
      <trkpt lat="42.796425903216004" lon="0.5956435203552246">
        <ele>622.5639566274266</ele>
        <time>2021-08-02T20:35:41.134Z</time>
      </trkpt>
      <trkpt lat="42.79630780220032" lon="0.5955147743225098">
        <ele>622.8784579303152</ele>
        <time>2021-08-02T20:35:48.291Z</time>
      </trkpt>
      <trkpt lat="42.79591083526611" lon="0.5951070785522461">
        <ele>623.2634897359013</ele>
        <time>2021-08-02T20:35:55.456Z</time>
      </trkpt>
      <trkpt lat="42.79586800374091" lon="0.5950641632080078">
        <ele>623.5688844918338</ele>
        <time>2021-08-02T20:36:02.622Z</time>
      </trkpt>
      <trkpt lat="42.795664155855775" lon="0.5948817729949951">
        <ele>623.866918042939</ele>
        <time>2021-08-02T20:36:09.792Z</time>
      </trkpt>
      <trkpt lat="42.79566407203674" lon="0.5948817729949951">
        <ele>624.1728574685858</ele>
        <time>2021-08-02T20:36:16.962Z</time>
      </trkpt>
      <trkpt lat="42.79558905400336" lon="0.5948066711425781">
        <ele>624.4861832713864</ele>
        <time>2021-08-02T20:36:24.134Z</time>
      </trkpt>
      <trkpt lat="42.79529929161072" lon="0.5945277214050293">
        <ele>624.8081794330669</ele>
        <time>2021-08-02T20:36:31.311Z</time>
      </trkpt>
      <trkpt lat="42.79515981674194" lon="0.5943775177001953">
        <ele>625.1471563212172</ele>
        <time>2021-08-02T20:36:38.491Z</time>
      </trkpt>
      <trkpt lat="42.79506334103644" lon="0.5941951274871826">
        <ele>625.5148559441892</ele>
        <time>2021-08-02T20:36:45.674Z</time>
      </trkpt>
      <trkpt lat="42.79503107070923" lon="0.5940020084381104">
        <ele>625.9192824050717</ele>
        <time>2021-08-02T20:36:52.859Z</time>
      </trkpt>
      <trkpt lat="42.79499888420105" lon="0.5939054489135742">
        <ele>626.3353191746718</ele>
        <time>2021-08-02T20:37:00.045Z</time>
      </trkpt>
      <trkpt lat="42.79491305351257" lon="0.5937337875366211">
        <ele>626.8074002719575</ele>
        <time>2021-08-02T20:37:07.234Z</time>
      </trkpt>
      <trkpt lat="42.794880867004395" lon="0.5937016010284424">
        <ele>627.2724934090093</ele>
        <time>2021-08-02T20:37:14.423Z</time>
      </trkpt>
      <trkpt lat="42.794623374938965" lon="0.5931329727172852">
        <ele>627.9808687801363</ele>
        <time>2021-08-02T20:37:21.620Z</time>
      </trkpt>
      <trkpt lat="42.794387424364686" lon="0.5927467346191406">
        <ele>628.5380671608766</ele>
        <time>2021-08-02T20:37:28.823Z</time>
      </trkpt>
      <trkpt lat="42.79433378018439" lon="0.5926501750946045">
        <ele>629.0931271549825</ele>
        <time>2021-08-02T20:37:36.028Z</time>
      </trkpt>
      <trkpt lat="42.79382944107056" lon="0.5917274951934814">
        <ele>629.6625931921131</ele>
        <time>2021-08-02T20:37:43.246Z</time>
      </trkpt>
      <trkpt lat="42.79374361038208" lon="0.5914270877838135">
        <ele>630.2925693937881</ele>
        <time>2021-08-02T20:37:50.468Z</time>
      </trkpt>
      <trkpt lat="42.79372215270996" lon="0.5911695957183838">
        <ele>630.9848932506272</ele>
        <time>2021-08-02T20:37:57.693Z</time>
      </trkpt>
      <trkpt lat="42.79377579689026" lon="0.5906438827514648">
        <ele>631.8199036407382</ele>
        <time>2021-08-02T20:38:04.924Z</time>
      </trkpt>
      <trkpt lat="42.79378652572632" lon="0.5903542041778564">
        <ele>632.6654951019455</ele>
        <time>2021-08-02T20:38:12.159Z</time>
      </trkpt>
      <trkpt lat="42.79377579689026" lon="0.5900859832763672">
        <ele>633.5205027442844</ele>
        <time>2021-08-02T20:38:19.397Z</time>
      </trkpt>
      <trkpt lat="42.793604135513306" lon="0.5890023708343506">
        <ele>634.6044978119364</ele>
        <time>2021-08-02T20:38:26.648Z</time>
      </trkpt>
      <trkpt lat="42.79360421933234" lon="0.5890023708343506">
        <ele>635.6131134659876</ele>
        <time>2021-08-02T20:38:33.899Z</time>
      </trkpt>
      <trkpt lat="42.7935613039881" lon="0.5887019634246826">
        <ele>636.6925870256409</ele>
        <time>2021-08-02T20:38:41.153Z</time>
      </trkpt>
      <trkpt lat="42.79351838864386" lon="0.588219165802002">
        <ele>637.8681088380486</ele>
        <time>2021-08-02T20:38:48.413Z</time>
      </trkpt>
      <trkpt lat="42.79350757598877" lon="0.5881762504577637">
        <ele>639.1027787339083</ele>
        <time>2021-08-02T20:38:55.674Z</time>
      </trkpt>
      <trkpt lat="42.7935076598078" lon="0.5881762504577637">
        <ele>640.4246698640626</ele>
        <time>2021-08-02T20:39:02.935Z</time>
      </trkpt>
      <trkpt lat="42.79347538948059" lon="0.5878007411956787">
        <ele>641.906328976446</ele>
        <time>2021-08-02T20:39:10.200Z</time>
      </trkpt>
      <trkpt lat="42.79347547329962" lon="0.5878007411956787">
        <ele>643.4008577674701</ele>
        <time>2021-08-02T20:39:17.465Z</time>
      </trkpt>
      <trkpt lat="42.793378829956055" lon="0.5866849422454834">
        <ele>645.0363246156469</ele>
        <time>2021-08-02T20:39:24.743Z</time>
      </trkpt>
      <trkpt lat="42.793378829956055" lon="0.5865132808685303">
        <ele>646.7344313469781</ele>
        <time>2021-08-02T20:39:32.023Z</time>
      </trkpt>
      <trkpt lat="42.793400371447206" lon="0.5862665176391602">
        <ele>648.5572660797989</ele>
        <time>2021-08-02T20:39:39.306Z</time>
      </trkpt>
      <trkpt lat="42.79343247413635" lon="0.5861806869506836">
        <ele>650.4622699268621</ele>
        <time>2021-08-02T20:39:46.590Z</time>
      </trkpt>
      <trkpt lat="42.793432557955384" lon="0.5861806869506836">
        <ele>652.391674244197</ele>
        <time>2021-08-02T20:39:53.874Z</time>
      </trkpt>
      <trkpt lat="42.79348611831665" lon="0.5859875679016113">
        <ele>654.5069397606559</ele>
        <time>2021-08-02T20:40:01.161Z</time>
      </trkpt>
      <trkpt lat="42.79373288154602" lon="0.5852901935577393">
        <ele>657.1686940073243</ele>
        <time>2021-08-02T20:40:08.457Z</time>
      </trkpt>
      <trkpt lat="42.79391527175903" lon="0.5846786499023438">
        <ele>659.6555011747987</ele>
        <time>2021-08-02T20:40:15.761Z</time>
      </trkpt>
      <trkpt lat="42.79397964477539" lon="0.5842494964599609">
        <ele>662.077314805797</ele>
        <time>2021-08-02T20:40:23.070Z</time>
      </trkpt>
      <trkpt lat="42.79402256011963" lon="0.5837130546569824">
        <ele>664.4763437461347</ele>
        <time>2021-08-02T20:40:30.385Z</time>
      </trkpt>
      <trkpt lat="42.79405474662781" lon="0.5835199356079102">
        <ele>666.841707178804</ele>
        <time>2021-08-02T20:40:37.703Z</time>
      </trkpt>
      <trkpt lat="42.79419422149658" lon="0.5829942226409912">
        <ele>669.453705772543</ele>
        <time>2021-08-02T20:40:45.027Z</time>
      </trkpt>
      <trkpt lat="42.79422640800476" lon="0.5828118324279785">
        <ele>671.9108856476375</ele>
        <time>2021-08-02T20:40:52.353Z</time>
      </trkpt>
      <trkpt lat="42.79424786567688" lon="0.5826187133789062">
        <ele>674.4036233889879</ele>
        <time>2021-08-02T20:40:59.682Z</time>
      </trkpt>
      <trkpt lat="42.79425859451294" lon="0.5823397636413574">
        <ele>676.8853474648347</ele>
        <time>2021-08-02T20:41:07.014Z</time>
      </trkpt>
      <trkpt lat="42.79422640800476" lon="0.581202507019043">
        <ele>679.152910755514</ele>
        <time>2021-08-02T20:41:14.359Z</time>
      </trkpt>
      <trkpt lat="42.79423713684082" lon="0.5808913707733154">
        <ele>681.6994790496545</ele>
        <time>2021-08-02T20:41:21.708Z</time>
      </trkpt>
      <trkpt lat="42.79430150985718" lon="0.5803978443145752">
        <ele>684.3518294766102</ele>
        <time>2021-08-02T20:41:29.063Z</time>
      </trkpt>
      <trkpt lat="42.79436596669257" lon="0.5800652503967285">
        <ele>687.0393409250652</ele>
        <time>2021-08-02T20:41:36.422Z</time>
      </trkpt>
      <trkpt lat="42.79447317123413" lon="0.5795931816101074">
        <ele>689.7282403852181</ele>
        <time>2021-08-02T20:41:43.787Z</time>
      </trkpt>
      <trkpt lat="42.79456973075867" lon="0.5792713165283203">
        <ele>692.5618156815358</ele>
        <time>2021-08-02T20:41:51.156Z</time>
      </trkpt>
      <trkpt lat="42.794644832611084" lon="0.5791640281677246">
        <ele>695.3769514062518</ele>
        <time>2021-08-02T20:41:58.527Z</time>
      </trkpt>
      <trkpt lat="42.79478103853762" lon="0.5790005810558796">
        <ele>698.2526133119491</ele>
        <time>2021-08-02T20:42:05.901Z</time>
      </trkpt>
      <trkpt lat="42.79478112235665" lon="0.5790004134178162">
        <ele>701.051941222493</ele>
        <time>2021-08-02T20:42:13.275Z</time>
      </trkpt>
      <trkpt lat="42.79485949315131" lon="0.5789065361022949">
        <ele>703.9390818408884</ele>
        <time>2021-08-02T20:42:20.650Z</time>
      </trkpt>
      <trkpt lat="42.79500961303711" lon="0.5786705017089844">
        <ele>706.8765995396686</ele>
        <time>2021-08-02T20:42:28.029Z</time>
      </trkpt>
      <trkpt lat="42.79566407203674" lon="0.5774581432342529">
        <ele>710.4942214498903</ele>
        <time>2021-08-02T20:42:35.426Z</time>
      </trkpt>
      <trkpt lat="42.7957284450531" lon="0.577307939529419">
        <ele>713.4574498554302</ele>
        <time>2021-08-02T20:42:42.825Z</time>
      </trkpt>
      <trkpt lat="42.7957820892334" lon="0.5770933628082275">
        <ele>716.4119783168319</ele>
        <time>2021-08-02T20:42:50.226Z</time>
      </trkpt>
      <trkpt lat="42.79580354690552" lon="0.5769217014312744">
        <ele>719.2037315526325</ele>
        <time>2021-08-02T20:42:57.629Z</time>
      </trkpt>
      <trkpt lat="42.795857191085815" lon="0.5761706829071045">
        <ele>721.8029188847197</ele>
        <time>2021-08-02T20:43:05.041Z</time>
      </trkpt>
      <trkpt lat="42.79582500457764" lon="0.5757522583007812">
        <ele>724.7174701620334</ele>
        <time>2021-08-02T20:43:12.458Z</time>
      </trkpt>
      <trkpt lat="42.79602885246277" lon="0.5748510360717773">
        <ele>728.1205592589201</ele>
        <time>2021-08-02T20:43:19.886Z</time>
      </trkpt>
      <trkpt lat="42.7960289362818" lon="0.5748510360717773">
        <ele>730.9032583392669</ele>
        <time>2021-08-02T20:43:27.314Z</time>
      </trkpt>
      <trkpt lat="42.79631853103638" lon="0.5737459659576416">
        <ele>734.3233144162774</ele>
        <time>2021-08-02T20:43:34.756Z</time>
      </trkpt>
      <trkpt lat="42.79642581939697" lon="0.573188066482544">
        <ele>737.1522652616528</ele>
        <time>2021-08-02T20:43:42.205Z</time>
      </trkpt>
      <trkpt lat="42.79654383659363" lon="0.5723726749420166">
        <ele>740.0824566650078</ele>
        <time>2021-08-02T20:43:49.664Z</time>
      </trkpt>
      <trkpt lat="42.79655456542969" lon="0.5720829963684082">
        <ele>742.7333815071705</ele>
        <time>2021-08-02T20:43:57.126Z</time>
      </trkpt>
      <trkpt lat="42.79654383659363" lon="0.5717933177947998">
        <ele>745.2599569325444</ele>
        <time>2021-08-02T20:44:04.592Z</time>
      </trkpt>
      <trkpt lat="42.79645800590515" lon="0.5713856220245361">
        <ele>747.5733566210049</ele>
        <time>2021-08-02T20:44:12.063Z</time>
      </trkpt>
      <trkpt lat="42.79625415802002" lon="0.5707526206970215">
        <ele>749.7296916688103</ele>
        <time>2021-08-02T20:44:19.542Z</time>
      </trkpt>
      <trkpt lat="42.79620051383972" lon="0.5705702304840088">
        <ele>751.9882527888323</ele>
        <time>2021-08-02T20:44:27.023Z</time>
      </trkpt>
      <trkpt lat="42.79621124267578" lon="0.5703878402709961">
        <ele>754.2924088549746</ele>
        <time>2021-08-02T20:44:34.506Z</time>
      </trkpt>
      <trkpt lat="42.79627569951117" lon="0.570141077041626">
        <ele>756.652337724757</ele>
        <time>2021-08-02T20:44:41.992Z</time>
      </trkpt>
      <trkpt lat="42.7966833114624" lon="0.5687892436981201">
        <ele>758.7197278193197</ele>
        <time>2021-08-02T20:44:49.496Z</time>
      </trkpt>
      <trkpt lat="42.796790599823" lon="0.5685102939605713">
        <ele>760.7427085572608</ele>
        <time>2021-08-02T20:44:57.003Z</time>
      </trkpt>
      <trkpt lat="42.796897888183594" lon="0.5682849884033203">
        <ele>762.8300097145451</ele>
        <time>2021-08-02T20:45:04.513Z</time>
      </trkpt>
      <trkpt lat="42.79725193977356" lon="0.5676734447479248">
        <ele>765.0115804477155</ele>
        <time>2021-08-02T20:45:12.033Z</time>
      </trkpt>
      <trkpt lat="42.79741287231445" lon="0.5671584606170654">
        <ele>766.4676186656775</ele>
        <time>2021-08-02T20:45:19.559Z</time>
      </trkpt>
      <trkpt lat="42.79753088951111" lon="0.5668473243713379">
        <ele>768.1147832452376</ele>
        <time>2021-08-02T20:45:27.089Z</time>
      </trkpt>
      <trkpt lat="42.797638177871704" lon="0.5667293071746826">
        <ele>769.7690484563093</ele>
        <time>2021-08-02T20:45:34.621Z</time>
      </trkpt>
      <trkpt lat="42.79777765274048" lon="0.5666327476501465">
        <ele>771.4278844580932</ele>
        <time>2021-08-02T20:45:42.156Z</time>
      </trkpt>
      <trkpt lat="42.79791712760925" lon="0.5665791034698486">
        <ele>772.9775331186155</ele>
        <time>2021-08-02T20:45:49.693Z</time>
      </trkpt>
      <trkpt lat="42.798389196395874" lon="0.5666112899780273">
        <ele>774.7288372729929</ele>
        <time>2021-08-02T20:45:57.238Z</time>
      </trkpt>
      <trkpt lat="42.79891490936279" lon="0.5665147304534912">
        <ele>776.483458652157</ele>
        <time>2021-08-02T20:46:04.791Z</time>
      </trkpt>
      <trkpt lat="42.799097299575806" lon="0.5664503574371338">
        <ele>777.7518573975397</ele>
        <time>2021-08-02T20:46:12.347Z</time>
      </trkpt>
      <trkpt lat="42.79923677444458" lon="0.5663645267486572">
        <ele>778.9295195709001</ele>
        <time>2021-08-02T20:46:19.906Z</time>
      </trkpt>
      <trkpt lat="42.79952645301819" lon="0.5660855770111084">
        <ele>780.5006601243504</ele>
        <time>2021-08-02T20:46:27.471Z</time>
      </trkpt>
      <trkpt lat="42.80017018318176" lon="0.5655276775360107">
        <ele>780.7670878993608</ele>
        <time>2021-08-02T20:46:35.048Z</time>
      </trkpt>
      <trkpt lat="42.800384759902954" lon="0.5653989315032959">
        <ele>782.2690192475152</ele>
        <time>2021-08-02T20:46:42.628Z</time>
      </trkpt>
      <trkpt lat="42.80094274319708" lon="0.5651199817657471">
        <ele>783.5274452680936</ele>
        <time>2021-08-02T20:46:50.218Z</time>
      </trkpt>
      <trkpt lat="42.80111440457404" lon="0.5649912357330322">
        <ele>784.4430342435985</ele>
        <time>2021-08-02T20:46:57.811Z</time>
      </trkpt>
      <trkpt lat="42.80131816864014" lon="0.56479811668396">
        <ele>785.0132275574204</ele>
        <time>2021-08-02T20:47:05.408Z</time>
      </trkpt>
      <trkpt lat="42.80154347419739" lon="0.5645406246185303">
        <ele>785.8762204059691</ele>
        <time>2021-08-02T20:47:13.010Z</time>
      </trkpt>
      <trkpt lat="42.80253052711487" lon="0.5632424354553223">
        <ele>786.9058784818317</ele>
        <time>2021-08-02T20:47:20.634Z</time>
      </trkpt>
      <trkpt lat="42.8025306109339" lon="0.5632424354553223">
        <ele>787.8574471171253</ele>
        <time>2021-08-02T20:47:28.258Z</time>
      </trkpt>
      <trkpt lat="42.802584171295166" lon="0.5631780624389648">
        <ele>788.8368216736446</ele>
        <time>2021-08-02T20:47:35.883Z</time>
      </trkpt>
      <trkpt lat="42.8025842551142" lon="0.5631780624389648">
        <ele>789.783406963868</ele>
        <time>2021-08-02T20:47:43.508Z</time>
      </trkpt>
      <trkpt lat="42.80276664532721" lon="0.5629205703735352">
        <ele>790.953779725427</ele>
        <time>2021-08-02T20:47:51.137Z</time>
      </trkpt>
      <trkpt lat="42.802873849868774" lon="0.5627810955047607">
        <ele>792.100448752044</ele>
        <time>2021-08-02T20:47:58.769Z</time>
      </trkpt>
      <trkpt lat="42.803088426589966" lon="0.5623090267181396">
        <ele>793.1391884219559</ele>
        <time>2021-08-02T20:48:06.407Z</time>
      </trkpt>
      <trkpt lat="42.80319571495056" lon="0.5621480941772461">
        <ele>794.0329695142922</ele>
        <time>2021-08-02T20:48:14.048Z</time>
      </trkpt>
      <trkpt lat="42.8032922744751" lon="0.5620408058166504">
        <ele>794.9819129655725</ele>
        <time>2021-08-02T20:48:21.691Z</time>
      </trkpt>
      <trkpt lat="42.80341029167175" lon="0.5619978904724121">
        <ele>795.7361468848885</ele>
        <time>2021-08-02T20:48:29.336Z</time>
      </trkpt>
      <trkpt lat="42.80354976654053" lon="0.561976432800293">
        <ele>796.7855173875225</ele>
        <time>2021-08-02T20:48:36.983Z</time>
      </trkpt>
      <trkpt lat="42.80354985035956" lon="0.561976432800293">
        <ele>797.6453574574092</ele>
        <time>2021-08-02T20:48:44.630Z</time>
      </trkpt>
      <trkpt lat="42.80394673347473" lon="0.5619657039642334">
        <ele>798.9718190855159</ele>
        <time>2021-08-02T20:48:52.283Z</time>
      </trkpt>
      <trkpt lat="42.804096937179565" lon="0.5619227886199951">
        <ele>799.8336115845452</ele>
        <time>2021-08-02T20:48:59.939Z</time>
      </trkpt>
      <trkpt lat="42.80445098876953" lon="0.5617725849151611">
        <ele>800.7915107359308</ele>
        <time>2021-08-02T20:49:07.601Z</time>
      </trkpt>
      <trkpt lat="42.80481576919556" lon="0.5615472793579102">
        <ele>801.6033276911662</ele>
        <time>2021-08-02T20:49:15.269Z</time>
      </trkpt>
      <trkpt lat="42.80543804168701" lon="0.5611288547515869">
        <ele>802.5950878863248</ele>
        <time>2021-08-02T20:49:22.948Z</time>
      </trkpt>
      <trkpt lat="42.80578136444092" lon="0.5610430240631104">
        <ele>803.3642082402537</ele>
        <time>2021-08-02T20:49:30.633Z</time>
      </trkpt>
      <trkpt lat="42.806135416030884" lon="0.5610215663909912">
        <ele>804.0939995086817</ele>
        <time>2021-08-02T20:49:38.323Z</time>
      </trkpt>
      <trkpt lat="42.80623197555542" lon="0.5609679222106934">
        <ele>804.5361919445963</ele>
        <time>2021-08-02T20:49:46.015Z</time>
      </trkpt>
      <trkpt lat="42.80630716122687" lon="0.5608606338500977">
        <ele>804.8071323497634</ele>
        <time>2021-08-02T20:49:53.709Z</time>
      </trkpt>
      <trkpt lat="42.806339263916016" lon="0.5607640743255615">
        <ele>804.970275615578</ele>
        <time>2021-08-02T20:50:01.404Z</time>
      </trkpt>
      <trkpt lat="42.806339263916016" lon="0.5606460571289062">
        <ele>805.0136247883995</ele>
        <time>2021-08-02T20:50:09.100Z</time>
      </trkpt>
      <trkpt lat="42.80631789006293" lon="0.5605387687683105">
        <ele>804.9978026688092</ele>
        <time>2021-08-02T20:50:16.798Z</time>
      </trkpt>
      <trkpt lat="42.80625343322754" lon="0.5604207515716553">
        <ele>805.0975800895678</ele>
        <time>2021-08-02T20:50:24.497Z</time>
      </trkpt>
      <trkpt lat="42.806156873703" lon="0.5603134632110596">
        <ele>805.1907421696642</ele>
        <time>2021-08-02T20:50:32.198Z</time>
      </trkpt>
      <trkpt lat="42.80601739883423" lon="0.5602169036865234">
        <ele>805.2110038015644</ele>
        <time>2021-08-02T20:50:39.902Z</time>
      </trkpt>
      <trkpt lat="42.805824279785156" lon="0.5601310729980469">
        <ele>805.1737826636064</ele>
        <time>2021-08-02T20:50:47.609Z</time>
      </trkpt>
      <trkpt lat="42.8053092956543" lon="0.5600345134735107">
        <ele>805.015658256312</ele>
        <time>2021-08-02T20:50:55.324Z</time>
      </trkpt>
      <trkpt lat="42.805094718933105" lon="0.5600666999816895">
        <ele>804.958315030673</ele>
        <time>2021-08-02T20:51:03.043Z</time>
      </trkpt>
      <trkpt lat="42.80479431152344" lon="0.5603134632110596">
        <ele>804.5467716761432</ele>
        <time>2021-08-02T20:51:10.768Z</time>
      </trkpt>
      <trkpt lat="42.80470848083496" lon="0.5603241920471191">
        <ele>804.5585239443153</ele>
        <time>2021-08-02T20:51:18.494Z</time>
      </trkpt>
      <trkpt lat="42.8046441078186" lon="0.5602812767028809">
        <ele>804.6557638013572</ele>
        <time>2021-08-02T20:51:26.221Z</time>
      </trkpt>
      <trkpt lat="42.804611921310425" lon="0.5602169036865234">
        <ele>804.8478659326192</ele>
        <time>2021-08-02T20:51:33.949Z</time>
      </trkpt>
      <trkpt lat="42.804590463638306" lon="0.5601310729980469">
        <ele>805.127423474689</ele>
        <time>2021-08-02T20:51:41.678Z</time>
      </trkpt>
      <trkpt lat="42.804622650146484" lon="0.5600130558013916">
        <ele>805.5650161494597</ele>
        <time>2021-08-02T20:51:49.409Z</time>
      </trkpt>
      <trkpt lat="42.80466556549072" lon="0.5599594116210938">
        <ele>806.0872128103747</ele>
        <time>2021-08-02T20:51:57.140Z</time>
      </trkpt>
      <trkpt lat="42.80472993850708" lon="0.559927225112915">
        <ele>806.710377314872</ele>
        <time>2021-08-02T20:52:04.873Z</time>
      </trkpt>
      <trkpt lat="42.80492305755615" lon="0.5599164962768555">
        <ele>807.5619121625318</ele>
        <time>2021-08-02T20:52:12.609Z</time>
      </trkpt>
      <trkpt lat="42.80500888824463" lon="0.5598843097686768">
        <ele>808.3989633263702</ele>
        <time>2021-08-02T20:52:20.346Z</time>
      </trkpt>
      <trkpt lat="42.8052020072937" lon="0.5597233772277832">
        <ele>809.4421584847448</ele>
        <time>2021-08-02T20:52:28.087Z</time>
      </trkpt>
      <trkpt lat="42.805330753326416" lon="0.5596590042114258">
        <ele>810.4778598181622</ele>
        <time>2021-08-02T20:52:35.830Z</time>
      </trkpt>
      <trkpt lat="42.80548095703125" lon="0.5596375465393066">
        <ele>811.5761776609429</ele>
        <time>2021-08-02T20:52:43.575Z</time>
      </trkpt>
      <trkpt lat="42.80589938163757" lon="0.5596375465393066">
        <ele>812.9457434749347</ele>
        <time>2021-08-02T20:52:51.327Z</time>
      </trkpt>
      <trkpt lat="42.80601739883423" lon="0.5596590042114258">
        <ele>814.2061944699974</ele>
        <time>2021-08-02T20:52:59.081Z</time>
      </trkpt>
      <trkpt lat="42.806103229522705" lon="0.5596804618835449">
        <ele>815.5353628744682</ele>
        <time>2021-08-02T20:53:06.836Z</time>
      </trkpt>
      <trkpt lat="42.806328535079956" lon="0.5598306655883789">
        <ele>816.942202482141</ele>
        <time>2021-08-02T20:53:14.595Z</time>
      </trkpt>
      <trkpt lat="42.80645728111267" lon="0.5598735809326172">
        <ele>818.4756068656734</ele>
        <time>2021-08-02T20:53:22.356Z</time>
      </trkpt>
      <trkpt lat="42.80651092529297" lon="0.5598628520965576">
        <ele>820.099894779901</ele>
        <time>2021-08-02T20:53:30.118Z</time>
      </trkpt>
      <trkpt lat="42.80655384063721" lon="0.5598306655883789">
        <ele>821.8348831123969</ele>
        <time>2021-08-02T20:53:37.881Z</time>
      </trkpt>
      <trkpt lat="42.80655392445624" lon="0.5598306655883789">
        <ele>823.6028270724671</ele>
        <time>2021-08-02T20:53:45.644Z</time>
      </trkpt>
      <trkpt lat="42.806607484817505" lon="0.5597126483917236">
        <ele>825.6316479327577</ele>
        <time>2021-08-02T20:53:53.409Z</time>
      </trkpt>
      <trkpt lat="42.806607484817505" lon="0.5596268177032471">
        <ele>827.6924441294648</ele>
        <time>2021-08-02T20:54:01.175Z</time>
      </trkpt>
      <trkpt lat="42.806575298309326" lon="0.5595409870147705">
        <ele>829.8338186375343</ele>
        <time>2021-08-02T20:54:08.942Z</time>
      </trkpt>
      <trkpt lat="42.80652165412903" lon="0.5594658851623535">
        <ele>832.0552006285279</ele>
        <time>2021-08-02T20:54:16.710Z</time>
      </trkpt>
      <trkpt lat="42.80606031417847" lon="0.5593585968017578">
        <ele>834.084723468688</ele>
        <time>2021-08-02T20:54:24.486Z</time>
      </trkpt>
      <trkpt lat="42.8058135509491" lon="0.5592083930969238">
        <ele>836.411410853327</ele>
        <time>2021-08-02T20:54:32.266Z</time>
      </trkpt>
      <trkpt lat="42.80556678771973" lon="0.5589616298675537">
        <ele>838.8718080054713</ele>
        <time>2021-08-02T20:54:40.051Z</time>
      </trkpt>
      <trkpt lat="42.80552387237549" lon="0.5588865280151367">
        <ele>841.5104616034289</ele>
        <time>2021-08-02T20:54:47.837Z</time>
      </trkpt>
      <trkpt lat="42.80545949935913" lon="0.5587148666381836">
        <ele>844.2025860056754</ele>
        <time>2021-08-02T20:54:55.625Z</time>
      </trkpt>
      <trkpt lat="42.80545949935913" lon="0.5586075782775879">
        <ele>847.0334451685646</ele>
        <time>2021-08-02T20:55:03.414Z</time>
      </trkpt>
      <trkpt lat="42.80547022819519" lon="0.558403730392456">
        <ele>849.9967409831119</ele>
        <time>2021-08-02T20:55:11.206Z</time>
      </trkpt>
      <trkpt lat="42.80591011047363" lon="0.5568695068359375">
        <ele>854.1510062255379</ele>
        <time>2021-08-02T20:55:19.017Z</time>
      </trkpt>
      <trkpt lat="42.80596375465393" lon="0.5565690994262695">
        <ele>857.3880675724963</ele>
        <time>2021-08-02T20:55:26.832Z</time>
      </trkpt>
      <trkpt lat="42.80599594116211" lon="0.5561292171478271">
        <ele>860.5898581219141</ele>
        <time>2021-08-02T20:55:34.652Z</time>
      </trkpt>
      <trkpt lat="42.806092500686646" lon="0.5557215213775635">
        <ele>863.944453047846</ele>
        <time>2021-08-02T20:55:42.477Z</time>
      </trkpt>
      <trkpt lat="42.806103229522705" lon="0.5553460121154785">
        <ele>867.2687981668375</ele>
        <time>2021-08-02T20:55:50.307Z</time>
      </trkpt>
      <trkpt lat="42.806092500686646" lon="0.5548310279846191">
        <ele>870.6793120219136</ele>
        <time>2021-08-02T20:55:58.143Z</time>
      </trkpt>
      <trkpt lat="42.80603885650635" lon="0.5541443824768066">
        <ele>874.1485360002881</ele>
        <time>2021-08-02T20:56:05.987Z</time>
      </trkpt>
      <trkpt lat="42.80595302581787" lon="0.5534577369689941">
        <ele>877.560586665233</ele>
        <time>2021-08-02T20:56:13.839Z</time>
      </trkpt>
      <trkpt lat="42.80593156814575" lon="0.5529642105102539">
        <ele>881.059418545643</ele>
        <time>2021-08-02T20:56:21.697Z</time>
      </trkpt>
      <trkpt lat="42.80595302581787" lon="0.5525350570678711">
        <ele>884.8235852183843</ele>
        <time>2021-08-02T20:56:29.560Z</time>
      </trkpt>
      <trkpt lat="42.80597448348999" lon="0.5521810054779053">
        <ele>888.4729991517556</ele>
        <time>2021-08-02T20:56:37.427Z</time>
      </trkpt>
      <trkpt lat="42.80627489089966" lon="0.5501854419708252">
        <ele>892.455586472937</ele>
        <time>2021-08-02T20:56:45.318Z</time>
      </trkpt>
      <trkpt lat="42.8063178062439" lon="0.5498206615447998">
        <ele>895.8203086778981</ele>
        <time>2021-08-02T20:56:53.213Z</time>
      </trkpt>
      <trkpt lat="42.8063178062439" lon="0.5494987964630127">
        <ele>899.0723387291689</ele>
        <time>2021-08-02T20:57:01.112Z</time>
      </trkpt>
      <trkpt lat="42.80627489089966" lon="0.5486512184143066">
        <ele>902.2639000876379</ele>
        <time>2021-08-02T20:57:09.021Z</time>
      </trkpt>
      <trkpt lat="42.80628561973572" lon="0.5485224723815918">
        <ele>905.3773442234628</ele>
        <time>2021-08-02T20:57:16.932Z</time>
      </trkpt>
      <trkpt lat="42.8063178062439" lon="0.5483722686767578">
        <ele>908.4780969402063</ele>
        <time>2021-08-02T20:57:24.845Z</time>
      </trkpt>
      <trkpt lat="42.80648946762085" lon="0.5478894710540771">
        <ele>911.8967662762752</ele>
        <time>2021-08-02T20:57:32.764Z</time>
      </trkpt>
      <trkpt lat="42.80651092529297" lon="0.5477821826934814">
        <ele>914.8400067608441</ele>
        <time>2021-08-02T20:57:40.684Z</time>
      </trkpt>
      <trkpt lat="42.806575298309326" lon="0.5471062660217285">
        <ele>917.9277355703407</ele>
        <time>2021-08-02T20:57:48.612Z</time>
      </trkpt>
      <trkpt lat="42.806586027145386" lon="0.5466878414154053">
        <ele>920.6643137370665</ele>
        <time>2021-08-02T20:57:56.545Z</time>
      </trkpt>
      <trkpt lat="42.80658611096442" lon="0.5466127395629883">
        <ele>923.2827781673665</ele>
        <time>2021-08-02T20:58:04.479Z</time>
      </trkpt>
      <trkpt lat="42.80656456947327" lon="0.5463337898254395">
        <ele>925.7725316909599</ele>
        <time>2021-08-02T20:58:12.416Z</time>
      </trkpt>
      <trkpt lat="42.80645728111267" lon="0.5455183982849121">
        <ele>928.2399933630423</ele>
        <time>2021-08-02T20:58:20.363Z</time>
      </trkpt>
      <trkpt lat="42.8064573649317" lon="0.5454647541046143">
        <ele>930.6449499889118</ele>
        <time>2021-08-02T20:58:28.311Z</time>
      </trkpt>
      <trkpt lat="42.80646809376776" lon="0.5448317527770996">
        <ele>933.1829447310693</ele>
        <time>2021-08-02T20:58:36.266Z</time>
      </trkpt>
      <trkpt lat="42.806425178423524" lon="0.544348955154419">
        <ele>935.4375897013406</ele>
        <time>2021-08-02T20:58:44.227Z</time>
      </trkpt>
      <trkpt lat="42.80640363693237" lon="0.5441558361053467">
        <ele>937.631907359094</ele>
        <time>2021-08-02T20:58:52.190Z</time>
      </trkpt>
      <trkpt lat="42.80623197555542" lon="0.543297529220581">
        <ele>939.7226937294647</ele>
        <time>2021-08-02T20:59:00.164Z</time>
      </trkpt>
      <trkpt lat="42.80619978904724" lon="0.5430829524993896">
        <ele>941.8816471633957</ele>
        <time>2021-08-02T20:59:08.140Z</time>
      </trkpt>
      <trkpt lat="42.80617833137512" lon="0.5423212051391602">
        <ele>944.1895747125925</ele>
        <time>2021-08-02T20:59:16.125Z</time>
      </trkpt>
      <trkpt lat="42.80617833137512" lon="0.5414199829101562">
        <ele>946.4754166771954</ele>
        <time>2021-08-02T20:59:24.121Z</time>
      </trkpt>
      <trkpt lat="42.806178415194154" lon="0.5414199829101562">
        <ele>948.4486023875215</ele>
        <time>2021-08-02T20:59:32.117Z</time>
      </trkpt>
      <trkpt lat="42.8062105178833" lon="0.5409049987792969">
        <ele>950.4931470307843</ele>
        <time>2021-08-02T20:59:40.119Z</time>
      </trkpt>
      <trkpt lat="42.80625343322754" lon="0.5404329299926758">
        <ele>952.5135529822493</ele>
        <time>2021-08-02T20:59:48.127Z</time>
      </trkpt>
      <trkpt lat="42.80652165412903" lon="0.5385231971740723">
        <ele>954.7777841004589</ele>
        <time>2021-08-02T20:59:56.157Z</time>
      </trkpt>
      <trkpt lat="42.806607484817505" lon="0.5377399921417236">
        <ele>956.930063678999</ele>
        <time>2021-08-02T21:00:04.197Z</time>
      </trkpt>
      <trkpt lat="42.806596755981445" lon="0.5374395847320557">
        <ele>958.8438996682794</ele>
        <time>2021-08-02T21:00:12.240Z</time>
      </trkpt>
      <trkpt lat="42.80659683980048" lon="0.5374395847320557">
        <ele>960.7633565987068</ele>
        <time>2021-08-02T21:00:20.283Z</time>
      </trkpt>
      <trkpt lat="42.806607484817505" lon="0.5369138717651367">
        <ele>962.8129742345138</ele>
        <time>2021-08-02T21:00:28.333Z</time>
      </trkpt>
      <trkpt lat="42.806596755981445" lon="0.5364203453063965">
        <ele>964.8951798036278</ele>
        <time>2021-08-02T21:00:36.388Z</time>
      </trkpt>
      <trkpt lat="42.806607484817505" lon="0.5360448360443115">
        <ele>966.857261599408</ele>
        <time>2021-08-02T21:00:44.448Z</time>
      </trkpt>
      <trkpt lat="42.80672558583319" lon="0.535207986831665">
        <ele>968.8359848983326</ele>
        <time>2021-08-02T21:00:52.518Z</time>
      </trkpt>
      <trkpt lat="42.806822061538696" lon="0.5347895622253418">
        <ele>971.0702156330393</ele>
        <time>2021-08-02T21:01:00.593Z</time>
      </trkpt>
      <trkpt lat="42.806854248046875" lon="0.5345213413238525">
        <ele>973.2454988889051</ele>
        <time>2021-08-02T21:01:08.671Z</time>
      </trkpt>
      <trkpt lat="42.806865060701966" lon="0.5342531204223633">
        <ele>975.486705046349</ele>
        <time>2021-08-02T21:01:16.752Z</time>
      </trkpt>
      <trkpt lat="42.80681141652167" lon="0.5334484577178955">
        <ele>977.883010374974</ele>
        <time>2021-08-02T21:01:24.843Z</time>
      </trkpt>
      <trkpt lat="42.806832790374756" lon="0.5331051349639893">
        <ele>980.4459141375016</ele>
        <time>2021-08-02T21:01:32.938Z</time>
      </trkpt>
      <trkpt lat="42.806886434555054" lon="0.5328047275543213">
        <ele>983.0156429837391</ele>
        <time>2021-08-02T21:01:41.037Z</time>
      </trkpt>
      <trkpt lat="42.80694016255438" lon="0.5326008796691895">
        <ele>985.7037801709384</ele>
        <time>2021-08-02T21:01:49.138Z</time>
      </trkpt>
      <trkpt lat="42.8069616202265" lon="0.532536506652832">
        <ele>988.4525360869752</ele>
        <time>2021-08-02T21:01:57.240Z</time>
      </trkpt>
      <trkpt lat="42.80735858716071" lon="0.5306696891784668">
        <ele>991.9203266861684</ele>
        <time>2021-08-02T21:02:05.365Z</time>
      </trkpt>
      <trkpt lat="42.807369315996766" lon="0.5305624008178711">
        <ele>994.8995599139316</ele>
        <time>2021-08-02T21:02:13.491Z</time>
      </trkpt>
      <trkpt lat="42.807379961013794" lon="0.5303370952606201">
        <ele>998.0327289988061</ele>
        <time>2021-08-02T21:02:21.620Z</time>
      </trkpt>
      <trkpt lat="42.807369232177734" lon="0.5301976203918457">
        <ele>1001.213241312224</ele>
        <time>2021-08-02T21:02:29.750Z</time>
      </trkpt>
      <trkpt lat="42.807369315996766" lon="0.5301976203918457">
        <ele>1004.4763721115085</ele>
        <time>2021-08-02T21:02:37.880Z</time>
      </trkpt>
      <trkpt lat="42.80730485916138" lon="0.5296182632446289">
        <ele>1007.9412862592029</ele>
        <time>2021-08-02T21:02:46.017Z</time>
      </trkpt>
      <trkpt lat="42.80722975730896" lon="0.5292212963104248">
        <ele>1011.4877407914989</ele>
        <time>2021-08-02T21:02:54.159Z</time>
      </trkpt>
      <trkpt lat="42.807122468948364" lon="0.528867244720459">
        <ele>1015.1302408717229</ele>
        <time>2021-08-02T21:03:02.306Z</time>
      </trkpt>
      <trkpt lat="42.80703663825989" lon="0.5286204814910889">
        <ele>1018.8859457033832</ele>
        <time>2021-08-02T21:03:10.456Z</time>
      </trkpt>
      <trkpt lat="42.8067147731781" lon="0.5278587341308594">
        <ele>1022.9027068393934</ele>
        <time>2021-08-02T21:03:18.616Z</time>
      </trkpt>
      <trkpt lat="42.80656456947327" lon="0.5273652076721191">
        <ele>1026.8969393412415</ele>
        <time>2021-08-02T21:03:26.783Z</time>
      </trkpt>
      <trkpt lat="42.80609258450568" lon="0.5252730846405029">
        <ele>1031.4656418523248</ele>
        <time>2021-08-02T21:03:34.975Z</time>
      </trkpt>
      <trkpt lat="42.80606031417847" lon="0.5251121520996094">
        <ele>1035.4595276776631</ele>
        <time>2021-08-02T21:03:43.169Z</time>
      </trkpt>
      <trkpt lat="42.80603885650635" lon="0.5245649814605713">
        <ele>1039.6867581669703</ele>
        <time>2021-08-02T21:03:51.370Z</time>
      </trkpt>
      <trkpt lat="42.80606031417847" lon="0.5238997936248779">
        <ele>1044.0038443954509</ele>
        <time>2021-08-02T21:03:59.579Z</time>
      </trkpt>
      <trkpt lat="42.80604958534241" lon="0.523374080657959">
        <ele>1048.211442927919</ele>
        <time>2021-08-02T21:04:07.794Z</time>
      </trkpt>
      <trkpt lat="42.80595302581787" lon="0.5222046375274658">
        <ele>1052.7555506021138</ele>
        <time>2021-08-02T21:04:16.023Z</time>
      </trkpt>
      <trkpt lat="42.80596375465393" lon="0.5220329761505127">
        <ele>1056.7876425650675</ele>
        <time>2021-08-02T21:04:24.254Z</time>
      </trkpt>
      <trkpt lat="42.80598521232605" lon="0.5218720436096191">
        <ele>1060.7818573511554</ele>
        <time>2021-08-02T21:04:32.487Z</time>
      </trkpt>
      <trkpt lat="42.80603885650635" lon="0.5216681957244873">
        <ele>1064.7634395201824</ele>
        <time>2021-08-02T21:04:40.722Z</time>
      </trkpt>
      <trkpt lat="42.806360721588135" lon="0.5208420753479004">
        <ele>1069.1377326072638</ele>
        <time>2021-08-02T21:04:48.968Z</time>
      </trkpt>
      <trkpt lat="42.806618213653564" lon="0.5200159549713135">
        <ele>1073.3237138605482</ele>
        <time>2021-08-02T21:04:57.225Z</time>
      </trkpt>
      <trkpt lat="42.80673623085022" lon="0.5198335647583008">
        <ele>1077.1157402547979</ele>
        <time>2021-08-02T21:05:05.485Z</time>
      </trkpt>
      <trkpt lat="42.80689716339111" lon="0.5196726322174072">
        <ele>1080.8854517632471</ele>
        <time>2021-08-02T21:05:13.748Z</time>
      </trkpt>
      <trkpt lat="42.807122468948364" lon="0.5195438861846924">
        <ele>1084.6925816698936</ele>
        <time>2021-08-02T21:05:22.015Z</time>
      </trkpt>
      <trkpt lat="42.80731558799744" lon="0.5195116996765137">
        <ele>1088.291751064125</ele>
        <time>2021-08-02T21:05:30.285Z</time>
      </trkpt>
      <trkpt lat="42.80790567398071" lon="0.5195116996765137">
        <ele>1091.6977987419375</ele>
        <time>2021-08-02T21:05:38.564Z</time>
      </trkpt>
      <trkpt lat="42.80816316604614" lon="0.519479513168335">
        <ele>1094.9476859173726</ele>
        <time>2021-08-02T21:05:46.847Z</time>
      </trkpt>
      <trkpt lat="42.80825972557068" lon="0.5194258689880371">
        <ele>1098.0625250779267</ele>
        <time>2021-08-02T21:05:55.132Z</time>
      </trkpt>
      <trkpt lat="42.80825980938971" lon="0.5194258689880371">
        <ele>1101.048724186243</ele>
        <time>2021-08-02T21:06:03.417Z</time>
      </trkpt>
      <trkpt lat="42.808388471603394" lon="0.5193185806274414">
        <ele>1103.9602668508405</ele>
        <time>2021-08-02T21:06:11.704Z</time>
      </trkpt>
      <trkpt lat="42.80869969166815" lon="0.5188465118408203">
        <ele>1106.871671133168</ele>
        <time>2021-08-02T21:06:19.999Z</time>
      </trkpt>
      <trkpt lat="42.80874252319336" lon="0.5185568332672119">
        <ele>1109.6022745394534</ele>
        <time>2021-08-02T21:06:28.297Z</time>
      </trkpt>
      <trkpt lat="42.808839082717896" lon="0.5176126956939697">
        <ele>1112.5147440684723</ele>
        <time>2021-08-02T21:06:36.607Z</time>
      </trkpt>
      <trkpt lat="42.808839082717896" lon="0.5174088478088379">
        <ele>1115.0402933394607</ele>
        <time>2021-08-02T21:06:44.919Z</time>
      </trkpt>
      <trkpt lat="42.80866742134094" lon="0.5154240131378174">
        <ele>1117.8325839878657</ele>
        <time>2021-08-02T21:06:53.255Z</time>
      </trkpt>
      <trkpt lat="42.80864596366882" lon="0.5151772499084473">
        <ele>1120.163962315734</ele>
        <time>2021-08-02T21:07:01.593Z</time>
      </trkpt>
      <trkpt lat="42.808603048324585" lon="0.5151128768920898">
        <ele>1122.4438736058291</ele>
        <time>2021-08-02T21:07:09.932Z</time>
      </trkpt>
      <trkpt lat="42.8085280302912" lon="0.5150485038757324">
        <ele>1124.6591475063346</ele>
        <time>2021-08-02T21:07:18.273Z</time>
      </trkpt>
      <trkpt lat="42.80831345357001" lon="0.5149948596954346">
        <ele>1126.8444501048416</ele>
        <time>2021-08-02T21:07:26.617Z</time>
      </trkpt>
      <trkpt lat="42.80819535255432" lon="0.5148768424987793">
        <ele>1129.0786927343725</ele>
        <time>2021-08-02T21:07:34.964Z</time>
      </trkpt>
      <trkpt lat="42.80819543637335" lon="0.5148768424987793">
        <ele>1131.2444391463605</ele>
        <time>2021-08-02T21:07:43.311Z</time>
      </trkpt>
      <trkpt lat="42.80814170837402" lon="0.5147480964660645">
        <ele>1133.4165191983273</ele>
        <time>2021-08-02T21:07:51.659Z</time>
      </trkpt>
      <trkpt lat="42.808066606521606" lon="0.5144262313842773">
        <ele>1135.670172934695</ele>
        <time>2021-08-02T21:08:00.011Z</time>
      </trkpt>
      <trkpt lat="42.80804514884949" lon="0.5140829086303711">
        <ele>1137.9266405817714</ele>
        <time>2021-08-02T21:08:08.368Z</time>
      </trkpt>
      <trkpt lat="42.8082275390625" lon="0.5121946334838867">
        <ele>1140.6397316671882</ele>
        <time>2021-08-02T21:08:16.747Z</time>
      </trkpt>
      <trkpt lat="42.80821681022644" lon="0.5120015144348145">
        <ele>1142.8900273677446</ele>
        <time>2021-08-02T21:08:25.128Z</time>
      </trkpt>
      <trkpt lat="42.808130979537964" lon="0.5115830898284912">
        <ele>1145.2786545566282</ele>
        <time>2021-08-02T21:08:33.514Z</time>
      </trkpt>
      <trkpt lat="42.80804523266852" lon="0.5108535289764404">
        <ele>1147.7487125613466</ele>
        <time>2021-08-02T21:08:41.909Z</time>
      </trkpt>
      <trkpt lat="42.80800223350525" lon="0.5106282234191895">
        <ele>1150.0886082643817</ele>
        <time>2021-08-02T21:08:50.307Z</time>
      </trkpt>
      <trkpt lat="42.80772336758673" lon="0.509641170501709">
        <ele>1152.6402106890582</ele>
        <time>2021-08-02T21:08:58.717Z</time>
      </trkpt>
      <trkpt lat="42.80770182609558" lon="0.509566068649292">
        <ele>1155.0245785918653</ele>
        <time>2021-08-02T21:09:07.128Z</time>
      </trkpt>
      <trkpt lat="42.80770190991461" lon="0.509566068649292">
        <ele>1157.4562685380697</ele>
        <time>2021-08-02T21:09:15.539Z</time>
      </trkpt>
      <trkpt lat="42.80728340148926" lon="0.5079138278961182">
        <ele>1160.2729653419688</ele>
        <time>2021-08-02T21:09:23.971Z</time>
      </trkpt>
      <trkpt lat="42.80718684196472" lon="0.5074954032897949">
        <ele>1162.9729386398863</ele>
        <time>2021-08-02T21:09:32.408Z</time>
      </trkpt>
      <trkpt lat="42.80695080757141" lon="0.5058109760284424">
        <ele>1166.050185495239</ele>
        <time>2021-08-02T21:09:40.865Z</time>
      </trkpt>
      <trkpt lat="42.80695089139044" lon="0.5058109760284424">
        <ele>1168.7136788044745</ele>
        <time>2021-08-02T21:09:49.322Z</time>
      </trkpt>
      <trkpt lat="42.80683287419379" lon="0.5049312114715576">
        <ele>1171.7348210018622</ele>
        <time>2021-08-02T21:09:57.790Z</time>
      </trkpt>
      <trkpt lat="42.80677914619446" lon="0.5045449733734131">
        <ele>1174.6469797283244</ele>
        <time>2021-08-02T21:10:06.262Z</time>
      </trkpt>
      <trkpt lat="42.80677923001349" lon="0.5045449733734131">
        <ele>1177.5105039131217</ele>
        <time>2021-08-02T21:10:14.734Z</time>
      </trkpt>
      <trkpt lat="42.80673623085022" lon="0.5041158199310303">
        <ele>1180.5824027433541</ele>
        <time>2021-08-02T21:10:23.211Z</time>
      </trkpt>
      <trkpt lat="42.80665040016174" lon="0.5038154125213623">
        <ele>1183.713863113096</ele>
        <time>2021-08-02T21:10:31.692Z</time>
      </trkpt>
      <trkpt lat="42.80654311180115" lon="0.5035793781280518">
        <ele>1186.8917103294702</ele>
        <time>2021-08-02T21:10:40.176Z</time>
      </trkpt>
      <trkpt lat="42.8056526184082" lon="0.5026352405548096">
        <ele>1190.6961944449126</ele>
        <time>2021-08-02T21:10:48.679Z</time>
      </trkpt>
      <trkpt lat="42.80556678771973" lon="0.5025172233581543">
        <ele>1194.0315758728475</ele>
        <time>2021-08-02T21:10:57.183Z</time>
      </trkpt>
      <trkpt lat="42.80549168586731" lon="0.502324104309082">
        <ele>1197.4488135264978</ele>
        <time>2021-08-02T21:11:05.690Z</time>
      </trkpt>
      <trkpt lat="42.80547031201422" lon="0.5020773410797119">
        <ele>1200.9468315464142</ele>
        <time>2021-08-02T21:11:14.200Z</time>
      </trkpt>
      <trkpt lat="42.80548095703125" lon="0.5019485950469971">
        <ele>1204.5434817806085</ele>
        <time>2021-08-02T21:11:22.712Z</time>
      </trkpt>
      <trkpt lat="42.80556678771973" lon="0.5015730857849121">
        <ele>1208.2195611719753</ele>
        <time>2021-08-02T21:11:31.228Z</time>
      </trkpt>
      <trkpt lat="42.805663431063294" lon="0.5013155937194824">
        <ele>1211.9774629910858</ele>
        <time>2021-08-02T21:11:39.748Z</time>
      </trkpt>
      <trkpt lat="42.80577063560486" lon="0.5010366439819336">
        <ele>1215.9885025833096</ele>
        <time>2021-08-02T21:11:48.271Z</time>
      </trkpt>
      <trkpt lat="42.80577071942389" lon="0.5010366439819336">
        <ele>1220.0468080767132</ele>
        <time>2021-08-02T21:11:56.794Z</time>
      </trkpt>
      <trkpt lat="42.80655384063721" lon="0.4992985725402832">
        <ele>1224.9844611371689</ele>
        <time>2021-08-02T21:12:05.341Z</time>
      </trkpt>
      <trkpt lat="42.806607484817505" lon="0.4990410804748535">
        <ele>1229.357579575957</ele>
        <time>2021-08-02T21:12:13.891Z</time>
      </trkpt>
      <trkpt lat="42.806639671325684" lon="0.4980754852294922">
        <ele>1234.100180389069</ele>
        <time>2021-08-02T21:12:22.453Z</time>
      </trkpt>
      <trkpt lat="42.806618213653564" lon="0.4979038238525391">
        <ele>1238.7100957434895</ele>
        <time>2021-08-02T21:12:31.017Z</time>
      </trkpt>
      <trkpt lat="42.806586027145386" lon="0.4977428913116455">
        <ele>1243.4293850035872</ele>
        <time>2021-08-02T21:12:39.583Z</time>
      </trkpt>
      <trkpt lat="42.806371450424194" lon="0.4972386360168457">
        <ele>1248.4871322193349</ele>
        <time>2021-08-02T21:12:48.156Z</time>
      </trkpt>
      <trkpt lat="42.80630707740784" lon="0.4970347881317139">
        <ele>1253.5099495255736</ele>
        <time>2021-08-02T21:12:56.731Z</time>
      </trkpt>
      <trkpt lat="42.80627489089966" lon="0.4968202114105225">
        <ele>1258.622364466432</ele>
        <time>2021-08-02T21:13:05.309Z</time>
      </trkpt>
      <trkpt lat="42.80628561973572" lon="0.4965734481811523">
        <ele>1263.7913510057638</ele>
        <time>2021-08-02T21:13:13.890Z</time>
      </trkpt>
      <trkpt lat="42.80639290809631" lon="0.4952323436737061">
        <ele>1269.261824963623</ele>
        <time>2021-08-02T21:13:22.487Z</time>
      </trkpt>
      <trkpt lat="42.80656456947327" lon="0.4943525791168213">
        <ele>1274.7164914351706</ele>
        <time>2021-08-02T21:13:31.094Z</time>
      </trkpt>
      <trkpt lat="42.807133197784424" lon="0.4906940460205078">
        <ele>1281.3272935207704</ele>
        <time>2021-08-02T21:13:39.745Z</time>
      </trkpt>
      <trkpt lat="42.80739068984985" lon="0.4895460605621338">
        <ele>1286.9457065359757</ele>
        <time>2021-08-02T21:13:48.411Z</time>
      </trkpt>
      <trkpt lat="42.80743360519409" lon="0.4890847206115723">
        <ele>1292.578172887931</ele>
        <time>2021-08-02T21:13:57.082Z</time>
      </trkpt>
      <trkpt lat="42.80755162239075" lon="0.4884195327758789">
        <ele>1298.1621704835115</ele>
        <time>2021-08-02T21:14:05.761Z</time>
      </trkpt>
      <trkpt lat="42.807605266571045" lon="0.4879045486450195">
        <ele>1303.7619661283816</ele>
        <time>2021-08-02T21:14:14.446Z</time>
      </trkpt>
      <trkpt lat="42.807594537734985" lon="0.4864883422851562">
        <ele>1309.7280219087456</ele>
        <time>2021-08-02T21:14:23.148Z</time>
      </trkpt>
      <trkpt lat="42.807637453079224" lon="0.4854154586791992">
        <ele>1315.5273881310713</ele>
        <time>2021-08-02T21:14:31.863Z</time>
      </trkpt>
      <trkpt lat="42.807626724243164" lon="0.4844927787780762">
        <ele>1321.2127410807927</ele>
        <time>2021-08-02T21:14:40.588Z</time>
      </trkpt>
      <trkpt lat="42.807594537734985" lon="0.4841601848602295">
        <ele>1326.6556561421912</ele>
        <time>2021-08-02T21:14:49.317Z</time>
      </trkpt>
      <trkpt lat="42.80751943588257" lon="0.483773946762085">
        <ele>1332.0813057713062</ele>
        <time>2021-08-02T21:14:58.051Z</time>
      </trkpt>
      <trkpt lat="42.80745506286621" lon="0.4835271835327148">
        <ele>1337.3294198683197</ele>
        <time>2021-08-02T21:15:06.788Z</time>
      </trkpt>
      <trkpt lat="42.807326316833496" lon="0.4832053184509277">
        <ele>1342.569266388814</ele>
        <time>2021-08-02T21:15:15.529Z</time>
      </trkpt>
      <trkpt lat="42.8072190284729" lon="0.4830121994018555">
        <ele>1347.7343217098203</ele>
        <time>2021-08-02T21:15:24.273Z</time>
      </trkpt>
      <trkpt lat="42.80695080757141" lon="0.4825723171234131">
        <ele>1352.9586269045794</ele>
        <time>2021-08-02T21:15:33.024Z</time>
      </trkpt>
      <trkpt lat="42.80674695968628" lon="0.4822719097137451">
        <ele>1358.039267838851</ele>
        <time>2021-08-02T21:15:41.780Z</time>
      </trkpt>
      <trkpt lat="42.80618906021118" lon="0.4815530776977539">
        <ele>1363.0915740218113</ele>
        <time>2021-08-02T21:15:50.548Z</time>
      </trkpt>
      <trkpt lat="42.80526638031006" lon="0.4802227020263672">
        <ele>1368.1721005583806</ele>
        <time>2021-08-02T21:15:59.338Z</time>
      </trkpt>
      <trkpt lat="42.80519127845764" lon="0.4800403118133545">
        <ele>1372.7480474117806</ele>
        <time>2021-08-02T21:16:08.130Z</time>
      </trkpt>
      <trkpt lat="42.80505180358887" lon="0.479503870010376">
        <ele>1377.2011620779354</ele>
        <time>2021-08-02T21:16:16.929Z</time>
      </trkpt>
      <trkpt lat="42.804869413375854" lon="0.478978157043457">
        <ele>1381.7695626246987</ele>
        <time>2021-08-02T21:16:25.735Z</time>
      </trkpt>
      <trkpt lat="42.804633378982544" lon="0.4778730869293213">
        <ele>1386.2605210698543</ele>
        <time>2021-08-02T21:16:34.554Z</time>
      </trkpt>
      <trkpt lat="42.80452609062195" lon="0.4774975776672363">
        <ele>1390.3779087816893</ele>
        <time>2021-08-02T21:16:43.378Z</time>
      </trkpt>
      <trkpt lat="42.804107666015625" lon="0.4763925075531006">
        <ele>1394.6144932000088</ele>
        <time>2021-08-02T21:16:52.217Z</time>
      </trkpt>
      <trkpt lat="42.803893089294434" lon="0.4759311676025391">
        <ele>1398.4422025976628</ele>
        <time>2021-08-02T21:17:01.062Z</time>
      </trkpt>
      <trkpt lat="42.8037428855896" lon="0.4756844043731689">
        <ele>1402.1274009816614</ele>
        <time>2021-08-02T21:17:09.911Z</time>
      </trkpt>
      <trkpt lat="42.803603410720825" lon="0.4755020141601562">
        <ele>1405.664826831678</ele>
        <time>2021-08-02T21:17:18.763Z</time>
      </trkpt>
      <trkpt lat="42.80341029167175" lon="0.4752767086029053">
        <ele>1409.0604934962748</ele>
        <time>2021-08-02T21:17:27.619Z</time>
      </trkpt>
      <trkpt lat="42.80301332473755" lon="0.4748475551605225">
        <ele>1412.5031184780892</ele>
        <time>2021-08-02T21:17:36.483Z</time>
      </trkpt>
      <trkpt lat="42.80277729034424" lon="0.4745578765869141">
        <ele>1415.604800322566</ele>
        <time>2021-08-02T21:17:45.352Z</time>
      </trkpt>
      <trkpt lat="42.80243396759033" lon="0.4739570617675781">
        <ele>1418.5137300494162</ele>
        <time>2021-08-02T21:17:54.230Z</time>
      </trkpt>
      <trkpt lat="42.802337408065796" lon="0.4737210273742676">
        <ele>1421.0791520638113</ele>
        <time>2021-08-02T21:18:03.111Z</time>
      </trkpt>
      <trkpt lat="42.8022301197052" lon="0.4733240604400635">
        <ele>1423.3716864095504</ele>
        <time>2021-08-02T21:18:11.997Z</time>
      </trkpt>
      <trkpt lat="42.80215501785278" lon="0.4731416702270508">
        <ele>1425.6192298123951</ele>
        <time>2021-08-02T21:18:20.886Z</time>
      </trkpt>
      <trkpt lat="42.802079916000366" lon="0.4730236530303955">
        <ele>1427.7659890009527</ele>
        <time>2021-08-02T21:18:29.777Z</time>
      </trkpt>
      <trkpt lat="42.80171513557434" lon="0.4725730419158936">
        <ele>1430.2117267919248</ele>
        <time>2021-08-02T21:18:38.676Z</time>
      </trkpt>
      <trkpt lat="42.80171521939337" lon="0.4725730419158936">
        <ele>1432.0376999402706</ele>
        <time>2021-08-02T21:18:47.575Z</time>
      </trkpt>
      <trkpt lat="42.801618576049805" lon="0.4724228382110596">
        <ele>1433.7740956024472</ele>
        <time>2021-08-02T21:18:56.476Z</time>
      </trkpt>
      <trkpt lat="42.801618659868836" lon="0.4724228382110596">
        <ele>1435.3451987140631</ele>
        <time>2021-08-02T21:19:05.377Z</time>
      </trkpt>
      <trkpt lat="42.80153274536133" lon="0.4722082614898682">
        <ele>1436.8179132902492</ele>
        <time>2021-08-02T21:19:14.281Z</time>
      </trkpt>
      <trkpt lat="42.80144691467285" lon="0.4718434810638428">
        <ele>1438.269951212079</ele>
        <time>2021-08-02T21:19:23.189Z</time>
      </trkpt>
      <trkpt lat="42.80142545700073" lon="0.4715859889984131">
        <ele>1439.5346634989992</ele>
        <time>2021-08-02T21:19:32.100Z</time>
      </trkpt>
      <trkpt lat="42.80142545700073" lon="0.4712963104248047">
        <ele>1440.7211801694098</ele>
        <time>2021-08-02T21:19:41.015Z</time>
      </trkpt>
      <trkpt lat="42.801629304885864" lon="0.4704916477203369">
        <ele>1442.0863912580626</ele>
        <time>2021-08-02T21:19:49.940Z</time>
      </trkpt>
      <trkpt lat="42.80169367790222" lon="0.4700946807861328">
        <ele>1443.1729375828086</ele>
        <time>2021-08-02T21:19:58.870Z</time>
      </trkpt>
      <trkpt lat="42.80171513557434" lon="0.4695367813110352">
        <ele>1444.3638688610663</ele>
        <time>2021-08-02T21:20:07.806Z</time>
      </trkpt>
      <trkpt lat="42.80179023742676" lon="0.4692471027374268">
        <ele>1445.4625981960642</ele>
        <time>2021-08-02T21:20:16.746Z</time>
      </trkpt>
      <trkpt lat="42.801843881607056" lon="0.4691505432128906">
        <ele>1446.3761222729681</ele>
        <time>2021-08-02T21:20:25.687Z</time>
      </trkpt>
      <trkpt lat="42.80190825462341" lon="0.4690754413604736">
        <ele>1447.2336102273198</ele>
        <time>2021-08-02T21:20:34.630Z</time>
      </trkpt>
      <trkpt lat="42.802358865737915" lon="0.4689145088195801">
        <ele>1447.9287620126202</ele>
        <time>2021-08-02T21:20:43.580Z</time>
      </trkpt>
      <trkpt lat="42.80249834060669" lon="0.4688823223114014">
        <ele>1448.6966865911659</ele>
        <time>2021-08-02T21:20:52.532Z</time>
      </trkpt>
      <trkpt lat="42.80297040939331" lon="0.4689145088195801">
        <ele>1449.7361006424458</ele>
        <time>2021-08-02T21:21:01.492Z</time>
      </trkpt>
      <trkpt lat="42.803099155426025" lon="0.4689574241638184">
        <ele>1450.6137928462795</ele>
        <time>2021-08-02T21:21:10.454Z</time>
      </trkpt>
      <trkpt lat="42.803356647491455" lon="0.4690754413604736">
        <ele>1451.4856079530878</ele>
        <time>2021-08-02T21:21:19.420Z</time>
      </trkpt>
      <trkpt lat="42.80346393585205" lon="0.4691505432128906">
        <ele>1452.3839056688685</ele>
        <time>2021-08-02T21:21:28.388Z</time>
      </trkpt>
      <trkpt lat="42.80353903770447" lon="0.469214916229248">
        <ele>1453.3307836479685</ele>
        <time>2021-08-02T21:21:37.358Z</time>
      </trkpt>
      <trkpt lat="42.803624868392944" lon="0.4693329334259033">
        <ele>1454.2535220445407</ele>
        <time>2021-08-02T21:21:46.330Z</time>
      </trkpt>
      <trkpt lat="42.80371069908142" lon="0.4694831371307373">
        <ele>1455.1930642668176</ele>
        <time>2021-08-02T21:21:55.304Z</time>
      </trkpt>
      <trkpt lat="42.80377507209778" lon="0.4695475101470947">
        <ele>1456.365206167849</ele>
        <time>2021-08-02T21:22:04.279Z</time>
      </trkpt>
      <trkpt lat="42.803860902786255" lon="0.4695367813110352">
        <ele>1457.806820141578</ele>
        <time>2021-08-02T21:22:13.255Z</time>
      </trkpt>
      <trkpt lat="42.80390381813049" lon="0.4694616794586182">
        <ele>1459.4273011143273</ele>
        <time>2021-08-02T21:22:22.233Z</time>
      </trkpt>
      <trkpt lat="42.803882360458374" lon="0.4693543910980225">
        <ele>1461.1414810131919</ele>
        <time>2021-08-02T21:22:31.212Z</time>
      </trkpt>
      <trkpt lat="42.80303478240967" lon="0.4683566093444824">
        <ele>1463.411056648643</ele>
        <time>2021-08-02T21:22:40.209Z</time>
      </trkpt>
      <trkpt lat="42.80254125595093" lon="0.4676699638366699">
        <ele>1465.5333631404233</ele>
        <time>2021-08-02T21:22:49.217Z</time>
      </trkpt>
      <trkpt lat="42.802358865737915" lon="0.4675090312957764">
        <ele>1467.5564790694934</ele>
        <time>2021-08-02T21:22:58.229Z</time>
      </trkpt>
      <trkpt lat="42.802122831344604" lon="0.4673373699188232">
        <ele>1469.6724574723903</ele>
        <time>2021-08-02T21:23:07.245Z</time>
      </trkpt>
      <trkpt lat="42.80203700065613" lon="0.4673159122467041">
        <ele>1471.703829708102</ele>
        <time>2021-08-02T21:23:16.262Z</time>
      </trkpt>
      <trkpt lat="42.80173659324646" lon="0.4673159122467041">
        <ele>1473.829021996531</ele>
        <time>2021-08-02T21:23:25.284Z</time>
      </trkpt>
      <trkpt lat="42.80168294906616" lon="0.4673051834106445">
        <ele>1476.1087777690896</ele>
        <time>2021-08-02T21:23:34.307Z</time>
      </trkpt>
      <trkpt lat="42.801640033721924" lon="0.4672515392303467">
        <ele>1478.5196640474855</ele>
        <time>2021-08-02T21:23:43.331Z</time>
      </trkpt>
      <trkpt lat="42.801618576049805" lon="0.4671978950500488">
        <ele>1481.0113727931796</ele>
        <time>2021-08-02T21:23:52.356Z</time>
      </trkpt>
      <trkpt lat="42.801618576049805" lon="0.4671227931976318">
        <ele>1483.5943401875927</ele>
        <time>2021-08-02T21:24:01.382Z</time>
      </trkpt>
      <trkpt lat="42.80165076255798" lon="0.4670155048370361">
        <ele>1486.2788419264039</ele>
        <time>2021-08-02T21:24:10.409Z</time>
      </trkpt>
      <trkpt lat="42.80170440673828" lon="0.4669725894927979">
        <ele>1489.0121642308368</ele>
        <time>2021-08-02T21:24:19.437Z</time>
      </trkpt>
      <trkpt lat="42.80175805091858" lon="0.4669618606567383">
        <ele>1491.8704864273986</ele>
        <time>2021-08-02T21:24:28.466Z</time>
      </trkpt>
      <trkpt lat="42.80198335647583" lon="0.466994047164917">
        <ele>1494.884559130233</ele>
        <time>2021-08-02T21:24:37.498Z</time>
      </trkpt>
      <trkpt lat="42.80229449272156" lon="0.4671013355255127">
        <ele>1497.976292130692</ele>
        <time>2021-08-02T21:24:46.536Z</time>
      </trkpt>
      <trkpt lat="42.802584171295166" lon="0.4672408103942871">
        <ele>1501.094901729618</ele>
        <time>2021-08-02T21:24:55.578Z</time>
      </trkpt>
      <trkpt lat="42.80282020568848" lon="0.4673910140991211">
        <ele>1504.399299494544</ele>
        <time>2021-08-02T21:25:04.625Z</time>
      </trkpt>
      <trkpt lat="42.80396819114685" lon="0.4682064056396484">
        <ele>1508.034365464587</ele>
        <time>2021-08-02T21:25:13.692Z</time>
      </trkpt>
      <trkpt lat="42.80446171760559" lon="0.4686141014099121">
        <ele>1511.1824769759373</ele>
        <time>2021-08-02T21:25:22.769Z</time>
      </trkpt>
      <trkpt lat="42.804611921310425" lon="0.4688072204589844">
        <ele>1514.3682740586246</ele>
        <time>2021-08-02T21:25:31.849Z</time>
      </trkpt>
      <trkpt lat="42.8046977519989" lon="0.4688179492950439">
        <ele>1517.9577828861802</ele>
        <time>2021-08-02T21:25:40.930Z</time>
      </trkpt>
      <trkpt lat="42.8047513961792" lon="0.4687857627868652">
        <ele>1521.6734899412486</ele>
        <time>2021-08-02T21:25:50.012Z</time>
      </trkpt>
      <trkpt lat="42.80476212501526" lon="0.468742847442627">
        <ele>1525.4276782341599</ele>
        <time>2021-08-02T21:25:59.095Z</time>
      </trkpt>
      <trkpt lat="42.8047513961792" lon="0.4686462879180908">
        <ele>1529.3044081365324</ele>
        <time>2021-08-02T21:26:08.179Z</time>
      </trkpt>
      <trkpt lat="42.80470848083496" lon="0.468592643737793">
        <ele>1533.0778601394536</ele>
        <time>2021-08-02T21:26:17.264Z</time>
      </trkpt>
      <trkpt lat="42.80450463294983" lon="0.4684209823608398">
        <ele>1536.9744191361715</ele>
        <time>2021-08-02T21:26:26.353Z</time>
      </trkpt>
      <trkpt lat="42.804386615753174" lon="0.4683029651641846">
        <ele>1540.771603817861</ele>
        <time>2021-08-02T21:26:35.444Z</time>
      </trkpt>
      <trkpt lat="42.803871631622314" lon="0.4676270484924316">
        <ele>1544.8750411400838</ele>
        <time>2021-08-02T21:26:44.546Z</time>
      </trkpt>
      <trkpt lat="42.80315279960632" lon="0.4665863513946533">
        <ele>1548.7897210713236</ele>
        <time>2021-08-02T21:26:53.665Z</time>
      </trkpt>
      <trkpt lat="42.80306696891785" lon="0.4664254188537598">
        <ele>1552.215730768106</ele>
        <time>2021-08-02T21:27:02.787Z</time>
      </trkpt>
      <trkpt lat="42.80294895172119" lon="0.4661142826080322">
        <ele>1555.5154435133088</ele>
        <time>2021-08-02T21:27:11.913Z</time>
      </trkpt>
      <trkpt lat="42.80276656150818" lon="0.4654920101165771">
        <ele>1558.7983518035805</ele>
        <time>2021-08-02T21:27:21.047Z</time>
      </trkpt>
      <trkpt lat="42.80251979827881" lon="0.464397668838501">
        <ele>1562.3566003745366</ele>
        <time>2021-08-02T21:27:30.194Z</time>
      </trkpt>
      <trkpt lat="42.802391136065125" lon="0.4639685153961182">
        <ele>1565.184738133043</ele>
        <time>2021-08-02T21:27:39.347Z</time>
      </trkpt>
      <trkpt lat="42.802348136901855" lon="0.463796854019165">
        <ele>1567.496006080808</ele>
        <time>2021-08-02T21:27:48.502Z</time>
      </trkpt>
      <trkpt lat="42.802326679229736" lon="0.4636251926422119">
        <ele>1569.5167767624243</ele>
        <time>2021-08-02T21:27:57.659Z</time>
      </trkpt>
      <trkpt lat="42.80231595039368" lon="0.4631638526916504">
        <ele>1571.2962058902326</ele>
        <time>2021-08-02T21:28:06.821Z</time>
      </trkpt>
      <trkpt lat="42.80225166119635" lon="0.4623055458068848">
        <ele>1572.6038312000805</ele>
        <time>2021-08-02T21:28:15.993Z</time>
      </trkpt>
      <trkpt lat="42.80225166119635" lon="0.4622948169708252">
        <ele>1573.3582316490483</ele>
        <time>2021-08-02T21:28:25.165Z</time>
      </trkpt>
      <trkpt lat="42.80220874585211" lon="0.4618871212005615">
        <ele>1573.5937874020244</ele>
        <time>2021-08-02T21:28:34.342Z</time>
      </trkpt>
      <trkpt lat="42.802176559343934" lon="0.461575984954834">
        <ele>1573.5107781932224</ele>
        <time>2021-08-02T21:28:43.523Z</time>
      </trkpt>
      <trkpt lat="42.80206927098334" lon="0.4605996608734131">
        <ele>1573.1367386564932</ele>
        <time>2021-08-02T21:28:52.716Z</time>
      </trkpt>
      <trkpt lat="42.80189752578735" lon="0.4592692852020264">
        <ele>1571.7835845594916</ele>
        <time>2021-08-02T21:29:01.925Z</time>
      </trkpt>
      <trkpt lat="42.801897609606385" lon="0.4592692852020264">
        <ele>1570.6058211521404</ele>
        <time>2021-08-02T21:29:11.134Z</time>
      </trkpt>
      <trkpt lat="42.80182242393494" lon="0.4580676555633545">
        <ele>1568.349351245272</ele>
        <time>2021-08-02T21:29:20.357Z</time>
      </trkpt>
      <trkpt lat="42.80179023742676" lon="0.4577779769897461">
        <ele>1566.3251704899299</ele>
        <time>2021-08-02T21:29:29.583Z</time>
      </trkpt>
      <trkpt lat="42.8017258644104" lon="0.457381010055542">
        <ele>1563.8477910901233</ele>
        <time>2021-08-02T21:29:38.814Z</time>
      </trkpt>
      <trkpt lat="42.80171513557434" lon="0.4570591449737549">
        <ele>1561.1951025948983</ele>
        <time>2021-08-02T21:29:48.049Z</time>
      </trkpt>
      <trkpt lat="42.801833152770996" lon="0.4561150074005127">
        <ele>1558.1703425390772</ele>
        <time>2021-08-02T21:29:57.295Z</time>
      </trkpt>
      <trkpt lat="42.80189752578735" lon="0.4552030563354492">
        <ele>1554.5348604506194</ele>
        <time>2021-08-02T21:30:06.552Z</time>
      </trkpt>
      <trkpt lat="42.80200481414795" lon="0.4546451568603516">
        <ele>1551.1300848920014</ele>
        <time>2021-08-02T21:30:15.816Z</time>
      </trkpt>
      <trkpt lat="42.80203700065613" lon="0.4544520378112793">
        <ele>1547.5727790330686</ele>
        <time>2021-08-02T21:30:25.082Z</time>
      </trkpt>
      <trkpt lat="42.80203700065613" lon="0.4538083076477051">
        <ele>1543.4741922745015</ele>
        <time>2021-08-02T21:30:34.356Z</time>
      </trkpt>
      <trkpt lat="42.80206918716431" lon="0.4533684253692627">
        <ele>1539.5125674465983</ele>
        <time>2021-08-02T21:30:43.635Z</time>
      </trkpt>
      <trkpt lat="42.802101373672485" lon="0.4532182216644287">
        <ele>1535.3890299433692</ele>
        <time>2021-08-02T21:30:52.916Z</time>
      </trkpt>
      <trkpt lat="42.80231595039368" lon="0.4527783393859863">
        <ele>1531.2300924140109</ele>
        <time>2021-08-02T21:31:02.203Z</time>
      </trkpt>
      <trkpt lat="42.802348136901855" lon="0.4526603221893311">
        <ele>1526.8888086776196</ele>
        <time>2021-08-02T21:31:11.491Z</time>
      </trkpt>
      <trkpt lat="42.802358865737915" lon="0.4524886608123779">
        <ele>1522.389998262996</ele>
        <time>2021-08-02T21:31:20.781Z</time>
      </trkpt>
      <trkpt lat="42.80231595039368" lon="0.4521024227142334">
        <ele>1517.634030600831</ele>
        <time>2021-08-02T21:31:30.076Z</time>
      </trkpt>
      <trkpt lat="42.80231595039368" lon="0.4514157772064209">
        <ele>1512.990736744835</ele>
        <time>2021-08-02T21:31:39.379Z</time>
      </trkpt>
      <trkpt lat="42.80218720436096" lon="0.4505681991577148">
        <ele>1508.0047202158507</ele>
        <time>2021-08-02T21:31:48.692Z</time>
      </trkpt>
      <trkpt lat="42.802144289016724" lon="0.4503965377807617">
        <ele>1503.2800159475605</ele>
        <time>2021-08-02T21:31:58.007Z</time>
      </trkpt>
      <trkpt lat="42.80191898345947" lon="0.4496884346008301">
        <ele>1498.1400050742793</ele>
        <time>2021-08-02T21:32:07.331Z</time>
      </trkpt>
      <trkpt lat="42.801833152770996" lon="0.449291467666626">
        <ele>1493.3706068027527</ele>
        <time>2021-08-02T21:32:16.660Z</time>
      </trkpt>
      <trkpt lat="42.80182242393494" lon="0.4490339756011963">
        <ele>1488.8108226056756</ele>
        <time>2021-08-02T21:32:25.992Z</time>
      </trkpt>
      <trkpt lat="42.80182242393494" lon="0.4488193988800049">
        <ele>1484.3252931255377</ele>
        <time>2021-08-02T21:32:35.327Z</time>
      </trkpt>
      <trkpt lat="42.80196189880371" lon="0.4468452930450439">
        <ele>1479.4079233964542</ele>
        <time>2021-08-02T21:32:44.685Z</time>
      </trkpt>
      <trkpt lat="42.80198335647583" lon="0.4461264610290527">
        <ele>1474.7651129494575</ele>
        <time>2021-08-02T21:32:54.052Z</time>
      </trkpt>
      <trkpt lat="42.80202627182007" lon="0.4454934597015381">
        <ele>1470.2082773912987</ele>
        <time>2021-08-02T21:33:03.426Z</time>
      </trkpt>
      <trkpt lat="42.80203700065613" lon="0.4447424411773682">
        <ele>1465.6078769132114</ele>
        <time>2021-08-02T21:33:12.809Z</time>
      </trkpt>
      <trkpt lat="42.80205845832825" lon="0.4445171356201172">
        <ele>1461.5210239035416</ele>
        <time>2021-08-02T21:33:22.195Z</time>
      </trkpt>
      <trkpt lat="42.802122831344604" lon="0.4442381858825684">
        <ele>1457.6744897239255</ele>
        <time>2021-08-02T21:33:31.584Z</time>
      </trkpt>
      <trkpt lat="42.802133560180664" lon="0.4441094398498535">
        <ele>1453.8686762188017</ele>
        <time>2021-08-02T21:33:40.975Z</time>
      </trkpt>
      <trkpt lat="42.802090644836426" lon="0.4439699649810791">
        <ele>1450.1111671207418</ele>
        <time>2021-08-02T21:33:50.367Z</time>
      </trkpt>
      <trkpt lat="42.80203700065613" lon="0.4438519477844238">
        <ele>1446.4422072648072</ele>
        <time>2021-08-02T21:33:59.761Z</time>
      </trkpt>
      <trkpt lat="42.80171513557434" lon="0.443272590637207">
        <ele>1442.5687606006659</ele>
        <time>2021-08-02T21:34:09.164Z</time>
      </trkpt>
      <trkpt lat="42.80166149139404" lon="0.4431331157684326">
        <ele>1439.1059449574504</ele>
        <time>2021-08-02T21:34:18.569Z</time>
      </trkpt>
      <trkpt lat="42.801618576049805" lon="0.4429829120635986">
        <ele>1435.755450687109</ele>
        <time>2021-08-02T21:34:27.975Z</time>
      </trkpt>
      <trkpt lat="42.80153274536133" lon="0.4424571990966797">
        <ele>1432.327631733824</ele>
        <time>2021-08-02T21:34:37.388Z</time>
      </trkpt>
      <trkpt lat="42.80147910118103" lon="0.4420280456542969">
        <ele>1429.134919163312</ele>
        <time>2021-08-02T21:34:46.806Z</time>
      </trkpt>
      <trkpt lat="42.80142545700073" lon="0.4418456554412842">
        <ele>1426.0595864161012</ele>
        <time>2021-08-02T21:34:56.226Z</time>
      </trkpt>
      <trkpt lat="42.801371896639466" lon="0.4417061805725098">
        <ele>1423.0567012466436</ele>
        <time>2021-08-02T21:35:05.648Z</time>
      </trkpt>
      <trkpt lat="42.80121088027954" lon="0.4414272308349609">
        <ele>1419.993858716116</ele>
        <time>2021-08-02T21:35:15.074Z</time>
      </trkpt>
      <trkpt lat="42.801146507263184" lon="0.4412877559661865">
        <ele>1417.1490860798244</ele>
        <time>2021-08-02T21:35:24.502Z</time>
      </trkpt>
      <trkpt lat="42.801103591918945" lon="0.4410946369171143">
        <ele>1414.4025496525753</ele>
        <time>2021-08-02T21:35:33.933Z</time>
      </trkpt>
      <trkpt lat="42.801092863082886" lon="0.4404079914093018">
        <ele>1411.7912079104892</ele>
        <time>2021-08-02T21:35:43.372Z</time>
      </trkpt>
      <trkpt lat="42.80107140541077" lon="0.4401826858520508">
        <ele>1409.1855954935768</ele>
        <time>2021-08-02T21:35:52.813Z</time>
      </trkpt>
      <trkpt lat="42.80097484588623" lon="0.4396140575408936">
        <ele>1406.436390862477</ele>
        <time>2021-08-02T21:36:02.261Z</time>
      </trkpt>
      <trkpt lat="42.80091047286987" lon="0.4387235641479492">
        <ele>1403.7204549267576</ele>
        <time>2021-08-02T21:36:11.720Z</time>
      </trkpt>
      <trkpt lat="42.80089974403381" lon="0.4375004768371582">
        <ele>1401.1026683982466</ele>
        <time>2021-08-02T21:36:21.193Z</time>
      </trkpt>
      <trkpt lat="42.800856828689575" lon="0.43670654296875">
        <ele>1398.7133220078397</ele>
        <time>2021-08-02T21:36:30.676Z</time>
      </trkpt>
      <trkpt lat="42.80086764134467" lon="0.4364275932312012">
        <ele>1396.4719347334526</ele>
        <time>2021-08-02T21:36:40.162Z</time>
      </trkpt>
      <trkpt lat="42.801082134246826" lon="0.4353117942810059">
        <ele>1394.2344660917915</ele>
        <time>2021-08-02T21:36:49.661Z</time>
      </trkpt>
      <trkpt lat="42.80117869377136" lon="0.4344642162322998">
        <ele>1391.9679795664028</ele>
        <time>2021-08-02T21:36:59.170Z</time>
      </trkpt>
      <trkpt lat="42.801361083984375" lon="0.4333162307739258">
        <ele>1389.7527864549606</ele>
        <time>2021-08-02T21:37:08.693Z</time>
      </trkpt>
      <trkpt lat="42.801393354311585" lon="0.4327690601348877">
        <ele>1387.6074428368067</ele>
        <time>2021-08-02T21:37:18.223Z</time>
      </trkpt>
      <trkpt lat="42.801393270492554" lon="0.432286262512207">
        <ele>1385.4637668355178</ele>
        <time>2021-08-02T21:37:27.758Z</time>
      </trkpt>
      <trkpt lat="42.80141472816467" lon="0.4317927360534668">
        <ele>1383.4208783544068</ele>
        <time>2021-08-02T21:37:37.299Z</time>
      </trkpt>
      <trkpt lat="42.80147910118103" lon="0.431363582611084">
        <ele>1381.3006362615238</ele>
        <time>2021-08-02T21:37:46.845Z</time>
      </trkpt>
      <trkpt lat="42.80153274536133" lon="0.4311704635620117">
        <ele>1379.3474670228252</ele>
        <time>2021-08-02T21:37:56.394Z</time>
      </trkpt>
      <trkpt lat="42.801618576049805" lon="0.4309666156768799">
        <ele>1377.236063061615</ele>
        <time>2021-08-02T21:38:05.946Z</time>
      </trkpt>
      <trkpt lat="42.8017795085907" lon="0.4303979873657227">
        <ele>1375.023972724317</ele>
        <time>2021-08-02T21:38:15.505Z</time>
      </trkpt>
      <trkpt lat="42.80180096626282" lon="0.43021559715271">
        <ele>1372.9669361117997</ele>
        <time>2021-08-02T21:38:25.066Z</time>
      </trkpt>
      <trkpt lat="42.80180096626282" lon="0.4300546646118164">
        <ele>1370.8553591936166</ele>
        <time>2021-08-02T21:38:34.629Z</time>
      </trkpt>
      <trkpt lat="42.8017795085907" lon="0.4295933246612549">
        <ele>1368.6079175473176</ele>
        <time>2021-08-02T21:38:44.197Z</time>
      </trkpt>
      <trkpt lat="42.801833152770996" lon="0.4289925098419189">
        <ele>1366.2423410467677</ele>
        <time>2021-08-02T21:38:53.772Z</time>
      </trkpt>
      <trkpt lat="42.80189752578735" lon="0.4285526275634766">
        <ele>1363.9427263048894</ele>
        <time>2021-08-02T21:39:03.353Z</time>
      </trkpt>
      <trkpt lat="42.80204772949219" lon="0.4280591011047363">
        <ele>1361.6528354043762</ele>
        <time>2021-08-02T21:39:12.940Z</time>
      </trkpt>
      <trkpt lat="42.80210145749152" lon="0.4277050495147705">
        <ele>1359.2910255986035</ele>
        <time>2021-08-02T21:39:22.531Z</time>
      </trkpt>
      <trkpt lat="42.802101373672485" lon="0.4277050495147705">
        <ele>1356.8788697721434</ele>
        <time>2021-08-02T21:39:32.122Z</time>
      </trkpt>
      <trkpt lat="42.80211218632758" lon="0.4276299476623535">
        <ele>1354.3936726649463</ele>
        <time>2021-08-02T21:39:41.714Z</time>
      </trkpt>
      <trkpt lat="42.802144289016724" lon="0.4272758960723877">
        <ele>1351.682236541839</ele>
        <time>2021-08-02T21:39:51.310Z</time>
      </trkpt>
      <trkpt lat="42.80221939086914" lon="0.4268789291381836">
        <ele>1348.9207240419385</ele>
        <time>2021-08-02T21:40:00.911Z</time>
      </trkpt>
      <trkpt lat="42.802337408065796" lon="0.4265570640563965">
        <ele>1345.9610892164571</ele>
        <time>2021-08-02T21:40:10.516Z</time>
      </trkpt>
      <trkpt lat="42.80243396759033" lon="0.4262351989746094">
        <ele>1342.9506765653523</ele>
        <time>2021-08-02T21:40:20.126Z</time>
      </trkpt>
      <trkpt lat="42.80254125595093" lon="0.4257738590240479">
        <ele>1339.6440517668188</ele>
        <time>2021-08-02T21:40:29.741Z</time>
      </trkpt>
      <trkpt lat="42.802627086639404" lon="0.4255378246307373">
        <ele>1336.590397142154</ele>
        <time>2021-08-02T21:40:39.359Z</time>
      </trkpt>
      <trkpt lat="42.80339956283569" lon="0.4249370098114014">
        <ele>1333.6045808850076</ele>
        <time>2021-08-02T21:40:48.992Z</time>
      </trkpt>
      <trkpt lat="42.80371069908142" lon="0.4247438907623291">
        <ele>1330.314544822631</ele>
        <time>2021-08-02T21:40:58.630Z</time>
      </trkpt>
      <trkpt lat="42.803882360458374" lon="0.4246687889099121">
        <ele>1327.1711204309518</ele>
        <time>2021-08-02T21:41:08.271Z</time>
      </trkpt>
      <trkpt lat="42.804075479507446" lon="0.4246044158935547">
        <ele>1323.9745472549153</ele>
        <time>2021-08-02T21:41:17.915Z</time>
      </trkpt>
      <trkpt lat="42.8042471408844" lon="0.4245936870574951">
        <ele>1320.8131385745494</ele>
        <time>2021-08-02T21:41:27.562Z</time>
      </trkpt>
      <trkpt lat="42.80508407391608" lon="0.4246902465820312">
        <ele>1317.4088430857496</ele>
        <time>2021-08-02T21:41:37.222Z</time>
      </trkpt>
      <trkpt lat="42.805083990097046" lon="0.4246902465820312">
        <ele>1314.1607989497916</ele>
        <time>2021-08-02T21:41:46.882Z</time>
      </trkpt>
      <trkpt lat="42.80582436360419" lon="0.42472243309021">
        <ele>1310.4960321260955</ele>
        <time>2021-08-02T21:41:56.554Z</time>
      </trkpt>
      <trkpt lat="42.805824279785156" lon="0.42472243309021">
        <ele>1307.2059453326524</ele>
        <time>2021-08-02T21:42:06.226Z</time>
      </trkpt>
      <trkpt lat="42.806382179260254" lon="0.4247760772705078">
        <ele>1303.626396203793</ele>
        <time>2021-08-02T21:42:15.907Z</time>
      </trkpt>
      <trkpt lat="42.807111740112305" lon="0.4249155521392822">
        <ele>1300.0095242735129</ele>
        <time>2021-08-02T21:42:25.600Z</time>
      </trkpt>
      <trkpt lat="42.80815243721008" lon="0.4253017902374268">
        <ele>1296.3172174139604</ele>
        <time>2021-08-02T21:42:35.310Z</time>
      </trkpt>
      <trkpt lat="42.80847430229187" lon="0.4254412651062012">
        <ele>1292.8989191426601</ele>
        <time>2021-08-02T21:42:45.026Z</time>
      </trkpt>
      <trkpt lat="42.80872106552124" lon="0.4256129264831543">
        <ele>1289.5434343021625</ele>
        <time>2021-08-02T21:42:54.746Z</time>
      </trkpt>
      <trkpt lat="42.808817625045776" lon="0.4257094860076904">
        <ele>1286.3236570773083</ele>
        <time>2021-08-02T21:43:04.468Z</time>
      </trkpt>
      <trkpt lat="42.809075117111206" lon="0.4261064529418945">
        <ele>1283.2659302589207</ele>
        <time>2021-08-02T21:43:14.196Z</time>
      </trkpt>
      <trkpt lat="42.809386253356934" lon="0.4264819622039795">
        <ele>1280.1298662031681</ele>
        <time>2021-08-02T21:43:23.931Z</time>
      </trkpt>
      <trkpt lat="42.80971884727478" lon="0.4266643524169922">
        <ele>1276.7790746217931</ele>
        <time>2021-08-02T21:43:33.672Z</time>
      </trkpt>
      <trkpt lat="42.810298204422" lon="0.4271256923675537">
        <ele>1273.4919805972427</ele>
        <time>2021-08-02T21:43:43.423Z</time>
      </trkpt>
      <trkpt lat="42.81040549278259" lon="0.4271900653839111">
        <ele>1270.483620007873</ele>
        <time>2021-08-02T21:43:53.176Z</time>
      </trkpt>
      <trkpt lat="42.810823917388916" lon="0.4273402690887451">
        <ele>1267.2721800533825</ele>
        <time>2021-08-02T21:44:02.936Z</time>
      </trkpt>
      <trkpt lat="42.81098484992981" lon="0.4274153709411621">
        <ele>1264.362893712789</ele>
        <time>2021-08-02T21:44:12.699Z</time>
      </trkpt>
      <trkpt lat="42.811135053634644" lon="0.4275119304656982">
        <ele>1261.5699828395245</ele>
        <time>2021-08-02T21:44:22.464Z</time>
      </trkpt>
      <trkpt lat="42.81180024147034" lon="0.428016185760498">
        <ele>1258.7597506261802</ele>
        <time>2021-08-02T21:44:32.242Z</time>
      </trkpt>
      <trkpt lat="42.81206854619086" lon="0.4281556606292725">
        <ele>1256.110999539358</ele>
        <time>2021-08-02T21:44:42.024Z</time>
      </trkpt>
      <trkpt lat="42.81249761581421" lon="0.4283595085144043">
        <ele>1253.477952790565</ele>
        <time>2021-08-02T21:44:51.814Z</time>
      </trkpt>
      <trkpt lat="42.81274437904358" lon="0.4284024238586426">
        <ele>1250.9966528085793</ele>
        <time>2021-08-02T21:45:01.608Z</time>
      </trkpt>
      <trkpt lat="42.81294822692871" lon="0.4284024238586426">
        <ele>1248.5899697918583</ele>
        <time>2021-08-02T21:45:11.405Z</time>
      </trkpt>
      <trkpt lat="42.81301259994507" lon="0.428391695022583">
        <ele>1246.2906616416667</ele>
        <time>2021-08-02T21:45:21.203Z</time>
      </trkpt>
      <trkpt lat="42.81305551528931" lon="0.4283487796783447">
        <ele>1244.0332930792456</ele>
        <time>2021-08-02T21:45:31.002Z</time>
      </trkpt>
      <trkpt lat="42.813087701797485" lon="0.4282844066619873">
        <ele>1241.8287870191075</ele>
        <time>2021-08-02T21:45:40.802Z</time>
      </trkpt>
      <trkpt lat="42.813098430633545" lon="0.4282200336456299">
        <ele>1239.7116299880995</ele>
        <time>2021-08-02T21:45:50.602Z</time>
      </trkpt>
      <trkpt lat="42.813087701797485" lon="0.4280698299407959">
        <ele>1237.5571834455468</ele>
        <time>2021-08-02T21:46:00.404Z</time>
      </trkpt>
      <trkpt lat="42.813066244125366" lon="0.4280054569244385">
        <ele>1235.6007964277085</ele>
        <time>2021-08-02T21:46:10.207Z</time>
      </trkpt>
      <trkpt lat="42.81301259994507" lon="0.4279518127441406">
        <ele>1233.761479952626</ele>
        <time>2021-08-02T21:46:20.011Z</time>
      </trkpt>
      <trkpt lat="42.81294822692871" lon="0.4279088973999023">
        <ele>1232.0078727294976</ele>
        <time>2021-08-02T21:46:29.816Z</time>
      </trkpt>
      <trkpt lat="42.81272292137146" lon="0.4278981685638428">
        <ele>1230.4334301414756</ele>
        <time>2021-08-02T21:46:39.625Z</time>
      </trkpt>
      <trkpt lat="42.812594175338745" lon="0.4278659820556641">
        <ele>1228.831539181871</ele>
        <time>2021-08-02T21:46:49.436Z</time>
      </trkpt>
      <trkpt lat="42.81247615814209" lon="0.4277801513671875">
        <ele>1227.2353434227157</ele>
        <time>2021-08-02T21:46:59.249Z</time>
      </trkpt>
      <trkpt lat="42.81222939491272" lon="0.4275012016296387">
        <ele>1225.6129152217136</ele>
        <time>2021-08-02T21:47:09.067Z</time>
      </trkpt>
      <trkpt lat="42.81197190284729" lon="0.4270720481872559">
        <ele>1223.898934511912</ele>
        <time>2021-08-02T21:47:18.892Z</time>
      </trkpt>
      <trkpt lat="42.811875343322754" lon="0.4268467426300049">
        <ele>1222.2877968657717</ele>
        <time>2021-08-02T21:47:28.720Z</time>
      </trkpt>
      <trkpt lat="42.81172513961792" lon="0.4260313510894775">
        <ele>1220.2685057888057</ele>
        <time>2021-08-02T21:47:38.558Z</time>
      </trkpt>
      <trkpt lat="42.811607122421265" lon="0.4256987571716309">
        <ele>1218.6579970801183</ele>
        <time>2021-08-02T21:47:48.400Z</time>
      </trkpt>
      <trkpt lat="42.81148910522461" lon="0.4254627227783203">
        <ele>1217.1466132319952</ele>
        <time>2021-08-02T21:47:58.245Z</time>
      </trkpt>
      <trkpt lat="42.811414087191224" lon="0.4253768920898438">
        <ele>1215.7305845771175</ele>
        <time>2021-08-02T21:48:08.092Z</time>
      </trkpt>
      <trkpt lat="42.81141400337219" lon="0.4253768920898438">
        <ele>1214.3506412097327</ele>
        <time>2021-08-02T21:48:17.939Z</time>
      </trkpt>
      <trkpt lat="42.811371171846986" lon="0.4253339767456055">
        <ele>1212.9785515196381</ele>
        <time>2021-08-02T21:48:27.787Z</time>
      </trkpt>
      <trkpt lat="42.81124234199524" lon="0.4252481460571289">
        <ele>1211.6450644800952</ele>
        <time>2021-08-02T21:48:37.637Z</time>
      </trkpt>
      <trkpt lat="42.8107488155365" lon="0.4251194000244141">
        <ele>1210.6073718108605</ele>
        <time>2021-08-02T21:48:47.495Z</time>
      </trkpt>
      <trkpt lat="42.8106951713562" lon="0.4250550270080566">
        <ele>1209.2351877956835</ele>
        <time>2021-08-02T21:48:57.354Z</time>
      </trkpt>
      <trkpt lat="42.81066298484802" lon="0.4249370098114014">
        <ele>1207.7767821275334</ele>
        <time>2021-08-02T21:49:07.215Z</time>
      </trkpt>
      <trkpt lat="42.81066298484802" lon="0.4246151447296143">
        <ele>1206.0832681695417</ele>
        <time>2021-08-02T21:49:17.080Z</time>
      </trkpt>
      <trkpt lat="42.8106415271759" lon="0.424346923828125">
        <ele>1204.477292454533</ele>
        <time>2021-08-02T21:49:26.948Z</time>
      </trkpt>
      <trkpt lat="42.81050205230713" lon="0.4240250587463379">
        <ele>1202.9060263911867</ele>
        <time>2021-08-02T21:49:36.820Z</time>
      </trkpt>
      <trkpt lat="42.809901321306825" lon="0.4227805137634277">
        <ele>1200.9874715213643</ele>
        <time>2021-08-02T21:49:46.710Z</time>
      </trkpt>
      <trkpt lat="42.809901321306825" lon="0.4227697849273682">
        <ele>1199.504987589268</ele>
        <time>2021-08-02T21:49:56.600Z</time>
      </trkpt>
      <trkpt lat="42.80972957611084" lon="0.4224908351898193">
        <ele>1197.895529607801</ele>
        <time>2021-08-02T21:50:06.494Z</time>
      </trkpt>
      <trkpt lat="42.80947208404541" lon="0.4222762584686279">
        <ele>1196.4076967052986</ele>
        <time>2021-08-02T21:50:16.393Z</time>
      </trkpt>
      <trkpt lat="42.80931115150452" lon="0.4220831394195557">
        <ele>1194.795930880393</ele>
        <time>2021-08-02T21:50:26.295Z</time>
      </trkpt>
      <trkpt lat="42.808903539553285" lon="0.421750545501709">
        <ele>1193.0510609913606</ele>
        <time>2021-08-02T21:50:36.205Z</time>
      </trkpt>
      <trkpt lat="42.80879616737366" lon="0.421600341796875">
        <ele>1191.3025331206086</ele>
        <time>2021-08-02T21:50:46.117Z</time>
      </trkpt>
      <trkpt lat="42.80877479352057" lon="0.421450138092041">
        <ele>1189.4618977659952</ele>
        <time>2021-08-02T21:50:56.031Z</time>
      </trkpt>
      <trkpt lat="42.80877470970154" lon="0.421450138092041">
        <ele>1187.7719235877735</ele>
        <time>2021-08-02T21:51:05.945Z</time>
      </trkpt>
      <trkpt lat="42.80880698002875" lon="0.4213535785675049">
        <ele>1185.8824330599737</ele>
        <time>2021-08-02T21:51:15.860Z</time>
      </trkpt>
      <trkpt lat="42.808839082717896" lon="0.4213213920593262">
        <ele>1184.0291656159593</ele>
        <time>2021-08-02T21:51:25.776Z</time>
      </trkpt>
      <trkpt lat="42.808882081881166" lon="0.4213106632232666">
        <ele>1182.1413191330644</ele>
        <time>2021-08-02T21:51:35.693Z</time>
      </trkpt>
      <trkpt lat="42.808881998062134" lon="0.4213106632232666">
        <ele>1180.2294582724257</ele>
        <time>2021-08-02T21:51:45.610Z</time>
      </trkpt>
      <trkpt lat="42.80892491340637" lon="0.4213106632232666">
        <ele>1178.218125624966</ele>
        <time>2021-08-02T21:51:55.527Z</time>
      </trkpt>
      <trkpt lat="42.80895709991455" lon="0.4213428497314453">
        <ele>1176.1768814615664</ele>
        <time>2021-08-02T21:52:05.445Z</time>
      </trkpt>
      <trkpt lat="42.809085845947266" lon="0.4215896129608154">
        <ele>1174.2817413398707</ele>
        <time>2021-08-02T21:52:15.367Z</time>
      </trkpt>
      <trkpt lat="42.80919313430786" lon="0.4217290878295898">
        <ele>1172.1566010378133</ele>
        <time>2021-08-02T21:52:25.291Z</time>
      </trkpt>
      <trkpt lat="42.809354066848755" lon="0.4217934608459473">
        <ele>1169.7479636830703</ele>
        <time>2021-08-02T21:52:35.218Z</time>
      </trkpt>
      <trkpt lat="42.80971884727478" lon="0.4217934608459473">
        <ele>1166.9460638832172</ele>
        <time>2021-08-02T21:52:45.151Z</time>
      </trkpt>
      <trkpt lat="42.80991196632385" lon="0.4218363761901855">
        <ele>1164.2757393787497</ele>
        <time>2021-08-02T21:52:55.087Z</time>
      </trkpt>
      <trkpt lat="42.81027674674988" lon="0.4220616817474365">
        <ele>1161.497414682551</ele>
        <time>2021-08-02T21:53:05.029Z</time>
      </trkpt>
      <trkpt lat="42.8112530708313" lon="0.4227590560913086">
        <ele>1158.2748399760035</ele>
        <time>2021-08-02T21:53:14.989Z</time>
      </trkpt>
      <trkpt lat="42.81152129173279" lon="0.4228878021240234">
        <ele>1155.2314243106662</ele>
        <time>2021-08-02T21:53:24.953Z</time>
      </trkpt>
      <trkpt lat="42.81242251396179" lon="0.4232847690582275">
        <ele>1151.6142386439078</ele>
        <time>2021-08-02T21:53:34.932Z</time>
      </trkpt>
      <trkpt lat="42.81293749809265" lon="0.4235744476318359">
        <ele>1148.406290602854</ele>
        <time>2021-08-02T21:53:44.920Z</time>
      </trkpt>
      <trkpt lat="42.813098430633545" lon="0.4236280918121338">
        <ele>1145.1644894880128</ele>
        <time>2021-08-02T21:53:54.911Z</time>
      </trkpt>
      <trkpt lat="42.8132164478302" lon="0.4236280918121338">
        <ele>1141.8112732609225</ele>
        <time>2021-08-02T21:54:04.904Z</time>
      </trkpt>
      <trkpt lat="42.813366651535034" lon="0.4235637187957764">
        <ele>1138.3394207522815</ele>
        <time>2021-08-02T21:54:14.899Z</time>
      </trkpt>
      <trkpt lat="42.81346321105957" lon="0.4234671592712402">
        <ele>1134.8874593879405</ele>
        <time>2021-08-02T21:54:24.896Z</time>
      </trkpt>
      <trkpt lat="42.813667142763734" lon="0.4230701923370361">
        <ele>1131.214958526964</ele>
        <time>2021-08-02T21:54:34.899Z</time>
      </trkpt>
      <trkpt lat="42.8136670589447" lon="0.4230701923370361">
        <ele>1127.5644089844445</ele>
        <time>2021-08-02T21:54:44.902Z</time>
      </trkpt>
      <trkpt lat="42.81380661763251" lon="0.4227805137634277">
        <ele>1123.670741702966</ele>
        <time>2021-08-02T21:54:54.909Z</time>
      </trkpt>
      <trkpt lat="42.814117670059204" lon="0.4221045970916748">
        <ele>1119.3982438781024</ele>
        <time>2021-08-02T21:55:04.926Z</time>
      </trkpt>
      <trkpt lat="42.81426787376404" lon="0.4218685626983643">
        <ele>1115.38103062673</ele>
        <time>2021-08-02T21:55:14.946Z</time>
      </trkpt>
      <trkpt lat="42.814375162124634" lon="0.4217183589935303">
        <ele>1111.3841121771056</ele>
        <time>2021-08-02T21:55:24.969Z</time>
      </trkpt>
      <trkpt lat="42.81464338302612" lon="0.421450138092041">
        <ele>1107.2846442765208</ele>
        <time>2021-08-02T21:55:34.997Z</time>
      </trkpt>
      <trkpt lat="42.814825773239136" lon="0.4213321208953857">
        <ele>1103.193511597101</ele>
        <time>2021-08-02T21:55:45.028Z</time>
      </trkpt>
      <trkpt lat="42.81564116477966" lon="0.4209458827972412">
        <ele>1098.8475260624525</ele>
        <time>2021-08-02T21:55:55.073Z</time>
      </trkpt>
      <trkpt lat="42.81598448753357" lon="0.4208171367645264">
        <ele>1094.607233041772</ele>
        <time>2021-08-02T21:56:05.124Z</time>
      </trkpt>
      <trkpt lat="42.81628489494324" lon="0.4204630851745605">
        <ele>1090.2386744043613</ele>
        <time>2021-08-02T21:56:15.181Z</time>
      </trkpt>
      <trkpt lat="42.816864252090454" lon="0.4198729991912842">
        <ele>1085.6369519692666</ele>
        <time>2021-08-02T21:56:25.250Z</time>
      </trkpt>
      <trkpt lat="42.81703591346741" lon="0.4197549819946289">
        <ele>1081.3564293175655</ele>
        <time>2021-08-02T21:56:35.322Z</time>
      </trkpt>
      <trkpt lat="42.817840576171875" lon="0.4193687438964844">
        <ele>1076.9039191862312</ele>
        <time>2021-08-02T21:56:45.407Z</time>
      </trkpt>
      <trkpt lat="42.81828045845032" lon="0.4191970825195312">
        <ele>1072.5236393380399</ele>
        <time>2021-08-02T21:56:55.500Z</time>
      </trkpt>
      <trkpt lat="42.818806171417236" lon="0.4189395904541016">
        <ele>1068.188039603328</ele>
        <time>2021-08-02T21:57:05.602Z</time>
      </trkpt>
      <trkpt lat="42.819052934646606" lon="0.4187893867492676">
        <ele>1063.9908020474477</ele>
        <time>2021-08-02T21:57:15.708Z</time>
      </trkpt>
      <trkpt lat="42.81914949417114" lon="0.4186928272247314">
        <ele>1059.837468257682</ele>
        <time>2021-08-02T21:57:25.816Z</time>
      </trkpt>
      <trkpt lat="42.81929969787598" lon="0.4184889793395996">
        <ele>1055.6032092361631</ele>
        <time>2021-08-02T21:57:35.927Z</time>
      </trkpt>
      <trkpt lat="42.81942844390869" lon="0.4183602333068848">
        <ele>1051.526471909548</ele>
        <time>2021-08-02T21:57:46.041Z</time>
      </trkpt>
      <trkpt lat="42.82000780105591" lon="0.4179739952087402">
        <ele>1047.4895778510813</ele>
        <time>2021-08-02T21:57:56.165Z</time>
      </trkpt>
      <trkpt lat="42.82043695449829" lon="0.4176092147827148">
        <ele>1043.356821298248</ele>
        <time>2021-08-02T21:58:06.297Z</time>
      </trkpt>
      <trkpt lat="42.82107003964484" lon="0.4172444343566895">
        <ele>1039.4938603556284</ele>
        <time>2021-08-02T21:58:16.440Z</time>
      </trkpt>
      <trkpt lat="42.821069955825806" lon="0.4172444343566895">
        <ele>1035.969178734275</ele>
        <time>2021-08-02T21:58:26.583Z</time>
      </trkpt>
      <trkpt lat="42.82199271954596" lon="0.4166436195373535">
        <ele>1032.1029592575326</ele>
        <time>2021-08-02T21:58:36.743Z</time>
      </trkpt>
      <trkpt lat="42.82199263572693" lon="0.4166436195373535">
        <ele>1028.8585912293966</ele>
        <time>2021-08-02T21:58:46.903Z</time>
      </trkpt>
      <trkpt lat="42.82273300923407" lon="0.4161393642425537">
        <ele>1025.4668247828208</ele>
        <time>2021-08-02T21:58:57.076Z</time>
      </trkpt>
      <trkpt lat="42.82325863838196" lon="0.4157531261444092">
        <ele>1022.2032135532897</ele>
        <time>2021-08-02T21:59:07.258Z</time>
      </trkpt>
      <trkpt lat="42.8236985206604" lon="0.4150772094726562">
        <ele>1018.8857508256983</ele>
        <time>2021-08-02T21:59:17.451Z</time>
      </trkpt>
      <trkpt lat="42.823848724365234" lon="0.4149162769317627">
        <ele>1016.2434717469584</ele>
        <time>2021-08-02T21:59:27.647Z</time>
      </trkpt>
      <trkpt lat="42.82398819923401" lon="0.4148304462432861">
        <ele>1013.868244906193</ele>
        <time>2021-08-02T21:59:37.846Z</time>
      </trkpt>
      <trkpt lat="42.8240526560694" lon="0.4148111678659916">
        <ele>1011.6932997759216</ele>
        <time>2021-08-02T21:59:48.046Z</time>
      </trkpt>
      <trkpt lat="42.824052572250366" lon="0.4148111678659916">
        <ele>1009.6862900777585</ele>
        <time>2021-08-02T21:59:58.246Z</time>
      </trkpt>
      <trkpt lat="42.824095487594604" lon="0.4147982597351074">
        <ele>1007.8700710301081</ele>
        <time>2021-08-02T22:00:08.446Z</time>
      </trkpt>
      <trkpt lat="42.824063301086426" lon="0.4146909713745117">
        <ele>1006.1224847774922</ele>
        <time>2021-08-02T22:00:18.648Z</time>
      </trkpt>
      <trkpt lat="42.82400965690613" lon="0.4146265983581543">
        <ele>1004.56304775335</ele>
        <time>2021-08-02T22:00:28.851Z</time>
      </trkpt>
      <trkpt lat="42.82393455505371" lon="0.4146158695220947">
        <ele>1003.1909269863559</ele>
        <time>2021-08-02T22:00:39.055Z</time>
      </trkpt>
      <trkpt lat="42.82387018203735" lon="0.4146373271942139">
        <ele>1001.9950435326407</ele>
        <time>2021-08-02T22:00:49.260Z</time>
      </trkpt>
      <trkpt lat="42.82379508018494" lon="0.4146909713745117">
        <ele>1000.9530809104007</ele>
        <time>2021-08-02T22:00:59.467Z</time>
      </trkpt>
      <trkpt lat="42.823548316955566" lon="0.4150128364562988">
        <ele>1000.2015403225714</ele>
        <time>2021-08-02T22:01:09.679Z</time>
      </trkpt>
      <trkpt lat="42.82341957092285" lon="0.415109395980835">
        <ele>999.4524223290741</ele>
        <time>2021-08-02T22:01:19.893Z</time>
      </trkpt>
      <trkpt lat="42.82276511192322" lon="0.4154527187347412">
        <ele>998.9929240637543</ele>
        <time>2021-08-02T22:01:30.119Z</time>
      </trkpt>
      <trkpt lat="42.8222930431366" lon="0.415806770324707">
        <ele>998.5737482535883</ele>
        <time>2021-08-02T22:01:40.353Z</time>
      </trkpt>
      <trkpt lat="42.82215356826782" lon="0.415881872177124">
        <ele>997.9960394574988</ele>
        <time>2021-08-02T22:01:50.590Z</time>
      </trkpt>
      <trkpt lat="42.82200336456299" lon="0.4159462451934814">
        <ele>997.4443455215969</ele>
        <time>2021-08-02T22:02:00.829Z</time>
      </trkpt>
      <trkpt lat="42.821820974349976" lon="0.4159677028656006">
        <ele>996.8654739769887</ele>
        <time>2021-08-02T22:02:11.071Z</time>
      </trkpt>
      <trkpt lat="42.8216278553009" lon="0.4159355163574219">
        <ele>996.2598522230494</ele>
        <time>2021-08-02T22:02:21.316Z</time>
      </trkpt>
      <trkpt lat="42.82149910926819" lon="0.415881872177124">
        <ele>995.6687017716815</ele>
        <time>2021-08-02T22:02:31.563Z</time>
      </trkpt>
      <trkpt lat="42.82149919308722" lon="0.415881872177124">
        <ele>995.15635483994</ele>
        <time>2021-08-02T22:02:41.810Z</time>
      </trkpt>
      <trkpt lat="42.8212308883667" lon="0.4157745838165283">
        <ele>994.4705594019806</ele>
        <time>2021-08-02T22:02:52.062Z</time>
      </trkpt>
      <trkpt lat="42.820833921432495" lon="0.4154312610626221">
        <ele>993.5355775855338</ele>
        <time>2021-08-02T22:03:02.321Z</time>
      </trkpt>
      <trkpt lat="42.820597887039185" lon="0.4153668880462646">
        <ele>992.9107671929623</ele>
        <time>2021-08-02T22:03:12.584Z</time>
      </trkpt>
      <trkpt lat="42.82044776715338" lon="0.4153454303741455">
        <ele>992.3010472555453</ele>
        <time>2021-08-02T22:03:22.850Z</time>
      </trkpt>
      <trkpt lat="42.820104444399476" lon="0.4153347015380859">
        <ele>991.6416015765337</ele>
        <time>2021-08-02T22:03:33.121Z</time>
      </trkpt>
      <trkpt lat="42.819911325350404" lon="0.4153668880462646">
        <ele>990.9603366112617</ele>
        <time>2021-08-02T22:03:43.395Z</time>
      </trkpt>
      <trkpt lat="42.81975039280951" lon="0.4154098033905029">
        <ele>990.2911157373998</ele>
        <time>2021-08-02T22:03:53.672Z</time>
      </trkpt>
      <trkpt lat="42.81928905285895" lon="0.4155170917510986">
        <ele>989.5535944478252</ele>
        <time>2021-08-02T22:04:03.956Z</time>
      </trkpt>
      <trkpt lat="42.819052934646606" lon="0.4155600070953369">
        <ele>988.791436290597</ele>
        <time>2021-08-02T22:04:14.244Z</time>
      </trkpt>
      <trkpt lat="42.81893500126898" lon="0.4155492782592773">
        <ele>987.9899144506372</ele>
        <time>2021-08-02T22:04:24.534Z</time>
      </trkpt>
      <trkpt lat="42.818838357925415" lon="0.4154956340789795">
        <ele>987.1295051653981</ele>
        <time>2021-08-02T22:04:34.826Z</time>
      </trkpt>
      <trkpt lat="42.818763256073" lon="0.4154098033905029">
        <ele>986.2129351753398</ele>
        <time>2021-08-02T22:04:45.119Z</time>
      </trkpt>
      <trkpt lat="42.81872034072876" lon="0.4152703285217285">
        <ele>985.2306933974542</ele>
        <time>2021-08-02T22:04:55.414Z</time>
      </trkpt>
      <trkpt lat="42.81872034072876" lon="0.4150021076202393">
        <ele>984.1359583145954</ele>
        <time>2021-08-02T22:05:05.712Z</time>
      </trkpt>
      <trkpt lat="42.81872042454779" lon="0.4150021076202393">
        <ele>983.1910662054539</ele>
        <time>2021-08-02T22:05:16.010Z</time>
      </trkpt>
      <trkpt lat="42.8187096118927" lon="0.4148626327514648">
        <ele>982.1090723342056</ele>
        <time>2021-08-02T22:05:26.310Z</time>
      </trkpt>
      <trkpt lat="42.81868815422058" lon="0.414808988571167">
        <ele>981.0559471464449</ele>
        <time>2021-08-02T22:05:36.611Z</time>
      </trkpt>
      <trkpt lat="42.818623865023255" lon="0.4147231578826904">
        <ele>979.939987384005</ele>
        <time>2021-08-02T22:05:46.913Z</time>
      </trkpt>
      <trkpt lat="42.818559408187866" lon="0.4146909713745117">
        <ele>978.8347990586024</ele>
        <time>2021-08-02T22:05:57.216Z</time>
      </trkpt>
      <trkpt lat="42.81847357749939" lon="0.4147017002105713">
        <ele>977.7290471141506</ele>
        <time>2021-08-02T22:06:07.520Z</time>
      </trkpt>
      <trkpt lat="42.81837701797485" lon="0.4147553443908691">
        <ele>976.6183016074503</ele>
        <time>2021-08-02T22:06:17.826Z</time>
      </trkpt>
      <trkpt lat="42.81819462776184" lon="0.4148948192596436">
        <ele>975.4880842508448</ele>
        <time>2021-08-02T22:06:28.135Z</time>
      </trkpt>
      <trkpt lat="42.81798005104065" lon="0.4150021076202393">
        <ele>974.2966203724915</ele>
        <time>2021-08-02T22:06:38.448Z</time>
      </trkpt>
      <trkpt lat="42.81769037246704" lon="0.4150664806365967">
        <ele>973.0196768607956</ele>
        <time>2021-08-02T22:06:48.766Z</time>
      </trkpt>
      <trkpt lat="42.81740069389343" lon="0.4152059555053711">
        <ele>971.8757649030167</ele>
        <time>2021-08-02T22:06:59.089Z</time>
      </trkpt>
      <trkpt lat="42.817314863204956" lon="0.4151952266693115">
        <ele>970.6476667430773</ele>
        <time>2021-08-02T22:07:09.413Z</time>
      </trkpt>
      <trkpt lat="42.8172504901886" lon="0.4151523113250732">
        <ele>969.3720717971337</ele>
        <time>2021-08-02T22:07:19.738Z</time>
      </trkpt>
      <trkpt lat="42.81720757484436" lon="0.4150879383087158">
        <ele>968.0589583314445</ele>
        <time>2021-08-02T22:07:30.064Z</time>
      </trkpt>
      <trkpt lat="42.81717538833618" lon="0.4150021076202393">
        <ele>966.7145636950481</ele>
        <time>2021-08-02T22:07:40.391Z</time>
      </trkpt>
      <trkpt lat="42.81715393066406" lon="0.4148948192596436">
        <ele>965.3430885507012</ele>
        <time>2021-08-02T22:07:50.720Z</time>
      </trkpt>
      <trkpt lat="42.8171968460083" lon="0.4144871234893799">
        <ele>963.7359253142862</ele>
        <time>2021-08-02T22:08:01.054Z</time>
      </trkpt>
      <trkpt lat="42.81722903251648" lon="0.4140150547027588">
        <ele>962.1237013406123</ele>
        <time>2021-08-02T22:08:11.393Z</time>
      </trkpt>
      <trkpt lat="42.81721830368042" lon="0.4138326644897461">
        <ele>960.7241551112619</ele>
        <time>2021-08-02T22:08:21.734Z</time>
      </trkpt>
      <trkpt lat="42.8171968460083" lon="0.41373610496521">
        <ele>959.3957530663606</ele>
        <time>2021-08-02T22:08:32.077Z</time>
      </trkpt>
      <trkpt lat="42.81715393066406" lon="0.413661003112793">
        <ele>958.1022107387118</ele>
        <time>2021-08-02T22:08:42.421Z</time>
      </trkpt>
      <trkpt lat="42.817078828811646" lon="0.4136288166046143">
        <ele>956.8592153204327</ele>
        <time>2021-08-02T22:08:52.766Z</time>
      </trkpt>
      <trkpt lat="42.8167998790741" lon="0.4137575626373291">
        <ele>955.7501715467641</ele>
        <time>2021-08-02T22:09:03.116Z</time>
      </trkpt>
      <trkpt lat="42.8166925907135" lon="0.4137575626373291">
        <ele>954.5765950163097</ele>
        <time>2021-08-02T22:09:13.467Z</time>
      </trkpt>
      <trkpt lat="42.81651020050049" lon="0.4137253761291504">
        <ele>953.3590379977336</ele>
        <time>2021-08-02T22:09:23.821Z</time>
      </trkpt>
      <trkpt lat="42.81651028431952" lon="0.4137253761291504">
        <ele>952.2504588441985</ele>
        <time>2021-08-02T22:09:34.175Z</time>
      </trkpt>
      <trkpt lat="42.81645655632019" lon="0.4137039184570312">
        <ele>951.1517876315409</ele>
        <time>2021-08-02T22:09:44.530Z</time>
      </trkpt>
      <trkpt lat="42.81638145446777" lon="0.4136288166046143">
        <ele>950.0654735468709</ele>
        <time>2021-08-02T22:09:54.887Z</time>
      </trkpt>
      <trkpt lat="42.816349267959595" lon="0.4135966300964355">
        <ele>949.0532450971027</ele>
        <time>2021-08-02T22:10:05.244Z</time>
      </trkpt>
      <trkpt lat="42.81623125076294" lon="0.4132533073425293">
        <ele>947.9272365191948</ele>
        <time>2021-08-02T22:10:15.606Z</time>
      </trkpt>
      <trkpt lat="42.81617760658264" lon="0.4131782054901123">
        <ele>946.9804174219119</ele>
        <time>2021-08-02T22:10:25.969Z</time>
      </trkpt>
      <trkpt lat="42.816102588549256" lon="0.4131567478179932">
        <ele>946.1070846675816</ele>
        <time>2021-08-02T22:10:36.333Z</time>
      </trkpt>
      <trkpt lat="42.8157377243042" lon="0.4131674766540527">
        <ele>945.2354615130112</ele>
        <time>2021-08-02T22:10:46.703Z</time>
      </trkpt>
      <trkpt lat="42.81552314758301" lon="0.4132640361785889">
        <ele>944.5168182380912</ele>
        <time>2021-08-02T22:10:57.077Z</time>
      </trkpt>
      <trkpt lat="42.81542658805847" lon="0.4133391380310059">
        <ele>943.8487846505928</ele>
        <time>2021-08-02T22:11:07.452Z</time>
      </trkpt>
      <trkpt lat="42.81524419784546" lon="0.4136073589324951">
        <ele>943.2540112994984</ele>
        <time>2021-08-02T22:11:17.832Z</time>
      </trkpt>
      <trkpt lat="42.81524428166449" lon="0.4136073589324951">
        <ele>942.6664738661748</ele>
        <time>2021-08-02T22:11:28.212Z</time>
      </trkpt>
      <trkpt lat="42.81509407795966" lon="0.4137897491455078">
        <ele>942.1537187175215</ele>
        <time>2021-08-02T22:11:38.595Z</time>
      </trkpt>
      <trkpt lat="42.81506189145148" lon="0.413811206817627">
        <ele>941.6669029575903</ele>
        <time>2021-08-02T22:11:48.979Z</time>
      </trkpt>
      <trkpt lat="42.814976060763" lon="0.4138648509979248">
        <ele>941.2491445071901</ele>
        <time>2021-08-02T22:11:59.364Z</time>
      </trkpt>
      <trkpt lat="42.814836502075195" lon="0.4139184951782227">
        <ele>940.8797246421091</ele>
        <time>2021-08-02T22:12:09.751Z</time>
      </trkpt>
      <trkpt lat="42.81477221287787" lon="0.4139292240142822">
        <ele>940.5391169941317</ele>
        <time>2021-08-02T22:12:20.139Z</time>
      </trkpt>
      <trkpt lat="42.81451472081244" lon="0.4139292240142822">
        <ele>940.2297686278588</ele>
        <time>2021-08-02T22:12:30.532Z</time>
      </trkpt>
      <trkpt lat="42.814171398058534" lon="0.4139184951782227">
        <ele>939.9751381584056</ele>
        <time>2021-08-02T22:12:40.930Z</time>
      </trkpt>
      <trkpt lat="42.81398892402649" lon="0.4138648509979248">
        <ele>939.7809406753313</ele>
        <time>2021-08-02T22:12:51.331Z</time>
      </trkpt>
      <trkpt lat="42.81370997428894" lon="0.4137575626373291">
        <ele>939.6396423532233</ele>
        <time>2021-08-02T22:13:01.737Z</time>
      </trkpt>
      <trkpt lat="42.81367787159979" lon="0.4137253761291504">
        <ele>939.5300753103793</ele>
        <time>2021-08-02T22:13:12.143Z</time>
      </trkpt>
      <trkpt lat="42.813613414764404" lon="0.413661003112793">
        <ele>939.4659715189949</ele>
        <time>2021-08-02T22:13:22.551Z</time>
      </trkpt>
      <trkpt lat="42.813613498583436" lon="0.413661003112793">
        <ele>939.458619331012</ele>
        <time>2021-08-02T22:13:32.959Z</time>
      </trkpt>
      <trkpt lat="42.81348466873169" lon="0.4134142398834229">
        <ele>939.4519220065149</ele>
        <time>2021-08-02T22:13:43.370Z</time>
      </trkpt>
      <trkpt lat="42.81343102455139" lon="0.4131567478179932">
        <ele>939.4795126279605</ele>
        <time>2021-08-02T22:13:53.784Z</time>
      </trkpt>
      <trkpt lat="42.81345248222351" lon="0.4126524925231934">
        <ele>939.5253777892615</ele>
        <time>2021-08-02T22:14:04.204Z</time>
      </trkpt>
      <trkpt lat="42.81344175338745" lon="0.4125022888183594">
        <ele>939.7154081161651</ele>
        <time>2021-08-02T22:14:14.626Z</time>
      </trkpt>
      <trkpt lat="42.81330227851868" lon="0.4116439819335938">
        <ele>939.8967235730986</ele>
        <time>2021-08-02T22:14:25.058Z</time>
      </trkpt>
      <trkpt lat="42.8132164478302" lon="0.4105818271636963">
        <ele>940.2661004770833</ele>
        <time>2021-08-02T22:14:35.503Z</time>
      </trkpt>
      <trkpt lat="42.813119888305664" lon="0.4097664356231689">
        <ele>940.650348368461</ele>
        <time>2021-08-02T22:14:45.958Z</time>
      </trkpt>
      <trkpt lat="42.813066244125366" lon="0.4096698760986328">
        <ele>941.1095633226871</ele>
        <time>2021-08-02T22:14:56.414Z</time>
      </trkpt>
      <trkpt lat="42.81300187110901" lon="0.409616231918335">
        <ele>941.6351129511837</ele>
        <time>2021-08-02T22:15:06.871Z</time>
      </trkpt>
      <trkpt lat="42.81250834465027" lon="0.4094123840332031">
        <ele>942.2474903953646</ele>
        <time>2021-08-02T22:15:17.337Z</time>
      </trkpt>
      <trkpt lat="42.81204700469971" lon="0.409090518951416">
        <ele>943.0013047038332</ele>
        <time>2021-08-02T22:15:27.811Z</time>
      </trkpt>
      <trkpt lat="42.81197190284729" lon="0.4090797901153564">
        <ele>943.7292621270196</ele>
        <time>2021-08-02T22:15:38.286Z</time>
      </trkpt>
      <trkpt lat="42.81191825866699" lon="0.4091012477874756">
        <ele>944.513361791767</ele>
        <time>2021-08-02T22:15:48.762Z</time>
      </trkpt>
      <trkpt lat="42.811875343322754" lon="0.4091441631317139">
        <ele>945.3501889469501</ele>
        <time>2021-08-02T22:15:59.239Z</time>
      </trkpt>
      <trkpt lat="42.8116500377655" lon="0.4089510440826416">
        <ele>946.3030235980091</ele>
        <time>2021-08-02T22:16:09.720Z</time>
      </trkpt>
      <trkpt lat="42.81158574856818" lon="0.4088759422302246">
        <ele>947.2618731754324</ele>
        <time>2021-08-02T22:16:20.202Z</time>
      </trkpt>
      <trkpt lat="42.811574935913086" lon="0.4088437557220459">
        <ele>948.2254721654978</ele>
        <time>2021-08-02T22:16:30.685Z</time>
      </trkpt>
      <trkpt lat="42.81152129173279" lon="0.4085969924926758">
        <ele>949.3354446853891</ele>
        <time>2021-08-02T22:16:41.171Z</time>
      </trkpt>
      <trkpt lat="42.81152129173279" lon="0.4085326194763184">
        <ele>950.3956438127851</ele>
        <time>2021-08-02T22:16:51.658Z</time>
      </trkpt>
      <trkpt lat="42.81154274940491" lon="0.4084897041320801">
        <ele>951.460255367421</ele>
        <time>2021-08-02T22:17:02.145Z</time>
      </trkpt>
      <trkpt lat="42.811660850420594" lon="0.4083716869354248">
        <ele>952.5227258398942</ele>
        <time>2021-08-02T22:17:12.635Z</time>
      </trkpt>
      <trkpt lat="42.81197190284729" lon="0.4080390930175781">
        <ele>953.6034817780542</ele>
        <time>2021-08-02T22:17:23.131Z</time>
      </trkpt>
      <trkpt lat="42.81227231025696" lon="0.407642126083374">
        <ele>954.757049583739</ele>
        <time>2021-08-02T22:17:33.634Z</time>
      </trkpt>
      <trkpt lat="42.81278729438782" lon="0.4068052768707275">
        <ele>955.9876070582288</ele>
        <time>2021-08-02T22:17:44.149Z</time>
      </trkpt>
      <trkpt lat="42.81278737820685" lon="0.4068052768707275">
        <ele>957.1087145292389</ele>
        <time>2021-08-02T22:17:54.664Z</time>
      </trkpt>
      <trkpt lat="42.81375297345221" lon="0.405271053314209">
        <ele>958.2842953549839</ele>
        <time>2021-08-02T22:18:05.203Z</time>
      </trkpt>
      <trkpt lat="42.813881635665894" lon="0.4050672054290771">
        <ele>959.439657667963</ele>
        <time>2021-08-02T22:18:15.745Z</time>
      </trkpt>
      <trkpt lat="42.81352758407593" lon="0.404820442199707">
        <ele>960.6846914755663</ele>
        <time>2021-08-02T22:18:26.294Z</time>
      </trkpt>
      <trkpt lat="42.8132164478302" lon="0.4046273231506348">
        <ele>961.9540586969521</ele>
        <time>2021-08-02T22:18:36.848Z</time>
      </trkpt>
      <trkpt lat="42.813087701797485" lon="0.4046595096588135">
        <ele>963.0395582033364</ele>
        <time>2021-08-02T22:18:47.404Z</time>
      </trkpt>
      <trkpt lat="42.81296968460083" lon="0.4047238826751709">
        <ele>964.069334253382</ele>
        <time>2021-08-02T22:18:57.962Z</time>
      </trkpt>
      <trkpt lat="42.8126585483551" lon="0.405045747756958">
        <ele>965.0327503164818</ele>
        <time>2021-08-02T22:19:08.527Z</time>
      </trkpt>
      <trkpt lat="42.812572717666626" lon="0.4051101207733154">
        <ele>965.9176374684691</ele>
        <time>2021-08-02T22:19:19.093Z</time>
      </trkpt>
      <trkpt lat="42.81245470046997" lon="0.405120849609375">
        <ele>966.7836500173996</ele>
        <time>2021-08-02T22:19:29.661Z</time>
      </trkpt>
      <trkpt lat="42.812379598617554" lon="0.4051101207733154">
        <ele>967.5806989009784</ele>
        <time>2021-08-02T22:19:40.230Z</time>
      </trkpt>
      <trkpt lat="42.812315225601196" lon="0.4050564765930176">
        <ele>968.3314773323436</ele>
        <time>2021-08-02T22:19:50.801Z</time>
      </trkpt>
      <trkpt lat="42.812154376879334" lon="0.4048633575439453">
        <ele>969.1292197099849</ele>
        <time>2021-08-02T22:20:01.375Z</time>
      </trkpt>
      <trkpt lat="42.811864698305726" lon="0.4044342041015625">
        <ele>969.9784579657075</ele>
        <time>2021-08-02T22:20:11.956Z</time>
      </trkpt>
      <trkpt lat="42.811864614486694" lon="0.4044342041015625">
        <ele>970.4643043825488</ele>
        <time>2021-08-02T22:20:22.537Z</time>
      </trkpt>
      <trkpt lat="42.81157501973212" lon="0.4039835929870605">
        <ele>971.0657604433557</ele>
        <time>2021-08-02T22:20:33.125Z</time>
      </trkpt>
      <trkpt lat="42.81155356206" lon="0.4039514064788818">
        <ele>971.4184827063523</ele>
        <time>2021-08-02T22:20:43.713Z</time>
      </trkpt>
      <trkpt lat="42.81147837638855" lon="0.4038333892822266">
        <ele>971.7297493498078</ele>
        <time>2021-08-02T22:20:54.303Z</time>
      </trkpt>
      <trkpt lat="42.811381816864014" lon="0.40374755859375">
        <ele>971.9208753864561</ele>
        <time>2021-08-02T22:21:04.895Z</time>
      </trkpt>
      <trkpt lat="42.81123161315918" lon="0.4036295413970947">
        <ele>972.0341138429042</ele>
        <time>2021-08-02T22:21:15.490Z</time>
      </trkpt>
      <trkpt lat="42.811124408617616" lon="0.4034686088562012">
        <ele>972.0804555952684</ele>
        <time>2021-08-02T22:21:26.087Z</time>
      </trkpt>
      <trkpt lat="42.81101712025702" lon="0.4031467437744141">
        <ele>972.0172640206371</ele>
        <time>2021-08-02T22:21:36.689Z</time>
      </trkpt>
      <trkpt lat="42.8109956625849" lon="0.4030823707580566">
        <ele>972.0633290762541</ele>
        <time>2021-08-02T22:21:47.291Z</time>
      </trkpt>
      <trkpt lat="42.81092047691345" lon="0.4029536247253418">
        <ele>972.1015908836147</ele>
        <time>2021-08-02T22:21:57.895Z</time>
      </trkpt>
      <trkpt lat="42.810866832733154" lon="0.4028999805450439">
        <ele>972.1175777172671</ele>
        <time>2021-08-02T22:22:08.500Z</time>
      </trkpt>
      <trkpt lat="42.81044849194586" lon="0.4026317596435547">
        <ele>971.9510973997542</ele>
        <time>2021-08-02T22:22:19.113Z</time>
      </trkpt>
      <trkpt lat="42.810298204422" lon="0.4025352001190186">
        <ele>971.978256623747</ele>
        <time>2021-08-02T22:22:29.728Z</time>
      </trkpt>
      <trkpt lat="42.809847593307495" lon="0.4020202159881592">
        <ele>972.0044743816547</ele>
        <time>2021-08-02T22:22:40.353Z</time>
      </trkpt>
      <trkpt lat="42.8095901850611" lon="0.4018807411193848">
        <ele>972.2295994661348</ele>
        <time>2021-08-02T22:22:50.982Z</time>
      </trkpt>
      <trkpt lat="42.80945062637329" lon="0.4018056392669678">
        <ele>972.5326118931359</ele>
        <time>2021-08-02T22:23:01.614Z</time>
      </trkpt>
      <trkpt lat="42.80924677848816" lon="0.4017734527587891">
        <ele>972.8947966898481</ele>
        <time>2021-08-02T22:23:12.249Z</time>
      </trkpt>
      <trkpt lat="42.80913949012756" lon="0.4016447067260742">
        <ele>973.4205986708621</ele>
        <time>2021-08-02T22:23:22.886Z</time>
      </trkpt>
      <trkpt lat="42.80900001525879" lon="0.4015481472015381">
        <ele>974.0427993603423</ele>
        <time>2021-08-02T22:23:33.526Z</time>
      </trkpt>
      <trkpt lat="42.80900009907782" lon="0.4015481472015381">
        <ele>974.7608736253555</ele>
        <time>2021-08-02T22:23:44.166Z</time>
      </trkpt>
      <trkpt lat="42.80802369117737" lon="0.4010653495788574">
        <ele>975.772696493531</ele>
        <time>2021-08-02T22:23:54.822Z</time>
      </trkpt>
      <trkpt lat="42.807841300964355" lon="0.400925874710083">
        <ele>976.8224028370385</ele>
        <time>2021-08-02T22:24:05.482Z</time>
      </trkpt>
      <trkpt lat="42.80784138478339" lon="0.400925874710083">
        <ele>977.9234150080158</ele>
        <time>2021-08-02T22:24:16.142Z</time>
      </trkpt>
      <trkpt lat="42.807605266571045" lon="0.4005610942840576">
        <ele>979.3305911762952</ele>
        <time>2021-08-02T22:24:26.807Z</time>
      </trkpt>
      <trkpt lat="42.80760535039008" lon="0.4005610942840576">
        <ele>980.7011437515321</ele>
        <time>2021-08-02T22:24:37.472Z</time>
      </trkpt>
      <trkpt lat="42.80758389271796" lon="0.4005289077758789">
        <ele>982.2226237521319</ele>
        <time>2021-08-02T22:24:48.138Z</time>
      </trkpt>
      <trkpt lat="42.80746579170227" lon="0.4003572463989258">
        <ele>983.9860751863725</ele>
        <time>2021-08-02T22:24:58.807Z</time>
      </trkpt>
      <trkpt lat="42.80724048614502" lon="0.4000890254974365">
        <ele>985.9931876261285</ele>
        <time>2021-08-02T22:25:09.481Z</time>
      </trkpt>
      <trkpt lat="42.80694007873535" lon="0.3998744487762451">
        <ele>988.1374255817782</ele>
        <time>2021-08-02T22:25:20.160Z</time>
      </trkpt>
      <trkpt lat="42.80670404434204" lon="0.3997993469238281">
        <ele>990.2926649046385</ele>
        <time>2021-08-02T22:25:30.843Z</time>
      </trkpt>
      <trkpt lat="42.80639290809631" lon="0.3998208045959473">
        <ele>992.5977977112436</ele>
        <time>2021-08-02T22:25:41.531Z</time>
      </trkpt>
      <trkpt lat="42.80604958534241" lon="0.3997564315795898">
        <ele>995.0803682228302</ele>
        <time>2021-08-02T22:25:52.224Z</time>
      </trkpt>
      <trkpt lat="42.80596375465393" lon="0.399777889251709">
        <ele>997.4507582105144</ele>
        <time>2021-08-02T22:26:02.919Z</time>
      </trkpt>
      <trkpt lat="42.80589938163757" lon="0.3998208045959473">
        <ele>999.8740343991329</ele>
        <time>2021-08-02T22:26:13.615Z</time>
      </trkpt>
      <trkpt lat="42.80494451522827" lon="0.4005610942840576">
        <ele>1002.5971825406061</ele>
        <time>2021-08-02T22:26:24.328Z</time>
      </trkpt>
      <trkpt lat="42.8047513961792" lon="0.400700569152832">
        <ele>1005.2736898011528</ele>
        <time>2021-08-02T22:26:35.045Z</time>
      </trkpt>
      <trkpt lat="42.80454754829407" lon="0.4007434844970703">
        <ele>1008.161918372348</ele>
        <time>2021-08-02T22:26:45.765Z</time>
      </trkpt>
      <trkpt lat="42.80426859855652" lon="0.4008722305297852">
        <ele>1010.9950370281648</ele>
        <time>2021-08-02T22:26:56.490Z</time>
      </trkpt>
      <trkpt lat="42.80418276786804" lon="0.4008829593658447">
        <ele>1013.867046068634</ele>
        <time>2021-08-02T22:27:07.216Z</time>
      </trkpt>
      <trkpt lat="42.804075479507446" lon="0.4008722305297852">
        <ele>1016.8169332535812</ele>
        <time>2021-08-02T22:27:17.944Z</time>
      </trkpt>
      <trkpt lat="42.80380725860596" lon="0.400775671005249">
        <ele>1020.0266340410851</ele>
        <time>2021-08-02T22:27:28.677Z</time>
      </trkpt>
      <trkpt lat="42.80292749404907" lon="0.4009366035461426">
        <ele>1023.3026828719289</ele>
        <time>2021-08-02T22:27:39.424Z</time>
      </trkpt>
      <trkpt lat="42.80227303504944" lon="0.4010438919067383">
        <ele>1026.5318645805962</ele>
        <time>2021-08-02T22:27:50.181Z</time>
      </trkpt>
      <trkpt lat="42.80181169509888" lon="0.4010868072509766">
        <ele>1029.628226260243</ele>
        <time>2021-08-02T22:28:00.946Z</time>
      </trkpt>
      <trkpt lat="42.80174732208252" lon="0.4010438919067383">
        <ele>1032.7545841055064</ele>
        <time>2021-08-02T22:28:11.712Z</time>
      </trkpt>
      <trkpt lat="42.80171513557434" lon="0.4009902477264404">
        <ele>1035.8992321884216</ele>
        <time>2021-08-02T22:28:22.479Z</time>
      </trkpt>
      <trkpt lat="42.80171513557434" lon="0.400925874710083">
        <ele>1039.054060713844</ele>
        <time>2021-08-02T22:28:33.246Z</time>
      </trkpt>
      <trkpt lat="42.80173659324646" lon="0.4008722305297852">
        <ele>1042.1826764268903</ele>
        <time>2021-08-02T22:28:44.014Z</time>
      </trkpt>
      <trkpt lat="42.80179023742676" lon="0.4008185863494873">
        <ele>1045.2978964528816</ele>
        <time>2021-08-02T22:28:54.783Z</time>
      </trkpt>
      <trkpt lat="42.80227303504944" lon="0.400700569152832">
        <ele>1048.3566151298642</ele>
        <time>2021-08-02T22:29:05.560Z</time>
      </trkpt>
      <trkpt lat="42.80270218849182" lon="0.4005181789398193">
        <ele>1051.4480940853928</ele>
        <time>2021-08-02T22:29:16.344Z</time>
      </trkpt>
      <trkpt lat="42.803335189819336" lon="0.4001104831695557">
        <ele>1054.8089518949741</ele>
        <time>2021-08-02T22:29:27.139Z</time>
      </trkpt>
      <trkpt lat="42.80333527363837" lon="0.4001104831695557">
        <ele>1057.8009504992767</ele>
        <time>2021-08-02T22:29:37.934Z</time>
      </trkpt>
      <trkpt lat="42.803850173950195" lon="0.3998100757598877">
        <ele>1061.0258283875714</ele>
        <time>2021-08-02T22:29:48.738Z</time>
      </trkpt>
      <trkpt lat="42.80440807342529" lon="0.3992950916290283">
        <ele>1064.1065903283288</ele>
        <time>2021-08-02T22:29:59.553Z</time>
      </trkpt>
      <trkpt lat="42.80441880226135" lon="0.3992414474487305">
        <ele>1067.0847545186825</ele>
        <time>2021-08-02T22:30:10.369Z</time>
      </trkpt>
      <trkpt lat="42.80440807342529" lon="0.3991556167602539">
        <ele>1070.1127972578815</ele>
        <time>2021-08-02T22:30:21.186Z</time>
      </trkpt>
      <trkpt lat="42.804354429244995" lon="0.3991127014160156">
        <ele>1073.1153316020404</ele>
        <time>2021-08-02T22:30:32.004Z</time>
      </trkpt>
      <trkpt lat="42.80415058135986" lon="0.3992736339569092">
        <ele>1076.0052100096516</ele>
        <time>2021-08-02T22:30:42.826Z</time>
      </trkpt>
      <trkpt lat="42.80390381813049" lon="0.3993916511535645">
        <ele>1078.91909350798</ele>
        <time>2021-08-02T22:30:53.652Z</time>
      </trkpt>
      <trkpt lat="42.803581953048706" lon="0.3995203971862793">
        <ele>1081.7734221500937</ele>
        <time>2021-08-02T22:31:04.483Z</time>
      </trkpt>
      <trkpt lat="42.803077697753906" lon="0.399552583694458">
        <ele>1084.8398060731888</ele>
        <time>2021-08-02T22:31:15.322Z</time>
      </trkpt>
      <trkpt lat="42.80205845832825" lon="0.3998637199401855">
        <ele>1087.4546681631618</ele>
        <time>2021-08-02T22:31:26.178Z</time>
      </trkpt>
      <trkpt lat="42.80194044113159" lon="0.3998851776123047">
        <ele>1090.1356087369359</ele>
        <time>2021-08-02T22:31:37.036Z</time>
      </trkpt>
      <trkpt lat="42.801886796951294" lon="0.3998637199401855">
        <ele>1092.844459810994</ele>
        <time>2021-08-02T22:31:47.895Z</time>
      </trkpt>
      <trkpt lat="42.801854610443115" lon="0.3998208045959473">
        <ele>1095.5624750548302</ele>
        <time>2021-08-02T22:31:58.754Z</time>
      </trkpt>
      <trkpt lat="42.801833152770996" lon="0.3997242450714111">
        <ele>1098.3569636412906</ele>
        <time>2021-08-02T22:32:09.615Z</time>
      </trkpt>
      <trkpt lat="42.801854610443115" lon="0.3996384143829346">
        <ele>1101.0894278980054</ele>
        <time>2021-08-02T22:32:20.477Z</time>
      </trkpt>
      <trkpt lat="42.80189752578735" lon="0.3995633125305176">
        <ele>1103.7847841179941</ele>
        <time>2021-08-02T22:32:31.340Z</time>
      </trkpt>
      <trkpt lat="42.802605628967285" lon="0.3992843627929688">
        <ele>1106.5032482150743</ele>
        <time>2021-08-02T22:32:42.215Z</time>
      </trkpt>
      <trkpt lat="42.80321717262268" lon="0.3989195823669434">
        <ele>1109.2229711351372</ele>
        <time>2021-08-02T22:32:53.100Z</time>
      </trkpt>
      <trkpt lat="42.80356049537659" lon="0.3986620903015137">
        <ele>1111.7657640227758</ele>
        <time>2021-08-02T22:33:03.992Z</time>
      </trkpt>
      <trkpt lat="42.803624868392944" lon="0.3985977172851562">
        <ele>1114.2444558803602</ele>
        <time>2021-08-02T22:33:14.885Z</time>
      </trkpt>
      <trkpt lat="42.80364632606506" lon="0.3985333442687988">
        <ele>1116.7572956303604</ele>
        <time>2021-08-02T22:33:25.779Z</time>
      </trkpt>
      <trkpt lat="42.803635597229004" lon="0.3984475135803223">
        <ele>1119.3264073475455</ele>
        <time>2021-08-02T22:33:36.674Z</time>
      </trkpt>
      <trkpt lat="42.803581953048706" lon="0.3983938694000244">
        <ele>1121.884746633095</ele>
        <time>2021-08-02T22:33:47.570Z</time>
      </trkpt>
      <trkpt lat="42.80348539352417" lon="0.3984260559082031">
        <ele>1124.352339526286</ele>
        <time>2021-08-02T22:33:58.467Z</time>
      </trkpt>
      <trkpt lat="42.80324935913086" lon="0.3985869884490967">
        <ele>1126.783173934753</ele>
        <time>2021-08-02T22:34:09.369Z</time>
      </trkpt>
      <trkpt lat="42.80242323875427" lon="0.3988122940063477">
        <ele>1129.4167206165612</ele>
        <time>2021-08-02T22:34:20.284Z</time>
      </trkpt>
      <trkpt lat="42.8021764755249" lon="0.3988552093505859">
        <ele>1131.8938212677656</ele>
        <time>2021-08-02T22:34:31.203Z</time>
      </trkpt>
      <trkpt lat="42.80181169509888" lon="0.3989624977111816">
        <ele>1134.3196233586673</ele>
        <time>2021-08-02T22:34:42.128Z</time>
      </trkpt>
      <trkpt lat="42.80173667706549" lon="0.3989410400390625">
        <ele>1136.7752695412328</ele>
        <time>2021-08-02T22:34:53.054Z</time>
      </trkpt>
      <trkpt lat="42.80170440673828" lon="0.3988981246948242">
        <ele>1139.2623525824747</ele>
        <time>2021-08-02T22:35:03.981Z</time>
      </trkpt>
      <trkpt lat="42.80169367790222" lon="0.3988444805145264">
        <ele>1141.769120830027</ele>
        <time>2021-08-02T22:35:14.909Z</time>
      </trkpt>
      <trkpt lat="42.80171513557434" lon="0.3987693786621094">
        <ele>1144.33304135026</ele>
        <time>2021-08-02T22:35:25.838Z</time>
      </trkpt>
      <trkpt lat="42.80180096626282" lon="0.3987264633178711">
        <ele>1146.778725246252</ele>
        <time>2021-08-02T22:35:36.768Z</time>
      </trkpt>
      <trkpt lat="42.80200481414795" lon="0.3986728191375732">
        <ele>1149.17442912678</ele>
        <time>2021-08-02T22:35:47.701Z</time>
      </trkpt>
      <trkpt lat="42.80225157737732" lon="0.3985655307769775">
        <ele>1151.6875974085965</ele>
        <time>2021-08-02T22:35:58.639Z</time>
      </trkpt>
      <trkpt lat="42.802584171295166" lon="0.3983509540557861">
        <ele>1154.152428351382</ele>
        <time>2021-08-02T22:36:09.582Z</time>
      </trkpt>
      <trkpt lat="42.80265927314758" lon="0.3982651233673096">
        <ele>1156.7161902541457</ele>
        <time>2021-08-02T22:36:20.527Z</time>
      </trkpt>
      <trkpt lat="42.80271291732788" lon="0.3981685638427734">
        <ele>1159.3349312485416</ele>
        <time>2021-08-02T22:36:31.473Z</time>
      </trkpt>
      <trkpt lat="42.802863121032715" lon="0.3977930545806885">
        <ele>1162.2055242785987</ele>
        <time>2021-08-02T22:36:42.424Z</time>
      </trkpt>
      <trkpt lat="42.80297040939331" lon="0.3976321220397949">
        <ele>1164.807525391966</ele>
        <time>2021-08-02T22:36:53.378Z</time>
      </trkpt>
      <trkpt lat="42.803142070770264" lon="0.3974390029907227">
        <ele>1167.3583021197792</ele>
        <time>2021-08-02T22:37:04.336Z</time>
      </trkpt>
      <trkpt lat="42.803581953048706" lon="0.3968703746795654">
        <ele>1170.0871352250938</ele>
        <time>2021-08-02T22:37:15.303Z</time>
      </trkpt>
      <trkpt lat="42.803882360458374" lon="0.396430492401123">
        <ele>1172.8970254793567</ele>
        <time>2021-08-02T22:37:26.277Z</time>
      </trkpt>
      <trkpt lat="42.80423641204834" lon="0.3960764408111572">
        <ele>1175.5114918278953</ele>
        <time>2021-08-02T22:37:37.258Z</time>
      </trkpt>
      <trkpt lat="42.80426859855652" lon="0.3960013389587402">
        <ele>1178.1015897307673</ele>
        <time>2021-08-02T22:37:48.240Z</time>
      </trkpt>
      <trkpt lat="42.80423641204834" lon="0.3959262371063232">
        <ele>1180.806693416776</ele>
        <time>2021-08-02T22:37:59.223Z</time>
      </trkpt>
      <trkpt lat="42.80415058135986" lon="0.3959476947784424">
        <ele>1183.451889762468</ele>
        <time>2021-08-02T22:38:10.208Z</time>
      </trkpt>
      <trkpt lat="42.803893089294434" lon="0.3961408138275146">
        <ele>1186.0650549493273</ele>
        <time>2021-08-02T22:38:21.198Z</time>
      </trkpt>
      <trkpt lat="42.803624868392944" lon="0.3962481021881104">
        <ele>1188.7864045170577</ele>
        <time>2021-08-02T22:38:32.192Z</time>
      </trkpt>
      <trkpt lat="42.803367376327515" lon="0.3963983058929443">
        <ele>1191.4427896239604</ele>
        <time>2021-08-02T22:38:43.191Z</time>
      </trkpt>
      <trkpt lat="42.80295968055725" lon="0.3965485095977783">
        <ele>1194.2969499802095</ele>
        <time>2021-08-02T22:38:54.196Z</time>
      </trkpt>
      <trkpt lat="42.80280947685242" lon="0.3966450691223145">
        <ele>1196.9343361423744</ele>
        <time>2021-08-02T22:39:05.204Z</time>
      </trkpt>
      <trkpt lat="42.802573442459106" lon="0.3968918323516846">
        <ele>1199.5376108835626</ele>
        <time>2021-08-02T22:39:16.217Z</time>
      </trkpt>
      <trkpt lat="42.80227303504944" lon="0.3970098495483398">
        <ele>1202.4019642761668</ele>
        <time>2021-08-02T22:39:27.235Z</time>
      </trkpt>
      <trkpt lat="42.80204772949219" lon="0.3971600532531738">
        <ele>1205.2247210230025</ele>
        <time>2021-08-02T22:39:38.257Z</time>
      </trkpt>
      <trkpt lat="42.80171513557434" lon="0.3974604606628418">
        <ele>1207.8071940009304</ele>
        <time>2021-08-02T22:39:49.285Z</time>
      </trkpt>
      <trkpt lat="42.80151128768921" lon="0.3976213932037354">
        <ele>1210.2070876253792</ele>
        <time>2021-08-02T22:40:00.317Z</time>
      </trkpt>
      <trkpt lat="42.801350355148315" lon="0.3976643085479736">
        <ele>1212.768169618448</ele>
        <time>2021-08-02T22:40:11.352Z</time>
      </trkpt>
      <trkpt lat="42.8012752532959" lon="0.3976643085479736">
        <ele>1215.3423153913395</ele>
        <time>2021-08-02T22:40:22.388Z</time>
      </trkpt>
      <trkpt lat="42.8012216091156" lon="0.3975784778594971">
        <ele>1218.0835947254063</ele>
        <time>2021-08-02T22:40:33.425Z</time>
      </trkpt>
      <trkpt lat="42.80123233795166" lon="0.3973639011383057">
        <ele>1221.0242446262137</ele>
        <time>2021-08-02T22:40:44.465Z</time>
      </trkpt>
      <trkpt lat="42.80128598213196" lon="0.3972136974334717">
        <ele>1223.7899780442058</ele>
        <time>2021-08-02T22:40:55.507Z</time>
      </trkpt>
      <trkpt lat="42.801371812820435" lon="0.3970527648925781">
        <ele>1226.5025247048861</ele>
        <time>2021-08-02T22:41:06.551Z</time>
      </trkpt>
      <trkpt lat="42.80153274536133" lon="0.3967952728271484">
        <ele>1229.1587274029253</ele>
        <time>2021-08-02T22:41:17.599Z</time>
      </trkpt>
      <trkpt lat="42.80197262763977" lon="0.3962588310241699">
        <ele>1231.5484573158178</ele>
        <time>2021-08-02T22:41:28.656Z</time>
      </trkpt>
      <trkpt lat="42.802133560180664" lon="0.3959047794342041">
        <ele>1234.2417044202546</ele>
        <time>2021-08-02T22:41:39.718Z</time>
      </trkpt>
      <trkpt lat="42.80226230621338" lon="0.3957009315490723">
        <ele>1236.7838612115838</ele>
        <time>2021-08-02T22:41:50.783Z</time>
      </trkpt>
      <trkpt lat="42.80229449272156" lon="0.3956151008605957">
        <ele>1239.2900901948763</ele>
        <time>2021-08-02T22:42:01.850Z</time>
      </trkpt>
      <trkpt lat="42.8022837638855" lon="0.3955078125">
        <ele>1241.857324766002</ele>
        <time>2021-08-02T22:42:12.918Z</time>
      </trkpt>
      <trkpt lat="42.80220866203308" lon="0.3954434394836426">
        <ele>1244.4390102330995</ele>
        <time>2021-08-02T22:42:23.987Z</time>
      </trkpt>
      <trkpt lat="42.802133560180664" lon="0.3954648971557617">
        <ele>1246.9022035496523</ele>
        <time>2021-08-02T22:42:35.057Z</time>
      </trkpt>
      <trkpt lat="42.80195116996765" lon="0.3956258296966553">
        <ele>1249.3190082891456</ele>
        <time>2021-08-02T22:42:46.131Z</time>
      </trkpt>
      <trkpt lat="42.80156493186951" lon="0.3960335254669189">
        <ele>1251.6762873020455</ele>
        <time>2021-08-02T22:42:57.213Z</time>
      </trkpt>
      <trkpt lat="42.800610065460205" lon="0.3966021537780762">
        <ele>1254.2635747183795</ele>
        <time>2021-08-02T22:43:08.311Z</time>
      </trkpt>
      <trkpt lat="42.80054577626288" lon="0.396580696105957">
        <ele>1256.6718807581397</ele>
        <time>2021-08-02T22:43:19.410Z</time>
      </trkpt>
      <trkpt lat="42.80051350593567" lon="0.3965270519256592">
        <ele>1259.0949395906223</ele>
        <time>2021-08-02T22:43:30.510Z</time>
      </trkpt>
      <trkpt lat="42.80050277709961" lon="0.396430492401123">
        <ele>1261.5532694735284</ele>
        <time>2021-08-02T22:43:41.611Z</time>
      </trkpt>
      <trkpt lat="42.80056715011597" lon="0.3963124752044678">
        <ele>1263.991708205975</ele>
        <time>2021-08-02T22:43:52.714Z</time>
      </trkpt>
      <trkpt lat="42.800878286361694" lon="0.3960120677947998">
        <ele>1266.483796738914</ele>
        <time>2021-08-02T22:44:03.823Z</time>
      </trkpt>
      <trkpt lat="42.80098557472229" lon="0.3957760334014893">
        <ele>1268.9327662160617</ele>
        <time>2021-08-02T22:44:14.936Z</time>
      </trkpt>
      <trkpt lat="42.801146507263184" lon="0.3955078125">
        <ele>1271.3469540397073</ele>
        <time>2021-08-02T22:44:26.053Z</time>
      </trkpt>
      <trkpt lat="42.801371812820435" lon="0.3951859474182129">
        <ele>1273.7253618370764</ele>
        <time>2021-08-02T22:44:37.175Z</time>
      </trkpt>
      <trkpt lat="42.801575660705566" lon="0.395057201385498">
        <ele>1275.9373216980362</ele>
        <time>2021-08-02T22:44:48.300Z</time>
      </trkpt>
      <trkpt lat="42.80173659324646" lon="0.3948748111724854">
        <ele>1278.2576474023367</ele>
        <time>2021-08-02T22:44:59.429Z</time>
      </trkpt>
      <trkpt lat="42.80198335647583" lon="0.3945207595825195">
        <ele>1280.6579369446736</ele>
        <time>2021-08-02T22:45:10.564Z</time>
      </trkpt>
      <trkpt lat="42.80219793319702" lon="0.3942739963531494">
        <ele>1282.956899133956</ele>
        <time>2021-08-02T22:45:21.703Z</time>
      </trkpt>
      <trkpt lat="42.80219793319702" lon="0.3941881656646729">
        <ele>1285.3433159126917</ele>
        <time>2021-08-02T22:45:32.843Z</time>
      </trkpt>
      <trkpt lat="42.80215501785278" lon="0.394134521484375">
        <ele>1287.724758651092</ele>
        <time>2021-08-02T22:45:43.984Z</time>
      </trkpt>
      <trkpt lat="42.802101373672485" lon="0.3941237926483154">
        <ele>1290.0579540551826</ele>
        <time>2021-08-02T22:45:55.126Z</time>
      </trkpt>
      <trkpt lat="42.80184396542609" lon="0.394284725189209">
        <ele>1292.4297461992664</ele>
        <time>2021-08-02T22:46:06.272Z</time>
      </trkpt>
      <trkpt lat="42.80143618583679" lon="0.3945529460906982">
        <ele>1294.8280341856953</ele>
        <time>2021-08-02T22:46:17.426Z</time>
      </trkpt>
      <trkpt lat="42.801436269655824" lon="0.3945529460906982">
        <ele>1297.1002867351526</ele>
        <time>2021-08-02T22:46:28.580Z</time>
      </trkpt>
      <trkpt lat="42.800846099853516" lon="0.3948533535003662">
        <ele>1299.677601954333</ele>
        <time>2021-08-02T22:46:39.744Z</time>
      </trkpt>
      <trkpt lat="42.800588607788086" lon="0.3950357437133789">
        <ele>1301.9882800231508</ele>
        <time>2021-08-02T22:46:50.912Z</time>
      </trkpt>
      <trkpt lat="42.800374031066895" lon="0.3951108455657959">
        <ele>1304.3647960058595</ele>
        <time>2021-08-02T22:47:02.084Z</time>
      </trkpt>
      <trkpt lat="42.80019164085388" lon="0.3951537609100342">
        <ele>1306.7349997021738</ele>
        <time>2021-08-02T22:47:13.259Z</time>
      </trkpt>
      <trkpt lat="42.79979467391968" lon="0.3951430320739746">
        <ele>1309.1888683953111</ele>
        <time>2021-08-02T22:47:24.440Z</time>
      </trkpt>
      <trkpt lat="42.79944062232971" lon="0.3952503204345703">
        <ele>1311.492734622299</ele>
        <time>2021-08-02T22:47:35.627Z</time>
      </trkpt>
      <trkpt lat="42.79922612942755" lon="0.3952503204345703">
        <ele>1313.8272161171544</ele>
        <time>2021-08-02T22:47:46.817Z</time>
      </trkpt>
      <trkpt lat="42.79895782470703" lon="0.3951430320739746">
        <ele>1316.1606331168346</ele>
        <time>2021-08-02T22:47:58.012Z</time>
      </trkpt>
      <trkpt lat="42.7988076210022" lon="0.3950035572052002">
        <ele>1318.4877134795395</ele>
        <time>2021-08-02T22:48:09.210Z</time>
      </trkpt>
      <trkpt lat="42.7987003326416" lon="0.3947460651397705">
        <ele>1320.8946418174096</ele>
        <time>2021-08-02T22:48:20.411Z</time>
      </trkpt>
      <trkpt lat="42.798603773117065" lon="0.3945958614349365">
        <ele>1323.1662117319304</ele>
        <time>2021-08-02T22:48:31.615Z</time>
      </trkpt>
      <trkpt lat="42.79851794242859" lon="0.3945207595825195">
        <ele>1325.3378143311704</ele>
        <time>2021-08-02T22:48:42.820Z</time>
      </trkpt>
      <trkpt lat="42.798335552215576" lon="0.3944671154022217">
        <ele>1327.4794999881399</ele>
        <time>2021-08-02T22:48:54.028Z</time>
      </trkpt>
      <trkpt lat="42.79816389083862" lon="0.3944993019104004">
        <ele>1329.5392535823603</ele>
        <time>2021-08-02T22:49:05.239Z</time>
      </trkpt>
      <trkpt lat="42.79742360115051" lon="0.394209623336792">
        <ele>1331.816172379</ele>
        <time>2021-08-02T22:49:16.462Z</time>
      </trkpt>
      <trkpt lat="42.797348499298096" lon="0.3941452503204346">
        <ele>1333.8619531943623</ele>
        <time>2021-08-02T22:49:27.687Z</time>
      </trkpt>
      <trkpt lat="42.797359228134155" lon="0.3939950466156006">
        <ele>1335.9405210127875</ele>
        <time>2021-08-02T22:49:38.914Z</time>
      </trkpt>
      <trkpt lat="42.79745578765869" lon="0.3939628601074219">
        <ele>1337.9241368333905</ele>
        <time>2021-08-02T22:49:50.142Z</time>
      </trkpt>
      <trkpt lat="42.797691822052" lon="0.3939735889434814">
        <ele>1339.842535420464</ele>
        <time>2021-08-02T22:50:01.374Z</time>
      </trkpt>
      <trkpt lat="42.79790639877319" lon="0.3938984870910645">
        <ele>1341.7819546406063</ele>
        <time>2021-08-02T22:50:12.609Z</time>
      </trkpt>
      <trkpt lat="42.79800295829773" lon="0.3937804698944092">
        <ele>1343.7480627070236</ele>
        <time>2021-08-02T22:50:23.847Z</time>
      </trkpt>
      <trkpt lat="42.79807806015015" lon="0.3936195373535156">
        <ele>1345.7466754441268</ele>
        <time>2021-08-02T22:50:35.087Z</time>
      </trkpt>
      <trkpt lat="42.7980996016413" lon="0.3932011127471924">
        <ele>1347.8689810090202</ele>
        <time>2021-08-02T22:50:46.332Z</time>
      </trkpt>
      <trkpt lat="42.798110246658325" lon="0.3930401802062988">
        <ele>1349.807258813608</ele>
        <time>2021-08-02T22:50:57.579Z</time>
      </trkpt>
      <trkpt lat="42.79816389083862" lon="0.3929650783538818">
        <ele>1351.6692707794446</ele>
        <time>2021-08-02T22:51:08.827Z</time>
      </trkpt>
      <trkpt lat="42.79829263687134" lon="0.3928899765014648">
        <ele>1353.499187388984</ele>
        <time>2021-08-02T22:51:20.077Z</time>
      </trkpt>
      <trkpt lat="42.79846438206732" lon="0.3928470611572266">
        <ele>1355.308611857243</ele>
        <time>2021-08-02T22:51:31.330Z</time>
      </trkpt>
      <trkpt lat="42.79853948391974" lon="0.3928256034851074">
        <ele>1357.1161879317249</ele>
        <time>2021-08-02T22:51:42.584Z</time>
      </trkpt>
      <trkpt lat="42.79921531677246" lon="0.3924500942230225">
        <ele>1359.1099300138146</ele>
        <time>2021-08-02T22:51:53.850Z</time>
      </trkpt>
      <trkpt lat="42.79956936836243" lon="0.3923428058624268">
        <ele>1360.8702033117156</ele>
        <time>2021-08-02T22:52:05.122Z</time>
      </trkpt>
      <trkpt lat="42.79975175857544" lon="0.3922462463378906">
        <ele>1362.682836295065</ele>
        <time>2021-08-02T22:52:16.397Z</time>
      </trkpt>
      <trkpt lat="42.80004143714905" lon="0.3919994831085205">
        <ele>1364.6843167110846</ele>
        <time>2021-08-02T22:52:27.677Z</time>
      </trkpt>
      <trkpt lat="42.80004152096808" lon="0.3919994831085205">
        <ele>1366.4815932990455</ele>
        <time>2021-08-02T22:52:38.957Z</time>
      </trkpt>
      <trkpt lat="42.800395488739014" lon="0.3916776180267334">
        <ele>1368.6208907302203</ele>
        <time>2021-08-02T22:52:50.244Z</time>
      </trkpt>
      <trkpt lat="42.80045986175537" lon="0.3916454315185547">
        <ele>1370.4195997832155</ele>
        <time>2021-08-02T22:53:01.532Z</time>
      </trkpt>
      <trkpt lat="42.800835371017456" lon="0.3915488719940186">
        <ele>1372.0996437186982</ele>
        <time>2021-08-02T22:53:12.826Z</time>
      </trkpt>
      <trkpt lat="42.80094265937805" lon="0.3914415836334229">
        <ele>1373.9636770546676</ele>
        <time>2021-08-02T22:53:24.122Z</time>
      </trkpt>
      <trkpt lat="42.80098565854132" lon="0.3913450241088867">
        <ele>1375.8267501133462</ele>
        <time>2021-08-02T22:53:35.420Z</time>
      </trkpt>
      <trkpt lat="42.801103591918945" lon="0.3908514976501465">
        <ele>1377.992777635765</ele>
        <time>2021-08-02T22:53:46.724Z</time>
      </trkpt>
      <trkpt lat="42.80124306678772" lon="0.3906261920928955">
        <ele>1379.872425492578</ele>
        <time>2021-08-02T22:53:58.031Z</time>
      </trkpt>
      <trkpt lat="42.80148983001709" lon="0.390465259552002">
        <ele>1381.5892268780744</ele>
        <time>2021-08-02T22:54:09.343Z</time>
      </trkpt>
      <trkpt lat="42.801629304885864" lon="0.3903365135192871">
        <ele>1383.3488130522603</ele>
        <time>2021-08-02T22:54:20.657Z</time>
      </trkpt>
      <trkpt lat="42.8017258644104" lon="0.3902292251586914">
        <ele>1385.1040469751283</ele>
        <time>2021-08-02T22:54:31.973Z</time>
      </trkpt>
      <trkpt lat="42.80189752578735" lon="0.389939546585083">
        <ele>1386.9196540555445</ele>
        <time>2021-08-02T22:54:43.294Z</time>
      </trkpt>
      <trkpt lat="42.80231595039368" lon="0.3890061378479004">
        <ele>1389.1377114489364</ele>
        <time>2021-08-02T22:54:54.628Z</time>
      </trkpt>
      <trkpt lat="42.80248761177063" lon="0.3887271881103516">
        <ele>1390.8723836053184</ele>
        <time>2021-08-02T22:55:05.966Z</time>
      </trkpt>
      <trkpt lat="42.80270227231085" lon="0.3884482383728027">
        <ele>1392.6570522703282</ele>
        <time>2021-08-02T22:55:17.309Z</time>
      </trkpt>
      <trkpt lat="42.80273445881903" lon="0.388416051864624">
        <ele>1394.2818598714666</ele>
        <time>2021-08-02T22:55:28.652Z</time>
      </trkpt>
      <trkpt lat="42.80305624008179" lon="0.3882336616516113">
        <ele>1395.846835168716</ele>
        <time>2021-08-02T22:55:40.001Z</time>
      </trkpt>
      <trkpt lat="42.80331373214722" lon="0.3881692886352539">
        <ele>1397.279662580549</ele>
        <time>2021-08-02T22:55:51.354Z</time>
      </trkpt>
      <trkpt lat="42.80352830886841" lon="0.3881371021270752">
        <ele>1398.80789856803</ele>
        <time>2021-08-02T22:56:02.711Z</time>
      </trkpt>
      <trkpt lat="42.80356049537659" lon="0.3880834579467773">
        <ele>1400.392670922357</ele>
        <time>2021-08-02T22:56:14.068Z</time>
      </trkpt>
      <trkpt lat="42.80357130803168" lon="0.3880298137664795">
        <ele>1401.952097429647</ele>
        <time>2021-08-02T22:56:25.426Z</time>
      </trkpt>
      <trkpt lat="42.80354976654053" lon="0.3879868984222412">
        <ele>1403.4687860362346</ele>
        <time>2021-08-02T22:56:36.785Z</time>
      </trkpt>
      <trkpt lat="42.80348539352417" lon="0.3879439830780029">
        <ele>1404.9259041129712</ele>
        <time>2021-08-02T22:56:48.145Z</time>
      </trkpt>
      <trkpt lat="42.803388833999634" lon="0.3879654407501221">
        <ele>1406.31744441936</ele>
        <time>2021-08-02T22:56:59.506Z</time>
      </trkpt>
      <trkpt lat="42.80320652760565" lon="0.3880298137664795">
        <ele>1407.7934993950305</ele>
        <time>2021-08-02T22:57:10.870Z</time>
      </trkpt>
      <trkpt lat="42.802841663360596" lon="0.3881692886352539">
        <ele>1409.294659260803</ele>
        <time>2021-08-02T22:57:22.240Z</time>
      </trkpt>
      <trkpt lat="42.80245542526245" lon="0.3883516788482666">
        <ele>1410.8191681371418</ele>
        <time>2021-08-02T22:57:33.617Z</time>
      </trkpt>
      <trkpt lat="42.80230522155762" lon="0.3884804248809814">
        <ele>1412.2595744069101</ele>
        <time>2021-08-02T22:57:44.997Z</time>
      </trkpt>
      <trkpt lat="42.80194044113159" lon="0.3888773918151855">
        <ele>1413.6273476031838</ele>
        <time>2021-08-02T22:57:56.384Z</time>
      </trkpt>
      <trkpt lat="42.80180096626282" lon="0.3890061378479004">
        <ele>1415.0217541627792</ele>
        <time>2021-08-02T22:58:07.774Z</time>
      </trkpt>
      <trkpt lat="42.80143618583679" lon="0.3892421722412109">
        <ele>1416.4380787897567</ele>
        <time>2021-08-02T22:58:19.170Z</time>
      </trkpt>
      <trkpt lat="42.80129671096802" lon="0.3893065452575684">
        <ele>1417.8174011192086</ele>
        <time>2021-08-02T22:58:30.569Z</time>
      </trkpt>
      <trkpt lat="42.801092863082886" lon="0.3893601894378662">
        <ele>1419.2401514238263</ele>
        <time>2021-08-02T22:58:41.971Z</time>
      </trkpt>
      <trkpt lat="42.80044913291931" lon="0.3897249698638916">
        <ele>1420.7146936182608</ele>
        <time>2021-08-02T22:58:53.384Z</time>
      </trkpt>
      <trkpt lat="42.80022382736206" lon="0.3898000717163086">
        <ele>1422.2008216341644</ele>
        <time>2021-08-02T22:59:04.801Z</time>
      </trkpt>
      <trkpt lat="42.79990196228027" lon="0.389864444732666">
        <ele>1423.6494464827833</ele>
        <time>2021-08-02T22:59:16.223Z</time>
      </trkpt>
      <trkpt lat="42.79978394508362" lon="0.389939546585083">
        <ele>1424.8937625812662</ele>
        <time>2021-08-02T22:59:27.647Z</time>
      </trkpt>
      <trkpt lat="42.79967665672302" lon="0.3900468349456787">
        <ele>1426.0916708279592</ele>
        <time>2021-08-02T22:59:39.073Z</time>
      </trkpt>
      <trkpt lat="42.799676740542054" lon="0.3900468349456787">
        <ele>1427.3813660825751</ele>
        <time>2021-08-02T22:59:50.499Z</time>
      </trkpt>
      <trkpt lat="42.799644470214844" lon="0.3900790214538574">
        <ele>1428.6395747528013</ele>
        <time>2021-08-02T23:00:01.926Z</time>
      </trkpt>
      <trkpt lat="42.79950499534607" lon="0.3901112079620361">
        <ele>1429.9331851805607</ele>
        <time>2021-08-02T23:00:13.355Z</time>
      </trkpt>
      <trkpt lat="42.799376249313354" lon="0.390089750289917">
        <ele>1431.281499122649</ele>
        <time>2021-08-02T23:00:24.786Z</time>
      </trkpt>
      <trkpt lat="42.79868960380554" lon="0.3898108005523682">
        <ele>1432.8945463030675</ele>
        <time>2021-08-02T23:00:36.229Z</time>
      </trkpt>
      <trkpt lat="42.798582315444946" lon="0.3897035121917725">
        <ele>1434.284780269593</ele>
        <time>2021-08-02T23:00:47.674Z</time>
      </trkpt>
      <trkpt lat="42.79856094159186" lon="0.3896176815032959">
        <ele>1435.6366590913156</ele>
        <time>2021-08-02T23:00:59.120Z</time>
      </trkpt>
      <trkpt lat="42.79850721359253" lon="0.3893280029296875">
        <ele>1437.0957602608366</ele>
        <time>2021-08-02T23:01:10.570Z</time>
      </trkpt>
      <trkpt lat="42.79843211174011" lon="0.3890812397003174">
        <ele>1438.5152451351642</ele>
        <time>2021-08-02T23:01:22.023Z</time>
      </trkpt>
      <trkpt lat="42.79827117919922" lon="0.3888022899627686">
        <ele>1439.9162935291101</ele>
        <time>2021-08-02T23:01:33.480Z</time>
      </trkpt>
      <trkpt lat="42.79793858528137" lon="0.388340950012207">
        <ele>1441.3141617124047</ele>
        <time>2021-08-02T23:01:44.944Z</time>
      </trkpt>
      <trkpt lat="42.79790950007737" lon="0.388304153457284">
        <ele>1442.5509461596648</ele>
        <time>2021-08-02T23:01:56.409Z</time>
      </trkpt>
      <trkpt lat="42.797909416258335" lon="0.3883039020001888">
        <ele>1443.765311854393</ele>
        <time>2021-08-02T23:02:07.874Z</time>
      </trkpt>
      <trkpt lat="42.79793858528137" lon="0.388340950012207">
        <ele>1444.9600170741278</ele>
        <time>2021-08-02T23:02:19.340Z</time>
      </trkpt>
      <trkpt lat="42.79799222946167" lon="0.3883087635040283">
        <ele>1446.2260636989176</ele>
        <time>2021-08-02T23:02:30.807Z</time>
      </trkpt>
      <trkpt lat="42.79807806015015" lon="0.3883087635040283">
        <ele>1447.486570429442</ele>
        <time>2021-08-02T23:02:42.275Z</time>
      </trkpt>
      <trkpt lat="42.79828190803528" lon="0.3884375095367432">
        <ele>1448.7146180282762</ele>
        <time>2021-08-02T23:02:53.747Z</time>
      </trkpt>
      <trkpt lat="42.79899001121521" lon="0.3889954090118408">
        <ele>1449.7526540402946</ele>
        <time>2021-08-02T23:03:05.232Z</time>
      </trkpt>
      <trkpt lat="42.79906511306763" lon="0.3890275955200195">
        <ele>1451.0027589385925</ele>
        <time>2021-08-02T23:03:16.718Z</time>
      </trkpt>
      <trkpt lat="42.7991509437561" lon="0.3890061378479004">
        <ele>1452.340405964172</ele>
        <time>2021-08-02T23:03:28.205Z</time>
      </trkpt>
      <trkpt lat="42.79923677444458" lon="0.3889524936676025">
        <ele>1453.7299267356266</ele>
        <time>2021-08-02T23:03:39.694Z</time>
      </trkpt>
      <trkpt lat="42.79949426651001" lon="0.3885769844055176">
        <ele>1455.3646238945794</ele>
        <time>2021-08-02T23:03:51.189Z</time>
      </trkpt>
      <trkpt lat="42.799601554870605" lon="0.3884482383728027">
        <ele>1456.8385785902058</ele>
        <time>2021-08-02T23:04:02.686Z</time>
      </trkpt>
      <trkpt lat="42.799826860427856" lon="0.3883087635040283">
        <ele>1458.3585709961426</ele>
        <time>2021-08-02T23:04:14.187Z</time>
      </trkpt>
      <trkpt lat="42.79999852180481" lon="0.3882551193237305">
        <ele>1459.8560143640364</ele>
        <time>2021-08-02T23:04:25.691Z</time>
      </trkpt>
      <trkpt lat="42.80049204826355" lon="0.3882014751434326">
        <ele>1461.2344743787235</ele>
        <time>2021-08-02T23:04:37.203Z</time>
      </trkpt>
      <trkpt lat="42.800856828689575" lon="0.3880298137664795">
        <ele>1462.9720693184904</ele>
        <time>2021-08-02T23:04:48.721Z</time>
      </trkpt>
      <trkpt lat="42.801114320755005" lon="0.3879761695861816">
        <ele>1464.4626830437562</ele>
        <time>2021-08-02T23:05:00.243Z</time>
      </trkpt>
      <trkpt lat="42.80117869377136" lon="0.3879225254058838">
        <ele>1466.1878975927657</ele>
        <time>2021-08-02T23:05:11.767Z</time>
      </trkpt>
      <trkpt lat="42.80118942260742" lon="0.3878474235534668">
        <ele>1468.0664203298386</ele>
        <time>2021-08-02T23:05:23.291Z</time>
      </trkpt>
      <trkpt lat="42.801146507263184" lon="0.3877830505371094">
        <ele>1470.0595808741296</ele>
        <time>2021-08-02T23:05:34.816Z</time>
      </trkpt>
      <trkpt lat="42.80107140541077" lon="0.3877508640289307">
        <ele>1472.1195462185829</ele>
        <time>2021-08-02T23:05:46.343Z</time>
      </trkpt>
      <trkpt lat="42.800599336624146" lon="0.3879225254058838">
        <ele>1474.181550280195</ele>
        <time>2021-08-02T23:05:57.878Z</time>
      </trkpt>
      <trkpt lat="42.80047059059143" lon="0.3879332542419434">
        <ele>1476.2967041518575</ele>
        <time>2021-08-02T23:06:09.415Z</time>
      </trkpt>
      <trkpt lat="42.800363302230835" lon="0.3878903388977051">
        <ele>1478.544837664243</ele>
        <time>2021-08-02T23:06:20.953Z</time>
      </trkpt>
      <trkpt lat="42.800095081329346" lon="0.3876328468322754">
        <ele>1481.1659100032111</ele>
        <time>2021-08-02T23:06:32.497Z</time>
      </trkpt>
      <trkpt lat="42.79994487762451" lon="0.3875255584716797">
        <ele>1483.6277171053198</ele>
        <time>2021-08-02T23:06:44.043Z</time>
      </trkpt>
      <trkpt lat="42.79973030090332" lon="0.3874504566192627">
        <ele>1486.115774652307</ele>
        <time>2021-08-02T23:06:55.593Z</time>
      </trkpt>
      <trkpt lat="42.79929041862488" lon="0.387418270111084">
        <ele>1488.6524805606305</ele>
        <time>2021-08-02T23:07:07.150Z</time>
      </trkpt>
      <trkpt lat="42.7991509437561" lon="0.3873753547668457">
        <ele>1491.1606711818563</ele>
        <time>2021-08-02T23:07:18.709Z</time>
      </trkpt>
      <trkpt lat="42.79902219772339" lon="0.3873109817504883">
        <ele>1493.6992842597479</ele>
        <time>2021-08-02T23:07:30.270Z</time>
      </trkpt>
      <trkpt lat="42.79844284057617" lon="0.3867530822753906">
        <ele>1496.6612449722302</ele>
        <time>2021-08-02T23:07:41.843Z</time>
      </trkpt>
      <trkpt lat="42.79794931411743" lon="0.3862380981445312">
        <ele>1499.4202834713205</ele>
        <time>2021-08-02T23:07:53.426Z</time>
      </trkpt>
      <trkpt lat="42.79782056808472" lon="0.386044979095459">
        <ele>1502.172092880337</ele>
        <time>2021-08-02T23:08:05.012Z</time>
      </trkpt>
      <trkpt lat="42.79768109321594" lon="0.3858840465545654">
        <ele>1504.886485344205</ele>
        <time>2021-08-02T23:08:16.601Z</time>
      </trkpt>
      <trkpt lat="42.79748797416687" lon="0.3857338428497314">
        <ele>1507.5649449555372</ele>
        <time>2021-08-02T23:08:28.193Z</time>
      </trkpt>
      <trkpt lat="42.79731631278992" lon="0.3855621814727783">
        <ele>1510.3262084534445</ele>
        <time>2021-08-02T23:08:39.789Z</time>
      </trkpt>
      <trkpt lat="42.79702663421631" lon="0.3851222991943359">
        <ele>1513.2287025041496</ele>
        <time>2021-08-02T23:08:51.392Z</time>
      </trkpt>
      <trkpt lat="42.79674768447876" lon="0.3846609592437744">
        <ele>1516.1231756686507</ele>
        <time>2021-08-02T23:09:03.002Z</time>
      </trkpt>
      <trkpt lat="42.796597480773926" lon="0.3844785690307617">
        <ele>1518.8923757823625</ele>
        <time>2021-08-02T23:09:14.615Z</time>
      </trkpt>
      <trkpt lat="42.79649019241333" lon="0.3843927383422852">
        <ele>1521.5787068350155</ele>
        <time>2021-08-02T23:09:26.230Z</time>
      </trkpt>
      <trkpt lat="42.796393632888794" lon="0.3843605518341064">
        <ele>1524.1987994405508</ele>
        <time>2021-08-02T23:09:37.846Z</time>
      </trkpt>
      <trkpt lat="42.79629707336426" lon="0.384371280670166">
        <ele>1526.7660774073138</ele>
        <time>2021-08-02T23:09:49.464Z</time>
      </trkpt>
      <trkpt lat="42.79595375061035" lon="0.3845107555389404">
        <ele>1529.244237358188</ele>
        <time>2021-08-02T23:10:01.088Z</time>
      </trkpt>
      <trkpt lat="42.79556751251221" lon="0.3846287727355957">
        <ele>1531.4868482242039</ele>
        <time>2021-08-02T23:10:12.718Z</time>
      </trkpt>
      <trkpt lat="42.79548168182373" lon="0.3846502304077148">
        <ele>1533.915742256587</ele>
        <time>2021-08-02T23:10:24.350Z</time>
      </trkpt>
      <trkpt lat="42.795385122299194" lon="0.3846395015716553">
        <ele>1536.3606180887687</ele>
        <time>2021-08-02T23:10:35.983Z</time>
      </trkpt>
      <trkpt lat="42.79529929161072" lon="0.3845643997192383">
        <ele>1538.8775641095758</ele>
        <time>2021-08-02T23:10:47.618Z</time>
      </trkpt>
      <trkpt lat="42.79520273208618" lon="0.384371280670166">
        <ele>1541.5152646357196</ele>
        <time>2021-08-02T23:10:59.255Z</time>
      </trkpt>
      <trkpt lat="42.794880867004395" lon="0.3838992118835449">
        <ele>1544.2847989792513</ele>
        <time>2021-08-02T23:11:10.900Z</time>
      </trkpt>
      <trkpt lat="42.79473066329956" lon="0.3835558891296387">
        <ele>1547.0951647454776</ele>
        <time>2021-08-02T23:11:22.550Z</time>
      </trkpt>
      <trkpt lat="42.79454827308655" lon="0.3833842277526855">
        <ele>1549.6002302459383</ele>
        <time>2021-08-02T23:11:34.203Z</time>
      </trkpt>
      <trkpt lat="42.79444098472595" lon="0.3833413124084473">
        <ele>1551.92540579562</ele>
        <time>2021-08-02T23:11:45.858Z</time>
      </trkpt>
      <trkpt lat="42.794140577316284" lon="0.3833520412445068">
        <ele>1553.9893390049288</ele>
        <time>2021-08-02T23:11:57.518Z</time>
      </trkpt>
      <trkpt lat="42.79402256011963" lon="0.3833198547363281">
        <ele>1556.2661661465822</ele>
        <time>2021-08-02T23:12:09.180Z</time>
      </trkpt>
      <trkpt lat="42.793861627578735" lon="0.383223295211792">
        <ele>1558.5842647478262</ele>
        <time>2021-08-02T23:12:20.845Z</time>
      </trkpt>
      <trkpt lat="42.79330372810364" lon="0.3829336166381836">
        <ele>1560.9452889411818</ele>
        <time>2021-08-02T23:12:32.519Z</time>
      </trkpt>
      <trkpt lat="42.79316425323486" lon="0.3827619552612305">
        <ele>1563.1173413772613</ele>
        <time>2021-08-02T23:12:44.196Z</time>
      </trkpt>
      <trkpt lat="42.79302477836609" lon="0.3824937343597412">
        <ele>1565.340270995722</ele>
        <time>2021-08-02T23:12:55.877Z</time>
      </trkpt>
      <trkpt lat="42.792863845825195" lon="0.3821396827697754">
        <ele>1567.5658483400111</ele>
        <time>2021-08-02T23:13:07.563Z</time>
      </trkpt>
      <trkpt lat="42.79276728630066" lon="0.3818821907043457">
        <ele>1569.5667603350248</ele>
        <time>2021-08-02T23:13:19.252Z</time>
      </trkpt>
      <trkpt lat="42.79268145561218" lon="0.3817105293273926">
        <ele>1571.39664652607</ele>
        <time>2021-08-02T23:13:30.944Z</time>
      </trkpt>
      <trkpt lat="42.792649269104004" lon="0.3816568851470947">
        <ele>1573.061410852477</ele>
        <time>2021-08-02T23:13:42.637Z</time>
      </trkpt>
      <trkpt lat="42.792649352923036" lon="0.3816568851470947">
        <ele>1574.5914390648456</ele>
        <time>2021-08-02T23:13:54.330Z</time>
      </trkpt>
      <trkpt lat="42.79258489608765" lon="0.3815925121307373">
        <ele>1575.9888187951647</ele>
        <time>2021-08-02T23:14:06.024Z</time>
      </trkpt>
      <trkpt lat="42.79243469238281" lon="0.3815174102783203">
        <ele>1577.2930781269133</ele>
        <time>2021-08-02T23:14:17.720Z</time>
      </trkpt>
      <trkpt lat="42.79205918312073" lon="0.3812706470489502">
        <ele>1578.6495895559926</ele>
        <time>2021-08-02T23:14:29.423Z</time>
      </trkpt>
      <trkpt lat="42.79191970825195" lon="0.3811526298522949">
        <ele>1579.721459910567</ele>
        <time>2021-08-02T23:14:41.129Z</time>
      </trkpt>
      <trkpt lat="42.791866064071655" lon="0.3810346126556396">
        <ele>1580.634694671435</ele>
        <time>2021-08-02T23:14:52.836Z</time>
      </trkpt>
      <trkpt lat="42.791866064071655" lon="0.3809487819671631">
        <ele>1581.35663447882</ele>
        <time>2021-08-02T23:15:04.544Z</time>
      </trkpt>
      <trkpt lat="42.791887605562806" lon="0.3808844089508057">
        <ele>1581.8894592818203</ele>
        <time>2021-08-02T23:15:16.253Z</time>
      </trkpt>
      <trkpt lat="42.79200553894043" lon="0.3808629512786865">
        <ele>1582.2109361046803</ele>
        <time>2021-08-02T23:15:27.964Z</time>
      </trkpt>
      <trkpt lat="42.792348861694336" lon="0.3810346126556396">
        <ele>1582.132078276581</ele>
        <time>2021-08-02T23:15:39.681Z</time>
      </trkpt>
      <trkpt lat="42.79234894551337" lon="0.3810346126556396">
        <ele>1582.0724570890916</ele>
        <time>2021-08-02T23:15:51.398Z</time>
      </trkpt>
      <trkpt lat="42.79271364212036" lon="0.3811526298522949">
        <ele>1581.700254883404</ele>
        <time>2021-08-02T23:16:03.121Z</time>
      </trkpt>
      <trkpt lat="42.79304623603821" lon="0.3811311721801758">
        <ele>1581.338818040939</ele>
        <time>2021-08-02T23:16:14.849Z</time>
      </trkpt>
      <trkpt lat="42.79318571090698" lon="0.3811633586883545">
        <ele>1580.751926489658</ele>
        <time>2021-08-02T23:16:26.580Z</time>
      </trkpt>
      <trkpt lat="42.793368101119995" lon="0.3813028335571289">
        <ele>1579.9912746629545</ele>
        <time>2021-08-02T23:16:38.314Z</time>
      </trkpt>
      <trkpt lat="42.79358267784119" lon="0.3815174102783203">
        <ele>1579.0310284316556</ele>
        <time>2021-08-02T23:16:50.052Z</time>
      </trkpt>
      <trkpt lat="42.79375433921814" lon="0.3816139698028564">
        <ele>1577.8453746067578</ele>
        <time>2021-08-02T23:17:01.793Z</time>
      </trkpt>
      <trkpt lat="42.79396891593933" lon="0.3816461563110352">
        <ele>1576.4336612692491</ele>
        <time>2021-08-02T23:17:13.538Z</time>
      </trkpt>
      <trkpt lat="42.79417276382446" lon="0.381624698638916">
        <ele>1574.8199095309506</ele>
        <time>2021-08-02T23:17:25.286Z</time>
      </trkpt>
      <trkpt lat="42.79474139213562" lon="0.3814208507537842">
        <ele>1573.127255481519</ele>
        <time>2021-08-02T23:17:37.043Z</time>
      </trkpt>
      <trkpt lat="42.794902324676514" lon="0.3813028335571289">
        <ele>1571.17506118046</ele>
        <time>2021-08-02T23:17:48.803Z</time>
      </trkpt>
      <trkpt lat="42.795138359069824" lon="0.3810882568359375">
        <ele>1568.7533632139011</ele>
        <time>2021-08-02T23:18:00.568Z</time>
      </trkpt>
      <trkpt lat="42.795342206954956" lon="0.3809702396392822">
        <ele>1566.2797160184455</ele>
        <time>2021-08-02T23:18:12.336Z</time>
      </trkpt>
      <trkpt lat="42.79552459716797" lon="0.3809595108032227">
        <ele>1563.8482703440043</ele>
        <time>2021-08-02T23:18:24.107Z</time>
      </trkpt>
      <trkpt lat="42.79568552970886" lon="0.3809916973114014">
        <ele>1561.3794303533118</ele>
        <time>2021-08-02T23:18:35.881Z</time>
      </trkpt>
      <trkpt lat="42.79582500457764" lon="0.3810667991638184">
        <ele>1558.8528056604496</ele>
        <time>2021-08-02T23:18:47.657Z</time>
      </trkpt>
      <trkpt lat="42.79594302177429" lon="0.3810667991638184">
        <ele>1556.115511284557</ele>
        <time>2021-08-02T23:18:59.435Z</time>
      </trkpt>
      <trkpt lat="42.7962863445282" lon="0.3809165954589844">
        <ele>1553.1081374435325</ele>
        <time>2021-08-02T23:19:11.219Z</time>
      </trkpt>
      <trkpt lat="42.79654383659363" lon="0.3808844089508057">
        <ele>1550.1423367892592</ele>
        <time>2021-08-02T23:19:23.007Z</time>
      </trkpt>
      <trkpt lat="42.79670476913452" lon="0.3807985782623291">
        <ele>1546.9945119247034</ele>
        <time>2021-08-02T23:19:34.798Z</time>
      </trkpt>
      <trkpt lat="42.79681205749512" lon="0.3806591033935547">
        <ele>1543.7829836587246</ele>
        <time>2021-08-02T23:19:46.591Z</time>
      </trkpt>
      <trkpt lat="42.79703736305237" lon="0.3799939155578613">
        <ele>1540.1700642721858</ele>
        <time>2021-08-02T23:19:58.393Z</time>
      </trkpt>
      <trkpt lat="42.79704809188843" lon="0.3798007965087891">
        <ele>1536.846032121598</ele>
        <time>2021-08-02T23:20:10.197Z</time>
      </trkpt>
      <trkpt lat="42.79693007469177" lon="0.3792321681976318">
        <ele>1533.1271576432202</ele>
        <time>2021-08-02T23:20:22.008Z</time>
      </trkpt>
      <trkpt lat="42.796897888183594" lon="0.3788459300994873">
        <ele>1529.734145287756</ele>
        <time>2021-08-02T23:20:33.824Z</time>
      </trkpt>
      <trkpt lat="42.796897888183594" lon="0.3784167766571045">
        <ele>1526.413777188985</ele>
        <time>2021-08-02T23:20:45.645Z</time>
      </trkpt>
      <trkpt lat="42.79697299003601" lon="0.3779661655426025">
        <ele>1523.2084203413774</ele>
        <time>2021-08-02T23:20:57.471Z</time>
      </trkpt>
      <trkpt lat="42.79699444770813" lon="0.3776121139526367">
        <ele>1519.96383405412</ele>
        <time>2021-08-02T23:21:09.301Z</time>
      </trkpt>
      <trkpt lat="42.79698371887207" lon="0.3773438930511475">
        <ele>1516.795686702668</ele>
        <time>2021-08-02T23:21:21.134Z</time>
      </trkpt>
      <trkpt lat="42.79695153236389" lon="0.3770220279693604">
        <ele>1513.663390801304</ele>
        <time>2021-08-02T23:21:32.971Z</time>
      </trkpt>
      <trkpt lat="42.79695153236389" lon="0.3768503665924072">
        <ele>1510.6973501966218</ele>
        <time>2021-08-02T23:21:44.810Z</time>
      </trkpt>
      <trkpt lat="42.79705882072449" lon="0.3763997554779053">
        <ele>1507.8414277231968</ele>
        <time>2021-08-02T23:21:56.655Z</time>
      </trkpt>
      <trkpt lat="42.79717683792114" lon="0.3761959075927734">
        <ele>1505.250394707342</ele>
        <time>2021-08-02T23:22:08.503Z</time>
      </trkpt>
      <trkpt lat="42.797605991363525" lon="0.3757989406585693">
        <ele>1502.9361102303076</ele>
        <time>2021-08-02T23:22:20.359Z</time>
      </trkpt>
      <trkpt lat="42.79775619506836" lon="0.3755414485931396">
        <ele>1500.3572165842913</ele>
        <time>2021-08-02T23:22:32.219Z</time>
      </trkpt>
      <trkpt lat="42.79796004295349" lon="0.375058650970459">
        <ele>1497.7040930924597</ele>
        <time>2021-08-02T23:22:44.086Z</time>
      </trkpt>
      <trkpt lat="42.7981960773468" lon="0.3743720054626465">
        <ele>1494.9192524799964</ele>
        <time>2021-08-02T23:22:55.962Z</time>
      </trkpt>
      <trkpt lat="42.79832482337952" lon="0.3742218017578125">
        <ele>1492.7385129309894</ele>
        <time>2021-08-02T23:23:07.840Z</time>
      </trkpt>
      <trkpt lat="42.79844284057617" lon="0.3741359710693359">
        <ele>1490.7172123471523</ele>
        <time>2021-08-02T23:23:19.720Z</time>
      </trkpt>
      <trkpt lat="42.79872179031372" lon="0.3740930557250977">
        <ele>1489.0207747684076</ele>
        <time>2021-08-02T23:23:31.605Z</time>
      </trkpt>
      <trkpt lat="42.79901146888733" lon="0.3740286827087402">
        <ele>1487.2844813547822</ele>
        <time>2021-08-02T23:23:43.495Z</time>
      </trkpt>
      <trkpt lat="42.7992582321167" lon="0.3738999366760254">
        <ele>1485.4954678641077</ele>
        <time>2021-08-02T23:23:55.389Z</time>
      </trkpt>
      <trkpt lat="42.79947280883789" lon="0.3737175464630127">
        <ele>1483.6328353037654</ele>
        <time>2021-08-02T23:24:07.287Z</time>
      </trkpt>
      <trkpt lat="42.79967665672302" lon="0.3736209869384766">
        <ele>1481.9987382280146</ele>
        <time>2021-08-02T23:24:19.188Z</time>
      </trkpt>
      <trkpt lat="42.800148725509644" lon="0.3735566139221191">
        <ele>1480.6805973558671</ele>
        <time>2021-08-02T23:24:31.097Z</time>
      </trkpt>
      <trkpt lat="42.8002667427063" lon="0.373460054397583">
        <ele>1479.226255627635</ele>
        <time>2021-08-02T23:24:43.008Z</time>
      </trkpt>
      <trkpt lat="42.800374031066895" lon="0.3732776641845703">
        <ele>1477.6966603740045</ele>
        <time>2021-08-02T23:24:54.922Z</time>
      </trkpt>
      <trkpt lat="42.800599336624146" lon="0.3722798824310303">
        <ele>1475.5431288226623</ele>
        <time>2021-08-02T23:25:06.848Z</time>
      </trkpt>
      <trkpt lat="42.800620794296265" lon="0.372086763381958">
        <ele>1474.2216018680574</ele>
        <time>2021-08-02T23:25:18.777Z</time>
      </trkpt>
      <trkpt lat="42.800588607788086" lon="0.3716039657592773">
        <ele>1472.7123494706993</ele>
        <time>2021-08-02T23:25:30.711Z</time>
      </trkpt>
      <trkpt lat="42.800620794296265" lon="0.3711962699890137">
        <ele>1471.5124641431435</ele>
        <time>2021-08-02T23:25:42.650Z</time>
      </trkpt>
      <trkpt lat="42.80069589614868" lon="0.3708207607269287">
        <ele>1470.4283619713574</ele>
        <time>2021-08-02T23:25:54.594Z</time>
      </trkpt>
      <trkpt lat="42.80081391334534" lon="0.370563268661499">
        <ele>1469.5269917804803</ele>
        <time>2021-08-02T23:26:06.541Z</time>
      </trkpt>
      <trkpt lat="42.80089974403381" lon="0.3704667091369629">
        <ele>1468.7429080505472</ele>
        <time>2021-08-02T23:26:18.490Z</time>
      </trkpt>
      <trkpt lat="42.80100703239441" lon="0.3704452514648438">
        <ele>1467.947619897322</ele>
        <time>2021-08-02T23:26:30.441Z</time>
      </trkpt>
      <trkpt lat="42.801114320755005" lon="0.370488166809082">
        <ele>1467.2759587544426</ele>
        <time>2021-08-02T23:26:42.394Z</time>
      </trkpt>
      <trkpt lat="42.80131816864014" lon="0.370713472366333">
        <ele>1466.8206454971978</ele>
        <time>2021-08-02T23:26:54.351Z</time>
      </trkpt>
      <trkpt lat="42.80173659324646" lon="0.3714644908905029">
        <ele>1466.9415842276399</ele>
        <time>2021-08-02T23:27:06.319Z</time>
      </trkpt>
      <trkpt lat="42.80182242393494" lon="0.3715181350708008">
        <ele>1466.3477865296798</ele>
        <time>2021-08-02T23:27:18.288Z</time>
      </trkpt>
      <trkpt lat="42.80191898345947" lon="0.3715181350708008">
        <ele>1465.6747769883093</ele>
        <time>2021-08-02T23:27:30.259Z</time>
      </trkpt>
      <trkpt lat="42.802112102508545" lon="0.3714108467102051">
        <ele>1464.8992100071061</ele>
        <time>2021-08-02T23:27:42.233Z</time>
      </trkpt>
      <trkpt lat="42.80240178108215" lon="0.3711748123168945">
        <ele>1463.960725321461</ele>
        <time>2021-08-02T23:27:54.213Z</time>
      </trkpt>
      <trkpt lat="42.80250906944275" lon="0.3710246086120605">
        <ele>1462.9546772033477</ele>
        <time>2021-08-02T23:28:06.195Z</time>
      </trkpt>
      <trkpt lat="42.80282020568848" lon="0.3703808784484863">
        <ele>1461.6224078636064</ele>
        <time>2021-08-02T23:28:18.186Z</time>
      </trkpt>
      <trkpt lat="42.80297040939331" lon="0.3700160980224609">
        <ele>1460.551999896509</ele>
        <time>2021-08-02T23:28:30.182Z</time>
      </trkpt>
      <trkpt lat="42.80306696891785" lon="0.369865894317627">
        <ele>1459.5655397571425</ele>
        <time>2021-08-02T23:28:42.180Z</time>
      </trkpt>
      <trkpt lat="42.80320644378662" lon="0.3697800636291504">
        <ele>1458.6246498029927</ele>
        <time>2021-08-02T23:28:54.181Z</time>
      </trkpt>
      <trkpt lat="42.803356647491455" lon="0.3697264194488525">
        <ele>1457.6435265735577</ele>
        <time>2021-08-02T23:29:06.184Z</time>
      </trkpt>
      <trkpt lat="42.80353903770447" lon="0.3693509101867676">
        <ele>1455.9986288843738</ele>
        <time>2021-08-02T23:29:18.193Z</time>
      </trkpt>
      <trkpt lat="42.803614139556885" lon="0.3692543506622314">
        <ele>1454.5527841375874</ele>
        <time>2021-08-02T23:29:30.203Z</time>
      </trkpt>
      <trkpt lat="42.80376434326172" lon="0.3691685199737549">
        <ele>1453.0610630500005</ele>
        <time>2021-08-02T23:29:42.216Z</time>
      </trkpt>
      <trkpt lat="42.8044403437525" lon="0.3689324855804443">
        <ele>1451.858374318579</ele>
        <time>2021-08-02T23:29:54.240Z</time>
      </trkpt>
      <trkpt lat="42.80445107258856" lon="0.3689217567443848">
        <ele>1450.1790188099003</ele>
        <time>2021-08-02T23:30:06.264Z</time>
      </trkpt>
      <trkpt lat="42.80452609062195" lon="0.3689002990722656">
        <ele>1448.395505974732</ele>
        <time>2021-08-02T23:30:18.290Z</time>
      </trkpt>
      <trkpt lat="42.8046977519989" lon="0.3687930107116699">
        <ele>1446.3906136691144</ele>
        <time>2021-08-02T23:30:30.319Z</time>
      </trkpt>
      <trkpt lat="42.804847955703735" lon="0.3686642646789551">
        <ele>1444.197228219693</ele>
        <time>2021-08-02T23:30:42.350Z</time>
      </trkpt>
      <trkpt lat="42.80503034591675" lon="0.3684389591217041">
        <ele>1441.7369110067107</ele>
        <time>2021-08-02T23:30:54.385Z</time>
      </trkpt>
      <trkpt lat="42.80550241470337" lon="0.3682029247283936">
        <ele>1439.4513388185208</ele>
        <time>2021-08-02T23:31:06.428Z</time>
      </trkpt>
      <trkpt lat="42.80566334724426" lon="0.3680527210235596">
        <ele>1436.9288335184629</ele>
        <time>2021-08-02T23:31:18.474Z</time>
      </trkpt>
      <trkpt lat="42.80580282211304" lon="0.367816686630249">
        <ele>1434.2079038793447</ele>
        <time>2021-08-02T23:31:30.524Z</time>
      </trkpt>
      <trkpt lat="42.805877923965454" lon="0.3674840927124023">
        <ele>1431.3559713013944</ele>
        <time>2021-08-02T23:31:42.578Z</time>
      </trkpt>
      <trkpt lat="42.80592083930969" lon="0.3669476509094238">
        <ele>1428.1779136464606</ele>
        <time>2021-08-02T23:31:54.639Z</time>
      </trkpt>
      <trkpt lat="42.80593156814575" lon="0.3664970397949219">
        <ele>1424.887512457717</ele>
        <time>2021-08-02T23:32:06.705Z</time>
      </trkpt>
      <trkpt lat="42.806113958358765" lon="0.3654563426971436">
        <ele>1421.7396915489044</ele>
        <time>2021-08-02T23:32:18.783Z</time>
      </trkpt>
      <trkpt lat="42.806156873703" lon="0.3650057315826416">
        <ele>1418.6382825802825</ele>
        <time>2021-08-02T23:32:30.867Z</time>
      </trkpt>
      <trkpt lat="42.80614614486694" lon="0.3643620014190674">
        <ele>1415.1325860158292</ele>
        <time>2021-08-02T23:32:42.958Z</time>
      </trkpt>
      <trkpt lat="42.80621060170233" lon="0.3642117977142334">
        <ele>1412.085605582213</ele>
        <time>2021-08-02T23:32:55.051Z</time>
      </trkpt>
      <trkpt lat="42.80623205937445" lon="0.3641796112060547">
        <ele>1408.9170482949853</ele>
        <time>2021-08-02T23:33:07.145Z</time>
      </trkpt>
      <trkpt lat="42.80629634857178" lon="0.3641045093536377">
        <ele>1405.6190893274286</ele>
        <time>2021-08-02T23:33:19.240Z</time>
      </trkpt>
      <trkpt lat="42.806382263079286" lon="0.3640508651733398">
        <ele>1402.2895997447054</ele>
        <time>2021-08-02T23:33:31.337Z</time>
      </trkpt>
      <trkpt lat="42.80717611312866" lon="0.3635680675506592">
        <ele>1399.1240353069843</ele>
        <time>2021-08-02T23:33:43.448Z</time>
      </trkpt>
      <trkpt lat="42.807369315996766" lon="0.3634929656982422">
        <ele>1395.786766704246</ele>
        <time>2021-08-02T23:33:55.562Z</time>
      </trkpt>
      <trkpt lat="42.80751943588257" lon="0.3634393215179443">
        <ele>1392.335623357364</ele>
        <time>2021-08-02T23:34:07.678Z</time>
      </trkpt>
      <trkpt lat="42.807841300964355" lon="0.3632247447967529">
        <ele>1388.439911478411</ele>
        <time>2021-08-02T23:34:19.800Z</time>
      </trkpt>
      <trkpt lat="42.80825972557068" lon="0.3630101680755615">
        <ele>1384.5252183176312</ele>
        <time>2021-08-02T23:34:31.929Z</time>
      </trkpt>
      <trkpt lat="42.80869960784912" lon="0.3628170490264893">
        <ele>1380.7480530859943</ele>
        <time>2021-08-02T23:34:44.066Z</time>
      </trkpt>
      <trkpt lat="42.80890345573425" lon="0.3626775741577148">
        <ele>1376.9422096448147</ele>
        <time>2021-08-02T23:34:56.206Z</time>
      </trkpt>
      <trkpt lat="42.809096574783325" lon="0.362473726272583">
        <ele>1373.1176092858796</ele>
        <time>2021-08-02T23:35:08.350Z</time>
      </trkpt>
      <trkpt lat="42.80939698219299" lon="0.3620553016662598">
        <ele>1369.1381034821889</ele>
        <time>2021-08-02T23:35:20.501Z</time>
      </trkpt>
      <trkpt lat="42.809568643569946" lon="0.3618514537811279">
        <ele>1365.3751882576435</ele>
        <time>2021-08-02T23:35:32.656Z</time>
      </trkpt>
      <trkpt lat="42.810362577438354" lon="0.3610038757324219">
        <ele>1361.296867273305</ele>
        <time>2021-08-02T23:35:44.827Z</time>
      </trkpt>
      <trkpt lat="42.81072735786438" lon="0.3605747222900391">
        <ele>1357.3939128424217</ele>
        <time>2021-08-02T23:35:57.006Z</time>
      </trkpt>
      <trkpt lat="42.81095266342163" lon="0.3603708744049072">
        <ele>1353.7962826851126</ele>
        <time>2021-08-02T23:36:09.189Z</time>
      </trkpt>
      <trkpt lat="42.811081409454346" lon="0.360177755355835">
        <ele>1350.2542564938012</ele>
        <time>2021-08-02T23:36:21.375Z</time>
      </trkpt>
      <trkpt lat="42.81190752983093" lon="0.3584825992584229">
        <ele>1345.7398162093577</ele>
        <time>2021-08-02T23:36:33.585Z</time>
      </trkpt>
      <trkpt lat="42.812079191207886" lon="0.3580105304718018">
        <ele>1341.894638832889</ele>
        <time>2021-08-02T23:36:45.801Z</time>
      </trkpt>
      <trkpt lat="42.812358140945435" lon="0.3572702407836914">
        <ele>1337.8925942354422</ele>
        <time>2021-08-02T23:36:58.027Z</time>
      </trkpt>
      <trkpt lat="42.812358224764466" lon="0.3572702407836914">
        <ele>1334.6044650228218</ele>
        <time>2021-08-02T23:37:10.253Z</time>
      </trkpt>
      <trkpt lat="42.81244397163391" lon="0.3571414947509766">
        <ele>1331.3448859263494</ele>
        <time>2021-08-02T23:37:22.481Z</time>
      </trkpt>
      <trkpt lat="42.812572717666626" lon="0.3570771217346191">
        <ele>1328.3413252192422</ele>
        <time>2021-08-02T23:37:34.711Z</time>
      </trkpt>
      <trkpt lat="42.81273365020752" lon="0.3570771217346191">
        <ele>1325.3947247592364</ele>
        <time>2021-08-02T23:37:46.944Z</time>
      </trkpt>
      <trkpt lat="42.81329154968262" lon="0.3571951389312744">
        <ele>1322.8927164769611</ele>
        <time>2021-08-02T23:37:59.186Z</time>
      </trkpt>
      <trkpt lat="42.81350612640381" lon="0.3572165966033936">
        <ele>1320.0575713021808</ele>
        <time>2021-08-02T23:38:11.431Z</time>
      </trkpt>
      <trkpt lat="42.813613414764404" lon="0.3572380542755127">
        <ele>1317.2614934642918</ele>
        <time>2021-08-02T23:38:23.678Z</time>
      </trkpt>
      <trkpt lat="42.81391382217407" lon="0.3573989868164062">
        <ele>1314.6765159334645</ele>
        <time>2021-08-02T23:38:35.930Z</time>
      </trkpt>
      <trkpt lat="42.81398900784552" lon="0.3574097156524658">
        <ele>1312.0057065197302</ele>
        <time>2021-08-02T23:38:48.183Z</time>
      </trkpt>
      <trkpt lat="42.81402111053467" lon="0.3574097156524658">
        <ele>1309.3945412522924</ele>
        <time>2021-08-02T23:39:00.437Z</time>
      </trkpt>
      <trkpt lat="42.814085483551025" lon="0.357356071472168">
        <ele>1306.7315846863796</ele>
        <time>2021-08-02T23:39:12.692Z</time>
      </trkpt>
      <trkpt lat="42.81413912773132" lon="0.3572380542755127">
        <ele>1304.0184777049235</ele>
        <time>2021-08-02T23:39:24.949Z</time>
      </trkpt>
      <trkpt lat="42.81425714492798" lon="0.3566372394561768">
        <ele>1300.875571781533</ele>
        <time>2021-08-02T23:39:37.213Z</time>
      </trkpt>
      <trkpt lat="42.81428933143616" lon="0.355982780456543">
        <ele>1297.8352207630992</ele>
        <time>2021-08-02T23:39:49.485Z</time>
      </trkpt>
      <trkpt lat="42.814375162124634" lon="0.3556394577026367">
        <ele>1295.38871433444</ele>
        <time>2021-08-02T23:40:01.761Z</time>
      </trkpt>
      <trkpt lat="42.81451463699341" lon="0.3553605079650879">
        <ele>1293.0229495637104</ele>
        <time>2021-08-02T23:40:14.041Z</time>
      </trkpt>
      <trkpt lat="42.81469702720642" lon="0.3551673889160156">
        <ele>1291.0114299535662</ele>
        <time>2021-08-02T23:40:26.325Z</time>
      </trkpt>
      <trkpt lat="42.81496533192694" lon="0.3549420833587646">
        <ele>1288.9451233428613</ele>
        <time>2021-08-02T23:40:38.614Z</time>
      </trkpt>
      <trkpt lat="42.81521201133728" lon="0.3547167778015137">
        <ele>1286.8422135443438</ele>
        <time>2021-08-02T23:40:50.908Z</time>
      </trkpt>
      <trkpt lat="42.81521209515631" lon="0.3547167778015137">
        <ele>1284.795210294028</ele>
        <time>2021-08-02T23:41:03.202Z</time>
      </trkpt>
      <trkpt lat="42.81527638435364" lon="0.3546416759490967">
        <ele>1282.7323178404727</ele>
        <time>2021-08-02T23:41:15.497Z</time>
      </trkpt>
      <trkpt lat="42.81544804573059" lon="0.3543949127197266">
        <ele>1280.6286673361678</ele>
        <time>2021-08-02T23:41:27.796Z</time>
      </trkpt>
      <trkpt lat="42.81572699546814" lon="0.3538799285888672">
        <ele>1278.2688078886754</ele>
        <time>2021-08-02T23:41:40.102Z</time>
      </trkpt>
      <trkpt lat="42.81594157218933" lon="0.3534185886383057">
        <ele>1276.038678460366</ele>
        <time>2021-08-02T23:41:52.415Z</time>
      </trkpt>
      <trkpt lat="42.816102504730225" lon="0.3531181812286377">
        <ele>1273.9140524604713</ele>
        <time>2021-08-02T23:42:04.732Z</time>
      </trkpt>
      <trkpt lat="42.816338539123535" lon="0.352860689163208">
        <ele>1271.8312722539254</ele>
        <time>2021-08-02T23:42:17.054Z</time>
      </trkpt>
      <trkpt lat="42.81652092933655" lon="0.3527319431304932">
        <ele>1269.8992154579782</ele>
        <time>2021-08-02T23:42:29.379Z</time>
      </trkpt>
      <trkpt lat="42.81671404838562" lon="0.3526675701141357">
        <ele>1268.049147655377</ele>
        <time>2021-08-02T23:42:41.708Z</time>
      </trkpt>
      <trkpt lat="42.81689643859863" lon="0.3526890277862549">
        <ele>1266.100867857436</ele>
        <time>2021-08-02T23:42:54.039Z</time>
      </trkpt>
      <trkpt lat="42.817078828811646" lon="0.3527534008026123">
        <ele>1264.1682629371883</ele>
        <time>2021-08-02T23:43:06.373Z</time>
      </trkpt>
      <trkpt lat="42.81721830368042" lon="0.352860689163208">
        <ele>1262.2491993552485</ele>
        <time>2021-08-02T23:43:18.710Z</time>
      </trkpt>
      <trkpt lat="42.81729340553284" lon="0.3529787063598633">
        <ele>1260.292108719682</ele>
        <time>2021-08-02T23:43:31.049Z</time>
      </trkpt>
      <trkpt lat="42.817368507385254" lon="0.353010892868042">
        <ele>1258.1612332622694</ele>
        <time>2021-08-02T23:43:43.389Z</time>
      </trkpt>
      <trkpt lat="42.81742215156555" lon="0.3530001640319824">
        <ele>1255.8809681153598</ele>
        <time>2021-08-02T23:43:55.730Z</time>
      </trkpt>
      <trkpt lat="42.81745433807373" lon="0.3529143333435059">
        <ele>1253.4137697380952</ele>
        <time>2021-08-02T23:44:08.072Z</time>
      </trkpt>
      <trkpt lat="42.81742215156555" lon="0.3528392314910889">
        <ele>1250.8866818547692</ele>
        <time>2021-08-02T23:44:20.415Z</time>
      </trkpt>
      <trkpt lat="42.817325592041016" lon="0.3527319431304932">
        <ele>1248.2312511597338</ele>
        <time>2021-08-02T23:44:32.760Z</time>
      </trkpt>
      <trkpt lat="42.81701445579529" lon="0.3525280952453613">
        <ele>1245.388872008205</ele>
        <time>2021-08-02T23:44:45.111Z</time>
      </trkpt>
      <trkpt lat="42.816596031188965" lon="0.3523671627044678">
        <ele>1242.3980902400413</ele>
        <time>2021-08-02T23:44:57.469Z</time>
      </trkpt>
      <trkpt lat="42.81638145446777" lon="0.3523778915405273">
        <ele>1239.4384745082325</ele>
        <time>2021-08-02T23:45:09.830Z</time>
      </trkpt>
      <trkpt lat="42.81622052192688" lon="0.3524422645568848">
        <ele>1236.5180603090266</ele>
        <time>2021-08-02T23:45:22.194Z</time>
      </trkpt>
      <trkpt lat="42.81572699546814" lon="0.3527641296386719">
        <ele>1233.4787075070722</ele>
        <time>2021-08-02T23:45:34.567Z</time>
      </trkpt>
      <trkpt lat="42.81413912773132" lon="0.3542447090148926">
        <ele>1229.9171056466935</ele>
        <time>2021-08-02T23:45:46.970Z</time>
      </trkpt>
      <trkpt lat="42.81346321105957" lon="0.3547275066375732">
        <ele>1226.4815986414983</ele>
        <time>2021-08-02T23:45:59.386Z</time>
      </trkpt>
      <trkpt lat="42.81329154968262" lon="0.3548026084899902">
        <ele>1223.4202565446906</ele>
        <time>2021-08-02T23:46:11.804Z</time>
      </trkpt>
      <trkpt lat="42.8132164478302" lon="0.3548026084899902">
        <ele>1220.3227998777215</ele>
        <time>2021-08-02T23:46:24.224Z</time>
      </trkpt>
      <trkpt lat="42.81321653164923" lon="0.3548026084899902">
        <ele>1217.1410802570376</ele>
        <time>2021-08-02T23:46:36.644Z</time>
      </trkpt>
      <trkpt lat="42.81314134597778" lon="0.3547918796539307">
        <ele>1213.9643838400111</ele>
        <time>2021-08-02T23:46:49.065Z</time>
      </trkpt>
      <trkpt lat="42.81300187110901" lon="0.354684591293335">
        <ele>1210.680498489524</ele>
        <time>2021-08-02T23:47:01.488Z</time>
      </trkpt>
      <trkpt lat="42.8127121925354" lon="0.3543734550476074">
        <ele>1207.228077397025</ele>
        <time>2021-08-02T23:47:13.917Z</time>
      </trkpt>
      <trkpt lat="42.81271227635443" lon="0.3543734550476074">
        <ele>1203.9934736553487</ele>
        <time>2021-08-02T23:47:26.346Z</time>
      </trkpt>
      <trkpt lat="42.811864614486694" lon="0.3534185886383057">
        <ele>1199.874247572232</ele>
        <time>2021-08-02T23:47:38.793Z</time>
      </trkpt>
      <trkpt lat="42.81169295310974" lon="0.3533005714416504">
        <ele>1196.5910182610564</ele>
        <time>2021-08-02T23:47:51.243Z</time>
      </trkpt>
      <trkpt lat="42.81154274940491" lon="0.3532040119171143">
        <ele>1193.2907040935709</ele>
        <time>2021-08-02T23:48:03.696Z</time>
      </trkpt>
      <trkpt lat="42.8111457824707" lon="0.3527319431304932">
        <ele>1189.7394838880289</ele>
        <time>2021-08-02T23:48:16.157Z</time>
      </trkpt>
      <trkpt lat="42.81094193458557" lon="0.3525924682617188">
        <ele>1186.6376340423258</ele>
        <time>2021-08-02T23:48:28.622Z</time>
      </trkpt>
      <trkpt lat="42.81078100204468" lon="0.352013111114502">
        <ele>1183.5484823542624</ele>
        <time>2021-08-02T23:48:41.094Z</time>
      </trkpt>
      <trkpt lat="42.810652339830995" lon="0.351938009262085">
        <ele>1180.6926658565842</ele>
        <time>2021-08-02T23:48:53.568Z</time>
      </trkpt>
      <trkpt lat="42.810598611831665" lon="0.3518736362457275">
        <ele>1177.969232680214</ele>
        <time>2021-08-02T23:49:06.043Z</time>
      </trkpt>
      <trkpt lat="42.81079173088074" lon="0.3517556190490723">
        <ele>1175.353167809704</ele>
        <time>2021-08-02T23:49:18.522Z</time>
      </trkpt>
      <trkpt lat="42.81102776527405" lon="0.3515088558197021">
        <ele>1172.7235165296481</ele>
        <time>2021-08-02T23:49:31.006Z</time>
      </trkpt>
      <trkpt lat="42.811102867126465" lon="0.3514659404754639">
        <ele>1170.3275217635928</ele>
        <time>2021-08-02T23:49:43.491Z</time>
      </trkpt>
      <trkpt lat="42.81129606999457" lon="0.3514766693115234">
        <ele>1168.0487479083004</ele>
        <time>2021-08-02T23:49:55.979Z</time>
      </trkpt>
      <trkpt lat="42.811596393585205" lon="0.351637601852417">
        <ele>1165.9313643201308</ele>
        <time>2021-08-02T23:50:08.472Z</time>
      </trkpt>
      <trkpt lat="42.8116500377655" lon="0.3516483306884766">
        <ele>1163.9042097980314</ele>
        <time>2021-08-02T23:50:20.966Z</time>
      </trkpt>
      <trkpt lat="42.81169295310974" lon="0.3516161441802979">
        <ele>1161.9656984194075</ele>
        <time>2021-08-02T23:50:33.461Z</time>
      </trkpt>
      <trkpt lat="42.81173595227301" lon="0.3515732288360596">
        <ele>1160.1281110685704</ele>
        <time>2021-08-02T23:50:45.957Z</time>
      </trkpt>
      <trkpt lat="42.81182178296149" lon="0.3512513637542725">
        <ele>1158.2207639486992</ele>
        <time>2021-08-02T23:50:58.457Z</time>
      </trkpt>
      <trkpt lat="42.81203627586365" lon="0.3511226177215576">
        <ele>1156.454799588119</ele>
        <time>2021-08-02T23:51:10.960Z</time>
      </trkpt>
      <trkpt lat="42.812079191207886" lon="0.3510797023773193">
        <ele>1154.8956200190794</ele>
        <time>2021-08-02T23:51:23.464Z</time>
      </trkpt>
      <trkpt lat="42.81207927502692" lon="0.3510475158691406">
        <ele>1153.4432130154232</ele>
        <time>2021-08-02T23:51:35.969Z</time>
      </trkpt>
      <trkpt lat="42.81209000386298" lon="0.3509724140167236">
        <ele>1152.0388478971531</ele>
        <time>2021-08-02T23:51:48.475Z</time>
      </trkpt>
      <trkpt lat="42.812068462371826" lon="0.3508973121643066">
        <ele>1150.7160738720936</ele>
        <time>2021-08-02T23:52:00.982Z</time>
      </trkpt>
      <trkpt lat="42.81200408935547" lon="0.3507900238037109">
        <ele>1149.45143868492</ele>
        <time>2021-08-02T23:52:13.490Z</time>
      </trkpt>
      <trkpt lat="42.81139254570007" lon="0.3502428531646729">
        <ele>1148.1638969015871</ele>
        <time>2021-08-02T23:52:26.010Z</time>
      </trkpt>
      <trkpt lat="42.81125315465033" lon="0.3501033782958984">
        <ele>1146.9989414303304</ele>
        <time>2021-08-02T23:52:38.533Z</time>
      </trkpt>
      <trkpt lat="42.811070680618286" lon="0.3498780727386475">
        <ele>1145.8343671519588</ele>
        <time>2021-08-02T23:52:51.060Z</time>
      </trkpt>
      <trkpt lat="42.81099557876587" lon="0.349738597869873">
        <ele>1144.7129907623773</ele>
        <time>2021-08-02T23:53:03.589Z</time>
      </trkpt>
      <trkpt lat="42.81097412109375" lon="0.3496849536895752">
        <ele>1143.63883621973</ele>
        <time>2021-08-02T23:53:16.118Z</time>
      </trkpt>
      <trkpt lat="42.81097412109375" lon="0.3495669364929199">
        <ele>1142.5139266170042</ele>
        <time>2021-08-02T23:53:28.649Z</time>
      </trkpt>
      <trkpt lat="42.81099557876587" lon="0.3495240211486816">
        <ele>1141.423956540416</ele>
        <time>2021-08-02T23:53:41.180Z</time>
      </trkpt>
      <trkpt lat="42.81105995178223" lon="0.3494489192962646">
        <ele>1140.285318003162</ele>
        <time>2021-08-02T23:53:53.713Z</time>
      </trkpt>
      <trkpt lat="42.811102867126465" lon="0.3494274616241455">
        <ele>1139.1657878593069</ele>
        <time>2021-08-02T23:54:06.246Z</time>
      </trkpt>
      <trkpt lat="42.81121015548706" lon="0.3494489192962646">
        <ele>1138.027873342936</ele>
        <time>2021-08-02T23:54:18.781Z</time>
      </trkpt>
      <trkpt lat="42.8117036819458" lon="0.3497064113616943">
        <ele>1136.9183586517936</ele>
        <time>2021-08-02T23:54:31.325Z</time>
      </trkpt>
      <trkpt lat="42.81201490201056" lon="0.3499209880828857">
        <ele>1135.6478141757673</ele>
        <time>2021-08-02T23:54:43.874Z</time>
      </trkpt>
      <trkpt lat="42.81270146369934" lon="0.3504037857055664">
        <ele>1134.263694020885</ele>
        <time>2021-08-02T23:54:56.436Z</time>
      </trkpt>
      <trkpt lat="42.812830209732056" lon="0.3504788875579834">
        <ele>1132.898705829217</ele>
        <time>2021-08-02T23:55:09.000Z</time>
      </trkpt>
      <trkpt lat="42.81289458274841" lon="0.350489616394043">
        <ele>1131.4268249743816</ele>
        <time>2021-08-02T23:55:21.565Z</time>
      </trkpt>
      <trkpt lat="42.81293749809265" lon="0.3504681587219238">
        <ele>1129.8433326549462</ele>
        <time>2021-08-02T23:55:34.131Z</time>
      </trkpt>
      <trkpt lat="42.81295895576477" lon="0.3504252433776855">
        <ele>1128.1638484083005</ele>
        <time>2021-08-02T23:55:46.697Z</time>
      </trkpt>
      <trkpt lat="42.8129590395838" lon="0.3504252433776855">
        <ele>1126.435631804382</ele>
        <time>2021-08-02T23:55:59.263Z</time>
      </trkpt>
      <trkpt lat="42.81296968460083" lon="0.3503823280334473">
        <ele>1124.5691132349539</ele>
        <time>2021-08-02T23:56:11.830Z</time>
      </trkpt>
      <trkpt lat="42.81293749809265" lon="0.3503179550170898">
        <ele>1122.6058880719947</ele>
        <time>2021-08-02T23:56:24.398Z</time>
      </trkpt>
      <trkpt lat="42.81279802322388" lon="0.350114107131958">
        <ele>1120.4750808758504</ele>
        <time>2021-08-02T23:56:36.969Z</time>
      </trkpt>
      <trkpt lat="42.81243324279785" lon="0.3497171401977539">
        <ele>1118.2314452352107</ele>
        <time>2021-08-02T23:56:49.547Z</time>
      </trkpt>
      <trkpt lat="42.81163930892944" lon="0.3485476970672607">
        <ele>1115.7120109418238</ele>
        <time>2021-08-02T23:57:02.144Z</time>
      </trkpt>
      <trkpt lat="42.811317443847656" lon="0.3479790687561035">
        <ele>1112.8884184334797</ele>
        <time>2021-08-02T23:57:14.750Z</time>
      </trkpt>
      <trkpt lat="42.811113595962524" lon="0.3474962711334229">
        <ele>1109.8796081787332</ele>
        <time>2021-08-02T23:57:27.362Z</time>
      </trkpt>
      <trkpt lat="42.811092138290405" lon="0.3473997116088867">
        <ele>1107.4123378146364</ele>
        <time>2021-08-02T23:57:39.975Z</time>
      </trkpt>
      <trkpt lat="42.811102867126465" lon="0.3473246097564697">
        <ele>1104.948112588931</ele>
        <time>2021-08-02T23:57:52.589Z</time>
      </trkpt>
      <trkpt lat="42.811124324798584" lon="0.3472709655761719">
        <ele>1102.4922554448199</ele>
        <time>2021-08-02T23:58:05.204Z</time>
      </trkpt>
      <trkpt lat="42.81115651130676" lon="0.3472280502319336">
        <ele>1100.0148977806834</ele>
        <time>2021-08-02T23:58:17.820Z</time>
      </trkpt>
      <trkpt lat="42.81119951047003" lon="0.347217321395874">
        <ele>1097.5407096523863</ele>
        <time>2021-08-02T23:58:30.436Z</time>
      </trkpt>
      <trkpt lat="42.81126379966736" lon="0.3472387790679932">
        <ele>1095.07209627176</ele>
        <time>2021-08-02T23:58:43.053Z</time>
      </trkpt>
      <trkpt lat="42.811371088027954" lon="0.3473138809204102">
        <ele>1092.6379159055841</ele>
        <time>2021-08-02T23:58:55.672Z</time>
      </trkpt>
      <trkpt lat="42.81173586845398" lon="0.3476786613464355">
        <ele>1090.5420053884204</ele>
        <time>2021-08-02T23:59:08.299Z</time>
      </trkpt>
      <trkpt lat="42.81192898750305" lon="0.3478074073791504">
        <ele>1087.7380619737587</ele>
        <time>2021-08-02T23:59:20.929Z</time>
      </trkpt>
      <trkpt lat="42.812325954437256" lon="0.3479468822479248">
        <ele>1084.6183205539455</ele>
        <time>2021-08-02T23:59:33.566Z</time>
      </trkpt>
      <trkpt lat="42.812626361846924" lon="0.3479683399200439">
        <ele>1081.5679674965877</ele>
        <time>2021-08-02T23:59:46.207Z</time>
      </trkpt>
      <trkpt lat="42.812626445665956" lon="0.3479683399200439">
        <ele>1078.821618492936</ele>
        <time>2021-08-02T23:59:58.848Z</time>
      </trkpt>
      <trkpt lat="42.81328082084656" lon="0.3479683399200439">
        <ele>1075.8041593244525</ele>
        <time>2021-08-03T00:00:11.500Z</time>
      </trkpt>
      <trkpt lat="42.81367778778076" lon="0.3480005264282227">
        <ele>1073.0495271395348</ele>
        <time>2021-08-03T00:00:24.158Z</time>
      </trkpt>
      <trkpt lat="42.813860177993774" lon="0.3479683399200439">
        <ele>1070.235550454765</ele>
        <time>2021-08-03T00:00:36.819Z</time>
      </trkpt>
      <trkpt lat="42.81403183937073" lon="0.3479146957397461">
        <ele>1067.394929985458</ele>
        <time>2021-08-03T00:00:49.483Z</time>
      </trkpt>
      <trkpt lat="42.814589738845825" lon="0.3477323055267334">
        <ele>1064.3650891792788</ele>
        <time>2021-08-03T00:01:02.156Z</time>
      </trkpt>
      <trkpt lat="42.81491160392761" lon="0.3476035594940186">
        <ele>1061.379418894173</ele>
        <time>2021-08-03T00:01:14.835Z</time>
      </trkpt>
      <trkpt lat="42.815083265304565" lon="0.3474640846252441">
        <ele>1058.3832253891726</ele>
        <time>2021-08-03T00:01:27.517Z</time>
      </trkpt>
      <trkpt lat="42.81521201133728" lon="0.3473353385925293">
        <ele>1055.4394111235583</ele>
        <time>2021-08-03T00:01:40.201Z</time>
      </trkpt>
      <trkpt lat="42.815340757369995" lon="0.3471207618713379">
        <ele>1052.3750719716904</ele>
        <time>2021-08-03T00:01:52.889Z</time>
      </trkpt>
      <trkpt lat="42.81545877456665" lon="0.3470242023468018">
        <ele>1049.5249113525617</ele>
        <time>2021-08-03T00:02:05.579Z</time>
      </trkpt>
      <trkpt lat="42.81571626663208" lon="0.3468525409698486">
        <ele>1046.629014592122</ele>
        <time>2021-08-03T00:02:18.273Z</time>
      </trkpt>
      <trkpt lat="42.81603813171387" lon="0.3467023372650146">
        <ele>1043.7913002050218</ele>
        <time>2021-08-03T00:02:30.973Z</time>
      </trkpt>
      <trkpt lat="42.81642436981201" lon="0.3465735912322998">
        <ele>1041.130310704138</ele>
        <time>2021-08-03T00:02:43.679Z</time>
      </trkpt>
      <trkpt lat="42.81670331954956" lon="0.346444845199585">
        <ele>1038.5069203729552</ele>
        <time>2021-08-03T00:02:56.390Z</time>
      </trkpt>
      <trkpt lat="42.81716465950012" lon="0.3461122512817383">
        <ele>1035.6697108240078</ele>
        <time>2021-08-03T00:03:09.109Z</time>
      </trkpt>
      <trkpt lat="42.81728267669678" lon="0.3460693359375">
        <ele>1033.225653220551</ele>
        <time>2021-08-03T00:03:21.830Z</time>
      </trkpt>
      <trkpt lat="42.81747579574585" lon="0.3460693359375">
        <ele>1030.9100863994288</ele>
        <time>2021-08-03T00:03:34.554Z</time>
      </trkpt>
      <trkpt lat="42.81751871109009" lon="0.3460371494293213">
        <ele>1028.6383863829321</ele>
        <time>2021-08-03T00:03:47.279Z</time>
      </trkpt>
      <trkpt lat="42.81772255897522" lon="0.3456401824951172">
        <ele>1026.1109922820895</ele>
        <time>2021-08-03T00:04:00.010Z</time>
      </trkpt>
      <trkpt lat="42.817872762680054" lon="0.3453934192657471">
        <ele>1023.8980935177328</ele>
        <time>2021-08-03T00:04:12.745Z</time>
      </trkpt>
      <trkpt lat="42.81791567802429" lon="0.3452968597412109">
        <ele>1021.9683905208389</ele>
        <time>2021-08-03T00:04:25.481Z</time>
      </trkpt>
      <trkpt lat="42.81793713569641" lon="0.3451895713806152">
        <ele>1020.1397467944012</ele>
        <time>2021-08-03T00:04:38.218Z</time>
      </trkpt>
      <trkpt lat="42.818055152893066" lon="0.3448247909545898">
        <ele>1018.3257067025538</ele>
        <time>2021-08-03T00:04:50.960Z</time>
      </trkpt>
      <trkpt lat="42.8180552367121" lon="0.3448247909545898">
        <ele>1016.8587037402892</ele>
        <time>2021-08-03T00:05:03.702Z</time>
      </trkpt>
      <trkpt lat="42.818065881729126" lon="0.3447926044464111">
        <ele>1015.5055997609079</ele>
        <time>2021-08-03T00:05:16.444Z</time>
      </trkpt>
      <trkpt lat="42.818108797073364" lon="0.3447818756103516">
        <ele>1014.3244306760332</ele>
        <time>2021-08-03T00:05:29.187Z</time>
      </trkpt>
      <trkpt lat="42.81816244125366" lon="0.3447389602661133">
        <ele>1013.2518712469728</ele>
        <time>2021-08-03T00:05:41.931Z</time>
      </trkpt>
      <trkpt lat="42.81825908459723" lon="0.3446102142333984">
        <ele>1012.257263033134</ele>
        <time>2021-08-03T00:05:54.677Z</time>
      </trkpt>
      <trkpt lat="42.8182590007782" lon="0.3446102142333984">
        <ele>1011.4129878495675</ele>
        <time>2021-08-03T00:06:07.423Z</time>
      </trkpt>
      <trkpt lat="42.81847357749939" lon="0.3442990779876709">
        <ele>1010.617743435643</ele>
        <time>2021-08-03T00:06:20.174Z</time>
      </trkpt>
      <trkpt lat="42.818623781204224" lon="0.3441381454467773">
        <ele>1009.9307545401155</ele>
        <time>2021-08-03T00:06:32.928Z</time>
      </trkpt>
      <trkpt lat="42.81868823803961" lon="0.3440845012664795">
        <ele>1009.4035932889526</ele>
        <time>2021-08-03T00:06:45.683Z</time>
      </trkpt>
      <trkpt lat="42.81872034072876" lon="0.3440737724304199">
        <ele>1008.9950218889007</ele>
        <time>2021-08-03T00:06:58.439Z</time>
      </trkpt>
      <trkpt lat="42.81899937428534" lon="0.3441596031188965">
        <ele>1008.8052530433065</ele>
        <time>2021-08-03T00:07:11.200Z</time>
      </trkpt>
      <trkpt lat="42.81899929046631" lon="0.3441596031188965">
        <ele>1008.5495727630606</ele>
        <time>2021-08-03T00:07:23.961Z</time>
      </trkpt>
      <trkpt lat="42.81928896903992" lon="0.3441488742828369">
        <ele>1008.4422936597869</ele>
        <time>2021-08-03T00:07:36.726Z</time>
      </trkpt>
      <trkpt lat="42.819364070892334" lon="0.3441166877746582">
        <ele>1008.3163862951676</ele>
        <time>2021-08-03T00:07:49.492Z</time>
      </trkpt>
      <trkpt lat="42.8194607142359" lon="0.3439986705780029">
        <ele>1008.1713530429106</ele>
        <time>2021-08-03T00:08:02.261Z</time>
      </trkpt>
      <trkpt lat="42.81946063041687" lon="0.3439986705780029">
        <ele>1008.1313261762466</ele>
        <time>2021-08-03T00:08:15.030Z</time>
      </trkpt>
      <trkpt lat="42.81948208808899" lon="0.3439557552337646">
        <ele>1008.0798697147766</ele>
        <time>2021-08-03T00:08:27.799Z</time>
      </trkpt>
      <trkpt lat="42.819610834121704" lon="0.3438806533813477">
        <ele>1008.0288348654753</ele>
        <time>2021-08-03T00:08:40.570Z</time>
      </trkpt>
      <trkpt lat="42.81976103782654" lon="0.3438377380371094">
        <ele>1008.0364501074831</ele>
        <time>2021-08-03T00:08:53.344Z</time>
      </trkpt>
      <trkpt lat="42.82070525921881" lon="0.3438162803649902">
        <ele>1008.1598110922107</ele>
        <time>2021-08-03T00:09:06.133Z</time>
      </trkpt>
      <trkpt lat="42.82070517539978" lon="0.3438162803649902">
        <ele>1008.2086184071005</ele>
        <time>2021-08-03T00:09:18.922Z</time>
      </trkpt>
      <trkpt lat="42.82116659916937" lon="0.3437948226928711">
        <ele>1008.2772392417546</ele>
        <time>2021-08-03T00:09:31.718Z</time>
      </trkpt>
      <trkpt lat="42.82116651535034" lon="0.3437948226928711">
        <ele>1008.2948782500209</ele>
        <time>2021-08-03T00:09:44.514Z</time>
      </trkpt>
      <trkpt lat="42.82197126187384" lon="0.3438484668731689">
        <ele>1008.4884645685884</ele>
        <time>2021-08-03T00:09:57.323Z</time>
      </trkpt>
      <trkpt lat="42.82197117805481" lon="0.3438484668731689">
        <ele>1008.4227679364105</ele>
        <time>2021-08-03T00:10:10.132Z</time>
      </trkpt>
      <trkpt lat="42.82214283943176" lon="0.3438591957092285">
        <ele>1008.3463655005594</ele>
        <time>2021-08-03T00:10:22.944Z</time>
      </trkpt>
      <trkpt lat="42.82237887382507" lon="0.3439342975616455">
        <ele>1008.3525359853983</ele>
        <time>2021-08-03T00:10:35.760Z</time>
      </trkpt>
      <trkpt lat="42.82278656959534" lon="0.3439342975616455">
        <ele>1008.049933220419</ele>
        <time>2021-08-03T00:10:48.582Z</time>
      </trkpt>
      <trkpt lat="42.82318353652954" lon="0.3438484668731689">
        <ele>1007.4635202050636</ele>
        <time>2021-08-03T00:11:01.411Z</time>
      </trkpt>
      <trkpt lat="42.82370924949646" lon="0.3436660766601562">
        <ele>1006.7328654381807</ele>
        <time>2021-08-03T00:11:14.248Z</time>
      </trkpt>
      <trkpt lat="42.82378435134888" lon="0.3436875343322754">
        <ele>1006.5195211437003</ele>
        <time>2021-08-03T00:11:27.087Z</time>
      </trkpt>
      <trkpt lat="42.82390236854553" lon="0.3437626361846924">
        <ele>1006.3781082761453</ele>
        <time>2021-08-03T00:11:39.928Z</time>
      </trkpt>
      <trkpt lat="42.82397747039795" lon="0.3437840938568115">
        <ele>1006.0489434984752</ele>
        <time>2021-08-03T00:11:52.770Z</time>
      </trkpt>
      <trkpt lat="42.82404184341431" lon="0.3437626361846924">
        <ele>1005.5719229425445</ele>
        <time>2021-08-03T00:12:05.613Z</time>
      </trkpt>
      <trkpt lat="42.82419213093817" lon="0.3436338901519775">
        <ele>1004.8618067540439</ele>
        <time>2021-08-03T00:12:18.459Z</time>
      </trkpt>
      <trkpt lat="42.82419204711914" lon="0.3436338901519775">
        <ele>1004.3818287878619</ele>
        <time>2021-08-03T00:12:31.305Z</time>
      </trkpt>
      <trkpt lat="42.824299335479736" lon="0.3435373306274414">
        <ele>1003.6720128071913</ele>
        <time>2021-08-03T00:12:44.153Z</time>
      </trkpt>
      <trkpt lat="42.82446026802063" lon="0.343472957611084">
        <ele>1002.993696893637</ele>
        <time>2021-08-03T00:12:57.004Z</time>
      </trkpt>
      <trkpt lat="42.82503962516785" lon="0.3434085845947266">
        <ele>1002.2374735798996</ele>
        <time>2021-08-03T00:13:09.864Z</time>
      </trkpt>
      <trkpt lat="42.825318574905396" lon="0.3434407711029053">
        <ele>1001.5636628577431</ele>
        <time>2021-08-03T00:13:22.728Z</time>
      </trkpt>
      <trkpt lat="42.82558687962592" lon="0.343548059463501">
        <ele>1001.0231566293317</ele>
        <time>2021-08-03T00:13:35.597Z</time>
      </trkpt>
      <trkpt lat="42.825586795806885" lon="0.343548059463501">
        <ele>1000.4338657075164</ele>
        <time>2021-08-03T00:13:48.466Z</time>
      </trkpt>
      <trkpt lat="42.82594084739685" lon="0.3437948226928711">
        <ele>1000.0234870098575</ele>
        <time>2021-08-03T00:14:01.341Z</time>
      </trkpt>
      <trkpt lat="42.82614469528198" lon="0.3441274166107178">
        <ele>999.5811964016088</ele>
        <time>2021-08-03T00:14:14.221Z</time>
      </trkpt>
      <trkpt lat="42.826380813494325" lon="0.3443312644958496">
        <ele>998.8080275797494</ele>
        <time>2021-08-03T00:14:27.106Z</time>
      </trkpt>
      <trkpt lat="42.82638072967529" lon="0.3443312644958496">
        <ele>997.9131733555384</ele>
        <time>2021-08-03T00:14:39.991Z</time>
      </trkpt>
      <trkpt lat="42.82647728919983" lon="0.3444170951843262">
        <ele>996.9691593515507</ele>
        <time>2021-08-03T00:14:52.878Z</time>
      </trkpt>
      <trkpt lat="42.827067375183105" lon="0.3447818756103516">
        <ele>995.9896416171863</ele>
        <time>2021-08-03T00:15:05.775Z</time>
      </trkpt>
      <trkpt lat="42.8274751547724" lon="0.3449535369873047">
        <ele>994.860265369132</ele>
        <time>2021-08-03T00:15:18.679Z</time>
      </trkpt>
      <trkpt lat="42.82747507095337" lon="0.3449535369873047">
        <ele>993.6393290551299</ele>
        <time>2021-08-03T00:15:31.583Z</time>
      </trkpt>
      <trkpt lat="42.82844066619873" lon="0.3453183174133301">
        <ele>991.9661677238573</ele>
        <time>2021-08-03T00:15:44.503Z</time>
      </trkpt>
      <trkpt lat="42.8292453289032" lon="0.3457367420196533">
        <ele>990.3849228941151</ele>
        <time>2021-08-03T00:15:57.437Z</time>
      </trkpt>
      <trkpt lat="42.829567193984985" lon="0.3458654880523682">
        <ele>988.7754101616766</ele>
        <time>2021-08-03T00:16:10.376Z</time>
      </trkpt>
      <trkpt lat="42.82971739768982" lon="0.345994234085083">
        <ele>987.4706321526182</ele>
        <time>2021-08-03T00:16:23.318Z</time>
      </trkpt>
      <trkpt lat="42.83002853393555" lon="0.346444845199585">
        <ele>986.5493873717944</ele>
        <time>2021-08-03T00:16:36.267Z</time>
      </trkpt>
      <trkpt lat="42.83023238182068" lon="0.3466057777404785">
        <ele>984.7135209592197</ele>
        <time>2021-08-03T00:16:49.220Z</time>
      </trkpt>
      <trkpt lat="42.83092975616455" lon="0.3475606441497803">
        <ele>983.1361476738491</ele>
        <time>2021-08-03T00:17:02.189Z</time>
      </trkpt>
      <trkpt lat="42.831090688705444" lon="0.3476572036743164">
        <ele>981.237067349963</ele>
        <time>2021-08-03T00:17:15.161Z</time>
      </trkpt>
      <trkpt lat="42.83148765563965" lon="0.3482043743133545">
        <ele>979.7755289248627</ele>
        <time>2021-08-03T00:17:28.142Z</time>
      </trkpt>
      <trkpt lat="42.832324504852295" lon="0.3490090370178223">
        <ele>977.6115389359791</ele>
        <time>2021-08-03T00:17:41.139Z</time>
      </trkpt>
      <trkpt lat="42.832850217819214" lon="0.3497171401977539">
        <ele>975.595240239699</ele>
        <time>2021-08-03T00:17:54.148Z</time>
      </trkpt>
      <trkpt lat="42.83290394581854" lon="0.3498029708862305">
        <ele>973.888585189786</ele>
        <time>2021-08-03T00:18:07.158Z</time>
      </trkpt>
      <trkpt lat="42.83297896385193" lon="0.3499317169189453">
        <ele>972.1598127650559</ele>
        <time>2021-08-03T00:18:20.170Z</time>
      </trkpt>
      <trkpt lat="42.833086252212524" lon="0.3501999378204346">
        <ele>970.5194944539037</ele>
        <time>2021-08-03T00:18:33.186Z</time>
      </trkpt>
      <trkpt lat="42.83371925354004" lon="0.3514230251312256">
        <ele>968.9269258492541</ele>
        <time>2021-08-03T00:18:46.219Z</time>
      </trkpt>
      <trkpt lat="42.83438444137573" lon="0.3519165515899658">
        <ele>966.4413634879209</ele>
        <time>2021-08-03T00:18:59.264Z</time>
      </trkpt>
      <trkpt lat="42.834845781326294" lon="0.3527963161468506">
        <ele>964.8579545111809</ele>
        <time>2021-08-03T00:19:12.322Z</time>
      </trkpt>
      <trkpt lat="42.835060358047485" lon="0.3534293174743652">
        <ele>963.608315786922</ele>
        <time>2021-08-03T00:19:25.388Z</time>
      </trkpt>
      <trkpt lat="42.835103273391724" lon="0.3534936904907227">
        <ele>961.912750381774</ele>
        <time>2021-08-03T00:19:38.455Z</time>
      </trkpt>
      <trkpt lat="42.83516773022711" lon="0.3535366058349609">
        <ele>960.1364500712791</ele>
        <time>2021-08-03T00:19:51.524Z</time>
      </trkpt>
      <trkpt lat="42.8352427482605" lon="0.3535473346710205">
        <ele>958.2951348997819</ele>
        <time>2021-08-03T00:20:04.594Z</time>
      </trkpt>
      <trkpt lat="42.835296392440796" lon="0.3535258769989014">
        <ele>956.4499993134625</ele>
        <time>2021-08-03T00:20:17.665Z</time>
      </trkpt>
      <trkpt lat="42.83546805381775" lon="0.3532898426055908">
        <ele>954.1788074872375</ele>
        <time>2021-08-03T00:20:30.740Z</time>
      </trkpt>
      <trkpt lat="42.83551096916199" lon="0.3532576560974121">
        <ele>952.5325124477988</ele>
        <time>2021-08-03T00:20:43.815Z</time>
      </trkpt>
      <trkpt lat="42.835553884506226" lon="0.3532469272613525">
        <ele>950.9614438196743</ele>
        <time>2021-08-03T00:20:56.891Z</time>
      </trkpt>
      <trkpt lat="42.83562898635864" lon="0.3532576560974121">
        <ele>949.4212542870041</ele>
        <time>2021-08-03T00:21:09.968Z</time>
      </trkpt>
      <trkpt lat="42.836133325472474" lon="0.3534507751464844">
        <ele>947.7642658853129</ele>
        <time>2021-08-03T00:21:23.054Z</time>
      </trkpt>
      <trkpt lat="42.83621915616095" lon="0.3534829616546631">
        <ele>946.400439590182</ele>
        <time>2021-08-03T00:21:36.141Z</time>
      </trkpt>
      <trkpt lat="42.83621907234192" lon="0.3534829616546631">
        <ele>945.0827144399163</ele>
        <time>2021-08-03T00:21:49.228Z</time>
      </trkpt>
      <trkpt lat="42.83713102340698" lon="0.3539443016052246">
        <ele>943.8335755425492</ele>
        <time>2021-08-03T00:22:02.331Z</time>
      </trkpt>
      <trkpt lat="42.83743151463568" lon="0.354008674621582">
        <ele>942.4566735383032</ele>
        <time>2021-08-03T00:22:15.439Z</time>
      </trkpt>
      <trkpt lat="42.83743143081665" lon="0.354008674621582">
        <ele>941.1249098219719</ele>
        <time>2021-08-03T00:22:28.547Z</time>
      </trkpt>
      <trkpt lat="42.83746370114386" lon="0.3540194034576416">
        <ele>939.7707065050442</ele>
        <time>2021-08-03T00:22:41.655Z</time>
      </trkpt>
      <trkpt lat="42.83773183822632" lon="0.3540301322937012">
        <ele>938.251143420667</ele>
        <time>2021-08-03T00:22:54.767Z</time>
      </trkpt>
      <trkpt lat="42.83788204193115" lon="0.3540194034576416">
        <ele>936.7982562078814</ele>
        <time>2021-08-03T00:23:07.882Z</time>
      </trkpt>
      <trkpt lat="42.83793576993048" lon="0.3539872169494629">
        <ele>935.32254729413</ele>
        <time>2021-08-03T00:23:20.998Z</time>
      </trkpt>
      <trkpt lat="42.838042974472046" lon="0.3538691997528076">
        <ele>933.6845393070937</ele>
        <time>2021-08-03T00:23:34.116Z</time>
      </trkpt>
      <trkpt lat="42.8381073474884" lon="0.3537619113922119">
        <ele>932.0465520988558</ele>
        <time>2021-08-03T00:23:47.236Z</time>
      </trkpt>
      <trkpt lat="42.8381609916687" lon="0.3537619113922119">
        <ele>930.4879571445374</ele>
        <time>2021-08-03T00:24:00.356Z</time>
      </trkpt>
      <trkpt lat="42.838322008028626" lon="0.3538155555725098">
        <ele>928.8599485754405</ele>
        <time>2021-08-03T00:24:13.479Z</time>
      </trkpt>
      <trkpt lat="42.83868670463562" lon="0.3538691997528076">
        <ele>927.0335478279314</ele>
        <time>2021-08-03T00:24:26.608Z</time>
      </trkpt>
      <trkpt lat="42.83874034881592" lon="0.353858470916748">
        <ele>925.0802727701</ele>
        <time>2021-08-03T00:24:39.738Z</time>
      </trkpt>
      <trkpt lat="42.83879407681525" lon="0.3538691997528076">
        <ele>922.9968723916088</ele>
        <time>2021-08-03T00:24:52.869Z</time>
      </trkpt>
      <trkpt lat="42.838793992996216" lon="0.3538691997528076">
        <ele>920.7365045484412</ele>
        <time>2021-08-03T00:25:06.000Z</time>
      </trkpt>
      <trkpt lat="42.8390193823725" lon="0.3539121150970459">
        <ele>918.2696445802318</ele>
        <time>2021-08-03T00:25:19.134Z</time>
      </trkpt>
      <trkpt lat="42.83901929855347" lon="0.3539121150970459">
        <ele>915.613658165759</ele>
        <time>2021-08-03T00:25:32.268Z</time>
      </trkpt>
      <trkpt lat="42.8396201133728" lon="0.3540194034576416">
        <ele>912.6270151444457</ele>
        <time>2021-08-03T00:25:45.412Z</time>
      </trkpt>
      <trkpt lat="42.840070808306336" lon="0.3539657592773438">
        <ele>909.1789570591407</ele>
        <time>2021-08-03T00:25:58.563Z</time>
      </trkpt>
      <trkpt lat="42.840070724487305" lon="0.3539657592773438">
        <ele>906.1216436795133</ele>
        <time>2021-08-03T00:26:11.714Z</time>
      </trkpt>
      <trkpt lat="42.84049987792969" lon="0.3539228439331055">
        <ele>902.7066828945345</ele>
        <time>2021-08-03T00:26:24.872Z</time>
      </trkpt>
      <trkpt lat="42.840843200683594" lon="0.3539228439331055">
        <ele>899.2646828514769</ele>
        <time>2021-08-03T00:26:38.036Z</time>
      </trkpt>
      <trkpt lat="42.84149765968323" lon="0.3539979457855225">
        <ele>895.7238494035555</ele>
        <time>2021-08-03T00:26:51.210Z</time>
      </trkpt>
      <trkpt lat="42.84193754196167" lon="0.3539979457855225">
        <ele>891.9491655739364</ele>
        <time>2021-08-03T00:27:04.391Z</time>
      </trkpt>
      <trkpt lat="42.84312844276428" lon="0.3539443016052246">
        <ele>887.5328337688608</ele>
        <time>2021-08-03T00:27:17.591Z</time>
      </trkpt>
      <trkpt lat="42.8442120552063" lon="0.3537619113922119">
        <ele>883.3538326987971</ele>
        <time>2021-08-03T00:27:30.809Z</time>
      </trkpt>
      <trkpt lat="42.844566106796265" lon="0.3536653518676758">
        <ele>879.6517388575282</ele>
        <time>2021-08-03T00:27:44.032Z</time>
      </trkpt>
      <trkpt lat="42.84496307373047" lon="0.3535044193267822">
        <ele>875.9660788556268</ele>
        <time>2021-08-03T00:27:57.262Z</time>
      </trkpt>
      <trkpt lat="42.84547814168036" lon="0.3532469272613525">
        <ele>872.3151916202935</ele>
        <time>2021-08-03T00:28:10.501Z</time>
      </trkpt>
      <trkpt lat="42.84566044807434" lon="0.3531503677368164">
        <ele>868.9946688242853</ele>
        <time>2021-08-03T00:28:23.743Z</time>
      </trkpt>
      <trkpt lat="42.84634709358215" lon="0.3528499603271484">
        <ele>865.4298005991925</ele>
        <time>2021-08-03T00:28:36.997Z</time>
      </trkpt>
      <trkpt lat="42.846819246187806" lon="0.3524529933929443">
        <ele>862.2886181520171</ele>
        <time>2021-08-03T00:28:50.259Z</time>
      </trkpt>
      <trkpt lat="42.846819162368774" lon="0.3524529933929443">
        <ele>859.9294866912444</ele>
        <time>2021-08-03T00:29:03.521Z</time>
      </trkpt>
      <trkpt lat="42.84698009490967" lon="0.3523242473602295">
        <ele>857.5464054037839</ele>
        <time>2021-08-03T00:29:16.786Z</time>
      </trkpt>
      <trkpt lat="42.84711956977844" lon="0.3523242473602295">
        <ele>855.4637612557475</ele>
        <time>2021-08-03T00:29:30.054Z</time>
      </trkpt>
      <trkpt lat="42.84719467163086" lon="0.3523886203765869">
        <ele>853.5990391382388</ele>
        <time>2021-08-03T00:29:43.323Z</time>
      </trkpt>
      <trkpt lat="42.847312772646546" lon="0.3525817394256592">
        <ele>851.8990444586384</ele>
        <time>2021-08-03T00:29:56.595Z</time>
      </trkpt>
      <trkpt lat="42.847344959154725" lon="0.352635383605957">
        <ele>850.137490581884</ele>
        <time>2021-08-03T00:30:09.868Z</time>
      </trkpt>
      <trkpt lat="42.84734487533569" lon="0.352635383605957">
        <ele>848.3807698305488</ele>
        <time>2021-08-03T00:30:23.141Z</time>
      </trkpt>
      <trkpt lat="42.84749507904053" lon="0.3528177738189697">
        <ele>846.7291732875508</ele>
        <time>2021-08-03T00:30:36.417Z</time>
      </trkpt>
      <trkpt lat="42.84762382507324" lon="0.3529143333435059">
        <ele>844.9715227578015</ele>
        <time>2021-08-03T00:30:49.695Z</time>
      </trkpt>
      <trkpt lat="42.84803160466254" lon="0.353161096572876">
        <ele>843.3039585734291</ele>
        <time>2021-08-03T00:31:02.981Z</time>
      </trkpt>
      <trkpt lat="42.84809589385986" lon="0.3531825542449951">
        <ele>841.2572040031705</ele>
        <time>2021-08-03T00:31:16.268Z</time>
      </trkpt>
      <trkpt lat="42.84814962185919" lon="0.3531503677368164">
        <ele>839.0456081780397</ele>
        <time>2021-08-03T00:31:29.556Z</time>
      </trkpt>
      <trkpt lat="42.84814953804016" lon="0.3531503677368164">
        <ele>836.8173726612499</ele>
        <time>2021-08-03T00:31:42.844Z</time>
      </trkpt>
      <trkpt lat="42.84835338592529" lon="0.3527426719665527">
        <ele>833.9935660055676</ele>
        <time>2021-08-03T00:31:56.137Z</time>
      </trkpt>
      <trkpt lat="42.84839630126953" lon="0.3526997566223145">
        <ele>831.8834980104114</ele>
        <time>2021-08-03T00:32:09.431Z</time>
      </trkpt>
      <trkpt lat="42.848879182711244" lon="0.3524637222290039">
        <ele>829.6974906663645</ele>
        <time>2021-08-03T00:32:22.733Z</time>
      </trkpt>
      <trkpt lat="42.84938343800604" lon="0.3521633148193359">
        <ele>827.4103556830364</ele>
        <time>2021-08-03T00:32:36.044Z</time>
      </trkpt>
      <trkpt lat="42.84993060864508" lon="0.3518521785736084">
        <ele>825.0793322421009</ele>
        <time>2021-08-03T00:32:49.365Z</time>
      </trkpt>
      <trkpt lat="42.850112998858094" lon="0.3517448902130127">
        <ele>822.8058227078369</ele>
        <time>2021-08-03T00:33:02.689Z</time>
      </trkpt>
      <trkpt lat="42.850091541185975" lon="0.3517234325408936">
        <ele>820.5305626303625</ele>
        <time>2021-08-03T00:33:16.013Z</time>
      </trkpt>
      <trkpt lat="42.850048542022705" lon="0.3516912460327148">
        <ele>818.1121924835096</ele>
        <time>2021-08-03T00:33:29.338Z</time>
      </trkpt>
      <trkpt lat="42.849318981170654" lon="0.3515088558197021">
        <ele>815.2701886868285</ele>
        <time>2021-08-03T00:33:42.675Z</time>
      </trkpt>
      <trkpt lat="42.84911513328552" lon="0.3514230251312256">
        <ele>812.83871207257</ele>
        <time>2021-08-03T00:33:56.015Z</time>
      </trkpt>
      <trkpt lat="42.849050760269165" lon="0.3513479232788086">
        <ele>810.512278566146</ele>
        <time>2021-08-03T00:34:09.357Z</time>
      </trkpt>
      <trkpt lat="42.84886837005615" lon="0.3510367870330811">
        <ele>808.0309886440648</ele>
        <time>2021-08-03T00:34:22.703Z</time>
      </trkpt>
      <trkpt lat="42.848868453875184" lon="0.3510367870330811">
        <ele>806.021436673753</ele>
        <time>2021-08-03T00:34:36.049Z</time>
      </trkpt>
      <trkpt lat="42.84873962402344" lon="0.3509080410003662">
        <ele>803.8129909241409</ele>
        <time>2021-08-03T00:34:49.398Z</time>
      </trkpt>
      <trkpt lat="42.8486430644989" lon="0.3508758544921875">
        <ele>801.7540255058389</ele>
        <time>2021-08-03T00:35:02.749Z</time>
      </trkpt>
      <trkpt lat="42.84841775894165" lon="0.3508973121643066">
        <ele>799.6901428662233</ele>
        <time>2021-08-03T00:35:16.103Z</time>
      </trkpt>
      <trkpt lat="42.848310470581055" lon="0.3508007526397705">
        <ele>797.7210429821773</ele>
        <time>2021-08-03T00:35:29.459Z</time>
      </trkpt>
      <trkpt lat="42.848278284072876" lon="0.3505539894104004">
        <ele>795.7727527080913</ele>
        <time>2021-08-03T00:35:42.818Z</time>
      </trkpt>
      <trkpt lat="42.848267555236816" lon="0.3502750396728516">
        <ele>794.0224698704444</ele>
        <time>2021-08-03T00:35:56.180Z</time>
      </trkpt>
      <trkpt lat="42.8481924533844" lon="0.3502321243286133">
        <ele>792.6350852327138</ele>
        <time>2021-08-03T00:36:09.544Z</time>
      </trkpt>
      <trkpt lat="42.84816026687622" lon="0.3502213954925537">
        <ele>791.39535211281</ele>
        <time>2021-08-03T00:36:22.908Z</time>
      </trkpt>
      <trkpt lat="42.84821433015168" lon="0.3499514143913984">
        <ele>790.1923220234164</ele>
        <time>2021-08-03T00:36:36.276Z</time>
      </trkpt>
      <trkpt lat="42.8634279035" lon="0.33846477047">
        <ele>775.06882595212</ele>
        <time>2021-08-03T17:55:53.000Z</time>
      </trkpt>
      <trkpt lat="42.86427506246" lon="0.33877372742">
        <ele>774.29002864329</ele>
        <time>2021-08-03T17:55:53.014Z</time>
      </trkpt>
      <trkpt lat="42.86427497864" lon="0.33877372742">
        <ele>773.56087438834</ele>
        <time>2021-08-03T17:55:53.028Z</time>
      </trkpt>
      <trkpt lat="42.86455401219" lon="0.33884882927">
        <ele>772.78461025073</ele>
        <time>2021-08-03T17:55:53.047Z</time>
      </trkpt>
      <trkpt lat="42.86455392838" lon="0.33884882927">
        <ele>771.99256671821</ele>
        <time>2021-08-03T17:55:53.066Z</time>
      </trkpt>
      <trkpt lat="42.86488660611" lon="0.33892393112">
        <ele>771.2129487425</ele>
        <time>2021-08-03T17:55:53.090Z</time>
      </trkpt>
      <trkpt lat="42.8649724368" lon="0.33894538879">
        <ele>770.43203855123</ele>
        <time>2021-08-03T17:55:53.115Z</time>
      </trkpt>
      <trkpt lat="42.86502599716" lon="0.33896684647">
        <ele>769.64691934796</ele>
        <time>2021-08-03T17:55:53.141Z</time>
      </trkpt>
      <trkpt lat="42.86532648839" lon="0.33908486366">
        <ele>768.81769529891</ele>
        <time>2021-08-03T17:55:53.172Z</time>
      </trkpt>
      <trkpt lat="42.86548742093" lon="0.33914923668">
        <ele>767.97217895542</ele>
        <time>2021-08-03T17:55:53.206Z</time>
      </trkpt>
      <trkpt lat="42.86561616696" lon="0.33918142319">
        <ele>767.11214358653</ele>
        <time>2021-08-03T17:55:53.242Z</time>
      </trkpt>
      <trkpt lat="42.86568053998" lon="0.33919215202">
        <ele>766.23720657692</ele>
        <time>2021-08-03T17:55:53.279Z</time>
      </trkpt>
      <trkpt lat="42.86700018682" lon="0.33962130547">
        <ele>765.20127701426</ele>
        <time>2021-08-03T17:55:53.338Z</time>
      </trkpt>
      <trkpt lat="42.86749362946" lon="0.33977150917">
        <ele>764.16135096043</ele>
        <time>2021-08-03T17:55:53.405Z</time>
      </trkpt>
      <trkpt lat="42.87138819695" lon="0.34097313881">
        <ele>762.50645445615</ele>
        <time>2021-08-03T17:55:53.536Z</time>
      </trkpt>
      <trkpt lat="42.87138828076" lon="0.34097313881">
        <ele>761.19855335132</ele>
        <time>2021-08-03T17:55:53.667Z</time>
      </trkpt>
      <trkpt lat="42.87190318108" lon="0.34113407135">
        <ele>759.90279751537</ele>
        <time>2021-08-03T17:55:53.806Z</time>
      </trkpt>
      <trkpt lat="42.87216075696" lon="0.34128427505">
        <ele>758.57234835603</ele>
        <time>2021-08-03T17:55:53.950Z</time>
      </trkpt>
      <trkpt lat="42.87268638611" lon="0.34161686897">
        <ele>757.20965679952</ele>
        <time>2021-08-03T17:55:54.103Z</time>
      </trkpt>
      <trkpt lat="42.87327647209" lon="0.34211039543">
        <ele>755.84522724196</ele>
        <time>2021-08-03T17:55:54.267Z</time>
      </trkpt>
      <trkpt lat="42.87327655591" lon="0.34211039543">
        <ele>754.63671467038</ele>
        <time>2021-08-03T17:55:54.431Z</time>
      </trkpt>
      <trkpt lat="42.87337311544" lon="0.34218549728">
        <ele>753.47615933795</ele>
        <time>2021-08-03T17:55:54.597Z</time>
      </trkpt>
      <trkpt lat="42.87340530194" lon="0.34221768379">
        <ele>752.39450769517</ele>
        <time>2021-08-03T17:55:54.763Z</time>
      </trkpt>
      <trkpt lat="42.87375926971" lon="0.3425180912">
        <ele>751.25426056532</ele>
        <time>2021-08-03T17:55:54.936Z</time>
      </trkpt>
      <trkpt lat="42.87383445539" lon="0.34258246422">
        <ele>750.23989723541</ele>
        <time>2021-08-03T17:55:55.111Z</time>
      </trkpt>
      <trkpt lat="42.87387737073" lon="0.34261465073">
        <ele>749.30198207527</ele>
        <time>2021-08-03T17:55:55.286Z</time>
      </trkpt>
      <trkpt lat="42.87451037206" lon="0.34312963486">
        <ele>748.27290156505</ele>
        <time>2021-08-03T17:55:55.473Z</time>
      </trkpt>
      <trkpt lat="42.87513256073" lon="0.34366607666">
        <ele>747.29501697487</ele>
        <time>2021-08-03T17:55:55.672Z</time>
      </trkpt>
      <trkpt lat="42.87550806999" lon="0.34392356873">
        <ele>746.35503978922</ele>
        <time>2021-08-03T17:55:55.878Z</time>
      </trkpt>
      <trkpt lat="42.8757441882" lon="0.34405231476">
        <ele>745.47353110997</ele>
        <time>2021-08-03T17:55:56.088Z</time>
      </trkpt>
      <trkpt lat="42.87575491704" lon="0.34406304359">
        <ele>744.71383755418</ele>
        <time>2021-08-03T17:55:56.298Z</time>
      </trkpt>
      <trkpt lat="42.87663459778" lon="0.34455657005">
        <ele>743.64626214102</ele>
        <time>2021-08-03T17:55:56.523Z</time>
      </trkpt>
      <trkpt lat="42.8769993782" lon="0.34480333328">
        <ele>742.96559785228</ele>
        <time>2021-08-03T17:55:56.755Z</time>
      </trkpt>
      <trkpt lat="42.87709593773" lon="0.34488916397">
        <ele>742.32573598623</ele>
        <time>2021-08-03T17:55:56.989Z</time>
      </trkpt>
      <trkpt lat="42.87709602155" lon="0.34488916397">
        <ele>741.77670525204</ele>
        <time>2021-08-03T17:55:57.223Z</time>
      </trkpt>
      <trkpt lat="42.8773856163" lon="0.34521102905">
        <ele>741.14308193093</ele>
        <time>2021-08-03T17:55:57.463Z</time>
      </trkpt>
      <trkpt lat="42.87904858589" lon="0.34633755684">
        <ele>740.70425185861</ele>
        <time>2021-08-03T17:55:57.732Z</time>
      </trkpt>
      <trkpt lat="42.8791987896" lon="0.34629464149">
        <ele>740.4312326074</ele>
        <time>2021-08-03T17:55:58.004Z</time>
      </trkpt>
      <trkpt lat="42.87984251976" lon="0.346326828">
        <ele>740.14483257191</ele>
        <time>2021-08-03T17:55:58.286Z</time>
      </trkpt>
      <trkpt lat="42.88020730019" lon="0.34642338753">
        <ele>739.87973321954</ele>
        <time>2021-08-03T17:55:58.574Z</time>
      </trkpt>
      <trkpt lat="42.88069009781" lon="0.34670233727">
        <ele>739.64469376917</ele>
        <time>2021-08-03T17:55:58.870Z</time>
      </trkpt>
      <trkpt lat="42.88084030151" lon="0.34676671028">
        <ele>739.50832540871</ele>
        <time>2021-08-03T17:55:59.169Z</time>
      </trkpt>
      <trkpt lat="42.88093686104" lon="0.34677743912">
        <ele>739.4245336127</ele>
        <time>2021-08-03T17:55:59.469Z</time>
      </trkpt>
      <trkpt lat="42.88174152374" lon="0.34650921822">
        <ele>739.62917061935</ele>
        <time>2021-08-03T17:55:59.783Z</time>
      </trkpt>
      <trkpt lat="42.88194537163" lon="0.34650921822">
        <ele>739.71629455486</ele>
        <time>2021-08-03T17:56:00.100Z</time>
      </trkpt>
      <trkpt lat="42.88232096471" lon="0.34661650658">
        <ele>739.66558845029</ele>
        <time>2021-08-03T17:56:00.423Z</time>
      </trkpt>
      <trkpt lat="42.88280367851" lon="0.34676671028">
        <ele>739.59180459928</ele>
        <time>2021-08-03T17:56:00.754Z</time>
      </trkpt>
      <trkpt lat="42.88331866264" lon="0.34695982933">
        <ele>739.48105681573</ele>
        <time>2021-08-03T17:56:01.094Z</time>
      </trkpt>
      <trkpt lat="42.88388729095" lon="0.34723877907">
        <ele>739.47645293726</ele>
        <time>2021-08-03T17:56:01.443Z</time>
      </trkpt>
      <trkpt lat="42.88434871472" lon="0.34733533859">
        <ele>739.56370334103</ele>
        <time>2021-08-03T17:56:01.800Z</time>
      </trkpt>
      <trkpt lat="42.88446673192" lon="0.3473675251">
        <ele>739.55349071241</ele>
        <time>2021-08-03T17:56:02.159Z</time>
      </trkpt>
      <trkpt lat="42.88476705551" lon="0.34743189812">
        <ele>739.54961014576</ele>
        <time>2021-08-03T17:56:02.522Z</time>
      </trkpt>
      <trkpt lat="42.88591504097" lon="0.34760355949">
        <ele>739.36525279677</ele>
        <time>2021-08-03T17:56:02.904Z</time>
      </trkpt>
      <trkpt lat="42.88591512479" lon="0.34760355949">
        <ele>739.28878119084</ele>
        <time>2021-08-03T17:56:03.286Z</time>
      </trkpt>
      <trkpt lat="42.88618326187" lon="0.34764647484">
        <ele>739.13831546822</ele>
        <time>2021-08-03T17:56:03.672Z</time>
      </trkpt>
      <trkpt lat="42.88770675659" lon="0.34754991531">
        <ele>738.82597410411</ele>
        <time>2021-08-03T17:56:04.083Z</time>
      </trkpt>
      <trkpt lat="42.88770684041" lon="0.34754991531">
        <ele>738.65652998722</ele>
        <time>2021-08-03T17:56:04.494Z</time>
      </trkpt>
      <trkpt lat="42.88780339994" lon="0.34756064415">
        <ele>738.55665977624</ele>
        <time>2021-08-03T17:56:04.906Z</time>
      </trkpt>
      <trkpt lat="42.88792133331" lon="0.34760355949">
        <ele>738.47337425153</ele>
        <time>2021-08-03T17:56:05.320Z</time>
      </trkpt>
      <trkpt lat="42.88805007935" lon="0.34770011902">
        <ele>738.38497896489</ele>
        <time>2021-08-03T17:56:05.737Z</time>
      </trkpt>
      <trkpt lat="42.88813591003" lon="0.34781813622">
        <ele>738.25784456745</ele>
        <time>2021-08-03T17:56:06.155Z</time>
      </trkpt>
      <trkpt lat="42.88813599385" lon="0.34781813622">
        <ele>738.11426761275</ele>
        <time>2021-08-03T17:56:06.573Z</time>
      </trkpt>
      <trkpt lat="42.88842558861" lon="0.34846186638">
        <ele>737.82619918621</ele>
        <time>2021-08-03T17:56:07.000Z</time>
      </trkpt>
      <trkpt lat="42.88850069046" lon="0.3485584259">
        <ele>737.61451651036</ele>
        <time>2021-08-03T17:56:07.429Z</time>
      </trkpt>
      <trkpt lat="42.88850077428" lon="0.3485584259">
        <ele>737.40043612046</ele>
        <time>2021-08-03T17:56:07.858Z</time>
      </trkpt>
      <trkpt lat="42.88855433464" lon="0.34863352776">
        <ele>737.16185175161</ele>
        <time>2021-08-03T17:56:08.288Z</time>
      </trkpt>
      <trkpt lat="42.88859724998" lon="0.3486764431">
        <ele>736.91870011051</ele>
        <time>2021-08-03T17:56:08.719Z</time>
      </trkpt>
      <trkpt lat="42.88911231793" lon="0.34900903702">
        <ele>736.70548031586</ele>
        <time>2021-08-03T17:56:09.159Z</time>
      </trkpt>
      <trkpt lat="42.88919814862" lon="0.3490626812">
        <ele>736.4433367282</ele>
        <time>2021-08-03T17:56:09.601Z</time>
      </trkpt>
      <trkpt lat="42.8892517928" lon="0.3490626812">
        <ele>736.18753002265</ele>
        <time>2021-08-03T17:56:10.044Z</time>
      </trkpt>
      <trkpt lat="42.88947709836" lon="0.34901976585">
        <ele>736.01875151123</ele>
        <time>2021-08-03T17:56:10.490Z</time>
      </trkpt>
      <trkpt lat="42.88973450661" lon="0.34896612167">
        <ele>735.78346562948</ele>
        <time>2021-08-03T17:56:10.940Z</time>
      </trkpt>
      <trkpt lat="42.88993835449" lon="0.34896612167">
        <ele>735.50040864592</ele>
        <time>2021-08-03T17:56:11.394Z</time>
      </trkpt>
      <trkpt lat="42.89009937085" lon="0.34903049469">
        <ele>735.16641438616</ele>
        <time>2021-08-03T17:56:11.850Z</time>
      </trkpt>
      <trkpt lat="42.89019593038" lon="0.34911632538">
        <ele>734.80004024334</ele>
        <time>2021-08-03T17:56:12.308Z</time>
      </trkpt>
      <trkpt lat="42.8903567791" lon="0.34943819046">
        <ele>734.31956896504</ele>
        <time>2021-08-03T17:56:12.771Z</time>
      </trkpt>
      <trkpt lat="42.89042123593" lon="0.349599123">
        <ele>733.8308372164</ele>
        <time>2021-08-03T17:56:13.236Z</time>
      </trkpt>
      <trkpt lat="42.89050706662" lon="0.34985661507">
        <ele>733.28681898146</ele>
        <time>2021-08-03T17:56:13.704Z</time>
      </trkpt>
      <trkpt lat="42.89064645767" lon="0.350253582">
        <ele>732.67886198447</ele>
        <time>2021-08-03T17:56:14.177Z</time>
      </trkpt>
      <trkpt lat="42.89068945684" lon="0.35033941269">
        <ele>732.12185572442</ele>
        <time>2021-08-03T17:56:14.652Z</time>
      </trkpt>
      <trkpt lat="42.89083957672" lon="0.35058617592">
        <ele>731.51776306939</ele>
        <time>2021-08-03T17:56:15.130Z</time>
      </trkpt>
      <trkpt lat="42.89108633995" lon="0.35089731216">
        <ele>730.85121144936</ele>
        <time>2021-08-03T17:56:15.614Z</time>
      </trkpt>
      <trkpt lat="42.89120435715" lon="0.35100460052">
        <ele>730.2384349323</ele>
        <time>2021-08-03T17:56:16.100Z</time>
      </trkpt>
      <trkpt lat="42.89131172933" lon="0.35107970238">
        <ele>729.6437944673</ele>
        <time>2021-08-03T17:56:16.588Z</time>
      </trkpt>
      <trkpt lat="42.89189100266" lon="0.35139083862">
        <ele>729.00502419105</ele>
        <time>2021-08-03T17:56:17.086Z</time>
      </trkpt>
      <trkpt lat="42.89221286774" lon="0.35154104233">
        <ele>728.38194569989</ele>
        <time>2021-08-03T17:56:17.589Z</time>
      </trkpt>
      <trkpt lat="42.89229869843" lon="0.35155177116">
        <ele>727.83909274472</ele>
        <time>2021-08-03T17:56:18.094Z</time>
      </trkpt>
      <trkpt lat="42.89321064949" lon="0.3514444828">
        <ele>727.26862091862</ele>
        <time>2021-08-03T17:56:18.613Z</time>
      </trkpt>
      <trkpt lat="42.89321073331" lon="0.3514444828">
        <ele>726.7838060595</ele>
        <time>2021-08-03T17:56:19.132Z</time>
      </trkpt>
      <trkpt lat="42.89381146431" lon="0.35146594048">
        <ele>726.29716361976</ele>
        <time>2021-08-03T17:56:19.661Z</time>
      </trkpt>
      <trkpt lat="42.89483070374" lon="0.35157322884">
        <ele>725.95051067294</ele>
        <time>2021-08-03T17:56:20.206Z</time>
      </trkpt>
      <trkpt lat="42.89504528046" lon="0.35169124603">
        <ele>725.60243865055</ele>
        <time>2021-08-03T17:56:20.755Z</time>
      </trkpt>
      <trkpt lat="42.89529204369" lon="0.35191655159">
        <ele>725.21093193685</ele>
        <time>2021-08-03T17:56:21.309Z</time>
      </trkpt>
      <trkpt lat="42.89715886116" lon="0.35335421562">
        <ele>724.48241813679</ele>
        <time>2021-08-03T17:56:21.897Z</time>
      </trkpt>
      <trkpt lat="42.89726614952" lon="0.35345077515">
        <ele>724.17387129307</ele>
        <time>2021-08-03T17:56:22.487Z</time>
      </trkpt>
      <trkpt lat="42.8973197937" lon="0.35354733467">
        <ele>723.92021795631</ele>
        <time>2021-08-03T17:56:23.079Z</time>
      </trkpt>
      <trkpt lat="42.89696582593" lon="0.3537940979">
        <ele>723.68079371099</ele>
        <time>2021-08-03T17:56:23.677Z</time>
      </trkpt>
      <trkpt lat="42.89687999524" lon="0.35385847092">
        <ele>723.56639038834</ele>
        <time>2021-08-03T17:56:24.277Z</time>
      </trkpt>
      <trkpt lat="42.8959144" lon="0.35450220108">
        <ele>723.89596698142</ele>
        <time>2021-08-03T17:56:24.894Z</time>
      </trkpt>
      <trkpt lat="42.89571046829" lon="0.35463094711">
        <ele>724.03057452228</ele>
        <time>2021-08-03T17:56:25.514Z</time>
      </trkpt>
      <trkpt lat="42.89545306005" lon="0.35472750664">
        <ele>724.24250937588</ele>
        <time>2021-08-03T17:56:26.139Z</time>
      </trkpt>
      <trkpt lat="42.89537787437" lon="0.35468459129">
        <ele>724.41270342556</ele>
        <time>2021-08-03T17:56:26.765Z</time>
      </trkpt>
      <trkpt lat="42.89531350136" lon="0.35467386246">
        <ele>724.62396041299</ele>
        <time>2021-08-03T17:56:27.392Z</time>
      </trkpt>
      <trkpt lat="42.89524912834" lon="0.35470604897">
        <ele>724.87724909461</ele>
        <time>2021-08-03T17:56:28.020Z</time>
      </trkpt>
      <trkpt lat="42.895206213" lon="0.35475969315">
        <ele>725.15458933826</ele>
        <time>2021-08-03T17:56:28.649Z</time>
      </trkpt>
      <trkpt lat="42.89517402649" lon="0.354834795">
        <ele>725.45689401856</ele>
        <time>2021-08-03T17:56:29.279Z</time>
      </trkpt>
      <trkpt lat="42.89516329765" lon="0.35492062569">
        <ele>725.76753183571</ele>
        <time>2021-08-03T17:56:29.910Z</time>
      </trkpt>
      <trkpt lat="42.89518475533" lon="0.35504937172">
        <ele>726.08839032561</ele>
        <time>2021-08-03T17:56:30.543Z</time>
      </trkpt>
      <trkpt lat="42.89522767067" lon="0.35511374474">
        <ele>726.37190682519</ele>
        <time>2021-08-03T17:56:31.177Z</time>
      </trkpt>
      <trkpt lat="42.89531350136" lon="0.35516738892">
        <ele>726.62413208466</ele>
        <time>2021-08-03T17:56:31.812Z</time>
      </trkpt>
      <trkpt lat="42.89534568787" lon="0.35517811775">
        <ele>726.85323769299</ele>
        <time>2021-08-03T17:56:32.448Z</time>
      </trkpt>
      <trkpt lat="42.89539933205" lon="0.35516738892">
        <ele>727.04107194469</ele>
        <time>2021-08-03T17:56:33.085Z</time>
      </trkpt>
      <trkpt lat="42.89566755295" lon="0.35527467728">
        <ele>727.18274541015</ele>
        <time>2021-08-03T17:56:33.726Z</time>
      </trkpt>
      <trkpt lat="42.89581775665" lon="0.35536050797">
        <ele>727.31629854541</ele>
        <time>2021-08-03T17:56:34.370Z</time>
      </trkpt>
      <trkpt lat="42.89604306221" lon="0.35544633865">
        <ele>727.36404931169</ele>
        <time>2021-08-03T17:56:35.017Z</time>
      </trkpt>
      <trkpt lat="42.89622545242" lon="0.35555362701">
        <ele>727.38163675251</ele>
        <time>2021-08-03T17:56:35.668Z</time>
      </trkpt>
      <trkpt lat="42.89660096169" lon="0.35584330559">
        <ele>727.34179344509</ele>
        <time>2021-08-03T17:56:36.325Z</time>
      </trkpt>
      <trkpt lat="42.89709448814" lon="0.35619735718">
        <ele>727.29073169584</ele>
        <time>2021-08-03T17:56:36.991Z</time>
      </trkpt>
      <trkpt lat="42.89748072624" lon="0.35637974739">
        <ele>727.19266557491</ele>
        <time>2021-08-03T17:56:37.664Z</time>
      </trkpt>
      <trkpt lat="42.8984142188" lon="0.35674452782">
        <ele>726.99350017269</ele>
        <time>2021-08-03T17:56:38.352Z</time>
      </trkpt>
      <trkpt lat="42.89841413498" lon="0.35674452782">
        <ele>726.82466229176</ele>
        <time>2021-08-03T17:56:39.040Z</time>
      </trkpt>
      <trkpt lat="42.89964803495" lon="0.3572165966">
        <ele>726.7431932344</ele>
        <time>2021-08-03T17:56:39.749Z</time>
      </trkpt>
      <trkpt lat="42.89985188283" lon="0.35729169846">
        <ele>726.50345003766</ele>
        <time>2021-08-03T17:56:40.461Z</time>
      </trkpt>
      <trkpt lat="42.89985179901" lon="0.35729169846">
        <ele>726.20653388011</ele>
        <time>2021-08-03T17:56:41.173Z</time>
      </trkpt>
      <trkpt lat="42.90060290135" lon="0.35754919052">
        <ele>725.80603192154</ele>
        <time>2021-08-03T17:56:41.898Z</time>
      </trkpt>
      <trkpt lat="42.90060281754" lon="0.35754919052">
        <ele>725.40044347931</ele>
        <time>2021-08-03T17:56:42.623Z</time>
      </trkpt>
      <trkpt lat="42.90132173337" lon="0.35779595375">
        <ele>724.94120159802</ele>
        <time>2021-08-03T17:56:43.360Z</time>
      </trkpt>
      <trkpt lat="42.90161141194" lon="0.35789251328">
        <ele>724.43399105807</ele>
        <time>2021-08-03T17:56:44.101Z</time>
      </trkpt>
      <trkpt lat="42.90253400803" lon="0.35820364952">
        <ele>723.97809209525</ele>
        <time>2021-08-03T17:56:44.858Z</time>
      </trkpt>
      <trkpt lat="42.90258773603" lon="0.35821437836">
        <ele>723.34995717179</ele>
        <time>2021-08-03T17:56:45.615Z</time>
      </trkpt>
      <trkpt lat="42.90274858475" lon="0.35821437836">
        <ele>722.52246839245</ele>
        <time>2021-08-03T17:56:46.375Z</time>
      </trkpt>
      <trkpt lat="42.90283441544" lon="0.35826802254">
        <ele>721.74455351221</ele>
        <time>2021-08-03T17:56:47.137Z</time>
      </trkpt>
      <trkpt lat="42.90294178762" lon="0.35827875137">
        <ele>720.90203610681</ele>
        <time>2021-08-03T17:56:47.900Z</time>
      </trkpt>
      <trkpt lat="42.9029417038" lon="0.35827875137">
        <ele>720.05702832582</ele>
        <time>2021-08-03T17:56:48.663Z</time>
      </trkpt>
      <trkpt lat="42.90294178762" lon="0.35827875137">
        <ele>717.25282868041</ele>
        <time>2021-08-03T17:56:49.426Z</time>
      </trkpt>
      <trkpt lat="42.90283441544" lon="0.35826802254">
        <ele>716.2881827287</ele>
        <time>2021-08-03T17:56:50.191Z</time>
      </trkpt>
      <trkpt lat="42.90274866857" lon="0.35821437836">
        <ele>715.28272374184</ele>
        <time>2021-08-03T17:56:50.957Z</time>
      </trkpt>
      <trkpt lat="42.90284522809" lon="0.35820364952">
        <ele>714.13918727694</ele>
        <time>2021-08-03T17:56:51.725Z</time>
      </trkpt>
      <trkpt lat="42.90284514427" lon="0.35820364952">
        <ele>713.03528515024</ele>
        <time>2021-08-03T17:56:52.493Z</time>
      </trkpt>
      <trkpt lat="42.90294178762" lon="0.35821437836">
        <ele>711.88104125155</ele>
        <time>2021-08-03T17:56:53.263Z</time>
      </trkpt>
      <trkpt lat="42.90342450142" lon="0.3582572937">
        <ele>710.58522459038</ele>
        <time>2021-08-03T17:56:54.040Z</time>
      </trkpt>
      <trkpt lat="42.90390729904" lon="0.35828948021">
        <ele>709.23609103045</ele>
        <time>2021-08-03T17:56:54.825Z</time>
      </trkpt>
      <trkpt lat="42.90435791016" lon="0.35830020905">
        <ele>707.89618445256</ele>
        <time>2021-08-03T17:56:55.617Z</time>
      </trkpt>
      <trkpt lat="42.90488370694" lon="0.35816073418">
        <ele>706.6138881873</ele>
        <time>2021-08-03T17:56:56.418Z</time>
      </trkpt>
      <trkpt lat="42.90555953979" lon="0.35802125931">
        <ele>705.32230513512</ele>
        <time>2021-08-03T17:56:57.230Z</time>
      </trkpt>
      <trkpt lat="42.90574193001" lon="0.35797834396">
        <ele>704.1642214693</ele>
        <time>2021-08-03T17:56:58.045Z</time>
      </trkpt>
      <trkpt lat="42.90579565801" lon="0.3579890728">
        <ele>703.0866048965</ele>
        <time>2021-08-03T17:56:58.861Z</time>
      </trkpt>
      <trkpt lat="42.90584921837" lon="0.35783886909">
        <ele>702.05638160055</ele>
        <time>2021-08-03T17:56:59.679Z</time>
      </trkpt>
      <trkpt lat="42.90592440404" lon="0.35753846169">
        <ele>701.1139161478</ele>
        <time>2021-08-03T17:57:00.500Z</time>
      </trkpt>
      <trkpt lat="42.90608525276" lon="0.35753846169">
        <ele>700.22377262778</ele>
        <time>2021-08-03T17:57:01.324Z</time>
      </trkpt>
      <trkpt lat="42.90608533658" lon="0.35753846169">
        <ele>699.40423948404</ele>
        <time>2021-08-03T17:57:02.148Z</time>
      </trkpt>
      <trkpt lat="42.90680408478" lon="0.35744190216">
        <ele>698.71467596624</ele>
        <time>2021-08-03T17:57:02.983Z</time>
      </trkpt>
      <trkpt lat="42.90693283081" lon="0.35749554634">
        <ele>698.08274684018</ele>
        <time>2021-08-03T17:57:03.821Z</time>
      </trkpt>
      <trkpt lat="42.90716894902" lon="0.35768866539">
        <ele>697.54945518314</ele>
        <time>2021-08-03T17:57:04.663Z</time>
      </trkpt>
      <trkpt lat="42.90738352574" lon="0.3578710556">
        <ele>697.09949343766</ele>
        <time>2021-08-03T17:57:05.509Z</time>
      </trkpt>
      <trkpt lat="42.90790915489" lon="0.35832166672">
        <ele>696.72130225981</ele>
        <time>2021-08-03T17:57:06.365Z</time>
      </trkpt>
      <trkpt lat="42.90830612183" lon="0.35875082016">
        <ele>696.39152886424</ele>
        <time>2021-08-03T17:57:07.229Z</time>
      </trkpt>
      <trkpt lat="42.90908932686" lon="0.35964131355">
        <ele>696.12985173706</ele>
        <time>2021-08-03T17:57:08.109Z</time>
      </trkpt>
      <trkpt lat="42.90930390358" lon="0.36001682281">
        <ele>695.97378411049</ele>
        <time>2021-08-03T17:57:08.995Z</time>
      </trkpt>
      <trkpt lat="42.9093682766" lon="0.3599524498">
        <ele>695.94362260596</ele>
        <time>2021-08-03T17:57:09.882Z</time>
      </trkpt>
      <trkpt lat="42.90944337845" lon="0.35992026329">
        <ele>696.01358454169</ele>
        <time>2021-08-03T17:57:10.771Z</time>
      </trkpt>
      <trkpt lat="42.90952920914" lon="0.35990953445">
        <ele>696.1993943345</ele>
        <time>2021-08-03T17:57:11.661Z</time>
      </trkpt>
      <trkpt lat="42.90970087051" lon="0.36000609398">
        <ele>696.48708232654</ele>
        <time>2021-08-03T17:57:12.554Z</time>
      </trkpt>
      <trkpt lat="42.90980815887" lon="0.36002755165">
        <ele>696.91403052605</ele>
        <time>2021-08-03T17:57:13.449Z</time>
      </trkpt>
      <trkpt lat="42.90996909142" lon="0.36000609398">
        <ele>697.48676156479</ele>
        <time>2021-08-03T17:57:14.346Z</time>
      </trkpt>
      <trkpt lat="42.91015148163" lon="0.35996317863">
        <ele>698.17790147591</ele>
        <time>2021-08-03T17:57:15.246Z</time>
      </trkpt>
      <trkpt lat="42.91044124402" lon="0.35985589027">
        <ele>698.97634561789</ele>
        <time>2021-08-03T17:57:16.151Z</time>
      </trkpt>
      <trkpt lat="42.9104411602" lon="0.35985589027">
        <ele>699.86588092533</ele>
        <time>2021-08-03T17:57:17.056Z</time>
      </trkpt>
      <trkpt lat="42.91081666946" lon="0.35966277122">
        <ele>700.87352878941</ele>
        <time>2021-08-03T17:57:17.967Z</time>
      </trkpt>
      <trkpt lat="42.91118144989" lon="0.35933017731">
        <ele>702.20513716815</ele>
        <time>2021-08-03T17:57:18.885Z</time>
      </trkpt>
      <trkpt lat="42.91178226471" lon="0.35883665085">
        <ele>703.62969887157</ele>
        <time>2021-08-03T17:57:19.815Z</time>
      </trkpt>
      <trkpt lat="42.91217923164" lon="0.35857915878">
        <ele>704.96623919793</ele>
        <time>2021-08-03T17:57:20.752Z</time>
      </trkpt>
      <trkpt lat="42.91257619858" lon="0.35838603973">
        <ele>706.4133807157</ele>
        <time>2021-08-03T17:57:21.695Z</time>
      </trkpt>
      <trkpt lat="42.91287660599" lon="0.35828948021">
        <ele>708.14194883342</ele>
        <time>2021-08-03T17:57:22.643Z</time>
      </trkpt>
      <trkpt lat="42.91311264038" lon="0.35824656487">
        <ele>709.899918738</ele>
        <time>2021-08-03T17:57:23.595Z</time>
      </trkpt>
      <trkpt lat="42.9134989623" lon="0.35823583603">
        <ele>711.76796157255</ele>
        <time>2021-08-03T17:57:24.553Z</time>
      </trkpt>
      <trkpt lat="42.91349887848" lon="0.35823583603">
        <ele>713.64508379019</ele>
        <time>2021-08-03T17:57:25.511Z</time>
      </trkpt>
      <trkpt lat="42.91358479299" lon="0.3582572937">
        <ele>715.63454402319</ele>
        <time>2021-08-03T17:57:26.471Z</time>
      </trkpt>
      <trkpt lat="42.91375637054" lon="0.35830020905">
        <ele>717.72867767778</ele>
        <time>2021-08-03T17:57:27.434Z</time>
      </trkpt>
      <trkpt lat="42.91405677795" lon="0.35857915878">
        <ele>719.56326774996</ele>
        <time>2021-08-03T17:57:28.402Z</time>
      </trkpt>
      <trkpt lat="42.91423916817" lon="0.35869717598">
        <ele>721.67775987478</ele>
        <time>2021-08-03T17:57:29.374Z</time>
      </trkpt>
      <trkpt lat="42.91442155838" lon="0.35877227783">
        <ele>723.97976295273</ele>
        <time>2021-08-03T17:57:30.349Z</time>
      </trkpt>
      <trkpt lat="42.91459321976" lon="0.35882592201">
        <ele>726.3891679843</ele>
        <time>2021-08-03T17:57:31.326Z</time>
      </trkpt>
      <trkpt lat="42.91476488113" lon="0.3587937355">
        <ele>729.00034162031</ele>
        <time>2021-08-03T17:57:32.306Z</time>
      </trkpt>
      <trkpt lat="42.91482925415" lon="0.35872936249">
        <ele>731.65072630774</ele>
        <time>2021-08-03T17:57:33.288Z</time>
      </trkpt>
      <trkpt lat="42.914904356" lon="0.35836458206">
        <ele>734.57443141978</ele>
        <time>2021-08-03T17:57:34.274Z</time>
      </trkpt>
      <trkpt lat="42.91501164436" lon="0.357452631">
        <ele>737.71225942613</ele>
        <time>2021-08-03T17:57:35.271Z</time>
      </trkpt>
      <trkpt lat="42.9151403904" lon="0.35703420639">
        <ele>740.49608175372</ele>
        <time>2021-08-03T17:57:36.273Z</time>
      </trkpt>
      <trkpt lat="42.91530132294" lon="0.35662651062">
        <ele>743.2725270819</ele>
        <time>2021-08-03T17:57:37.281Z</time>
      </trkpt>
      <trkpt lat="42.91563391685" lon="0.35585403442">
        <ele>746.03363875736</ele>
        <time>2021-08-03T17:57:38.299Z</time>
      </trkpt>
      <trkpt lat="42.91577339172" lon="0.35566091537">
        <ele>748.51275705288</ele>
        <time>2021-08-03T17:57:39.320Z</time>
      </trkpt>
      <trkpt lat="42.91611671448" lon="0.35544633865">
        <ele>750.94854515119</ele>
        <time>2021-08-03T17:57:40.347Z</time>
      </trkpt>
      <trkpt lat="42.91619181633" lon="0.35531759262">
        <ele>753.56770255431</ele>
        <time>2021-08-03T17:57:41.376Z</time>
      </trkpt>
      <trkpt lat="42.91620254517" lon="0.35460948944">
        <ele>756.4574511492</ele>
        <time>2021-08-03T17:57:42.414Z</time>
      </trkpt>
      <trkpt lat="42.91623473167" lon="0.35409450531">
        <ele>759.17500118671</ele>
        <time>2021-08-03T17:57:43.458Z</time>
      </trkpt>
      <trkpt lat="42.91639566422" lon="0.35366535187">
        <ele>761.29385998054</ele>
        <time>2021-08-03T17:57:44.507Z</time>
      </trkpt>
      <trkpt lat="42.91651368141" lon="0.35319328308">
        <ele>763.35331696897</ele>
        <time>2021-08-03T17:57:45.562Z</time>
      </trkpt>
      <trkpt lat="42.91651368141" lon="0.35245299339">
        <ele>765.70074206645</ele>
        <time>2021-08-03T17:57:46.626Z</time>
      </trkpt>
      <trkpt lat="42.91673898697" lon="0.35149812698">
        <ele>767.76342765551</ele>
        <time>2021-08-03T17:57:47.702Z</time>
      </trkpt>
      <trkpt lat="42.91678190231" lon="0.35134792328">
        <ele>769.72610212979</ele>
        <time>2021-08-03T17:57:48.780Z</time>
      </trkpt>
      <trkpt lat="42.91707158089" lon="0.35103678703">
        <ele>771.40710509502</ele>
        <time>2021-08-03T17:57:49.864Z</time>
      </trkpt>
      <trkpt lat="42.91718959808" lon="0.35086512566">
        <ele>772.99878667821</ele>
        <time>2021-08-03T17:57:50.950Z</time>
      </trkpt>
      <trkpt lat="42.91732907295" lon="0.35048961639">
        <ele>774.29879175815</ele>
        <time>2021-08-03T17:57:52.041Z</time>
      </trkpt>
      <trkpt lat="42.9173719883" lon="0.35024285316">
        <ele>775.79035141649</ele>
        <time>2021-08-03T17:57:53.135Z</time>
      </trkpt>
      <trkpt lat="42.91738271713" lon="0.34996390343">
        <ele>777.09654391686</ele>
        <time>2021-08-03T17:57:54.232Z</time>
      </trkpt>
      <trkpt lat="42.91736125946" lon="0.34969568253">
        <ele>778.35600917203</ele>
        <time>2021-08-03T17:57:55.333Z</time>
      </trkpt>
      <trkpt lat="42.9173719883" lon="0.34945964813">
        <ele>779.53135790661</ele>
        <time>2021-08-03T17:57:56.436Z</time>
      </trkpt>
      <trkpt lat="42.91743636131" lon="0.34926652908">
        <ele>780.39606646219</ele>
        <time>2021-08-03T17:57:57.542Z</time>
      </trkpt>
      <trkpt lat="42.91761875153" lon="0.34904122353">
        <ele>781.01476868689</ele>
        <time>2021-08-03T17:57:58.652Z</time>
      </trkpt>
      <trkpt lat="42.91796207428" lon="0.34873008728">
        <ele>781.67466282393</ele>
        <time>2021-08-03T17:57:59.768Z</time>
      </trkpt>
      <trkpt lat="42.91806936264" lon="0.34857988358">
        <ele>782.39906762669</ele>
        <time>2021-08-03T17:58:00.887Z</time>
      </trkpt>
      <trkpt lat="42.91816592216" lon="0.34832239151">
        <ele>782.91411588401</ele>
        <time>2021-08-03T17:58:02.009Z</time>
      </trkpt>
      <trkpt lat="42.91834831238" lon="0.347635746">
        <ele>783.38370626078</ele>
        <time>2021-08-03T17:58:03.140Z</time>
      </trkpt>
      <trkpt lat="42.91838058271" lon="0.34759283066">
        <ele>783.72571529819</ele>
        <time>2021-08-03T17:58:04.272Z</time>
      </trkpt>
      <trkpt lat="42.91838049889" lon="0.34759283066">
        <ele>784.04211486413</ele>
        <time>2021-08-03T17:58:05.404Z</time>
      </trkpt>
      <trkpt lat="42.91847705841" lon="0.34743189812">
        <ele>784.43526658887</ele>
        <time>2021-08-03T17:58:06.538Z</time>
      </trkpt>
      <trkpt lat="42.91867017746" lon="0.34720659256">
        <ele>784.74971350487</ele>
        <time>2021-08-03T17:58:07.676Z</time>
      </trkpt>
      <trkpt lat="42.91885256767" lon="0.34703493118">
        <ele>784.95877567506</ele>
        <time>2021-08-03T17:58:08.818Z</time>
      </trkpt>
      <trkpt lat="42.91922807693" lon="0.34682035446">
        <ele>785.06300822264</ele>
        <time>2021-08-03T17:58:09.966Z</time>
      </trkpt>
      <trkpt lat="42.91941055097" lon="0.34665942192">
        <ele>785.48445220185</ele>
        <time>2021-08-03T17:58:11.118Z</time>
      </trkpt>
      <trkpt lat="42.91946419515" lon="0.34658432007">
        <ele>785.70099354464</ele>
        <time>2021-08-03T17:58:12.271Z</time>
      </trkpt>
      <trkpt lat="42.91964650154" lon="0.34625172615">
        <ele>785.68062520498</ele>
        <time>2021-08-03T17:58:13.429Z</time>
      </trkpt>
      <trkpt lat="42.91982889175" lon="0.34584403038">
        <ele>785.98520176338</ele>
        <time>2021-08-03T17:58:14.592Z</time>
      </trkpt>
      <trkpt lat="42.91988253593" lon="0.34577965736">
        <ele>786.02790994948</ele>
        <time>2021-08-03T17:58:15.757Z</time>
      </trkpt>
      <trkpt lat="42.91991480626" lon="0.34576892853">
        <ele>786.10606517678</ele>
        <time>2021-08-03T17:58:16.922Z</time>
      </trkpt>
      <trkpt lat="42.9199898243" lon="0.34573674202">
        <ele>786.16009973715</ele>
        <time>2021-08-03T17:58:18.088Z</time>
      </trkpt>
      <trkpt lat="42.92006492615" lon="0.34574747086">
        <ele>786.24619906879</ele>
        <time>2021-08-03T17:58:19.256Z</time>
      </trkpt>
      <trkpt lat="42.92012929916" lon="0.34576892853">
        <ele>786.55973246141</ele>
        <time>2021-08-03T17:58:20.425Z</time>
      </trkpt>
      <trkpt lat="42.92018294334" lon="0.34583330154">
        <ele>786.92786556889</ele>
        <time>2021-08-03T17:58:21.595Z</time>
      </trkpt>
      <trkpt lat="42.92023658752" lon="0.34591913223">
        <ele>787.36456722425</ele>
        <time>2021-08-03T17:58:22.766Z</time>
      </trkpt>
      <trkpt lat="42.9202580452" lon="0.34602642059">
        <ele>787.82782469629</ele>
        <time>2021-08-03T17:58:23.938Z</time>
      </trkpt>
      <trkpt lat="42.92022585869" lon="0.34616589546">
        <ele>788.29117614131</ele>
        <time>2021-08-03T17:58:25.112Z</time>
      </trkpt>
      <trkpt lat="42.92017221451" lon="0.34627318382">
        <ele>788.8220427902</ele>
        <time>2021-08-03T17:58:26.288Z</time>
      </trkpt>
      <trkpt lat="42.92011857033" lon="0.34647703171">
        <ele>789.58362907245</ele>
        <time>2021-08-03T17:58:27.466Z</time>
      </trkpt>
      <trkpt lat="42.92011857033" lon="0.34686326981">
        <ele>790.74760173682</ele>
        <time>2021-08-03T17:58:28.649Z</time>
      </trkpt>
      <trkpt lat="42.92006492615" lon="0.34695982933">
        <ele>791.75305541837</ele>
        <time>2021-08-03T17:58:29.833Z</time>
      </trkpt>
      <trkpt lat="42.91991472244" lon="0.34712076187">
        <ele>792.834459868</ele>
        <time>2021-08-03T17:58:31.020Z</time>
      </trkpt>
      <trkpt lat="42.91997909546" lon="0.34713149071">
        <ele>794.16101898342</ele>
        <time>2021-08-03T17:58:32.208Z</time>
      </trkpt>
      <trkpt lat="42.92022585869" lon="0.34691691399">
        <ele>795.66974645066</ele>
        <time>2021-08-03T17:58:33.401Z</time>
      </trkpt>
      <trkpt lat="42.9202902317" lon="0.34677743912">
        <ele>797.18481692353</ele>
        <time>2021-08-03T17:58:34.596Z</time>
      </trkpt>
      <trkpt lat="42.92030104436" lon="0.34667015076">
        <ele>798.81748508105</ele>
        <time>2021-08-03T17:58:35.792Z</time>
      </trkpt>
      <trkpt lat="42.9202902317" lon="0.34658432007">
        <ele>800.6010597684</ele>
        <time>2021-08-03T17:58:36.989Z</time>
      </trkpt>
      <trkpt lat="42.92031168938" lon="0.34646630287">
        <ele>802.59495180159</ele>
        <time>2021-08-03T17:58:38.188Z</time>
      </trkpt>
      <trkpt lat="42.92036533356" lon="0.34631609917">
        <ele>804.81794955491</ele>
        <time>2021-08-03T17:58:39.389Z</time>
      </trkpt>
      <trkpt lat="42.92073011398" lon="0.34547924995">
        <ele>807.42661137419</ele>
        <time>2021-08-03T17:58:40.601Z</time>
      </trkpt>
      <trkpt lat="42.92083740234" lon="0.34539341927">
        <ele>810.11307256876</ele>
        <time>2021-08-03T17:58:41.815Z</time>
      </trkpt>
      <trkpt lat="42.92115926743" lon="0.34523248672">
        <ele>813.17550293241</ele>
        <time>2021-08-03T17:58:43.034Z</time>
      </trkpt>
      <trkpt lat="42.92124509811" lon="0.34515738487">
        <ele>816.14464626878</ele>
        <time>2021-08-03T17:58:44.255Z</time>
      </trkpt>
      <trkpt lat="42.92145975865" lon="0.34478187561">
        <ele>819.13498564802</ele>
        <time>2021-08-03T17:58:45.482Z</time>
      </trkpt>
      <trkpt lat="42.92145967484" lon="0.34478187561">
        <ele>822.25421237012</ele>
        <time>2021-08-03T17:58:46.709Z</time>
      </trkpt>
      <trkpt lat="42.92191028595" lon="0.34405231476">
        <ele>825.73130931894</ele>
        <time>2021-08-03T17:58:47.947Z</time>
      </trkpt>
      <trkpt lat="42.92232879438" lon="0.34350514412">
        <ele>829.67189609507</ele>
        <time>2021-08-03T17:58:49.194Z</time>
      </trkpt>
      <trkpt lat="42.92232871056" lon="0.34350514412">
        <ele>833.14846168923</ele>
        <time>2021-08-03T17:58:50.441Z</time>
      </trkpt>
      <trkpt lat="42.92245745659" lon="0.34334421158">
        <ele>836.69492679572</ele>
        <time>2021-08-03T17:58:51.691Z</time>
      </trkpt>
      <trkpt lat="42.92271494865" lon="0.34312963486">
        <ele>840.53475965087</ele>
        <time>2021-08-03T17:58:52.946Z</time>
      </trkpt>
      <trkpt lat="42.92285442352" lon="0.34297943115">
        <ele>844.33976623612</ele>
        <time>2021-08-03T17:58:54.204Z</time>
      </trkpt>
      <trkpt lat="42.9236162547" lon="0.34211039543">
        <ele>848.62663752502</ele>
        <time>2021-08-03T17:58:55.478Z</time>
      </trkpt>
      <trkpt lat="42.92380928993" lon="0.34191727638">
        <ele>852.65395064028</ele>
        <time>2021-08-03T17:58:56.755Z</time>
      </trkpt>
      <trkpt lat="42.92404532433" lon="0.34172415733">
        <ele>856.59395976856</ele>
        <time>2021-08-03T17:58:58.037Z</time>
      </trkpt>
      <trkpt lat="42.92446374893" lon="0.34153103828">
        <ele>860.72961167998</ele>
        <time>2021-08-03T17:58:59.326Z</time>
      </trkpt>
      <trkpt lat="42.92501091957" lon="0.34103751183">
        <ele>864.92444845464</ele>
        <time>2021-08-03T17:59:00.625Z</time>
      </trkpt>
      <trkpt lat="42.92511820793" lon="0.34101605415">
        <ele>868.80937882738</ele>
        <time>2021-08-03T17:59:01.926Z</time>
      </trkpt>
      <trkpt lat="42.92526849546" lon="0.34108042717">
        <ele>872.8344666196</ele>
        <time>2021-08-03T17:59:03.230Z</time>
      </trkpt>
      <trkpt lat="42.92526841164" lon="0.34108042717">
        <ele>876.62447495791</ele>
        <time>2021-08-03T17:59:04.534Z</time>
      </trkpt>
      <trkpt lat="42.92556881905" lon="0.3412091732">
        <ele>880.76505429902</ele>
        <time>2021-08-03T17:59:05.843Z</time>
      </trkpt>
      <trkpt lat="42.92578339577" lon="0.34118771553">
        <ele>884.56884897829</ele>
        <time>2021-08-03T17:59:07.155Z</time>
      </trkpt>
      <trkpt lat="42.92593359947" lon="0.3412091732">
        <ele>888.31307081532</ele>
        <time>2021-08-03T17:59:08.470Z</time>
      </trkpt>
      <trkpt lat="42.92637348175" lon="0.34149885178">
        <ele>892.34529816814</ele>
        <time>2021-08-03T17:59:09.792Z</time>
      </trkpt>
      <trkpt lat="42.926684618" lon="0.34157395363">
        <ele>895.93584792026</ele>
        <time>2021-08-03T17:59:11.119Z</time>
      </trkpt>
      <trkpt lat="42.92696356773" lon="0.34152030945">
        <ele>899.32004574878</ele>
        <time>2021-08-03T17:59:12.451Z</time>
      </trkpt>
      <trkpt lat="42.92703875341" lon="0.3414773941">
        <ele>902.56683470037</ele>
        <time>2021-08-03T17:59:13.784Z</time>
      </trkpt>
      <trkpt lat="42.92725324631" lon="0.34138083458">
        <ele>905.69471764611</ele>
        <time>2021-08-03T17:59:15.121Z</time>
      </trkpt>
      <trkpt lat="42.92741417885" lon="0.3413271904">
        <ele>908.78610273597</ele>
        <time>2021-08-03T17:59:16.460Z</time>
      </trkpt>
      <trkpt lat="42.92816528119" lon="0.34131646156">
        <ele>912.05832493859</ele>
        <time>2021-08-03T17:59:17.811Z</time>
      </trkpt>
      <trkpt lat="42.92855143547" lon="0.34131646156">
        <ele>915.06343584637</ele>
        <time>2021-08-03T17:59:19.169Z</time>
      </trkpt>
      <trkpt lat="42.92909868993" lon="0.34135937691">
        <ele>917.99153305921</ele>
        <time>2021-08-03T17:59:20.535Z</time>
      </trkpt>
      <trkpt lat="42.92909860611" lon="0.34135937691">
        <ele>920.74125329798</ele>
        <time>2021-08-03T17:59:21.901Z</time>
      </trkpt>
      <trkpt lat="42.92925953865" lon="0.34133791924">
        <ele>923.37440669815</ele>
        <time>2021-08-03T17:59:23.270Z</time>
      </trkpt>
      <trkpt lat="42.92946338654" lon="0.34125208855">
        <ele>926.09863119989</ele>
        <time>2021-08-03T17:59:24.642Z</time>
      </trkpt>
      <trkpt lat="42.92966723442" lon="0.34113407135">
        <ele>928.79814995066</ele>
        <time>2021-08-03T17:59:26.018Z</time>
      </trkpt>
      <trkpt lat="42.92991399765" lon="0.34112334251">
        <ele>931.4540874797</ele>
        <time>2021-08-03T17:59:27.398Z</time>
      </trkpt>
      <trkpt lat="42.93023586273" lon="0.34113407135">
        <ele>934.02721054107</ele>
        <time>2021-08-03T17:59:28.783Z</time>
      </trkpt>
      <trkpt lat="42.93031096458" lon="0.34109115601">
        <ele>936.33735809455</ele>
        <time>2021-08-03T17:59:30.169Z</time>
      </trkpt>
      <trkpt lat="42.93049343862" lon="0.34106969833">
        <ele>938.68092247249</ele>
        <time>2021-08-03T17:59:31.558Z</time>
      </trkpt>
      <trkpt lat="42.9307615757" lon="0.3410589695">
        <ele>940.97469955047</ele>
        <time>2021-08-03T17:59:32.952Z</time>
      </trkpt>
      <trkpt lat="42.9308795929" lon="0.34100532532">
        <ele>942.99991446767</ele>
        <time>2021-08-03T17:59:34.348Z</time>
      </trkpt>
      <trkpt lat="42.93111562729" lon="0.34074783325">
        <ele>944.95908114743</ele>
        <time>2021-08-03T17:59:35.748Z</time>
      </trkpt>
      <trkpt lat="42.93124445714" lon="0.34051179886">
        <ele>946.65920954855</ele>
        <time>2021-08-03T17:59:37.152Z</time>
      </trkpt>
      <trkpt lat="42.93128728867" lon="0.34052252769">
        <ele>948.57997977875</ele>
        <time>2021-08-03T17:59:38.557Z</time>
      </trkpt>
      <trkpt lat="42.9312980175" lon="0.34056544304">
        <ele>950.470569303</ele>
        <time>2021-08-03T17:59:39.962Z</time>
      </trkpt>
      <trkpt lat="42.93126583099" lon="0.34072637558">
        <ele>952.45566574118</ele>
        <time>2021-08-03T17:59:41.369Z</time>
      </trkpt>
      <trkpt lat="42.93105133809" lon="0.34118771553">
        <ele>954.48136171635</ele>
        <time>2021-08-03T17:59:42.782Z</time>
      </trkpt>
      <trkpt lat="42.93104060926" lon="0.34119844437">
        <ele>956.15708573602</ele>
        <time>2021-08-03T17:59:44.196Z</time>
      </trkpt>
      <trkpt lat="42.93084740639" lon="0.34143447876">
        <ele>957.93403317594</ele>
        <time>2021-08-03T17:59:45.614Z</time>
      </trkpt>
      <trkpt lat="42.93066501617" lon="0.34158468246">
        <ele>959.6447919898</ele>
        <time>2021-08-03T17:59:47.035Z</time>
      </trkpt>
      <trkpt lat="42.93013938703" lon="0.34188508987">
        <ele>961.23699652765</ele>
        <time>2021-08-03T17:59:48.465Z</time>
      </trkpt>
      <trkpt lat="42.92993545532" lon="0.34204602242">
        <ele>962.84049013013</ele>
        <time>2021-08-03T17:59:49.899Z</time>
      </trkpt>
      <trkpt lat="42.92982825078" lon="0.34219622612">
        <ele>964.50900989974</ele>
        <time>2021-08-03T17:59:51.336Z</time>
      </trkpt>
      <trkpt lat="42.92980670929" lon="0.3422498703">
        <ele>965.99526311746</ele>
        <time>2021-08-03T17:59:52.773Z</time>
      </trkpt>
      <trkpt lat="42.92976379395" lon="0.34256100655">
        <ele>967.78157826581</ele>
        <time>2021-08-03T17:59:54.214Z</time>
      </trkpt>
      <trkpt lat="42.9297208786" lon="0.34264683723">
        <ele>969.22907662894</ele>
        <time>2021-08-03T17:59:55.656Z</time>
      </trkpt>
      <trkpt lat="42.92968869209" lon="0.34271121025">
        <ele>970.64030293841</ele>
        <time>2021-08-03T17:59:57.099Z</time>
      </trkpt>
      <trkpt lat="42.92963504791" lon="0.34274339676">
        <ele>971.9549377166</ele>
        <time>2021-08-03T17:59:58.543Z</time>
      </trkpt>
      <trkpt lat="42.92959213257" lon="0.34276485443">
        <ele>973.22483838336</ele>
        <time>2021-08-03T17:59:59.988Z</time>
      </trkpt>
      <trkpt lat="42.92951711453" lon="0.3427541256">
        <ele>974.40292244434</ele>
        <time>2021-08-03T18:00:01.434Z</time>
      </trkpt>
      <trkpt lat="42.92924889363" lon="0.34271121025">
        <ele>975.43562892015</ele>
        <time>2021-08-03T18:00:02.884Z</time>
      </trkpt>
      <trkpt lat="42.92908787727" lon="0.34266829491">
        <ele>976.51092476036</ele>
        <time>2021-08-03T18:00:04.337Z</time>
      </trkpt>
      <trkpt lat="42.92887330055" lon="0.34250736237">
        <ele>977.36893013795</ele>
        <time>2021-08-03T18:00:05.794Z</time>
      </trkpt>
      <trkpt lat="42.9287981987" lon="0.34250736237">
        <ele>978.53723191726</ele>
        <time>2021-08-03T18:00:07.252Z</time>
      </trkpt>
      <trkpt lat="42.92875528336" lon="0.34253954887">
        <ele>979.78981697861</ele>
        <time>2021-08-03T18:00:08.711Z</time>
      </trkpt>
      <trkpt lat="42.92875528336" lon="0.34260392189">
        <ele>981.12421969201</ele>
        <time>2021-08-03T18:00:10.171Z</time>
      </trkpt>
      <trkpt lat="42.92878746986" lon="0.34268975258">
        <ele>982.51416680758</ele>
        <time>2021-08-03T18:00:11.632Z</time>
      </trkpt>
      <trkpt lat="42.92951711453" lon="0.34306526184">
        <ele>984.53679648045</ele>
        <time>2021-08-03T18:00:13.105Z</time>
      </trkpt>
      <trkpt lat="42.92973160744" lon="0.34315109253">
        <ele>985.98414592986</ele>
        <time>2021-08-03T18:00:14.582Z</time>
      </trkpt>
      <trkpt lat="42.9298388958" lon="0.34316182137">
        <ele>987.29130952235</ele>
        <time>2021-08-03T18:00:16.061Z</time>
      </trkpt>
      <trkpt lat="42.92988181114" lon="0.34312963486">
        <ele>988.51976608904</ele>
        <time>2021-08-03T18:00:17.540Z</time>
      </trkpt>
      <trkpt lat="42.93005347252" lon="0.34286141396">
        <ele>989.46778270578</ele>
        <time>2021-08-03T18:00:19.024Z</time>
      </trkpt>
      <trkpt lat="42.93013938703" lon="0.3427863121">
        <ele>990.73621515399</ele>
        <time>2021-08-03T18:00:20.509Z</time>
      </trkpt>
      <trkpt lat="42.93028959073" lon="0.34271121025">
        <ele>992.10625890569</ele>
        <time>2021-08-03T18:00:21.997Z</time>
      </trkpt>
      <trkpt lat="42.93074011803" lon="0.34252882004">
        <ele>993.64922082043</ele>
        <time>2021-08-03T18:00:23.492Z</time>
      </trkpt>
      <trkpt lat="42.93096542358" lon="0.34250736237">
        <ele>995.20248747918</ele>
        <time>2021-08-03T18:00:24.991Z</time>
      </trkpt>
      <trkpt lat="42.93127655983" lon="0.3423678875">
        <ele>996.71956364316</ele>
        <time>2021-08-03T18:00:26.495Z</time>
      </trkpt>
      <trkpt lat="42.93130874634" lon="0.3423678875">
        <ele>998.09399079435</ele>
        <time>2021-08-03T18:00:28.000Z</time>
      </trkpt>
      <trkpt lat="42.93131955899" lon="0.34240007401">
        <ele>999.54204109355</ele>
        <time>2021-08-03T18:00:29.505Z</time>
      </trkpt>
      <trkpt lat="42.93131947517" lon="0.34243226051">
        <ele>1000.99602899738</ele>
        <time>2021-08-03T18:00:31.010Z</time>
      </trkpt>
      <trkpt lat="42.93071866035" lon="0.34280776978">
        <ele>1002.19643799066</ele>
        <time>2021-08-03T18:00:32.526Z</time>
      </trkpt>
      <trkpt lat="42.93027877808" lon="0.3431725502">
        <ele>1003.63891475415</ele>
        <time>2021-08-03T18:00:34.050Z</time>
      </trkpt>
      <trkpt lat="42.93016076088" lon="0.34330129623">
        <ele>1005.08661802004</ele>
        <time>2021-08-03T18:00:35.577Z</time>
      </trkpt>
      <trkpt lat="42.93003201485" lon="0.34359097481">
        <ele>1006.81483616664</ele>
        <time>2021-08-03T18:00:37.108Z</time>
      </trkpt>
      <trkpt lat="42.92997837067" lon="0.34371972084">
        <ele>1008.4667827396</ele>
        <time>2021-08-03T18:00:38.640Z</time>
      </trkpt>
      <trkpt lat="42.92991399765" lon="0.3438270092">
        <ele>1010.1041306106</ele>
        <time>2021-08-03T18:00:40.174Z</time>
      </trkpt>
      <trkpt lat="42.92991408147" lon="0.3438270092">
        <ele>1011.64989897668</ele>
        <time>2021-08-03T18:00:41.708Z</time>
      </trkpt>
      <trkpt lat="42.9298388958" lon="0.34388065338">
        <ele>1013.27182868508</ele>
        <time>2021-08-03T18:00:43.243Z</time>
      </trkpt>
      <trkpt lat="42.92822957039" lon="0.34432053566">
        <ele>1014.97832038562</ele>
        <time>2021-08-03T18:00:44.805Z</time>
      </trkpt>
      <trkpt lat="42.92797207832" lon="0.344363451">
        <ele>1016.64902719336</ele>
        <time>2021-08-03T18:00:46.371Z</time>
      </trkpt>
      <trkpt lat="42.92724251747" lon="0.34432053566">
        <ele>1018.10581393764</ele>
        <time>2021-08-03T18:00:47.948Z</time>
      </trkpt>
      <trkpt lat="42.92718887329" lon="0.34434199333">
        <ele>1019.83741543207</ele>
        <time>2021-08-03T18:00:49.526Z</time>
      </trkpt>
      <trkpt lat="42.92716741562" lon="0.34440636635">
        <ele>1021.66322721046</ele>
        <time>2021-08-03T18:00:51.105Z</time>
      </trkpt>
      <trkpt lat="42.92729616165" lon="0.34441709518">
        <ele>1023.55250452123</ele>
        <time>2021-08-03T18:00:52.686Z</time>
      </trkpt>
      <trkpt lat="42.92740345001" lon="0.34444928169">
        <ele>1025.50352122047</ele>
        <time>2021-08-03T18:00:54.269Z</time>
      </trkpt>
      <trkpt lat="42.92809009552" lon="0.34515738487">
        <ele>1028.11359391455</ele>
        <time>2021-08-03T18:00:55.866Z</time>
      </trkpt>
      <trkpt lat="42.92813301086" lon="0.3452539444">
        <ele>1030.14527278913</ele>
        <time>2021-08-03T18:00:57.464Z</time>
      </trkpt>
      <trkpt lat="42.92815446854" lon="0.34539341927">
        <ele>1032.21165260942</ele>
        <time>2021-08-03T18:00:59.064Z</time>
      </trkpt>
      <trkpt lat="42.92796134949" lon="0.34596204758">
        <ele>1034.28340426992</ele>
        <time>2021-08-03T18:01:00.671Z</time>
      </trkpt>
      <trkpt lat="42.92793989182" lon="0.34612298012">
        <ele>1036.34836364254</ele>
        <time>2021-08-03T18:01:02.280Z</time>
      </trkpt>
      <trkpt lat="42.92792916298" lon="0.34640192986">
        <ele>1038.54660324994</ele>
        <time>2021-08-03T18:01:03.892Z</time>
      </trkpt>
      <trkpt lat="42.92796134949" lon="0.34716367722">
        <ele>1041.27585494294</ele>
        <time>2021-08-03T18:01:05.513Z</time>
      </trkpt>
      <trkpt lat="42.92795070447" lon="0.34728169441">
        <ele>1043.63341523194</ele>
        <time>2021-08-03T18:01:07.136Z</time>
      </trkpt>
      <trkpt lat="42.92793989182" lon="0.34742116928">
        <ele>1046.05069104082</ele>
        <time>2021-08-03T18:01:08.760Z</time>
      </trkpt>
      <trkpt lat="42.9278755188" lon="0.34762501717">
        <ele>1048.5240283794</ele>
        <time>2021-08-03T18:01:10.387Z</time>
      </trkpt>
      <trkpt lat="42.92773604393" lon="0.3478717804">
        <ele>1050.99865865921</ele>
        <time>2021-08-03T18:01:12.018Z</time>
      </trkpt>
      <trkpt lat="42.92711377144" lon="0.34874081612">
        <ele>1053.54791412632</ele>
        <time>2021-08-03T18:01:13.663Z</time>
      </trkpt>
      <trkpt lat="42.9268348217" lon="0.34904122353">
        <ele>1055.88040227841</ele>
        <time>2021-08-03T18:01:15.314Z</time>
      </trkpt>
      <trkpt lat="42.92648085393" lon="0.34960985184">
        <ele>1058.4861265371</ele>
        <time>2021-08-03T18:01:16.973Z</time>
      </trkpt>
      <trkpt lat="42.92593359947" lon="0.35074710846">
        <ele>1061.24131907816</ele>
        <time>2021-08-03T18:01:18.648Z</time>
      </trkpt>
      <trkpt lat="42.92556881905" lon="0.35164833069">
        <ele>1064.07479728887</ele>
        <time>2021-08-03T18:01:20.335Z</time>
      </trkpt>
      <trkpt lat="42.92545080185" lon="0.35202383995">
        <ele>1066.63964374652</ele>
        <time>2021-08-03T18:01:22.027Z</time>
      </trkpt>
      <trkpt lat="42.92522549629" lon="0.35308599472">
        <ele>1069.34086817806</ele>
        <time>2021-08-03T18:01:23.732Z</time>
      </trkpt>
      <trkpt lat="42.92494654655" lon="0.3539121151">
        <ele>1072.16864048419</ele>
        <time>2021-08-03T18:01:25.448Z</time>
      </trkpt>
      <trkpt lat="42.92493590154" lon="0.35405158997">
        <ele>1074.77954972996</ele>
        <time>2021-08-03T18:01:27.166Z</time>
      </trkpt>
      <trkpt lat="42.92495735921" lon="0.35413742065">
        <ele>1077.48506062384</ele>
        <time>2021-08-03T18:01:28.885Z</time>
      </trkpt>
      <trkpt lat="42.92496800423" lon="0.35419106483">
        <ele>1080.23746034783</ele>
        <time>2021-08-03T18:01:30.604Z</time>
      </trkpt>
      <trkpt lat="42.92504310608" lon="0.35423398018">
        <ele>1083.12591033214</ele>
        <time>2021-08-03T18:01:32.325Z</time>
      </trkpt>
      <trkpt lat="42.92512893677" lon="0.35423398018">
        <ele>1086.00110285658</ele>
        <time>2021-08-03T18:01:34.047Z</time>
      </trkpt>
      <trkpt lat="42.92519330978" lon="0.35416960716">
        <ele>1088.92601552462</ele>
        <time>2021-08-03T18:01:35.770Z</time>
      </trkpt>
      <trkpt lat="42.92524695396" lon="0.35400867462">
        <ele>1091.9563418945</ele>
        <time>2021-08-03T18:01:37.495Z</time>
      </trkpt>
      <trkpt lat="42.92525776662" lon="0.35385847092">
        <ele>1095.23822142613</ele>
        <time>2021-08-03T18:01:39.222Z</time>
      </trkpt>
      <trkpt lat="42.92526841164" lon="0.35374045372">
        <ele>1098.45971887782</ele>
        <time>2021-08-03T18:01:40.951Z</time>
      </trkpt>
      <trkpt lat="42.92532205582" lon="0.35360097885">
        <ele>1101.683314937</ele>
        <time>2021-08-03T18:01:42.681Z</time>
      </trkpt>
      <trkpt lat="42.92565464973" lon="0.35307526588">
        <ele>1105.30296079044</ele>
        <time>2021-08-03T18:01:44.420Z</time>
      </trkpt>
      <trkpt lat="42.92611598969" lon="0.35250663757">
        <ele>1109.1667738081</ele>
        <time>2021-08-03T18:01:46.168Z</time>
      </trkpt>
      <trkpt lat="42.92678117752" lon="0.35149812698">
        <ele>1113.08122446532</ele>
        <time>2021-08-03T18:01:47.932Z</time>
      </trkpt>
      <trkpt lat="42.92687773705" lon="0.35138010979">
        <ele>1116.75966015701</ele>
        <time>2021-08-03T18:01:49.698Z</time>
      </trkpt>
      <trkpt lat="42.92697429657" lon="0.35131573677">
        <ele>1120.54871483805</ele>
        <time>2021-08-03T18:01:51.466Z</time>
      </trkpt>
      <trkpt lat="42.92708158493" lon="0.35128355026">
        <ele>1124.44492294136</ele>
        <time>2021-08-03T18:01:53.236Z</time>
      </trkpt>
      <trkpt lat="42.92761802673" lon="0.35125136375">
        <ele>1128.74026088042</ele>
        <time>2021-08-03T18:01:55.015Z</time>
      </trkpt>
      <trkpt lat="42.92801499367" lon="0.35112261772">
        <ele>1132.90964489464</ele>
        <time>2021-08-03T18:01:56.800Z</time>
      </trkpt>
      <trkpt lat="42.9284119606" lon="0.35089731216">
        <ele>1137.13310020617</ele>
        <time>2021-08-03T18:01:58.592Z</time>
      </trkpt>
      <trkpt lat="42.92865880765" lon="0.35070419312">
        <ele>1141.35814388069</ele>
        <time>2021-08-03T18:02:00.389Z</time>
      </trkpt>
      <trkpt lat="42.92870172299" lon="0.35067200661">
        <ele>1145.55818424327</ele>
        <time>2021-08-03T18:02:02.186Z</time>
      </trkpt>
      <trkpt lat="42.92895913124" lon="0.35046815872">
        <ele>1149.96474787247</ele>
        <time>2021-08-03T18:02:03.988Z</time>
      </trkpt>
      <trkpt lat="42.92946338654" lon="0.34995317459">
        <ele>1154.46109071437</ele>
        <time>2021-08-03T18:02:05.800Z</time>
      </trkpt>
      <trkpt lat="42.93062210083" lon="0.34884810448">
        <ele>1159.53225003433</ele>
        <time>2021-08-03T18:02:07.635Z</time>
      </trkpt>
      <trkpt lat="42.93109425344" lon="0.34830093384">
        <ele>1164.14146761899</ele>
        <time>2021-08-03T18:02:09.480Z</time>
      </trkpt>
      <trkpt lat="42.93109416962" lon="0.34830093384">
        <ele>1168.37668948698</ele>
        <time>2021-08-03T18:02:11.325Z</time>
      </trkpt>
      <trkpt lat="42.93161988258" lon="0.34772157669">
        <ele>1172.82080689331</ele>
        <time>2021-08-03T18:02:13.181Z</time>
      </trkpt>
      <trkpt lat="42.93193110265" lon="0.34745335579">
        <ele>1177.1644148614</ele>
        <time>2021-08-03T18:02:15.042Z</time>
      </trkpt>
      <trkpt lat="42.93220996857" lon="0.34723877907">
        <ele>1181.37937669671</ele>
        <time>2021-08-03T18:02:16.909Z</time>
      </trkpt>
      <trkpt lat="42.93280013837" lon="0.34694910049">
        <ele>1185.73696651489</ele>
        <time>2021-08-03T18:02:18.786Z</time>
      </trkpt>
      <trkpt lat="42.93280005455" lon="0.34694910049">
        <ele>1189.73560928587</ele>
        <time>2021-08-03T18:02:20.663Z</time>
      </trkpt>
      <trkpt lat="42.93296098709" lon="0.34687399864">
        <ele>1193.72624718202</ele>
        <time>2021-08-03T18:02:22.542Z</time>
      </trkpt>
      <trkpt lat="42.9332613945" lon="0.34668087959">
        <ele>1197.65414569802</ele>
        <time>2021-08-03T18:02:24.427Z</time>
      </trkpt>
      <trkpt lat="42.93337949552" lon="0.34663796425">
        <ele>1201.49163809561</ele>
        <time>2021-08-03T18:02:26.314Z</time>
      </trkpt>
      <trkpt lat="42.9333794117" lon="0.34663796425">
        <ele>1205.15289925227</ele>
        <time>2021-08-03T18:02:28.201Z</time>
      </trkpt>
      <trkpt lat="42.93428063393" lon="0.34623026848">
        <ele>1209.20425552264</ele>
        <time>2021-08-03T18:02:30.103Z</time>
      </trkpt>
      <trkpt lat="42.93503165245" lon="0.34575819969">
        <ele>1212.83416300614</ele>
        <time>2021-08-03T18:02:32.018Z</time>
      </trkpt>
      <trkpt lat="42.93613672256" lon="0.34480333328">
        <ele>1216.55394110308</ele>
        <time>2021-08-03T18:02:33.954Z</time>
      </trkpt>
      <trkpt lat="42.93629765511" lon="0.34464240074">
        <ele>1219.91766067146</ele>
        <time>2021-08-03T18:02:35.893Z</time>
      </trkpt>
      <trkpt lat="42.9366517067" lon="0.34418106079">
        <ele>1223.14964131009</ele>
        <time>2021-08-03T18:02:37.840Z</time>
      </trkpt>
      <trkpt lat="42.93734908104" lon="0.34340858459">
        <ele>1226.56213736458</ele>
        <time>2021-08-03T18:02:39.801Z</time>
      </trkpt>
      <trkpt lat="42.93797135353" lon="0.34285068512">
        <ele>1229.86586891574</ele>
        <time>2021-08-03T18:02:41.774Z</time>
      </trkpt>
      <trkpt lat="42.93815374374" lon="0.34267902374">
        <ele>1232.741062053</ele>
        <time>2021-08-03T18:02:43.751Z</time>
      </trkpt>
      <trkpt lat="42.93844342232" lon="0.3422498703">
        <ele>1235.37444362972</ele>
        <time>2021-08-03T18:02:45.735Z</time>
      </trkpt>
      <trkpt lat="42.93853998184" lon="0.34207820892">
        <ele>1237.86330033507</ele>
        <time>2021-08-03T18:02:47.721Z</time>
      </trkpt>
      <trkpt lat="42.93859362602" lon="0.34191727638">
        <ele>1240.22918977055</ele>
        <time>2021-08-03T18:02:49.709Z</time>
      </trkpt>
      <trkpt lat="42.93860435486" lon="0.34180998802">
        <ele>1242.41870926082</ele>
        <time>2021-08-03T18:02:51.699Z</time>
      </trkpt>
      <trkpt lat="42.93858289719" lon="0.3417134285">
        <ele>1244.44599259198</ele>
        <time>2021-08-03T18:02:53.690Z</time>
      </trkpt>
      <trkpt lat="42.93843269348" lon="0.3414452076">
        <ele>1246.01202087266</ele>
        <time>2021-08-03T18:02:55.685Z</time>
      </trkpt>
      <trkpt lat="42.93838977814" lon="0.3412091732">
        <ele>1247.91898341024</ele>
        <time>2021-08-03T18:02:57.683Z</time>
      </trkpt>
      <trkpt lat="42.93832540512" lon="0.34112334251">
        <ele>1249.82370899919</ele>
        <time>2021-08-03T18:02:59.682Z</time>
      </trkpt>
      <trkpt lat="42.93807864189" lon="0.34101605415">
        <ele>1251.41643579614</ele>
        <time>2021-08-03T18:03:01.685Z</time>
      </trkpt>
      <trkpt lat="42.93801426888" lon="0.34095168114">
        <ele>1253.25657854561</ele>
        <time>2021-08-03T18:03:03.689Z</time>
      </trkpt>
      <trkpt lat="42.93796062469" lon="0.34087657928">
        <ele>1255.12207836358</ele>
        <time>2021-08-03T18:03:05.695Z</time>
      </trkpt>
      <trkpt lat="42.93791770935" lon="0.34069418907">
        <ele>1257.1032941437</ele>
        <time>2021-08-03T18:03:07.703Z</time>
      </trkpt>
      <trkpt lat="42.93793916702" lon="0.34046888351">
        <ele>1259.23684198631</ele>
        <time>2021-08-03T18:03:09.714Z</time>
      </trkpt>
      <trkpt lat="42.9379928112" lon="0.34024357796">
        <ele>1261.25833515412</ele>
        <time>2021-08-03T18:03:11.727Z</time>
      </trkpt>
      <trkpt lat="42.93807864189" lon="0.34003973007">
        <ele>1263.41202235079</ele>
        <time>2021-08-03T18:03:13.743Z</time>
      </trkpt>
      <trkpt lat="42.9383147601" lon="0.33965349197">
        <ele>1266.1063083944</ele>
        <time>2021-08-03T18:03:15.765Z</time>
      </trkpt>
      <trkpt lat="42.93831467628" lon="0.33965349197">
        <ele>1268.10991735787</ele>
        <time>2021-08-03T18:03:17.787Z</time>
      </trkpt>
      <trkpt lat="42.93867945671" lon="0.33915996552">
        <ele>1270.4576270882</ele>
        <time>2021-08-03T18:03:19.817Z</time>
      </trkpt>
      <trkpt lat="42.93884047307" lon="0.33891320229">
        <ele>1272.66267210264</ele>
        <time>2021-08-03T18:03:21.851Z</time>
      </trkpt>
      <trkpt lat="42.93884038925" lon="0.33891320229">
        <ele>1274.71397062346</ele>
        <time>2021-08-03T18:03:23.885Z</time>
      </trkpt>
      <trkpt lat="42.93925881386" lon="0.33815145493">
        <ele>1277.05110955501</ele>
        <time>2021-08-03T18:03:25.930Z</time>
      </trkpt>
      <trkpt lat="42.93950557709" lon="0.33746480942">
        <ele>1279.04169733223</ele>
        <time>2021-08-03T18:03:27.984Z</time>
      </trkpt>
      <trkpt lat="42.9395699501" lon="0.33733606339">
        <ele>1281.17953874821</ele>
        <time>2021-08-03T18:03:30.040Z</time>
      </trkpt>
      <trkpt lat="42.93966659345" lon="0.33722877502">
        <ele>1283.42891808987</ele>
        <time>2021-08-03T18:03:32.098Z</time>
      </trkpt>
      <trkpt lat="42.93977379799" lon="0.33714294434">
        <ele>1285.71071635436</ele>
        <time>2021-08-03T18:03:34.158Z</time>
      </trkpt>
      <trkpt lat="42.94004201889" lon="0.33699274063">
        <ele>1288.19779299767</ele>
        <time>2021-08-03T18:03:36.223Z</time>
      </trkpt>
      <trkpt lat="42.94029951096" lon="0.33676743507">
        <ele>1290.47577405487</ele>
        <time>2021-08-03T18:03:38.293Z</time>
      </trkpt>
      <trkpt lat="42.94064283371" lon="0.33639192581">
        <ele>1292.7492221965</ele>
        <time>2021-08-03T18:03:40.370Z</time>
      </trkpt>
      <trkpt lat="42.94076085091" lon="0.33623099327">
        <ele>1294.78518522966</ele>
        <time>2021-08-03T18:03:42.449Z</time>
      </trkpt>
      <trkpt lat="42.94093251228" lon="0.33589839935">
        <ele>1296.65913102206</ele>
        <time>2021-08-03T18:03:44.533Z</time>
      </trkpt>
      <trkpt lat="42.94107198715" lon="0.33552289009">
        <ele>1298.30312768638</ele>
        <time>2021-08-03T18:03:46.622Z</time>
      </trkpt>
      <trkpt lat="42.94112563133" lon="0.33541560173">
        <ele>1300.20354036189</ele>
        <time>2021-08-03T18:03:48.713Z</time>
      </trkpt>
      <trkpt lat="42.94124364853" lon="0.33537268639">
        <ele>1302.28475120122</ele>
        <time>2021-08-03T18:03:50.806Z</time>
      </trkpt>
      <trkpt lat="42.94129729271" lon="0.33538341522">
        <ele>1304.2583283527</ele>
        <time>2021-08-03T18:03:52.899Z</time>
      </trkpt>
      <trkpt lat="42.94135093689" lon="0.33542633057">
        <ele>1306.22908780208</ele>
        <time>2021-08-03T18:03:54.993Z</time>
      </trkpt>
      <trkpt lat="42.94139385223" lon="0.33557653427">
        <ele>1308.31741987901</ele>
        <time>2021-08-03T18:03:57.089Z</time>
      </trkpt>
      <trkpt lat="42.94140458107" lon="0.33572673798">
        <ele>1310.36443380431</ele>
        <time>2021-08-03T18:03:59.187Z</time>
      </trkpt>
      <trkpt lat="42.94136166573" lon="0.33584475517">
        <ele>1312.24035111708</ele>
        <time>2021-08-03T18:04:01.287Z</time>
      </trkpt>
      <trkpt lat="42.94129729271" lon="0.33595204353">
        <ele>1314.03412005154</ele>
        <time>2021-08-03T18:04:03.388Z</time>
      </trkpt>
      <trkpt lat="42.94101834297" lon="0.33616662025">
        <ele>1315.55745159026</ele>
        <time>2021-08-03T18:04:05.494Z</time>
      </trkpt>
      <trkpt lat="42.94096469879" lon="0.33625245094">
        <ele>1317.30468901253</ele>
        <time>2021-08-03T18:04:07.602Z</time>
      </trkpt>
      <trkpt lat="42.94080376625" lon="0.33670306206">
        <ele>1319.30755670475</ele>
        <time>2021-08-03T18:04:09.716Z</time>
      </trkpt>
      <trkpt lat="42.94044979848" lon="0.33726096153">
        <ele>1320.92365549828</ele>
        <time>2021-08-03T18:04:11.838Z</time>
      </trkpt>
      <trkpt lat="42.9403424263" lon="0.33741116524">
        <ele>1322.48487514132</ele>
        <time>2021-08-03T18:04:13.963Z</time>
      </trkpt>
      <trkpt lat="42.94025659561" lon="0.33762574196">
        <ele>1324.11051814414</ele>
        <time>2021-08-03T18:04:16.091Z</time>
      </trkpt>
      <trkpt lat="42.94008493423" lon="0.33893465996">
        <ele>1326.18170417108</ele>
        <time>2021-08-03T18:04:18.234Z</time>
      </trkpt>
      <trkpt lat="42.94004201889" lon="0.33950328827">
        <ele>1328.04944467108</ele>
        <time>2021-08-03T18:04:20.384Z</time>
      </trkpt>
      <trkpt lat="42.9400742054" lon="0.34017920494">
        <ele>1329.92032824729</ele>
        <time>2021-08-03T18:04:22.542Z</time>
      </trkpt>
      <trkpt lat="42.94017076492" lon="0.3408229351">
        <ele>1331.79382039703</ele>
        <time>2021-08-03T18:04:24.708Z</time>
      </trkpt>
      <trkpt lat="42.94021368027" lon="0.34096240997">
        <ele>1333.6405595914</ele>
        <time>2021-08-03T18:04:26.875Z</time>
      </trkpt>
      <trkpt lat="42.94026732445" lon="0.34102678299">
        <ele>1335.55328072031</ele>
        <time>2021-08-03T18:04:29.044Z</time>
      </trkpt>
      <trkpt lat="42.94049263" lon="0.34118771553">
        <ele>1337.80189190302</ele>
        <time>2021-08-03T18:04:31.217Z</time>
      </trkpt>
      <trkpt lat="42.94054627419" lon="0.34130573273">
        <ele>1339.75662747206</ele>
        <time>2021-08-03T18:04:33.391Z</time>
      </trkpt>
      <trkpt lat="42.94056773186" lon="0.34145593643">
        <ele>1341.78046056053</ele>
        <time>2021-08-03T18:04:35.567Z</time>
      </trkpt>
      <trkpt lat="42.94055700302" lon="0.34176707268">
        <ele>1343.85207274455</ele>
        <time>2021-08-03T18:04:37.747Z</time>
      </trkpt>
      <trkpt lat="42.94041761197" lon="0.34281849861">
        <ele>1346.00014290354</ele>
        <time>2021-08-03T18:04:39.939Z</time>
      </trkpt>
      <trkpt lat="42.94036388397" lon="0.34348368645">
        <ele>1348.07308743025</ele>
        <time>2021-08-03T18:04:42.139Z</time>
      </trkpt>
      <trkpt lat="42.94038534164" lon="0.3438270092">
        <ele>1350.27641690476</ele>
        <time>2021-08-03T18:04:44.343Z</time>
      </trkpt>
      <trkpt lat="42.94040679932" lon="0.34400939941">
        <ele>1352.27973731897</ele>
        <time>2021-08-03T18:04:46.549Z</time>
      </trkpt>
      <trkpt lat="42.94054627419" lon="0.34451365471">
        <ele>1354.45238221456</ele>
        <time>2021-08-03T18:04:48.762Z</time>
      </trkpt>
      <trkpt lat="42.94059991837" lon="0.34464240074">
        <ele>1356.71602286166</ele>
        <time>2021-08-03T18:04:50.976Z</time>
      </trkpt>
      <trkpt lat="42.94067502022" lon="0.34472823143">
        <ele>1358.94125901669</ele>
        <time>2021-08-03T18:04:53.192Z</time>
      </trkpt>
      <trkpt lat="42.94075012207" lon="0.34476041794">
        <ele>1361.31611437885</ele>
        <time>2021-08-03T18:04:55.409Z</time>
      </trkpt>
      <trkpt lat="42.94082522392" lon="0.34473896027">
        <ele>1363.84446292573</ele>
        <time>2021-08-03T18:04:57.628Z</time>
      </trkpt>
      <trkpt lat="42.94088959694" lon="0.34465312958">
        <ele>1366.53484442799</ele>
        <time>2021-08-03T18:04:59.848Z</time>
      </trkpt>
      <trkpt lat="42.94091105461" lon="0.34455657005">
        <ele>1369.20656171469</ele>
        <time>2021-08-03T18:05:02.069Z</time>
      </trkpt>
      <trkpt lat="42.94088959694" lon="0.34446001053">
        <ele>1371.90683750097</ele>
        <time>2021-08-03T18:05:04.291Z</time>
      </trkpt>
      <trkpt lat="42.94076085091" lon="0.34425616264">
        <ele>1374.577063521</ele>
        <time>2021-08-03T18:05:06.516Z</time>
      </trkpt>
      <trkpt lat="42.94070720673" lon="0.34413814545">
        <ele>1377.38223889094</ele>
        <time>2021-08-03T18:05:08.743Z</time>
      </trkpt>
      <trkpt lat="42.94069647789" lon="0.34398794174">
        <ele>1380.35988306141</ele>
        <time>2021-08-03T18:05:10.972Z</time>
      </trkpt>
      <trkpt lat="42.94071793556" lon="0.34368753433">
        <ele>1383.44301696961</ele>
        <time>2021-08-03T18:05:13.204Z</time>
      </trkpt>
      <trkpt lat="42.94077157974" lon="0.34339785576">
        <ele>1386.54280623706</ele>
        <time>2021-08-03T18:05:15.440Z</time>
      </trkpt>
      <trkpt lat="42.94121146202" lon="0.34176707268">
        <ele>1390.10814632578</ele>
        <time>2021-08-03T18:05:17.696Z</time>
      </trkpt>
      <trkpt lat="42.94128656387" lon="0.34131646156">
        <ele>1393.32975434282</ele>
        <time>2021-08-03T18:05:19.958Z</time>
      </trkpt>
      <trkpt lat="42.94137239456" lon="0.34064054489">
        <ele>1396.74027515204</ele>
        <time>2021-08-03T18:05:22.228Z</time>
      </trkpt>
      <trkpt lat="42.94144749641" lon="0.34017920494">
        <ele>1400.07311927427</ele>
        <time>2021-08-03T18:05:24.503Z</time>
      </trkpt>
      <trkpt lat="42.94156551361" lon="0.33971786499">
        <ele>1403.54283907615</ele>
        <time>2021-08-03T18:05:26.784Z</time>
      </trkpt>
      <trkpt lat="42.94183373451" lon="0.3388273716">
        <ele>1407.22004929112</ele>
        <time>2021-08-03T18:05:29.076Z</time>
      </trkpt>
      <trkpt lat="42.94195175171" lon="0.33846259117">
        <ele>1410.56220502036</ele>
        <time>2021-08-03T18:05:31.373Z</time>
      </trkpt>
      <trkpt lat="42.94214495458" lon="0.33801198006">
        <ele>1413.94519963204</ele>
        <time>2021-08-03T18:05:33.676Z</time>
      </trkpt>
      <trkpt lat="42.94227361679" lon="0.33775448799">
        <ele>1417.18416238396</ele>
        <time>2021-08-03T18:05:35.983Z</time>
      </trkpt>
      <trkpt lat="42.94235944748" lon="0.3376686573">
        <ele>1420.40136407599</ele>
        <time>2021-08-03T18:05:38.292Z</time>
      </trkpt>
      <trkpt lat="42.94259548187" lon="0.33757209778">
        <ele>1423.80249390231</ele>
        <time>2021-08-03T18:05:40.605Z</time>
      </trkpt>
      <trkpt lat="42.94283151627" lon="0.33737897873">
        <ele>1427.1401919634</ele>
        <time>2021-08-03T18:05:42.922Z</time>
      </trkpt>
      <trkpt lat="42.94317483902" lon="0.3369820118">
        <ele>1430.4965245379</ele>
        <time>2021-08-03T18:05:45.246Z</time>
      </trkpt>
      <trkpt lat="42.94323921204" lon="0.33687472343">
        <ele>1433.43545592759</ele>
        <time>2021-08-03T18:05:47.572Z</time>
      </trkpt>
      <trkpt lat="42.94328212738" lon="0.33676743507">
        <ele>1436.26655710365</ele>
        <time>2021-08-03T18:05:49.899Z</time>
      </trkpt>
      <trkpt lat="42.94330358505" lon="0.33658504486">
        <ele>1438.86933928615</ele>
        <time>2021-08-03T18:05:52.228Z</time>
      </trkpt>
      <trkpt lat="42.94328212738" lon="0.33572673798">
        <ele>1440.92900100785</ele>
        <time>2021-08-03T18:05:54.568Z</time>
      </trkpt>
      <trkpt lat="42.94329285622" lon="0.33546924591">
        <ele>1443.49568516365</ele>
        <time>2021-08-03T18:05:56.911Z</time>
      </trkpt>
      <trkpt lat="42.94355034828" lon="0.33450365067">
        <ele>1446.84853101944</ele>
        <time>2021-08-03T18:05:59.266Z</time>
      </trkpt>
      <trkpt lat="42.94380784035" lon="0.33368825912">
        <ele>1449.87605008424</ele>
        <time>2021-08-03T18:06:01.631Z</time>
      </trkpt>
      <trkpt lat="42.94386148453" lon="0.33338785172">
        <ele>1452.44704052296</ele>
        <time>2021-08-03T18:06:04.000Z</time>
      </trkpt>
      <trkpt lat="42.94381856918" lon="0.33231496811">
        <ele>1454.73300378104</ele>
        <time>2021-08-03T18:06:06.381Z</time>
      </trkpt>
      <trkpt lat="42.94379711151" lon="0.33212184906">
        <ele>1456.93213542706</ele>
        <time>2021-08-03T18:06:08.765Z</time>
      </trkpt>
      <trkpt lat="42.94377565384" lon="0.3320145607">
        <ele>1459.10314067189</ele>
        <time>2021-08-03T18:06:11.150Z</time>
      </trkpt>
      <trkpt lat="42.94371128082" lon="0.33192873001">
        <ele>1461.06959454604</ele>
        <time>2021-08-03T18:06:13.536Z</time>
      </trkpt>
      <trkpt lat="42.94357188977" lon="0.33186435699">
        <ele>1462.76224261751</ele>
        <time>2021-08-03T18:06:15.925Z</time>
      </trkpt>
      <trkpt lat="42.94357180595" lon="0.33186435699">
        <ele>1464.63766739711</ele>
        <time>2021-08-03T18:06:18.314Z</time>
      </trkpt>
      <trkpt lat="42.94345378876" lon="0.33182144165">
        <ele>1466.21997892759</ele>
        <time>2021-08-03T18:06:20.705Z</time>
      </trkpt>
      <trkpt lat="42.94333577156" lon="0.33169269562">
        <ele>1467.85560240235</ele>
        <time>2021-08-03T18:06:23.098Z</time>
      </trkpt>
      <trkpt lat="42.94317483902" lon="0.33116698265">
        <ele>1469.73900230045</ele>
        <time>2021-08-03T18:06:25.498Z</time>
      </trkpt>
      <trkpt lat="42.94312119484" lon="0.33111333847">
        <ele>1471.31529420888</ele>
        <time>2021-08-03T18:06:27.899Z</time>
      </trkpt>
      <trkpt lat="42.94294953346" lon="0.33099532127">
        <ele>1472.65398269613</ele>
        <time>2021-08-03T18:06:30.303Z</time>
      </trkpt>
      <trkpt lat="42.94289588928" lon="0.33085584641">
        <ele>1474.19703511812</ele>
        <time>2021-08-03T18:06:32.709Z</time>
      </trkpt>
      <trkpt lat="42.94289588928" lon="0.33057689667">
        <ele>1476.03870083223</ele>
        <time>2021-08-03T18:06:35.118Z</time>
      </trkpt>
      <trkpt lat="42.94282078743" lon="0.32956838608">
        <ele>1478.06410473752</ele>
        <time>2021-08-03T18:06:37.539Z</time>
      </trkpt>
      <trkpt lat="42.94278860092" lon="0.32942891121">
        <ele>1479.52420244448</ele>
        <time>2021-08-03T18:06:39.962Z</time>
      </trkpt>
      <trkpt lat="42.94273495674" lon="0.32930016518">
        <ele>1480.84735670411</ele>
        <time>2021-08-03T18:06:42.386Z</time>
      </trkpt>
      <trkpt lat="42.94263839722" lon="0.32913923264">
        <ele>1482.01983422341</ele>
        <time>2021-08-03T18:06:44.813Z</time>
      </trkpt>
      <trkpt lat="42.94258475304" lon="0.32899975777">
        <ele>1483.2092609672</ele>
        <time>2021-08-03T18:06:47.242Z</time>
      </trkpt>
      <trkpt lat="42.94247746468" lon="0.32852768898">
        <ele>1484.58032499487</ele>
        <time>2021-08-03T18:06:49.677Z</time>
      </trkpt>
      <trkpt lat="42.94233798981" lon="0.32817363739">
        <ele>1485.66838412241</ele>
        <time>2021-08-03T18:06:52.116Z</time>
      </trkpt>
      <trkpt lat="42.94229507446" lon="0.32800197601">
        <ele>1486.64674158365</ele>
        <time>2021-08-03T18:06:54.557Z</time>
      </trkpt>
      <trkpt lat="42.94225215912" lon="0.32777667046">
        <ele>1487.64149208996</ele>
        <time>2021-08-03T18:06:57.001Z</time>
      </trkpt>
      <trkpt lat="42.94225651771" lon="0.3277068492">
        <ele>1488.41614376909</ele>
        <time>2021-08-03T18:06:59.446Z</time>
      </trkpt>
      <trkpt lat="42.94225651771" lon="0.32770701684">
        <ele>1488.98439371365</ele>
        <time>2021-08-03T18:07:01.891Z</time>
      </trkpt>
      <trkpt lat="42.94226288795" lon="0.32760500908">
        <ele>1489.49146867744</ele>
        <time>2021-08-03T18:07:04.337Z</time>
      </trkpt>
      <trkpt lat="42.94230588712" lon="0.32748699188">
        <ele>1489.81459225982</ele>
        <time>2021-08-03T18:07:06.785Z</time>
      </trkpt>
      <trkpt lat="42.9423595313" lon="0.32733678818">
        <ele>1490.00396141824</ele>
        <time>2021-08-03T18:07:09.235Z</time>
      </trkpt>
      <trkpt lat="42.94235944748" lon="0.32733678818">
        <ele>1490.03552115994</ele>
        <time>2021-08-03T18:07:11.685Z</time>
      </trkpt>
      <trkpt lat="42.94243454933" lon="0.32719731331">
        <ele>1489.94117657554</ele>
        <time>2021-08-03T18:07:14.137Z</time>
      </trkpt>
      <trkpt lat="42.94293880463" lon="0.32661795616">
        <ele>1490.13672043425</ele>
        <time>2021-08-03T18:07:16.599Z</time>
      </trkpt>
      <trkpt lat="42.94308900833" lon="0.32634973526">
        <ele>1489.71739225162</ele>
        <time>2021-08-03T18:07:19.065Z</time>
      </trkpt>
      <trkpt lat="42.94318556786" lon="0.32610297203">
        <ele>1489.0438425489</ele>
        <time>2021-08-03T18:07:21.534Z</time>
      </trkpt>
      <trkpt lat="42.94328212738" lon="0.32569527626">
        <ele>1488.03239111624</ele>
        <time>2021-08-03T18:07:24.009Z</time>
      </trkpt>
      <trkpt lat="42.94344305992" lon="0.32471895218">
        <ele>1486.55548894996</ele>
        <time>2021-08-03T18:07:26.495Z</time>
      </trkpt>
      <trkpt lat="42.94355034828" lon="0.32423615456">
        <ele>1485.50045934304</ele>
        <time>2021-08-03T18:07:28.987Z</time>
      </trkpt>
      <trkpt lat="42.94357180595" lon="0.32406449318">
        <ele>1484.31686755763</ele>
        <time>2021-08-03T18:07:31.481Z</time>
      </trkpt>
      <trkpt lat="42.9436147213" lon="0.32342076302">
        <ele>1482.87889305916</ele>
        <time>2021-08-03T18:07:33.983Z</time>
      </trkpt>
      <trkpt lat="42.94363617897" lon="0.32327055931">
        <ele>1481.47803739624</ele>
        <time>2021-08-03T18:07:36.487Z</time>
      </trkpt>
      <trkpt lat="42.94367909431" lon="0.32312035561">
        <ele>1479.9481667275</ele>
        <time>2021-08-03T18:07:38.993Z</time>
      </trkpt>
      <trkpt lat="42.94377565384" lon="0.32288432121">
        <ele>1478.27664080491</ele>
        <time>2021-08-03T18:07:41.502Z</time>
      </trkpt>
      <trkpt lat="42.94404387474" lon="0.32242298126">
        <ele>1476.49327284128</ele>
        <time>2021-08-03T18:07:44.018Z</time>
      </trkpt>
      <trkpt lat="42.94424780644" lon="0.32191872597">
        <ele>1474.50032667015</ele>
        <time>2021-08-03T18:07:46.540Z</time>
      </trkpt>
      <trkpt lat="42.94424772263" lon="0.32191872597">
        <ele>1472.52081341533</ele>
        <time>2021-08-03T18:07:49.062Z</time>
      </trkpt>
      <trkpt lat="42.94458040036" lon="0.32113552094">
        <ele>1470.46816942679</ele>
        <time>2021-08-03T18:07:51.595Z</time>
      </trkpt>
      <trkpt lat="42.94458031654" lon="0.32113552094">
        <ele>1468.27967017005</ele>
        <time>2021-08-03T18:07:54.128Z</time>
      </trkpt>
      <trkpt lat="42.94502028264" lon="0.32009482384">
        <ele>1465.99048403698</ele>
        <time>2021-08-03T18:07:56.675Z</time>
      </trkpt>
      <trkpt lat="42.94503101148" lon="0.32007336617">
        <ele>1463.59652567474</ele>
        <time>2021-08-03T18:07:59.222Z</time>
      </trkpt>
      <trkpt lat="42.94526696205" lon="0.31961202621">
        <ele>1460.91622615607</ele>
        <time>2021-08-03T18:08:01.776Z</time>
      </trkpt>
      <trkpt lat="42.94558882713" lon="0.31908631325">
        <ele>1458.23633201453</ele>
        <time>2021-08-03T18:08:04.338Z</time>
      </trkpt>
      <trkpt lat="42.94574975967" lon="0.31848549843">
        <ele>1455.02794197053</ele>
        <time>2021-08-03T18:08:06.908Z</time>
      </trkpt>
      <trkpt lat="42.94588923454" lon="0.31810998917">
        <ele>1452.04071889074</ele>
        <time>2021-08-03T18:08:09.483Z</time>
      </trkpt>
      <trkpt lat="42.94608235359" lon="0.31768083572">
        <ele>1449.15497233601</ele>
        <time>2021-08-03T18:08:12.063Z</time>
      </trkpt>
      <trkpt lat="42.94622182846" lon="0.31747698784">
        <ele>1446.38911701633</ele>
        <time>2021-08-03T18:08:14.647Z</time>
      </trkpt>
      <trkpt lat="42.94644713402" lon="0.3173160553">
        <ele>1443.81474416816</ele>
        <time>2021-08-03T18:08:17.235Z</time>
      </trkpt>
      <trkpt lat="42.94649004936" lon="0.31724095345">
        <ele>1440.91244571081</ele>
        <time>2021-08-03T18:08:19.824Z</time>
      </trkpt>
      <trkpt lat="42.9465007782" lon="0.31717658043">
        <ele>1437.90990021247</ele>
        <time>2021-08-03T18:08:22.414Z</time>
      </trkpt>
      <trkpt lat="42.94651150703" lon="0.3170478344">
        <ele>1434.85894471903</ele>
        <time>2021-08-03T18:08:25.005Z</time>
      </trkpt>
      <trkpt lat="42.94647932053" lon="0.31689763069">
        <ele>1431.70262752902</ele>
        <time>2021-08-03T18:08:27.598Z</time>
      </trkpt>
      <trkpt lat="42.946382761" lon="0.31676888466">
        <ele>1428.39873550439</ele>
        <time>2021-08-03T18:08:30.193Z</time>
      </trkpt>
      <trkpt lat="42.9462325573" lon="0.31652212143">
        <ele>1424.93510048261</ele>
        <time>2021-08-03T18:08:32.792Z</time>
      </trkpt>
      <trkpt lat="42.9461145401" lon="0.31637191772">
        <ele>1421.54801441606</ele>
        <time>2021-08-03T18:08:35.394Z</time>
      </trkpt>
      <trkpt lat="42.94598579407" lon="0.31626462936">
        <ele>1418.19139976475</ele>
        <time>2021-08-03T18:08:37.998Z</time>
      </trkpt>
      <trkpt lat="42.94583559036" lon="0.31618952751">
        <ele>1414.88409406454</ele>
        <time>2021-08-03T18:08:40.605Z</time>
      </trkpt>
      <trkpt lat="42.94563174248" lon="0.31595349312">
        <ele>1411.67281040805</ele>
        <time>2021-08-03T18:08:43.216Z</time>
      </trkpt>
      <trkpt lat="42.94490218163" lon="0.31494498253">
        <ele>1408.12380122478</ele>
        <time>2021-08-03T18:08:45.843Z</time>
      </trkpt>
      <trkpt lat="42.94477343559" lon="0.31463384628">
        <ele>1404.98708482397</ele>
        <time>2021-08-03T18:08:48.475Z</time>
      </trkpt>
      <trkpt lat="42.94466614723" lon="0.31424760818">
        <ele>1401.86065667255</ele>
        <time>2021-08-03T18:08:51.112Z</time>
      </trkpt>
      <trkpt lat="42.94416189194" lon="0.31313180923">
        <ele>1398.56103899589</ele>
        <time>2021-08-03T18:08:53.764Z</time>
      </trkpt>
      <trkpt lat="42.94399023056" lon="0.31284213066">
        <ele>1395.58134190466</ele>
        <time>2021-08-03T18:08:56.420Z</time>
      </trkpt>
      <trkpt lat="42.94385075569" lon="0.31262755394">
        <ele>1392.70527294462</ele>
        <time>2021-08-03T18:08:59.080Z</time>
      </trkpt>
      <trkpt lat="42.94351816177" lon="0.31235933304">
        <ele>1389.57290566971</ele>
        <time>2021-08-03T18:09:01.746Z</time>
      </trkpt>
      <trkpt lat="42.9432284832" lon="0.31190872192">
        <ele>1386.91131862717</ele>
        <time>2021-08-03T18:09:04.419Z</time>
      </trkpt>
      <trkpt lat="42.94300317764" lon="0.31165122986">
        <ele>1384.21342856423</ele>
        <time>2021-08-03T18:09:07.097Z</time>
      </trkpt>
      <trkpt lat="42.94285297394" lon="0.31153321266">
        <ele>1381.49593593703</ele>
        <time>2021-08-03T18:09:09.777Z</time>
      </trkpt>
      <trkpt lat="42.94247746468" lon="0.31136155128">
        <ele>1378.56470615961</ele>
        <time>2021-08-03T18:09:12.464Z</time>
      </trkpt>
      <trkpt lat="42.94243454933" lon="0.31128644943">
        <ele>1376.00501667115</ele>
        <time>2021-08-03T18:09:15.152Z</time>
      </trkpt>
      <trkpt lat="42.9424238205" lon="0.31120061874">
        <ele>1373.46719656224</ele>
        <time>2021-08-03T18:09:17.841Z</time>
      </trkpt>
      <trkpt lat="42.94252038002" lon="0.30961275101">
        <ele>1371.1085441066</ele>
        <time>2021-08-03T18:09:20.549Z</time>
      </trkpt>
      <trkpt lat="42.94262766838" lon="0.30881881714">
        <ele>1368.3927938075</ele>
        <time>2021-08-03T18:09:23.266Z</time>
      </trkpt>
      <trkpt lat="42.94282078743" lon="0.30796051025">
        <ele>1365.61839422709</ele>
        <time>2021-08-03T18:09:25.994Z</time>
      </trkpt>
      <trkpt lat="42.9430782795" lon="0.30720949173">
        <ele>1363.2916254544</ele>
        <time>2021-08-03T18:09:28.731Z</time>
      </trkpt>
      <trkpt lat="42.94308900833" lon="0.30707001686">
        <ele>1360.83400107009</ele>
        <time>2021-08-03T18:09:31.470Z</time>
      </trkpt>
      <trkpt lat="42.94304609299" lon="0.3069627285">
        <ele>1358.34403847217</ele>
        <time>2021-08-03T18:09:34.210Z</time>
      </trkpt>
      <trkpt lat="42.94298180379" lon="0.30690908432">
        <ele>1355.83649065411</ele>
        <time>2021-08-03T18:09:36.952Z</time>
      </trkpt>
      <trkpt lat="42.94298171997" lon="0.30690908432">
        <ele>1353.42468054874</ele>
        <time>2021-08-03T18:09:39.694Z</time>
      </trkpt>
      <trkpt lat="42.94288516045" lon="0.30685544014">
        <ele>1350.87476522607</ele>
        <time>2021-08-03T18:09:42.437Z</time>
      </trkpt>
      <trkpt lat="42.94283151627" lon="0.30676960945">
        <ele>1348.37732716121</ele>
        <time>2021-08-03T18:09:45.182Z</time>
      </trkpt>
      <trkpt lat="42.94281005859" lon="0.30558943748">
        <ele>1345.81151991185</ele>
        <time>2021-08-03T18:09:47.941Z</time>
      </trkpt>
      <trkpt lat="42.94277787209" lon="0.30551433563">
        <ele>1343.3412840042</ele>
        <time>2021-08-03T18:09:50.701Z</time>
      </trkpt>
      <trkpt lat="42.94273495674" lon="0.30546069145">
        <ele>1340.8585478123</ele>
        <time>2021-08-03T18:09:53.461Z</time>
      </trkpt>
      <trkpt lat="42.942456007" lon="0.3053855896">
        <ele>1338.02547565182</ele>
        <time>2021-08-03T18:09:56.226Z</time>
      </trkpt>
      <trkpt lat="42.94238090515" lon="0.30534267426">
        <ele>1335.46181137807</ele>
        <time>2021-08-03T18:09:58.992Z</time>
      </trkpt>
      <trkpt lat="42.94232726097" lon="0.30525684357">
        <ele>1332.95101954531</ele>
        <time>2021-08-03T18:10:01.760Z</time>
      </trkpt>
      <trkpt lat="42.94219851494" lon="0.30472040176">
        <ele>1330.41840672252</ele>
        <time>2021-08-03T18:10:04.534Z</time>
      </trkpt>
      <trkpt lat="42.94196248055" lon="0.30423760414">
        <ele>1327.69535796866</ele>
        <time>2021-08-03T18:10:07.315Z</time>
      </trkpt>
      <trkpt lat="42.94174790382" lon="0.30359387398">
        <ele>1325.12786753186</ele>
        <time>2021-08-03T18:10:10.104Z</time>
      </trkpt>
      <trkpt lat="42.94152259827" lon="0.30300378799">
        <ele>1322.59606972547</ele>
        <time>2021-08-03T18:10:12.901Z</time>
      </trkpt>
      <trkpt lat="42.94144749641" lon="0.30270338058">
        <ele>1320.3109292549</ele>
        <time>2021-08-03T18:10:15.702Z</time>
      </trkpt>
      <trkpt lat="42.94137239456" lon="0.30255317688">
        <ele>1317.93338086533</ele>
        <time>2021-08-03T18:10:18.505Z</time>
      </trkpt>
      <trkpt lat="42.94115781784" lon="0.30231714249">
        <ele>1315.36786835812</ele>
        <time>2021-08-03T18:10:21.312Z</time>
      </trkpt>
      <trkpt lat="42.94079303741" lon="0.30205965042">
        <ele>1312.56681123947</ele>
        <time>2021-08-03T18:10:24.126Z</time>
      </trkpt>
      <trkpt lat="42.94058918953" lon="0.3018450737">
        <ele>1310.07394022067</ele>
        <time>2021-08-03T18:10:26.944Z</time>
      </trkpt>
      <trkpt lat="42.9402244091" lon="0.30098676682">
        <ele>1307.91520631979</ele>
        <time>2021-08-03T18:10:29.774Z</time>
      </trkpt>
      <trkpt lat="42.94005274773" lon="0.30054688454">
        <ele>1305.83458885152</ele>
        <time>2021-08-03T18:10:32.610Z</time>
      </trkpt>
      <trkpt lat="42.93997764587" lon="0.30043959618">
        <ele>1303.685904052</ele>
        <time>2021-08-03T18:10:35.447Z</time>
      </trkpt>
      <trkpt lat="42.93990254402" lon="0.30039668083">
        <ele>1301.49336325434</ele>
        <time>2021-08-03T18:10:38.286Z</time>
      </trkpt>
      <trkpt lat="42.9396879673" lon="0.30036449432">
        <ele>1299.12211502596</ele>
        <time>2021-08-03T18:10:41.128Z</time>
      </trkpt>
      <trkpt lat="42.9395699501" lon="0.30030012131">
        <ele>1296.94014999146</ele>
        <time>2021-08-03T18:10:43.972Z</time>
      </trkpt>
      <trkpt lat="42.93952703476" lon="0.30017137527">
        <ele>1294.91955280023</ele>
        <time>2021-08-03T18:10:46.818Z</time>
      </trkpt>
      <trkpt lat="42.93949484825" lon="0.29998898506">
        <ele>1292.95610950875</ele>
        <time>2021-08-03T18:10:49.666Z</time>
      </trkpt>
      <trkpt lat="42.93948411942" lon="0.29955983162">
        <ele>1291.21659414032</ele>
        <time>2021-08-03T18:10:52.519Z</time>
      </trkpt>
      <trkpt lat="42.93945193291" lon="0.29939889908">
        <ele>1289.27472696141</ele>
        <time>2021-08-03T18:10:55.374Z</time>
      </trkpt>
      <trkpt lat="42.93938755989" lon="0.29929161072">
        <ele>1287.26842032675</ele>
        <time>2021-08-03T18:10:58.231Z</time>
      </trkpt>
      <trkpt lat="42.9391515255" lon="0.29909849167">
        <ele>1284.94835954751</ele>
        <time>2021-08-03T18:11:01.092Z</time>
      </trkpt>
      <trkpt lat="42.93905496597" lon="0.29885172844">
        <ele>1282.92073493761</ele>
        <time>2021-08-03T18:11:03.956Z</time>
      </trkpt>
      <trkpt lat="42.93908715248" lon="0.29835820198">
        <ele>1281.23101728376</ele>
        <time>2021-08-03T18:11:06.826Z</time>
      </trkpt>
      <trkpt lat="42.93924808502" lon="0.29783248901">
        <ele>1279.62058815361</ele>
        <time>2021-08-03T18:11:09.703Z</time>
      </trkpt>
      <trkpt lat="42.93954849243" lon="0.29710292816">
        <ele>1277.45272888745</ele>
        <time>2021-08-03T18:11:12.590Z</time>
      </trkpt>
      <trkpt lat="42.93965578079" lon="0.29693126678">
        <ele>1275.3937869651</ele>
        <time>2021-08-03T18:11:15.479Z</time>
      </trkpt>
      <trkpt lat="42.93981671333" lon="0.29680252075">
        <ele>1273.42435231405</ele>
        <time>2021-08-03T18:11:18.371Z</time>
      </trkpt>
      <trkpt lat="42.94020295143" lon="0.29663085938">
        <ele>1271.6003111865</ele>
        <time>2021-08-03T18:11:21.270Z</time>
      </trkpt>
      <trkpt lat="42.94029951096" lon="0.29656648636">
        <ele>1269.51861954879</ele>
        <time>2021-08-03T18:11:24.171Z</time>
      </trkpt>
      <trkpt lat="42.94035315514" lon="0.29643774033">
        <ele>1267.31191854677</ele>
        <time>2021-08-03T18:11:27.073Z</time>
      </trkpt>
      <trkpt lat="42.94037461281" lon="0.29620170593">
        <ele>1264.93893350493</ele>
        <time>2021-08-03T18:11:29.978Z</time>
      </trkpt>
      <trkpt lat="42.94040679932" lon="0.29601931572">
        <ele>1262.57857278667</ele>
        <time>2021-08-03T18:11:32.885Z</time>
      </trkpt>
      <trkpt lat="42.94048190117" lon="0.295804739">
        <ele>1260.17356422659</ele>
        <time>2021-08-03T18:11:35.795Z</time>
      </trkpt>
      <trkpt lat="42.94083595276" lon="0.29504299164">
        <ele>1257.5488243424</ele>
        <time>2021-08-03T18:11:38.716Z</time>
      </trkpt>
      <trkpt lat="42.94100761414" lon="0.29451727867">
        <ele>1254.95764322301</ele>
        <time>2021-08-03T18:11:41.644Z</time>
      </trkpt>
      <trkpt lat="42.94116854668" lon="0.29418468475">
        <ele>1252.34414089773</ele>
        <time>2021-08-03T18:11:44.576Z</time>
      </trkpt>
      <trkpt lat="42.94186592102" lon="0.29320836067">
        <ele>1249.42318470863</ele>
        <time>2021-08-03T18:11:47.524Z</time>
      </trkpt>
      <trkpt lat="42.94204831123" lon="0.29304742813">
        <ele>1246.81891224769</ele>
        <time>2021-08-03T18:11:50.476Z</time>
      </trkpt>
      <trkpt lat="42.94240236282" lon="0.29284358025">
        <ele>1244.1731041931</ele>
        <time>2021-08-03T18:11:53.434Z</time>
      </trkpt>
      <trkpt lat="42.94247746468" lon="0.29272556305">
        <ele>1241.6143585195</ele>
        <time>2021-08-03T18:11:56.394Z</time>
      </trkpt>
      <trkpt lat="42.94248819351" lon="0.29261827469">
        <ele>1239.04547263264</ele>
        <time>2021-08-03T18:11:59.355Z</time>
      </trkpt>
      <trkpt lat="42.94246673584" lon="0.29250025749">
        <ele>1236.45525692328</ele>
        <time>2021-08-03T18:12:02.317Z</time>
      </trkpt>
      <trkpt lat="42.94240236282" lon="0.29242515564">
        <ele>1233.87782484409</ele>
        <time>2021-08-03T18:12:05.281Z</time>
      </trkpt>
      <trkpt lat="42.94232726097" lon="0.2924144268">
        <ele>1231.33318469355</ele>
        <time>2021-08-03T18:12:08.246Z</time>
      </trkpt>
      <trkpt lat="42.94173717499" lon="0.29256463051">
        <ele>1228.84679023252</ele>
        <time>2021-08-03T18:12:11.221Z</time>
      </trkpt>
      <trkpt lat="42.9408788681" lon="0.29294013977">
        <ele>1225.93101229624</ele>
        <time>2021-08-03T18:12:14.210Z</time>
      </trkpt>
      <trkpt lat="42.94070720673" lon="0.29304742813">
        <ele>1223.314458947</ele>
        <time>2021-08-03T18:12:17.202Z</time>
      </trkpt>
      <trkpt lat="42.94051408768" lon="0.29328346252">
        <ele>1220.78557529642</ele>
        <time>2021-08-03T18:12:20.198Z</time>
      </trkpt>
      <trkpt lat="42.94043898582" lon="0.29328346252">
        <ele>1218.16266928472</ele>
        <time>2021-08-03T18:12:23.195Z</time>
      </trkpt>
      <trkpt lat="42.94038542546" lon="0.29326200485">
        <ele>1215.54231011989</ele>
        <time>2021-08-03T18:12:26.193Z</time>
      </trkpt>
      <trkpt lat="42.94035315514" lon="0.29316544533">
        <ele>1212.87377977651</ele>
        <time>2021-08-03T18:12:29.192Z</time>
      </trkpt>
      <trkpt lat="42.94038534164" lon="0.29305815697">
        <ele>1210.26592321694</ele>
        <time>2021-08-03T18:12:32.193Z</time>
      </trkpt>
      <trkpt lat="42.94043898582" lon="0.29297232628">
        <ele>1207.70179510285</ele>
        <time>2021-08-03T18:12:35.195Z</time>
      </trkpt>
      <trkpt lat="42.94068574905" lon="0.29271483421">
        <ele>1205.11127385249</ele>
        <time>2021-08-03T18:12:38.202Z</time>
      </trkpt>
      <trkpt lat="42.9413831234" lon="0.29141664505">
        <ele>1202.18780364253</ele>
        <time>2021-08-03T18:12:41.228Z</time>
      </trkpt>
      <trkpt lat="42.94154405594" lon="0.29115915298">
        <ele>1199.62973117891</ele>
        <time>2021-08-03T18:12:44.258Z</time>
      </trkpt>
      <trkpt lat="42.94170498848" lon="0.29093384743">
        <ele>1196.95110794228</ele>
        <time>2021-08-03T18:12:47.292Z</time>
      </trkpt>
      <trkpt lat="42.94200539589" lon="0.29063344002">
        <ele>1194.17847610105</ele>
        <time>2021-08-03T18:12:50.332Z</time>
      </trkpt>
      <trkpt lat="42.94221997261" lon="0.29051542282">
        <ele>1191.63380805841</ele>
        <time>2021-08-03T18:12:53.375Z</time>
      </trkpt>
      <trkpt lat="42.94265985489" lon="0.29047250748">
        <ele>1189.14063859635</ele>
        <time>2021-08-03T18:12:56.425Z</time>
      </trkpt>
      <trkpt lat="42.94270277023" lon="0.29044032097">
        <ele>1186.53651238079</ele>
        <time>2021-08-03T18:12:59.476Z</time>
      </trkpt>
      <trkpt lat="42.94273495674" lon="0.29038667679">
        <ele>1183.92572039163</ele>
        <time>2021-08-03T18:13:02.528Z</time>
      </trkpt>
      <trkpt lat="42.94274568558" lon="0.2903008461">
        <ele>1181.31258976985</ele>
        <time>2021-08-03T18:13:05.581Z</time>
      </trkpt>
      <trkpt lat="42.94271349907" lon="0.29023647308">
        <ele>1178.78417679441</ele>
        <time>2021-08-03T18:13:08.635Z</time>
      </trkpt>
      <trkpt lat="42.94264912605" lon="0.2901828289">
        <ele>1176.315762528</ele>
        <time>2021-08-03T18:13:11.690Z</time>
      </trkpt>
      <trkpt lat="42.94159770012" lon="0.29008626938">
        <ele>1173.34449120896</ele>
        <time>2021-08-03T18:13:14.762Z</time>
      </trkpt>
      <trkpt lat="42.94127583504" lon="0.29008626938">
        <ele>1170.61481205385</ele>
        <time>2021-08-03T18:13:17.839Z</time>
      </trkpt>
      <trkpt lat="42.9411149025" lon="0.29011845589">
        <ele>1168.07691984331</ele>
        <time>2021-08-03T18:13:20.919Z</time>
      </trkpt>
      <trkpt lat="42.94102907181" lon="0.29017210007">
        <ele>1165.63390386516</ele>
        <time>2021-08-03T18:13:24.000Z</time>
      </trkpt>
      <trkpt lat="42.94086813927" lon="0.29044032097">
        <ele>1163.33157364045</ele>
        <time>2021-08-03T18:13:27.085Z</time>
      </trkpt>
      <trkpt lat="42.94083595276" lon="0.29048323631">
        <ele>1160.91403859626</ele>
        <time>2021-08-03T18:13:30.171Z</time>
      </trkpt>
      <trkpt lat="42.94071793556" lon="0.29050469398">
        <ele>1158.34456181547</ele>
        <time>2021-08-03T18:13:33.259Z</time>
      </trkpt>
      <trkpt lat="42.94066429138" lon="0.2904510498">
        <ele>1155.84838003489</ele>
        <time>2021-08-03T18:13:36.348Z</time>
      </trkpt>
      <trkpt lat="42.94064283371" lon="0.29038667679">
        <ele>1153.42437956021</ele>
        <time>2021-08-03T18:13:39.438Z</time>
      </trkpt>
      <trkpt lat="42.94066429138" lon="0.29024720192">
        <ele>1151.0396649872</ele>
        <time>2021-08-03T18:13:42.530Z</time>
      </trkpt>
      <trkpt lat="42.94096469879" lon="0.28941035271">
        <ele>1148.42108464061</ele>
        <time>2021-08-03T18:13:45.632Z</time>
      </trkpt>
      <trkpt lat="42.94106125832" lon="0.28921723366">
        <ele>1146.10415110185</ele>
        <time>2021-08-03T18:13:48.737Z</time>
      </trkpt>
      <trkpt lat="42.94117927551" lon="0.28906702995">
        <ele>1143.87219375525</ele>
        <time>2021-08-03T18:13:51.845Z</time>
      </trkpt>
      <trkpt lat="42.94134020805" lon="0.28892755508">
        <ele>1141.65753871875</ele>
        <time>2021-08-03T18:13:54.956Z</time>
      </trkpt>
      <trkpt lat="42.94168353081" lon="0.28870224953">
        <ele>1139.52643520158</ele>
        <time>2021-08-03T18:13:58.073Z</time>
      </trkpt>
      <trkpt lat="42.94214487076" lon="0.28846621513">
        <ele>1137.24825861787</ele>
        <time>2021-08-03T18:14:01.198Z</time>
      </trkpt>
      <trkpt lat="42.94234871864" lon="0.28841257095">
        <ele>1135.11051606099</ele>
        <time>2021-08-03T18:14:04.326Z</time>
      </trkpt>
      <trkpt lat="42.94256329536" lon="0.28839111328">
        <ele>1133.02760570781</ele>
        <time>2021-08-03T18:14:07.458Z</time>
      </trkpt>
      <trkpt lat="42.943110466" lon="0.28847694397">
        <ele>1130.82755470319</ele>
        <time>2021-08-03T18:14:10.598Z</time>
      </trkpt>
      <trkpt lat="42.94338941574" lon="0.28856277466">
        <ele>1128.90818419887</ele>
        <time>2021-08-03T18:14:13.743Z</time>
      </trkpt>
      <trkpt lat="42.9436147213" lon="0.2887237072">
        <ele>1126.95805398687</ele>
        <time>2021-08-03T18:14:16.892Z</time>
      </trkpt>
      <trkpt lat="42.9438829422" lon="0.2889919281">
        <ele>1125.0014980917</ele>
        <time>2021-08-03T18:14:20.046Z</time>
      </trkpt>
      <trkpt lat="42.94395804405" lon="0.28903484344">
        <ele>1123.16012917521</ele>
        <time>2021-08-03T18:14:23.202Z</time>
      </trkpt>
      <trkpt lat="42.94403322972" lon="0.28905630112">
        <ele>1121.36309313039</ele>
        <time>2021-08-03T18:14:26.359Z</time>
      </trkpt>
      <trkpt lat="42.9440331459" lon="0.28905630112">
        <ele>1119.68304395416</ele>
        <time>2021-08-03T18:14:29.516Z</time>
      </trkpt>
      <trkpt lat="42.9440546874" lon="0.28905630112">
        <ele>1118.03743337735</ele>
        <time>2021-08-03T18:14:32.673Z</time>
      </trkpt>
      <trkpt lat="42.94405460358" lon="0.28905630112">
        <ele>1116.46837957808</ele>
        <time>2021-08-03T18:14:35.830Z</time>
      </trkpt>
      <trkpt lat="42.94414043427" lon="0.28900265694">
        <ele>1114.85605627417</ele>
        <time>2021-08-03T18:14:38.989Z</time>
      </trkpt>
      <trkpt lat="42.94421553612" lon="0.28889536858">
        <ele>1113.29413230479</ele>
        <time>2021-08-03T18:14:42.150Z</time>
      </trkpt>
      <trkpt lat="42.9442691803" lon="0.28873443604">
        <ele>1111.80881183074</ele>
        <time>2021-08-03T18:14:45.313Z</time>
      </trkpt>
      <trkpt lat="42.94431209564" lon="0.28853058815">
        <ele>1110.36793888948</ele>
        <time>2021-08-03T18:14:48.478Z</time>
      </trkpt>
      <trkpt lat="42.94429063797" lon="0.28804779053">
        <ele>1108.83485119668</ele>
        <time>2021-08-03T18:14:51.649Z</time>
      </trkpt>
      <trkpt lat="42.94424772263" lon="0.28783321381">
        <ele>1107.57774403927</ele>
        <time>2021-08-03T18:14:54.822Z</time>
      </trkpt>
      <trkpt lat="42.94402241707" lon="0.28739333153">
        <ele>1106.40199626193</ele>
        <time>2021-08-03T18:14:58.002Z</time>
      </trkpt>
      <trkpt lat="42.94364699163" lon="0.28673887253">
        <ele>1105.29517041293</ele>
        <time>2021-08-03T18:15:01.191Z</time>
      </trkpt>
      <trkpt lat="42.9435504321" lon="0.28657793999">
        <ele>1104.32853732104</ele>
        <time>2021-08-03T18:15:04.383Z</time>
      </trkpt>
      <trkpt lat="42.94347533025" lon="0.28644919395">
        <ele>1103.44284183149</ele>
        <time>2021-08-03T18:15:07.577Z</time>
      </trkpt>
      <trkpt lat="42.94347524643" lon="0.28644919395">
        <ele>1102.64713069211</ele>
        <time>2021-08-03T18:15:10.771Z</time>
      </trkpt>
      <trkpt lat="42.94299244881" lon="0.28554797173">
        <ele>1101.8901468164</ele>
        <time>2021-08-03T18:15:13.978Z</time>
      </trkpt>
      <trkpt lat="42.94291734695" lon="0.28536558151">
        <ele>1101.22861327475</ele>
        <time>2021-08-03T18:15:17.187Z</time>
      </trkpt>
      <trkpt lat="42.94286370277" lon="0.28515100479">
        <ele>1100.62971258394</ele>
        <time>2021-08-03T18:15:20.399Z</time>
      </trkpt>
      <trkpt lat="42.94283151627" lon="0.28490424156">
        <ele>1100.11317173657</ele>
        <time>2021-08-03T18:15:23.614Z</time>
      </trkpt>
      <trkpt lat="42.94281005859" lon="0.28433561325">
        <ele>1099.7634957986</ele>
        <time>2021-08-03T18:15:26.836Z</time>
      </trkpt>
      <trkpt lat="42.9427779559" lon="0.28344511986">
        <ele>1099.36894140498</ele>
        <time>2021-08-03T18:15:30.068Z</time>
      </trkpt>
      <trkpt lat="42.94276714325" lon="0.28274774551">
        <ele>1099.0222970457</ele>
        <time>2021-08-03T18:15:33.308Z</time>
      </trkpt>
      <trkpt lat="42.94279932976" lon="0.28235077858">
        <ele>1098.85284856212</ele>
        <time>2021-08-03T18:15:36.553Z</time>
      </trkpt>
      <trkpt lat="42.94287443161" lon="0.28208255768">
        <ele>1098.65975057113</ele>
        <time>2021-08-03T18:15:39.801Z</time>
      </trkpt>
      <trkpt lat="42.943164194" lon="0.28151392937">
        <ele>1098.55787579028</ele>
        <time>2021-08-03T18:15:43.058Z</time>
      </trkpt>
      <trkpt lat="42.94316411018" lon="0.28151392937">
        <ele>1098.46127847388</ele>
        <time>2021-08-03T18:15:46.315Z</time>
      </trkpt>
      <trkpt lat="42.94331431389" lon="0.28119206429">
        <ele>1098.31919552329</ele>
        <time>2021-08-03T18:15:49.576Z</time>
      </trkpt>
      <trkpt lat="42.94340014458" lon="0.28077363968">
        <ele>1098.08672882422</ele>
        <time>2021-08-03T18:15:52.842Z</time>
      </trkpt>
      <trkpt lat="42.94343233109" lon="0.28044104576">
        <ele>1097.96129424065</ele>
        <time>2021-08-03T18:15:56.112Z</time>
      </trkpt>
      <trkpt lat="42.94349678792" lon="0.28024792671">
        <ele>1098.07007663949</ele>
        <time>2021-08-03T18:15:59.385Z</time>
      </trkpt>
      <trkpt lat="42.94362545013" lon="0.27976512909">
        <ele>1098.23393298664</ele>
        <time>2021-08-03T18:16:02.664Z</time>
      </trkpt>
      <trkpt lat="42.94364690781" lon="0.27942180634">
        <ele>1098.3422965438</ele>
        <time>2021-08-03T18:16:05.947Z</time>
      </trkpt>
      <trkpt lat="42.94357180595" lon="0.27818799019">
        <ele>1098.43285463614</ele>
        <time>2021-08-03T18:16:09.244Z</time>
      </trkpt>
      <trkpt lat="42.94359326363" lon="0.2779841423">
        <ele>1098.59000310621</ele>
        <time>2021-08-03T18:16:12.544Z</time>
      </trkpt>
      <trkpt lat="42.94365763664" lon="0.27770519257">
        <ele>1098.84528739543</ele>
        <time>2021-08-03T18:16:15.847Z</time>
      </trkpt>
      <trkpt lat="42.94379719533" lon="0.27731895447">
        <ele>1099.10672370294</ele>
        <time>2021-08-03T18:16:19.155Z</time>
      </trkpt>
      <trkpt lat="42.94379711151" lon="0.27731895447">
        <ele>1099.28368734812</ele>
        <time>2021-08-03T18:16:22.463Z</time>
      </trkpt>
      <trkpt lat="42.94393658638" lon="0.27694344521">
        <ele>1099.49361235314</ele>
        <time>2021-08-03T18:16:25.776Z</time>
      </trkpt>
      <trkpt lat="42.94405460358" lon="0.27670741081">
        <ele>1099.60849144271</ele>
        <time>2021-08-03T18:16:29.092Z</time>
      </trkpt>
      <trkpt lat="42.94444084167" lon="0.27621388435">
        <ele>1099.81474036712</ele>
        <time>2021-08-03T18:16:32.417Z</time>
      </trkpt>
      <trkpt lat="42.94451594353" lon="0.27606368065">
        <ele>1099.99062769919</ele>
        <time>2021-08-03T18:16:35.744Z</time>
      </trkpt>
      <trkpt lat="42.94458031654" lon="0.27589201927">
        <ele>1100.10861868047</ele>
        <time>2021-08-03T18:16:39.073Z</time>
      </trkpt>
      <trkpt lat="42.94478416443" lon="0.2749478817">
        <ele>1099.68324449106</ele>
        <time>2021-08-03T18:16:42.414Z</time>
      </trkpt>
      <trkpt lat="42.94514902867" lon="0.27399301529">
        <ele>1099.57019621789</ele>
        <time>2021-08-03T18:16:45.768Z</time>
      </trkpt>
      <trkpt lat="42.94522404671" lon="0.2737569809">
        <ele>1099.66729580491</ele>
        <time>2021-08-03T18:16:49.125Z</time>
      </trkpt>
      <trkpt lat="42.94546016492" lon="0.2728664875">
        <ele>1099.93692953899</ele>
        <time>2021-08-03T18:16:52.493Z</time>
      </trkpt>
      <trkpt lat="42.9454600811" lon="0.2728664875">
        <ele>1099.82186055102</ele>
        <time>2021-08-03T18:16:55.861Z</time>
      </trkpt>
      <trkpt lat="42.94558882713" lon="0.27251243591">
        <ele>1099.82073647941</ele>
        <time>2021-08-03T18:16:59.233Z</time>
      </trkpt>
      <trkpt lat="42.94567465782" lon="0.27234077454">
        <ele>1099.41458404878</ele>
        <time>2021-08-03T18:17:02.608Z</time>
      </trkpt>
      <trkpt lat="42.94578194618" lon="0.272179842">
        <ele>1098.93952597784</ele>
        <time>2021-08-03T18:17:05.985Z</time>
      </trkpt>
      <trkpt lat="42.94588923454" lon="0.27208328247">
        <ele>1098.49685067448</ele>
        <time>2021-08-03T18:17:09.364Z</time>
      </trkpt>
      <trkpt lat="42.94615745544" lon="0.27189016342">
        <ele>1098.3926417454</ele>
        <time>2021-08-03T18:17:12.748Z</time>
      </trkpt>
      <trkpt lat="42.946382761" lon="0.27170777321">
        <ele>1098.09776671979</ele>
        <time>2021-08-03T18:17:16.136Z</time>
      </trkpt>
      <trkpt lat="42.94689774513" lon="0.27120351791">
        <ele>1096.99083529703</ele>
        <time>2021-08-03T18:17:19.535Z</time>
      </trkpt>
      <trkpt lat="42.94706949033" lon="0.27107477188">
        <ele>1096.50968399186</ele>
        <time>2021-08-03T18:17:22.937Z</time>
      </trkpt>
      <trkpt lat="42.94731616974" lon="0.27091383934">
        <ele>1095.87560561833</ele>
        <time>2021-08-03T18:17:26.343Z</time>
      </trkpt>
      <trkpt lat="42.94768095016" lon="0.27073144913">
        <ele>1094.86618725214</ele>
        <time>2021-08-03T18:17:29.755Z</time>
      </trkpt>
      <trkpt lat="42.94802427292" lon="0.27061343193">
        <ele>1093.74901066949</ele>
        <time>2021-08-03T18:17:33.173Z</time>
      </trkpt>
      <trkpt lat="42.94835686684" lon="0.27057051659">
        <ele>1092.51178332305</ele>
        <time>2021-08-03T18:17:36.596Z</time>
      </trkpt>
      <trkpt lat="42.9487323761" lon="0.27055978775">
        <ele>1091.34073344273</ele>
        <time>2021-08-03T18:17:40.025Z</time>
      </trkpt>
      <trkpt lat="42.9488825798" lon="0.27051687241">
        <ele>1090.13511587782</ele>
        <time>2021-08-03T18:17:43.457Z</time>
      </trkpt>
      <trkpt lat="42.94897913933" lon="0.27045249939">
        <ele>1088.86869130967</ele>
        <time>2021-08-03T18:17:46.891Z</time>
      </trkpt>
      <trkpt lat="42.94916152954" lon="0.27025938034">
        <ele>1087.62273814424</ele>
        <time>2021-08-03T18:17:50.328Z</time>
      </trkpt>
      <trkpt lat="42.94933327474" lon="0.26995897293">
        <ele>1086.16460918134</ele>
        <time>2021-08-03T18:17:53.770Z</time>
      </trkpt>
      <trkpt lat="42.94948339462" lon="0.26969075203">
        <ele>1084.68398289951</ele>
        <time>2021-08-03T18:17:57.216Z</time>
      </trkpt>
      <trkpt lat="42.94979453087" lon="0.26904702187">
        <ele>1083.29235800756</ele>
        <time>2021-08-03T18:18:00.671Z</time>
      </trkpt>
      <trkpt lat="42.94984817505" lon="0.26888608932">
        <ele>1081.78482451514</ele>
        <time>2021-08-03T18:18:04.128Z</time>
      </trkpt>
      <trkpt lat="42.94984817505" lon="0.26870369911">
        <ele>1080.34978119434</ele>
        <time>2021-08-03T18:18:07.587Z</time>
      </trkpt>
      <trkpt lat="42.94978380203" lon="0.26827454567">
        <ele>1078.9749946566</ele>
        <time>2021-08-03T18:18:11.051Z</time>
      </trkpt>
      <trkpt lat="42.94979453087" lon="0.26811361313">
        <ele>1077.33443934704</ele>
        <time>2021-08-03T18:18:14.517Z</time>
      </trkpt>
      <trkpt lat="42.94984817505" lon="0.26790976524">
        <ele>1075.59451307181</ele>
        <time>2021-08-03T18:18:17.986Z</time>
      </trkpt>
      <trkpt lat="42.94995546341" lon="0.26772737503">
        <ele>1073.77787215113</ele>
        <time>2021-08-03T18:18:21.457Z</time>
      </trkpt>
      <trkpt lat="42.95023441315" lon="0.26756644249">
        <ele>1072.01337857568</ele>
        <time>2021-08-03T18:18:24.933Z</time>
      </trkpt>
      <trkpt lat="42.9506957531" lon="0.26708364487">
        <ele>1069.96272577126</ele>
        <time>2021-08-03T18:18:28.418Z</time>
      </trkpt>
      <trkpt lat="42.9510819912" lon="0.26680469513">
        <ele>1068.16441899847</ele>
        <time>2021-08-03T18:18:31.910Z</time>
      </trkpt>
      <trkpt lat="42.95117855072" lon="0.2667081356">
        <ele>1066.3938947637</ele>
        <time>2021-08-03T18:18:35.404Z</time>
      </trkpt>
      <trkpt lat="42.95127511024" lon="0.26653647423">
        <ele>1064.36380245512</ele>
        <time>2021-08-03T18:18:38.901Z</time>
      </trkpt>
      <trkpt lat="42.95131810941" lon="0.26639699936">
        <ele>1062.12247875135</ele>
        <time>2021-08-03T18:18:42.400Z</time>
      </trkpt>
      <trkpt lat="42.95131802559" lon="0.26639699936">
        <ele>1060.08335956601</ele>
        <time>2021-08-03T18:18:45.899Z</time>
      </trkpt>
      <trkpt lat="42.9513502121" lon="0.26627898216">
        <ele>1057.82854559428</ele>
        <time>2021-08-03T18:18:49.399Z</time>
      </trkpt>
      <trkpt lat="42.95137166977" lon="0.26608586311">
        <ele>1055.82187613272</ele>
        <time>2021-08-03T18:18:52.901Z</time>
      </trkpt>
      <trkpt lat="42.95140385628" lon="0.2653670311">
        <ele>1053.33488454432</ele>
        <time>2021-08-03T18:18:56.412Z</time>
      </trkpt>
      <trkpt lat="42.95144677162" lon="0.26517391205">
        <ele>1051.15601764755</ele>
        <time>2021-08-03T18:18:59.925Z</time>
      </trkpt>
      <trkpt lat="42.95154333115" lon="0.26490569115">
        <ele>1048.81217548859</ele>
        <time>2021-08-03T18:19:03.442Z</time>
      </trkpt>
      <trkpt lat="42.95162916183" lon="0.26473402977">
        <ele>1046.44459251876</ele>
        <time>2021-08-03T18:19:06.961Z</time>
      </trkpt>
      <trkpt lat="42.95192956924" lon="0.26439070702">
        <ele>1044.07034472586</ele>
        <time>2021-08-03T18:19:10.486Z</time>
      </trkpt>
      <trkpt lat="42.95205831528" lon="0.2642083168">
        <ele>1041.82706755615</ele>
        <time>2021-08-03T18:19:14.014Z</time>
      </trkpt>
      <trkpt lat="42.95211195946" lon="0.26406884193">
        <ele>1039.4986012782</ele>
        <time>2021-08-03T18:19:17.544Z</time>
      </trkpt>
      <trkpt lat="42.95226224698" lon="0.2635538578">
        <ele>1036.90547503793</ele>
        <time>2021-08-03T18:19:21.081Z</time>
      </trkpt>
      <trkpt lat="42.95238018036" lon="0.26316761971">
        <ele>1034.29958380212</ele>
        <time>2021-08-03T18:19:24.623Z</time>
      </trkpt>
      <trkpt lat="42.95251965523" lon="0.26273846626">
        <ele>1031.74054663919</ele>
        <time>2021-08-03T18:19:28.170Z</time>
      </trkpt>
      <trkpt lat="42.95260556974" lon="0.26254534721">
        <ele>1029.34456062651</ele>
        <time>2021-08-03T18:19:31.720Z</time>
      </trkpt>
      <trkpt lat="42.95291662216" lon="0.2618265152">
        <ele>1026.89458014626</ele>
        <time>2021-08-03T18:19:35.280Z</time>
      </trkpt>
      <trkpt lat="42.95357108116" lon="0.26059269905">
        <ele>1024.34226525475</ele>
        <time>2021-08-03T18:19:38.858Z</time>
      </trkpt>
      <trkpt lat="42.95366764069" lon="0.26044249535">
        <ele>1022.04781651368</ele>
        <time>2021-08-03T18:19:42.438Z</time>
      </trkpt>
      <trkpt lat="42.95391440392" lon="0.2602493763">
        <ele>1019.8198402497</ele>
        <time>2021-08-03T18:19:46.022Z</time>
      </trkpt>
      <trkpt lat="42.95445084572" lon="0.2599811554">
        <ele>1017.32075926214</ele>
        <time>2021-08-03T18:19:49.616Z</time>
      </trkpt>
      <trkpt lat="42.95511603355" lon="0.25972366333">
        <ele>1014.9092568442</ele>
        <time>2021-08-03T18:19:53.221Z</time>
      </trkpt>
      <trkpt lat="42.95545935631" lon="0.25950908661">
        <ele>1012.73334100289</ele>
        <time>2021-08-03T18:19:56.832Z</time>
      </trkpt>
      <trkpt lat="42.95553454198" lon="0.25941252708">
        <ele>1010.61827378554</ele>
        <time>2021-08-03T18:20:00.444Z</time>
      </trkpt>
      <trkpt lat="42.95553445816" lon="0.25941252708">
        <ele>1008.53786003165</ele>
        <time>2021-08-03T18:20:04.056Z</time>
      </trkpt>
      <trkpt lat="42.95563101768" lon="0.25923013687">
        <ele>1006.45968521749</ele>
        <time>2021-08-03T18:20:07.671Z</time>
      </trkpt>
      <trkpt lat="42.9558134079" lon="0.25866150856">
        <ele>1004.32880292496</ele>
        <time>2021-08-03T18:20:11.293Z</time>
      </trkpt>
      <trkpt lat="42.95597434044" lon="0.25827527046">
        <ele>1002.29777691183</ele>
        <time>2021-08-03T18:20:14.921Z</time>
      </trkpt>
      <trkpt lat="42.95610308647" lon="0.2580499649">
        <ele>1000.3243336707</ele>
        <time>2021-08-03T18:20:18.552Z</time>
      </trkpt>
      <trkpt lat="42.95637130737" lon="0.25772809982">
        <ele>998.41081278613</ele>
        <time>2021-08-03T18:20:22.189Z</time>
      </trkpt>
      <trkpt lat="42.95674690045" lon="0.25737404823">
        <ele>996.41372808592</ele>
        <time>2021-08-03T18:20:25.833Z</time>
      </trkpt>
      <trkpt lat="42.95730479993" lon="0.25680541992">
        <ele>994.39771958459</ele>
        <time>2021-08-03T18:20:29.488Z</time>
      </trkpt>
      <trkpt lat="42.95757302083" lon="0.25649428368">
        <ele>992.36958163682</ele>
        <time>2021-08-03T18:20:33.149Z</time>
      </trkpt>
      <trkpt lat="42.95757293701" lon="0.25649428368">
        <ele>990.50582591724</ele>
        <time>2021-08-03T18:20:36.810Z</time>
      </trkpt>
      <trkpt lat="42.95795925893" lon="0.25599002838">
        <ele>988.88116468839</ele>
        <time>2021-08-03T18:20:40.479Z</time>
      </trkpt>
      <trkpt lat="42.95838832855" lon="0.25551795959">
        <ele>986.75511785024</ele>
        <time>2021-08-03T18:20:44.157Z</time>
      </trkpt>
      <trkpt lat="42.9588496685" lon="0.25504589081">
        <ele>985.06440399985</ele>
        <time>2021-08-03T18:20:47.844Z</time>
      </trkpt>
      <trkpt lat="42.95934327878" lon="0.25464892387">
        <ele>982.76147819572</ele>
        <time>2021-08-03T18:20:51.540Z</time>
      </trkpt>
      <trkpt lat="42.96002992429" lon="0.25388717651">
        <ele>980.79982997847</ele>
        <time>2021-08-03T18:20:55.251Z</time>
      </trkpt>
      <trkpt lat="42.96002984047" lon="0.25388717651">
        <ele>978.96661255601</ele>
        <time>2021-08-03T18:20:58.962Z</time>
      </trkpt>
      <trkpt lat="42.96040534973" lon="0.25332927704">
        <ele>977.3177666536</ele>
        <time>2021-08-03T18:21:02.682Z</time>
      </trkpt>
      <trkpt lat="42.96079167165" lon="0.2527821064">
        <ele>975.26599584552</ele>
        <time>2021-08-03T18:21:06.410Z</time>
      </trkpt>
      <trkpt lat="42.96079158783" lon="0.2527821064">
        <ele>973.43416917261</ele>
        <time>2021-08-03T18:21:10.138Z</time>
      </trkpt>
      <trkpt lat="42.96176791191" lon="0.25153756142">
        <ele>971.18352504505</ele>
        <time>2021-08-03T18:21:13.888Z</time>
      </trkpt>
      <trkpt lat="42.96190738678" lon="0.25133371353">
        <ele>969.33335683781</ele>
        <time>2021-08-03T18:21:17.641Z</time>
      </trkpt>
      <trkpt lat="42.96261548996" lon="0.25012135506">
        <ele>967.27078353819</ele>
        <time>2021-08-03T18:21:21.412Z</time>
      </trkpt>
      <trkpt lat="42.96291598119" lon="0.24942398071">
        <ele>965.35890337659</ele>
        <time>2021-08-03T18:21:25.193Z</time>
      </trkpt>
      <trkpt lat="42.96313047409" lon="0.24898409843">
        <ele>963.49854264144</ele>
        <time>2021-08-03T18:21:28.980Z</time>
      </trkpt>
      <trkpt lat="42.96338796616" lon="0.24857640266">
        <ele>961.59847638654</ele>
        <time>2021-08-03T18:21:32.773Z</time>
      </trkpt>
      <trkpt lat="42.96358108521" lon="0.24808287621">
        <ele>959.87730880115</ele>
        <time>2021-08-03T18:21:36.573Z</time>
      </trkpt>
      <trkpt lat="42.96384938993" lon="0.24762153625">
        <ele>957.93527509083</ele>
        <time>2021-08-03T18:21:40.380Z</time>
      </trkpt>
      <trkpt lat="42.96384930611" lon="0.24762153625">
        <ele>956.15460426385</ele>
        <time>2021-08-03T18:21:44.187Z</time>
      </trkpt>
      <trkpt lat="42.96406388283" lon="0.2471280098">
        <ele>954.37057323006</ele>
        <time>2021-08-03T18:21:48.001Z</time>
      </trkpt>
      <trkpt lat="42.96412825584" lon="0.24698853493">
        <ele>952.60675828079</ele>
        <time>2021-08-03T18:21:51.817Z</time>
      </trkpt>
      <trkpt lat="42.96482563019" lon="0.24616241455">
        <ele>950.59990050548</ele>
        <time>2021-08-03T18:21:55.647Z</time>
      </trkpt>
      <trkpt lat="42.96538352966" lon="0.24566888809">
        <ele>948.7592300231</ele>
        <time>2021-08-03T18:21:59.488Z</time>
      </trkpt>
      <trkpt lat="42.96603798866" lon="0.24518609047">
        <ele>946.93747508998</ele>
        <time>2021-08-03T18:22:03.341Z</time>
      </trkpt>
      <trkpt lat="42.96614527702" lon="0.24512171745">
        <ele>945.2159998909</ele>
        <time>2021-08-03T18:22:07.196Z</time>
      </trkpt>
      <trkpt lat="42.96637058258" lon="0.24505734444">
        <ele>943.46509258811</ele>
        <time>2021-08-03T18:22:11.054Z</time>
      </trkpt>
      <trkpt lat="42.96711095609" lon="0.24499297142">
        <ele>941.47893623371</ele>
        <time>2021-08-03T18:22:14.924Z</time>
      </trkpt>
      <trkpt lat="42.96711087227" lon="0.24499297142">
        <ele>939.77813790642</ele>
        <time>2021-08-03T18:22:18.794Z</time>
      </trkpt>
      <trkpt lat="42.96752929688" lon="0.24490714073">
        <ele>938.03002383378</ele>
        <time>2021-08-03T18:22:22.671Z</time>
      </trkpt>
      <trkpt lat="42.96776533127" lon="0.24482131004">
        <ele>936.35421248628</ele>
        <time>2021-08-03T18:22:26.552Z</time>
      </trkpt>
      <trkpt lat="42.96885967255" lon="0.24430632591">
        <ele>934.50401215953</ele>
        <time>2021-08-03T18:22:30.451Z</time>
      </trkpt>
      <trkpt lat="42.96914935112" lon="0.24420976639">
        <ele>932.90482768543</ele>
        <time>2021-08-03T18:22:34.355Z</time>
      </trkpt>
      <trkpt lat="42.96973952092" lon="0.24419903755">
        <ele>931.22821022625</ele>
        <time>2021-08-03T18:22:38.269Z</time>
      </trkpt>
      <trkpt lat="42.9697394371" lon="0.24419903755">
        <ele>929.62395712318</ele>
        <time>2021-08-03T18:22:42.183Z</time>
      </trkpt>
      <trkpt lat="42.96988964081" lon="0.24419903755">
        <ele>927.9843840959</ele>
        <time>2021-08-03T18:22:46.099Z</time>
      </trkpt>
      <trkpt lat="42.97035098076" lon="0.2441239357">
        <ele>926.38121850769</ele>
        <time>2021-08-03T18:22:50.023Z</time>
      </trkpt>
      <trkpt lat="42.97169208527" lon="0.24401664734">
        <ele>924.22951346412</ele>
        <time>2021-08-03T18:22:53.968Z</time>
      </trkpt>
      <trkpt lat="42.97181010246" lon="0.24398446083">
        <ele>922.7028438729</ele>
        <time>2021-08-03T18:22:57.915Z</time>
      </trkpt>
      <trkpt lat="42.97233581543" lon="0.24371623993">
        <ele>921.17807326773</ele>
        <time>2021-08-03T18:23:01.871Z</time>
      </trkpt>
      <trkpt lat="42.97275432386" lon="0.24359822273">
        <ele>919.7980187683</ele>
        <time>2021-08-03T18:23:05.834Z</time>
      </trkpt>
      <trkpt lat="42.97348388471" lon="0.24334073067">
        <ele>918.38862915814</ele>
        <time>2021-08-03T18:23:09.809Z</time>
      </trkpt>
      <trkpt lat="42.97384858131" lon="0.24323344231">
        <ele>916.94621473563</ele>
        <time>2021-08-03T18:23:13.790Z</time>
      </trkpt>
      <trkpt lat="42.97415971756" lon="0.24317979813">
        <ele>915.51675134081</ele>
        <time>2021-08-03T18:23:17.776Z</time>
      </trkpt>
      <trkpt lat="42.97491073608" lon="0.24317979813">
        <ele>913.96021704386</ele>
        <time>2021-08-03T18:23:21.774Z</time>
      </trkpt>
      <trkpt lat="42.97515758313" lon="0.24314761162">
        <ele>912.60449054314</ele>
        <time>2021-08-03T18:23:25.776Z</time>
      </trkpt>
      <trkpt lat="42.97515749931" lon="0.24314761162">
        <ele>911.36420359327</ele>
        <time>2021-08-03T18:23:29.778Z</time>
      </trkpt>
      <trkpt lat="42.97535061836" lon="0.2430832386">
        <ele>910.0716815598</ele>
        <time>2021-08-03T18:23:33.783Z</time>
      </trkpt>
      <trkpt lat="42.97559738159" lon="0.2429330349">
        <ele>908.83668946658</ele>
        <time>2021-08-03T18:23:37.792Z</time>
      </trkpt>
      <trkpt lat="42.97579050064" lon="0.24286866188">
        <ele>907.71358100212</ele>
        <time>2021-08-03T18:23:41.804Z</time>
      </trkpt>
      <trkpt lat="42.97588714398" lon="0.24285793304">
        <ele>906.56081374783</ele>
        <time>2021-08-03T18:23:45.818Z</time>
      </trkpt>
      <trkpt lat="42.97588706017" lon="0.24285793304">
        <ele>905.4622524803</ele>
        <time>2021-08-03T18:23:49.832Z</time>
      </trkpt>
      <trkpt lat="42.97610163689" lon="0.24282574654">
        <ele>904.36443840556</ele>
        <time>2021-08-03T18:23:53.849Z</time>
      </trkpt>
      <trkpt lat="42.97677755356" lon="0.24268627167">
        <ele>903.18931305052</ele>
        <time>2021-08-03T18:23:57.877Z</time>
      </trkpt>
      <trkpt lat="42.97717452049" lon="0.2425467968">
        <ele>902.21942399169</ele>
        <time>2021-08-03T18:24:01.912Z</time>
      </trkpt>
      <trkpt lat="42.9773784522" lon="0.24245023727">
        <ele>901.04286111839</ele>
        <time>2021-08-03T18:24:05.950Z</time>
      </trkpt>
      <trkpt lat="42.97751784325" lon="0.24236440659">
        <ele>899.90978534046</ele>
        <time>2021-08-03T18:24:09.991Z</time>
      </trkpt>
      <trkpt lat="42.97772169113" lon="0.24207472801">
        <ele>898.94563980822</ele>
        <time>2021-08-03T18:24:14.037Z</time>
      </trkpt>
      <trkpt lat="42.97834404744" lon="0.24039030075">
        <ele>898.09481689498</ele>
        <time>2021-08-03T18:24:18.105Z</time>
      </trkpt>
      <trkpt lat="42.9783976078" lon="0.24025082588">
        <ele>897.12711136575</ele>
        <time>2021-08-03T18:24:22.175Z</time>
      </trkpt>
      <trkpt lat="42.97850489616" lon="0.24008989334">
        <ele>896.23203422389</ele>
        <time>2021-08-03T18:24:26.247Z</time>
      </trkpt>
      <trkpt lat="42.97864437103" lon="0.23995041847">
        <ele>895.32199564989</ele>
        <time>2021-08-03T18:24:30.322Z</time>
      </trkpt>
      <trkpt lat="42.97882676125" lon="0.23982167244">
        <ele>894.06098027306</ele>
        <time>2021-08-03T18:24:34.400Z</time>
      </trkpt>
      <trkpt lat="42.97933101654" lon="0.23957490921">
        <ele>892.31769300877</ele>
        <time>2021-08-03T18:24:38.487Z</time>
      </trkpt>
      <trkpt lat="42.97944903374" lon="0.23946762085">
        <ele>891.20567639277</ele>
        <time>2021-08-03T18:24:42.576Z</time>
      </trkpt>
      <trkpt lat="42.97979244031" lon="0.23894190788">
        <ele>889.87518626144</ele>
        <time>2021-08-03T18:24:46.673Z</time>
      </trkpt>
      <trkpt lat="42.97979235649" lon="0.23894190788">
        <ele>888.69536704351</ele>
        <time>2021-08-03T18:24:50.770Z</time>
      </trkpt>
      <trkpt lat="42.97993191518" lon="0.23872733116">
        <ele>887.26034053435</ele>
        <time>2021-08-03T18:24:54.871Z</time>
      </trkpt>
      <trkpt lat="42.98016786575" lon="0.23836255074">
        <ele>886.12383050208</ele>
        <time>2021-08-03T18:24:58.977Z</time>
      </trkpt>
      <trkpt lat="42.98033961095" lon="0.23816943169">
        <ele>885.02631752708</ele>
        <time>2021-08-03T18:25:03.087Z</time>
      </trkpt>
      <trkpt lat="42.98127301969" lon="0.23709654808">
        <ele>883.93495282858</ele>
        <time>2021-08-03T18:25:07.216Z</time>
      </trkpt>
      <trkpt lat="42.98189520836" lon="0.23636698723">
        <ele>882.50653739716</ele>
        <time>2021-08-03T18:25:11.359Z</time>
      </trkpt>
      <trkpt lat="42.98219561577" lon="0.23586273193">
        <ele>881.21791125722</ele>
        <time>2021-08-03T18:25:15.509Z</time>
      </trkpt>
      <trkpt lat="42.98230290413" lon="0.2355837822">
        <ele>880.05082894573</ele>
        <time>2021-08-03T18:25:19.663Z</time>
      </trkpt>
      <trkpt lat="42.98243165016" lon="0.23494005203">
        <ele>879.01021212505</ele>
        <time>2021-08-03T18:25:23.825Z</time>
      </trkpt>
      <trkpt lat="42.98252829351" lon="0.23456454277">
        <ele>878.06212798321</ele>
        <time>2021-08-03T18:25:27.991Z</time>
      </trkpt>
      <trkpt lat="42.98253902234" lon="0.23453235626">
        <ele>877.11280816549</ele>
        <time>2021-08-03T18:25:32.158Z</time>
      </trkpt>
      <trkpt lat="42.98265695572" lon="0.23419976234">
        <ele>876.09333677211</ele>
        <time>2021-08-03T18:25:36.329Z</time>
      </trkpt>
      <trkpt lat="42.98275351524" lon="0.23397445679">
        <ele>875.19245167275</ele>
        <time>2021-08-03T18:25:40.503Z</time>
      </trkpt>
      <trkpt lat="42.98285007477" lon="0.23385643959">
        <ele>874.47085171869</ele>
        <time>2021-08-03T18:25:44.679Z</time>
      </trkpt>
      <trkpt lat="42.98287153244" lon="0.23372769356">
        <ele>873.88916865899</ele>
        <time>2021-08-03T18:25:48.857Z</time>
      </trkpt>
      <trkpt lat="42.98287161626" lon="0.23372769356">
        <ele>873.34356661747</ele>
        <time>2021-08-03T18:25:53.035Z</time>
      </trkpt>
      <trkpt lat="42.98292517662" lon="0.2336204052">
        <ele>872.92962586233</ele>
        <time>2021-08-03T18:25:57.214Z</time>
      </trkpt>
      <trkpt lat="42.98333287239" lon="0.23303031921">
        <ele>872.44263112503</ele>
        <time>2021-08-03T18:26:01.403Z</time>
      </trkpt>
      <trkpt lat="42.98338660039" lon="0.23289084435">
        <ele>872.16195083264</ele>
        <time>2021-08-03T18:26:05.594Z</time>
      </trkpt>
      <trkpt lat="42.98350453377" lon="0.23263335228">
        <ele>871.93376295601</ele>
        <time>2021-08-03T18:26:09.788Z</time>
      </trkpt>
      <trkpt lat="42.98356890678" lon="0.23241877556">
        <ele>871.86439958019</ele>
        <time>2021-08-03T18:26:13.985Z</time>
      </trkpt>
      <trkpt lat="42.98360109329" lon="0.23220419884">
        <ele>871.94917948322</ele>
        <time>2021-08-03T18:26:18.185Z</time>
      </trkpt>
      <trkpt lat="42.98359036446" lon="0.23151755333">
        <ele>872.09119312559</ele>
        <time>2021-08-03T18:26:22.393Z</time>
      </trkpt>
      <trkpt lat="42.98361182213" lon="0.23136734962">
        <ele>872.37732085851</ele>
        <time>2021-08-03T18:26:26.603Z</time>
      </trkpt>
      <trkpt lat="42.98353680409" lon="0.23108839989">
        <ele>872.79084445105</ele>
        <time>2021-08-03T18:26:30.816Z</time>
      </trkpt>
      <trkpt lat="42.9833650589" lon="0.23048758507">
        <ele>873.20553404157</ele>
        <time>2021-08-03T18:26:35.037Z</time>
      </trkpt>
      <trkpt lat="42.98333295621" lon="0.2304983139">
        <ele>873.93314714101</ele>
        <time>2021-08-03T18:26:39.258Z</time>
      </trkpt>
      <trkpt lat="42.98333287239" lon="0.2304983139">
        <ele>874.75924799261</ele>
        <time>2021-08-03T18:26:43.479Z</time>
      </trkpt>
      <trkpt lat="42.9828286171" lon="0.23056268692">
        <ele>875.94257005943</ele>
        <time>2021-08-03T18:26:47.708Z</time>
      </trkpt>
      <trkpt lat="42.98223853111" lon="0.2306163311">
        <ele>877.20525029653</ele>
        <time>2021-08-03T18:26:51.947Z</time>
      </trkpt>
      <trkpt lat="42.98180937767" lon="0.23078799248">
        <ele>878.55535625339</ele>
        <time>2021-08-03T18:26:56.193Z</time>
      </trkpt>
      <trkpt lat="42.98077940941" lon="0.23107767105">
        <ele>879.95286809671</ele>
        <time>2021-08-03T18:27:00.456Z</time>
      </trkpt>
      <trkpt lat="42.98042544164" lon="0.23135662079">
        <ele>881.36592039929</ele>
        <time>2021-08-03T18:27:04.725Z</time>
      </trkpt>
      <trkpt lat="42.98031806946" lon="0.23144245148">
        <ele>882.76641790444</ele>
        <time>2021-08-03T18:27:08.996Z</time>
      </trkpt>
      <trkpt lat="42.97913798131" lon="0.23187160492">
        <ele>884.43565976256</ele>
        <time>2021-08-03T18:27:13.287Z</time>
      </trkpt>
      <trkpt lat="42.97913789749" lon="0.23187160492">
        <ele>885.86507015792</ele>
        <time>2021-08-03T18:27:17.578Z</time>
      </trkpt>
      <trkpt lat="42.97840842046" lon="0.23210763931">
        <ele>887.37345634412</ele>
        <time>2021-08-03T18:27:21.881Z</time>
      </trkpt>
      <trkpt lat="42.97786124982" lon="0.23227930069">
        <ele>889.02312867411</ele>
        <time>2021-08-03T18:27:26.193Z</time>
      </trkpt>
      <trkpt lat="42.9773784522" lon="0.23241877556">
        <ele>890.53015031208</ele>
        <time>2021-08-03T18:27:30.513Z</time>
      </trkpt>
      <trkpt lat="42.97728189267" lon="0.23247241974">
        <ele>892.04218210708</ele>
        <time>2021-08-03T18:27:34.834Z</time>
      </trkpt>
      <trkpt lat="42.97708877362" lon="0.23255825043">
        <ele>893.54256032668</ele>
        <time>2021-08-03T18:27:39.159Z</time>
      </trkpt>
      <trkpt lat="42.97706731595" lon="0.23256897926">
        <ele>895.00088759905</ele>
        <time>2021-08-03T18:27:43.484Z</time>
      </trkpt>
      <trkpt lat="42.97647722997" lon="0.23290157318">
        <ele>896.43912340723</ele>
        <time>2021-08-03T18:27:47.819Z</time>
      </trkpt>
      <trkpt lat="42.97573694028" lon="0.23327708244">
        <ele>898.01682455403</ele>
        <time>2021-08-03T18:27:52.167Z</time>
      </trkpt>
      <trkpt lat="42.97573685646" lon="0.23327708244">
        <ele>899.40479209437</ele>
        <time>2021-08-03T18:27:56.515Z</time>
      </trkpt>
      <trkpt lat="42.97498592176" lon="0.23369550705">
        <ele>901.01421963303</ele>
        <time>2021-08-03T18:28:00.876Z</time>
      </trkpt>
      <trkpt lat="42.97498583794" lon="0.23369550705">
        <ele>902.33140236918</ele>
        <time>2021-08-03T18:28:05.237Z</time>
      </trkpt>
      <trkpt lat="42.97455668449" lon="0.23398518562">
        <ele>903.86077509112</ele>
        <time>2021-08-03T18:28:09.605Z</time>
      </trkpt>
      <trkpt lat="42.97409534454" lon="0.23406028748">
        <ele>905.02842658992</ele>
        <time>2021-08-03T18:28:13.981Z</time>
      </trkpt>
      <trkpt lat="42.97373064794" lon="0.23409247398">
        <ele>906.1071946563</ele>
        <time>2021-08-03T18:28:18.363Z</time>
      </trkpt>
      <trkpt lat="42.97373056412" lon="0.23409247398">
        <ele>907.26259531768</ele>
        <time>2021-08-03T18:28:22.745Z</time>
      </trkpt>
      <trkpt lat="42.97358036041" lon="0.23411393166">
        <ele>908.33087356659</ele>
        <time>2021-08-03T18:28:27.129Z</time>
      </trkpt>
      <trkpt lat="42.97343015671" lon="0.23429632187">
        <ele>909.45013650482</ele>
        <time>2021-08-03T18:28:31.516Z</time>
      </trkpt>
      <trkpt lat="42.97300100327" lon="0.23463964462">
        <ele>910.56051048841</ele>
        <time>2021-08-03T18:28:35.911Z</time>
      </trkpt>
      <trkpt lat="42.97288306989" lon="0.23439288139">
        <ele>911.45200939329</ele>
        <time>2021-08-03T18:28:40.310Z</time>
      </trkpt>
      <trkpt lat="42.97264703549" lon="0.23387789726">
        <ele>912.20043631739</ele>
        <time>2021-08-03T18:28:44.716Z</time>
      </trkpt>
      <trkpt lat="42.97258257866" lon="0.23369550705">
        <ele>913.15026288307</ele>
        <time>2021-08-03T18:28:49.124Z</time>
      </trkpt>
      <trkpt lat="42.97258266248" lon="0.23369550705">
        <ele>914.13973410586</ele>
        <time>2021-08-03T18:28:53.532Z</time>
      </trkpt>
      <trkpt lat="42.97252893448" lon="0.23363113403">
        <ele>915.13691043978</ele>
        <time>2021-08-03T18:28:57.941Z</time>
      </trkpt>
      <trkpt lat="42.97233581543" lon="0.23356676102">
        <ele>916.16150346562</ele>
        <time>2021-08-03T18:29:02.354Z</time>
      </trkpt>
      <trkpt lat="42.97219634056" lon="0.23339509964">
        <ele>917.17860683662</ele>
        <time>2021-08-03T18:29:06.770Z</time>
      </trkpt>
      <trkpt lat="42.97145613469" lon="0.2312707901">
        <ele>918.70189181055</ele>
        <time>2021-08-03T18:29:11.213Z</time>
      </trkpt>
      <trkpt lat="42.97130593099" lon="0.23078799248">
        <ele>919.78860174709</ele>
        <time>2021-08-03T18:29:15.662Z</time>
      </trkpt>
      <trkpt lat="42.97130584717" lon="0.23078799248">
        <ele>920.75287841949</ele>
        <time>2021-08-03T18:29:20.111Z</time>
      </trkpt>
      <trkpt lat="42.97088750638" lon="0.23107767105">
        <ele>921.77534708153</ele>
        <time>2021-08-03T18:29:24.568Z</time>
      </trkpt>
      <trkpt lat="42.97073721886" lon="0.23114204407">
        <ele>922.75593878065</ele>
        <time>2021-08-03T18:29:29.027Z</time>
      </trkpt>
      <trkpt lat="42.9706299305" lon="0.2311527729">
        <ele>923.70469479255</ele>
        <time>2021-08-03T18:29:33.488Z</time>
      </trkpt>
      <trkpt lat="42.9702436924" lon="0.23113131523">
        <ele>924.68665393976</ele>
        <time>2021-08-03T18:29:37.955Z</time>
      </trkpt>
      <trkpt lat="42.97011503018" lon="0.23109912872">
        <ele>925.63739669015</ele>
        <time>2021-08-03T18:29:42.424Z</time>
      </trkpt>
      <trkpt lat="42.96946048737" lon="0.23089528084">
        <ele>926.74221886073</ele>
        <time>2021-08-03T18:29:46.904Z</time>
      </trkpt>
      <trkpt lat="42.96936401166" lon="0.23084163666">
        <ele>927.68680337391</ele>
        <time>2021-08-03T18:29:51.386Z</time>
      </trkpt>
      <trkpt lat="42.96883829869" lon="0.23051977158">
        <ele>928.73209076335</ele>
        <time>2021-08-03T18:29:55.877Z</time>
      </trkpt>
      <trkpt lat="42.96869874001" lon="0.23043394089">
        <ele>929.6727286853</ele>
        <time>2021-08-03T18:30:00.370Z</time>
      </trkpt>
      <trkpt lat="42.96845197678" lon="0.23032665253">
        <ele>930.69253766944</ele>
        <time>2021-08-03T18:30:04.868Z</time>
      </trkpt>
      <trkpt lat="42.9675078392" lon="0.23017644882">
        <ele>931.57573730139</ele>
        <time>2021-08-03T18:30:09.381Z</time>
      </trkpt>
      <trkpt lat="42.96725034714" lon="0.23021936417">
        <ele>932.38263076668</ele>
        <time>2021-08-03T18:30:13.898Z</time>
      </trkpt>
      <trkpt lat="42.96654224396" lon="0.23043394089">
        <ele>933.11156772406</ele>
        <time>2021-08-03T18:30:18.427Z</time>
      </trkpt>
      <trkpt lat="42.96634920873" lon="0.23044466972">
        <ele>933.96439117538</ele>
        <time>2021-08-03T18:30:22.959Z</time>
      </trkpt>
      <trkpt lat="42.96601661481" lon="0.23043394089">
        <ele>934.84891875365</ele>
        <time>2021-08-03T18:30:27.496Z</time>
      </trkpt>
      <trkpt lat="42.9650617484" lon="0.2303481102">
        <ele>935.69470527719</ele>
        <time>2021-08-03T18:30:32.048Z</time>
      </trkpt>
      <trkpt lat="42.9649437312" lon="0.23032665253">
        <ele>936.54006628798</ele>
        <time>2021-08-03T18:30:36.602Z</time>
      </trkpt>
      <trkpt lat="42.96465396881" lon="0.23030519485">
        <ele>937.41534962939</ele>
        <time>2021-08-03T18:30:41.161Z</time>
      </trkpt>
      <trkpt lat="42.96314120293" lon="0.23033738136">
        <ele>938.43288504253</ele>
        <time>2021-08-03T18:30:45.744Z</time>
      </trkpt>
      <trkpt lat="42.96278723516" lon="0.23040175438">
        <ele>939.33539936333</ele>
        <time>2021-08-03T18:30:50.333Z</time>
      </trkpt>
      <trkpt lat="42.96278715134" lon="0.23040175438">
        <ele>940.25480868305</ele>
        <time>2021-08-03T18:30:54.922Z</time>
      </trkpt>
      <trkpt lat="42.96261548996" lon="0.23042321205">
        <ele>941.19858827343</ele>
        <time>2021-08-03T18:30:59.513Z</time>
      </trkpt>
      <trkpt lat="42.96244382858" lon="0.23040175438">
        <ele>942.18814420572</ele>
        <time>2021-08-03T18:31:04.107Z</time>
      </trkpt>
      <trkpt lat="42.96215415001" lon="0.23032665253">
        <ele>943.27361268203</ele>
        <time>2021-08-03T18:31:08.706Z</time>
      </trkpt>
      <trkpt lat="42.96148896217" lon="0.23028373718">
        <ele>944.43029510115</ele>
        <time>2021-08-03T18:31:13.316Z</time>
      </trkpt>
      <trkpt lat="42.96104916371" lon="0.23021936417">
        <ele>945.46238507398</ele>
        <time>2021-08-03T18:31:17.933Z</time>
      </trkpt>
      <trkpt lat="42.9610490799" lon="0.23021936417">
        <ele>946.4778098469</ele>
        <time>2021-08-03T18:31:22.550Z</time>
      </trkpt>
      <trkpt lat="42.96036243439" lon="0.23011207581">
        <ele>947.6751882848</ele>
        <time>2021-08-03T18:31:27.178Z</time>
      </trkpt>
      <trkpt lat="42.96025514603" lon="0.2300798893">
        <ele>948.75791051078</ele>
        <time>2021-08-03T18:31:31.808Z</time>
      </trkpt>
      <trkpt lat="42.95998692513" lon="0.22989749908">
        <ele>949.90513495848</ele>
        <time>2021-08-03T18:31:36.442Z</time>
      </trkpt>
      <trkpt lat="42.95938619412" lon="0.22940397263">
        <ele>951.04385852117</ele>
        <time>2021-08-03T18:31:41.088Z</time>
      </trkpt>
      <trkpt lat="42.95938611031" lon="0.22940397263">
        <ele>952.10449080392</ele>
        <time>2021-08-03T18:31:45.734Z</time>
      </trkpt>
      <trkpt lat="42.95918234624" lon="0.22922158241">
        <ele>953.21106957233</ele>
        <time>2021-08-03T18:31:50.383Z</time>
      </trkpt>
      <trkpt lat="42.95889258385" lon="0.22896409035">
        <ele>954.32722830219</ele>
        <time>2021-08-03T18:31:55.038Z</time>
      </trkpt>
      <trkpt lat="42.95867809094" lon="0.22883534431">
        <ele>955.40769340577</ele>
        <time>2021-08-03T18:31:59.697Z</time>
      </trkpt>
      <trkpt lat="42.95867800713" lon="0.22883534431">
        <ele>956.48097389106</ele>
        <time>2021-08-03T18:32:04.356Z</time>
      </trkpt>
      <trkpt lat="42.95847415924" lon="0.22872805595">
        <ele>957.60828569483</ele>
        <time>2021-08-03T18:32:09.018Z</time>
      </trkpt>
      <trkpt lat="42.95791625977" lon="0.22868514061">
        <ele>958.78274239973</ele>
        <time>2021-08-03T18:32:13.689Z</time>
      </trkpt>
      <trkpt lat="42.95775532722" lon="0.2286529541">
        <ele>959.91695422372</ele>
        <time>2021-08-03T18:32:18.363Z</time>
      </trkpt>
      <trkpt lat="42.95751937665" lon="0.22851347923">
        <ele>961.1063031855</ele>
        <time>2021-08-03T18:32:23.041Z</time>
      </trkpt>
      <trkpt lat="42.95722969808" lon="0.2283847332">
        <ele>962.20202589774</ele>
        <time>2021-08-03T18:32:27.724Z</time>
      </trkpt>
      <trkpt lat="42.95695074834" lon="0.22827744484">
        <ele>963.32468081504</ele>
        <time>2021-08-03T18:32:32.411Z</time>
      </trkpt>
      <trkpt lat="42.95695066452" lon="0.22827744484">
        <ele>964.38193928183</ele>
        <time>2021-08-03T18:32:37.098Z</time>
      </trkpt>
      <trkpt lat="42.9560173396" lon="0.22789120674">
        <ele>965.79680128111</ele>
        <time>2021-08-03T18:32:41.801Z</time>
      </trkpt>
      <trkpt lat="42.95601725578" lon="0.22789120674">
        <ele>966.84081035483</ele>
        <time>2021-08-03T18:32:46.504Z</time>
      </trkpt>
      <trkpt lat="42.95585632324" lon="0.22786974907">
        <ele>967.90814871993</ele>
        <time>2021-08-03T18:32:51.210Z</time>
      </trkpt>
      <trkpt lat="42.95557745732" lon="0.22791266441">
        <ele>968.92538285158</ele>
        <time>2021-08-03T18:32:55.920Z</time>
      </trkpt>
      <trkpt lat="42.9555773735" lon="0.22791266441">
        <ele>969.95199970707</ele>
        <time>2021-08-03T18:33:00.630Z</time>
      </trkpt>
      <trkpt lat="42.95549162664" lon="0.22793412209">
        <ele>970.97358020613</ele>
        <time>2021-08-03T18:33:05.341Z</time>
      </trkpt>
      <trkpt lat="42.95549154282" lon="0.22793412209">
        <ele>971.99960524851</ele>
        <time>2021-08-03T18:33:10.052Z</time>
      </trkpt>
      <trkpt lat="42.95513757505" lon="0.22795557976">
        <ele>973.02617217356</ele>
        <time>2021-08-03T18:33:14.769Z</time>
      </trkpt>
      <trkpt lat="42.95442938805" lon="0.22794485092">
        <ele>974.23355159567</ele>
        <time>2021-08-03T18:33:19.497Z</time>
      </trkpt>
      <trkpt lat="42.95409687795" lon="0.22792339325">
        <ele>975.35244774086</ele>
        <time>2021-08-03T18:33:24.231Z</time>
      </trkpt>
      <trkpt lat="42.95391440392" lon="0.22791266441">
        <ele>976.43904283966</ele>
        <time>2021-08-03T18:33:28.968Z</time>
      </trkpt>
      <trkpt lat="42.95378565788" lon="0.22788047791">
        <ele>977.53305265052</ele>
        <time>2021-08-03T18:33:33.707Z</time>
      </trkpt>
      <trkpt lat="42.95250892639" lon="0.22729039192">
        <ele>978.66921495518</ele>
        <time>2021-08-03T18:33:38.467Z</time>
      </trkpt>
      <trkpt lat="42.95228362083" lon="0.22716164589">
        <ele>979.82173931158</ele>
        <time>2021-08-03T18:33:43.231Z</time>
      </trkpt>
      <trkpt lat="42.951672161" lon="0.22664666176">
        <ele>981.07491029999</ele>
        <time>2021-08-03T18:33:48.007Z</time>
      </trkpt>
      <trkpt lat="42.95167207718" lon="0.22664666176">
        <ele>982.24038601182</ele>
        <time>2021-08-03T18:33:52.783Z</time>
      </trkpt>
      <trkpt lat="42.95132883824" lon="0.22636771202">
        <ele>983.51458500421</ele>
        <time>2021-08-03T18:33:57.565Z</time>
      </trkpt>
      <trkpt lat="42.95104988851" lon="0.22617459297">
        <ele>984.82085027117</ele>
        <time>2021-08-03T18:34:02.352Z</time>
      </trkpt>
      <trkpt lat="42.95059927739" lon="0.22594928741">
        <ele>986.24821984516</ele>
        <time>2021-08-03T18:34:07.147Z</time>
      </trkpt>
      <trkpt lat="42.95059919357" lon="0.22594928741">
        <ele>987.5624358769</ele>
        <time>2021-08-03T18:34:11.942Z</time>
      </trkpt>
      <trkpt lat="42.95013785362" lon="0.22568106651">
        <ele>989.10922602205</ele>
        <time>2021-08-03T18:34:16.745Z</time>
      </trkpt>
      <trkpt lat="42.94993400574" lon="0.22558450699">
        <ele>990.56844400814</ele>
        <time>2021-08-03T18:34:21.551Z</time>
      </trkpt>
      <trkpt lat="42.94954776764" lon="0.22552013397">
        <ele>992.05697683548</ele>
        <time>2021-08-03T18:34:26.364Z</time>
      </trkpt>
      <trkpt lat="42.94935464859" lon="0.2253806591">
        <ele>993.63787993235</ele>
        <time>2021-08-03T18:34:31.180Z</time>
      </trkpt>
      <trkpt lat="42.94920444489" lon="0.22518754005">
        <ele>995.3066901676</ele>
        <time>2021-08-03T18:34:35.999Z</time>
      </trkpt>
      <trkpt lat="42.94910788536" lon="0.22504806519">
        <ele>997.01207914439</ele>
        <time>2021-08-03T18:34:40.821Z</time>
      </trkpt>
      <trkpt lat="42.94892549515" lon="0.22462964058">
        <ele>998.91371789758</ele>
        <time>2021-08-03T18:34:45.648Z</time>
      </trkpt>
      <trkpt lat="42.94871091843" lon="0.22450089455">
        <ele>1000.74285360049</ele>
        <time>2021-08-03T18:34:50.479Z</time>
      </trkpt>
      <trkpt lat="42.94831395149" lon="0.22438287735">
        <ele>1002.63397493661</ele>
        <time>2021-08-03T18:34:55.317Z</time>
      </trkpt>
      <trkpt lat="42.94759511948" lon="0.22391080856">
        <ele>1004.75933598344</ele>
        <time>2021-08-03T18:35:00.167Z</time>
      </trkpt>
      <trkpt lat="42.94731616974" lon="0.22362112999">
        <ele>1006.83239807508</ele>
        <time>2021-08-03T18:35:05.023Z</time>
      </trkpt>
      <trkpt lat="42.94709086418" lon="0.22330999374">
        <ele>1009.00621299493</ele>
        <time>2021-08-03T18:35:09.884Z</time>
      </trkpt>
      <trkpt lat="42.94692993164" lon="0.22302031517">
        <ele>1011.28638478579</ele>
        <time>2021-08-03T18:35:14.749Z</time>
      </trkpt>
      <trkpt lat="42.94679045677" lon="0.22259116173">
        <ele>1013.73813434921</ele>
        <time>2021-08-03T18:35:19.620Z</time>
      </trkpt>
      <trkpt lat="42.94668325223" lon="0.22216200829">
        <ele>1016.30528600766</ele>
        <time>2021-08-03T18:35:24.496Z</time>
      </trkpt>
      <trkpt lat="42.94668316841" lon="0.22216200829">
        <ele>1018.81041922342</ele>
        <time>2021-08-03T18:35:29.372Z</time>
      </trkpt>
      <trkpt lat="42.94664033689" lon="0.22192597389">
        <ele>1021.53579920731</ele>
        <time>2021-08-03T18:35:34.251Z</time>
      </trkpt>
      <trkpt lat="42.94656515121" lon="0.2216899395">
        <ele>1024.36992640644</ele>
        <time>2021-08-03T18:35:39.133Z</time>
      </trkpt>
      <trkpt lat="42.94641494751" lon="0.22145390511">
        <ele>1027.305996316</ele>
        <time>2021-08-03T18:35:44.019Z</time>
      </trkpt>
      <trkpt lat="42.9462647438" lon="0.22135734558">
        <ele>1030.28045070205</ele>
        <time>2021-08-03T18:35:48.907Z</time>
      </trkpt>
      <trkpt lat="42.94606089592" lon="0.22131443024">
        <ele>1033.33449468441</ele>
        <time>2021-08-03T18:35:53.799Z</time>
      </trkpt>
      <trkpt lat="42.94595360756" lon="0.22127151489">
        <ele>1036.51672141455</ele>
        <time>2021-08-03T18:35:58.693Z</time>
      </trkpt>
      <trkpt lat="42.94586777687" lon="0.22121787071">
        <ele>1039.81328947076</ele>
        <time>2021-08-03T18:36:03.588Z</time>
      </trkpt>
      <trkpt lat="42.94571757317" lon="0.22107839584">
        <ele>1043.23459262117</ele>
        <time>2021-08-03T18:36:08.486Z</time>
      </trkpt>
      <trkpt lat="42.94563174248" lon="0.22094964981">
        <ele>1046.79439839474</ele>
        <time>2021-08-03T18:36:13.386Z</time>
      </trkpt>
      <trkpt lat="42.94525623322" lon="0.22028446198">
        <ele>1050.73152777578</ele>
        <time>2021-08-03T18:36:18.296Z</time>
      </trkpt>
      <trkpt lat="42.94510602951" lon="0.22009134293">
        <ele>1054.54522439039</ele>
        <time>2021-08-03T18:36:23.209Z</time>
      </trkpt>
      <trkpt lat="42.94458031654" lon="0.21968364716">
        <ele>1058.24001164843</ele>
        <time>2021-08-03T18:36:28.132Z</time>
      </trkpt>
      <trkpt lat="42.94435501099" lon="0.2194583416">
        <ele>1062.2651813516</ele>
        <time>2021-08-03T18:36:33.059Z</time>
      </trkpt>
      <trkpt lat="42.94282078743" lon="0.21755933762">
        <ele>1067.14204035048</ele>
        <time>2021-08-03T18:36:38.019Z</time>
      </trkpt>
      <trkpt lat="42.94241309166" lon="0.21690487862">
        <ele>1071.47615854556</ele>
        <time>2021-08-03T18:36:42.990Z</time>
      </trkpt>
      <trkpt lat="42.94224143028" lon="0.21659374237">
        <ele>1075.76427159374</ele>
        <time>2021-08-03T18:36:47.965Z</time>
      </trkpt>
      <trkpt lat="42.94216632843" lon="0.21646499634">
        <ele>1079.94839333723</ele>
        <time>2021-08-03T18:36:52.942Z</time>
      </trkpt>
      <trkpt lat="42.94200539589" lon="0.21634697914">
        <ele>1083.9477894113</ele>
        <time>2021-08-03T18:36:57.922Z</time>
      </trkpt>
      <trkpt lat="42.94184446335" lon="0.21617531776">
        <ele>1088.04880962006</ele>
        <time>2021-08-03T18:37:02.905Z</time>
      </trkpt>
      <trkpt lat="42.94156551361" lon="0.21533846855">
        <ele>1093.09611977575</ele>
        <time>2021-08-03T18:37:07.899Z</time>
      </trkpt>
      <trkpt lat="42.94141530991" lon="0.21498441696">
        <ele>1097.38927791486</ele>
        <time>2021-08-03T18:37:12.898Z</time>
      </trkpt>
      <trkpt lat="42.94125437737" lon="0.21473765373">
        <ele>1101.46540972763</ele>
        <time>2021-08-03T18:37:17.901Z</time>
      </trkpt>
      <trkpt lat="42.94027805328" lon="0.2135682106">
        <ele>1105.59136951154</ele>
        <time>2021-08-03T18:37:22.925Z</time>
      </trkpt>
      <trkpt lat="42.93973088264" lon="0.21319270134">
        <ele>1109.58181394041</ele>
        <time>2021-08-03T18:37:27.958Z</time>
      </trkpt>
      <trkpt lat="42.93934464455" lon="0.21279573441">
        <ele>1113.72749947525</ele>
        <time>2021-08-03T18:37:32.999Z</time>
      </trkpt>
      <trkpt lat="42.93835759163" lon="0.21128296852">
        <ele>1118.03085813318</ele>
        <time>2021-08-03T18:37:38.064Z</time>
      </trkpt>
      <trkpt lat="42.93808937073" lon="0.21090745926">
        <ele>1121.83727711232</ele>
        <time>2021-08-03T18:37:43.135Z</time>
      </trkpt>
      <trkpt lat="42.93755292892" lon="0.21024227142">
        <ele>1125.65046500571</ele>
        <time>2021-08-03T18:37:48.218Z</time>
      </trkpt>
      <trkpt lat="42.93728470802" lon="0.20979166031">
        <ele>1129.37634683207</ele>
        <time>2021-08-03T18:37:53.307Z</time>
      </trkpt>
      <trkpt lat="42.93716669083" lon="0.20963072777">
        <ele>1132.66391852208</ele>
        <time>2021-08-03T18:37:58.399Z</time>
      </trkpt>
      <trkpt lat="42.93700575829" lon="0.20951271057">
        <ele>1135.60085451006</ele>
        <time>2021-08-03T18:38:03.494Z</time>
      </trkpt>
      <trkpt lat="42.93670535088" lon="0.20933032036">
        <ele>1138.27148131728</ele>
        <time>2021-08-03T18:38:08.594Z</time>
      </trkpt>
      <trkpt lat="42.93656595983" lon="0.20920157433">
        <ele>1141.11291440726</ele>
        <time>2021-08-03T18:38:13.697Z</time>
      </trkpt>
      <trkpt lat="42.93656587601" lon="0.20920157433">
        <ele>1143.73320898229</ele>
        <time>2021-08-03T18:38:18.800Z</time>
      </trkpt>
      <trkpt lat="42.93654441833" lon="0.20907282829">
        <ele>1146.4041637388</ele>
        <time>2021-08-03T18:38:23.905Z</time>
      </trkpt>
      <trkpt lat="42.9365336895" lon="0.2088367939">
        <ele>1149.1248731334</ele>
        <time>2021-08-03T18:38:29.012Z</time>
      </trkpt>
      <trkpt lat="42.93651223183" lon="0.20870804787">
        <ele>1151.59491593708</ele>
        <time>2021-08-03T18:38:34.121Z</time>
      </trkpt>
      <trkpt lat="42.93645858765" lon="0.20860075951">
        <ele>1153.91530159207</ele>
        <time>2021-08-03T18:38:39.231Z</time>
      </trkpt>
      <trkpt lat="42.93640494347" lon="0.20857930183">
        <ele>1155.97009863592</ele>
        <time>2021-08-03T18:38:44.342Z</time>
      </trkpt>
      <trkpt lat="42.93634057045" lon="0.20859003067">
        <ele>1157.87255548115</ele>
        <time>2021-08-03T18:38:49.454Z</time>
      </trkpt>
      <trkpt lat="42.93611526489" lon="0.20875096321">
        <ele>1159.28642903789</ele>
        <time>2021-08-03T18:38:54.570Z</time>
      </trkpt>
      <trkpt lat="42.93605089188" lon="0.20878314972">
        <ele>1161.04237648273</ele>
        <time>2021-08-03T18:38:59.688Z</time>
      </trkpt>
      <trkpt lat="42.9359972477" lon="0.20878314972">
        <ele>1162.84856890793</ele>
        <time>2021-08-03T18:39:04.806Z</time>
      </trkpt>
      <trkpt lat="42.93593287468" lon="0.20875096321">
        <ele>1164.70581436726</ele>
        <time>2021-08-03T18:39:09.925Z</time>
      </trkpt>
      <trkpt lat="42.93569684029" lon="0.20847201347">
        <ele>1166.85468967341</ele>
        <time>2021-08-03T18:39:15.049Z</time>
      </trkpt>
      <trkpt lat="42.93563246727" lon="0.20840764046">
        <ele>1168.78930515975</ele>
        <time>2021-08-03T18:39:20.175Z</time>
      </trkpt>
      <trkpt lat="42.9353749752" lon="0.20831108093">
        <ele>1170.62282444267</ele>
        <time>2021-08-03T18:39:25.305Z</time>
      </trkpt>
      <trkpt lat="42.93513894081" lon="0.20819306374">
        <ele>1172.59708637198</ele>
        <time>2021-08-03T18:39:30.439Z</time>
      </trkpt>
      <trkpt lat="42.93505311012" lon="0.20809650421">
        <ele>1174.72411173934</ele>
        <time>2021-08-03T18:39:35.575Z</time>
      </trkpt>
      <trkpt lat="42.93498873711" lon="0.20796775818">
        <ele>1176.99109143117</ele>
        <time>2021-08-03T18:39:40.713Z</time>
      </trkpt>
      <trkpt lat="42.93481707573" lon="0.20753860474">
        <ele>1179.50943034926</ele>
        <time>2021-08-03T18:39:45.856Z</time>
      </trkpt>
      <trkpt lat="42.9347205162" lon="0.20739912987">
        <ele>1181.85458136131</ele>
        <time>2021-08-03T18:39:51.002Z</time>
      </trkpt>
      <trkpt lat="42.93429136276" lon="0.20691633224">
        <ele>1184.27150071141</ele>
        <time>2021-08-03T18:39:56.157Z</time>
      </trkpt>
      <trkpt lat="42.93410897255" lon="0.20668029785">
        <ele>1186.91322614744</ele>
        <time>2021-08-03T18:40:01.316Z</time>
      </trkpt>
      <trkpt lat="42.93389439583" lon="0.20617604256">
        <ele>1190.02927122868</ele>
        <time>2021-08-03T18:40:06.481Z</time>
      </trkpt>
      <trkpt lat="42.93377637863" lon="0.20601511002">
        <ele>1192.78416078293</ele>
        <time>2021-08-03T18:40:11.649Z</time>
      </trkpt>
      <trkpt lat="42.93361544609" lon="0.2058327198">
        <ele>1195.6207387033</ele>
        <time>2021-08-03T18:40:16.820Z</time>
      </trkpt>
      <trkpt lat="42.9334653262" lon="0.20571470261">
        <ele>1198.50073557283</ele>
        <time>2021-08-03T18:40:21.994Z</time>
      </trkpt>
      <trkpt lat="42.93346524239" lon="0.20571470261">
        <ele>1201.51026743485</ele>
        <time>2021-08-03T18:40:27.168Z</time>
      </trkpt>
      <trkpt lat="42.9326069355" lon="0.20479202271">
        <ele>1205.12708370598</ele>
        <time>2021-08-03T18:40:32.360Z</time>
      </trkpt>
      <trkpt lat="42.93112635612" lon="0.20377278328">
        <ele>1208.78060071974</ele>
        <time>2021-08-03T18:40:37.578Z</time>
      </trkpt>
      <trkpt lat="42.93092250824" lon="0.20355820656">
        <ele>1212.18371179946</ele>
        <time>2021-08-03T18:40:42.800Z</time>
      </trkpt>
      <trkpt lat="42.93081521988" lon="0.20340800285">
        <ele>1215.61331910887</ele>
        <time>2021-08-03T18:40:48.025Z</time>
      </trkpt>
      <trkpt lat="42.93051481247" lon="0.20282864571">
        <ele>1219.37194590116</ele>
        <time>2021-08-03T18:40:53.258Z</time>
      </trkpt>
      <trkpt lat="42.93023594655" lon="0.2024102211">
        <ele>1222.92758726615</ele>
        <time>2021-08-03T18:40:58.498Z</time>
      </trkpt>
      <trkpt lat="42.93007493019" lon="0.20223855972">
        <ele>1226.44665011607</ele>
        <time>2021-08-03T18:41:03.741Z</time>
      </trkpt>
      <trkpt lat="42.92969942093" lon="0.20192742348">
        <ele>1230.2156232763</ele>
        <time>2021-08-03T18:41:08.991Z</time>
      </trkpt>
      <trkpt lat="42.92895913124" lon="0.20142316818">
        <ele>1234.05247016673</ele>
        <time>2021-08-03T18:41:14.254Z</time>
      </trkpt>
      <trkpt lat="42.92883038521" lon="0.20129442215">
        <ele>1237.77121366852</ele>
        <time>2021-08-03T18:41:19.520Z</time>
      </trkpt>
      <trkpt lat="42.92863726616" lon="0.20106911659">
        <ele>1241.5787695838</ele>
        <time>2021-08-03T18:41:24.790Z</time>
      </trkpt>
      <trkpt lat="42.92829394341" lon="0.20051121712">
        <ele>1245.73375805716</ele>
        <time>2021-08-03T18:41:30.069Z</time>
      </trkpt>
      <trkpt lat="42.92729616165" lon="0.19930958748">
        <ele>1249.91965974584</ele>
        <time>2021-08-03T18:41:35.369Z</time>
      </trkpt>
      <trkpt lat="42.92714595795" lon="0.19908428192">
        <ele>1253.77633784463</ele>
        <time>2021-08-03T18:41:40.672Z</time>
      </trkpt>
      <trkpt lat="42.92708158493" lon="0.19894480705">
        <ele>1257.57439328867</ele>
        <time>2021-08-03T18:41:45.977Z</time>
      </trkpt>
      <trkpt lat="42.92706021108" lon="0.19883751869">
        <ele>1261.34097276828</ele>
        <time>2021-08-03T18:41:51.284Z</time>
      </trkpt>
      <trkpt lat="42.92706012726" lon="0.19883751869">
        <ele>1264.92608241416</ele>
        <time>2021-08-03T18:41:56.591Z</time>
      </trkpt>
      <trkpt lat="42.92699575424" lon="0.19851565361">
        <ele>1268.71896413564</ele>
        <time>2021-08-03T18:42:01.902Z</time>
      </trkpt>
      <trkpt lat="42.92690992355" lon="0.19839763641">
        <ele>1272.2204787694</ele>
        <time>2021-08-03T18:42:07.215Z</time>
      </trkpt>
      <trkpt lat="42.92683490552" lon="0.19834399223">
        <ele>1275.62611684703</ele>
        <time>2021-08-03T18:42:12.529Z</time>
      </trkpt>
      <trkpt lat="42.92663097382" lon="0.19815087318">
        <ele>1279.08912877097</ele>
        <time>2021-08-03T18:42:17.847Z</time>
      </trkpt>
      <trkpt lat="42.92633056641" lon="0.19774317741">
        <ele>1282.79832954548</ele>
        <time>2021-08-03T18:42:23.172Z</time>
      </trkpt>
      <trkpt lat="42.92619109154" lon="0.19738912582">
        <ele>1286.37009995727</ele>
        <time>2021-08-03T18:42:28.501Z</time>
      </trkpt>
      <trkpt lat="42.92610526085" lon="0.19721746445">
        <ele>1289.74436803622</ele>
        <time>2021-08-03T18:42:33.833Z</time>
      </trkpt>
      <trkpt lat="42.92599805631" lon="0.19712090492">
        <ele>1292.97665855953</ele>
        <time>2021-08-03T18:42:39.167Z</time>
      </trkpt>
      <trkpt lat="42.92594432831" lon="0.19709944725">
        <ele>1296.07860654939</ele>
        <time>2021-08-03T18:42:44.502Z</time>
      </trkpt>
      <trkpt lat="42.92587995529" lon="0.19711017609">
        <ele>1299.11116472794</ele>
        <time>2021-08-03T18:42:49.838Z</time>
      </trkpt>
      <trkpt lat="42.92582631111" lon="0.19713163376">
        <ele>1302.11517587073</ele>
        <time>2021-08-03T18:42:55.175Z</time>
      </trkpt>
      <trkpt lat="42.92577275075" lon="0.19719600677">
        <ele>1305.03020083118</ele>
        <time>2021-08-03T18:43:00.513Z</time>
      </trkpt>
      <trkpt lat="42.92577266693" lon="0.19719600677">
        <ele>1307.87641605465</ele>
        <time>2021-08-03T18:43:05.851Z</time>
      </trkpt>
      <trkpt lat="42.92556890287" lon="0.19739985466">
        <ele>1310.75622466154</ele>
        <time>2021-08-03T18:43:11.193Z</time>
      </trkpt>
      <trkpt lat="42.92545080185" lon="0.19748568535">
        <ele>1313.57619280811</ele>
        <time>2021-08-03T18:43:16.537Z</time>
      </trkpt>
      <trkpt lat="42.92508610524" lon="0.19764661789">
        <ele>1316.66829503944</ele>
        <time>2021-08-03T18:43:21.887Z</time>
      </trkpt>
      <trkpt lat="42.9249894619" lon="0.19768953323">
        <ele>1319.47839387959</ele>
        <time>2021-08-03T18:43:27.239Z</time>
      </trkpt>
      <trkpt lat="42.92485007085" lon="0.19768953323">
        <ele>1322.36616899108</ele>
        <time>2021-08-03T18:43:32.593Z</time>
      </trkpt>
      <trkpt lat="42.92479634285" lon="0.19768953323">
        <ele>1325.04570455811</ele>
        <time>2021-08-03T18:43:37.948Z</time>
      </trkpt>
      <trkpt lat="42.92475342751" lon="0.19772171974">
        <ele>1327.69529029157</ele>
        <time>2021-08-03T18:43:43.304Z</time>
      </trkpt>
      <trkpt lat="42.924721241" lon="0.19776463509">
        <ele>1330.27364591041</ele>
        <time>2021-08-03T18:43:48.660Z</time>
      </trkpt>
      <trkpt lat="42.92469978333" lon="0.19791483879">
        <ele>1332.81405410611</ele>
        <time>2021-08-03T18:43:54.018Z</time>
      </trkpt>
      <trkpt lat="42.92471059598" lon="0.19801139832">
        <ele>1335.18866172317</ele>
        <time>2021-08-03T18:43:59.377Z</time>
      </trkpt>
      <trkpt lat="42.92471051216" lon="0.19801139832">
        <ele>1337.55000529026</ele>
        <time>2021-08-03T18:44:04.736Z</time>
      </trkpt>
      <trkpt lat="42.92478561401" lon="0.19840836525">
        <ele>1339.6805987398</ele>
        <time>2021-08-03T18:44:10.100Z</time>
      </trkpt>
      <trkpt lat="42.92478561401" lon="0.19864439964">
        <ele>1342.06043798144</ele>
        <time>2021-08-03T18:44:15.467Z</time>
      </trkpt>
      <trkpt lat="42.92478561401" lon="0.19942760468">
        <ele>1344.6229377864</ele>
        <time>2021-08-03T18:44:20.843Z</time>
      </trkpt>
      <trkpt lat="42.92471051216" lon="0.200715065">
        <ele>1347.18999344998</ele>
        <time>2021-08-03T18:44:26.234Z</time>
      </trkpt>
      <trkpt lat="42.92459249496" lon="0.20127296448">
        <ele>1349.53940817699</ele>
        <time>2021-08-03T18:44:31.632Z</time>
      </trkpt>
      <trkpt lat="42.92441010475" lon="0.20253896713">
        <ele>1352.08319437663</ele>
        <time>2021-08-03T18:44:37.045Z</time>
      </trkpt>
      <trkpt lat="42.9243350029" lon="0.20296812057">
        <ele>1354.29079056479</ele>
        <time>2021-08-03T18:44:42.464Z</time>
      </trkpt>
      <trkpt lat="42.92427062988" lon="0.20317196846">
        <ele>1356.48094759316</ele>
        <time>2021-08-03T18:44:47.885Z</time>
      </trkpt>
      <trkpt lat="42.9235625267" lon="0.20459890366">
        <ele>1359.08976613167</ele>
        <time>2021-08-03T18:44:53.326Z</time>
      </trkpt>
      <trkpt lat="42.92325139046" lon="0.2050280571">
        <ele>1361.53039901687</ele>
        <time>2021-08-03T18:44:58.774Z</time>
      </trkpt>
      <trkpt lat="42.92294025421" lon="0.20557522774">
        <ele>1363.56933277755</ele>
        <time>2021-08-03T18:45:04.231Z</time>
      </trkpt>
      <trkpt lat="42.92287596501" lon="0.20565032959">
        <ele>1365.79637327517</ele>
        <time>2021-08-03T18:45:09.689Z</time>
      </trkpt>
      <trkpt lat="42.92280077934" lon="0.20572543144">
        <ele>1368.01216563225</ele>
        <time>2021-08-03T18:45:15.148Z</time>
      </trkpt>
      <trkpt lat="42.92223215103" lon="0.20598292351">
        <ele>1370.75140657624</ele>
        <time>2021-08-03T18:45:20.617Z</time>
      </trkpt>
      <trkpt lat="42.92162060738" lon="0.20659446716">
        <ele>1372.76005774407</ele>
        <time>2021-08-03T18:45:26.098Z</time>
      </trkpt>
      <trkpt lat="42.92093404569" lon="0.20695924759">
        <ele>1375.36857858779</ele>
        <time>2021-08-03T18:45:31.591Z</time>
      </trkpt>
      <trkpt lat="42.920794487" lon="0.20704507828">
        <ele>1377.6149178005</ele>
        <time>2021-08-03T18:45:37.086Z</time>
      </trkpt>
      <trkpt lat="42.92027950287" lon="0.20743131638">
        <ele>1380.0386968959</ele>
        <time>2021-08-03T18:45:42.591Z</time>
      </trkpt>
      <trkpt lat="42.9200220108" lon="0.20759224892">
        <ele>1382.32587073637</ele>
        <time>2021-08-03T18:45:48.100Z</time>
      </trkpt>
      <trkpt lat="42.9196035862" lon="0.20797848701">
        <ele>1384.61892654789</ele>
        <time>2021-08-03T18:45:53.617Z</time>
      </trkpt>
      <trkpt lat="42.91888475418" lon="0.20849347115">
        <ele>1387.27062643573</ele>
        <time>2021-08-03T18:45:59.147Z</time>
      </trkpt>
      <trkpt lat="42.91882038116" lon="0.20852565765">
        <ele>1389.43120058558</ele>
        <time>2021-08-03T18:46:04.679Z</time>
      </trkpt>
      <trkpt lat="42.91876673698" lon="0.20852565765">
        <ele>1391.65116893843</ele>
        <time>2021-08-03T18:46:10.211Z</time>
      </trkpt>
      <trkpt lat="42.91861653328" lon="0.20852565765">
        <ele>1393.95523896449</ele>
        <time>2021-08-03T18:46:15.746Z</time>
      </trkpt>
      <trkpt lat="42.91851997375" lon="0.20849347115">
        <ele>1396.30444442079</ele>
        <time>2021-08-03T18:46:21.282Z</time>
      </trkpt>
      <trkpt lat="42.91825175285" lon="0.20850419998">
        <ele>1398.84213921318</ele>
        <time>2021-08-03T18:46:26.823Z</time>
      </trkpt>
      <trkpt lat="42.9180586338" lon="0.20864367485">
        <ele>1401.14707763639</ele>
        <time>2021-08-03T18:46:32.367Z</time>
      </trkpt>
      <trkpt lat="42.91785478592" lon="0.20889043808">
        <ele>1403.48502852954</ele>
        <time>2021-08-03T18:46:37.916Z</time>
      </trkpt>
      <trkpt lat="42.9172539711" lon="0.20950198174">
        <ele>1405.85947564321</ele>
        <time>2021-08-03T18:46:43.477Z</time>
      </trkpt>
      <trkpt lat="42.91716814041" lon="0.20955562592">
        <ele>1408.38312987701</ele>
        <time>2021-08-03T18:46:49.039Z</time>
      </trkpt>
      <trkpt lat="42.9171037674" lon="0.20956635475">
        <ele>1411.01588620592</ele>
        <time>2021-08-03T18:46:54.602Z</time>
      </trkpt>
      <trkpt lat="42.91703939438" lon="0.20955562592">
        <ele>1413.76948653274</ele>
        <time>2021-08-03T18:47:00.166Z</time>
      </trkpt>
      <trkpt lat="42.91697510518" lon="0.20948052406">
        <ele>1416.68558500491</ele>
        <time>2021-08-03T18:47:05.731Z</time>
      </trkpt>
      <trkpt lat="42.91696429253" lon="0.20944833755">
        <ele>1419.66902410636</ele>
        <time>2021-08-03T18:47:11.297Z</time>
      </trkpt>
      <trkpt lat="42.91696429253" lon="0.20935177803">
        <ele>1422.831187135</ele>
        <time>2021-08-03T18:47:16.864Z</time>
      </trkpt>
      <trkpt lat="42.91699647903" lon="0.20924448967">
        <ele>1426.13223431736</ele>
        <time>2021-08-03T18:47:22.432Z</time>
      </trkpt>
      <trkpt lat="42.91706085205" lon="0.20915865898">
        <ele>1429.55938185469</ele>
        <time>2021-08-03T18:47:28.002Z</time>
      </trkpt>
      <trkpt lat="42.91714668274" lon="0.20907282829">
        <ele>1433.16132040918</ele>
        <time>2021-08-03T18:47:33.574Z</time>
      </trkpt>
      <trkpt lat="42.9172539711" lon="0.20893335342">
        <ele>1436.98128907567</ele>
        <time>2021-08-03T18:47:39.148Z</time>
      </trkpt>
      <trkpt lat="42.9180586338" lon="0.20816087723">
        <ele>1441.40867414907</ele>
        <time>2021-08-03T18:47:44.738Z</time>
      </trkpt>
      <trkpt lat="42.91895985603" lon="0.20724892616">
        <ele>1445.98168811475</ele>
        <time>2021-08-03T18:47:50.346Z</time>
      </trkpt>
      <trkpt lat="42.91926026344" lon="0.20685195923">
        <ele>1450.48730640043</ele>
        <time>2021-08-03T18:47:55.960Z</time>
      </trkpt>
      <trkpt lat="42.91965723038" lon="0.20628333092">
        <ele>1455.29193808312</ele>
        <time>2021-08-03T18:48:01.584Z</time>
      </trkpt>
      <trkpt lat="42.91988253593" lon="0.20588636398">
        <ele>1460.19276950318</ele>
        <time>2021-08-03T18:48:07.213Z</time>
      </trkpt>
      <trkpt lat="42.92001128197" lon="0.20569324493">
        <ele>1465.08241302597</ele>
        <time>2021-08-03T18:48:12.846Z</time>
      </trkpt>
      <trkpt lat="42.92038679123" lon="0.20536065102">
        <ele>1470.01139071457</ele>
        <time>2021-08-03T18:48:18.486Z</time>
      </trkpt>
      <trkpt lat="42.92057991028" lon="0.20510315895">
        <ele>1475.24858705909</ele>
        <time>2021-08-03T18:48:24.130Z</time>
      </trkpt>
      <trkpt lat="42.92098760605" lon="0.20463109016">
        <ele>1480.709823026</ele>
        <time>2021-08-03T18:48:29.783Z</time>
      </trkpt>
      <trkpt lat="42.9213309288" lon="0.20413756371">
        <ele>1486.33982747054</ele>
        <time>2021-08-03T18:48:35.444Z</time>
      </trkpt>
      <trkpt lat="42.92160987854" lon="0.20367622375">
        <ele>1491.93342518148</ele>
        <time>2021-08-03T18:48:41.112Z</time>
      </trkpt>
      <trkpt lat="42.9217171669" lon="0.2034509182">
        <ele>1497.64794074434</ele>
        <time>2021-08-03T18:48:46.783Z</time>
      </trkpt>
      <trkpt lat="42.92188882828" lon="0.20280718803">
        <ele>1503.91248980096</ele>
        <time>2021-08-03T18:48:52.462Z</time>
      </trkpt>
      <trkpt lat="42.92240381241" lon="0.20129442215">
        <ele>1510.23214571319</ele>
        <time>2021-08-03T18:48:58.160Z</time>
      </trkpt>
      <trkpt lat="42.92244672775" lon="0.2011013031">
        <ele>1516.26545053865</ele>
        <time>2021-08-03T18:49:03.861Z</time>
      </trkpt>
      <trkpt lat="42.92245745659" lon="0.20094037056">
        <ele>1522.42401067417</ele>
        <time>2021-08-03T18:49:09.564Z</time>
      </trkpt>
      <trkpt lat="42.92242527008" lon="0.20062923431">
        <ele>1528.94626539898</ele>
        <time>2021-08-03T18:49:15.270Z</time>
      </trkpt>
      <trkpt lat="42.92236089706" lon="0.20036101341">
        <ele>1535.41611847643</ele>
        <time>2021-08-03T18:49:20.980Z</time>
      </trkpt>
      <trkpt lat="42.92166352272" lon="0.19864439964">
        <ele>1542.55123513521</ele>
        <time>2021-08-03T18:49:26.713Z</time>
      </trkpt>
      <trkpt lat="42.920794487" lon="0.19688487053">
        <ele>1549.21250048246</ele>
        <time>2021-08-03T18:49:32.471Z</time>
      </trkpt>
      <trkpt lat="42.92056926526" lon="0.19631624222">
        <ele>1555.2230972495</ele>
        <time>2021-08-03T18:49:38.236Z</time>
      </trkpt>
      <trkpt lat="42.91994690895" lon="0.1946747303">
        <ele>1561.51059978826</ele>
        <time>2021-08-03T18:49:44.023Z</time>
      </trkpt>
      <trkpt lat="42.91978597641" lon="0.19409537315">
        <ele>1567.64696703434</ele>
        <time>2021-08-03T18:49:49.817Z</time>
      </trkpt>
      <trkpt lat="42.91971095838" lon="0.19339799881">
        <ele>1573.57748365233</ele>
        <time>2021-08-03T18:49:55.620Z</time>
      </trkpt>
      <trkpt lat="42.91968941689" lon="0.19241094589">
        <ele>1579.51886953357</ele>
        <time>2021-08-03T18:50:01.434Z</time>
      </trkpt>
      <trkpt lat="42.91964650154" lon="0.19192814827">
        <ele>1585.38566640538</ele>
        <time>2021-08-03T18:50:07.254Z</time>
      </trkpt>
      <trkpt lat="42.91961439885" lon="0.19177794456">
        <ele>1590.86944189002</ele>
        <time>2021-08-03T18:50:13.076Z</time>
      </trkpt>
      <trkpt lat="42.91957139969" lon="0.19159555435">
        <ele>1596.24265776822</ele>
        <time>2021-08-03T18:50:18.900Z</time>
      </trkpt>
      <trkpt lat="42.91943192482" lon="0.19129514694">
        <ele>1601.68429841616</ele>
        <time>2021-08-03T18:50:24.728Z</time>
      </trkpt>
      <trkpt lat="42.91922807693" lon="0.19097328186">
        <ele>1606.81038884661</ele>
        <time>2021-08-03T18:50:30.561Z</time>
      </trkpt>
      <trkpt lat="42.9184985999" lon="0.19027590752">
        <ele>1612.19159212632</ele>
        <time>2021-08-03T18:50:36.408Z</time>
      </trkpt>
      <trkpt lat="42.91849851608" lon="0.19027590752">
        <ele>1616.92958398666</ele>
        <time>2021-08-03T18:50:42.255Z</time>
      </trkpt>
      <trkpt lat="42.91815519333" lon="0.18996477127">
        <ele>1621.91940038474</ele>
        <time>2021-08-03T18:50:48.109Z</time>
      </trkpt>
      <trkpt lat="42.91784405708" lon="0.18958926201">
        <ele>1626.70885370072</ele>
        <time>2021-08-03T18:50:53.970Z</time>
      </trkpt>
      <trkpt lat="42.91756510735" lon="0.18922448158">
        <ele>1631.07163773548</ele>
        <time>2021-08-03T18:50:59.837Z</time>
      </trkpt>
      <trkpt lat="42.91721105576" lon="0.18885970116">
        <ele>1635.2695294992</ele>
        <time>2021-08-03T18:51:05.711Z</time>
      </trkpt>
      <trkpt lat="42.91685700417" lon="0.18854856491">
        <ele>1639.35323563008</ele>
        <time>2021-08-03T18:51:11.592Z</time>
      </trkpt>
      <trkpt lat="42.91640647687" lon="0.1880979538">
        <ele>1643.19691125494</ele>
        <time>2021-08-03T18:51:17.482Z</time>
      </trkpt>
      <trkpt lat="42.91628837585" lon="0.18796920776">
        <ele>1646.80614411035</ele>
        <time>2021-08-03T18:51:23.374Z</time>
      </trkpt>
      <trkpt lat="42.9161167983" lon="0.18764734268">
        <ele>1650.19810298585</ele>
        <time>2021-08-03T18:51:29.271Z</time>
      </trkpt>
      <trkpt lat="42.91603088379" lon="0.18743276596">
        <ele>1653.43386732983</ele>
        <time>2021-08-03T18:51:35.171Z</time>
      </trkpt>
      <trkpt lat="42.91595578194" lon="0.1873254776">
        <ele>1656.63522885718</ele>
        <time>2021-08-03T18:51:41.072Z</time>
      </trkpt>
      <trkpt lat="42.91584849358" lon="0.18721818924">
        <ele>1659.77048481979</ele>
        <time>2021-08-03T18:51:46.975Z</time>
      </trkpt>
      <trkpt lat="42.91576266289" lon="0.18716454506">
        <ele>1662.8146772942</ele>
        <time>2021-08-03T18:51:52.880Z</time>
      </trkpt>
      <trkpt lat="42.91566610336" lon="0.18712162971">
        <ele>1665.78042114385</ele>
        <time>2021-08-03T18:51:58.787Z</time>
      </trkpt>
      <trkpt lat="42.91524776258" lon="0.18716454506">
        <ele>1669.27373078416</ele>
        <time>2021-08-03T18:52:04.700Z</time>
      </trkpt>
      <trkpt lat="42.91516184807" lon="0.18715381622">
        <ele>1672.05016992667</ele>
        <time>2021-08-03T18:52:10.615Z</time>
      </trkpt>
      <trkpt lat="42.91507601738" lon="0.18711090088">
        <ele>1674.69415126601</ele>
        <time>2021-08-03T18:52:16.531Z</time>
      </trkpt>
      <trkpt lat="42.91472196579" lon="0.18684267998">
        <ele>1677.14052273416</ele>
        <time>2021-08-03T18:52:22.454Z</time>
      </trkpt>
      <trkpt lat="42.91434654035" lon="0.18661737442">
        <ele>1679.61249968281</ele>
        <time>2021-08-03T18:52:28.383Z</time>
      </trkpt>
      <trkpt lat="42.91423916817" lon="0.18656373024">
        <ele>1681.94762823946</ele>
        <time>2021-08-03T18:52:34.314Z</time>
      </trkpt>
      <trkpt lat="42.91411050595" lon="0.18656373024">
        <ele>1684.37121780425</ele>
        <time>2021-08-03T18:52:40.247Z</time>
      </trkpt>
      <trkpt lat="42.91370272636" lon="0.18661737442">
        <ele>1687.29900491252</ele>
        <time>2021-08-03T18:52:46.187Z</time>
      </trkpt>
      <trkpt lat="42.913595438" lon="0.18658518791">
        <ele>1689.49407606558</ele>
        <time>2021-08-03T18:52:52.128Z</time>
      </trkpt>
      <trkpt lat="42.91350960732" lon="0.18653154373">
        <ele>1691.53880429382</ele>
        <time>2021-08-03T18:52:58.071Z</time>
      </trkpt>
      <trkpt lat="42.91345596313" lon="0.18644571304">
        <ele>1693.3989703837</ele>
        <time>2021-08-03T18:53:04.015Z</time>
      </trkpt>
      <trkpt lat="42.91335948743" lon="0.18612384796">
        <ele>1695.00354153914</ele>
        <time>2021-08-03T18:53:09.963Z</time>
      </trkpt>
      <trkpt lat="42.91335940361" lon="0.18612384796">
        <ele>1696.85211018726</ele>
        <time>2021-08-03T18:53:15.911Z</time>
      </trkpt>
      <trkpt lat="42.91327357292" lon="0.18582344055">
        <ele>1698.5947387055</ele>
        <time>2021-08-03T18:53:21.863Z</time>
      </trkpt>
      <trkpt lat="42.91300535202" lon="0.18500804901">
        <ele>1700.26087731403</ele>
        <time>2021-08-03T18:53:27.826Z</time>
      </trkpt>
      <trkpt lat="42.912940979" lon="0.18485784531">
        <ele>1702.06026902594</ele>
        <time>2021-08-03T18:53:33.791Z</time>
      </trkpt>
      <trkpt lat="42.91282296181" lon="0.18465399742">
        <ele>1703.92133167297</ele>
        <time>2021-08-03T18:53:39.759Z</time>
      </trkpt>
      <trkpt lat="42.91260838509" lon="0.18441796303">
        <ele>1705.93126738383</ele>
        <time>2021-08-03T18:53:45.731Z</time>
      </trkpt>
      <trkpt lat="42.9124045372" lon="0.18425703049">
        <ele>1707.87579555343</ele>
        <time>2021-08-03T18:53:51.707Z</time>
      </trkpt>
      <trkpt lat="42.91220068932" lon="0.18418192863">
        <ele>1709.8776591978</ele>
        <time>2021-08-03T18:53:57.686Z</time>
      </trkpt>
      <trkpt lat="42.91195392609" lon="0.18416047096">
        <ele>1711.99226467868</ele>
        <time>2021-08-03T18:54:03.669Z</time>
      </trkpt>
      <trkpt lat="42.91179299355" lon="0.18409609795">
        <ele>1713.96413676306</ele>
        <time>2021-08-03T18:54:09.655Z</time>
      </trkpt>
      <trkpt lat="42.91169643402" lon="0.18402099609">
        <ele>1715.86049715522</ele>
        <time>2021-08-03T18:54:15.643Z</time>
      </trkpt>
      <trkpt lat="42.9114175681" lon="0.18367767334">
        <ele>1717.8715542804</ele>
        <time>2021-08-03T18:54:21.637Z</time>
      </trkpt>
      <trkpt lat="42.91133165359" lon="0.18359184265">
        <ele>1719.80944497775</ele>
        <time>2021-08-03T18:54:27.632Z</time>
      </trkpt>
      <trkpt lat="42.9112673644" lon="0.18348455429">
        <ele>1721.71107907667</ele>
        <time>2021-08-03T18:54:33.629Z</time>
      </trkpt>
      <trkpt lat="42.91110634804" lon="0.18303394318">
        <ele>1723.55526019071</ele>
        <time>2021-08-03T18:54:39.632Z</time>
      </trkpt>
      <trkpt lat="42.91093468666" lon="0.18243312836">
        <ele>1725.39527979925</ele>
        <time>2021-08-03T18:54:45.643Z</time>
      </trkpt>
      <trkpt lat="42.91085958481" lon="0.18228292465">
        <ele>1727.30227313699</ele>
        <time>2021-08-03T18:54:51.656Z</time>
      </trkpt>
      <trkpt lat="42.91054844856" lon="0.18178939819">
        <ele>1729.36091530355</ele>
        <time>2021-08-03T18:54:57.676Z</time>
      </trkpt>
      <trkpt lat="42.91039824486" lon="0.1814353466">
        <ele>1731.47390734951</ele>
        <time>2021-08-03T18:55:03.701Z</time>
      </trkpt>
      <trkpt lat="42.91025876999" lon="0.18107056618">
        <ele>1733.53955155595</ele>
        <time>2021-08-03T18:55:09.731Z</time>
      </trkpt>
      <trkpt lat="42.91023739614" lon="0.18096327782">
        <ele>1735.45439262491</ele>
        <time>2021-08-03T18:55:15.762Z</time>
      </trkpt>
      <trkpt lat="42.91007637978" lon="0.18001914024">
        <ele>1737.54398576778</ele>
        <time>2021-08-03T18:55:21.805Z</time>
      </trkpt>
      <trkpt lat="42.91004419327" lon="0.17975091934">
        <ele>1739.44696716273</ele>
        <time>2021-08-03T18:55:27.851Z</time>
      </trkpt>
      <trkpt lat="42.91007637978" lon="0.17952561378">
        <ele>1741.3535232454</ele>
        <time>2021-08-03T18:55:33.900Z</time>
      </trkpt>
      <trkpt lat="42.91013002396" lon="0.17938613892">
        <ele>1743.29541845546</ele>
        <time>2021-08-03T18:55:39.950Z</time>
      </trkpt>
      <trkpt lat="42.91014083661" lon="0.17937541008">
        <ele>1745.13715792483</ele>
        <time>2021-08-03T18:55:46.001Z</time>
      </trkpt>
      <trkpt lat="42.91023731232" lon="0.17922520638">
        <ele>1747.08276921906</ele>
        <time>2021-08-03T18:55:52.054Z</time>
      </trkpt>
      <trkpt lat="42.91035532951" lon="0.17916083336">
        <ele>1748.99249726849</ele>
        <time>2021-08-03T18:55:58.109Z</time>
      </trkpt>
      <trkpt lat="42.91079529561" lon="0.17895698547">
        <ele>1751.02500839509</ele>
        <time>2021-08-03T18:56:04.171Z</time>
      </trkpt>
      <trkpt lat="42.91079521179" lon="0.17895698547">
        <ele>1752.75671584839</ele>
        <time>2021-08-03T18:56:10.233Z</time>
      </trkpt>
      <trkpt lat="42.91087031364" lon="0.17889261246">
        <ele>1754.4999570204</ele>
        <time>2021-08-03T18:56:16.297Z</time>
      </trkpt>
      <trkpt lat="42.91097760201" lon="0.17877459526">
        <ele>1756.2327393843</ele>
        <time>2021-08-03T18:56:22.363Z</time>
      </trkpt>
      <trkpt lat="42.91100978851" lon="0.17867803574">
        <ele>1757.86477897002</ele>
        <time>2021-08-03T18:56:28.430Z</time>
      </trkpt>
      <trkpt lat="42.91105270386" lon="0.1785492897">
        <ele>1759.46175976274</ele>
        <time>2021-08-03T18:56:34.499Z</time>
      </trkpt>
      <trkpt lat="42.91107416153" lon="0.17827033997">
        <ele>1760.98008987891</ele>
        <time>2021-08-03T18:56:40.571Z</time>
      </trkpt>
      <trkpt lat="42.91104197502" lon="0.1776266098">
        <ele>1762.6309516396</ele>
        <time>2021-08-03T18:56:46.651Z</time>
      </trkpt>
      <trkpt lat="42.91099905968" lon="0.17734766006">
        <ele>1764.19457755821</ele>
        <time>2021-08-03T18:56:52.734Z</time>
      </trkpt>
      <trkpt lat="42.91092395782" lon="0.17711162567">
        <ele>1765.67851607979</ele>
        <time>2021-08-03T18:56:58.820Z</time>
      </trkpt>
      <trkpt lat="42.91075229645" lon="0.17662882805">
        <ele>1767.26684770538</ele>
        <time>2021-08-03T18:57:04.913Z</time>
      </trkpt>
      <trkpt lat="42.91059144773" lon="0.17610311508">
        <ele>1768.83310359299</ele>
        <time>2021-08-03T18:57:11.012Z</time>
      </trkpt>
      <trkpt lat="42.91059136391" lon="0.17610311508">
        <ele>1770.17144997532</ele>
        <time>2021-08-03T18:57:17.111Z</time>
      </trkpt>
      <trkpt lat="42.91055926122" lon="0.1759314537">
        <ele>1771.52184840714</ele>
        <time>2021-08-03T18:57:23.212Z</time>
      </trkpt>
      <trkpt lat="42.91053780355" lon="0.17573833466">
        <ele>1772.83200211038</ele>
        <time>2021-08-03T18:57:29.316Z</time>
      </trkpt>
      <trkpt lat="42.91053780355" lon="0.17559885979">
        <ele>1774.09625137033</ele>
        <time>2021-08-03T18:57:35.421Z</time>
      </trkpt>
      <trkpt lat="42.91054853238" lon="0.17554521561">
        <ele>1775.29503617466</ele>
        <time>2021-08-03T18:57:41.527Z</time>
      </trkpt>
      <trkpt lat="42.91054853238" lon="0.17535209656">
        <ele>1776.50072747582</ele>
        <time>2021-08-03T18:57:47.635Z</time>
      </trkpt>
      <trkpt lat="42.91055926122" lon="0.17515897751">
        <ele>1777.67843934649</ele>
        <time>2021-08-03T18:57:53.745Z</time>
      </trkpt>
      <trkpt lat="42.91055926122" lon="0.17496585846">
        <ele>1778.81477993393</ele>
        <time>2021-08-03T18:57:59.858Z</time>
      </trkpt>
      <trkpt lat="42.91055926122" lon="0.17477273941">
        <ele>1779.91395806234</ele>
        <time>2021-08-03T18:58:05.973Z</time>
      </trkpt>
      <trkpt lat="42.91054853238" lon="0.17457962036">
        <ele>1780.96206610592</ele>
        <time>2021-08-03T18:58:12.090Z</time>
      </trkpt>
      <trkpt lat="42.91054853238" lon="0.17437577248">
        <ele>1781.96796050224</ele>
        <time>2021-08-03T18:58:18.210Z</time>
      </trkpt>
      <trkpt lat="42.91051634587" lon="0.17418265343">
        <ele>1782.91793887197</ele>
        <time>2021-08-03T18:58:24.332Z</time>
      </trkpt>
      <trkpt lat="42.91048415937" lon="0.17398953438">
        <ele>1783.85896250781</ele>
        <time>2021-08-03T18:58:30.456Z</time>
      </trkpt>
      <trkpt lat="42.91043051518" lon="0.17380714417">
        <ele>1784.7417489398</ele>
        <time>2021-08-03T18:58:36.583Z</time>
      </trkpt>
      <trkpt lat="42.910376871" lon="0.17362475395">
        <ele>1785.54075184806</ele>
        <time>2021-08-03T18:58:42.712Z</time>
      </trkpt>
      <trkpt lat="42.91032322682" lon="0.17346382141">
        <ele>1786.30231597849</ele>
        <time>2021-08-03T18:58:48.843Z</time>
      </trkpt>
      <trkpt lat="42.91028031148" lon="0.17330288887">
        <ele>1787.05696451767</ele>
        <time>2021-08-03T18:58:54.976Z</time>
      </trkpt>
      <trkpt lat="42.91025885381" lon="0.17312049866">
        <ele>1787.82594929655</ele>
        <time>2021-08-03T18:59:01.111Z</time>
      </trkpt>
      <trkpt lat="42.91024812497" lon="0.17292737961">
        <ele>1788.60947289588</ele>
        <time>2021-08-03T18:59:07.248Z</time>
      </trkpt>
      <trkpt lat="42.91024812497" lon="0.17273426056">
        <ele>1789.40220722876</ele>
        <time>2021-08-03T18:59:13.388Z</time>
      </trkpt>
      <trkpt lat="42.91024812497" lon="0.17255187035">
        <ele>1790.19520708848</ele>
        <time>2021-08-03T18:59:19.530Z</time>
      </trkpt>
      <trkpt lat="42.91025885381" lon="0.1723587513">
        <ele>1791.01052857885</ele>
        <time>2021-08-03T18:59:25.674Z</time>
      </trkpt>
      <trkpt lat="42.91025876999" lon="0.1723587513">
        <ele>1791.77728760512</ele>
        <time>2021-08-03T18:59:31.818Z</time>
      </trkpt>
      <trkpt lat="42.91026958264" lon="0.17219781876">
        <ele>1792.65907124499</ele>
        <time>2021-08-03T18:59:37.964Z</time>
      </trkpt>
      <trkpt lat="42.91026958264" lon="0.17211198807">
        <ele>1793.52289836736</ele>
        <time>2021-08-03T18:59:44.111Z</time>
      </trkpt>
      <trkpt lat="42.91026958264" lon="0.17200469971">
        <ele>1794.37884517251</ele>
        <time>2021-08-03T18:59:50.259Z</time>
      </trkpt>
      <trkpt lat="42.91028031148" lon="0.17182230949">
        <ele>1795.29652431055</ele>
        <time>2021-08-03T18:59:56.409Z</time>
      </trkpt>
      <trkpt lat="42.91028031148" lon="0.17165064812">
        <ele>1796.23729650119</ele>
        <time>2021-08-03T19:00:02.562Z</time>
      </trkpt>
      <trkpt lat="42.91028031148" lon="0.1714682579">
        <ele>1797.22850766356</ele>
        <time>2021-08-03T19:00:08.717Z</time>
      </trkpt>
      <trkpt lat="42.91028031148" lon="0.17127513885">
        <ele>1798.2986443733</ele>
        <time>2021-08-03T19:00:14.874Z</time>
      </trkpt>
      <trkpt lat="42.91028031148" lon="0.17108201981">
        <ele>1799.42374002729</ele>
        <time>2021-08-03T19:00:21.033Z</time>
      </trkpt>
      <trkpt lat="42.91028031148" lon="0.17091035843">
        <ele>1800.60144316968</ele>
        <time>2021-08-03T19:00:27.194Z</time>
      </trkpt>
      <trkpt lat="42.91026958264" lon="0.17068505287">
        <ele>1801.8426859715</ele>
        <time>2021-08-03T19:00:33.358Z</time>
      </trkpt>
      <trkpt lat="42.91025885381" lon="0.17050266266">
        <ele>1803.15878316502</ele>
        <time>2021-08-03T19:00:39.524Z</time>
      </trkpt>
      <trkpt lat="42.91025885381" lon="0.17032027245">
        <ele>1804.59677593536</ele>
        <time>2021-08-03T19:00:45.692Z</time>
      </trkpt>
      <trkpt lat="42.91024812497" lon="0.1701271534">
        <ele>1806.10940860066</ele>
        <time>2021-08-03T19:00:51.862Z</time>
      </trkpt>
      <trkpt lat="42.91023739614" lon="0.16993403435">
        <ele>1807.69842175888</ele>
        <time>2021-08-03T19:00:58.035Z</time>
      </trkpt>
      <trkpt lat="42.91023739614" lon="0.16980528831">
        <ele>1809.34084965404</ele>
        <time>2021-08-03T19:01:04.209Z</time>
      </trkpt>
      <trkpt lat="42.91022658348" lon="0.16965508461">
        <ele>1811.02429169224</ele>
        <time>2021-08-03T19:01:10.385Z</time>
      </trkpt>
      <trkpt lat="42.91020520963" lon="0.1694726944">
        <ele>1812.77330006795</ele>
        <time>2021-08-03T19:01:16.563Z</time>
      </trkpt>
      <trkpt lat="42.91020512581" lon="0.1694726944">
        <ele>1814.57916945933</ele>
        <time>2021-08-03T19:01:22.741Z</time>
      </trkpt>
      <trkpt lat="42.9101729393" lon="0.16934394836">
        <ele>1816.46900199252</ele>
        <time>2021-08-03T19:01:28.921Z</time>
      </trkpt>
      <trkpt lat="42.90996909142" lon="0.16882896423">
        <ele>1818.36488109362</ele>
        <time>2021-08-03T19:01:35.108Z</time>
      </trkpt>
      <trkpt lat="42.90988326073" lon="0.16852855682">
        <ele>1820.55707357236</ele>
        <time>2021-08-03T19:01:41.298Z</time>
      </trkpt>
      <trkpt lat="42.90979743004" lon="0.16818523407">
        <ele>1822.94059438077</ele>
        <time>2021-08-03T19:01:47.493Z</time>
      </trkpt>
      <trkpt lat="42.90958285332" lon="0.1677775383">
        <ele>1825.24545702252</ele>
        <time>2021-08-03T19:01:53.694Z</time>
      </trkpt>
      <trkpt lat="42.9095184803" lon="0.16762733459">
        <ele>1827.59973507118</ele>
        <time>2021-08-03T19:01:59.897Z</time>
      </trkpt>
      <trkpt lat="42.90944337845" lon="0.167273283">
        <ele>1830.17161249713</ele>
        <time>2021-08-03T19:02:06.104Z</time>
      </trkpt>
      <trkpt lat="42.90941119194" lon="0.16626477242">
        <ele>1833.20465963348</ele>
        <time>2021-08-03T19:02:12.323Z</time>
      </trkpt>
      <trkpt lat="42.90942192078" lon="0.16601800919">
        <ele>1835.82279031986</ele>
        <time>2021-08-03T19:02:18.545Z</time>
      </trkpt>
      <trkpt lat="42.90945410728" lon="0.16577124596">
        <ele>1838.55179439638</ele>
        <time>2021-08-03T19:02:24.770Z</time>
      </trkpt>
      <trkpt lat="42.90955066681" lon="0.16535282135">
        <ele>1841.55325441712</ele>
        <time>2021-08-03T19:02:31.000Z</time>
      </trkpt>
      <trkpt lat="42.90956139565" lon="0.16494512558">
        <ele>1844.39392795464</ele>
        <time>2021-08-03T19:02:37.235Z</time>
      </trkpt>
      <trkpt lat="42.90962576866" lon="0.16451597214">
        <ele>1847.47905168372</ele>
        <time>2021-08-03T19:02:43.475Z</time>
      </trkpt>
      <trkpt lat="42.90962576866" lon="0.16418337822">
        <ele>1850.51861146576</ele>
        <time>2021-08-03T19:02:49.719Z</time>
      </trkpt>
      <trkpt lat="42.90950775146" lon="0.16371130943">
        <ele>1853.32715484954</ele>
        <time>2021-08-03T19:02:55.969Z</time>
      </trkpt>
      <trkpt lat="42.90945410728" lon="0.16317486763">
        <ele>1856.54434500939</ele>
        <time>2021-08-03T19:03:02.225Z</time>
      </trkpt>
      <trkpt lat="42.90937900543" lon="0.1629281044">
        <ele>1859.5720346669</ele>
        <time>2021-08-03T19:03:08.484Z</time>
      </trkpt>
      <trkpt lat="42.90915369987" lon="0.16243457794">
        <ele>1862.59051409978</ele>
        <time>2021-08-03T19:03:14.750Z</time>
      </trkpt>
      <trkpt lat="42.90901422501" lon="0.16208052635">
        <ele>1865.71845118477</ele>
        <time>2021-08-03T19:03:21.021Z</time>
      </trkpt>
      <trkpt lat="42.90890693665" lon="0.16169428825">
        <ele>1868.93731564368</ele>
        <time>2021-08-03T19:03:27.297Z</time>
      </trkpt>
      <trkpt lat="42.90872454643" lon="0.16092181206">
        <ele>1872.40717175761</ele>
        <time>2021-08-03T19:03:33.582Z</time>
      </trkpt>
      <trkpt lat="42.90852078237" lon="0.15968799591">
        <ele>1876.02690058203</ele>
        <time>2021-08-03T19:03:39.882Z</time>
      </trkpt>
      <trkpt lat="42.9082632903" lon="0.15909790993">
        <ele>1879.25591664469</ele>
        <time>2021-08-03T19:03:46.190Z</time>
      </trkpt>
      <trkpt lat="42.90797352791" lon="0.1587331295">
        <ele>1882.25118483522</ele>
        <time>2021-08-03T19:03:52.504Z</time>
      </trkpt>
      <trkpt lat="42.90778040886" lon="0.15844345093">
        <ele>1885.38870016892</ele>
        <time>2021-08-03T19:03:58.823Z</time>
      </trkpt>
      <trkpt lat="42.90763020515" lon="0.15816450119">
        <ele>1888.53994669496</ele>
        <time>2021-08-03T19:04:05.146Z</time>
      </trkpt>
      <trkpt lat="42.90754437447" lon="0.15806794167">
        <ele>1891.4901397088</ele>
        <time>2021-08-03T19:04:11.471Z</time>
      </trkpt>
      <trkpt lat="42.90744781494" lon="0.15791773796">
        <ele>1894.45525035628</ele>
        <time>2021-08-03T19:04:17.798Z</time>
      </trkpt>
      <trkpt lat="42.90737271309" lon="0.15775680542">
        <ele>1897.36776445323</ele>
        <time>2021-08-03T19:04:24.127Z</time>
      </trkpt>
      <trkpt lat="42.9072868824" lon="0.15747785568">
        <ele>1900.31965387481</ele>
        <time>2021-08-03T19:04:30.460Z</time>
      </trkpt>
      <trkpt lat="42.90723332204" lon="0.15734910965">
        <ele>1903.11543723712</ele>
        <time>2021-08-03T19:04:36.795Z</time>
      </trkpt>
      <trkpt lat="42.90723323822" lon="0.15734910965">
        <ele>1905.80076483291</ele>
        <time>2021-08-03T19:04:43.130Z</time>
      </trkpt>
      <trkpt lat="42.90695428848" lon="0.1568877697">
        <ele>1908.47797474723</ele>
        <time>2021-08-03T19:04:49.472Z</time>
      </trkpt>
      <trkpt lat="42.90682554245" lon="0.15651226044">
        <ele>1911.17963062599</ele>
        <time>2021-08-03T19:04:55.819Z</time>
      </trkpt>
      <trkpt lat="42.90670752525" lon="0.15612602234">
        <ele>1913.85865890202</ele>
        <time>2021-08-03T19:05:02.170Z</time>
      </trkpt>
      <trkpt lat="42.90665388107" lon="0.15591144562">
        <ele>1916.42753320254</ele>
        <time>2021-08-03T19:05:08.524Z</time>
      </trkpt>
      <trkpt lat="42.90662169456" lon="0.15554666519">
        <ele>1919.08987441975</ele>
        <time>2021-08-03T19:05:14.882Z</time>
      </trkpt>
      <trkpt lat="42.9065681342" lon="0.15537500381">
        <ele>1921.47080259214</ele>
        <time>2021-08-03T19:05:21.243Z</time>
      </trkpt>
      <trkpt lat="42.90653586388" lon="0.15524625778">
        <ele>1923.75630314412</ele>
        <time>2021-08-03T19:05:27.605Z</time>
      </trkpt>
      <trkpt lat="42.9065144062" lon="0.15509605408">
        <ele>1925.99282349725</ele>
        <time>2021-08-03T19:05:33.969Z</time>
      </trkpt>
      <trkpt lat="42.90650367737" lon="0.15440940857">
        <ele>1928.46744202566</ele>
        <time>2021-08-03T19:05:40.341Z</time>
      </trkpt>
      <trkpt lat="42.90652513504" lon="0.15407681465">
        <ele>1930.55539896475</ele>
        <time>2021-08-03T19:05:46.717Z</time>
      </trkpt>
      <trkpt lat="42.90657877922" lon="0.15395879745">
        <ele>1932.56799683959</ele>
        <time>2021-08-03T19:05:53.095Z</time>
      </trkpt>
      <trkpt lat="42.9066324234" lon="0.15389442444">
        <ele>1934.50737106534</ele>
        <time>2021-08-03T19:05:59.474Z</time>
      </trkpt>
      <trkpt lat="42.90666460991" lon="0.15387296677">
        <ele>1936.3598820644</ele>
        <time>2021-08-03T19:06:05.853Z</time>
      </trkpt>
      <trkpt lat="42.90673971176" lon="0.15390515327">
        <ele>1938.18430525063</ele>
        <time>2021-08-03T19:06:12.234Z</time>
      </trkpt>
      <trkpt lat="42.90679335594" lon="0.15403389931">
        <ele>1939.94248220738</ele>
        <time>2021-08-03T19:06:18.616Z</time>
      </trkpt>
      <trkpt lat="42.90673971176" lon="0.15442013741">
        <ele>1941.49320800084</ele>
        <time>2021-08-03T19:06:25.003Z</time>
      </trkpt>
      <trkpt lat="42.90672898293" lon="0.15461325645">
        <ele>1943.0696053289</ele>
        <time>2021-08-03T19:06:31.392Z</time>
      </trkpt>
      <trkpt lat="42.90677189827" lon="0.15478491783">
        <ele>1944.59379026434</ele>
        <time>2021-08-03T19:06:37.783Z</time>
      </trkpt>
      <trkpt lat="42.90688991547" lon="0.15496730804">
        <ele>1946.18650813682</ele>
        <time>2021-08-03T19:06:44.177Z</time>
      </trkpt>
      <trkpt lat="42.9071688652" lon="0.15529990196">
        <ele>1947.88469466188</ele>
        <time>2021-08-03T19:06:50.577Z</time>
      </trkpt>
      <trkpt lat="42.90729761124" lon="0.15551447868">
        <ele>1949.40844373636</ele>
        <time>2021-08-03T19:06:56.980Z</time>
      </trkpt>
      <trkpt lat="42.90736198425" lon="0.1555788517">
        <ele>1950.91594844328</ele>
        <time>2021-08-03T19:07:03.385Z</time>
      </trkpt>
      <trkpt lat="42.90757656097" lon="0.15563249588">
        <ele>1952.62462569235</ele>
        <time>2021-08-03T19:07:09.793Z</time>
      </trkpt>
      <trkpt lat="42.90783413686" lon="0.15594363213">
        <ele>1954.09728759488</ele>
        <time>2021-08-03T19:07:16.207Z</time>
      </trkpt>
      <trkpt lat="42.90797352791" lon="0.15615820885">
        <ele>1955.5026487963</ele>
        <time>2021-08-03T19:07:22.624Z</time>
      </trkpt>
      <trkpt lat="42.9080593586" lon="0.15624403954">
        <ele>1956.94029170374</ele>
        <time>2021-08-03T19:07:29.043Z</time>
      </trkpt>
      <trkpt lat="42.90814518929" lon="0.15625476837">
        <ele>1958.42935514358</ele>
        <time>2021-08-03T19:07:35.463Z</time>
      </trkpt>
      <trkpt lat="42.90831685066" lon="0.15619039536">
        <ele>1960.06568996795</ele>
        <time>2021-08-03T19:07:41.886Z</time>
      </trkpt>
      <trkpt lat="42.90838122368" lon="0.15621185303">
        <ele>1961.50763084418</ele>
        <time>2021-08-03T19:07:48.310Z</time>
      </trkpt>
      <trkpt lat="42.90857434273" lon="0.15634059906">
        <ele>1962.92114473857</ele>
        <time>2021-08-03T19:07:54.738Z</time>
      </trkpt>
      <trkpt lat="42.90889620781" lon="0.15641570091">
        <ele>1964.44096039062</ele>
        <time>2021-08-03T19:08:01.171Z</time>
      </trkpt>
      <trkpt lat="42.90899285115" lon="0.1563835144">
        <ele>1965.90460903997</ele>
        <time>2021-08-03T19:08:07.605Z</time>
      </trkpt>
      <trkpt lat="42.90921807289" lon="0.15619039536">
        <ele>1967.55291006457</ele>
        <time>2021-08-03T19:08:14.044Z</time>
      </trkpt>
      <trkpt lat="42.90941119194" lon="0.15605092049">
        <ele>1969.08326796831</ele>
        <time>2021-08-03T19:08:20.486Z</time>
      </trkpt>
      <trkpt lat="42.90955066681" lon="0.15599727631">
        <ele>1970.54184686748</ele>
        <time>2021-08-03T19:08:26.930Z</time>
      </trkpt>
      <trkpt lat="42.9096364975" lon="0.15598654747">
        <ele>1971.94703438247</ele>
        <time>2021-08-03T19:08:33.376Z</time>
      </trkpt>
      <trkpt lat="42.90971159935" lon="0.15601873398">
        <ele>1973.32306227636</ele>
        <time>2021-08-03T19:08:39.823Z</time>
      </trkpt>
      <trkpt lat="42.90984034538" lon="0.15620112419">
        <ele>1974.6554863999</ele>
        <time>2021-08-03T19:08:46.273Z</time>
      </trkpt>
      <trkpt lat="42.90995836258" lon="0.15626549721">
        <ele>1976.04030484969</ele>
        <time>2021-08-03T19:08:52.725Z</time>
      </trkpt>
      <trkpt lat="42.91004419327" lon="0.15625476837">
        <ele>1977.4490184952</ele>
        <time>2021-08-03T19:08:59.178Z</time>
      </trkpt>
      <trkpt lat="42.91011937894" lon="0.15619039536">
        <ele>1978.9454253415</ele>
        <time>2021-08-03T19:09:05.633Z</time>
      </trkpt>
      <trkpt lat="42.91015148163" lon="0.1561152935">
        <ele>1980.4154187823</ele>
        <time>2021-08-03T19:09:12.089Z</time>
      </trkpt>
      <trkpt lat="42.91016221046" lon="0.15598654747">
        <ele>1981.89773387096</ele>
        <time>2021-08-03T19:09:18.546Z</time>
      </trkpt>
      <trkpt lat="42.91013002396" lon="0.15585780144">
        <ele>1983.33195578262</ele>
        <time>2021-08-03T19:09:25.005Z</time>
      </trkpt>
      <trkpt lat="42.91003346443" lon="0.1556968689">
        <ele>1984.73941284066</ele>
        <time>2021-08-03T19:09:31.466Z</time>
      </trkpt>
      <trkpt lat="42.9099047184" lon="0.15555739403">
        <ele>1986.19491175989</ele>
        <time>2021-08-03T19:09:37.930Z</time>
      </trkpt>
      <trkpt lat="42.90967941284" lon="0.15539646149">
        <ele>1987.65179606057</ele>
        <time>2021-08-03T19:09:44.398Z</time>
      </trkpt>
      <trkpt lat="42.90958285332" lon="0.15529990196">
        <ele>1989.2085724859</ele>
        <time>2021-08-03T19:09:50.868Z</time>
      </trkpt>
      <trkpt lat="42.90933617391" lon="0.15491366386">
        <ele>1990.99802873856</ele>
        <time>2021-08-03T19:09:57.344Z</time>
      </trkpt>
      <trkpt lat="42.90923953056" lon="0.15476346016">
        <ele>1992.68691880944</ele>
        <time>2021-08-03T19:10:03.822Z</time>
      </trkpt>
      <trkpt lat="42.90912151337" lon="0.15462398529">
        <ele>1994.39442833527</ele>
        <time>2021-08-03T19:10:10.303Z</time>
      </trkpt>
      <trkpt lat="42.90887475014" lon="0.15461325645">
        <ele>1995.93804552022</ele>
        <time>2021-08-03T19:10:16.788Z</time>
      </trkpt>
      <trkpt lat="42.90877819061" lon="0.15457034111">
        <ele>1997.64548081074</ele>
        <time>2021-08-03T19:10:23.275Z</time>
      </trkpt>
      <trkpt lat="42.90870308876" lon="0.15447378159">
        <ele>1999.45375457717</ele>
        <time>2021-08-03T19:10:29.763Z</time>
      </trkpt>
      <trkpt lat="42.90846705437" lon="0.1538836956">
        <ele>2001.55053970273</ele>
        <time>2021-08-03T19:10:36.259Z</time>
      </trkpt>
      <trkpt lat="42.90841341019" lon="0.15365839005">
        <ele>2003.54868009214</ele>
        <time>2021-08-03T19:10:42.758Z</time>
      </trkpt>
      <trkpt lat="42.90840268135" lon="0.15350818634">
        <ele>2005.56482565384</ele>
        <time>2021-08-03T19:10:49.259Z</time>
      </trkpt>
      <trkpt lat="42.90841341019" lon="0.15335798264">
        <ele>2007.64748066788</ele>
        <time>2021-08-03T19:10:55.761Z</time>
      </trkpt>
      <trkpt lat="42.90845632553" lon="0.15317559242">
        <ele>2009.81992026654</ele>
        <time>2021-08-03T19:11:02.266Z</time>
      </trkpt>
      <trkpt lat="42.90875673294" lon="0.15238165855">
        <ele>2012.24108189454</ele>
        <time>2021-08-03T19:11:08.781Z</time>
      </trkpt>
      <trkpt lat="42.90884256363" lon="0.15189886093">
        <ele>2014.53653093849</ele>
        <time>2021-08-03T19:11:15.302Z</time>
      </trkpt>
      <trkpt lat="42.90901422501" lon="0.15127658844">
        <ele>2017.06734586477</ele>
        <time>2021-08-03T19:11:21.831Z</time>
      </trkpt>
      <trkpt lat="42.90896066464" lon="0.15093326569">
        <ele>2019.29805400192</ele>
        <time>2021-08-03T19:11:28.364Z</time>
      </trkpt>
      <trkpt lat="42.90885329247" lon="0.15054702759">
        <ele>2021.50757460032</ele>
        <time>2021-08-03T19:11:34.902Z</time>
      </trkpt>
      <trkpt lat="42.90876746178" lon="0.15033245087">
        <ele>2023.75083839226</ele>
        <time>2021-08-03T19:11:41.443Z</time>
      </trkpt>
      <trkpt lat="42.90863871574" lon="0.15009641647">
        <ele>2026.01257499098</ele>
        <time>2021-08-03T19:11:47.987Z</time>
      </trkpt>
      <trkpt lat="42.9085958004" lon="0.1499247551">
        <ele>2028.37237829014</ele>
        <time>2021-08-03T19:11:54.533Z</time>
      </trkpt>
      <trkpt lat="42.90857434273" lon="0.14966726303">
        <ele>2030.82376915239</ele>
        <time>2021-08-03T19:12:01.082Z</time>
      </trkpt>
      <trkpt lat="42.90858507156" lon="0.14952778816">
        <ele>2033.28837615208</ele>
        <time>2021-08-03T19:12:07.633Z</time>
      </trkpt>
      <trkpt lat="42.90868163109" lon="0.14910936356">
        <ele>2036.1970628303</ele>
        <time>2021-08-03T19:12:14.189Z</time>
      </trkpt>
      <trkpt lat="42.90867098607" lon="0.14901280403">
        <ele>2038.63207804818</ele>
        <time>2021-08-03T19:12:20.746Z</time>
      </trkpt>
      <trkpt lat="42.90860661305" lon="0.14891624451">
        <ele>2041.01195703104</ele>
        <time>2021-08-03T19:12:27.305Z</time>
      </trkpt>
      <trkpt lat="42.90842413902" lon="0.148884058">
        <ele>2043.247395754</ele>
        <time>2021-08-03T19:12:33.867Z</time>
      </trkpt>
      <trkpt lat="42.90819883347" lon="0.14890551567">
        <ele>2045.5843091943</ele>
        <time>2021-08-03T19:12:40.432Z</time>
      </trkpt>
      <trkpt lat="42.90799498558" lon="0.148884058">
        <ele>2048.00681087343</ele>
        <time>2021-08-03T19:12:47.001Z</time>
      </trkpt>
      <trkpt lat="42.90771603584" lon="0.14872312546">
        <ele>2050.59113127337</ele>
        <time>2021-08-03T19:12:53.574Z</time>
      </trkpt>
      <trkpt lat="42.90739417076" lon="0.14874458313">
        <ele>2052.95881812074</ele>
        <time>2021-08-03T19:13:00.153Z</time>
      </trkpt>
      <trkpt lat="42.90725477971" lon="0.14865875244">
        <ele>2055.49535599146</ele>
        <time>2021-08-03T19:13:06.734Z</time>
      </trkpt>
      <trkpt lat="42.90725469589" lon="0.14865875244">
        <ele>2057.95945216959</ele>
        <time>2021-08-03T19:13:13.315Z</time>
      </trkpt>
      <trkpt lat="42.90705084801" lon="0.14848709106">
        <ele>2060.62458702763</ele>
        <time>2021-08-03T19:13:19.900Z</time>
      </trkpt>
      <trkpt lat="42.90671825409" lon="0.14825105667">
        <ele>2063.36802897299</ele>
        <time>2021-08-03T19:13:26.491Z</time>
      </trkpt>
      <trkpt lat="42.90653586388" lon="0.14819741249">
        <ele>2066.02653684239</ele>
        <time>2021-08-03T19:13:33.085Z</time>
      </trkpt>
      <trkpt lat="42.90638566017" lon="0.14818668365">
        <ele>2068.60653292658</ele>
        <time>2021-08-03T19:13:39.681Z</time>
      </trkpt>
      <trkpt lat="42.90613889694" lon="0.14831542969">
        <ele>2071.06358415647</ele>
        <time>2021-08-03T19:13:46.282Z</time>
      </trkpt>
      <trkpt lat="42.90608533658" lon="0.14829397202">
        <ele>2073.60233591338</ele>
        <time>2021-08-03T19:13:52.883Z</time>
      </trkpt>
      <trkpt lat="42.90604242124" lon="0.14828324318">
        <ele>2076.10830275714</ele>
        <time>2021-08-03T19:13:59.485Z</time>
      </trkpt>
      <trkpt lat="42.90599942207" lon="0.14820814133">
        <ele>2078.67539208712</ele>
        <time>2021-08-03T19:14:06.088Z</time>
      </trkpt>
      <trkpt lat="42.90599942207" lon="0.14810085297">
        <ele>2081.22743156218</ele>
        <time>2021-08-03T19:14:12.693Z</time>
      </trkpt>
      <trkpt lat="42.90606379509" lon="0.14802575111">
        <ele>2083.68122989117</ele>
        <time>2021-08-03T19:14:19.299Z</time>
      </trkpt>
      <trkpt lat="42.90608533658" lon="0.14801502228">
        <ele>2086.0444612547</ele>
        <time>2021-08-03T19:14:25.905Z</time>
      </trkpt>
      <trkpt lat="42.90629982948" lon="0.14789700508">
        <ele>2088.40125034759</ele>
        <time>2021-08-03T19:14:32.515Z</time>
      </trkpt>
      <trkpt lat="42.90694355965" lon="0.1477253437">
        <ele>2090.65790022332</ele>
        <time>2021-08-03T19:14:39.135Z</time>
      </trkpt>
      <trkpt lat="42.90731915273" lon="0.14760732651">
        <ele>2093.00692324942</ele>
        <time>2021-08-03T19:14:45.762Z</time>
      </trkpt>
      <trkpt lat="42.90731906891" lon="0.14760732651">
        <ele>2095.15835374412</ele>
        <time>2021-08-03T19:14:52.389Z</time>
      </trkpt>
      <trkpt lat="42.9073406104" lon="0.14758586884">
        <ele>2097.25817951407</ele>
        <time>2021-08-03T19:14:59.016Z</time>
      </trkpt>
      <trkpt lat="42.90749073029" lon="0.1474571228">
        <ele>2099.37999684876</ele>
        <time>2021-08-03T19:15:05.646Z</time>
      </trkpt>
      <trkpt lat="42.90761947632" lon="0.1473069191">
        <ele>2101.44175992306</ele>
        <time>2021-08-03T19:15:12.279Z</time>
      </trkpt>
      <trkpt lat="42.90854215622" lon="0.14610528946">
        <ele>2104.05999379838</ele>
        <time>2021-08-03T19:15:18.932Z</time>
      </trkpt>
      <trkpt lat="42.90858507156" lon="0.14600872993">
        <ele>2105.80463069545</ele>
        <time>2021-08-03T19:15:25.586Z</time>
      </trkpt>
      <trkpt lat="42.90861734189" lon="0.14589071274">
        <ele>2107.43103698734</ele>
        <time>2021-08-03T19:15:32.242Z</time>
      </trkpt>
      <trkpt lat="42.90861725807" lon="0.14589071274">
        <ele>2108.82037950769</ele>
        <time>2021-08-03T19:15:38.898Z</time>
      </trkpt>
      <trkpt lat="42.9085958004" lon="0.14576196671">
        <ele>2110.15776913617</ele>
        <time>2021-08-03T19:15:45.555Z</time>
      </trkpt>
      <trkpt lat="42.90839203633" lon="0.14527916908">
        <ele>2111.49380477738</ele>
        <time>2021-08-03T19:15:52.219Z</time>
      </trkpt>
      <trkpt lat="42.90825256146" lon="0.1450753212">
        <ele>2112.29651314406</ele>
        <time>2021-08-03T19:15:58.886Z</time>
      </trkpt>
      <trkpt lat="42.90803790092" lon="0.14510750771">
        <ele>2112.88810286533</ele>
        <time>2021-08-03T19:16:05.557Z</time>
      </trkpt>
      <trkpt lat="42.90793061256" lon="0.14517188072">
        <ele>2113.54918285224</ele>
        <time>2021-08-03T19:16:12.230Z</time>
      </trkpt>
      <trkpt lat="42.90781267919" lon="0.14520406723">
        <ele>2113.99946886495</ele>
        <time>2021-08-03T19:16:18.904Z</time>
      </trkpt>
      <trkpt lat="42.90781259537" lon="0.14520406723">
        <ele>2114.19057547858</ele>
        <time>2021-08-03T19:16:25.578Z</time>
      </trkpt>
      <trkpt lat="42.90748000145" lon="0.14511823654">
        <ele>2114.09088971314</ele>
        <time>2021-08-03T19:16:32.258Z</time>
      </trkpt>
      <trkpt lat="42.90737271309" lon="0.14511823654">
        <ele>2113.79640827416</ele>
        <time>2021-08-03T19:16:38.940Z</time>
      </trkpt>
      <trkpt lat="42.90695428848" lon="0.14519333839">
        <ele>2113.19101417338</ele>
        <time>2021-08-03T19:16:45.628Z</time>
      </trkpt>
      <trkpt lat="42.90682554245" lon="0.14528989792">
        <ele>2112.734100016</ele>
        <time>2021-08-03T19:16:52.319Z</time>
      </trkpt>
      <trkpt lat="42.9066324234" lon="0.14559030533">
        <ele>2112.06983046218</ele>
        <time>2021-08-03T19:16:59.014Z</time>
      </trkpt>
      <trkpt lat="42.90631055832" lon="0.14583706856">
        <ele>2110.69141981426</ele>
        <time>2021-08-03T19:17:05.715Z</time>
      </trkpt>
      <trkpt lat="42.90611743927" lon="0.14600872993">
        <ele>2109.82218809101</ele>
        <time>2021-08-03T19:17:12.420Z</time>
      </trkpt>
      <trkpt lat="42.9059779644" lon="0.14615893364">
        <ele>2108.83704200025</ele>
        <time>2021-08-03T19:17:19.128Z</time>
      </trkpt>
      <trkpt lat="42.90580630302" lon="0.14640569687">
        <ele>2107.61722954527</ele>
        <time>2021-08-03T19:17:25.840Z</time>
      </trkpt>
      <trkpt lat="42.90563464165" lon="0.14655590057">
        <ele>2106.07774076702</ele>
        <time>2021-08-03T19:17:32.555Z</time>
      </trkpt>
      <trkpt lat="42.90529131889" lon="0.14670610428">
        <ele>2104.59351380082</ele>
        <time>2021-08-03T19:17:39.276Z</time>
      </trkpt>
      <trkpt lat="42.9052054882" lon="0.14670610428">
        <ele>2103.0435553145</ele>
        <time>2021-08-03T19:17:45.998Z</time>
      </trkpt>
      <trkpt lat="42.90517338552" lon="0.14666318893">
        <ele>2101.27293884872</ele>
        <time>2021-08-03T19:17:52.721Z</time>
      </trkpt>
      <trkpt lat="42.9051733017" lon="0.14666318893">
        <ele>2099.44670275837</ele>
        <time>2021-08-03T19:17:59.444Z</time>
      </trkpt>
      <trkpt lat="42.90516257286" lon="0.14658808708">
        <ele>2097.4019101245</ele>
        <time>2021-08-03T19:18:06.168Z</time>
      </trkpt>
      <trkpt lat="42.90522694588" lon="0.14651298523">
        <ele>2095.21341831054</ele>
        <time>2021-08-03T19:18:12.893Z</time>
      </trkpt>
      <trkpt lat="42.90547370911" lon="0.1464164257">
        <ele>2093.22293448182</ele>
        <time>2021-08-03T19:18:19.622Z</time>
      </trkpt>
      <trkpt lat="42.90558099747" lon="0.14634132385">
        <ele>2091.14739957321</ele>
        <time>2021-08-03T19:18:26.353Z</time>
      </trkpt>
      <trkpt lat="42.90587067604" lon="0.14586925507">
        <ele>2088.57576522476</ele>
        <time>2021-08-03T19:18:33.091Z</time>
      </trkpt>
      <trkpt lat="42.90594577789" lon="0.14568686485">
        <ele>2086.06172105381</ele>
        <time>2021-08-03T19:18:39.832Z</time>
      </trkpt>
      <trkpt lat="42.90598869324" lon="0.14544010162">
        <ele>2083.46338927748</ele>
        <time>2021-08-03T19:18:46.576Z</time>
      </trkpt>
      <trkpt lat="42.90605306625" lon="0.14520406723">
        <ele>2080.87308856501</ele>
        <time>2021-08-03T19:18:53.323Z</time>
      </trkpt>
      <trkpt lat="42.90625691414" lon="0.14471054077">
        <ele>2078.12674379273</ele>
        <time>2021-08-03T19:19:00.077Z</time>
      </trkpt>
      <trkpt lat="42.90635347366" lon="0.14459252357">
        <ele>2075.62903025287</ele>
        <time>2021-08-03T19:19:06.833Z</time>
      </trkpt>
      <trkpt lat="42.90647149086" lon="0.14451742172">
        <ele>2073.21747429763</ele>
        <time>2021-08-03T19:19:13.591Z</time>
      </trkpt>
      <trkpt lat="42.90679335594" lon="0.14435648918">
        <ele>2070.85001153037</ele>
        <time>2021-08-03T19:19:20.354Z</time>
      </trkpt>
      <trkpt lat="42.90699720383" lon="0.14422774315">
        <ele>2068.31199209547</ele>
        <time>2021-08-03T19:19:27.121Z</time>
      </trkpt>
      <trkpt lat="42.90714740753" lon="0.14407753944">
        <ele>2065.66429744051</ele>
        <time>2021-08-03T19:19:33.891Z</time>
      </trkpt>
      <trkpt lat="42.90739417076" lon="0.14390587807">
        <ele>2063.10419707211</ele>
        <time>2021-08-03T19:19:40.665Z</time>
      </trkpt>
      <trkpt lat="42.90745854378" lon="0.14379858971">
        <ele>2060.43766544295</ele>
        <time>2021-08-03T19:19:47.441Z</time>
      </trkpt>
      <trkpt lat="42.90749073029" lon="0.14362692833">
        <ele>2057.70704037098</ele>
        <time>2021-08-03T19:19:54.219Z</time>
      </trkpt>
      <trkpt lat="42.90746927261" lon="0.14333724976">
        <ele>2054.87060503788</ele>
        <time>2021-08-03T19:20:01.000Z</time>
      </trkpt>
      <trkpt lat="42.90742635727" lon="0.14314413071">
        <ele>2052.10751649292</ele>
        <time>2021-08-03T19:20:07.784Z</time>
      </trkpt>
      <trkpt lat="42.90726550855" lon="0.14274716377">
        <ele>2048.98981687493</ele>
        <time>2021-08-03T19:20:14.573Z</time>
      </trkpt>
      <trkpt lat="42.90720105171" lon="0.14261841774">
        <ele>2046.33666856211</ele>
        <time>2021-08-03T19:20:21.364Z</time>
      </trkpt>
      <trkpt lat="42.90717959404" lon="0.14242529869">
        <ele>2043.81809587077</ele>
        <time>2021-08-03T19:20:28.157Z</time>
      </trkpt>
      <trkpt lat="42.90720105171" lon="0.14221072197">
        <ele>2041.46143424841</ele>
        <time>2021-08-03T19:20:34.953Z</time>
      </trkpt>
      <trkpt lat="42.90724396706" lon="0.14199614525">
        <ele>2039.18325082787</ele>
        <time>2021-08-03T19:20:41.751Z</time>
      </trkpt>
      <trkpt lat="42.90738344193" lon="0.14147043228">
        <ele>2036.94108012636</ele>
        <time>2021-08-03T19:20:48.556Z</time>
      </trkpt>
      <trkpt lat="42.90743708611" lon="0.14128804207">
        <ele>2034.73037005059</ele>
        <time>2021-08-03T19:20:55.363Z</time>
      </trkpt>
      <trkpt lat="42.90774822235" lon="0.14082670212">
        <ele>2032.5496850773</ele>
        <time>2021-08-03T19:21:02.178Z</time>
      </trkpt>
      <trkpt lat="42.90791988373" lon="0.14065504074">
        <ele>2030.48721656792</ele>
        <time>2021-08-03T19:21:08.996Z</time>
      </trkpt>
      <trkpt lat="42.9080915451" lon="0.14035463333">
        <ele>2028.17749550338</ele>
        <time>2021-08-03T19:21:15.818Z</time>
      </trkpt>
      <trkpt lat="42.90829539299" lon="0.14018297195">
        <ele>2026.06480601426</ele>
        <time>2021-08-03T19:21:22.644Z</time>
      </trkpt>
      <trkpt lat="42.90843486786" lon="0.14009714127">
        <ele>2023.99393099948</ele>
        <time>2021-08-03T19:21:29.473Z</time>
      </trkpt>
      <trkpt lat="42.90875673294" lon="0.13966798782">
        <ele>2021.54499304847</ele>
        <time>2021-08-03T19:21:36.309Z</time>
      </trkpt>
      <trkpt lat="42.90883183479" lon="0.13959288597">
        <ele>2019.38797705194</ele>
        <time>2021-08-03T19:21:43.146Z</time>
      </trkpt>
      <trkpt lat="42.90906786919" lon="0.13942122459">
        <ele>2017.40292863889</ele>
        <time>2021-08-03T19:21:49.988Z</time>
      </trkpt>
      <trkpt lat="42.90917515755" lon="0.13936758041">
        <ele>2015.37548651084</ele>
        <time>2021-08-03T19:21:56.832Z</time>
      </trkpt>
      <trkpt lat="42.90950775146" lon="0.13932466507">
        <ele>2013.17746073179</ele>
        <time>2021-08-03T19:22:03.681Z</time>
      </trkpt>
      <trkpt lat="42.90982961655" lon="0.13937830925">
        <ele>2010.92415287277</ele>
        <time>2021-08-03T19:22:10.535Z</time>
      </trkpt>
      <trkpt lat="42.91007637978" lon="0.13933539391">
        <ele>2008.46336766325</ele>
        <time>2021-08-03T19:22:17.393Z</time>
      </trkpt>
      <trkpt lat="42.91025876999" lon="0.13933539391">
        <ele>2006.13541181928</ele>
        <time>2021-08-03T19:22:24.254Z</time>
      </trkpt>
      <trkpt lat="42.91052699089" lon="0.13937830925">
        <ele>2003.85278515432</ele>
        <time>2021-08-03T19:22:31.119Z</time>
      </trkpt>
      <trkpt lat="42.91087031364" lon="0.13948559761">
        <ele>2001.53300317054</ele>
        <time>2021-08-03T19:22:37.990Z</time>
      </trkpt>
      <trkpt lat="42.91115999222" lon="0.13950705528">
        <ele>1998.99386245902</ele>
        <time>2021-08-03T19:22:44.866Z</time>
      </trkpt>
      <trkpt lat="42.91122436523" lon="0.13948559761">
        <ele>1996.24999157654</ele>
        <time>2021-08-03T19:22:51.743Z</time>
      </trkpt>
      <trkpt lat="42.91129946709" lon="0.13942122459">
        <ele>1993.3312541626</ele>
        <time>2021-08-03T19:22:58.621Z</time>
      </trkpt>
      <trkpt lat="42.91139602661" lon="0.13912081718">
        <ele>1989.58601095249</ele>
        <time>2021-08-03T19:23:05.503Z</time>
      </trkpt>
      <trkpt lat="42.91170716286" lon="0.13850927353">
        <ele>1984.71753027657</ele>
        <time>2021-08-03T19:23:12.394Z</time>
      </trkpt>
      <trkpt lat="42.91181445122" lon="0.13843417168">
        <ele>1981.96183389223</ele>
        <time>2021-08-03T19:23:19.287Z</time>
      </trkpt>
      <trkpt lat="42.91196465492" lon="0.13839125633">
        <ele>1979.48670577249</ele>
        <time>2021-08-03T19:23:26.182Z</time>
      </trkpt>
      <trkpt lat="42.91211485863" lon="0.13836979866">
        <ele>1977.09514703266</ele>
        <time>2021-08-03T19:23:33.079Z</time>
      </trkpt>
      <trkpt lat="42.91228652" lon="0.13828396797">
        <ele>1974.28825231829</ele>
        <time>2021-08-03T19:23:39.979Z</time>
      </trkpt>
      <trkpt lat="42.91250109673" lon="0.13815522194">
        <ele>1971.31332869401</ele>
        <time>2021-08-03T19:23:46.883Z</time>
      </trkpt>
      <trkpt lat="42.91258692741" lon="0.13804793358">
        <ele>1968.4029427235</ele>
        <time>2021-08-03T19:23:53.789Z</time>
      </trkpt>
      <trkpt lat="42.91272640228" lon="0.13783335686">
        <ele>1965.90101103634</ele>
        <time>2021-08-03T19:24:00.698Z</time>
      </trkpt>
      <trkpt lat="42.91291952133" lon="0.13746857643">
        <ele>1963.73120661578</ele>
        <time>2021-08-03T19:24:07.613Z</time>
      </trkpt>
      <trkpt lat="42.91299462318" lon="0.13738274574">
        <ele>1961.26393237062</ele>
        <time>2021-08-03T19:24:14.529Z</time>
      </trkpt>
      <trkpt lat="42.9133272171" lon="0.13716816902">
        <ele>1958.57948209508</ele>
        <time>2021-08-03T19:24:21.451Z</time>
      </trkpt>
      <trkpt lat="42.91338086128" lon="0.13709306717">
        <ele>1956.41104623589</ele>
        <time>2021-08-03T19:24:28.374Z</time>
      </trkpt>
      <trkpt lat="42.91340240277" lon="0.13701796532">
        <ele>1954.58020808196</ele>
        <time>2021-08-03T19:24:35.298Z</time>
      </trkpt>
      <trkpt lat="42.91339159012" lon="0.13692140579">
        <ele>1952.84632593469</ele>
        <time>2021-08-03T19:24:42.223Z</time>
      </trkpt>
      <trkpt lat="42.91334867477" lon="0.1368355751">
        <ele>1951.23268807642</ele>
        <time>2021-08-03T19:24:49.150Z</time>
      </trkpt>
      <trkpt lat="42.91329503059" lon="0.13677120209">
        <ele>1949.78172151181</ele>
        <time>2021-08-03T19:24:56.078Z</time>
      </trkpt>
      <trkpt lat="42.91321992874" lon="0.13676047325">
        <ele>1948.50259051745</ele>
        <time>2021-08-03T19:25:03.007Z</time>
      </trkpt>
      <trkpt lat="42.91304826736" lon="0.13681411743">
        <ele>1947.33792161267</ele>
        <time>2021-08-03T19:25:09.939Z</time>
      </trkpt>
      <trkpt lat="42.91291952133" lon="0.1369535923">
        <ele>1946.6322301517</ele>
        <time>2021-08-03T19:25:16.873Z</time>
      </trkpt>
      <trkpt lat="42.91284441948" lon="0.13708233833">
        <ele>1946.081978743</ele>
        <time>2021-08-03T19:25:23.809Z</time>
      </trkpt>
      <trkpt lat="42.91272640228" lon="0.13739347458">
        <ele>1946.21484426739</ele>
        <time>2021-08-03T19:25:30.750Z</time>
      </trkpt>
      <trkpt lat="42.91260838509" lon="0.13758659363">
        <ele>1945.5829802646</ele>
        <time>2021-08-03T19:25:37.693Z</time>
      </trkpt>
      <trkpt lat="42.9125225544" lon="0.13767242432">
        <ele>1945.08563465094</ele>
        <time>2021-08-03T19:25:44.638Z</time>
      </trkpt>
      <trkpt lat="42.91230797768" lon="0.13780117035">
        <ele>1944.68010007893</ele>
        <time>2021-08-03T19:25:51.587Z</time>
      </trkpt>
      <trkpt lat="42.91216850281" lon="0.13785481453">
        <ele>1944.41277723801</ele>
        <time>2021-08-03T19:25:58.538Z</time>
      </trkpt>
      <trkpt lat="42.91206121445" lon="0.13786554337">
        <ele>1944.11678630708</ele>
        <time>2021-08-03T19:26:05.491Z</time>
      </trkpt>
      <trkpt lat="42.9118680954" lon="0.13784408569">
        <ele>1943.71052851395</ele>
        <time>2021-08-03T19:26:12.447Z</time>
      </trkpt>
      <trkpt lat="42.91158914566" lon="0.13788700104">
        <ele>1943.47056375467</ele>
        <time>2021-08-03T19:26:19.408Z</time>
      </trkpt>
      <trkpt lat="42.91149258614" lon="0.13797283173">
        <ele>1943.4341211228</ele>
        <time>2021-08-03T19:26:26.370Z</time>
      </trkpt>
      <trkpt lat="42.91124582291" lon="0.1382625103">
        <ele>1943.75891171019</ele>
        <time>2021-08-03T19:26:33.338Z</time>
      </trkpt>
      <trkpt lat="42.91106343269" lon="0.13855218887">
        <ele>1944.33068936045</ele>
        <time>2021-08-03T19:26:40.310Z</time>
      </trkpt>
      <trkpt lat="42.91102051735" lon="0.13857364655">
        <ele>1944.00455613838</ele>
        <time>2021-08-03T19:26:47.283Z</time>
      </trkpt>
      <trkpt lat="42.91093468666" lon="0.13856291771">
        <ele>1943.5181480771</ele>
        <time>2021-08-03T19:26:54.257Z</time>
      </trkpt>
      <trkpt lat="42.91089177132" lon="0.13854146004">
        <ele>1942.85292336761</ele>
        <time>2021-08-03T19:27:01.232Z</time>
      </trkpt>
      <trkpt lat="42.91065573692" lon="0.13810157776">
        <ele>1940.91456660596</ele>
        <time>2021-08-03T19:27:08.213Z</time>
      </trkpt>
      <trkpt lat="42.9105591774" lon="0.13804793358">
        <ele>1939.90483924109</ele>
        <time>2021-08-03T19:27:15.196Z</time>
      </trkpt>
      <trkpt lat="42.91045188904" lon="0.13803720474">
        <ele>1938.89337911353</ele>
        <time>2021-08-03T19:27:22.181Z</time>
      </trkpt>
      <trkpt lat="42.91015148163" lon="0.13805866241">
        <ele>1937.88129957012</ele>
        <time>2021-08-03T19:27:29.171Z</time>
      </trkpt>
      <trkpt lat="42.90982961655" lon="0.13801574707">
        <ele>1936.51216709957</ele>
        <time>2021-08-03T19:27:36.166Z</time>
      </trkpt>
      <trkpt lat="42.90955066681" lon="0.13800501823">
        <ele>1935.06578719767</ele>
        <time>2021-08-03T19:27:43.165Z</time>
      </trkpt>
      <trkpt lat="42.90932536125" lon="0.13796210289">
        <ele>1933.40567306427</ele>
        <time>2021-08-03T19:27:50.168Z</time>
      </trkpt>
      <trkpt lat="42.90892839432" lon="0.13781189919">
        <ele>1931.28386682187</ele>
        <time>2021-08-03T19:27:57.177Z</time>
      </trkpt>
      <trkpt lat="42.90860652924" lon="0.13780117035">
        <ele>1929.37813195807</ele>
        <time>2021-08-03T19:28:04.192Z</time>
      </trkpt>
      <trkpt lat="42.90835976601" lon="0.13780117035">
        <ele>1927.45777845184</ele>
        <time>2021-08-03T19:28:11.211Z</time>
      </trkpt>
      <trkpt lat="42.90825247765" lon="0.13785481453">
        <ele>1925.6786320285</ele>
        <time>2021-08-03T19:28:18.231Z</time>
      </trkpt>
      <trkpt lat="42.90784478188" lon="0.13810157776">
        <ele>1924.19521538026</ele>
        <time>2021-08-03T19:28:25.258Z</time>
      </trkpt>
      <trkpt lat="42.9075551033" lon="0.13846635818">
        <ele>1922.02439343726</ele>
        <time>2021-08-03T19:28:32.292Z</time>
      </trkpt>
      <trkpt lat="42.90738344193" lon="0.13859510422">
        <ele>1919.69606290616</ele>
        <time>2021-08-03T19:28:39.329Z</time>
      </trkpt>
      <trkpt lat="42.9072868824" lon="0.13860583305">
        <ele>1917.46521073459</ele>
        <time>2021-08-03T19:28:46.367Z</time>
      </trkpt>
      <trkpt lat="42.90706157684" lon="0.13856291771">
        <ele>1915.00407340335</ele>
        <time>2021-08-03T19:28:53.409Z</time>
      </trkpt>
      <trkpt lat="42.90694355965" lon="0.13858437538">
        <ele>1912.6699120676</ele>
        <time>2021-08-03T19:29:00.453Z</time>
      </trkpt>
      <trkpt lat="42.90655732155" lon="0.13870239258">
        <ele>1910.31127912875</ele>
        <time>2021-08-03T19:29:07.503Z</time>
      </trkpt>
      <trkpt lat="42.90641784668" lon="0.13870239258">
        <ele>1907.95352137682</ele>
        <time>2021-08-03T19:29:14.556Z</time>
      </trkpt>
      <trkpt lat="42.90629982948" lon="0.1386487484">
        <ele>1905.52751126951</ele>
        <time>2021-08-03T19:29:21.611Z</time>
      </trkpt>
      <trkpt lat="42.90619254112" lon="0.13857364655">
        <ele>1903.07643654148</ele>
        <time>2021-08-03T19:29:28.667Z</time>
      </trkpt>
      <trkpt lat="42.9060959816" lon="0.13843417168">
        <ele>1900.56401213419</ele>
        <time>2021-08-03T19:29:35.726Z</time>
      </trkpt>
      <trkpt lat="42.90576338768" lon="0.13827323914">
        <ele>1898.02060472947</ele>
        <time>2021-08-03T19:29:42.790Z</time>
      </trkpt>
      <trkpt lat="42.90557026863" lon="0.13810157776">
        <ele>1895.54687029002</ele>
        <time>2021-08-03T19:29:49.858Z</time>
      </trkpt>
      <trkpt lat="42.90540933609" lon="0.13792991638">
        <ele>1893.11594545094</ele>
        <time>2021-08-03T19:29:56.929Z</time>
      </trkpt>
      <trkpt lat="42.90531277657" lon="0.13776898384">
        <ele>1890.76522318184</ele>
        <time>2021-08-03T19:30:04.003Z</time>
      </trkpt>
      <trkpt lat="42.9052592162" lon="0.13761878014">
        <ele>1888.48748025296</ele>
        <time>2021-08-03T19:30:11.079Z</time>
      </trkpt>
      <trkpt lat="42.90525913239" lon="0.13761878014">
        <ele>1886.43032778579</ele>
        <time>2021-08-03T19:30:18.155Z</time>
      </trkpt>
      <trkpt lat="42.90514111519" lon="0.13741493225">
        <ele>1884.24738685087</ele>
        <time>2021-08-03T19:30:25.234Z</time>
      </trkpt>
      <trkpt lat="42.90498018265" lon="0.1372218132">
        <ele>1882.14561260221</ele>
        <time>2021-08-03T19:30:32.316Z</time>
      </trkpt>
      <trkpt lat="42.90485143661" lon="0.13711452484">
        <ele>1880.21285316226</ele>
        <time>2021-08-03T19:30:39.401Z</time>
      </trkpt>
      <trkpt lat="42.90469050407" lon="0.13709306717">
        <ele>1878.45342258052</ele>
        <time>2021-08-03T19:30:46.488Z</time>
      </trkpt>
      <trkpt lat="42.90448665619" lon="0.13714671135">
        <ele>1876.85834637034</ele>
        <time>2021-08-03T19:30:53.579Z</time>
      </trkpt>
      <trkpt lat="42.90437936783" lon="0.13714671135">
        <ele>1875.31842359607</ele>
        <time>2021-08-03T19:31:00.671Z</time>
      </trkpt>
      <trkpt lat="42.90407904424" lon="0.13708233833">
        <ele>1873.84451219317</ele>
        <time>2021-08-03T19:31:07.768Z</time>
      </trkpt>
      <trkpt lat="42.90382155217" lon="0.1369535923">
        <ele>1872.48944842027</ele>
        <time>2021-08-03T19:31:14.870Z</time>
      </trkpt>
      <trkpt lat="42.90371417999" lon="0.13687849045">
        <ele>1871.21586162997</ele>
        <time>2021-08-03T19:31:21.973Z</time>
      </trkpt>
      <trkpt lat="42.90366061963" lon="0.13681411743">
        <ele>1870.0159186861</ele>
        <time>2021-08-03T19:31:29.078Z</time>
      </trkpt>
      <trkpt lat="42.90357470512" lon="0.13652443886">
        <ele>1868.7774623301</ele>
        <time>2021-08-03T19:31:36.186Z</time>
      </trkpt>
      <trkpt lat="42.90349960327" lon="0.13638496399">
        <ele>1867.68183772477</ele>
        <time>2021-08-03T19:31:43.296Z</time>
      </trkpt>
      <trkpt lat="42.90342450142" lon="0.1362991333">
        <ele>1866.67258353706</ele>
        <time>2021-08-03T19:31:50.408Z</time>
      </trkpt>
      <trkpt lat="42.90331721306" lon="0.13620257378">
        <ele>1865.74197758841</ele>
        <time>2021-08-03T19:31:57.522Z</time>
      </trkpt>
      <trkpt lat="42.90318846703" lon="0.13612747192">
        <ele>1864.87589975866</ele>
        <time>2021-08-03T19:32:04.638Z</time>
      </trkpt>
      <trkpt lat="42.90299534798" lon="0.13610601425">
        <ele>1864.08372938435</ele>
        <time>2021-08-03T19:32:11.757Z</time>
      </trkpt>
      <trkpt lat="42.90290960111" lon="0.13606309891">
        <ele>1863.25363212416</ele>
        <time>2021-08-03T19:32:18.878Z</time>
      </trkpt>
      <trkpt lat="42.90290951729" lon="0.13606309891">
        <ele>1862.40632601136</ele>
        <time>2021-08-03T19:32:25.999Z</time>
      </trkpt>
      <trkpt lat="42.90286660194" lon="0.13599872589">
        <ele>1861.54441909089</ele>
        <time>2021-08-03T19:32:33.121Z</time>
      </trkpt>
      <trkpt lat="42.90283441544" lon="0.13566613197">
        <ele>1860.55678462565</ele>
        <time>2021-08-03T19:32:40.247Z</time>
      </trkpt>
      <trkpt lat="42.90272712708" lon="0.13522624969">
        <ele>1859.62637490656</ele>
        <time>2021-08-03T19:32:47.378Z</time>
      </trkpt>
      <trkpt lat="42.90271639824" lon="0.13506531715">
        <ele>1858.69761009659</ele>
        <time>2021-08-03T19:32:54.511Z</time>
      </trkpt>
      <trkpt lat="42.90278077126" lon="0.13480782509">
        <ele>1857.67845318129</ele>
        <time>2021-08-03T19:33:01.647Z</time>
      </trkpt>
      <trkpt lat="42.90279150009" lon="0.13466835022">
        <ele>1856.47010528158</ele>
        <time>2021-08-03T19:33:08.785Z</time>
      </trkpt>
      <trkpt lat="42.90278077126" lon="0.13452887535">
        <ele>1855.19640776918</ele>
        <time>2021-08-03T19:33:15.925Z</time>
      </trkpt>
      <trkpt lat="42.90265202522" lon="0.13419628143">
        <ele>1853.76266907918</ele>
        <time>2021-08-03T19:33:23.069Z</time>
      </trkpt>
      <trkpt lat="42.90257692337" lon="0.13411045074">
        <ele>1852.459976244</ele>
        <time>2021-08-03T19:33:30.215Z</time>
      </trkpt>
      <trkpt lat="42.90234088898" lon="0.13401389122">
        <ele>1851.4030084225</ele>
        <time>2021-08-03T19:33:37.365Z</time>
      </trkpt>
      <trkpt lat="42.90226578712" lon="0.13392806053">
        <ele>1849.93618063999</ele>
        <time>2021-08-03T19:33:44.516Z</time>
      </trkpt>
      <trkpt lat="42.90223360062" lon="0.13381004333">
        <ele>1848.2306639504</ele>
        <time>2021-08-03T19:33:51.669Z</time>
      </trkpt>
      <trkpt lat="42.90222287178" lon="0.13359546661">
        <ele>1846.33041950011</ele>
        <time>2021-08-03T19:33:58.824Z</time>
      </trkpt>
      <trkpt lat="42.90219068527" lon="0.13335943222">
        <ele>1844.36098836043</ele>
        <time>2021-08-03T19:34:05.982Z</time>
      </trkpt>
      <trkpt lat="42.90193319321" lon="0.13268351555">
        <ele>1842.48795484797</ele>
        <time>2021-08-03T19:34:13.149Z</time>
      </trkpt>
      <trkpt lat="42.90192246437" lon="0.13258695602">
        <ele>1840.3453337723</ele>
        <time>2021-08-03T19:34:20.317Z</time>
      </trkpt>
      <trkpt lat="42.90193319321" lon="0.13247966766">
        <ele>1838.03522920423</ele>
        <time>2021-08-03T19:34:27.486Z</time>
      </trkpt>
      <trkpt lat="42.90197619237" lon="0.13240456581">
        <ele>1835.56176450896</ele>
        <time>2021-08-03T19:34:34.656Z</time>
      </trkpt>
      <trkpt lat="42.90202975273" lon="0.13236165047">
        <ele>1832.97945453079</ele>
        <time>2021-08-03T19:34:41.827Z</time>
      </trkpt>
      <trkpt lat="42.90229797363" lon="0.13234019279">
        <ele>1829.98172878566</ele>
        <time>2021-08-03T19:34:49.003Z</time>
      </trkpt>
      <trkpt lat="42.90267348289" lon="0.13224363327">
        <ele>1826.79171968238</ele>
        <time>2021-08-03T19:34:56.185Z</time>
      </trkpt>
      <trkpt lat="42.90274858475" lon="0.13220071793">
        <ele>1823.93037738376</ele>
        <time>2021-08-03T19:35:03.368Z</time>
      </trkpt>
      <trkpt lat="42.90281295776" lon="0.13213634491">
        <ele>1820.98399233294</ele>
        <time>2021-08-03T19:35:10.552Z</time>
      </trkpt>
      <trkpt lat="42.90310263634" lon="0.1316857338">
        <ele>1817.80284904964</ele>
        <time>2021-08-03T19:35:17.743Z</time>
      </trkpt>
      <trkpt lat="42.90327429771" lon="0.13151407242">
        <ele>1814.50333514441</ele>
        <time>2021-08-03T19:35:24.938Z</time>
      </trkpt>
      <trkpt lat="42.90332794189" lon="0.13142824173">
        <ele>1811.40009232551</ele>
        <time>2021-08-03T19:35:32.134Z</time>
      </trkpt>
      <trkpt lat="42.90338158607" lon="0.13128876686">
        <ele>1808.25637370014</ele>
        <time>2021-08-03T19:35:39.332Z</time>
      </trkpt>
      <trkpt lat="42.90340304375" lon="0.13114929199">
        <ele>1805.1516265631</ele>
        <time>2021-08-03T19:35:46.532Z</time>
      </trkpt>
      <trkpt lat="42.90333867073" lon="0.13084888458">
        <ele>1802.15368013688</ele>
        <time>2021-08-03T19:35:53.735Z</time>
      </trkpt>
      <trkpt lat="42.9033601284" lon="0.13069868088">
        <ele>1799.05199523612</ele>
        <time>2021-08-03T19:36:00.940Z</time>
      </trkpt>
      <trkpt lat="42.90339231491" lon="0.13054847717">
        <ele>1795.94638207879</ele>
        <time>2021-08-03T19:36:08.147Z</time>
      </trkpt>
      <trkpt lat="42.90355324745" lon="0.12995839119">
        <ele>1792.70529802192</ele>
        <time>2021-08-03T19:36:15.361Z</time>
      </trkpt>
      <trkpt lat="42.90373563766" lon="0.12944340706">
        <ele>1789.43512507525</ele>
        <time>2021-08-03T19:36:22.582Z</time>
      </trkpt>
      <trkpt lat="42.90375709534" lon="0.12932538986">
        <ele>1786.45977125595</ele>
        <time>2021-08-03T19:36:29.805Z</time>
      </trkpt>
      <trkpt lat="42.90377855301" lon="0.1290678978">
        <ele>1783.44161601855</ele>
        <time>2021-08-03T19:36:37.031Z</time>
      </trkpt>
      <trkpt lat="42.90377855301" lon="0.12877821922">
        <ele>1780.39398303938</ele>
        <time>2021-08-03T19:36:44.260Z</time>
      </trkpt>
      <trkpt lat="42.90357470512" lon="0.12810230255">
        <ele>1777.66047805328</ele>
        <time>2021-08-03T19:36:51.498Z</time>
      </trkpt>
      <trkpt lat="42.90356397629" lon="0.12794137001">
        <ele>1774.78948512608</ele>
        <time>2021-08-03T19:36:58.738Z</time>
      </trkpt>
      <trkpt lat="42.90358543396" lon="0.12780189514">
        <ele>1772.07530081419</ele>
        <time>2021-08-03T19:37:05.979Z</time>
      </trkpt>
      <trkpt lat="42.90363916196" lon="0.12760877609">
        <ele>1769.31754293129</ele>
        <time>2021-08-03T19:37:13.223Z</time>
      </trkpt>
      <trkpt lat="42.90372490883" lon="0.12740492821">
        <ele>1766.51855782689</ele>
        <time>2021-08-03T19:37:20.469Z</time>
      </trkpt>
      <trkpt lat="42.90373563766" lon="0.12723326683">
        <ele>1763.93878373441</ele>
        <time>2021-08-03T19:37:27.717Z</time>
      </trkpt>
      <trkpt lat="42.90371417999" lon="0.12702941895">
        <ele>1761.59455496151</ele>
        <time>2021-08-03T19:37:34.968Z</time>
      </trkpt>
      <trkpt lat="42.90371417999" lon="0.12690067291">
        <ele>1759.37116379672</ele>
        <time>2021-08-03T19:37:42.220Z</time>
      </trkpt>
      <trkpt lat="42.90377863683" lon="0.12665390968">
        <ele>1756.9850180873</ele>
        <time>2021-08-03T19:37:49.475Z</time>
      </trkpt>
      <trkpt lat="42.9038643837" lon="0.12647151947">
        <ele>1754.64482146278</ele>
        <time>2021-08-03T19:37:56.733Z</time>
      </trkpt>
      <trkpt lat="42.90386446752" lon="0.12634277344">
        <ele>1752.59721310586</ele>
        <time>2021-08-03T19:38:03.992Z</time>
      </trkpt>
      <trkpt lat="42.90387511253" lon="0.12603163719">
        <ele>1750.62463515967</ele>
        <time>2021-08-03T19:38:11.255Z</time>
      </trkpt>
      <trkpt lat="42.90396094322" lon="0.12555956841">
        <ele>1748.74358588328</ele>
        <time>2021-08-03T19:38:18.524Z</time>
      </trkpt>
      <trkpt lat="42.90390729904" lon="0.12488365173">
        <ele>1747.10016721408</ele>
        <time>2021-08-03T19:38:25.801Z</time>
      </trkpt>
      <trkpt lat="42.90393948555" lon="0.12478709221">
        <ele>1744.88320837015</ele>
        <time>2021-08-03T19:38:33.079Z</time>
      </trkpt>
      <trkpt lat="42.90398240089" lon="0.12472271919">
        <ele>1742.57757335879</ele>
        <time>2021-08-03T19:38:40.358Z</time>
      </trkpt>
      <trkpt lat="42.90412187576" lon="0.12462615967">
        <ele>1739.91379462865</ele>
        <time>2021-08-03T19:38:47.640Z</time>
      </trkpt>
      <trkpt lat="42.90418624878" lon="0.12454032898">
        <ele>1737.46944658598</ele>
        <time>2021-08-03T19:38:54.923Z</time>
      </trkpt>
      <trkpt lat="42.90433645248" lon="0.12399315834">
        <ele>1735.24272763097</ele>
        <time>2021-08-03T19:39:02.213Z</time>
      </trkpt>
      <trkpt lat="42.9043365363" lon="0.12399315834">
        <ele>1732.70867310428</ele>
        <time>2021-08-03T19:39:09.503Z</time>
      </trkpt>
      <trkpt lat="42.90461540222" lon="0.12294173241">
        <ele>1730.07926249802</ele>
        <time>2021-08-03T19:39:16.806Z</time>
      </trkpt>
      <trkpt lat="42.90463685989" lon="0.12274861336">
        <ele>1727.31336588612</ele>
        <time>2021-08-03T19:39:24.111Z</time>
      </trkpt>
      <trkpt lat="42.90462613106" lon="0.12242674828">
        <ele>1724.4166809042</ele>
        <time>2021-08-03T19:39:31.420Z</time>
      </trkpt>
      <trkpt lat="42.90465831757" lon="0.12230873108">
        <ele>1721.20843741536</ele>
        <time>2021-08-03T19:39:38.731Z</time>
      </trkpt>
      <trkpt lat="42.90477633476" lon="0.12216925621">
        <ele>1717.68083668348</ele>
        <time>2021-08-03T19:39:46.044Z</time>
      </trkpt>
      <trkpt lat="42.90481925011" lon="0.12207269669">
        <ele>1714.1545474982</ele>
        <time>2021-08-03T19:39:53.358Z</time>
      </trkpt>
      <trkpt lat="42.90501236916" lon="0.12124657631">
        <ele>1710.48101342511</ele>
        <time>2021-08-03T19:40:00.683Z</time>
      </trkpt>
      <trkpt lat="42.90508747101" lon="0.12107491493">
        <ele>1706.81024001579</ele>
        <time>2021-08-03T19:40:08.010Z</time>
      </trkpt>
      <trkpt lat="42.9051733017" lon="0.12092471123">
        <ele>1702.91950821696</ele>
        <time>2021-08-03T19:40:15.339Z</time>
      </trkpt>
      <trkpt lat="42.9053235054" lon="0.12048482895">
        <ele>1698.90062047361</ele>
        <time>2021-08-03T19:40:22.674Z</time>
      </trkpt>
      <trkpt lat="42.90532358922" lon="0.12048482895">
        <ele>1694.71099124588</ele>
        <time>2021-08-03T19:40:30.009Z</time>
      </trkpt>
      <trkpt lat="42.90538787842" lon="0.12020587921">
        <ele>1690.39928827296</ele>
        <time>2021-08-03T19:40:37.347Z</time>
      </trkpt>
      <trkpt lat="42.90539860725" lon="0.11996984482">
        <ele>1686.08515175244</ele>
        <time>2021-08-03T19:40:44.688Z</time>
      </trkpt>
      <trkpt lat="42.90537714958" lon="0.11914372444">
        <ele>1680.81824327053</ele>
        <time>2021-08-03T19:40:52.039Z</time>
      </trkpt>
      <trkpt lat="42.90539860725" lon="0.1188647747">
        <ele>1675.83507171093</ele>
        <time>2021-08-03T19:40:59.393Z</time>
      </trkpt>
      <trkpt lat="42.90533423424" lon="0.11849999428">
        <ele>1670.8866337431</ele>
        <time>2021-08-03T19:41:06.752Z</time>
      </trkpt>
      <trkpt lat="42.90518403053" lon="0.11788845062">
        <ele>1665.78183804509</ele>
        <time>2021-08-03T19:41:14.118Z</time>
      </trkpt>
      <trkpt lat="42.90525913239" lon="0.1171374321">
        <ele>1659.70209079056</ele>
        <time>2021-08-03T19:41:21.493Z</time>
      </trkpt>
      <trkpt lat="42.90526986122" lon="0.11681556702">
        <ele>1654.64589437935</ele>
        <time>2021-08-03T19:41:28.872Z</time>
      </trkpt>
      <trkpt lat="42.90521621704" lon="0.11634349823">
        <ele>1649.57906761129</ele>
        <time>2021-08-03T19:41:36.257Z</time>
      </trkpt>
      <trkpt lat="42.90521621704" lon="0.11395096779">
        <ele>1643.89327745604</ele>
        <time>2021-08-03T19:41:43.670Z</time>
      </trkpt>
      <trkpt lat="42.90518403053" lon="0.11379003525">
        <ele>1639.87722986515</ele>
        <time>2021-08-03T19:41:51.085Z</time>
      </trkpt>
      <trkpt lat="42.90496945381" lon="0.11338233948">
        <ele>1636.16820631777</ele>
        <time>2021-08-03T19:41:58.506Z</time>
      </trkpt>
      <trkpt lat="42.90484070778" lon="0.11298537254">
        <ele>1632.73792863989</ele>
        <time>2021-08-03T19:42:05.932Z</time>
      </trkpt>
      <trkpt lat="42.90479779243" lon="0.11282444">
        <ele>1629.48125825382</ele>
        <time>2021-08-03T19:42:13.360Z</time>
      </trkpt>
      <trkpt lat="42.90474414825" lon="0.11237382889">
        <ele>1626.3537257915</ele>
        <time>2021-08-03T19:42:20.793Z</time>
      </trkpt>
      <trkpt lat="42.90462613106" lon="0.11193394661">
        <ele>1623.64442302247</ele>
        <time>2021-08-03T19:42:28.231Z</time>
      </trkpt>
      <trkpt lat="42.90447592735" lon="0.11148333549">
        <ele>1621.25989212713</ele>
        <time>2021-08-03T19:42:35.675Z</time>
      </trkpt>
      <trkpt lat="42.90405750275" lon="0.10994911194">
        <ele>1619.69574213063</ele>
        <time>2021-08-03T19:42:43.139Z</time>
      </trkpt>
      <trkpt lat="42.90398240089" lon="0.10958433151">
        <ele>1617.86853118871</ele>
        <time>2021-08-03T19:42:50.607Z</time>
      </trkpt>
      <trkpt lat="42.90393948555" lon="0.10947704315">
        <ele>1616.09529152818</ele>
        <time>2021-08-03T19:42:58.076Z</time>
      </trkpt>
      <trkpt lat="42.90371417999" lon="0.10909080505">
        <ele>1614.7906554042</ele>
        <time>2021-08-03T19:43:05.551Z</time>
      </trkpt>
      <trkpt lat="42.90332794189" lon="0.10824322701">
        <ele>1613.70770669697</ele>
        <time>2021-08-03T19:43:13.038Z</time>
      </trkpt>
      <trkpt lat="42.90327429771" lon="0.10815739632">
        <ele>1612.35168163108</ele>
        <time>2021-08-03T19:43:20.526Z</time>
      </trkpt>
      <trkpt lat="42.90319919586" lon="0.10813593864">
        <ele>1611.13750981627</ele>
        <time>2021-08-03T19:43:28.016Z</time>
      </trkpt>
      <trkpt lat="42.90278077126" lon="0.10816812515">
        <ele>1610.18679113351</ele>
        <time>2021-08-03T19:43:35.512Z</time>
      </trkpt>
      <trkpt lat="42.90250182152" lon="0.10822176933">
        <ele>1609.52594431754</ele>
        <time>2021-08-03T19:43:43.013Z</time>
      </trkpt>
      <trkpt lat="42.90210485458" lon="0.10833978653">
        <ele>1608.32351115525</ele>
        <time>2021-08-03T19:43:50.520Z</time>
      </trkpt>
      <trkpt lat="42.90164351463" lon="0.10843634605">
        <ele>1606.92132681163</ele>
        <time>2021-08-03T19:43:58.035Z</time>
      </trkpt>
      <trkpt lat="42.90106415749" lon="0.10860800743">
        <ele>1605.70935312933</ele>
        <time>2021-08-03T19:44:05.559Z</time>
      </trkpt>
      <trkpt lat="42.90017366409" lon="0.10890841484">
        <ele>1604.88724981981</ele>
        <time>2021-08-03T19:44:13.098Z</time>
      </trkpt>
      <trkpt lat="42.90001273155" lon="0.10891914368">
        <ele>1603.83658684088</ele>
        <time>2021-08-03T19:44:20.639Z</time>
      </trkpt>
      <trkpt lat="42.89969086647" lon="0.108897686">
        <ele>1602.6945459997</ele>
        <time>2021-08-03T19:44:28.186Z</time>
      </trkpt>
      <trkpt lat="42.89932608604" lon="0.10891914368">
        <ele>1601.60567528408</ele>
        <time>2021-08-03T19:44:35.738Z</time>
      </trkpt>
      <trkpt lat="42.89898276329" lon="0.10879039764">
        <ele>1600.28343081177</ele>
        <time>2021-08-03T19:44:43.296Z</time>
      </trkpt>
      <trkpt lat="42.89882183075" lon="0.10869383812">
        <ele>1599.04525154092</ele>
        <time>2021-08-03T19:44:50.857Z</time>
      </trkpt>
      <trkpt lat="42.89843559265" lon="0.10840415955">
        <ele>1597.48688922207</ele>
        <time>2021-08-03T19:44:58.425Z</time>
      </trkpt>
      <trkpt lat="42.89825320244" lon="0.10830760002">
        <ele>1596.20039587962</ele>
        <time>2021-08-03T19:45:05.996Z</time>
      </trkpt>
      <trkpt lat="42.8980922699" lon="0.10826468468">
        <ele>1594.95532725002</ele>
        <time>2021-08-03T19:45:13.570Z</time>
      </trkpt>
      <trkpt lat="42.8978562355" lon="0.10825395584">
        <ele>1593.72040503951</ele>
        <time>2021-08-03T19:45:21.148Z</time>
      </trkpt>
      <trkpt lat="42.89763092995" lon="0.10817885399">
        <ele>1592.35135492806</ele>
        <time>2021-08-03T19:45:28.729Z</time>
      </trkpt>
      <trkpt lat="42.89719104767" lon="0.10796427727">
        <ele>1590.86378375405</ele>
        <time>2021-08-03T19:45:36.318Z</time>
      </trkpt>
      <trkpt lat="42.89696574211" lon="0.10789990425">
        <ele>1589.48522200315</ele>
        <time>2021-08-03T19:45:43.910Z</time>
      </trkpt>
      <trkpt lat="42.89672970772" lon="0.10776042938">
        <ele>1587.94115201238</ele>
        <time>2021-08-03T19:45:51.507Z</time>
      </trkpt>
      <trkpt lat="42.89667606354" lon="0.1077067852">
        <ele>1586.39480385478</ele>
        <time>2021-08-03T19:45:59.105Z</time>
      </trkpt>
      <trkpt lat="42.89667614736" lon="0.1077067852">
        <ele>1584.87056152324</ele>
        <time>2021-08-03T19:46:06.703Z</time>
      </trkpt>
      <trkpt lat="42.89638638496" lon="0.10751366615">
        <ele>1583.05117883835</ele>
        <time>2021-08-03T19:46:14.306Z</time>
      </trkpt>
      <trkpt lat="42.8962469101" lon="0.10747075081">
        <ele>1581.38552970554</ele>
        <time>2021-08-03T19:46:21.911Z</time>
      </trkpt>
      <trkpt lat="42.8960108757" lon="0.10747075081">
        <ele>1579.75614600699</ele>
        <time>2021-08-03T19:46:29.520Z</time>
      </trkpt>
      <trkpt lat="42.89582848549" lon="0.10736346245">
        <ele>1577.95004199397</ele>
        <time>2021-08-03T19:46:37.132Z</time>
      </trkpt>
      <trkpt lat="42.89573192596" lon="0.10726690292">
        <ele>1576.11049294116</ele>
        <time>2021-08-03T19:46:44.746Z</time>
      </trkpt>
      <trkpt lat="42.89563536644" lon="0.10709524155">
        <ele>1574.10148823539</ele>
        <time>2021-08-03T19:46:52.362Z</time>
      </trkpt>
      <trkpt lat="42.89554953575" lon="0.10698795319">
        <ele>1572.14342890043</ele>
        <time>2021-08-03T19:46:59.980Z</time>
      </trkpt>
      <trkpt lat="42.89542078972" lon="0.10689139366">
        <ele>1570.19474572349</ele>
        <time>2021-08-03T19:47:07.601Z</time>
      </trkpt>
      <trkpt lat="42.89525985718" lon="0.10671973228">
        <ele>1568.11959259355</ele>
        <time>2021-08-03T19:47:15.225Z</time>
      </trkpt>
      <trkpt lat="42.89513111115" lon="0.10653734207">
        <ele>1565.95016092739</ele>
        <time>2021-08-03T19:47:22.852Z</time>
      </trkpt>
      <trkpt lat="42.8950881958" lon="0.10636568069">
        <ele>1563.66705874276</ele>
        <time>2021-08-03T19:47:30.481Z</time>
      </trkpt>
      <trkpt lat="42.8950881958" lon="0.10622620583">
        <ele>1561.39964184387</ele>
        <time>2021-08-03T19:47:38.112Z</time>
      </trkpt>
      <trkpt lat="42.89512038231" lon="0.10596871376">
        <ele>1559.11928332578</ele>
        <time>2021-08-03T19:47:45.746Z</time>
      </trkpt>
      <trkpt lat="42.89512046613" lon="0.10596871376">
        <ele>1556.9320049172</ele>
        <time>2021-08-03T19:47:53.380Z</time>
      </trkpt>
      <trkpt lat="42.89529204369" lon="0.10527133942">
        <ele>1554.42301559058</ele>
        <time>2021-08-03T19:48:01.022Z</time>
      </trkpt>
      <trkpt lat="42.89542078972" lon="0.10484218597">
        <ele>1552.11586156746</ele>
        <time>2021-08-03T19:48:08.670Z</time>
      </trkpt>
      <trkpt lat="42.89548516273" lon="0.10463833809">
        <ele>1549.7742682424</ele>
        <time>2021-08-03T19:48:16.320Z</time>
      </trkpt>
      <trkpt lat="42.89554953575" lon="0.10456323624">
        <ele>1547.4502886347</ele>
        <time>2021-08-03T19:48:23.972Z</time>
      </trkpt>
      <trkpt lat="42.8955924511" lon="0.1045525074">
        <ele>1545.09709499478</ele>
        <time>2021-08-03T19:48:31.625Z</time>
      </trkpt>
      <trkpt lat="42.8956246376" lon="0.1045525074">
        <ele>1542.71639842567</ele>
        <time>2021-08-03T19:48:39.278Z</time>
      </trkpt>
      <trkpt lat="42.89576411247" lon="0.10463833809">
        <ele>1540.21081803255</ele>
        <time>2021-08-03T19:48:46.933Z</time>
      </trkpt>
      <trkpt lat="42.89610743523" lon="0.10478854179">
        <ele>1537.60647730741</ele>
        <time>2021-08-03T19:48:54.594Z</time>
      </trkpt>
      <trkpt lat="42.89630055428" lon="0.10484218597">
        <ele>1535.10220848844</ele>
        <time>2021-08-03T19:49:02.258Z</time>
      </trkpt>
      <trkpt lat="42.89650448598" lon="0.10486364365">
        <ele>1532.580847478</ele>
        <time>2021-08-03T19:49:09.926Z</time>
      </trkpt>
      <trkpt lat="42.89669752121" lon="0.10483145714">
        <ele>1530.05514597869</ele>
        <time>2021-08-03T19:49:17.597Z</time>
      </trkpt>
      <trkpt lat="42.89728760719" lon="0.10461688042">
        <ele>1527.27983022473</ele>
        <time>2021-08-03T19:49:25.278Z</time>
      </trkpt>
      <trkpt lat="42.89752364159" lon="0.10460615158">
        <ele>1524.64262839262</ele>
        <time>2021-08-03T19:49:32.962Z</time>
      </trkpt>
      <trkpt lat="42.897824049" lon="0.10450959206">
        <ele>1522.00577294045</ele>
        <time>2021-08-03T19:49:40.651Z</time>
      </trkpt>
      <trkpt lat="42.89782413282" lon="0.10450959206">
        <ele>1519.48071830635</ele>
        <time>2021-08-03T19:49:48.340Z</time>
      </trkpt>
      <trkpt lat="42.89798498154" lon="0.10444521904">
        <ele>1516.89271290834</ele>
        <time>2021-08-03T19:49:56.032Z</time>
      </trkpt>
      <trkpt lat="42.89833903313" lon="0.10420918465">
        <ele>1514.20466664965</ele>
        <time>2021-08-03T19:50:03.730Z</time>
      </trkpt>
      <trkpt lat="42.89833911695" lon="0.10420918465">
        <ele>1511.65693975398</ele>
        <time>2021-08-03T19:50:11.428Z</time>
      </trkpt>
      <trkpt lat="42.898478508" lon="0.10412335396">
        <ele>1509.05445208988</ele>
        <time>2021-08-03T19:50:19.129Z</time>
      </trkpt>
      <trkpt lat="42.89933681488" lon="0.10368347168">
        <ele>1506.12424156407</ele>
        <time>2021-08-03T19:50:26.844Z</time>
      </trkpt>
      <trkpt lat="42.90078520775" lon="0.10311484337">
        <ele>1503.02717317202</ele>
        <time>2021-08-03T19:50:34.584Z</time>
      </trkpt>
      <trkpt lat="42.9012465477" lon="0.10298609734">
        <ele>1500.16180893552</ele>
        <time>2021-08-03T19:50:42.331Z</time>
      </trkpt>
      <trkpt lat="42.90134310722" lon="0.10292172432">
        <ele>1497.54692853035</ele>
        <time>2021-08-03T19:50:50.080Z</time>
      </trkpt>
      <trkpt lat="42.90164351463" lon="0.10252475739">
        <ele>1495.11113599392</ele>
        <time>2021-08-03T19:50:57.835Z</time>
      </trkpt>
      <trkpt lat="42.90186882019" lon="0.10228872299">
        <ele>1492.54666475177</ele>
        <time>2021-08-03T19:51:05.595Z</time>
      </trkpt>
      <trkpt lat="42.90208339691" lon="0.10199904442">
        <ele>1489.97122955976</ele>
        <time>2021-08-03T19:51:13.360Z</time>
      </trkpt>
      <trkpt lat="42.9022872448" lon="0.10167717934">
        <ele>1487.46048864783</ele>
        <time>2021-08-03T19:51:21.130Z</time>
      </trkpt>
      <trkpt lat="42.90228732862" lon="0.10167717934">
        <ele>1484.94642466259</ele>
        <time>2021-08-03T19:51:28.900Z</time>
      </trkpt>
      <trkpt lat="42.9023731593" lon="0.10153770447">
        <ele>1482.257919446</ele>
        <time>2021-08-03T19:51:36.672Z</time>
      </trkpt>
      <trkpt lat="42.90255554952" lon="0.1012802124">
        <ele>1479.36858909035</ele>
        <time>2021-08-03T19:51:44.448Z</time>
      </trkpt>
      <trkpt lat="42.90267348289" lon="0.10111927986">
        <ele>1476.84100524425</ele>
        <time>2021-08-03T19:51:52.227Z</time>
      </trkpt>
      <trkpt lat="42.90284522809" lon="0.10079741478">
        <ele>1474.41678952366</ele>
        <time>2021-08-03T19:52:00.011Z</time>
      </trkpt>
      <trkpt lat="42.90331729688" lon="0.09994983673">
        <ele>1471.48221665473</ele>
        <time>2021-08-03T19:52:07.807Z</time>
      </trkpt>
      <trkpt lat="42.90333867073" lon="0.09987473488">
        <ele>1468.85838100444</ele>
        <time>2021-08-03T19:52:15.604Z</time>
      </trkpt>
      <trkpt lat="42.90334939957" lon="0.09977817535">
        <ele>1466.23856282734</ele>
        <time>2021-08-03T19:52:23.402Z</time>
      </trkpt>
      <trkpt lat="42.90334939957" lon="0.09957432747">
        <ele>1463.65753691149</ele>
        <time>2021-08-03T19:52:31.203Z</time>
      </trkpt>
      <trkpt lat="42.9032099247" lon="0.09740710258">
        <ele>1460.85019633555</ele>
        <time>2021-08-03T19:52:39.029Z</time>
      </trkpt>
      <trkpt lat="42.90324211121" lon="0.09519696236">
        <ele>1457.38387302972</ele>
        <time>2021-08-03T19:52:46.881Z</time>
      </trkpt>
      <trkpt lat="42.90326356888" lon="0.0951218605">
        <ele>1454.47348539717</ele>
        <time>2021-08-03T19:52:54.734Z</time>
      </trkpt>
      <trkpt lat="42.90330648422" lon="0.09504675865">
        <ele>1451.43438058903</ele>
        <time>2021-08-03T19:53:02.588Z</time>
      </trkpt>
      <trkpt lat="42.90329575539" lon="0.09441375732">
        <ele>1448.33539664323</ele>
        <time>2021-08-03T19:53:10.450Z</time>
      </trkpt>
      <trkpt lat="42.90327438153" lon="0.09424209595">
        <ele>1445.37837522041</ele>
        <time>2021-08-03T19:53:18.314Z</time>
      </trkpt>
      <trkpt lat="42.90327429771" lon="0.09424209595">
        <ele>1442.34291766779</ele>
        <time>2021-08-03T19:53:26.178Z</time>
      </trkpt>
      <trkpt lat="42.90325284004" lon="0.09401679039">
        <ele>1439.2455195458</ele>
        <time>2021-08-03T19:53:34.044Z</time>
      </trkpt>
      <trkpt lat="42.90312409401" lon="0.09336233139">
        <ele>1435.97716392549</ele>
        <time>2021-08-03T19:53:41.918Z</time>
      </trkpt>
      <trkpt lat="42.90271639824" lon="0.0915491581">
        <ele>1432.38822366075</ele>
        <time>2021-08-03T19:53:49.815Z</time>
      </trkpt>
      <trkpt lat="42.90268421173" lon="0.09130239487">
        <ele>1429.02923486466</ele>
        <time>2021-08-03T19:53:57.715Z</time>
      </trkpt>
      <trkpt lat="42.90267348289" lon="0.09105563164">
        <ele>1425.53380848599</ele>
        <time>2021-08-03T19:54:05.617Z</time>
      </trkpt>
      <trkpt lat="42.90268421173" lon="0.09084105492">
        <ele>1421.93659992118</ele>
        <time>2021-08-03T19:54:13.522Z</time>
      </trkpt>
      <trkpt lat="42.90274858475" lon="0.09025096893">
        <ele>1418.11302523078</ele>
        <time>2021-08-03T19:54:21.434Z</time>
      </trkpt>
      <trkpt lat="42.90274858475" lon="0.09009003639">
        <ele>1414.48293639052</ele>
        <time>2021-08-03T19:54:29.348Z</time>
      </trkpt>
      <trkpt lat="42.90271639824" lon="0.08990764618">
        <ele>1410.81530890041</ele>
        <time>2021-08-03T19:54:37.264Z</time>
      </trkpt>
      <trkpt lat="42.90224441327" lon="0.08813738823">
        <ele>1407.22676290628</ele>
        <time>2021-08-03T19:54:45.202Z</time>
      </trkpt>
      <trkpt lat="42.90192246437" lon="0.08692502975">
        <ele>1403.2205646545</ele>
        <time>2021-08-03T19:54:53.155Z</time>
      </trkpt>
      <trkpt lat="42.90158987045" lon="0.08401751518">
        <ele>1398.19498477094</ele>
        <time>2021-08-03T19:55:01.143Z</time>
      </trkpt>
      <trkpt lat="42.90157914162" lon="0.08382439613">
        <ele>1394.10921018457</ele>
        <time>2021-08-03T19:55:09.133Z</time>
      </trkpt>
      <trkpt lat="42.90158987045" lon="0.08360981941">
        <ele>1389.89856699464</ele>
        <time>2021-08-03T19:55:17.126Z</time>
      </trkpt>
      <trkpt lat="42.90158987045" lon="0.08336305618">
        <ele>1385.65660807624</ele>
        <time>2021-08-03T19:55:25.122Z</time>
      </trkpt>
      <trkpt lat="42.90154695511" lon="0.08316993713">
        <ele>1381.52282903385</ele>
        <time>2021-08-03T19:55:33.120Z</time>
      </trkpt>
      <trkpt lat="42.90149331093" lon="0.08298754692">
        <ele>1377.39390278273</ele>
        <time>2021-08-03T19:55:41.120Z</time>
      </trkpt>
      <trkpt lat="42.9013967514" lon="0.08279442787">
        <ele>1373.26603096581</ele>
        <time>2021-08-03T19:55:49.123Z</time>
      </trkpt>
      <trkpt lat="42.90104269981" lon="0.08208632469">
        <ele>1369.17253429611</ele>
        <time>2021-08-03T19:55:57.136Z</time>
      </trkpt>
      <trkpt lat="42.90057063103" lon="0.08036971092">
        <ele>1364.23246738921</ele>
        <time>2021-08-03T19:56:05.171Z</time>
      </trkpt>
      <trkpt lat="42.9003238678" lon="0.07966160774">
        <ele>1359.84582524753</ele>
        <time>2021-08-03T19:56:13.215Z</time>
      </trkpt>
      <trkpt lat="42.90004500188" lon="0.07882475853">
        <ele>1355.18189961771</ele>
        <time>2021-08-03T19:56:21.270Z</time>
      </trkpt>
      <trkpt lat="42.90004491806" lon="0.07882475853">
        <ele>1351.04922429714</ele>
        <time>2021-08-03T19:56:29.325Z</time>
      </trkpt>
      <trkpt lat="42.89983034134" lon="0.07814884186">
        <ele>1346.41364303961</ele>
        <time>2021-08-03T19:56:37.388Z</time>
      </trkpt>
      <trkpt lat="42.89960503578" lon="0.0772690773">
        <ele>1342.01513776015</ele>
        <time>2021-08-03T19:56:45.462Z</time>
      </trkpt>
      <trkpt lat="42.89947628975" lon="0.07640004158">
        <ele>1337.53683890569</ele>
        <time>2021-08-03T19:56:53.547Z</time>
      </trkpt>
      <trkpt lat="42.8994333744" lon="0.07626056671">
        <ele>1333.55567537418</ele>
        <time>2021-08-03T19:57:01.634Z</time>
      </trkpt>
      <trkpt lat="42.89936900139" lon="0.07614254951">
        <ele>1329.63884944677</ele>
        <time>2021-08-03T19:57:09.722Z</time>
      </trkpt>
      <trkpt lat="42.89919742383" lon="0.07584214211">
        <ele>1325.76479947969</ele>
        <time>2021-08-03T19:57:17.815Z</time>
      </trkpt>
      <trkpt lat="42.89919734001" lon="0.07584214211">
        <ele>1322.02678657334</ele>
        <time>2021-08-03T19:57:25.908Z</time>
      </trkpt>
      <trkpt lat="42.89914377965" lon="0.07574558258">
        <ele>1318.37973094352</ele>
        <time>2021-08-03T19:57:34.002Z</time>
      </trkpt>
      <trkpt lat="42.89912232198" lon="0.07570266724">
        <ele>1314.77704734617</ele>
        <time>2021-08-03T19:57:42.097Z</time>
      </trkpt>
      <trkpt lat="42.89877891541" lon="0.07506966591">
        <ele>1311.40101586414</ele>
        <time>2021-08-03T19:57:50.201Z</time>
      </trkpt>
      <trkpt lat="42.89869308472" lon="0.07486581802">
        <ele>1307.92464797973</ele>
        <time>2021-08-03T19:57:58.308Z</time>
      </trkpt>
      <trkpt lat="42.89869308472" lon="0.07477998734">
        <ele>1304.42561916562</ele>
        <time>2021-08-03T19:58:06.416Z</time>
      </trkpt>
      <trkpt lat="42.89867162704" lon="0.07420063019">
        <ele>1300.8257819917</ele>
        <time>2021-08-03T19:58:14.531Z</time>
      </trkpt>
      <trkpt lat="42.89860725403" lon="0.07339596748">
        <ele>1297.23128666269</ele>
        <time>2021-08-03T19:58:22.655Z</time>
      </trkpt>
      <trkpt lat="42.89854288101" lon="0.07291316986">
        <ele>1293.83237541642</ele>
        <time>2021-08-03T19:58:30.785Z</time>
      </trkpt>
      <trkpt lat="42.89843559265" lon="0.07232308388">
        <ele>1290.44524241983</ele>
        <time>2021-08-03T19:58:38.922Z</time>
      </trkpt>
      <trkpt lat="42.89841413498" lon="0.07144331932">
        <ele>1286.78584672936</ele>
        <time>2021-08-03T19:58:47.070Z</time>
      </trkpt>
      <trkpt lat="42.89834976196" lon="0.07103562355">
        <ele>1283.51090371331</ele>
        <time>2021-08-03T19:58:55.222Z</time>
      </trkpt>
      <trkpt lat="42.89822109975" lon="0.07043480873">
        <ele>1280.35255626391</ele>
        <time>2021-08-03T19:59:03.382Z</time>
      </trkpt>
      <trkpt lat="42.89822101593" lon="0.07043480873">
        <ele>1277.28454531395</ele>
        <time>2021-08-03T19:59:11.542Z</time>
      </trkpt>
      <trkpt lat="42.89807089604" lon="0.06957650185">
        <ele>1270.98792350332</ele>
        <time>2021-08-03T19:59:19.712Z</time>
      </trkpt>
      <trkpt lat="42.89783477783" lon="0.06825685501">
        <ele>1267.52578990985</ele>
        <time>2021-08-03T19:59:27.898Z</time>
      </trkpt>
      <trkpt lat="42.89774894714" lon="0.06769895554">
        <ele>1264.45774233089</ele>
        <time>2021-08-03T19:59:36.091Z</time>
      </trkpt>
      <trkpt lat="42.89773830213" lon="0.06762385368">
        <ele>1261.61972683858</ele>
        <time>2021-08-03T19:59:44.285Z</time>
      </trkpt>
      <trkpt lat="42.89773821831" lon="0.06762385368">
        <ele>1258.9319392779</ele>
        <time>2021-08-03T19:59:52.479Z</time>
      </trkpt>
      <trkpt lat="42.89767392911" lon="0.06735563278">
        <ele>1256.06921592902</ele>
        <time>2021-08-03T20:00:00.676Z</time>
      </trkpt>
      <trkpt lat="42.89755591191" lon="0.06701231003">
        <ele>1253.2981147236</ele>
        <time>2021-08-03T20:00:08.878Z</time>
      </trkpt>
      <trkpt lat="42.89755582809" lon="0.06701231003">
        <ele>1250.85086793577</ele>
        <time>2021-08-03T20:00:17.080Z</time>
      </trkpt>
      <trkpt lat="42.89719113149" lon="0.06597161293">
        <ele>1248.28444707089</ele>
        <time>2021-08-03T20:00:25.295Z</time>
      </trkpt>
      <trkpt lat="42.89719104767" lon="0.06597161293">
        <ele>1246.00691231718</ele>
        <time>2021-08-03T20:00:33.510Z</time>
      </trkpt>
      <trkpt lat="42.89715894498" lon="0.06586432457">
        <ele>1243.74609474684</ele>
        <time>2021-08-03T20:00:41.726Z</time>
      </trkpt>
      <trkpt lat="42.89711594582" lon="0.0657248497">
        <ele>1241.62264296523</ele>
        <time>2021-08-03T20:00:49.944Z</time>
      </trkpt>
      <trkpt lat="42.89730906487" lon="0.06548881531">
        <ele>1239.48915424086</ele>
        <time>2021-08-03T20:00:58.166Z</time>
      </trkpt>
      <trkpt lat="42.89733052254" lon="0.06543517113">
        <ele>1237.52911007873</ele>
        <time>2021-08-03T20:01:06.389Z</time>
      </trkpt>
      <trkpt lat="42.8973197937" lon="0.06538152695">
        <ele>1235.63629896232</ele>
        <time>2021-08-03T20:01:14.613Z</time>
      </trkpt>
      <trkpt lat="42.89721250534" lon="0.06520986557">
        <ele>1233.77198009215</ele>
        <time>2021-08-03T20:01:22.839Z</time>
      </trkpt>
      <trkpt lat="42.89712667465" lon="0.06494164467">
        <ele>1231.95313445412</ele>
        <time>2021-08-03T20:01:31.069Z</time>
      </trkpt>
      <trkpt lat="42.89708375931" lon="0.06445884705">
        <ele>1230.32538557448</ele>
        <time>2021-08-03T20:01:39.305Z</time>
      </trkpt>
      <trkpt lat="42.89708384313" lon="0.064265728">
        <ele>1228.67826240894</ele>
        <time>2021-08-03T20:01:47.543Z</time>
      </trkpt>
      <trkpt lat="42.89707303047" lon="0.06410479546">
        <ele>1227.10757589905</ele>
        <time>2021-08-03T20:01:55.783Z</time>
      </trkpt>
      <trkpt lat="42.8970515728" lon="0.06401896477">
        <ele>1225.66436924566</ele>
        <time>2021-08-03T20:02:04.024Z</time>
      </trkpt>
      <trkpt lat="42.89692282677" lon="0.06377220154">
        <ele>1224.19006829743</ele>
        <time>2021-08-03T20:02:12.268Z</time>
      </trkpt>
      <trkpt lat="42.89685853757" lon="0.06366491318">
        <ele>1222.77658928649</ele>
        <time>2021-08-03T20:02:20.514Z</time>
      </trkpt>
      <trkpt lat="42.89676197805" lon="0.06343960762">
        <ele>1221.3322697357</ele>
        <time>2021-08-03T20:02:28.763Z</time>
      </trkpt>
      <trkpt lat="42.89674052037" lon="0.06338596344">
        <ele>1220.10867635588</ele>
        <time>2021-08-03T20:02:37.013Z</time>
      </trkpt>
      <trkpt lat="42.8967190627" lon="0.06332159042">
        <ele>1218.9671141949</ele>
        <time>2021-08-03T20:02:45.264Z</time>
      </trkpt>
      <trkpt lat="42.89661169052" lon="0.06303191185">
        <ele>1217.86617640418</ele>
        <time>2021-08-03T20:02:53.518Z</time>
      </trkpt>
      <trkpt lat="42.89659031667" lon="0.06301045418">
        <ele>1216.87026196266</ele>
        <time>2021-08-03T20:03:01.773Z</time>
      </trkpt>
      <trkpt lat="42.89621472359" lon="0.06302118301">
        <ele>1216.20071415728</ele>
        <time>2021-08-03T20:03:10.034Z</time>
      </trkpt>
      <trkpt lat="42.89616116323" lon="0.06209850311">
        <ele>1214.97806926311</ele>
        <time>2021-08-03T20:03:18.306Z</time>
      </trkpt>
      <trkpt lat="42.89616107941" lon="0.06209850311">
        <ele>1214.12460567326</ele>
        <time>2021-08-03T20:03:26.578Z</time>
      </trkpt>
      <trkpt lat="42.89612897672" lon="0.06119728088">
        <ele>1213.12391171511</ele>
        <time>2021-08-03T20:03:34.860Z</time>
      </trkpt>
      <trkpt lat="42.89612897672" lon="0.0611114502">
        <ele>1212.31793218348</ele>
        <time>2021-08-03T20:03:43.143Z</time>
      </trkpt>
      <trkpt lat="42.89611824788" lon="0.06092905998">
        <ele>1211.51499310421</ele>
        <time>2021-08-03T20:03:51.429Z</time>
      </trkpt>
      <trkpt lat="42.89602168836" lon="0.06011366844">
        <ele>1210.49118260759</ele>
        <time>2021-08-03T20:03:59.724Z</time>
      </trkpt>
      <trkpt lat="42.89602160454" lon="0.06011366844">
        <ele>1209.86260270676</ele>
        <time>2021-08-03T20:04:08.019Z</time>
      </trkpt>
      <trkpt lat="42.89602168836" lon="0.06000638008">
        <ele>1209.20229182444</ele>
        <time>2021-08-03T20:04:16.315Z</time>
      </trkpt>
      <trkpt lat="42.89600023068" lon="0.05990982056">
        <ele>1208.59812966514</ele>
        <time>2021-08-03T20:04:24.613Z</time>
      </trkpt>
      <trkpt lat="42.89597868919" lon="0.05982398987">
        <ele>1208.03637715332</ele>
        <time>2021-08-03T20:04:32.912Z</time>
      </trkpt>
      <trkpt lat="42.8959144" lon="0.05967378616">
        <ele>1207.4815914779</ele>
        <time>2021-08-03T20:04:41.213Z</time>
      </trkpt>
      <trkpt lat="42.89587140083" lon="0.05958795547">
        <ele>1206.99003556723</ele>
        <time>2021-08-03T20:04:49.515Z</time>
      </trkpt>
      <trkpt lat="42.89573192596" lon="0.05946993828">
        <ele>1206.51800826313</ele>
        <time>2021-08-03T20:04:57.820Z</time>
      </trkpt>
      <trkpt lat="42.89566755295" lon="0.05944848061">
        <ele>1206.11423410319</ele>
        <time>2021-08-03T20:05:06.126Z</time>
      </trkpt>
      <trkpt lat="42.89547451772" lon="0.05945920944">
        <ele>1205.83884834896</ele>
        <time>2021-08-03T20:05:14.435Z</time>
      </trkpt>
      <trkpt lat="42.89519548416" lon="0.05952358246">
        <ele>1205.67693792262</ele>
        <time>2021-08-03T20:05:22.748Z</time>
      </trkpt>
      <trkpt lat="42.89506673813" lon="0.05951285362">
        <ele>1205.3150214577</ele>
        <time>2021-08-03T20:05:31.063Z</time>
      </trkpt>
      <trkpt lat="42.89499163628" lon="0.05942702293">
        <ele>1204.88818449786</ele>
        <time>2021-08-03T20:05:39.380Z</time>
      </trkpt>
      <trkpt lat="42.89494872093" lon="0.05931973457">
        <ele>1204.35104160359</ele>
        <time>2021-08-03T20:05:47.698Z</time>
      </trkpt>
      <trkpt lat="42.8949379921" lon="0.05916953087">
        <ele>1203.67264073933</ele>
        <time>2021-08-03T20:05:56.018Z</time>
      </trkpt>
      <trkpt lat="42.8949917201" lon="0.05904078484">
        <ele>1202.86295538946</ele>
        <time>2021-08-03T20:06:04.340Z</time>
      </trkpt>
      <trkpt lat="42.89505600929" lon="0.05896568298">
        <ele>1202.04685013358</ele>
        <time>2021-08-03T20:06:12.663Z</time>
      </trkpt>
      <trkpt lat="42.8950881958" lon="0.05894422531">
        <ele>1201.31740348061</ele>
        <time>2021-08-03T20:06:20.987Z</time>
      </trkpt>
      <trkpt lat="42.89514183998" lon="0.05894422531">
        <ele>1200.5512484652</ele>
        <time>2021-08-03T20:06:29.312Z</time>
      </trkpt>
      <trkpt lat="42.89523848332" lon="0.05897641182">
        <ele>1199.72964513196</ele>
        <time>2021-08-03T20:06:37.638Z</time>
      </trkpt>
      <trkpt lat="42.8953564167" lon="0.05908370018">
        <ele>1198.909275226</ele>
        <time>2021-08-03T20:06:45.967Z</time>
      </trkpt>
      <trkpt lat="42.89545297623" lon="0.05911588669">
        <ele>1197.96254879641</ele>
        <time>2021-08-03T20:06:54.297Z</time>
      </trkpt>
      <trkpt lat="42.89550662041" lon="0.05910515785">
        <ele>1196.93555901082</ele>
        <time>2021-08-03T20:07:02.628Z</time>
      </trkpt>
      <trkpt lat="42.89560317993" lon="0.059030056">
        <ele>1195.77613393928</ele>
        <time>2021-08-03T20:07:10.961Z</time>
      </trkpt>
      <trkpt lat="42.8956246376" lon="0.05897641182">
        <ele>1194.55892240048</ele>
        <time>2021-08-03T20:07:19.295Z</time>
      </trkpt>
      <trkpt lat="42.89564617909" lon="0.05887985229">
        <ele>1193.22371446281</ele>
        <time>2021-08-03T20:07:27.630Z</time>
      </trkpt>
      <trkpt lat="42.89563536644" lon="0.05872964859">
        <ele>1191.76886321299</ele>
        <time>2021-08-03T20:07:35.966Z</time>
      </trkpt>
      <trkpt lat="42.89560326375" lon="0.05866527557">
        <ele>1190.27738778716</ele>
        <time>2021-08-03T20:07:44.303Z</time>
      </trkpt>
      <trkpt lat="42.8952921275" lon="0.05848288536">
        <ele>1188.67681223046</ele>
        <time>2021-08-03T20:07:52.646Z</time>
      </trkpt>
      <trkpt lat="42.89519556798" lon="0.05841851234">
        <ele>1186.99764802581</ele>
        <time>2021-08-03T20:08:00.991Z</time>
      </trkpt>
      <trkpt lat="42.89505600929" lon="0.05833268166">
        <ele>1185.22602850191</ele>
        <time>2021-08-03T20:08:09.338Z</time>
      </trkpt>
      <trkpt lat="42.89488434792" lon="0.05812883377">
        <ele>1183.51736510266</ele>
        <time>2021-08-03T20:08:17.689Z</time>
      </trkpt>
      <trkpt lat="42.89465904236" lon="0.05778551102">
        <ele>1181.59110396022</ele>
        <time>2021-08-03T20:08:26.045Z</time>
      </trkpt>
      <trkpt lat="42.89447673596" lon="0.05746364594">
        <ele>1179.34991996057</ele>
        <time>2021-08-03T20:08:34.406Z</time>
      </trkpt>
      <trkpt lat="42.89447665215" lon="0.05746364594">
        <ele>1177.16628256901</ele>
        <time>2021-08-03T20:08:42.767Z</time>
      </trkpt>
      <trkpt lat="42.89438009262" lon="0.05723834038">
        <ele>1174.72399539561</ele>
        <time>2021-08-03T20:08:51.131Z</time>
      </trkpt>
      <trkpt lat="42.89419778623" lon="0.05662679672">
        <ele>1172.0682924871</ele>
        <time>2021-08-03T20:08:59.503Z</time>
      </trkpt>
      <trkpt lat="42.89412268437" lon="0.05636930466">
        <ele>1169.56135063223</ele>
        <time>2021-08-03T20:09:07.878Z</time>
      </trkpt>
      <trkpt lat="42.89357551374" lon="0.05511403084">
        <ele>1166.93022727749</ele>
        <time>2021-08-03T20:09:16.270Z</time>
      </trkpt>
      <trkpt lat="42.89355405606" lon="0.05506038666">
        <ele>1164.31122909084</ele>
        <time>2021-08-03T20:09:24.663Z</time>
      </trkpt>
      <trkpt lat="42.8931248188" lon="0.05407333374">
        <ele>1161.19007294472</ele>
        <time>2021-08-03T20:09:33.069Z</time>
      </trkpt>
      <trkpt lat="42.89302825928" lon="0.053794384">
        <ele>1158.32067398196</ele>
        <time>2021-08-03T20:09:41.479Z</time>
      </trkpt>
      <trkpt lat="42.89296388626" lon="0.05353689194">
        <ele>1155.42954396025</ele>
        <time>2021-08-03T20:09:49.892Z</time>
      </trkpt>
      <trkpt lat="42.89288878441" lon="0.05294680595">
        <ele>1152.32001270877</ele>
        <time>2021-08-03T20:09:58.312Z</time>
      </trkpt>
      <trkpt lat="42.89281368256" lon="0.05265712738">
        <ele>1149.32390995822</ele>
        <time>2021-08-03T20:10:06.736Z</time>
      </trkpt>
      <trkpt lat="42.8925240878" lon="0.05207777023">
        <ele>1146.20502996858</ele>
        <time>2021-08-03T20:10:15.168Z</time>
      </trkpt>
      <trkpt lat="42.8924060706" lon="0.051831007">
        <ele>1143.4046393184</ele>
        <time>2021-08-03T20:10:23.603Z</time>
      </trkpt>
      <trkpt lat="42.89206274785" lon="0.0511443615">
        <ele>1140.48133736668</ele>
        <time>2021-08-03T20:10:32.048Z</time>
      </trkpt>
      <trkpt lat="42.89206266403" lon="0.0511443615">
        <ele>1137.85289512079</ele>
        <time>2021-08-03T20:10:40.493Z</time>
      </trkpt>
      <trkpt lat="42.891933918" lon="0.05100488663">
        <ele>1135.24067506033</ele>
        <time>2021-08-03T20:10:48.941Z</time>
      </trkpt>
      <trkpt lat="42.89186954498" lon="0.05096197128">
        <ele>1132.72671137734</ele>
        <time>2021-08-03T20:10:57.390Z</time>
      </trkpt>
      <trkpt lat="42.891279459" lon="0.05065083504">
        <ele>1130.77737797988</ele>
        <time>2021-08-03T20:11:05.849Z</time>
      </trkpt>
      <trkpt lat="42.89112925529" lon="0.05050063133">
        <ele>1128.43628728323</ele>
        <time>2021-08-03T20:11:14.311Z</time>
      </trkpt>
      <trkpt lat="42.89087184705" lon="0.05013585091">
        <ele>1125.95086222957</ele>
        <time>2021-08-03T20:11:22.779Z</time>
      </trkpt>
      <trkpt lat="42.89061427116" lon="0.04973888397">
        <ele>1123.31985719118</ele>
        <time>2021-08-03T20:11:31.253Z</time>
      </trkpt>
      <trkpt lat="42.89060362615" lon="0.04965305328">
        <ele>1120.95014779208</ele>
        <time>2021-08-03T20:11:39.728Z</time>
      </trkpt>
      <trkpt lat="42.89056062698" lon="0.0494492054">
        <ele>1118.5291017359</ele>
        <time>2021-08-03T20:11:48.206Z</time>
      </trkpt>
      <trkpt lat="42.89054989815" lon="0.04911661148">
        <ele>1116.04201428723</ele>
        <time>2021-08-03T20:11:56.688Z</time>
      </trkpt>
      <trkpt lat="42.89051771164" lon="0.04892349243">
        <ele>1113.84726394217</ele>
        <time>2021-08-03T20:12:05.172Z</time>
      </trkpt>
      <trkpt lat="42.89045333862" lon="0.04877328873">
        <ele>1111.77921630082</ele>
        <time>2021-08-03T20:12:13.658Z</time>
      </trkpt>
      <trkpt lat="42.89014220238" lon="0.04836559296">
        <ele>1109.74084113466</ele>
        <time>2021-08-03T20:12:22.151Z</time>
      </trkpt>
      <trkpt lat="42.89012082852" lon="0.04823684692">
        <ele>1107.80881179811</ele>
        <time>2021-08-03T20:12:30.646Z</time>
      </trkpt>
      <trkpt lat="42.89013155736" lon="0.04817247391">
        <ele>1105.97290756949</ele>
        <time>2021-08-03T20:12:39.141Z</time>
      </trkpt>
      <trkpt lat="42.89015293121" lon="0.04811882973">
        <ele>1104.2003024167</ele>
        <time>2021-08-03T20:12:47.637Z</time>
      </trkpt>
      <trkpt lat="42.89021730423" lon="0.04803299904">
        <ele>1102.44779710367</ele>
        <time>2021-08-03T20:12:56.134Z</time>
      </trkpt>
      <trkpt lat="42.89030313492" lon="0.04801154137">
        <ele>1100.80625174369</ele>
        <time>2021-08-03T20:13:04.633Z</time>
      </trkpt>
      <trkpt lat="42.89038896561" lon="0.04805445671">
        <ele>1099.23497108731</ele>
        <time>2021-08-03T20:13:13.133Z</time>
      </trkpt>
      <trkpt lat="42.89049633779" lon="0.04823684692">
        <ele>1097.75150446057</ele>
        <time>2021-08-03T20:13:21.636Z</time>
      </trkpt>
      <trkpt lat="42.89066791534" lon="0.04853725433">
        <ele>1096.32987342822</ele>
        <time>2021-08-03T20:13:30.144Z</time>
      </trkpt>
      <trkpt lat="42.89085030556" lon="0.04874110222">
        <ele>1094.88469421218</ele>
        <time>2021-08-03T20:13:38.655Z</time>
      </trkpt>
      <trkpt lat="42.89091467857" lon="0.04878401756">
        <ele>1093.396797961</ele>
        <time>2021-08-03T20:13:47.167Z</time>
      </trkpt>
      <trkpt lat="42.89097905159" lon="0.0487947464">
        <ele>1091.9122929395</ele>
        <time>2021-08-03T20:13:55.681Z</time>
      </trkpt>
      <trkpt lat="42.89107561111" lon="0.04874110222">
        <ele>1090.405045787</ele>
        <time>2021-08-03T20:14:04.196Z</time>
      </trkpt>
      <trkpt lat="42.89111852646" lon="0.04864454269">
        <ele>1088.84809379565</ele>
        <time>2021-08-03T20:14:12.713Z</time>
      </trkpt>
      <trkpt lat="42.89112925529" lon="0.04858016968">
        <ele>1087.27379937014</ele>
        <time>2021-08-03T20:14:21.230Z</time>
      </trkpt>
      <trkpt lat="42.89109706879" lon="0.04846215248">
        <ele>1085.63868319832</ele>
        <time>2021-08-03T20:14:29.749Z</time>
      </trkpt>
      <trkpt lat="42.89106488228" lon="0.04839777946">
        <ele>1083.98708632229</ele>
        <time>2021-08-03T20:14:38.269Z</time>
      </trkpt>
      <trkpt lat="42.89044269361" lon="0.04739999771">
        <ele>1081.83165719321</ele>
        <time>2021-08-03T20:14:46.804Z</time>
      </trkpt>
      <trkpt lat="42.8903567791" lon="0.04729270935">
        <ele>1080.06839499016</ele>
        <time>2021-08-03T20:14:55.341Z</time>
      </trkpt>
      <trkpt lat="42.8902924899" lon="0.04720687866">
        <ele>1078.27137049588</ele>
        <time>2021-08-03T20:15:03.879Z</time>
      </trkpt>
      <trkpt lat="42.89020657539" lon="0.04712104797">
        <ele>1076.42730619839</ele>
        <time>2021-08-03T20:15:12.419Z</time>
      </trkpt>
      <trkpt lat="42.89007782936" lon="0.04705667496">
        <ele>1074.54782887704</ele>
        <time>2021-08-03T20:15:20.961Z</time>
      </trkpt>
      <trkpt lat="42.88949847221" lon="0.0468313694">
        <ele>1072.48139627474</ele>
        <time>2021-08-03T20:15:29.513Z</time>
      </trkpt>
      <trkpt lat="42.88879045285" lon="0.04643440247">
        <ele>1070.212643653</ele>
        <time>2021-08-03T20:15:38.077Z</time>
      </trkpt>
      <trkpt lat="42.88879036903" lon="0.04643440247">
        <ele>1068.22200201575</ele>
        <time>2021-08-03T20:15:46.641Z</time>
      </trkpt>
      <trkpt lat="42.88838267326" lon="0.0462949276">
        <ele>1066.10577981063</ele>
        <time>2021-08-03T20:15:55.212Z</time>
      </trkpt>
      <trkpt lat="42.88817882538" lon="0.04619836807">
        <ele>1064.10720722549</ele>
        <time>2021-08-03T20:16:03.786Z</time>
      </trkpt>
      <trkpt lat="42.88797497749" lon="0.04606962204">
        <ele>1061.97414063759</ele>
        <time>2021-08-03T20:16:12.364Z</time>
      </trkpt>
      <trkpt lat="42.88752436638" lon="0.04559755325">
        <ele>1059.4367057775</ele>
        <time>2021-08-03T20:16:20.951Z</time>
      </trkpt>
      <trkpt lat="42.88723468781" lon="0.04531860352">
        <ele>1057.20918229252</ele>
        <time>2021-08-03T20:16:29.544Z</time>
      </trkpt>
      <trkpt lat="42.886698246" lon="0.04490017891">
        <ele>1055.13694169499</ele>
        <time>2021-08-03T20:16:38.147Z</time>
      </trkpt>
      <trkpt lat="42.8863657359" lon="0.0445997715">
        <ele>1052.83043102315</ele>
        <time>2021-08-03T20:16:46.756Z</time>
      </trkpt>
      <trkpt lat="42.88636565208" lon="0.0445997715">
        <ele>1050.54172704609</ele>
        <time>2021-08-03T20:16:55.365Z</time>
      </trkpt>
      <trkpt lat="42.88611888885" lon="0.04435300827">
        <ele>1048.1662505093</ele>
        <time>2021-08-03T20:17:03.979Z</time>
      </trkpt>
      <trkpt lat="42.88552880287" lon="0.04348397255">
        <ele>1045.43013436629</ele>
        <time>2021-08-03T20:17:12.607Z</time>
      </trkpt>
      <trkpt lat="42.88529276848" lon="0.04303336143">
        <ele>1042.90120324723</ele>
        <time>2021-08-03T20:17:21.241Z</time>
      </trkpt>
      <trkpt lat="42.88517475128" lon="0.04286170006">
        <ele>1040.54377118969</ele>
        <time>2021-08-03T20:17:29.878Z</time>
      </trkpt>
      <trkpt lat="42.88459539413" lon="0.04215359688">
        <ele>1037.8231968202</ele>
        <time>2021-08-03T20:17:38.528Z</time>
      </trkpt>
      <trkpt lat="42.88424142636" lon="0.04166007042">
        <ele>1035.19079442115</ele>
        <time>2021-08-03T20:17:47.186Z</time>
      </trkpt>
      <trkpt lat="42.88424134254" lon="0.04166007042">
        <ele>1032.93332286918</ele>
        <time>2021-08-03T20:17:55.844Z</time>
      </trkpt>
      <trkpt lat="42.88373717107" lon="0.04096269608">
        <ele>1030.31443397896</ele>
        <time>2021-08-03T20:18:04.513Z</time>
      </trkpt>
      <trkpt lat="42.88310408592" lon="0.04004001617">
        <ele>1027.5458248374</ele>
        <time>2021-08-03T20:18:13.197Z</time>
      </trkpt>
      <trkpt lat="42.88293242455" lon="0.03990054131">
        <ele>1025.39513239642</ele>
        <time>2021-08-03T20:18:21.884Z</time>
      </trkpt>
      <trkpt lat="42.8826212883" lon="0.03982543945">
        <ele>1023.46814507533</ele>
        <time>2021-08-03T20:18:30.576Z</time>
      </trkpt>
      <trkpt lat="42.88254618645" lon="0.03976106644">
        <ele>1021.48186098414</ele>
        <time>2021-08-03T20:18:39.270Z</time>
      </trkpt>
      <trkpt lat="42.88252472878" lon="0.03966450691">
        <ele>1019.49173865919</ele>
        <time>2021-08-03T20:18:47.965Z</time>
      </trkpt>
      <trkpt lat="42.88252472878" lon="0.03958940506">
        <ele>1017.54554032003</ele>
        <time>2021-08-03T20:18:56.661Z</time>
      </trkpt>
      <trkpt lat="42.88257837296" lon="0.03949284554">
        <ele>1015.63352876653</ele>
        <time>2021-08-03T20:19:05.358Z</time>
      </trkpt>
      <trkpt lat="42.88265347481" lon="0.03943920135">
        <ele>1013.80887506974</ele>
        <time>2021-08-03T20:19:14.057Z</time>
      </trkpt>
      <trkpt lat="42.88276076317" lon="0.03947138786">
        <ele>1012.02268925355</ele>
        <time>2021-08-03T20:19:22.757Z</time>
      </trkpt>
      <trkpt lat="42.88313627243" lon="0.0397503376">
        <ele>1010.28725519269</ele>
        <time>2021-08-03T20:19:31.464Z</time>
      </trkpt>
      <trkpt lat="42.88326501846" lon="0.03987908363">
        <ele>1008.69687862107</ele>
        <time>2021-08-03T20:19:40.174Z</time>
      </trkpt>
      <trkpt lat="42.88344740868" lon="0.04019021988">
        <ele>1007.29188068629</ele>
        <time>2021-08-03T20:19:48.888Z</time>
      </trkpt>
      <trkpt lat="42.88353323936" lon="0.04031896591">
        <ele>1005.73168390719</ele>
        <time>2021-08-03T20:19:57.604Z</time>
      </trkpt>
      <trkpt lat="42.88357615471" lon="0.04034042358">
        <ele>1004.07114195961</ele>
        <time>2021-08-03T20:20:06.321Z</time>
      </trkpt>
      <trkpt lat="42.88361907005" lon="0.04035115242">
        <ele>1002.37410315944</ele>
        <time>2021-08-03T20:20:15.039Z</time>
      </trkpt>
      <trkpt lat="42.8836619854" lon="0.04034042358">
        <ele>1000.6158768466</ele>
        <time>2021-08-03T20:20:23.758Z</time>
      </trkpt>
      <trkpt lat="42.88373708725" lon="0.04026532173">
        <ele>998.70320955949</ele>
        <time>2021-08-03T20:20:32.478Z</time>
      </trkpt>
      <trkpt lat="42.88376927376" lon="0.04015803337">
        <ele>996.73609481981</ele>
        <time>2021-08-03T20:20:41.199Z</time>
      </trkpt>
      <trkpt lat="42.88376935758" lon="0.04008293152">
        <ele>994.77269642843</ele>
        <time>2021-08-03T20:20:49.921Z</time>
      </trkpt>
      <trkpt lat="42.883479679" lon="0.03937482834">
        <ele>992.48613725646</ele>
        <time>2021-08-03T20:20:58.653Z</time>
      </trkpt>
      <trkpt lat="42.88347959518" lon="0.03937482834">
        <ele>990.45686249042</ele>
        <time>2021-08-03T20:21:07.385Z</time>
      </trkpt>
      <trkpt lat="42.88295388222" lon="0.03806591034">
        <ele>988.21687377194</ele>
        <time>2021-08-03T20:21:16.134Z</time>
      </trkpt>
      <trkpt lat="42.88287886418" lon="0.03786206245">
        <ele>985.99133542566</ele>
        <time>2021-08-03T20:21:24.886Z</time>
      </trkpt>
      <trkpt lat="42.88287878036" lon="0.03786206245">
        <ele>983.66280169624</ele>
        <time>2021-08-03T20:21:33.638Z</time>
      </trkpt>
      <trkpt lat="42.88271784782" lon="0.03706812859">
        <ele>981.00062241703</ele>
        <time>2021-08-03T20:21:42.400Z</time>
      </trkpt>
      <trkpt lat="42.88269639015" lon="0.0368642807">
        <ele>978.32696845902</ele>
        <time>2021-08-03T20:21:51.164Z</time>
      </trkpt>
      <trkpt lat="42.88267493248" lon="0.03646731377">
        <ele>975.40338381509</ele>
        <time>2021-08-03T20:21:59.933Z</time>
      </trkpt>
      <trkpt lat="42.88267493248" lon="0.03570556641">
        <ele>972.33218359119</ele>
        <time>2021-08-03T20:22:08.711Z</time>
      </trkpt>
      <trkpt lat="42.88276076317" lon="0.03525495529">
        <ele>969.29165098015</ele>
        <time>2021-08-03T20:22:17.494Z</time>
      </trkpt>
      <trkpt lat="42.8828895092" lon="0.03487944603">
        <ele>966.20370960285</ele>
        <time>2021-08-03T20:22:26.282Z</time>
      </trkpt>
      <trkpt lat="42.88293242455" lon="0.03467559814">
        <ele>962.81555321266</ele>
        <time>2021-08-03T20:22:35.073Z</time>
      </trkpt>
      <trkpt lat="42.88297533989" lon="0.03446102142">
        <ele>959.3701986025</ele>
        <time>2021-08-03T20:22:43.866Z</time>
      </trkpt>
      <trkpt lat="42.88297533989" lon="0.03286242485">
        <ele>955.63874183252</ele>
        <time>2021-08-03T20:22:52.678Z</time>
      </trkpt>
      <trkpt lat="42.88298606873" lon="0.03263711929">
        <ele>951.88396997229</ele>
        <time>2021-08-03T20:23:01.493Z</time>
      </trkpt>
      <trkpt lat="42.88332939148" lon="0.03154277802">
        <ele>947.22735388431</ele>
        <time>2021-08-03T20:23:10.322Z</time>
      </trkpt>
      <trkpt lat="42.88334012032" lon="0.03143548965">
        <ele>943.1942073369</ele>
        <time>2021-08-03T20:23:19.152Z</time>
      </trkpt>
      <trkpt lat="42.88332939148" lon="0.03130674362">
        <ele>939.04860133985</ele>
        <time>2021-08-03T20:23:27.984Z</time>
      </trkpt>
      <trkpt lat="42.88328647614" lon="0.03100633621">
        <ele>934.64024068974</ele>
        <time>2021-08-03T20:23:36.819Z</time>
      </trkpt>
      <trkpt lat="42.88317918777" lon="0.03067374229">
        <ele>930.16899138725</ele>
        <time>2021-08-03T20:23:45.658Z</time>
      </trkpt>
      <trkpt lat="42.88312554359" lon="0.03053426743">
        <ele>925.61287988086</ele>
        <time>2021-08-03T20:23:54.499Z</time>
      </trkpt>
      <trkpt lat="42.88301825523" lon="0.03038406372">
        <ele>920.93802621583</ele>
        <time>2021-08-03T20:24:03.343Z</time>
      </trkpt>
      <trkpt lat="42.88183816709" lon="0.02902150154">
        <ele>915.5997198264</ele>
        <time>2021-08-03T20:24:12.211Z</time>
      </trkpt>
      <trkpt lat="42.88183808327" lon="0.02902150154">
        <ele>910.69737848124</ele>
        <time>2021-08-03T20:24:21.079Z</time>
      </trkpt>
      <trkpt lat="42.87983187474" lon="0.0267469883">
        <ele>904.68305510801</ele>
        <time>2021-08-03T20:24:29.989Z</time>
      </trkpt>
      <trkpt lat="42.87956357002" lon="0.02639293671">
        <ele>899.56077665444</ele>
        <time>2021-08-03T20:24:38.905Z</time>
      </trkpt>
      <trkpt lat="42.87950992584" lon="0.02632856369">
        <ele>894.383240883</ele>
        <time>2021-08-03T20:24:47.822Z</time>
      </trkpt>
      <trkpt lat="42.8793489933" lon="0.0259745121">
        <ele>888.99785095396</ele>
        <time>2021-08-03T20:24:56.744Z</time>
      </trkpt>
      <trkpt lat="42.87920951843" lon="0.02544879913">
        <ele>883.39477633708</ele>
        <time>2021-08-03T20:25:05.673Z</time>
      </trkpt>
      <trkpt lat="42.87895202637" lon="0.02429008484">
        <ele>877.86290871064</ele>
        <time>2021-08-03T20:25:14.616Z</time>
      </trkpt>
      <trkpt lat="42.87883400917" lon="0.02360343933">
        <ele>872.28422086234</ele>
        <time>2021-08-03T20:25:23.567Z</time>
      </trkpt>
      <trkpt lat="42.87863016129" lon="0.02287387848">
        <ele>866.85444639442</ele>
        <time>2021-08-03T20:25:32.528Z</time>
      </trkpt>
      <trkpt lat="42.87858724594" lon="0.02264857292">
        <ele>861.31353321574</ele>
        <time>2021-08-03T20:25:41.491Z</time>
      </trkpt>
      <trkpt lat="42.87855505943" lon="0.02225160599">
        <ele>855.64167454547</ele>
        <time>2021-08-03T20:25:50.459Z</time>
      </trkpt>
      <trkpt lat="42.87854441442" lon="0.02203702927">
        <ele>850.11223505833</ele>
        <time>2021-08-03T20:25:59.430Z</time>
      </trkpt>
      <trkpt lat="42.87843704224" lon="0.01961231232">
        <ele>843.74449326009</ele>
        <time>2021-08-03T20:26:08.429Z</time>
      </trkpt>
      <trkpt lat="42.87835121155" lon="0.0177025795">
        <ele>837.59383959749</ele>
        <time>2021-08-03T20:26:17.451Z</time>
      </trkpt>
      <trkpt lat="42.87825473584" lon="0.01629710197">
        <ele>832.14888996967</ele>
        <time>2021-08-03T20:26:26.489Z</time>
      </trkpt>
      <trkpt lat="42.87825465202" lon="0.01629710197">
        <ele>826.8817234759</ele>
        <time>2021-08-03T20:26:35.527Z</time>
      </trkpt>
      <trkpt lat="42.87820100784" lon="0.01514911652">
        <ele>821.4444811842</ele>
        <time>2021-08-03T20:26:44.579Z</time>
      </trkpt>
      <trkpt lat="42.87814736366" lon="0.01321792603">
        <ele>816.01845133478</ele>
        <time>2021-08-03T20:26:53.654Z</time>
      </trkpt>
      <trkpt lat="42.87807226181" lon="0.01281023026">
        <ele>811.01974075273</ele>
        <time>2021-08-03T20:27:02.733Z</time>
      </trkpt>
      <trkpt lat="42.87796497345" lon="0.01243472099">
        <ele>806.1289140021</ele>
        <time>2021-08-03T20:27:11.817Z</time>
      </trkpt>
      <trkpt lat="42.87764310837" lon="0.01151204109">
        <ele>801.07069471573</ele>
        <time>2021-08-03T20:27:20.913Z</time>
      </trkpt>
      <trkpt lat="42.87728905678" lon="0.01060009003">
        <ele>796.14216608528</ele>
        <time>2021-08-03T20:27:30.021Z</time>
      </trkpt>
      <trkpt lat="42.87683844566" lon="0.00916242599">
        <ele>791.37791752946</ele>
        <time>2021-08-03T20:27:39.148Z</time>
      </trkpt>
      <trkpt lat="42.87675261497" lon="0.00895857811">
        <ele>787.03567658863</ele>
        <time>2021-08-03T20:27:48.278Z</time>
      </trkpt>
      <trkpt lat="42.87663459778" lon="0.0087761879">
        <ele>782.9366214719</ele>
        <time>2021-08-03T20:27:57.410Z</time>
      </trkpt>
      <trkpt lat="42.87629672326" lon="0.00828190707">
        <ele>778.85148731351</ele>
        <time>2021-08-03T20:28:06.550Z</time>
      </trkpt>
      <trkpt lat="42.87629680708" lon="0.00828199089">
        <ele>775.06956425691</ele>
        <time>2021-08-03T20:28:15.690Z</time>
      </trkpt>
      <trkpt lat="42.87605524063" lon="0.00792860985">
        <ele>771.38566023398</ele>
        <time>2021-08-03T20:28:24.836Z</time>
      </trkpt>
      <trkpt lat="42.87591584958" lon="0.00772476196">
        <ele>767.80957326277</ele>
        <time>2021-08-03T20:28:33.985Z</time>
      </trkpt>
      <trkpt lat="42.87591576576" lon="0.00772476196">
        <ele>764.53549308198</ele>
        <time>2021-08-03T20:28:43.134Z</time>
      </trkpt>
      <trkpt lat="42.8750038147" lon="0.00637292862">
        <ele>760.6643282164</ele>
        <time>2021-08-03T20:28:52.305Z</time>
      </trkpt>
      <trkpt lat="42.87496098317" lon="0.00633001328">
        <ele>757.72823582879</ele>
        <time>2021-08-03T20:29:01.477Z</time>
      </trkpt>
      <trkpt lat="42.87471421994" lon="0.00595450401">
        <ele>754.82366847997</ele>
        <time>2021-08-03T20:29:10.655Z</time>
      </trkpt>
      <trkpt lat="42.87452110089" lon="0.0056540966">
        <ele>752.11453623924</ele>
        <time>2021-08-03T20:29:19.837Z</time>
      </trkpt>
      <trkpt lat="42.87439235486" lon="0.00548243523">
        <ele>749.63222223396</ele>
        <time>2021-08-03T20:29:29.022Z</time>
      </trkpt>
      <trkpt lat="42.87439227104" lon="0.00548243523">
        <ele>747.37849205381</ele>
        <time>2021-08-03T20:29:38.207Z</time>
      </trkpt>
      <trkpt lat="42.87425279617" lon="0.00526785851">
        <ele>745.20706352972</ele>
        <time>2021-08-03T20:29:47.396Z</time>
      </trkpt>
      <trkpt lat="42.87417769432" lon="0.0051176548">
        <ele>743.21288177596</ele>
        <time>2021-08-03T20:29:56.587Z</time>
      </trkpt>
      <trkpt lat="42.87408121862" lon="0.00481724739">
        <ele>741.31082592402</ele>
        <time>2021-08-03T20:30:05.782Z</time>
      </trkpt>
      <trkpt lat="42.8740811348" lon="0.00481724739">
        <ele>739.64549301182</ele>
        <time>2021-08-03T20:30:14.977Z</time>
      </trkpt>
      <trkpt lat="42.87398465909" lon="0.00443100929">
        <ele>738.00062874822</ele>
        <time>2021-08-03T20:30:24.176Z</time>
      </trkpt>
      <trkpt lat="42.87398457527" lon="0.00443100929">
        <ele>736.5834295137</ele>
        <time>2021-08-03T20:30:33.375Z</time>
      </trkpt>
      <trkpt lat="42.87384518422" lon="0.00394821167">
        <ele>735.17731446458</ele>
        <time>2021-08-03T20:30:42.580Z</time>
      </trkpt>
      <trkpt lat="42.8738451004" lon="0.00394821167">
        <ele>733.97359937637</ele>
        <time>2021-08-03T20:30:51.785Z</time>
      </trkpt>
      <trkpt lat="42.87358769216" lon="0.00301480293">
        <ele>732.66867531825</ele>
        <time>2021-08-03T20:31:01.002Z</time>
      </trkpt>
      <trkpt lat="42.87358760834" lon="0.00301480293">
        <ele>731.6434977166</ele>
        <time>2021-08-03T20:31:10.219Z</time>
      </trkpt>
      <trkpt lat="42.87343748845" lon="0.00246763229">
        <ele>730.61597061762</ele>
        <time>2021-08-03T20:31:19.443Z</time>
      </trkpt>
      <trkpt lat="42.87343740463" lon="0.00246763229">
        <ele>729.73365342574</ele>
        <time>2021-08-03T20:31:28.667Z</time>
      </trkpt>
      <trkpt lat="42.87320145406" lon="0.00158786774">
        <ele>728.93212708434</ele>
        <time>2021-08-03T20:31:37.902Z</time>
      </trkpt>
      <trkpt lat="42.87320137024" lon="0.00158786774">
        <ele>728.15521956509</ele>
        <time>2021-08-03T20:31:47.137Z</time>
      </trkpt>
      <trkpt lat="42.87300833501" lon="0.00087976456">
        <ele>727.40097995486</ele>
        <time>2021-08-03T20:31:56.381Z</time>
      </trkpt>
      <trkpt lat="42.87300825119" lon="0.00087976456">
        <ele>726.69337971007</ele>
        <time>2021-08-03T20:32:05.625Z</time>
      </trkpt>
      <trkpt lat="42.87294387817" lon="0.00061154366">
        <ele>725.97459954546</ele>
        <time>2021-08-03T20:32:14.872Z</time>
      </trkpt>
      <trkpt lat="42.87294396199" lon="0.00060081482">
        <ele>725.30232138708</ele>
        <time>2021-08-03T20:32:24.119Z</time>
      </trkpt>
      <trkpt lat="42.87279375829" lon="0.00007510185">
        <ele>724.54994173006</ele>
        <time>2021-08-03T20:32:33.373Z</time>
      </trkpt>
      <trkpt lat="42.87277230062" lon="0.0">
        <ele>723.87626380672</ele>
        <time>2021-08-03T20:32:42.628Z</time>
      </trkpt>
      <trkpt lat="42.87263282575" lon="-0.00052571297">
        <ele>722.95061733766</ele>
        <time>2021-08-03T20:32:51.890Z</time>
      </trkpt>
      <trkpt lat="42.8723859787" lon="-0.00138401985">
        <ele>722.26260561936</ele>
        <time>2021-08-03T20:33:01.162Z</time>
      </trkpt>
      <trkpt lat="42.87230014801" lon="-0.00173807144">
        <ele>721.54706184601</ele>
        <time>2021-08-03T20:33:10.439Z</time>
      </trkpt>
      <trkpt lat="42.87230023183" lon="-0.00178098679">
        <ele>720.85703107052</ele>
        <time>2021-08-03T20:33:19.716Z</time>
      </trkpt>
      <trkpt lat="42.87230014801" lon="-0.00178098679">
        <ele>720.16259498304</ele>
        <time>2021-08-03T20:33:28.993Z</time>
      </trkpt>
      <trkpt lat="42.87297606468" lon="-0.00296115875">
        <ele>719.03777188436</ele>
        <time>2021-08-03T20:33:38.288Z</time>
      </trkpt>
      <trkpt lat="42.87309408188" lon="-0.0031542778">
        <ele>718.25804585473</ele>
        <time>2021-08-03T20:33:47.586Z</time>
      </trkpt>
      <trkpt lat="42.87316918373" lon="-0.00322937965">
        <ele>717.48096276322</ele>
        <time>2021-08-03T20:33:56.885Z</time>
      </trkpt>
      <trkpt lat="42.87322282791" lon="-0.003272295">
        <ele>716.69471115369</ele>
        <time>2021-08-03T20:34:06.185Z</time>
      </trkpt>
      <trkpt lat="42.87338376045" lon="-0.00328302383">
        <ele>715.86361253902</ele>
        <time>2021-08-03T20:34:15.488Z</time>
      </trkpt>
      <trkpt lat="42.87364133634" lon="-0.00325083733">
        <ele>715.05648672758</ele>
        <time>2021-08-03T20:34:24.795Z</time>
      </trkpt>
      <trkpt lat="42.8736948967" lon="-0.00322937965">
        <ele>714.23694968754</ele>
        <time>2021-08-03T20:34:34.103Z</time>
      </trkpt>
      <trkpt lat="42.87369498052" lon="-0.00322937965">
        <ele>713.38886525434</ele>
        <time>2021-08-03T20:34:43.411Z</time>
      </trkpt>
      <trkpt lat="42.87370562553" lon="-0.00321865082">
        <ele>712.51515458897</ele>
        <time>2021-08-03T20:34:52.719Z</time>
      </trkpt>
      <trkpt lat="42.8738451004" lon="-0.00319719315">
        <ele>711.60759700449</ele>
        <time>2021-08-03T20:35:02.029Z</time>
      </trkpt>
      <trkpt lat="42.87424215116" lon="-0.0031542778">
        <ele>710.64669964659</ele>
        <time>2021-08-03T20:35:11.346Z</time>
      </trkpt>
      <trkpt lat="42.8743493557" lon="-0.00314354897">
        <ele>709.66283018266</ele>
        <time>2021-08-03T20:35:20.665Z</time>
      </trkpt>
      <trkpt lat="42.87443527021" lon="-0.00320792198">
        <ele>708.62486796871</ele>
        <time>2021-08-03T20:35:29.985Z</time>
      </trkpt>
      <trkpt lat="42.87459620275" lon="-0.00345468521">
        <ele>707.49482718606</ele>
        <time>2021-08-03T20:35:39.309Z</time>
      </trkpt>
      <trkpt lat="42.87475713529" lon="-0.0036907196">
        <ele>706.38581667026</ele>
        <time>2021-08-03T20:35:48.637Z</time>
      </trkpt>
      <trkpt lat="42.87485361099" lon="-0.00383019447">
        <ele>705.25891787347</ele>
        <time>2021-08-03T20:35:57.967Z</time>
      </trkpt>
      <trkpt lat="42.87485369481" lon="-0.00383019447">
        <ele>704.12163577756</ele>
        <time>2021-08-03T20:36:07.297Z</time>
      </trkpt>
      <trkpt lat="42.87527211942" lon="-0.00445246696">
        <ele>702.81123379261</ele>
        <time>2021-08-03T20:36:16.637Z</time>
      </trkpt>
      <trkpt lat="42.87554034032" lon="-0.00486016273">
        <ele>701.46471285913</ele>
        <time>2021-08-03T20:36:25.983Z</time>
      </trkpt>
      <trkpt lat="42.87574410439" lon="-0.00514984131">
        <ele>700.16690556557</ele>
        <time>2021-08-03T20:36:35.334Z</time>
      </trkpt>
      <trkpt lat="42.8757441882" lon="-0.00514984131">
        <ele>698.92148984545</ele>
        <time>2021-08-03T20:36:44.685Z</time>
      </trkpt>
      <trkpt lat="42.87576556206" lon="-0.00518202782">
        <ele>697.64801113961</ele>
        <time>2021-08-03T20:36:54.037Z</time>
      </trkpt>
      <trkpt lat="42.87576564588" lon="-0.00518202782">
        <ele>696.36343226917</ele>
        <time>2021-08-03T20:37:03.389Z</time>
      </trkpt>
      <trkpt lat="42.87643083371" lon="-0.0061583519">
        <ele>694.94700362685</ele>
        <time>2021-08-03T20:37:12.756Z</time>
      </trkpt>
      <trkpt lat="42.87655957974" lon="-0.00634074211">
        <ele>693.62908971125</ele>
        <time>2021-08-03T20:37:22.126Z</time>
      </trkpt>
      <trkpt lat="42.87670978345" lon="-0.00656604767">
        <ele>692.28461232926</ele>
        <time>2021-08-03T20:37:31.500Z</time>
      </trkpt>
      <trkpt lat="42.87704229355" lon="-0.00703811646">
        <ele>690.86627954286</ele>
        <time>2021-08-03T20:37:40.881Z</time>
      </trkpt>
      <trkpt lat="42.87704237737" lon="-0.00703811646">
        <ele>689.53924041699</ele>
        <time>2021-08-03T20:37:50.262Z</time>
      </trkpt>
      <trkpt lat="42.87736424245" lon="-0.00749945641">
        <ele>688.09701956784</ele>
        <time>2021-08-03T20:37:59.651Z</time>
      </trkpt>
      <trkpt lat="42.87741788663" lon="-0.00757455826">
        <ele>686.7753611625</ele>
        <time>2021-08-03T20:38:09.041Z</time>
      </trkpt>
      <trkpt lat="42.87768610753" lon="-0.00796079636">
        <ele>685.42259170365</ele>
        <time>2021-08-03T20:38:18.437Z</time>
      </trkpt>
      <trkpt lat="42.87771821022" lon="-0.0080037117">
        <ele>684.12644715131</ele>
        <time>2021-08-03T20:38:27.834Z</time>
      </trkpt>
      <trkpt lat="42.87771829404" lon="-0.0080037117">
        <ele>682.86421419908</ele>
        <time>2021-08-03T20:38:37.231Z</time>
      </trkpt>
      <trkpt lat="42.87832983769" lon="-0.00890493393">
        <ele>681.40955954098</ele>
        <time>2021-08-03T20:38:46.643Z</time>
      </trkpt>
      <trkpt lat="42.87879117765" lon="-0.00957012177">
        <ele>680.11068107373</ele>
        <time>2021-08-03T20:38:56.065Z</time>
      </trkpt>
      <trkpt lat="42.8790164832" lon="-0.00990271568">
        <ele>678.86657886492</ele>
        <time>2021-08-03T20:39:05.493Z</time>
      </trkpt>
      <trkpt lat="42.87954219617" lon="-0.01067519188">
        <ele>677.69473810706</ele>
        <time>2021-08-03T20:39:14.933Z</time>
      </trkpt>
      <trkpt lat="42.87967085838" lon="-0.01086831093">
        <ele>676.60068941418</ele>
        <time>2021-08-03T20:39:24.376Z</time>
      </trkpt>
      <trkpt lat="42.8796709422" lon="-0.01086831093">
        <ele>675.59859530198</ele>
        <time>2021-08-03T20:39:33.819Z</time>
      </trkpt>
      <trkpt lat="42.88028248586" lon="-0.01168370247">
        <ele>674.44981632898</ele>
        <time>2021-08-03T20:39:43.276Z</time>
      </trkpt>
      <trkpt lat="42.88144120015" lon="-0.01257419586">
        <ele>673.29173738903</ele>
        <time>2021-08-03T20:39:52.754Z</time>
      </trkpt>
      <trkpt lat="42.88275003433" lon="-0.01357197762">
        <ele>672.18035324057</ele>
        <time>2021-08-03T20:40:02.256Z</time>
      </trkpt>
      <trkpt lat="42.88275011815" lon="-0.01357197762">
        <ele>671.45826380216</ele>
        <time>2021-08-03T20:40:11.758Z</time>
      </trkpt>
      <trkpt lat="42.88337230682" lon="-0.0140440464">
        <ele>670.69717903526</ele>
        <time>2021-08-03T20:40:21.272Z</time>
      </trkpt>
      <trkpt lat="42.88429498672" lon="-0.01473069191">
        <ele>670.01286344742</ele>
        <time>2021-08-03T20:40:30.802Z</time>
      </trkpt>
      <trkpt lat="42.88482078351" lon="-0.01512765884">
        <ele>669.41832013634</ele>
        <time>2021-08-03T20:40:40.342Z</time>
      </trkpt>
      <trkpt lat="42.88515329361" lon="-0.01536369324">
        <ele>668.97393393291</ele>
        <time>2021-08-03T20:40:49.888Z</time>
      </trkpt>
      <trkpt lat="42.88524985313" lon="-0.01546025276">
        <ele>668.63269753025</ele>
        <time>2021-08-03T20:40:59.436Z</time>
      </trkpt>
      <trkpt lat="42.88529276848" lon="-0.01554608345">
        <ele>668.41045242576</ele>
        <time>2021-08-03T20:41:08.985Z</time>
      </trkpt>
      <trkpt lat="42.88535722531" lon="-0.01582503319">
        <ele>668.34768902752</ele>
        <time>2021-08-03T20:41:18.538Z</time>
      </trkpt>
      <trkpt lat="42.88538941182" lon="-0.01618981361">
        <ele>668.19029271397</ele>
        <time>2021-08-03T20:41:28.095Z</time>
      </trkpt>
      <trkpt lat="42.88540005684" lon="-0.0162756443">
        <ele>668.0547851209</ele>
        <time>2021-08-03T20:41:37.653Z</time>
      </trkpt>
      <trkpt lat="42.885443056" lon="-0.0163936615">
        <ele>668.10677803677</ele>
        <time>2021-08-03T20:41:47.212Z</time>
      </trkpt>
      <trkpt lat="42.88563609123" lon="-0.01662969589">
        <ele>668.31854033294</ele>
        <time>2021-08-03T20:41:56.776Z</time>
      </trkpt>
      <trkpt lat="42.88674116135" lon="-0.01760601997">
        <ele>668.76739164441</ele>
        <time>2021-08-03T20:42:06.361Z</time>
      </trkpt>
      <trkpt lat="42.88741707802" lon="-0.01821756363">
        <ele>668.50487822477</ele>
        <time>2021-08-03T20:42:15.959Z</time>
      </trkpt>
      <trkpt lat="42.88741716184" lon="-0.01821756363">
        <ele>668.21753475839</ele>
        <time>2021-08-03T20:42:25.557Z</time>
      </trkpt>
      <trkpt lat="42.88792133331" lon="-0.01863598824">
        <ele>667.88403590598</ele>
        <time>2021-08-03T20:42:35.164Z</time>
      </trkpt>
      <trkpt lat="42.8882753849" lon="-0.01899003983">
        <ele>667.23408852777</ele>
        <time>2021-08-03T20:42:44.778Z</time>
      </trkpt>
      <trkpt lat="42.8883934021" lon="-0.0191617012">
        <ele>666.73481177427</ele>
        <time>2021-08-03T20:42:54.395Z</time>
      </trkpt>
      <trkpt lat="42.88865089417" lon="-0.01968741417">
        <ele>666.29796405372</ele>
        <time>2021-08-03T20:43:04.019Z</time>
      </trkpt>
      <trkpt lat="42.8889298439" lon="-0.02019166946">
        <ele>665.62714340439</ele>
        <time>2021-08-03T20:43:13.651Z</time>
      </trkpt>
      <trkpt lat="42.88918733597" lon="-0.02054572105">
        <ele>664.68420671579</ele>
        <time>2021-08-03T20:43:23.289Z</time>
      </trkpt>
      <trkpt lat="42.88976669312" lon="-0.02113580704">
        <ele>663.390707431</ele>
        <time>2021-08-03T20:43:32.938Z</time>
      </trkpt>
      <trkpt lat="42.89001345634" lon="-0.02145767212">
        <ele>662.21987965814</ele>
        <time>2021-08-03T20:43:42.593Z</time>
      </trkpt>
      <trkpt lat="42.89039969444" lon="-0.02221941948">
        <ele>661.06185613763</ele>
        <time>2021-08-03T20:43:52.259Z</time>
      </trkpt>
      <trkpt lat="42.89039977826" lon="-0.02221941948">
        <ele>659.9473937653</ele>
        <time>2021-08-03T20:44:01.925Z</time>
      </trkpt>
      <trkpt lat="42.89087176323" lon="-0.02314209938">
        <ele>658.72063088769</ele>
        <time>2021-08-03T20:44:11.604Z</time>
      </trkpt>
      <trkpt lat="42.8910649661" lon="-0.02344250679">
        <ele>657.59001299062</ele>
        <time>2021-08-03T20:44:21.287Z</time>
      </trkpt>
      <trkpt lat="42.89124727249" lon="-0.02364635468">
        <ele>656.09625077944</ele>
        <time>2021-08-03T20:44:30.974Z</time>
      </trkpt>
      <trkpt lat="42.89140828885" lon="-0.02378582954">
        <ele>654.47802433743</ele>
        <time>2021-08-03T20:44:40.664Z</time>
      </trkpt>
      <trkpt lat="42.89212703705" lon="-0.02421498299">
        <ele>652.73893826023</ele>
        <time>2021-08-03T20:44:50.367Z</time>
      </trkpt>
      <trkpt lat="42.89212712087" lon="-0.02421498299">
        <ele>651.32789903724</ele>
        <time>2021-08-03T20:45:00.070Z</time>
      </trkpt>
      <trkpt lat="42.89479851723" lon="-0.02588868141">
        <ele>649.64127627398</ele>
        <time>2021-08-03T20:45:09.820Z</time>
      </trkpt>
      <trkpt lat="42.89479860105" lon="-0.02588868141">
        <ele>648.2112517199</ele>
        <time>2021-08-03T20:45:19.570Z</time>
      </trkpt>
      <trkpt lat="42.89652594365" lon="-0.02695083618">
        <ele>646.26941932159</ele>
        <time>2021-08-03T20:45:29.350Z</time>
      </trkpt>
      <trkpt lat="42.89772757329" lon="-0.02770185471">
        <ele>644.85411101905</ele>
        <time>2021-08-03T20:45:39.151Z</time>
      </trkpt>
      <trkpt lat="42.89798498154" lon="-0.02784132957">
        <ele>643.41741268031</ele>
        <time>2021-08-03T20:45:48.957Z</time>
      </trkpt>
      <trkpt lat="42.89798506536" lon="-0.02784132957">
        <ele>642.0580839767</ele>
        <time>2021-08-03T20:45:58.763Z</time>
      </trkpt>
      <trkpt lat="42.89855360985" lon="-0.02816319466">
        <ele>640.77379268714</ele>
        <time>2021-08-03T20:46:08.579Z</time>
      </trkpt>
      <trkpt lat="42.89892911911" lon="-0.02837777138">
        <ele>639.641595911</ele>
        <time>2021-08-03T20:46:18.401Z</time>
      </trkpt>
      <trkpt lat="42.89952993393" lon="-0.02890348434">
        <ele>638.75251977421</ele>
        <time>2021-08-03T20:46:28.235Z</time>
      </trkpt>
      <trkpt lat="42.90038824081" lon="-0.02947211266">
        <ele>637.41729071026</ele>
        <time>2021-08-03T20:46:38.084Z</time>
      </trkpt>
      <trkpt lat="42.90140748024" lon="-0.03027677536">
        <ele>635.97779244896</ele>
        <time>2021-08-03T20:46:47.952Z</time>
      </trkpt>
      <trkpt lat="42.90210485458" lon="-0.03078103065">
        <ele>635.01875946123</ele>
        <time>2021-08-03T20:46:57.832Z</time>
      </trkpt>
      <trkpt lat="42.90237307549" lon="-0.03098487854">
        <ele>633.86917110996</ele>
        <time>2021-08-03T20:47:07.717Z</time>
      </trkpt>
      <trkpt lat="42.90323138237" lon="-0.03146767616">
        <ele>632.83928298687</ele>
        <time>2021-08-03T20:47:17.617Z</time>
      </trkpt>
      <trkpt lat="42.90332794189" lon="-0.03149986267">
        <ele>631.78551234261</ele>
        <time>2021-08-03T20:47:27.519Z</time>
      </trkpt>
      <trkpt lat="42.90341377258" lon="-0.03149986267">
        <ele>630.71835970106</ele>
        <time>2021-08-03T20:47:37.422Z</time>
      </trkpt>
      <trkpt lat="42.90352106094" lon="-0.031478405">
        <ele>629.64625710682</ele>
        <time>2021-08-03T20:47:47.327Z</time>
      </trkpt>
      <trkpt lat="42.90369272232" lon="-0.03138184547">
        <ele>628.48109809162</ele>
        <time>2021-08-03T20:47:57.235Z</time>
      </trkpt>
      <trkpt lat="42.90381073952" lon="-0.03134965897">
        <ele>627.46220702349</ele>
        <time>2021-08-03T20:48:07.145Z</time>
      </trkpt>
      <trkpt lat="42.90391802788" lon="-0.03134965897">
        <ele>626.53339771619</ele>
        <time>2021-08-03T20:48:17.056Z</time>
      </trkpt>
      <trkpt lat="42.9040145874" lon="-0.03138184547">
        <ele>625.69680940025</ele>
        <time>2021-08-03T20:48:26.969Z</time>
      </trkpt>
      <trkpt lat="42.90411114693" lon="-0.03145694733">
        <ele>624.90080725824</ele>
        <time>2021-08-03T20:48:36.884Z</time>
      </trkpt>
      <trkpt lat="42.90436863899" lon="-0.03172516823">
        <ele>624.21498124605</ele>
        <time>2021-08-03T20:48:46.804Z</time>
      </trkpt>
      <trkpt lat="42.9049050808" lon="-0.03272294998">
        <ele>623.38622010447</ele>
        <time>2021-08-03T20:48:56.739Z</time>
      </trkpt>
      <trkpt lat="42.90551662445" lon="-0.03368854523">
        <ele>622.32808957016</ele>
        <time>2021-08-03T20:49:06.689Z</time>
      </trkpt>
      <trkpt lat="42.90569901466" lon="-0.03405332565">
        <ele>621.50170127981</ele>
        <time>2021-08-03T20:49:16.644Z</time>
      </trkpt>
      <trkpt lat="42.90581703186" lon="-0.03437519073">
        <ele>620.68889838435</ele>
        <time>2021-08-03T20:49:26.603Z</time>
      </trkpt>
      <trkpt lat="42.90581711568" lon="-0.03437519073">
        <ele>620.21372564713</ele>
        <time>2021-08-03T20:49:36.562Z</time>
      </trkpt>
      <trkpt lat="42.90584930219" lon="-0.03447175026">
        <ele>619.73374547228</ele>
        <time>2021-08-03T20:49:46.522Z</time>
      </trkpt>
      <trkpt lat="42.90591359138" lon="-0.03458976746">
        <ele>619.28309023232</ele>
        <time>2021-08-03T20:49:56.484Z</time>
      </trkpt>
      <trkpt lat="42.90596731938" lon="-0.03464341164">
        <ele>619.07088106508</ele>
        <time>2021-08-03T20:50:06.447Z</time>
      </trkpt>
      <trkpt lat="42.90597804822" lon="-0.03465414047">
        <ele>618.8823179891</ele>
        <time>2021-08-03T20:50:16.410Z</time>
      </trkpt>
      <trkpt lat="42.90604233742" lon="-0.03466486931">
        <ele>618.75350260031</ele>
        <time>2021-08-03T20:50:26.374Z</time>
      </trkpt>
      <trkpt lat="42.90635355748" lon="-0.03453612328">
        <ele>618.65494732355</ele>
        <time>2021-08-03T20:50:36.343Z</time>
      </trkpt>
      <trkpt lat="42.90649294853" lon="-0.03457903862">
        <ele>618.55685580891</ele>
        <time>2021-08-03T20:50:46.315Z</time>
      </trkpt>
      <trkpt lat="42.90666460991" lon="-0.03473997116">
        <ele>618.6116468115</ele>
        <time>2021-08-03T20:50:56.290Z</time>
      </trkpt>
      <trkpt lat="42.90686845779" lon="-0.03485798836">
        <ele>618.71216120866</ele>
        <time>2021-08-03T20:51:06.269Z</time>
      </trkpt>
      <trkpt lat="42.90731906891" lon="-0.03507256508">
        <ele>618.94429300248</ele>
        <time>2021-08-03T20:51:16.255Z</time>
      </trkpt>
      <trkpt lat="42.90746927261" lon="-0.0351691246">
        <ele>618.84538480658</ele>
        <time>2021-08-03T20:51:26.244Z</time>
      </trkpt>
      <trkpt lat="42.90841341019" lon="-0.03593087196">
        <ele>619.52438815103</ele>
        <time>2021-08-03T20:51:36.250Z</time>
      </trkpt>
      <trkpt lat="42.90855288506" lon="-0.0360918045">
        <ele>619.80116289673</ele>
        <time>2021-08-03T20:51:46.259Z</time>
      </trkpt>
      <trkpt lat="42.9087460041" lon="-0.03625273705">
        <ele>619.72744598511</ele>
        <time>2021-08-03T20:51:56.272Z</time>
      </trkpt>
      <trkpt lat="42.90893912315" lon="-0.03639221191">
        <ele>620.14361313935</ele>
        <time>2021-08-03T20:52:06.289Z</time>
      </trkpt>
      <trkpt lat="42.90914297104" lon="-0.03648877144">
        <ele>620.22607698239</ele>
        <time>2021-08-03T20:52:16.309Z</time>
      </trkpt>
      <trkpt lat="42.90957212448" lon="-0.03664970398">
        <ele>620.28148107724</ele>
        <time>2021-08-03T20:52:26.336Z</time>
      </trkpt>
      <trkpt lat="42.91003346443" lon="-0.03663897514">
        <ele>619.93039788388</ele>
        <time>2021-08-03T20:52:36.370Z</time>
      </trkpt>
      <trkpt lat="42.9108273983" lon="-0.03675699234">
        <ele>619.74370685186</ele>
        <time>2021-08-03T20:52:46.417Z</time>
      </trkpt>
      <trkpt lat="42.91106343269" lon="-0.03685355186">
        <ele>619.52349103302</ele>
        <time>2021-08-03T20:52:56.468Z</time>
      </trkpt>
      <trkpt lat="42.91153550148" lon="-0.03711104393">
        <ele>618.88045370224</ele>
        <time>2021-08-03T20:53:06.527Z</time>
      </trkpt>
      <trkpt lat="42.91187882423" lon="-0.03722906113">
        <ele>618.4706503674</ele>
        <time>2021-08-03T20:53:16.592Z</time>
      </trkpt>
      <trkpt lat="42.9122543335" lon="-0.03738999367">
        <ele>618.05499055454</ele>
        <time>2021-08-03T20:53:26.663Z</time>
      </trkpt>
      <trkpt lat="42.91246891022" lon="-0.0374007225">
        <ele>617.33304567839</ele>
        <time>2021-08-03T20:53:36.738Z</time>
      </trkpt>
      <trkpt lat="42.91266202927" lon="-0.03734707832">
        <ele>616.4838233311</ele>
        <time>2021-08-03T20:53:46.816Z</time>
      </trkpt>
      <trkpt lat="42.912940979" lon="-0.03720760345">
        <ele>615.41226785652</ele>
        <time>2021-08-03T20:53:56.899Z</time>
      </trkpt>
      <trkpt lat="42.91306980886" lon="-0.03717541695">
        <ele>614.49452664475</ele>
        <time>2021-08-03T20:54:06.984Z</time>
      </trkpt>
      <trkpt lat="42.91334867477" lon="-0.03717541695">
        <ele>613.41018412244</ele>
        <time>2021-08-03T20:54:17.073Z</time>
      </trkpt>
      <trkpt lat="42.91377782822" lon="-0.03696084023">
        <ele>612.8716238846</ele>
        <time>2021-08-03T20:54:27.170Z</time>
      </trkpt>
      <trkpt lat="42.91389584541" lon="-0.03695011139">
        <ele>612.01785611546</ele>
        <time>2021-08-03T20:54:37.268Z</time>
      </trkpt>
      <trkpt lat="42.91403532028" lon="-0.03697156906">
        <ele>611.02975490616</ele>
        <time>2021-08-03T20:54:47.369Z</time>
      </trkpt>
      <trkpt lat="42.91412115097" lon="-0.03701448441">
        <ele>609.96312233838</ele>
        <time>2021-08-03T20:54:57.471Z</time>
      </trkpt>
      <trkpt lat="42.91412123479" lon="-0.03701448441">
        <ele>609.05844413965</ele>
        <time>2021-08-03T20:55:07.573Z</time>
      </trkpt>
      <trkpt lat="42.91462549008" lon="-0.03729343414">
        <ele>608.09866752456</ele>
        <time>2021-08-03T20:55:17.684Z</time>
      </trkpt>
      <trkpt lat="42.91506528854" lon="-0.03754019737">
        <ele>607.00436826854</ele>
        <time>2021-08-03T20:55:27.802Z</time>
      </trkpt>
      <trkpt lat="42.91612744331" lon="-0.03807663918">
        <ele>606.3063696767</ele>
        <time>2021-08-03T20:55:37.939Z</time>
      </trkpt>
      <trkpt lat="42.91639566422" lon="-0.03825902939">
        <ele>605.76488740436</ele>
        <time>2021-08-03T20:55:48.080Z</time>
      </trkpt>
      <trkpt lat="42.91657813825" lon="-0.03847360611">
        <ele>604.78198783641</ele>
        <time>2021-08-03T20:55:58.225Z</time>
      </trkpt>
      <trkpt lat="42.91695356369" lon="-0.03911733627">
        <ele>603.73607374096</ele>
        <time>2021-08-03T20:56:08.380Z</time>
      </trkpt>
      <trkpt lat="42.9173719883" lon="-0.03973960876">
        <ele>602.96007910336</ele>
        <time>2021-08-03T20:56:18.545Z</time>
      </trkpt>
      <trkpt lat="42.91745781898" lon="-0.03981471062">
        <ele>602.35314694531</ele>
        <time>2021-08-03T20:56:28.711Z</time>
      </trkpt>
      <trkpt lat="42.91753292084" lon="-0.03985762596">
        <ele>601.80663427231</ele>
        <time>2021-08-03T20:56:38.879Z</time>
      </trkpt>
      <trkpt lat="42.91808009148" lon="-0.03990054131">
        <ele>601.85390820354</ele>
        <time>2021-08-03T20:56:49.055Z</time>
      </trkpt>
      <trkpt lat="42.91826248169" lon="-0.04004001617">
        <ele>601.48256961252</ele>
        <time>2021-08-03T20:56:59.235Z</time>
      </trkpt>
      <trkpt lat="42.91855216026" lon="-0.04036188126">
        <ele>600.92498972047</ele>
        <time>2021-08-03T20:57:09.421Z</time>
      </trkpt>
      <trkpt lat="42.91863799095" lon="-0.0404047966">
        <ele>600.78489827157</ele>
        <time>2021-08-03T20:57:19.608Z</time>
      </trkpt>
      <trkpt lat="42.91872382164" lon="-0.04041552544">
        <ele>600.8165111681</ele>
        <time>2021-08-03T20:57:29.797Z</time>
      </trkpt>
      <trkpt lat="42.91885256767" lon="-0.04037261009">
        <ele>601.06354060822</ele>
        <time>2021-08-03T20:57:39.988Z</time>
      </trkpt>
      <trkpt lat="42.9190993309" lon="-0.04024386406">
        <ele>601.58929938493</ele>
        <time>2021-08-03T20:57:50.183Z</time>
      </trkpt>
      <trkpt lat="42.91926026344" lon="-0.04020094872">
        <ele>602.04607056433</ele>
        <time>2021-08-03T20:58:00.381Z</time>
      </trkpt>
      <trkpt lat="42.91943192482" lon="-0.04021167755">
        <ele>602.51058241464</ele>
        <time>2021-08-03T20:58:10.581Z</time>
      </trkpt>
      <trkpt lat="42.91963577271" lon="-0.0402867794">
        <ele>602.90515486175</ele>
        <time>2021-08-03T20:58:20.785Z</time>
      </trkpt>
      <trkpt lat="42.9197537899" lon="-0.04027605057">
        <ele>603.56497036628</ele>
        <time>2021-08-03T20:58:30.991Z</time>
      </trkpt>
      <trkpt lat="42.91975387372" lon="-0.04027605057">
        <ele>604.28154599293</ele>
        <time>2021-08-03T20:58:41.197Z</time>
      </trkpt>
      <trkpt lat="42.91996845044" lon="-0.04026532173">
        <ele>605.0918517281</ele>
        <time>2021-08-03T20:58:51.406Z</time>
      </trkpt>
      <trkpt lat="42.92005428113" lon="-0.0402545929">
        <ele>605.96373413698</ele>
        <time>2021-08-03T20:59:01.616Z</time>
      </trkpt>
      <trkpt lat="42.92012929916" lon="-0.04027605057">
        <ele>606.95233843178</ele>
        <time>2021-08-03T20:59:11.828Z</time>
      </trkpt>
      <trkpt lat="42.92019367218" lon="-0.04032969475">
        <ele>607.89998314527</ele>
        <time>2021-08-03T20:59:22.041Z</time>
      </trkpt>
      <trkpt lat="42.92039752007" lon="-0.04064083099">
        <ele>608.69037579422</ele>
        <time>2021-08-03T20:59:32.259Z</time>
      </trkpt>
      <trkpt lat="42.92049407959" lon="-0.04073739052">
        <ele>609.72322793336</ele>
        <time>2021-08-03T20:59:42.479Z</time>
      </trkpt>
      <trkpt lat="42.92057991028" lon="-0.04080176353">
        <ele>610.73061226264</ele>
        <time>2021-08-03T20:59:52.700Z</time>
      </trkpt>
      <trkpt lat="42.92084813118" lon="-0.0409412384">
        <ele>611.66129693015</ele>
        <time>2021-08-03T21:00:02.926Z</time>
      </trkpt>
      <trkpt lat="42.9213309288" lon="-0.04101634026">
        <ele>613.00524127916</ele>
        <time>2021-08-03T21:00:13.160Z</time>
      </trkpt>
      <trkpt lat="42.92150259018" lon="-0.04102706909">
        <ele>614.02916302537</ele>
        <time>2021-08-03T21:00:23.396Z</time>
      </trkpt>
      <trkpt lat="42.92169570923" lon="-0.04097342491">
        <ele>615.13493418841</ele>
        <time>2021-08-03T21:00:33.636Z</time>
      </trkpt>
      <trkpt lat="42.92169579305" lon="-0.04097342491">
        <ele>615.85816811685</ele>
        <time>2021-08-03T21:00:43.876Z</time>
      </trkpt>
      <trkpt lat="42.92208194733" lon="-0.04080176353">
        <ele>616.90331938336</ele>
        <time>2021-08-03T21:00:54.122Z</time>
      </trkpt>
      <trkpt lat="42.92218923569" lon="-0.0407910347">
        <ele>617.42856621059</ele>
        <time>2021-08-03T21:01:04.370Z</time>
      </trkpt>
      <trkpt lat="42.92235016823" lon="-0.04081249237">
        <ele>617.81848633093</ele>
        <time>2021-08-03T21:01:14.620Z</time>
      </trkpt>
      <trkpt lat="42.92251110077" lon="-0.0407910347">
        <ele>618.13594476894</ele>
        <time>2021-08-03T21:01:24.873Z</time>
      </trkpt>
      <trkpt lat="42.92274713516" lon="-0.04072666168">
        <ele>618.08529963426</ele>
        <time>2021-08-03T21:01:35.130Z</time>
      </trkpt>
      <trkpt lat="42.92291879654" lon="-0.04071593285">
        <ele>617.7570197102</ele>
        <time>2021-08-03T21:01:45.390Z</time>
      </trkpt>
      <trkpt lat="42.9232943058" lon="-0.04083395004">
        <ele>618.0719594785</ele>
        <time>2021-08-03T21:01:55.656Z</time>
      </trkpt>
      <trkpt lat="42.92348742485" lon="-0.04087686539">
        <ele>618.07148984661</ele>
        <time>2021-08-03T21:02:05.925Z</time>
      </trkpt>
      <trkpt lat="42.92363762856" lon="-0.04086613655">
        <ele>617.44027337298</ele>
        <time>2021-08-03T21:02:16.196Z</time>
      </trkpt>
      <trkpt lat="42.92393803596" lon="-0.04081249237">
        <ele>616.18445978919</ele>
        <time>2021-08-03T21:02:26.472Z</time>
      </trkpt>
      <trkpt lat="42.92401313782" lon="-0.04082322121">
        <ele>614.85274804015</ele>
        <time>2021-08-03T21:02:36.749Z</time>
      </trkpt>
      <trkpt lat="42.92409896851" lon="-0.04088759422">
        <ele>613.22892687661</ele>
        <time>2021-08-03T21:02:47.028Z</time>
      </trkpt>
      <trkpt lat="42.9244852066" lon="-0.04134893417">
        <ele>611.08479897446</ele>
        <time>2021-08-03T21:02:57.315Z</time>
      </trkpt>
      <trkpt lat="42.92481780052" lon="-0.04166007042">
        <ele>610.05432660329</ele>
        <time>2021-08-03T21:03:07.609Z</time>
      </trkpt>
      <trkpt lat="42.92534351349" lon="-0.04207849503">
        <ele>607.74027434763</ele>
        <time>2021-08-03T21:03:17.912Z</time>
      </trkpt>
      <trkpt lat="42.92546153069" lon="-0.04213213921">
        <ele>606.10911543155</ele>
        <time>2021-08-03T21:03:28.217Z</time>
      </trkpt>
      <trkpt lat="42.92569756508" lon="-0.04214286804">
        <ele>604.24769092875</ele>
        <time>2021-08-03T21:03:38.526Z</time>
      </trkpt>
      <trkpt lat="42.92581558228" lon="-0.04205703735">
        <ele>602.3169924843</ele>
        <time>2021-08-03T21:03:48.837Z</time>
      </trkpt>
      <trkpt lat="42.92610526085" lon="-0.04170298576">
        <ele>600.84886402031</ele>
        <time>2021-08-03T21:03:59.154Z</time>
      </trkpt>
      <trkpt lat="42.92620182037" lon="-0.04163861275">
        <ele>598.98293199535</ele>
        <time>2021-08-03T21:04:09.473Z</time>
      </trkpt>
      <trkpt lat="42.92635202408" lon="-0.04160642624">
        <ele>596.94490863297</ele>
        <time>2021-08-03T21:04:19.795Z</time>
      </trkpt>
      <trkpt lat="42.92694211006" lon="-0.04164934158">
        <ele>594.90565688079</ele>
        <time>2021-08-03T21:04:30.126Z</time>
      </trkpt>
      <trkpt lat="42.92761802673" lon="-0.0418639183">
        <ele>592.896740541</ele>
        <time>2021-08-03T21:04:40.468Z</time>
      </trkpt>
      <trkpt lat="42.92773604393" lon="-0.04190683365">
        <ele>591.11467819187</ele>
        <time>2021-08-03T21:04:50.812Z</time>
      </trkpt>
      <trkpt lat="42.92846560478" lon="-0.04230380058">
        <ele>589.26690043645</ele>
        <time>2021-08-03T21:05:01.169Z</time>
      </trkpt>
      <trkpt lat="42.9284656886" lon="-0.04230380058">
        <ele>587.48936917926</ele>
        <time>2021-08-03T21:05:11.526Z</time>
      </trkpt>
      <trkpt lat="42.92865872383" lon="-0.04243254662">
        <ele>586.05706109534</ele>
        <time>2021-08-03T21:05:21.886Z</time>
      </trkpt>
      <trkpt lat="42.92890548706" lon="-0.04271149635">
        <ele>584.13696516042</ele>
        <time>2021-08-03T21:05:32.251Z</time>
      </trkpt>
      <trkpt lat="42.92930245399" lon="-0.04325866699">
        <ele>582.01500182409</ele>
        <time>2021-08-03T21:05:42.625Z</time>
      </trkpt>
      <trkpt lat="42.92930253781" lon="-0.04325866699">
        <ele>580.49145492233</ele>
        <time>2021-08-03T21:05:52.999Z</time>
      </trkpt>
      <trkpt lat="42.92964577675" lon="-0.0436770916">
        <ele>579.32778441138</ele>
        <time>2021-08-03T21:06:03.381Z</time>
      </trkpt>
      <trkpt lat="42.92969942093" lon="-0.04376292229">
        <ele>577.85368585052</ele>
        <time>2021-08-03T21:06:13.764Z</time>
      </trkpt>
      <trkpt lat="42.92975306511" lon="-0.04387021065">
        <ele>576.74715293117</ele>
        <time>2021-08-03T21:06:24.149Z</time>
      </trkpt>
      <trkpt lat="42.9298388958" lon="-0.04426717758">
        <ele>575.36211520939</ele>
        <time>2021-08-03T21:06:34.538Z</time>
      </trkpt>
      <trkpt lat="42.92999982834" lon="-0.04469633102">
        <ele>573.6215986241</ele>
        <time>2021-08-03T21:06:44.933Z</time>
      </trkpt>
      <trkpt lat="42.93032169342" lon="-0.04535079002">
        <ele>572.456816782</ele>
        <time>2021-08-03T21:06:55.337Z</time>
      </trkpt>
      <trkpt lat="42.93077230453" lon="-0.04595160484">
        <ele>571.75582772134</ele>
        <time>2021-08-03T21:07:05.751Z</time>
      </trkpt>
      <trkpt lat="42.93092250824" lon="-0.04608035088">
        <ele>570.74379335861</ele>
        <time>2021-08-03T21:07:16.168Z</time>
      </trkpt>
      <trkpt lat="42.93108344078" lon="-0.04613399506">
        <ele>570.23718337549</ele>
        <time>2021-08-03T21:07:26.588Z</time>
      </trkpt>
      <trkpt lat="42.9310835246" lon="-0.04613399506">
        <ele>569.77788618508</ele>
        <time>2021-08-03T21:07:37.008Z</time>
      </trkpt>
      <trkpt lat="42.93126583099" lon="-0.04614472389">
        <ele>569.41270487362</ele>
        <time>2021-08-03T21:07:47.431Z</time>
      </trkpt>
      <trkpt lat="42.93169498444" lon="-0.04608035088">
        <ele>569.26510784673</ele>
        <time>2021-08-03T21:07:57.861Z</time>
      </trkpt>
      <trkpt lat="42.93186664581" lon="-0.04610180855">
        <ele>569.20194639273</ele>
        <time>2021-08-03T21:08:08.293Z</time>
      </trkpt>
      <trkpt lat="42.93225288391" lon="-0.04624128342">
        <ele>568.68754990294</ele>
        <time>2021-08-03T21:08:18.732Z</time>
      </trkpt>
      <trkpt lat="42.93273568153" lon="-0.04654169083">
        <ele>569.1927193527</ele>
        <time>2021-08-03T21:08:29.179Z</time>
      </trkpt>
      <trkpt lat="42.93289661407" lon="-0.04658460617">
        <ele>569.55173740686</ele>
        <time>2021-08-03T21:08:39.629Z</time>
      </trkpt>
      <trkpt lat="42.93316483498" lon="-0.04673480988">
        <ele>569.4766162607</ele>
        <time>2021-08-03T21:08:50.084Z</time>
      </trkpt>
      <trkpt lat="42.93402314186" lon="-0.04741072655">
        <ele>570.06955162582</ele>
        <time>2021-08-03T21:09:00.554Z</time>
      </trkpt>
      <trkpt lat="42.93424844742" lon="-0.04765748978">
        <ele>569.25815394041</ele>
        <time>2021-08-03T21:09:11.029Z</time>
      </trkpt>
      <trkpt lat="42.93436646461" lon="-0.04782915115">
        <ele>569.02666755977</ele>
        <time>2021-08-03T21:09:21.507Z</time>
      </trkpt>
      <trkpt lat="42.9344522953" lon="-0.04804372787">
        <ele>569.04971104499</ele>
        <time>2021-08-03T21:09:31.988Z</time>
      </trkpt>
      <trkpt lat="42.9345703125" lon="-0.0484085083">
        <ele>569.91779173209</ele>
        <time>2021-08-03T21:09:42.473Z</time>
      </trkpt>
      <trkpt lat="42.9346883297" lon="-0.04859089851">
        <ele>569.37491533871</ele>
        <time>2021-08-03T21:09:52.961Z</time>
      </trkpt>
      <trkpt lat="42.93477416039" lon="-0.0486767292">
        <ele>568.68098699514</ele>
        <time>2021-08-03T21:10:03.451Z</time>
      </trkpt>
      <trkpt lat="42.93490290642" lon="-0.04870891571">
        <ele>567.80256827624</ele>
        <time>2021-08-03T21:10:13.943Z</time>
      </trkpt>
      <trkpt lat="42.93503165245" lon="-0.04869818687">
        <ele>566.78754215843</ele>
        <time>2021-08-03T21:10:24.437Z</time>
      </trkpt>
      <trkpt lat="42.93514966965" lon="-0.04863381386">
        <ele>565.67156467933</ele>
        <time>2021-08-03T21:10:34.933Z</time>
      </trkpt>
      <trkpt lat="42.9353427887" lon="-0.04856944084">
        <ele>564.23841409255</ele>
        <time>2021-08-03T21:10:45.432Z</time>
      </trkpt>
      <trkpt lat="42.93593287468" lon="-0.04848361015">
        <ele>561.66993627917</ele>
        <time>2021-08-03T21:10:55.941Z</time>
      </trkpt>
      <trkpt lat="42.93648004532" lon="-0.04848361015">
        <ele>559.95735311161</ele>
        <time>2021-08-03T21:11:06.459Z</time>
      </trkpt>
      <trkpt lat="42.93661952019" lon="-0.0485265255">
        <ele>558.43115357729</ele>
        <time>2021-08-03T21:11:16.979Z</time>
      </trkpt>
      <trkpt lat="42.93671607971" lon="-0.04862308502">
        <ele>556.78491554672</ele>
        <time>2021-08-03T21:11:27.501Z</time>
      </trkpt>
      <trkpt lat="42.93682336807" lon="-0.04881620407">
        <ele>555.24629853172</ele>
        <time>2021-08-03T21:11:38.026Z</time>
      </trkpt>
      <trkpt lat="42.93693065643" lon="-0.04907369614">
        <ele>554.22794789123</ele>
        <time>2021-08-03T21:11:48.554Z</time>
      </trkpt>
      <trkpt lat="42.93704867363" lon="-0.04928827286">
        <ele>553.04736285443</ele>
        <time>2021-08-03T21:11:59.085Z</time>
      </trkpt>
      <trkpt lat="42.93714523315" lon="-0.04937410355">
        <ele>551.13060066581</ele>
        <time>2021-08-03T21:12:09.618Z</time>
      </trkpt>
      <trkpt lat="42.93725252151" lon="-0.04947066307">
        <ele>549.14314833656</ele>
        <time>2021-08-03T21:12:20.153Z</time>
      </trkpt>
      <trkpt lat="42.93862581253" lon="-0.05022168159">
        <ele>546.69414083336</ele>
        <time>2021-08-03T21:12:30.712Z</time>
      </trkpt>
      <trkpt lat="42.93884038925" lon="-0.05036115646">
        <ele>544.61333285325</ele>
        <time>2021-08-03T21:12:41.275Z</time>
      </trkpt>
      <trkpt lat="42.93901205063" lon="-0.05057573318">
        <ele>542.87094145975</ele>
        <time>2021-08-03T21:12:51.841Z</time>
      </trkpt>
      <trkpt lat="42.93917298317" lon="-0.05082249641">
        <ele>540.72996207458</ele>
        <time>2021-08-03T21:13:02.411Z</time>
      </trkpt>
      <trkpt lat="42.93931245804" lon="-0.05109071732">
        <ele>538.83438176005</ele>
        <time>2021-08-03T21:13:12.985Z</time>
      </trkpt>
      <trkpt lat="42.93940901756" lon="-0.05144476891">
        <ele>537.02438675578</ele>
        <time>2021-08-03T21:13:23.564Z</time>
      </trkpt>
      <trkpt lat="42.93947339058" lon="-0.05188465118">
        <ele>535.3644081812</ele>
        <time>2021-08-03T21:13:34.148Z</time>
      </trkpt>
      <trkpt lat="42.9395699501" lon="-0.05230307579">
        <ele>533.46717373328</ele>
        <time>2021-08-03T21:13:44.737Z</time>
      </trkpt>
      <trkpt lat="42.9398059845" lon="-0.05292534828">
        <ele>531.3776465045</ele>
        <time>2021-08-03T21:13:55.334Z</time>
      </trkpt>
      <trkpt lat="42.93993473053" lon="-0.05315065384">
        <ele>529.95709784491</ele>
        <time>2021-08-03T21:14:05.935Z</time>
      </trkpt>
      <trkpt lat="42.94008493423" lon="-0.05327939987">
        <ele>527.7176070021</ele>
        <time>2021-08-03T21:14:16.538Z</time>
      </trkpt>
      <trkpt lat="42.94024586678" lon="-0.05331158638">
        <ele>525.85365716026</ele>
        <time>2021-08-03T21:14:27.144Z</time>
      </trkpt>
      <trkpt lat="42.94038534164" lon="-0.05330085754">
        <ele>523.95629104173</ele>
        <time>2021-08-03T21:14:37.752Z</time>
      </trkpt>
      <trkpt lat="42.94053554535" lon="-0.05321502686">
        <ele>521.96735492731</ele>
        <time>2021-08-03T21:14:48.363Z</time>
      </trkpt>
      <trkpt lat="42.94088959694" lon="-0.05285024643">
        <ele>519.70978831802</ele>
        <time>2021-08-03T21:14:58.981Z</time>
      </trkpt>
      <trkpt lat="42.9415333271" lon="-0.05222797394">
        <ele>517.88829126238</ele>
        <time>2021-08-03T21:15:09.612Z</time>
      </trkpt>
      <trkpt lat="42.94166207314" lon="-0.05213141441">
        <ele>516.19561460814</ele>
        <time>2021-08-03T21:15:20.245Z</time>
      </trkpt>
      <trkpt lat="42.94179081917" lon="-0.05210995674">
        <ele>514.60484525061</ele>
        <time>2021-08-03T21:15:30.880Z</time>
      </trkpt>
      <trkpt lat="42.94201612473" lon="-0.05216360092">
        <ele>513.28700547162</ele>
        <time>2021-08-03T21:15:41.519Z</time>
      </trkpt>
      <trkpt lat="42.94240236282" lon="-0.05251765251">
        <ele>512.00611502918</ele>
        <time>2021-08-03T21:15:52.165Z</time>
      </trkpt>
      <trkpt lat="42.94267058372" lon="-0.05285024643">
        <ele>510.52092802319</ele>
        <time>2021-08-03T21:16:02.817Z</time>
      </trkpt>
      <trkpt lat="42.94282078743" lon="-0.05297899246">
        <ele>509.06735963661</ele>
        <time>2021-08-03T21:16:13.472Z</time>
      </trkpt>
      <trkpt lat="42.94351816177" lon="-0.0534081459">
        <ele>507.93994779677</ele>
        <time>2021-08-03T21:16:24.139Z</time>
      </trkpt>
      <trkpt lat="42.94389367104" lon="-0.05366563797">
        <ele>506.49082423471</ele>
        <time>2021-08-03T21:16:34.813Z</time>
      </trkpt>
      <trkpt lat="42.94419407845" lon="-0.05394458771">
        <ele>505.01687036423</ele>
        <time>2021-08-03T21:16:45.493Z</time>
      </trkpt>
      <trkpt lat="42.94551372528" lon="-0.05553245544">
        <ele>504.18217841864</ele>
        <time>2021-08-03T21:16:56.201Z</time>
      </trkpt>
      <trkpt lat="42.94669389725" lon="-0.0569164753">
        <ele>502.85844769872</ele>
        <time>2021-08-03T21:17:06.934Z</time>
      </trkpt>
      <trkpt lat="42.94685482979" lon="-0.05724906921">
        <ele>501.88292963238</ele>
        <time>2021-08-03T21:17:17.671Z</time>
      </trkpt>
      <trkpt lat="42.94694066048" lon="-0.05753874779">
        <ele>501.09030075774</ele>
        <time>2021-08-03T21:17:28.412Z</time>
      </trkpt>
      <trkpt lat="42.94713377953" lon="-0.05853652954">
        <ele>500.17066677691</ele>
        <time>2021-08-03T21:17:39.165Z</time>
      </trkpt>
      <trkpt lat="42.94723033905" lon="-0.05890130997">
        <ele>499.24001208213</ele>
        <time>2021-08-03T21:17:49.923Z</time>
      </trkpt>
      <trkpt lat="42.94735908508" lon="-0.05925536156">
        <ele>498.45489151863</ele>
        <time>2021-08-03T21:18:00.685Z</time>
      </trkpt>
      <trkpt lat="42.94749855995" lon="-0.05960941315">
        <ele>497.35337354085</ele>
        <time>2021-08-03T21:18:11.452Z</time>
      </trkpt>
      <trkpt lat="42.94767022133" lon="-0.05994200706">
        <ele>497.09885252668</ele>
        <time>2021-08-03T21:18:22.224Z</time>
      </trkpt>
      <trkpt lat="42.94805645943" lon="-0.06055355072">
        <ele>496.57946949678</ele>
        <time>2021-08-03T21:18:33.005Z</time>
      </trkpt>
      <trkpt lat="42.94848561287" lon="-0.06134748459">
        <ele>495.3742889937</ele>
        <time>2021-08-03T21:18:43.798Z</time>
      </trkpt>
      <trkpt lat="42.949000597" lon="-0.06242036819">
        <ele>495.32774514246</ele>
        <time>2021-08-03T21:18:54.606Z</time>
      </trkpt>
      <trkpt lat="42.94930100441" lon="-0.06292462349">
        <ele>494.03319638222</ele>
        <time>2021-08-03T21:19:05.422Z</time>
      </trkpt>
      <trkpt lat="42.94947266579" lon="-0.06324648857">
        <ele>494.14095629143</ele>
        <time>2021-08-03T21:19:16.242Z</time>
      </trkpt>
      <trkpt lat="42.94990181923" lon="-0.06438374519">
        <ele>493.63127404516</ele>
        <time>2021-08-03T21:19:27.077Z</time>
      </trkpt>
      <trkpt lat="42.94996619225" lon="-0.06463050842">
        <ele>493.23678066969</ele>
        <time>2021-08-03T21:19:37.915Z</time>
      </trkpt>
      <trkpt lat="42.95034170151" lon="-0.06644368172">
        <ele>492.97057502528</ele>
        <time>2021-08-03T21:19:48.775Z</time>
      </trkpt>
      <trkpt lat="42.95048117638" lon="-0.06702303886">
        <ele>492.88169621186</ele>
        <time>2021-08-03T21:19:59.643Z</time>
      </trkpt>
      <trkpt lat="42.95055627823" lon="-0.06728053093">
        <ele>493.03475392764</ele>
        <time>2021-08-03T21:20:10.514Z</time>
      </trkpt>
      <trkpt lat="42.95058846474" lon="-0.06733417511">
        <ele>493.16548567303</ele>
        <time>2021-08-03T21:20:21.386Z</time>
      </trkpt>
      <trkpt lat="42.95071721077" lon="-0.06744146347">
        <ele>493.21597834768</ele>
        <time>2021-08-03T21:20:32.260Z</time>
      </trkpt>
      <trkpt lat="42.95074939728" lon="-0.06737709045">
        <ele>493.41299542685</ele>
        <time>2021-08-03T21:20:43.135Z</time>
      </trkpt>
      <trkpt lat="42.95083522797" lon="-0.0673019886">
        <ele>493.59654712479</ele>
        <time>2021-08-03T21:20:54.012Z</time>
      </trkpt>
      <trkpt lat="42.95091032982" lon="-0.0673019886">
        <ele>493.93374867729</ele>
        <time>2021-08-03T21:21:04.890Z</time>
      </trkpt>
      <trkpt lat="42.95097470284" lon="-0.06733417511">
        <ele>494.5071738277</ele>
        <time>2021-08-03T21:21:15.769Z</time>
      </trkpt>
      <trkpt lat="42.95101761818" lon="-0.06738781929">
        <ele>495.17279096179</ele>
        <time>2021-08-03T21:21:26.649Z</time>
      </trkpt>
      <trkpt lat="42.95104980469" lon="-0.06747364998">
        <ele>495.92548359208</ele>
        <time>2021-08-03T21:21:37.530Z</time>
      </trkpt>
      <trkpt lat="42.95106053352" lon="-0.06755948067">
        <ele>496.74346451812</ele>
        <time>2021-08-03T21:21:48.412Z</time>
      </trkpt>
      <trkpt lat="42.95101761818" lon="-0.0676882267">
        <ele>497.63891963966</ele>
        <time>2021-08-03T21:21:59.296Z</time>
      </trkpt>
      <trkpt lat="42.95097470284" lon="-0.06774187088">
        <ele>498.53963547259</ele>
        <time>2021-08-03T21:22:10.181Z</time>
      </trkpt>
      <trkpt lat="42.95091032982" lon="-0.06778478622">
        <ele>499.46457091886</ele>
        <time>2021-08-03T21:22:21.067Z</time>
      </trkpt>
      <trkpt lat="42.95101761818" lon="-0.06814956665">
        <ele>500.64864085606</ele>
        <time>2021-08-03T21:22:31.957Z</time>
      </trkpt>
      <trkpt lat="42.95110353269" lon="-0.06829977036">
        <ele>501.66937040662</ele>
        <time>2021-08-03T21:22:42.850Z</time>
      </trkpt>
      <trkpt lat="42.95124292374" lon="-0.06854653358">
        <ele>502.65236087916</ele>
        <time>2021-08-03T21:22:53.746Z</time>
      </trkpt>
      <trkpt lat="42.95139312744" lon="-0.06896495819">
        <ele>503.78246782455</ele>
        <time>2021-08-03T21:23:04.648Z</time>
      </trkpt>
      <trkpt lat="42.95139321126" lon="-0.06896495819">
        <ele>504.49050520546</ele>
        <time>2021-08-03T21:23:15.550Z</time>
      </trkpt>
      <trkpt lat="42.95141458511" lon="-0.06904006004">
        <ele>505.25395276568</ele>
        <time>2021-08-03T21:23:26.453Z</time>
      </trkpt>
      <trkpt lat="42.95156478882" lon="-0.06945848465">
        <ele>506.17668549704</ele>
        <time>2021-08-03T21:23:37.361Z</time>
      </trkpt>
      <trkpt lat="42.95163997449" lon="-0.06960868835">
        <ele>506.6656354833</ele>
        <time>2021-08-03T21:23:48.271Z</time>
      </trkpt>
      <trkpt lat="42.9517364502" lon="-0.06969451904">
        <ele>506.93695889618</ele>
        <time>2021-08-03T21:23:59.183Z</time>
      </trkpt>
      <trkpt lat="42.95190819539" lon="-0.06978034973">
        <ele>507.03550321563</ele>
        <time>2021-08-03T21:24:10.098Z</time>
      </trkpt>
      <trkpt lat="42.95202612877" lon="-0.06982326508">
        <ele>506.97390442138</ele>
        <time>2021-08-03T21:24:21.015Z</time>
      </trkpt>
      <trkpt lat="42.95202621259" lon="-0.06982326508">
        <ele>506.8317775342</ele>
        <time>2021-08-03T21:24:31.932Z</time>
      </trkpt>
      <trkpt lat="42.9521548748" lon="-0.06986618042">
        <ele>506.48303747539</ele>
        <time>2021-08-03T21:24:42.851Z</time>
      </trkpt>
      <trkpt lat="42.95240163803" lon="-0.06986618042">
        <ele>505.72124193865</ele>
        <time>2021-08-03T21:24:53.774Z</time>
      </trkpt>
      <trkpt lat="42.95262694359" lon="-0.06995201111">
        <ele>505.08382421001</ele>
        <time>2021-08-03T21:25:04.701Z</time>
      </trkpt>
      <trkpt lat="42.95318484306" lon="-0.07022023201">
        <ele>504.35555217227</ele>
        <time>2021-08-03T21:25:15.637Z</time>
      </trkpt>
      <trkpt lat="42.95343169011" lon="-0.07037043571">
        <ele>503.49989747322</ele>
        <time>2021-08-03T21:25:26.578Z</time>
      </trkpt>
      <trkpt lat="42.95441865921" lon="-0.07103562355">
        <ele>502.69356828565</ele>
        <time>2021-08-03T21:25:37.536Z</time>
      </trkpt>
      <trkpt lat="42.95471906662" lon="-0.07131457329">
        <ele>501.50981342295</ele>
        <time>2021-08-03T21:25:48.500Z</time>
      </trkpt>
      <trkpt lat="42.95480489731" lon="-0.07118582726">
        <ele>499.27376970625</ele>
        <time>2021-08-03T21:25:59.466Z</time>
      </trkpt>
      <trkpt lat="42.95495510101" lon="-0.07101416588">
        <ele>497.91114873625</ele>
        <time>2021-08-03T21:26:10.435Z</time>
      </trkpt>
      <trkpt lat="42.95495518483" lon="-0.07101416588">
        <ele>496.73692366736</ele>
        <time>2021-08-03T21:26:21.404Z</time>
      </trkpt>
      <trkpt lat="42.95521259308" lon="-0.07085323334">
        <ele>495.33310606323</ele>
        <time>2021-08-03T21:26:32.378Z</time>
      </trkpt>
      <trkpt lat="42.95539506711" lon="-0.07086396217">
        <ele>494.09820519638</ele>
        <time>2021-08-03T21:26:43.355Z</time>
      </trkpt>
      <trkpt lat="42.95539498329" lon="-0.07086396217">
        <ele>492.81712674451</ele>
        <time>2021-08-03T21:26:54.332Z</time>
      </trkpt>
      <trkpt lat="42.95560956001" lon="-0.07091760635">
        <ele>491.50286646504</ele>
        <time>2021-08-03T21:27:05.312Z</time>
      </trkpt>
      <trkpt lat="42.95583486557" lon="-0.0709605217">
        <ele>490.15661136249</ele>
        <time>2021-08-03T21:27:16.296Z</time>
      </trkpt>
      <trkpt lat="42.95594215393" lon="-0.07094979286">
        <ele>488.81055042645</ele>
        <time>2021-08-03T21:27:27.282Z</time>
      </trkpt>
      <trkpt lat="42.95604944229" lon="-0.07089614868">
        <ele>487.45843376857</ele>
        <time>2021-08-03T21:27:38.269Z</time>
      </trkpt>
      <trkpt lat="42.95618891716" lon="-0.07075667381">
        <ele>486.10139811509</ele>
        <time>2021-08-03T21:27:49.259Z</time>
      </trkpt>
      <trkpt lat="42.95647867955" lon="-0.07054209709">
        <ele>484.73503341891</ele>
        <time>2021-08-03T21:28:00.254Z</time>
      </trkpt>
      <trkpt lat="42.95699366368" lon="-0.0701880455">
        <ele>483.35767910525</ele>
        <time>2021-08-03T21:28:11.259Z</time>
      </trkpt>
      <trkpt lat="42.95730479993" lon="-0.06998419762">
        <ele>482.04460739482</ele>
        <time>2021-08-03T21:28:22.269Z</time>
      </trkpt>
      <trkpt lat="42.95750864781" lon="-0.06984472275">
        <ele>480.77566161709</ele>
        <time>2021-08-03T21:28:33.283Z</time>
      </trkpt>
      <trkpt lat="42.95760520734" lon="-0.06974816322">
        <ele>479.55409173466</ele>
        <time>2021-08-03T21:28:44.299Z</time>
      </trkpt>
      <trkpt lat="42.9577124957" lon="-0.06941556931">
        <ele>478.3458377934</ele>
        <time>2021-08-03T21:28:55.319Z</time>
      </trkpt>
      <trkpt lat="42.95785188675" lon="-0.06893277168">
        <ele>477.18561059344</ele>
        <time>2021-08-03T21:29:06.345Z</time>
      </trkpt>
      <trkpt lat="42.95842051506" lon="-0.06751656532">
        <ele>475.92010879047</ele>
        <time>2021-08-03T21:29:17.390Z</time>
      </trkpt>
      <trkpt lat="42.95844197273" lon="-0.06740927696">
        <ele>474.92297607461</ele>
        <time>2021-08-03T21:29:28.436Z</time>
      </trkpt>
      <trkpt lat="42.95856007375" lon="-0.06735563278">
        <ele>473.98615071402</ele>
        <time>2021-08-03T21:29:39.484Z</time>
      </trkpt>
      <trkpt lat="42.95889258385" lon="-0.06685137749">
        <ele>473.04041088097</ele>
        <time>2021-08-03T21:29:50.540Z</time>
      </trkpt>
      <trkpt lat="42.95904278755" lon="-0.06671190262">
        <ele>472.22357325383</ele>
        <time>2021-08-03T21:30:01.599Z</time>
      </trkpt>
      <trkpt lat="42.95984745026" lon="-0.06617546082">
        <ele>471.39719188262</ele>
        <time>2021-08-03T21:30:12.673Z</time>
      </trkpt>
      <trkpt lat="42.96006202698" lon="-0.06607890129">
        <ele>470.75630774783</ele>
        <time>2021-08-03T21:30:23.750Z</time>
      </trkpt>
      <trkpt lat="42.96026587486" lon="-0.06602525711">
        <ele>470.20001638668</ele>
        <time>2021-08-03T21:30:34.831Z</time>
      </trkpt>
      <trkpt lat="42.96094179153" lon="-0.0659930706">
        <ele>469.69405463239</ele>
        <time>2021-08-03T21:30:45.922Z</time>
      </trkpt>
      <trkpt lat="42.96116709709" lon="-0.06601452827">
        <ele>469.21096862777</ele>
        <time>2021-08-03T21:30:57.017Z</time>
      </trkpt>
      <trkpt lat="42.96121001244" lon="-0.06602525711">
        <ele>468.82547126975</ele>
        <time>2021-08-03T21:31:08.113Z</time>
      </trkpt>
      <trkpt lat="42.96122074127" lon="-0.06598234177">
        <ele>468.49489255555</ele>
        <time>2021-08-03T21:31:19.209Z</time>
      </trkpt>
      <trkpt lat="42.96124219894" lon="-0.06596088409">
        <ele>468.2114137883</ele>
        <time>2021-08-03T21:31:30.306Z</time>
      </trkpt>
      <trkpt lat="42.96128511429" lon="-0.06596088409">
        <ele>467.96856804024</ele>
        <time>2021-08-03T21:31:41.403Z</time>
      </trkpt>
      <trkpt lat="42.96161770821" lon="-0.06606817245">
        <ele>467.74584796291</ele>
        <time>2021-08-03T21:31:52.506Z</time>
      </trkpt>
      <trkpt lat="42.96167135239" lon="-0.06612181664">
        <ele>467.568720094</ele>
        <time>2021-08-03T21:32:03.610Z</time>
      </trkpt>
      <trkpt lat="42.96167143621" lon="-0.06612181664">
        <ele>467.4148608672</ele>
        <time>2021-08-03T21:32:14.714Z</time>
      </trkpt>
      <trkpt lat="42.96213269234" lon="-0.06674408913">
        <ele>467.27360730559</ele>
        <time>2021-08-03T21:32:25.828Z</time>
      </trkpt>
      <trkpt lat="42.96229362488" lon="-0.06700158119">
        <ele>467.13844763593</ele>
        <time>2021-08-03T21:32:36.946Z</time>
      </trkpt>
      <trkpt lat="42.96243309975" lon="-0.06713032722">
        <ele>466.99537344589</ele>
        <time>2021-08-03T21:32:48.067Z</time>
      </trkpt>
      <trkpt lat="42.96247609891" lon="-0.06722688675">
        <ele>466.84902850204</ele>
        <time>2021-08-03T21:32:59.189Z</time>
      </trkpt>
      <trkpt lat="42.96257257462" lon="-0.06740927696">
        <ele>466.70004672868</ele>
        <time>2021-08-03T21:33:10.314Z</time>
      </trkpt>
      <trkpt lat="42.96263694763" lon="-0.06748437881">
        <ele>466.47276137409</ele>
        <time>2021-08-03T21:33:21.440Z</time>
      </trkpt>
      <trkpt lat="42.96267986298" lon="-0.06750583649">
        <ele>466.18187086879</ele>
        <time>2021-08-03T21:33:32.567Z</time>
      </trkpt>
      <trkpt lat="42.96310901642" lon="-0.06833195686">
        <ele>465.77583502386</ele>
        <time>2021-08-03T21:33:43.706Z</time>
      </trkpt>
      <trkpt lat="42.96310910024" lon="-0.06833195686">
        <ele>465.37324794574</ele>
        <time>2021-08-03T21:33:54.845Z</time>
      </trkpt>
      <trkpt lat="42.96469688416" lon="-0.07136821747">
        <ele>464.81173118039</ele>
        <time>2021-08-03T21:34:06.028Z</time>
      </trkpt>
      <trkpt lat="42.96510457993" lon="-0.07204413414">
        <ele>464.26910443597</ele>
        <time>2021-08-03T21:34:17.221Z</time>
      </trkpt>
      <trkpt lat="42.96526551247" lon="-0.0722694397">
        <ele>463.65004509059</ele>
        <time>2021-08-03T21:34:28.418Z</time>
      </trkpt>
      <trkpt lat="42.96539434232" lon="-0.0724196434">
        <ele>462.94067588686</ele>
        <time>2021-08-03T21:34:39.617Z</time>
      </trkpt>
      <trkpt lat="42.96542644501" lon="-0.07246255875">
        <ele>462.13916357474</ele>
        <time>2021-08-03T21:34:50.817Z</time>
      </trkpt>
      <trkpt lat="42.96542652883" lon="-0.07246255875">
        <ele>461.23627442123</ele>
        <time>2021-08-03T21:35:02.017Z</time>
      </trkpt>
      <trkpt lat="42.96556591988" lon="-0.07264494896">
        <ele>460.22490695521</ele>
        <time>2021-08-03T21:35:13.220Z</time>
      </trkpt>
      <trkpt lat="42.96572693624" lon="-0.07278442383">
        <ele>459.09851398074</ele>
        <time>2021-08-03T21:35:24.426Z</time>
      </trkpt>
      <trkpt lat="42.96617746353" lon="-0.07312774658">
        <ele>457.84604540556</ele>
        <time>2021-08-03T21:35:35.640Z</time>
      </trkpt>
      <trkpt lat="42.96649932861" lon="-0.07332086563">
        <ele>456.51089308465</ele>
        <time>2021-08-03T21:35:46.860Z</time>
      </trkpt>
      <trkpt lat="42.96668171883" lon="-0.07340669632">
        <ele>455.09261933541</ele>
        <time>2021-08-03T21:35:58.083Z</time>
      </trkpt>
      <trkpt lat="42.96711087227" lon="-0.07354617119">
        <ele>453.5666244288</ele>
        <time>2021-08-03T21:36:09.313Z</time>
      </trkpt>
      <trkpt lat="42.97118782997" lon="-0.0746512413">
        <ele>451.6014814414</ele>
        <time>2021-08-03T21:36:20.610Z</time>
      </trkpt>
      <trkpt lat="42.97390222549" lon="-0.0754237175">
        <ele>449.6281047451</ele>
        <time>2021-08-03T21:36:31.951Z</time>
      </trkpt>
      <trkpt lat="42.97390230931" lon="-0.0754237175">
        <ele>448.11717460629</ele>
        <time>2021-08-03T21:36:43.292Z</time>
      </trkpt>
      <trkpt lat="42.97396668233" lon="-0.07544517517">
        <ele>446.55553118038</ele>
        <time>2021-08-03T21:36:54.634Z</time>
      </trkpt>
      <trkpt lat="42.9757797718" lon="-0.0759601593">
        <ele>444.9208642592</ele>
        <time>2021-08-03T21:37:06.006Z</time>
      </trkpt>
      <trkpt lat="42.97577985562" lon="-0.0759601593">
        <ele>443.31502149408</ele>
        <time>2021-08-03T21:37:17.378Z</time>
      </trkpt>
      <trkpt lat="42.97838687897" lon="-0.07692575455">
        <ele>441.55064517476</ele>
        <time>2021-08-03T21:37:28.793Z</time>
      </trkpt>
      <trkpt lat="42.98371911049" lon="-0.07930755615">
        <ele>439.7336743793</ele>
        <time>2021-08-03T21:37:40.298Z</time>
      </trkpt>
      <trkpt lat="42.98371919431" lon="-0.07930755615">
        <ele>438.24354957555</ele>
        <time>2021-08-03T21:37:51.803Z</time>
      </trkpt>
      <trkpt lat="42.98779606819" lon="-0.08115291595">
        <ele>436.67363505755</ele>
        <time>2021-08-03T21:38:03.377Z</time>
      </trkpt>
      <trkpt lat="42.98779615201" lon="-0.08115291595">
        <ele>435.27788127649</ele>
        <time>2021-08-03T21:38:14.951Z</time>
      </trkpt>
      <trkpt lat="42.99258112907" lon="-0.08333086967">
        <ele>433.78655046743</ele>
        <time>2021-08-03T21:38:26.605Z</time>
      </trkpt>
      <trkpt lat="42.99242028035" lon="-0.08393168449">
        <ele>431.29900431724</ele>
        <time>2021-08-03T21:38:38.267Z</time>
      </trkpt>
      <trkpt lat="42.99236655235" lon="-0.08418917656">
        <ele>430.20917697582</ele>
        <time>2021-08-03T21:38:49.932Z</time>
      </trkpt>
      <trkpt lat="42.99236655235" lon="-0.08426427841">
        <ele>429.2071929075</ele>
        <time>2021-08-03T21:39:01.598Z</time>
      </trkpt>
      <trkpt lat="42.99250602722" lon="-0.08474707603">
        <ele>428.30213993606</ele>
        <time>2021-08-03T21:39:13.270Z</time>
      </trkpt>
      <trkpt lat="42.99253821373" lon="-0.08483290672">
        <ele>427.46277242259</ele>
        <time>2021-08-03T21:39:24.943Z</time>
      </trkpt>
      <trkpt lat="42.9927957058" lon="-0.08521914482">
        <ele>426.69249973845</ele>
        <time>2021-08-03T21:39:36.622Z</time>
      </trkpt>
      <trkpt lat="42.99280643463" lon="-0.08526206017">
        <ele>426.08067970027</ele>
        <time>2021-08-03T21:39:48.302Z</time>
      </trkpt>
      <trkpt lat="42.99280643463" lon="-0.08532643318">
        <ele>425.57596557551</ele>
        <time>2021-08-03T21:39:59.982Z</time>
      </trkpt>
      <trkpt lat="42.99274206161" lon="-0.08564829826">
        <ele>425.20409235536</ele>
        <time>2021-08-03T21:40:11.666Z</time>
      </trkpt>
      <trkpt lat="42.99275279045" lon="-0.08569121361">
        <ele>424.93383240511</ele>
        <time>2021-08-03T21:40:23.351Z</time>
      </trkpt>
      <trkpt lat="42.99278497696" lon="-0.08575558662">
        <ele>424.78048152055</ele>
        <time>2021-08-03T21:40:35.037Z</time>
      </trkpt>
      <trkpt lat="42.99307465553" lon="-0.08603453636">
        <ele>424.75138371809</ele>
        <time>2021-08-03T21:40:46.728Z</time>
      </trkpt>
      <trkpt lat="42.99318194389" lon="-0.08623838425">
        <ele>424.82457656195</ele>
        <time>2021-08-03T21:40:58.422Z</time>
      </trkpt>
      <trkpt lat="42.99317121506" lon="-0.08641004562">
        <ele>425.00513209987</ele>
        <time>2021-08-03T21:41:10.118Z</time>
      </trkpt>
      <trkpt lat="42.99309619702" lon="-0.08660316467">
        <ele>425.31099231553</ele>
        <time>2021-08-03T21:41:21.817Z</time>
      </trkpt>
      <trkpt lat="42.99295663834" lon="-0.08677482605">
        <ele>425.74493214664</ele>
        <time>2021-08-03T21:41:33.519Z</time>
      </trkpt>
      <trkpt lat="42.99291372299" lon="-0.08693575859">
        <ele>426.3006989871</ele>
        <time>2021-08-03T21:41:45.223Z</time>
      </trkpt>
      <trkpt lat="42.99291372299" lon="-0.08753657341">
        <ele>426.97004583517</ele>
        <time>2021-08-03T21:41:56.934Z</time>
      </trkpt>
      <trkpt lat="42.99294599332" lon="-0.08814811707">
        <ele>427.79042523258</ele>
        <time>2021-08-03T21:42:08.652Z</time>
      </trkpt>
      <trkpt lat="42.9929459095" lon="-0.08814811707">
        <ele>428.62727157604</ele>
        <time>2021-08-03T21:42:20.370Z</time>
      </trkpt>
      <trkpt lat="42.99298890866" lon="-0.08916735649">
        <ele>429.59339541512</ele>
        <time>2021-08-03T21:42:32.100Z</time>
      </trkpt>
      <trkpt lat="42.99301028252" lon="-0.09064793587">
        <ele>430.8246522135</ele>
        <time>2021-08-03T21:42:43.848Z</time>
      </trkpt>
      <trkpt lat="42.99298890866" lon="-0.09083032608">
        <ele>431.79307478399</ele>
        <time>2021-08-03T21:42:55.598Z</time>
      </trkpt>
      <trkpt lat="42.99298882484" lon="-0.09083032608">
        <ele>432.72130605251</ele>
        <time>2021-08-03T21:43:07.348Z</time>
      </trkpt>
      <trkpt lat="42.99318202771" lon="-0.0909268856">
        <ele>433.82528106722</ele>
        <time>2021-08-03T21:43:19.101Z</time>
      </trkpt>
      <trkpt lat="42.99318194389" lon="-0.0909268856">
        <ele>434.73498713718</ele>
        <time>2021-08-03T21:43:30.854Z</time>
      </trkpt>
      <trkpt lat="42.99404025078" lon="-0.09134531021">
        <ele>435.83501239802</ele>
        <time>2021-08-03T21:43:42.622Z</time>
      </trkpt>
      <trkpt lat="42.99434065819" lon="-0.09147405624">
        <ele>436.81747343653</ele>
        <time>2021-08-03T21:43:54.395Z</time>
      </trkpt>
      <trkpt lat="42.99464114942" lon="-0.0915813446">
        <ele>437.5941221859</ele>
        <time>2021-08-03T21:44:06.173Z</time>
      </trkpt>
      <trkpt lat="42.9946410656" lon="-0.0915813446">
        <ele>438.23966934046</ele>
        <time>2021-08-03T21:44:17.951Z</time>
      </trkpt>
      <trkpt lat="42.99512386322" lon="-0.09159207344">
        <ele>438.68705355405</ele>
        <time>2021-08-03T21:44:29.736Z</time>
      </trkpt>
      <trkpt lat="42.99531698227" lon="-0.09163498878">
        <ele>439.48857250258</ele>
        <time>2021-08-03T21:44:41.525Z</time>
      </trkpt>
      <trkpt lat="42.99632549286" lon="-0.09199976921">
        <ele>440.00279698046</ele>
        <time>2021-08-03T21:44:53.330Z</time>
      </trkpt>
      <trkpt lat="42.99660452642" lon="-0.09213924408">
        <ele>441.05852463929</ele>
        <time>2021-08-03T21:45:05.140Z</time>
      </trkpt>
      <trkpt lat="42.9966044426" lon="-0.09213924408">
        <ele>442.17590931724</ele>
        <time>2021-08-03T21:45:16.950Z</time>
      </trkpt>
      <trkpt lat="42.99682974815" lon="-0.09242892265">
        <ele>443.406100144</ele>
        <time>2021-08-03T21:45:28.765Z</time>
      </trkpt>
      <trkpt lat="42.99695857801" lon="-0.0926220417">
        <ele>444.62683342669</ele>
        <time>2021-08-03T21:45:40.583Z</time>
      </trkpt>
      <trkpt lat="42.99702295102" lon="-0.09269714355">
        <ele>445.71560909037</ele>
        <time>2021-08-03T21:45:52.402Z</time>
      </trkpt>
      <trkpt lat="42.99723752774" lon="-0.09301900864">
        <ele>446.82430261061</ele>
        <time>2021-08-03T21:46:04.226Z</time>
      </trkpt>
      <trkpt lat="42.99725898542" lon="-0.09305119514">
        <ele>447.82134325358</ele>
        <time>2021-08-03T21:46:16.051Z</time>
      </trkpt>
      <trkpt lat="42.99767741002" lon="-0.09368419647">
        <ele>449.05838768651</ele>
        <time>2021-08-03T21:46:27.886Z</time>
      </trkpt>
      <trkpt lat="42.99791344441" lon="-0.09408116341">
        <ele>449.64564987148</ele>
        <time>2021-08-03T21:46:39.727Z</time>
      </trkpt>
      <trkpt lat="42.9979133606" lon="-0.09408116341">
        <ele>450.0914057309</ele>
        <time>2021-08-03T21:46:51.568Z</time>
      </trkpt>
      <trkpt lat="42.99795627594" lon="-0.09416699409">
        <ele>450.47475136163</ele>
        <time>2021-08-03T21:47:03.410Z</time>
      </trkpt>
      <trkpt lat="42.99806364812" lon="-0.09432792664">
        <ele>450.72097721804</ele>
        <time>2021-08-03T21:47:15.255Z</time>
      </trkpt>
      <trkpt lat="42.99810647964" lon="-0.09438157082">
        <ele>450.93091866521</ele>
        <time>2021-08-03T21:47:27.101Z</time>
      </trkpt>
      <trkpt lat="42.99827814102" lon="-0.09467124939">
        <ele>451.03632389224</ele>
        <time>2021-08-03T21:47:38.951Z</time>
      </trkpt>
      <trkpt lat="42.99840697087" lon="-0.0948536396">
        <ele>451.17401605477</ele>
        <time>2021-08-03T21:47:50.804Z</time>
      </trkpt>
      <trkpt lat="42.99884685315" lon="-0.09544372559">
        <ele>451.40195723877</ele>
        <time>2021-08-03T21:48:02.667Z</time>
      </trkpt>
      <trkpt lat="42.99906142987" lon="-0.0957763195">
        <ele>451.63158083932</ele>
        <time>2021-08-03T21:48:14.535Z</time>
      </trkpt>
      <trkpt lat="42.99906134605" lon="-0.0957763195">
        <ele>451.84077594027</ele>
        <time>2021-08-03T21:48:26.403Z</time>
      </trkpt>
      <trkpt lat="42.99928673543" lon="-0.09611964226">
        <ele>452.05404442436</ele>
        <time>2021-08-03T21:48:38.277Z</time>
      </trkpt>
      <trkpt lat="42.99928665161" lon="-0.09611964226">
        <ele>452.14530528603</ele>
        <time>2021-08-03T21:48:50.151Z</time>
      </trkpt>
      <trkpt lat="42.9993081931" lon="-0.09615182877">
        <ele>452.20621456687</ele>
        <time>2021-08-03T21:49:02.025Z</time>
      </trkpt>
      <trkpt lat="42.99952276982" lon="-0.09648442268">
        <ele>452.21665995286</ele>
        <time>2021-08-03T21:49:13.904Z</time>
      </trkpt>
      <trkpt lat="42.999522686" lon="-0.09648442268">
        <ele>452.2180740821</ele>
        <time>2021-08-03T21:49:25.783Z</time>
      </trkpt>
      <trkpt lat="42.99991973676" lon="-0.09707450867">
        <ele>452.18506930536</ele>
        <time>2021-08-03T21:49:37.672Z</time>
      </trkpt>
      <trkpt lat="42.99997338094" lon="-0.09716033936">
        <ele>452.15533830557</ele>
        <time>2021-08-03T21:49:49.562Z</time>
      </trkpt>
      <trkpt lat="42.99997329712" lon="-0.09716033936">
        <ele>452.10177731162</ele>
        <time>2021-08-03T21:50:01.452Z</time>
      </trkpt>
      <trkpt lat="42.99880879931152" lon="-0.0953926797956228">
        <ele>446.05284162032945</ele>
        <time>2021-08-05T07:11:59.000Z</time>
      </trkpt>
      <trkpt lat="42.99884685315192" lon="-0.0954437255859375">
        <ele>446.04474632690153</ele>
        <time>2021-08-05T07:11:59.001Z</time>
      </trkpt>
      <trkpt lat="42.99906142987311" lon="-0.0957763195037842">
        <ele>446.0262034782778</ele>
        <time>2021-08-05T07:11:59.007Z</time>
      </trkpt>
      <trkpt lat="42.99906134605408" lon="-0.0957763195037842">
        <ele>446.0255627652324</ele>
        <time>2021-08-05T07:11:59.013Z</time>
      </trkpt>
      <trkpt lat="42.99928673543036" lon="-0.0961196422576904">
        <ele>445.93276701274976</ele>
        <time>2021-08-05T07:11:59.024Z</time>
      </trkpt>
      <trkpt lat="42.99928665161133" lon="-0.0961196422576904">
        <ele>445.89943015958</ele>
        <time>2021-08-05T07:11:59.035Z</time>
      </trkpt>
      <trkpt lat="42.99930819310248" lon="-0.0961518287658691">
        <ele>445.8811110075117</ele>
        <time>2021-08-05T07:11:59.047Z</time>
      </trkpt>
      <trkpt lat="42.99952276982367" lon="-0.0964844226837158">
        <ele>445.9781800133294</ele>
        <time>2021-08-05T07:11:59.064Z</time>
      </trkpt>
      <trkpt lat="42.99952268600464" lon="-0.0964844226837158">
        <ele>446.05297899171575</ele>
        <time>2021-08-05T07:11:59.081Z</time>
      </trkpt>
      <trkpt lat="42.999919736757874" lon="-0.0970745086669922">
        <ele>446.2216757101992</ele>
        <time>2021-08-05T07:11:59.108Z</time>
      </trkpt>
      <trkpt lat="42.99997338093817" lon="-0.0971603393554688">
        <ele>446.36819992966593</ele>
        <time>2021-08-05T07:11:59.136Z</time>
      </trkpt>
      <trkpt lat="43.00019868649542" lon="-0.0974929332733154">
        <ele>446.56150290852713</ele>
        <time>2021-08-05T07:11:59.169Z</time>
      </trkpt>
      <trkpt lat="43.00054200924933" lon="-0.0980401039123535">
        <ele>446.87533939319337</ele>
        <time>2021-08-05T07:11:59.211Z</time>
      </trkpt>
      <trkpt lat="43.000928247347474" lon="-0.0985872745513916">
        <ele>447.12796762169114</ele>
        <time>2021-08-05T07:11:59.262Z</time>
      </trkpt>
      <trkpt lat="43.0012930277735" lon="-0.099027156829834">
        <ele>447.49432258453805</ele>
        <time>2021-08-05T07:11:59.320Z</time>
      </trkpt>
      <trkpt lat="43.00142168998718" lon="-0.0992095470428467">
        <ele>447.851792548819</ele>
        <time>2021-08-05T07:11:59.381Z</time>
      </trkpt>
      <trkpt lat="43.00148606300354" lon="-0.0991344451904297">
        <ele>448.15571814135234</ele>
        <time>2021-08-05T07:11:59.444Z</time>
      </trkpt>
      <trkpt lat="43.00156116485596" lon="-0.0991451740264893">
        <ele>448.4640907822017</ele>
        <time>2021-08-05T07:11:59.508Z</time>
      </trkpt>
      <trkpt lat="43.001604080200195" lon="-0.099177360534668">
        <ele>448.7707720759987</ele>
        <time>2021-08-05T07:11:59.573Z</time>
      </trkpt>
      <trkpt lat="43.001636266708374" lon="-0.0992739200592041">
        <ele>449.0775186872585</ele>
        <time>2021-08-05T07:11:59.639Z</time>
      </trkpt>
      <trkpt lat="43.001614809036255" lon="-0.0993812084197998">
        <ele>449.388862666136</ele>
        <time>2021-08-05T07:11:59.706Z</time>
      </trkpt>
      <trkpt lat="43.0015504360199" lon="-0.0994348526000977">
        <ele>449.71548886449114</ele>
        <time>2021-08-05T07:11:59.774Z</time>
      </trkpt>
      <trkpt lat="43.001625621691346" lon="-0.0995743274688721">
        <ele>450.02258850070984</ele>
        <time>2021-08-05T07:11:59.844Z</time>
      </trkpt>
      <trkpt lat="43.001625537872314" lon="-0.0995743274688721">
        <ele>450.3274297115601</ele>
        <time>2021-08-05T07:11:59.914Z</time>
      </trkpt>
      <trkpt lat="43.0017972830683" lon="-0.0998854637145996">
        <ele>450.6137940036499</ele>
        <time>2021-08-05T07:11:59.989Z</time>
      </trkpt>
      <trkpt lat="43.00181874074042" lon="-0.0999176502227783">
        <ele>450.91107176887317</ele>
        <time>2021-08-05T07:12:00.065Z</time>
      </trkpt>
      <trkpt lat="43.00181865692139" lon="-0.0999176502227783">
        <ele>451.2189278445508</ele>
        <time>2021-08-05T07:12:00.141Z</time>
      </trkpt>
      <trkpt lat="43.00222643651068" lon="-0.1006686687469482">
        <ele>451.52809329902686</ele>
        <time>2021-08-05T07:12:00.228Z</time>
      </trkpt>
      <trkpt lat="43.00234445370734" lon="-0.1009154319763184">
        <ele>451.91711143222915</ele>
        <time>2021-08-05T07:12:00.318Z</time>
      </trkpt>
      <trkpt lat="43.00247319974005" lon="-0.1011514663696289">
        <ele>452.30817406800884</ele>
        <time>2021-08-05T07:12:00.411Z</time>
      </trkpt>
      <trkpt lat="43.00255903042853" lon="-0.1013338565826416">
        <ele>452.76471165426835</ele>
        <time>2021-08-05T07:12:00.507Z</time>
      </trkpt>
      <trkpt lat="43.00256975926459" lon="-0.1013553142547607">
        <ele>453.2145934119735</ele>
        <time>2021-08-05T07:12:00.603Z</time>
      </trkpt>
      <trkpt lat="43.00269842147827" lon="-0.1016879081726074">
        <ele>453.96797435729945</ele>
        <time>2021-08-05T07:12:00.704Z</time>
      </trkpt>
      <trkpt lat="43.002859354019165" lon="-0.1017200946807861">
        <ele>454.71021715623726</ele>
        <time>2021-08-05T07:12:00.807Z</time>
      </trkpt>
      <trkpt lat="43.003138387575746" lon="-0.1016771793365479">
        <ele>455.55767369202647</ele>
        <time>2021-08-05T07:12:00.915Z</time>
      </trkpt>
      <trkpt lat="43.00322421826422" lon="-0.1016557216644287">
        <ele>456.34661896014387</ele>
        <time>2021-08-05T07:12:01.024Z</time>
      </trkpt>
      <trkpt lat="43.00349235534668" lon="-0.1015377044677734">
        <ele>457.2211950694449</ele>
        <time>2021-08-05T07:12:01.138Z</time>
      </trkpt>
      <trkpt lat="43.00429701805115" lon="-0.1011192798614502">
        <ele>457.7587467030262</ele>
        <time>2021-08-05T07:12:01.265Z</time>
      </trkpt>
      <trkpt lat="43.00451167859137" lon="-0.1010012626647949">
        <ele>458.5274315390716</ele>
        <time>2021-08-05T07:12:01.396Z</time>
      </trkpt>
      <trkpt lat="43.00493001937866" lon="-0.1008188724517822">
        <ele>459.2820596394837</ele>
        <time>2021-08-05T07:12:01.534Z</time>
      </trkpt>
      <trkpt lat="43.00498374737799" lon="-0.1010441780090332">
        <ele>460.05449418122083</ele>
        <time>2021-08-05T07:12:01.675Z</time>
      </trkpt>
      <trkpt lat="43.00503739155829" lon="-0.1012694835662842">
        <ele>460.82654056250567</ele>
        <time>2021-08-05T07:12:01.819Z</time>
      </trkpt>
      <trkpt lat="43.00504803657532" lon="-0.1013123989105225">
        <ele>461.5901532320708</ele>
        <time>2021-08-05T07:12:01.963Z</time>
      </trkpt>
      <trkpt lat="43.00508030690253" lon="-0.1014304161071777">
        <ele>462.38192543330126</ele>
        <time>2021-08-05T07:12:02.109Z</time>
      </trkpt>
      <trkpt lat="43.00505876541138" lon="-0.1014518737792969">
        <ele>463.17463114290445</ele>
        <time>2021-08-05T07:12:02.255Z</time>
      </trkpt>
      <trkpt lat="43.005080223083496" lon="-0.1015591621398926">
        <ele>464.012626759167</ele>
        <time>2021-08-05T07:12:02.403Z</time>
      </trkpt>
      <trkpt lat="43.005112409591675" lon="-0.1015806198120117">
        <ele>464.86295903872053</ele>
        <time>2021-08-05T07:12:02.551Z</time>
      </trkpt>
      <trkpt lat="43.00517678260803" lon="-0.1016020774841309">
        <ele>465.76728828622424</ele>
        <time>2021-08-05T07:12:02.700Z</time>
      </trkpt>
      <trkpt lat="43.00523051060736" lon="-0.10162353515625">
        <ele>466.7098610360649</ele>
        <time>2021-08-05T07:12:02.850Z</time>
      </trkpt>
      <trkpt lat="43.00544508732855" lon="-0.1017093658447266">
        <ele>467.7978610797453</ele>
        <time>2021-08-05T07:12:03.004Z</time>
      </trkpt>
      <trkpt lat="43.0054771900177" lon="-0.1017200946807861">
        <ele>468.8418224429539</ele>
        <time>2021-08-05T07:12:03.158Z</time>
      </trkpt>
      <trkpt lat="43.005820512771606" lon="-0.1017522811889648">
        <ele>469.99326456994083</ele>
        <time>2021-08-05T07:12:03.318Z</time>
      </trkpt>
      <trkpt lat="43.005863511934876" lon="-0.1017844676971436">
        <ele>471.1880002990565</ele>
        <time>2021-08-05T07:12:03.478Z</time>
      </trkpt>
      <trkpt lat="43.005863428115845" lon="-0.1017844676971436">
        <ele>472.39038165022805</ele>
        <time>2021-08-05T07:12:03.638Z</time>
      </trkpt>
      <trkpt lat="43.00578832626343" lon="-0.1018381118774414">
        <ele>473.6587231831125</ele>
        <time>2021-08-05T07:12:03.800Z</time>
      </trkpt>
      <trkpt lat="43.00550937652588" lon="-0.1021170616149902">
        <ele>475.01337264799935</ele>
        <time>2021-08-05T07:12:03.967Z</time>
      </trkpt>
      <trkpt lat="43.005326986312866" lon="-0.1025247573852539">
        <ele>476.5377250576033</ele>
        <time>2021-08-05T07:12:04.140Z</time>
      </trkpt>
      <trkpt lat="43.00498374737799" lon="-0.1030611991882324">
        <ele>478.2422384862947</ele>
        <time>2021-08-05T07:12:04.321Z</time>
      </trkpt>
      <trkpt lat="43.00498366355896" lon="-0.1030611991882324">
        <ele>479.81216271956055</ele>
        <time>2021-08-05T07:12:04.502Z</time>
      </trkpt>
      <trkpt lat="43.00494083203375" lon="-0.103147029876709">
        <ele>481.45244611837956</ele>
        <time>2021-08-05T07:12:04.685Z</time>
      </trkpt>
      <trkpt lat="43.00494074821472" lon="-0.103147029876709">
        <ele>483.102907921926</ele>
        <time>2021-08-05T07:12:04.868Z</time>
      </trkpt>
      <trkpt lat="43.004897916689515" lon="-0.1033508777618408">
        <ele>484.87104506880314</ele>
        <time>2021-08-05T07:12:05.053Z</time>
      </trkpt>
      <trkpt lat="43.00489783287048" lon="-0.1033508777618408">
        <ele>486.61031888291654</ele>
        <time>2021-08-05T07:12:05.238Z</time>
      </trkpt>
      <trkpt lat="43.00485500134528" lon="-0.1038336753845215">
        <ele>488.6178348352202</ele>
        <time>2021-08-05T07:12:05.429Z</time>
      </trkpt>
      <trkpt lat="43.0048228148371" lon="-0.1040053367614746">
        <ele>490.5989525320544</ele>
        <time>2021-08-05T07:12:05.622Z</time>
      </trkpt>
      <trkpt lat="43.004822731018066" lon="-0.1040053367614746">
        <ele>492.51266614942244</ele>
        <time>2021-08-05T07:12:05.815Z</time>
      </trkpt>
      <trkpt lat="43.00479054450989" lon="-0.1041018962860107">
        <ele>494.51217927521833</ele>
        <time>2021-08-05T07:12:06.009Z</time>
      </trkpt>
      <trkpt lat="43.00472617149353" lon="-0.1042091846466064">
        <ele>496.55354558293476</ele>
        <time>2021-08-05T07:12:06.205Z</time>
      </trkpt>
      <trkpt lat="43.0043185595423" lon="-0.1046061515808105">
        <ele>498.96770811912353</ele>
        <time>2021-08-05T07:12:06.409Z</time>
      </trkpt>
      <trkpt lat="43.00431847572327" lon="-0.1046061515808105">
        <ele>501.07045647629866</ele>
        <time>2021-08-05T07:12:06.613Z</time>
      </trkpt>
      <trkpt lat="43.004093170166016" lon="-0.1049387454986572">
        <ele>503.342614176355</ele>
        <time>2021-08-05T07:12:06.822Z</time>
      </trkpt>
      <trkpt lat="43.00398596562445" lon="-0.1051640510559082">
        <ele>505.5438745317797</ele>
        <time>2021-08-05T07:12:07.034Z</time>
      </trkpt>
      <trkpt lat="43.00374984741211" lon="-0.1056146621704102">
        <ele>508.0401898309068</ele>
        <time>2021-08-05T07:12:07.253Z</time>
      </trkpt>
      <trkpt lat="43.00367474555969" lon="-0.1057004928588867">
        <ele>510.28996524649614</ele>
        <time>2021-08-05T07:12:07.473Z</time>
      </trkpt>
      <trkpt lat="43.003599643707275" lon="-0.1057755947113037">
        <ele>512.5024099046939</ele>
        <time>2021-08-05T07:12:07.695Z</time>
      </trkpt>
      <trkpt lat="43.003363609313965" lon="-0.1059472560882568">
        <ele>514.6994284079656</ele>
        <time>2021-08-05T07:12:07.921Z</time>
      </trkpt>
      <trkpt lat="43.00319203175604" lon="-0.10611891746521">
        <ele>516.9367062515427</ele>
        <time>2021-08-05T07:12:08.150Z</time>
      </trkpt>
      <trkpt lat="43.00308474339545" lon="-0.1062476634979248">
        <ele>519.1225655283303</ele>
        <time>2021-08-05T07:12:08.382Z</time>
      </trkpt>
      <trkpt lat="43.003084659576416" lon="-0.1062476634979248">
        <ele>521.189834296074</ele>
        <time>2021-08-05T07:12:08.614Z</time>
      </trkpt>
      <trkpt lat="43.00274133682251" lon="-0.1067197322845459">
        <ele>523.6118575244343</ele>
        <time>2021-08-05T07:12:08.853Z</time>
      </trkpt>
      <trkpt lat="43.00204396247864" lon="-0.1072990894317627">
        <ele>525.9750524036815</ele>
        <time>2021-08-05T07:12:09.106Z</time>
      </trkpt>
      <trkpt lat="43.001646995544434" lon="-0.1076316833496094">
        <ele>528.1583297759678</ele>
        <time>2021-08-05T07:12:09.366Z</time>
      </trkpt>
      <trkpt lat="43.001368045806885" lon="-0.1079320907592773">
        <ele>530.3177216255579</ele>
        <time>2021-08-05T07:12:09.632Z</time>
      </trkpt>
      <trkpt lat="43.001132011413574" lon="-0.1081573963165283">
        <ele>532.5518440377359</ele>
        <time>2021-08-05T07:12:09.902Z</time>
      </trkpt>
      <trkpt lat="43.000853061676025" lon="-0.1083505153656006">
        <ele>534.6728520736218</ele>
        <time>2021-08-05T07:12:10.177Z</time>
      </trkpt>
      <trkpt lat="43.00029516220093" lon="-0.1086831092834473">
        <ele>537.1005452574454</ele>
        <time>2021-08-05T07:12:10.462Z</time>
      </trkpt>
      <trkpt lat="43.00015568733215" lon="-0.1087260246276855">
        <ele>539.1703682581726</ele>
        <time>2021-08-05T07:12:10.749Z</time>
      </trkpt>
      <trkpt lat="42.9999840259552" lon="-0.1087367534637451">
        <ele>540.8189108068531</ele>
        <time>2021-08-05T07:12:11.039Z</time>
      </trkpt>
      <trkpt lat="42.99960860051215" lon="-0.108640193939209">
        <ele>542.0986643199774</ele>
        <time>2021-08-05T07:12:11.335Z</time>
      </trkpt>
      <trkpt lat="42.999608516693115" lon="-0.108640193939209">
        <ele>543.7178424511953</ele>
        <time>2021-08-05T07:12:11.631Z</time>
      </trkpt>
      <trkpt lat="42.99949049949646" lon="-0.1086723804473877">
        <ele>545.1970697393058</ele>
        <time>2021-08-05T07:12:11.929Z</time>
      </trkpt>
      <trkpt lat="42.99940466880798" lon="-0.1087260246276855">
        <ele>546.6809391447814</ele>
        <time>2021-08-05T07:12:12.229Z</time>
      </trkpt>
      <trkpt lat="42.99931883811951" lon="-0.1088118553161621">
        <ele>548.1642946960144</ele>
        <time>2021-08-05T07:12:12.530Z</time>
      </trkpt>
      <trkpt lat="42.99924382008612" lon="-0.108940601348877">
        <ele>549.6776802274483</ele>
        <time>2021-08-05T07:12:12.833Z</time>
      </trkpt>
      <trkpt lat="42.99924373626709" lon="-0.108940601348877">
        <ele>551.165697171568</ele>
        <time>2021-08-05T07:12:13.136Z</time>
      </trkpt>
      <trkpt lat="42.99919009208679" lon="-0.1092839241027832">
        <ele>552.8442049921903</ele>
        <time>2021-08-05T07:12:13.443Z</time>
      </trkpt>
      <trkpt lat="42.999168718233705" lon="-0.1098740100860596">
        <ele>554.4474600956812</ele>
        <time>2021-08-05T07:12:13.757Z</time>
      </trkpt>
      <trkpt lat="42.99916863441467" lon="-0.1098740100860596">
        <ele>556.0264365425288</ele>
        <time>2021-08-05T07:12:14.071Z</time>
      </trkpt>
      <trkpt lat="42.999147176742554" lon="-0.1105070114135742">
        <ele>557.7787491093763</ele>
        <time>2021-08-05T07:12:14.393Z</time>
      </trkpt>
      <trkpt lat="42.999082803726196" lon="-0.111086368560791">
        <ele>559.6978170097993</ele>
        <time>2021-08-05T07:12:14.722Z</time>
      </trkpt>
      <trkpt lat="42.99908288754523" lon="-0.1112794876098633">
        <ele>561.5628790047799</ele>
        <time>2021-08-05T07:12:15.053Z</time>
      </trkpt>
      <trkpt lat="42.99911507405341" lon="-0.1114511489868164">
        <ele>563.6044982103274</ele>
        <time>2021-08-05T07:12:15.386Z</time>
      </trkpt>
      <trkpt lat="42.99925446510315" lon="-0.1117086410522461">
        <ele>566.1080586369249</ele>
        <time>2021-08-05T07:12:15.723Z</time>
      </trkpt>
      <trkpt lat="42.99928665161133" lon="-0.1118159294128418">
        <ele>568.3211236478339</ele>
        <time>2021-08-05T07:12:16.061Z</time>
      </trkpt>
      <trkpt lat="42.99928665161133" lon="-0.1119768619537354">
        <ele>570.4909220969924</ele>
        <time>2021-08-05T07:12:16.401Z</time>
      </trkpt>
      <trkpt lat="42.99926519393921" lon="-0.1120626926422119">
        <ele>572.5944859944582</ele>
        <time>2021-08-05T07:12:16.742Z</time>
      </trkpt>
      <trkpt lat="42.99922227859497" lon="-0.1121914386749268">
        <ele>574.6967340404664</ele>
        <time>2021-08-05T07:12:17.085Z</time>
      </trkpt>
      <trkpt lat="42.99882531166077" lon="-0.1128029823303223">
        <ele>576.5749910666384</ele>
        <time>2021-08-05T07:12:17.437Z</time>
      </trkpt>
      <trkpt lat="42.99869656562805" lon="-0.1130712032318115">
        <ele>578.6738296967475</ele>
        <time>2021-08-05T07:12:17.793Z</time>
      </trkpt>
      <trkpt lat="42.998621463775635" lon="-0.1133823394775391">
        <ele>580.84603043672</ele>
        <time>2021-08-05T07:12:18.153Z</time>
      </trkpt>
      <trkpt lat="42.998632192611694" lon="-0.1140904426574707">
        <ele>583.2048950175136</ele>
        <time>2021-08-05T07:12:18.521Z</time>
      </trkpt>
      <trkpt lat="42.9985785484314" lon="-0.1144230365753174">
        <ele>585.4894742790423</ele>
        <time>2021-08-05T07:12:18.893Z</time>
      </trkpt>
      <trkpt lat="42.99843907356262" lon="-0.1149487495422363">
        <ele>587.8573461241393</ele>
        <time>2021-08-05T07:12:19.272Z</time>
      </trkpt>
      <trkpt lat="42.99844988621771" lon="-0.1151096820831299">
        <ele>590.2631554922831</ele>
        <time>2021-08-05T07:12:19.653Z</time>
      </trkpt>
      <trkpt lat="42.99844980239868" lon="-0.1151096820831299">
        <ele>592.6144627381693</ele>
        <time>2021-08-05T07:12:20.034Z</time>
      </trkpt>
      <trkpt lat="42.99844980239868" lon="-0.1155281066894531">
        <ele>595.2235613063807</ele>
        <time>2021-08-05T07:12:20.420Z</time>
      </trkpt>
      <trkpt lat="42.99842834472656" lon="-0.1156997680664062">
        <ele>597.8427218261231</ele>
        <time>2021-08-05T07:12:20.808Z</time>
      </trkpt>
      <trkpt lat="42.998363971710205" lon="-0.1159036159515381">
        <ele>600.5243691173262</ele>
        <time>2021-08-05T07:12:21.198Z</time>
      </trkpt>
      <trkpt lat="42.99818158149719" lon="-0.1163220405578613">
        <ele>603.3580635496601</ele>
        <time>2021-08-05T07:12:21.594Z</time>
      </trkpt>
      <trkpt lat="42.99795627593994" lon="-0.1167190074920654">
        <ele>606.0442007602112</ele>
        <time>2021-08-05T07:12:21.996Z</time>
      </trkpt>
      <trkpt lat="42.99775242805481" lon="-0.1169657707214355">
        <ele>608.726096985137</ele>
        <time>2021-08-05T07:12:22.402Z</time>
      </trkpt>
      <trkpt lat="42.99749493598938" lon="-0.1171696186065674">
        <ele>611.4819403966965</ele>
        <time>2021-08-05T07:12:22.813Z</time>
      </trkpt>
      <trkpt lat="42.9973126295954" lon="-0.1172661781311035">
        <ele>614.2641350769977</ele>
        <time>2021-08-05T07:12:23.227Z</time>
      </trkpt>
      <trkpt lat="42.99682974815369" lon="-0.1174163818359375">
        <ele>617.2216920698613</ele>
        <time>2021-08-05T07:12:23.649Z</time>
      </trkpt>
      <trkpt lat="42.996153831481934" lon="-0.1175987720489502">
        <ele>620.1270098481593</ele>
        <time>2021-08-05T07:12:24.082Z</time>
      </trkpt>
      <trkpt lat="42.995606660842896" lon="-0.1176416873931885">
        <ele>622.8973265801474</ele>
        <time>2021-08-05T07:12:24.524Z</time>
      </trkpt>
      <trkpt lat="42.99547791481018" lon="-0.1176953315734863">
        <ele>625.6028055116016</ele>
        <time>2021-08-05T07:12:24.968Z</time>
      </trkpt>
      <trkpt lat="42.99541354179382" lon="-0.1177489757537842">
        <ele>628.320220906726</ele>
        <time>2021-08-05T07:12:25.413Z</time>
      </trkpt>
      <trkpt lat="42.99532771110535" lon="-0.1178669929504395">
        <ele>631.0442377977017</ele>
        <time>2021-08-05T07:12:25.860Z</time>
      </trkpt>
      <trkpt lat="42.99519904889166" lon="-0.1181352138519287">
        <ele>633.7685274854116</ele>
        <time>2021-08-05T07:12:26.311Z</time>
      </trkpt>
      <trkpt lat="42.99519896507263" lon="-0.1181352138519287">
        <ele>636.4547227330233</ele>
        <time>2021-08-05T07:12:26.762Z</time>
      </trkpt>
      <trkpt lat="42.99505949020386" lon="-0.1184248924255371">
        <ele>639.1069606052222</ele>
        <time>2021-08-05T07:12:27.217Z</time>
      </trkpt>
      <trkpt lat="42.99501657485962" lon="-0.1185858249664307">
        <ele>641.8006225260814</ele>
        <time>2021-08-05T07:12:27.674Z</time>
      </trkpt>
      <trkpt lat="42.99483426846564" lon="-0.1200234889984131">
        <ele>644.8813200001384</ele>
        <time>2021-08-05T07:12:28.148Z</time>
      </trkpt>
      <trkpt lat="42.994844913482666" lon="-0.1202273368835449">
        <ele>647.6357984357119</ele>
        <time>2021-08-05T07:12:28.625Z</time>
      </trkpt>
      <trkpt lat="42.99510248936713" lon="-0.1209890842437744">
        <ele>650.6424558653401</ele>
        <time>2021-08-05T07:12:29.111Z</time>
      </trkpt>
      <trkpt lat="42.995123863220215" lon="-0.121225118637085">
        <ele>653.3320031479416</ele>
        <time>2021-08-05T07:12:29.600Z</time>
      </trkpt>
      <trkpt lat="42.995123863220215" lon="-0.1214611530303955">
        <ele>656.0097245050524</ele>
        <time>2021-08-05T07:12:30.092Z</time>
      </trkpt>
      <trkpt lat="42.99474835395813" lon="-0.1229202747344971">
        <ele>659.3443757282769</ele>
        <time>2021-08-05T07:12:30.602Z</time>
      </trkpt>
      <trkpt lat="42.99461969174445" lon="-0.1232743263244629">
        <ele>662.1109531092018</ele>
        <time>2021-08-05T07:12:31.117Z</time>
      </trkpt>
      <trkpt lat="42.99460896290839" lon="-0.123295783996582">
        <ele>664.7321902463373</ele>
        <time>2021-08-05T07:12:31.632Z</time>
      </trkpt>
      <trkpt lat="42.99446940422058" lon="-0.1235854625701904">
        <ele>667.3803078932249</ele>
        <time>2021-08-05T07:12:32.151Z</time>
      </trkpt>
      <trkpt lat="42.99428701400757" lon="-0.123896598815918">
        <ele>669.9625690806856</ele>
        <time>2021-08-05T07:12:32.675Z</time>
      </trkpt>
      <trkpt lat="42.99408316612244" lon="-0.1240897178649902">
        <ele>672.4629782658578</ele>
        <time>2021-08-05T07:12:33.203Z</time>
      </trkpt>
      <trkpt lat="42.99378275871277" lon="-0.1242506504058838">
        <ele>675.044095126181</ele>
        <time>2021-08-05T07:12:33.736Z</time>
      </trkpt>
      <trkpt lat="42.99371838569641" lon="-0.1242935657501221">
        <ele>677.4451333464131</ele>
        <time>2021-08-05T07:12:34.270Z</time>
      </trkpt>
      <trkpt lat="42.99354680813849" lon="-0.1245081424713135">
        <ele>679.8545142828873</ele>
        <time>2021-08-05T07:12:34.808Z</time>
      </trkpt>
      <trkpt lat="42.99354672431946" lon="-0.1245081424713135">
        <ele>682.0943435404831</ele>
        <time>2021-08-05T07:12:35.346Z</time>
      </trkpt>
      <trkpt lat="42.99349316395819" lon="-0.12459397315979">
        <ele>684.3061564996099</ele>
        <time>2021-08-05T07:12:35.885Z</time>
      </trkpt>
      <trkpt lat="42.993418062105775" lon="-0.1247119903564453">
        <ele>686.4453796584671</ele>
        <time>2021-08-05T07:12:36.426Z</time>
      </trkpt>
      <trkpt lat="42.992913806810975" lon="-0.125420093536377">
        <ele>688.7559839067555</ele>
        <time>2021-08-05T07:12:36.979Z</time>
      </trkpt>
      <trkpt lat="42.99281716346741" lon="-0.1256453990936279">
        <ele>690.7903186285064</ele>
        <time>2021-08-05T07:12:37.535Z</time>
      </trkpt>
      <trkpt lat="42.99274214543402" lon="-0.1259779930114746">
        <ele>692.7864405358233</ele>
        <time>2021-08-05T07:12:38.095Z</time>
      </trkpt>
      <trkpt lat="42.99260267056525" lon="-0.126718282699585">
        <ele>694.7602262235389</ele>
        <time>2021-08-05T07:12:38.664Z</time>
      </trkpt>
      <trkpt lat="42.9924201965332" lon="-0.1272547245025635">
        <ele>696.6820747394341</ele>
        <time>2021-08-05T07:12:39.240Z</time>
      </trkpt>
      <trkpt lat="42.992162788286805" lon="-0.1277267932891846">
        <ele>698.584707540717</ele>
        <time>2021-08-05T07:12:39.823Z</time>
      </trkpt>
      <trkpt lat="42.99207695759833" lon="-0.1278984546661377">
        <ele>700.3517221705875</ele>
        <time>2021-08-05T07:12:40.408Z</time>
      </trkpt>
      <trkpt lat="42.99199104309082" lon="-0.1281023025512695">
        <ele>702.0240006581854</ele>
        <time>2021-08-05T07:12:40.996Z</time>
      </trkpt>
      <trkpt lat="42.99178727902472" lon="-0.1291215419769287">
        <ele>703.8715807221046</ele>
        <time>2021-08-05T07:12:41.596Z</time>
      </trkpt>
      <trkpt lat="42.99178719520569" lon="-0.1291215419769287">
        <ele>705.4343815235056</ele>
        <time>2021-08-05T07:12:42.196Z</time>
      </trkpt>
      <trkpt lat="42.9917121771723" lon="-0.1294326782226562">
        <ele>707.1191373310539</ele>
        <time>2021-08-05T07:12:42.800Z</time>
      </trkpt>
      <trkpt lat="42.991658449172974" lon="-0.1295614242553711">
        <ele>708.6533449583201</ele>
        <time>2021-08-05T07:12:43.406Z</time>
      </trkpt>
      <trkpt lat="42.99112209118903" lon="-0.1303768157958984">
        <ele>710.038260573413</ele>
        <time>2021-08-05T07:12:44.025Z</time>
      </trkpt>
      <trkpt lat="42.991122007369995" lon="-0.1303768157958984">
        <ele>711.4040920213272</ele>
        <time>2021-08-05T07:12:44.644Z</time>
      </trkpt>
      <trkpt lat="42.9910147190094" lon="-0.1305055618286133">
        <ele>712.7272765059097</ele>
        <time>2021-08-05T07:12:45.265Z</time>
      </trkpt>
      <trkpt lat="42.99026370048523" lon="-0.1313424110412598">
        <ele>714.1923140546124</ele>
        <time>2021-08-05T07:12:45.901Z</time>
      </trkpt>
      <trkpt lat="42.990145683288574" lon="-0.1315140724182129">
        <ele>715.4652133285153</ele>
        <time>2021-08-05T07:12:46.540Z</time>
      </trkpt>
      <trkpt lat="42.99008131027222" lon="-0.1316535472869873">
        <ele>716.7330098279274</ele>
        <time>2021-08-05T07:12:47.181Z</time>
      </trkpt>
      <trkpt lat="42.98998475074768" lon="-0.1321470737457275">
        <ele>718.1112077042567</ele>
        <time>2021-08-05T07:12:47.828Z</time>
      </trkpt>
      <trkpt lat="42.989909732714295" lon="-0.1323723793029785">
        <ele>719.3407386631189</ele>
        <time>2021-08-05T07:12:48.478Z</time>
      </trkpt>
      <trkpt lat="42.989866733551025" lon="-0.1324689388275146">
        <ele>720.5212813671991</ele>
        <time>2021-08-05T07:12:49.129Z</time>
      </trkpt>
      <trkpt lat="42.98978090286255" lon="-0.1325976848602295">
        <ele>721.6808487368891</ele>
        <time>2021-08-05T07:12:49.782Z</time>
      </trkpt>
      <trkpt lat="42.98926600255072" lon="-0.1331984996795654">
        <ele>722.8197342863762</ele>
        <time>2021-08-05T07:12:50.446Z</time>
      </trkpt>
      <trkpt lat="42.989137256518006" lon="-0.1334452629089355">
        <ele>723.9756235424503</ele>
        <time>2021-08-05T07:12:51.114Z</time>
      </trkpt>
      <trkpt lat="42.989137172698975" lon="-0.1334452629089355">
        <ele>725.0977740130054</ele>
        <time>2021-08-05T07:12:51.782Z</time>
      </trkpt>
      <trkpt lat="42.98876166343689" lon="-0.1344430446624756">
        <ele>726.2639562169841</ele>
        <time>2021-08-05T07:12:52.463Z</time>
      </trkpt>
      <trkpt lat="42.988396883010864" lon="-0.1350653171539307">
        <ele>727.4460636709039</ele>
        <time>2021-08-05T07:12:53.153Z</time>
      </trkpt>
      <trkpt lat="42.98824667930603" lon="-0.1354944705963135">
        <ele>728.5687317319723</ele>
        <time>2021-08-05T07:12:53.849Z</time>
      </trkpt>
      <trkpt lat="42.988193118944764" lon="-0.1357090473175049">
        <ele>729.6988152952324</ele>
        <time>2021-08-05T07:12:54.548Z</time>
      </trkpt>
      <trkpt lat="42.98807510174811" lon="-0.1361703872680664">
        <ele>730.8768979947149</ele>
        <time>2021-08-05T07:12:55.252Z</time>
      </trkpt>
      <trkpt lat="42.98807501792908" lon="-0.1361703872680664">
        <ele>732.0676421974819</ele>
        <time>2021-08-05T07:12:55.956Z</time>
      </trkpt>
      <trkpt lat="42.98801064491272" lon="-0.1364600658416748">
        <ele>733.3015764208958</ele>
        <time>2021-08-05T07:12:56.664Z</time>
      </trkpt>
      <trkpt lat="42.98771023750305" lon="-0.137253999710083">
        <ele>734.7546128145507</ele>
        <time>2021-08-05T07:12:57.382Z</time>
      </trkpt>
      <trkpt lat="42.98672318458557" lon="-0.139625072479248">
        <ele>736.0667778959498</ele>
        <time>2021-08-05T07:12:58.132Z</time>
      </trkpt>
      <trkpt lat="42.986379861831665" lon="-0.1406443119049072">
        <ele>737.7175567706846</ele>
        <time>2021-08-05T07:12:58.895Z</time>
      </trkpt>
      <trkpt lat="42.98569321632385" lon="-0.1422643661499023">
        <ele>739.3246392713759</ele>
        <time>2021-08-05T07:12:59.680Z</time>
      </trkpt>
      <trkpt lat="42.98551082611084" lon="-0.1429188251495361">
        <ele>740.9533020517308</ele>
        <time>2021-08-05T07:13:00.474Z</time>
      </trkpt>
      <trkpt lat="42.985403537750244" lon="-0.1434016227722168">
        <ele>742.438268016946</ele>
        <time>2021-08-05T07:13:01.274Z</time>
      </trkpt>
      <trkpt lat="42.98532843589783" lon="-0.1436269283294678">
        <ele>743.9049328320436</ele>
        <time>2021-08-05T07:13:02.077Z</time>
      </trkpt>
      <trkpt lat="42.98521041870117" lon="-0.1438844203948975">
        <ele>745.381640323933</ele>
        <time>2021-08-05T07:13:02.883Z</time>
      </trkpt>
      <trkpt lat="42.9850709438324" lon="-0.1441311836242676">
        <ele>746.9199221349138</ele>
        <time>2021-08-05T07:13:03.693Z</time>
      </trkpt>
      <trkpt lat="42.98458823002875" lon="-0.1447856426239014">
        <ele>748.7367510377195</ele>
        <time>2021-08-05T07:13:04.514Z</time>
      </trkpt>
      <trkpt lat="42.98392295837402" lon="-0.1457405090332031">
        <ele>750.3254272220743</ele>
        <time>2021-08-05T07:13:05.350Z</time>
      </trkpt>
      <trkpt lat="42.98374056816101" lon="-0.1460623741149902">
        <ele>751.750220726069</ele>
        <time>2021-08-05T07:13:06.191Z</time>
      </trkpt>
      <trkpt lat="42.98368692398071" lon="-0.1462447643280029">
        <ele>753.4055127273862</ele>
        <time>2021-08-05T07:13:07.034Z</time>
      </trkpt>
      <trkpt lat="42.983644008636475" lon="-0.1465129852294922">
        <ele>755.0610497500902</ele>
        <time>2021-08-05T07:13:07.880Z</time>
      </trkpt>
      <trkpt lat="42.98353672027588" lon="-0.1477682590484619">
        <ele>756.8294830055762</ele>
        <time>2021-08-05T07:13:08.741Z</time>
      </trkpt>
      <trkpt lat="42.98349380493164" lon="-0.1480686664581299">
        <ele>758.5736516560462</ele>
        <time>2021-08-05T07:13:09.606Z</time>
      </trkpt>
      <trkpt lat="42.983418703079224" lon="-0.1484012603759766">
        <ele>760.3537596627701</ele>
        <time>2021-08-05T07:13:10.475Z</time>
      </trkpt>
      <trkpt lat="42.9830539226532" lon="-0.1493024826049805">
        <ele>762.1853207528899</ele>
        <time>2021-08-05T07:13:11.356Z</time>
      </trkpt>
      <trkpt lat="42.98280715942383" lon="-0.1500535011291504">
        <ele>764.1235429149622</ele>
        <time>2021-08-05T07:13:12.247Z</time>
      </trkpt>
      <trkpt lat="42.98253893852234" lon="-0.1513087749481201">
        <ele>766.2216811950517</ele>
        <time>2021-08-05T07:13:13.153Z</time>
      </trkpt>
      <trkpt lat="42.982463920488954" lon="-0.151512622833252">
        <ele>768.177787834006</ele>
        <time>2021-08-05T07:13:14.062Z</time>
      </trkpt>
      <trkpt lat="42.98246383666992" lon="-0.151512622833252">
        <ele>770.1282154562106</ele>
        <time>2021-08-05T07:13:14.971Z</time>
      </trkpt>
      <trkpt lat="42.982388734817505" lon="-0.1517379283905029">
        <ele>772.1408590542371</ele>
        <time>2021-08-05T07:13:15.883Z</time>
      </trkpt>
      <trkpt lat="42.98188456334174" lon="-0.1526820659637451">
        <ele>774.3669109166337</ele>
        <time>2021-08-05T07:13:16.808Z</time>
      </trkpt>
      <trkpt lat="42.981884479522705" lon="-0.1526820659637451">
        <ele>776.4124744122066</ele>
        <time>2021-08-05T07:13:17.733Z</time>
      </trkpt>
      <trkpt lat="42.98156269825995" lon="-0.1532185077667236">
        <ele>778.5307371680686</ele>
        <time>2021-08-05T07:13:18.666Z</time>
      </trkpt>
      <trkpt lat="42.98156261444092" lon="-0.1532185077667236">
        <ele>780.6212251359797</ele>
        <time>2021-08-05T07:13:19.599Z</time>
      </trkpt>
      <trkpt lat="42.98138030804694" lon="-0.1535618305206299">
        <ele>782.7631621664946</ele>
        <time>2021-08-05T07:13:20.537Z</time>
      </trkpt>
      <trkpt lat="42.981380224227905" lon="-0.1535618305206299">
        <ele>784.886906185971</ele>
        <time>2021-08-05T07:13:21.475Z</time>
      </trkpt>
      <trkpt lat="42.98106908798218" lon="-0.154109001159668">
        <ele>786.9872759632093</ele>
        <time>2021-08-05T07:13:22.422Z</time>
      </trkpt>
      <trkpt lat="42.980918884277344" lon="-0.1544630527496338">
        <ele>789.2047941653586</ele>
        <time>2021-08-05T07:13:23.373Z</time>
      </trkpt>
      <trkpt lat="42.98081167973578" lon="-0.154956579208374">
        <ele>791.4799777521293</ele>
        <time>2021-08-05T07:13:24.330Z</time>
      </trkpt>
      <trkpt lat="42.98081159591675" lon="-0.154956579208374">
        <ele>793.629410880622</ele>
        <time>2021-08-05T07:13:25.287Z</time>
      </trkpt>
      <trkpt lat="42.98050054349005" lon="-0.1563513278961182">
        <ele>795.9590036757193</ele>
        <time>2021-08-05T07:13:26.262Z</time>
      </trkpt>
      <trkpt lat="42.98021078109741" lon="-0.1576602458953857">
        <ele>798.3133161236253</ele>
        <time>2021-08-05T07:13:27.253Z</time>
      </trkpt>
      <trkpt lat="42.97996401786804" lon="-0.1589155197143555">
        <ele>800.913715082678</ele>
        <time>2021-08-05T07:13:28.259Z</time>
      </trkpt>
      <trkpt lat="42.97979235649109" lon="-0.1595592498779297">
        <ele>803.0923543796582</ele>
        <time>2021-08-05T07:13:29.273Z</time>
      </trkpt>
      <trkpt lat="42.97974944114685" lon="-0.1599240303039551">
        <ele>805.2141392299468</ele>
        <time>2021-08-05T07:13:30.291Z</time>
      </trkpt>
      <trkpt lat="42.979706609621644" lon="-0.160599946975708">
        <ele>807.5174703420385</ele>
        <time>2021-08-05T07:13:31.317Z</time>
      </trkpt>
      <trkpt lat="42.97962077893317" lon="-0.1618015766143799">
        <ele>809.4891863025903</ele>
        <time>2021-08-05T07:13:32.357Z</time>
      </trkpt>
      <trkpt lat="42.979620695114136" lon="-0.1618015766143799">
        <ele>811.3938043138648</ele>
        <time>2021-08-05T07:13:33.397Z</time>
      </trkpt>
      <trkpt lat="42.97958850860596" lon="-0.1622307300567627">
        <ele>813.2839977573027</ele>
        <time>2021-08-05T07:13:34.442Z</time>
      </trkpt>
      <trkpt lat="42.97958850860596" lon="-0.162498950958252">
        <ele>815.1315428177459</ele>
        <time>2021-08-05T07:13:35.491Z</time>
      </trkpt>
      <trkpt lat="42.979706609621644" lon="-0.1632499694824219">
        <ele>816.9626188344794</ele>
        <time>2021-08-05T07:13:36.549Z</time>
      </trkpt>
      <trkpt lat="42.97976025380194" lon="-0.1635932922363281">
        <ele>818.5817101122634</ele>
        <time>2021-08-05T07:13:37.611Z</time>
      </trkpt>
      <trkpt lat="42.979642152786255" lon="-0.1649343967437744">
        <ele>820.1927247188737</ele>
        <time>2021-08-05T07:13:38.689Z</time>
      </trkpt>
      <trkpt lat="42.97964223660529" lon="-0.1652884483337402">
        <ele>821.7124730924086</ele>
        <time>2021-08-05T07:13:39.771Z</time>
      </trkpt>
      <trkpt lat="42.97973871231079" lon="-0.166243314743042">
        <ele>823.2962743791671</ele>
        <time>2021-08-05T07:13:40.864Z</time>
      </trkpt>
      <trkpt lat="42.97974952496588" lon="-0.1665329933166504">
        <ele>824.5716664437634</ele>
        <time>2021-08-05T07:13:41.961Z</time>
      </trkpt>
      <trkpt lat="42.97979244031012" lon="-0.167766809463501">
        <ele>825.7989030559168</ele>
        <time>2021-08-05T07:13:43.072Z</time>
      </trkpt>
      <trkpt lat="42.97979235649109" lon="-0.167766809463501">
        <ele>826.8437724805792</ele>
        <time>2021-08-05T07:13:44.183Z</time>
      </trkpt>
      <trkpt lat="42.97974944114685" lon="-0.1680779457092285">
        <ele>827.8212540139027</ele>
        <time>2021-08-05T07:13:45.298Z</time>
      </trkpt>
      <trkpt lat="42.979395389556885" lon="-0.1694083213806152">
        <ele>828.8752762336001</ele>
        <time>2021-08-05T07:13:46.429Z</time>
      </trkpt>
      <trkpt lat="42.979116439819336" lon="-0.1699662208557129">
        <ele>829.5350867299092</ele>
        <time>2021-08-05T07:13:47.568Z</time>
      </trkpt>
      <trkpt lat="42.97905206680298" lon="-0.1701486110687256">
        <ele>830.1018632239766</ele>
        <time>2021-08-05T07:13:48.710Z</time>
      </trkpt>
      <trkpt lat="42.9790198802948" lon="-0.1705455780029297">
        <ele>830.6142025759896</ele>
        <time>2021-08-05T07:13:49.856Z</time>
      </trkpt>
      <trkpt lat="42.9790198802948" lon="-0.1708781719207764">
        <ele>831.1756032983269</ele>
        <time>2021-08-05T07:13:51.006Z</time>
      </trkpt>
      <trkpt lat="42.9789662361145" lon="-0.1712000370025635">
        <ele>831.5792636805859</ele>
        <time>2021-08-05T07:13:52.160Z</time>
      </trkpt>
      <trkpt lat="42.978386878967285" lon="-0.172584056854248">
        <ele>831.9193992770123</ele>
        <time>2021-08-05T07:13:53.333Z</time>
      </trkpt>
      <trkpt lat="42.97831177711487" lon="-0.1728415489196777">
        <ele>832.0671989809198</ele>
        <time>2021-08-05T07:13:54.509Z</time>
      </trkpt>
      <trkpt lat="42.97825813293457" lon="-0.1730775833129883">
        <ele>832.1540206136117</ele>
        <time>2021-08-05T07:13:55.688Z</time>
      </trkpt>
      <trkpt lat="42.97823667526245" lon="-0.1733672618865967">
        <ele>832.2493337414915</ele>
        <time>2021-08-05T07:13:56.870Z</time>
      </trkpt>
      <trkpt lat="42.978215301409364" lon="-0.1741504669189453">
        <ele>832.2832921811689</ele>
        <time>2021-08-05T07:13:58.062Z</time>
      </trkpt>
      <trkpt lat="42.97821521759033" lon="-0.1741504669189453">
        <ele>832.4154630966666</ele>
        <time>2021-08-05T07:13:59.254Z</time>
      </trkpt>
      <trkpt lat="42.97822603024542" lon="-0.1746118068695068">
        <ele>832.5052063512408</ele>
        <time>2021-08-05T07:14:00.451Z</time>
      </trkpt>
      <trkpt lat="42.97822594642639" lon="-0.1746118068695068">
        <ele>832.6132990421206</ele>
        <time>2021-08-05T07:14:01.648Z</time>
      </trkpt>
      <trkpt lat="42.97822594642639" lon="-0.1750302314758301">
        <ele>832.7030228796172</ele>
        <time>2021-08-05T07:14:02.850Z</time>
      </trkpt>
      <trkpt lat="42.97826886177063" lon="-0.1754379272460938">
        <ele>832.9181248764589</ele>
        <time>2021-08-05T07:14:04.057Z</time>
      </trkpt>
      <trkpt lat="42.97827959060669" lon="-0.1758670806884766">
        <ele>833.0597367628845</ele>
        <time>2021-08-05T07:14:05.269Z</time>
      </trkpt>
      <trkpt lat="42.97826886177063" lon="-0.1762211322784424">
        <ele>833.1933358022404</ele>
        <time>2021-08-05T07:14:06.485Z</time>
      </trkpt>
      <trkpt lat="42.97822594642639" lon="-0.1765751838684082">
        <ele>833.4075071145018</ele>
        <time>2021-08-05T07:14:07.705Z</time>
      </trkpt>
      <trkpt lat="42.978118658065796" lon="-0.1768970489501953">
        <ele>833.669156348986</ele>
        <time>2021-08-05T07:14:08.929Z</time>
      </trkpt>
      <trkpt lat="42.97798991203308" lon="-0.1772189140319824">
        <ele>833.9552655611835</ele>
        <time>2021-08-05T07:14:10.158Z</time>
      </trkpt>
      <trkpt lat="42.97782897949219" lon="-0.1779055595397949">
        <ele>834.2792291579515</ele>
        <time>2021-08-05T07:14:11.395Z</time>
      </trkpt>
      <trkpt lat="42.97757157124579" lon="-0.1793539524078369">
        <ele>834.6846242844508</ele>
        <time>2021-08-05T07:14:12.650Z</time>
      </trkpt>
      <trkpt lat="42.97757148742676" lon="-0.1793539524078369">
        <ele>834.9788139356203</ele>
        <time>2021-08-05T07:14:13.905Z</time>
      </trkpt>
      <trkpt lat="42.97752857208252" lon="-0.1796436309814453">
        <ele>835.3187606402555</ele>
        <time>2021-08-05T07:14:15.163Z</time>
      </trkpt>
      <trkpt lat="42.97747501172125" lon="-0.1802659034729004">
        <ele>835.7294159823166</ele>
        <time>2021-08-05T07:14:16.428Z</time>
      </trkpt>
      <trkpt lat="42.97747492790222" lon="-0.1802659034729004">
        <ele>836.1138289700671</ele>
        <time>2021-08-05T07:14:17.693Z</time>
      </trkpt>
      <trkpt lat="42.97744274139404" lon="-0.1805019378662109">
        <ele>836.556641166912</ele>
        <time>2021-08-05T07:14:18.961Z</time>
      </trkpt>
      <trkpt lat="42.977399909868836" lon="-0.1807165145874023">
        <ele>837.0012362693979</ele>
        <time>2021-08-05T07:14:20.232Z</time>
      </trkpt>
      <trkpt lat="42.977399826049805" lon="-0.1807165145874023">
        <ele>837.4794243285744</ele>
        <time>2021-08-05T07:14:21.503Z</time>
      </trkpt>
      <trkpt lat="42.976906299591064" lon="-0.1816391944885254">
        <ele>838.0015874945923</ele>
        <time>2021-08-05T07:14:22.787Z</time>
      </trkpt>
      <trkpt lat="42.976455772295594" lon="-0.1826584339141846">
        <ele>838.7042107137595</ele>
        <time>2021-08-05T07:14:24.085Z</time>
      </trkpt>
      <trkpt lat="42.97627329826355" lon="-0.1833021640777588">
        <ele>839.2545618335405</ele>
        <time>2021-08-05T07:14:25.391Z</time>
      </trkpt>
      <trkpt lat="42.97597289085388" lon="-0.1841604709625244">
        <ele>839.7948402088978</ele>
        <time>2021-08-05T07:14:26.709Z</time>
      </trkpt>
      <trkpt lat="42.97577977180481" lon="-0.1848578453063965">
        <ele>840.5132197088058</ele>
        <time>2021-08-05T07:14:28.035Z</time>
      </trkpt>
      <trkpt lat="42.97569394111633" lon="-0.1851475238800049">
        <ele>841.1393715806946</ele>
        <time>2021-08-05T07:14:29.365Z</time>
      </trkpt>
      <trkpt lat="42.97558673657477" lon="-0.1853299140930176">
        <ele>841.8400897052434</ele>
        <time>2021-08-05T07:14:30.698Z</time>
      </trkpt>
      <trkpt lat="42.97558665275574" lon="-0.1853299140930176">
        <ele>842.5558633472128</ele>
        <time>2021-08-05T07:14:32.031Z</time>
      </trkpt>
      <trkpt lat="42.97555446624756" lon="-0.185394287109375">
        <ele>843.3012153987066</ele>
        <time>2021-08-05T07:14:33.365Z</time>
      </trkpt>
      <trkpt lat="42.97533988952637" lon="-0.1856303215026855">
        <ele>844.1187455292454</ele>
        <time>2021-08-05T07:14:34.703Z</time>
      </trkpt>
      <trkpt lat="42.975146770477295" lon="-0.1859200000762939">
        <ele>844.9983081660785</ele>
        <time>2021-08-05T07:14:36.046Z</time>
      </trkpt>
      <trkpt lat="42.97507166862488" lon="-0.1861453056335449">
        <ele>845.8716467218089</ele>
        <time>2021-08-05T07:14:37.392Z</time>
      </trkpt>
      <trkpt lat="42.97503956593573" lon="-0.1862740516662598">
        <ele>846.7331289556994</ele>
        <time>2021-08-05T07:14:38.739Z</time>
      </trkpt>
      <trkpt lat="42.9750394821167" lon="-0.1862740516662598">
        <ele>847.5725531673197</ele>
        <time>2021-08-05T07:14:40.086Z</time>
      </trkpt>
      <trkpt lat="42.974910736083984" lon="-0.1869821548461914">
        <ele>848.4563653236663</ele>
        <time>2021-08-05T07:14:41.442Z</time>
      </trkpt>
      <trkpt lat="42.97483563423157" lon="-0.1871538162231445">
        <ele>849.3347066352073</ele>
        <time>2021-08-05T07:14:42.800Z</time>
      </trkpt>
      <trkpt lat="42.974621057510376" lon="-0.1874434947967529">
        <ele>850.2713240924832</ele>
        <time>2021-08-05T07:14:44.163Z</time>
      </trkpt>
      <trkpt lat="42.9745888710022" lon="-0.1875293254852295">
        <ele>851.1576500343879</ele>
        <time>2021-08-05T07:14:45.527Z</time>
      </trkpt>
      <trkpt lat="42.9745352268219" lon="-0.1877868175506592">
        <ele>852.059738193365</ele>
        <time>2021-08-05T07:14:46.894Z</time>
      </trkpt>
      <trkpt lat="42.97453531064093" lon="-0.1879370212554932">
        <ele>852.9482806848195</ele>
        <time>2021-08-05T07:14:48.263Z</time>
      </trkpt>
      <trkpt lat="42.97457814216614" lon="-0.1881837844848633">
        <ele>853.8201190958475</ele>
        <time>2021-08-05T07:14:49.635Z</time>
      </trkpt>
      <trkpt lat="42.97474980354309" lon="-0.1887524127960205">
        <ele>854.587957682536</ele>
        <time>2021-08-05T07:14:51.014Z</time>
      </trkpt>
      <trkpt lat="42.97479271888733" lon="-0.1889348030090332">
        <ele>855.4190365590857</ele>
        <time>2021-08-05T07:14:52.395Z</time>
      </trkpt>
      <trkpt lat="42.97481417655945" lon="-0.189213752746582">
        <ele>856.2650643867989</ele>
        <time>2021-08-05T07:14:53.780Z</time>
      </trkpt>
      <trkpt lat="42.97480344772339" lon="-0.189363956451416">
        <ele>857.0928879454307</ele>
        <time>2021-08-05T07:14:55.166Z</time>
      </trkpt>
      <trkpt lat="42.97474988736212" lon="-0.1896536350250244">
        <ele>857.9472932471458</ele>
        <time>2021-08-05T07:14:56.556Z</time>
      </trkpt>
      <trkpt lat="42.97464259900153" lon="-0.1901257038116455">
        <ele>858.9055127811478</ele>
        <time>2021-08-05T07:14:57.952Z</time>
      </trkpt>
      <trkpt lat="42.97457822598517" lon="-0.1905226707458496">
        <ele>859.7502304932257</ele>
        <time>2021-08-05T07:14:59.353Z</time>
      </trkpt>
      <trkpt lat="42.97452449798584" lon="-0.1908981800079346">
        <ele>860.5472031045724</ele>
        <time>2021-08-05T07:15:00.758Z</time>
      </trkpt>
      <trkpt lat="42.974460208788514" lon="-0.1910483837127686">
        <ele>861.2121696306284</ele>
        <time>2021-08-05T07:15:02.165Z</time>
      </trkpt>
      <trkpt lat="42.97446012496948" lon="-0.1910483837127686">
        <ele>861.8489673930096</ele>
        <time>2021-08-05T07:15:03.572Z</time>
      </trkpt>
      <trkpt lat="42.974427938461304" lon="-0.1911342144012451">
        <ele>862.4494003142262</ele>
        <time>2021-08-05T07:15:04.980Z</time>
      </trkpt>
      <trkpt lat="42.97409542836249" lon="-0.191885232925415">
        <ele>863.1616322757438</ele>
        <time>2021-08-05T07:15:06.399Z</time>
      </trkpt>
      <trkpt lat="42.97406324185431" lon="-0.1919710636138916">
        <ele>863.6821775711607</ele>
        <time>2021-08-05T07:15:07.819Z</time>
      </trkpt>
      <trkpt lat="42.97398814000189" lon="-0.1921427249908447">
        <ele>864.1669292788547</ele>
        <time>2021-08-05T07:15:09.241Z</time>
      </trkpt>
      <trkpt lat="42.9737735632807" lon="-0.1924216747283936">
        <ele>864.6483561814249</ele>
        <time>2021-08-05T07:15:10.668Z</time>
      </trkpt>
      <trkpt lat="42.97352680005133" lon="-0.1926791667938232">
        <ele>865.045941838814</ele>
        <time>2021-08-05T07:15:12.100Z</time>
      </trkpt>
      <trkpt lat="42.97351607121527" lon="-0.1926898956298828">
        <ele>865.3434431730998</ele>
        <time>2021-08-05T07:15:13.532Z</time>
      </trkpt>
      <trkpt lat="42.973387241363525" lon="-0.1928615570068359">
        <ele>865.5754017869272</ele>
        <time>2021-08-05T07:15:14.967Z</time>
      </trkpt>
      <trkpt lat="42.97334432601929" lon="-0.1929581165313721">
        <ele>865.7654750933511</ele>
        <time>2021-08-05T07:15:16.403Z</time>
      </trkpt>
      <trkpt lat="42.9733229521662" lon="-0.1931083202362061">
        <ele>865.8909459765591</ele>
        <time>2021-08-05T07:15:17.841Z</time>
      </trkpt>
      <trkpt lat="42.97325857914984" lon="-0.19325852394104">
        <ele>865.9258418085267</ele>
        <time>2021-08-05T07:15:19.281Z</time>
      </trkpt>
      <trkpt lat="42.97315129078925" lon="-0.1934194564819336">
        <ele>865.8958112123835</ele>
        <time>2021-08-05T07:15:20.724Z</time>
      </trkpt>
      <trkpt lat="42.97314056195319" lon="-0.1934301853179932">
        <ele>865.8766123526561</ele>
        <time>2021-08-05T07:15:22.167Z</time>
      </trkpt>
      <trkpt lat="42.97312983311713" lon="-0.1934516429901123">
        <ele>865.8124086608615</ele>
        <time>2021-08-05T07:15:23.610Z</time>
      </trkpt>
      <trkpt lat="42.97300108708441" lon="-0.1937627792358398">
        <ele>865.66028065453</ele>
        <time>2021-08-05T07:15:25.057Z</time>
      </trkpt>
      <trkpt lat="42.972904527559876" lon="-0.1942563056945801">
        <ele>865.5044093437655</ele>
        <time>2021-08-05T07:15:26.510Z</time>
      </trkpt>
      <trkpt lat="42.97288306988776" lon="-0.1943206787109375">
        <ele>865.3292559461561</ele>
        <time>2021-08-05T07:15:27.964Z</time>
      </trkpt>
      <trkpt lat="42.97281861305237" lon="-0.1945352554321289">
        <ele>865.1248077647115</ele>
        <time>2021-08-05T07:15:29.421Z</time>
      </trkpt>
      <trkpt lat="42.97258266247809" lon="-0.1949429512023926">
        <ele>864.8233643423717</ele>
        <time>2021-08-05T07:15:30.884Z</time>
      </trkpt>
      <trkpt lat="42.97258257865906" lon="-0.1949429512023926">
        <ele>864.5779879788346</ele>
        <time>2021-08-05T07:15:32.347Z</time>
      </trkpt>
      <trkpt lat="42.97249674797058" lon="-0.195082426071167">
        <ele>864.2874827069382</ele>
        <time>2021-08-05T07:15:33.812Z</time>
      </trkpt>
      <trkpt lat="42.97155269421637" lon="-0.1964449882507324">
        <ele>863.8074340887055</ele>
        <time>2021-08-05T07:15:35.299Z</time>
      </trkpt>
      <trkpt lat="42.97155261039734" lon="-0.1964449882507324">
        <ele>863.5228651767704</ele>
        <time>2021-08-05T07:15:36.786Z</time>
      </trkpt>
      <trkpt lat="42.9713595751673" lon="-0.1967346668243408">
        <ele>863.1836742971582</ele>
        <time>2021-08-05T07:15:38.278Z</time>
      </trkpt>
      <trkpt lat="42.971166456118226" lon="-0.1970136165618896">
        <ele>862.8246353015368</ele>
        <time>2021-08-05T07:15:39.774Z</time>
      </trkpt>
      <trkpt lat="42.97075867652893" lon="-0.1975500583648682">
        <ele>862.5306713500499</ele>
        <time>2021-08-05T07:15:41.279Z</time>
      </trkpt>
      <trkpt lat="42.97020077705383" lon="-0.1983654499053955">
        <ele>862.1183055402701</ele>
        <time>2021-08-05T07:15:42.797Z</time>
      </trkpt>
      <trkpt lat="42.9697395209223" lon="-0.1995134353637695">
        <ele>861.9798253553872</ele>
        <time>2021-08-05T07:15:44.331Z</time>
      </trkpt>
      <trkpt lat="42.96973943710327" lon="-0.1995134353637695">
        <ele>861.7226145015916</ele>
        <time>2021-08-05T07:15:45.865Z</time>
      </trkpt>
      <trkpt lat="42.969632148742676" lon="-0.1998567581176758">
        <ele>861.5406453307351</ele>
        <time>2021-08-05T07:15:47.403Z</time>
      </trkpt>
      <trkpt lat="42.96951413154602" lon="-0.2001678943634033">
        <ele>861.4221351932224</ele>
        <time>2021-08-05T07:15:48.945Z</time>
      </trkpt>
      <trkpt lat="42.96933174133301" lon="-0.2004575729370117">
        <ele>861.2929649845732</ele>
        <time>2021-08-05T07:15:50.492Z</time>
      </trkpt>
      <trkpt lat="42.968441331759095" lon="-0.2016055583953857">
        <ele>861.123234989426</ele>
        <time>2021-08-05T07:15:52.058Z</time>
      </trkpt>
      <trkpt lat="42.9683876875788" lon="-0.2016913890838623">
        <ele>860.9319944859056</ele>
        <time>2021-08-05T07:15:53.626Z</time>
      </trkpt>
      <trkpt lat="42.968173027038574" lon="-0.2019166946411133">
        <ele>860.7525904982358</ele>
        <time>2021-08-05T07:15:55.198Z</time>
      </trkpt>
      <trkpt lat="42.96779751777649" lon="-0.2021527290344238">
        <ele>860.5248310695127</ele>
        <time>2021-08-05T07:15:56.777Z</time>
      </trkpt>
      <trkpt lat="42.967389822006226" lon="-0.2023565769195557">
        <ele>860.4465783046106</ele>
        <time>2021-08-05T07:15:58.363Z</time>
      </trkpt>
      <trkpt lat="42.96705722808838" lon="-0.2024638652801514">
        <ele>860.30862870813</ele>
        <time>2021-08-05T07:15:59.954Z</time>
      </trkpt>
      <trkpt lat="42.96670317649841" lon="-0.2025282382965088">
        <ele>860.1137771354474</ele>
        <time>2021-08-05T07:16:01.551Z</time>
      </trkpt>
      <trkpt lat="42.96647787094116" lon="-0.2024960517883301">
        <ele>859.9613540812287</ele>
        <time>2021-08-05T07:16:03.151Z</time>
      </trkpt>
      <trkpt lat="42.966392040252686" lon="-0.2024638652801514">
        <ele>859.8424066327603</ele>
        <time>2021-08-05T07:16:04.753Z</time>
      </trkpt>
      <trkpt lat="42.96610236167908" lon="-0.2022707462310791">
        <ele>859.8157710246849</ele>
        <time>2021-08-05T07:16:06.360Z</time>
      </trkpt>
      <trkpt lat="42.965984428301454" lon="-0.2022171020507812">
        <ele>859.7306762730428</ele>
        <time>2021-08-05T07:16:07.969Z</time>
      </trkpt>
      <trkpt lat="42.96598434448242" lon="-0.2022171020507812">
        <ele>859.6277884781766</ele>
        <time>2021-08-05T07:16:09.578Z</time>
      </trkpt>
      <trkpt lat="42.96581268310547" lon="-0.202174186706543">
        <ele>859.5160985720678</ele>
        <time>2021-08-05T07:16:11.190Z</time>
      </trkpt>
      <trkpt lat="42.96557673253119" lon="-0.2019703388214111">
        <ele>859.3080464940417</ele>
        <time>2021-08-05T07:16:12.806Z</time>
      </trkpt>
      <trkpt lat="42.96557664871216" lon="-0.2019703388214111">
        <ele>859.2269099079879</ele>
        <time>2021-08-05T07:16:14.422Z</time>
      </trkpt>
      <trkpt lat="42.965469444170594" lon="-0.2018952369689941">
        <ele>859.1395484228154</ele>
        <time>2021-08-05T07:16:16.040Z</time>
      </trkpt>
      <trkpt lat="42.96546936035156" lon="-0.2018952369689941">
        <ele>859.076237018806</ele>
        <time>2021-08-05T07:16:17.658Z</time>
      </trkpt>
      <trkpt lat="42.96511539258063" lon="-0.2016699314117432">
        <ele>858.9650134916913</ele>
        <time>2021-08-05T07:16:19.282Z</time>
      </trkpt>
      <trkpt lat="42.9651153087616" lon="-0.2016699314117432">
        <ele>858.9207476203749</ele>
        <time>2021-08-05T07:16:20.906Z</time>
      </trkpt>
      <trkpt lat="42.96502947807312" lon="-0.2016913890838623">
        <ele>858.8957605132796</ele>
        <time>2021-08-05T07:16:22.532Z</time>
      </trkpt>
      <trkpt lat="42.9648042563349" lon="-0.201798677444458">
        <ele>858.8799795051418</ele>
        <time>2021-08-05T07:16:24.162Z</time>
      </trkpt>
      <trkpt lat="42.96480417251587" lon="-0.201798677444458">
        <ele>858.867113578011</ele>
        <time>2021-08-05T07:16:25.792Z</time>
      </trkpt>
      <trkpt lat="42.9646110534668" lon="-0.201873779296875">
        <ele>858.89328176835</ele>
        <time>2021-08-05T07:16:27.425Z</time>
      </trkpt>
      <trkpt lat="42.96451457776129" lon="-0.2018845081329346">
        <ele>858.9245893077423</ele>
        <time>2021-08-05T07:16:29.059Z</time>
      </trkpt>
      <trkpt lat="42.964417934417725" lon="-0.2018523216247559">
        <ele>858.966849673142</ele>
        <time>2021-08-05T07:16:30.695Z</time>
      </trkpt>
      <trkpt lat="42.964224899187684" lon="-0.2016806602478027">
        <ele>858.979309282187</ele>
        <time>2021-08-05T07:16:32.335Z</time>
      </trkpt>
      <trkpt lat="42.96408542431891" lon="-0.2016270160675049">
        <ele>859.0031250575641</ele>
        <time>2021-08-05T07:16:33.977Z</time>
      </trkpt>
      <trkpt lat="42.96402105130255" lon="-0.2016270160675049">
        <ele>859.0519554640643</ele>
        <time>2021-08-05T07:16:35.620Z</time>
      </trkpt>
      <trkpt lat="42.96386011876166" lon="-0.2016055583953857">
        <ele>859.0832042768811</ele>
        <time>2021-08-05T07:16:37.266Z</time>
      </trkpt>
      <trkpt lat="42.96386003494263" lon="-0.2016055583953857">
        <ele>859.1525567204204</ele>
        <time>2021-08-05T07:16:38.912Z</time>
      </trkpt>
      <trkpt lat="42.9636025428772" lon="-0.2016162872314453">
        <ele>859.2187071820404</ele>
        <time>2021-08-05T07:16:40.562Z</time>
      </trkpt>
      <trkpt lat="42.96335577964783" lon="-0.2016913890838623">
        <ele>859.3150917783648</ele>
        <time>2021-08-05T07:16:42.216Z</time>
      </trkpt>
      <trkpt lat="42.96291598118842" lon="-0.2019166946411133">
        <ele>859.4096807592289</ele>
        <time>2021-08-05T07:16:43.877Z</time>
      </trkpt>
      <trkpt lat="42.96287306584418" lon="-0.2019381523132324">
        <ele>859.526898118955</ele>
        <time>2021-08-05T07:16:45.539Z</time>
      </trkpt>
      <trkpt lat="42.96256192959845" lon="-0.2021205425262451">
        <ele>859.7256732989056</ele>
        <time>2021-08-05T07:16:47.206Z</time>
      </trkpt>
      <trkpt lat="42.96231508255005" lon="-0.2022600173950195">
        <ele>859.9394734278367</ele>
        <time>2021-08-05T07:16:48.878Z</time>
      </trkpt>
      <trkpt lat="42.9618323687464" lon="-0.2025282382965088">
        <ele>860.1168412358502</ele>
        <time>2021-08-05T07:16:50.558Z</time>
      </trkpt>
      <trkpt lat="42.961714351549745" lon="-0.2025926113128662">
        <ele>860.2575212397102</ele>
        <time>2021-08-05T07:16:52.240Z</time>
      </trkpt>
      <trkpt lat="42.961692893877625" lon="-0.2026033401489258">
        <ele>860.4120861453273</ele>
        <time>2021-08-05T07:16:53.922Z</time>
      </trkpt>
      <trkpt lat="42.96153196133673" lon="-0.2027106285095215">
        <ele>860.566646203172</ele>
        <time>2021-08-05T07:16:55.607Z</time>
      </trkpt>
      <trkpt lat="42.96128511428833" lon="-0.2029573917388916">
        <ele>860.672679175575</ele>
        <time>2021-08-05T07:16:57.297Z</time>
      </trkpt>
      <trkpt lat="42.96109199523926" lon="-0.2032577991485596">
        <ele>860.8206582954313</ele>
        <time>2021-08-05T07:16:58.992Z</time>
      </trkpt>
      <trkpt lat="42.96098470687866" lon="-0.203472375869751">
        <ele>860.9964181968946</ele>
        <time>2021-08-05T07:17:00.690Z</time>
      </trkpt>
      <trkpt lat="42.96089896000922" lon="-0.2037084102630615">
        <ele>861.1765801432455</ele>
        <time>2021-08-05T07:17:02.391Z</time>
      </trkpt>
      <trkpt lat="42.960898876190186" lon="-0.2037084102630615">
        <ele>861.387714088656</ele>
        <time>2021-08-05T07:17:04.092Z</time>
      </trkpt>
      <trkpt lat="42.96051263809204" lon="-0.204770565032959">
        <ele>861.6655199336769</ele>
        <time>2021-08-05T07:17:05.807Z</time>
      </trkpt>
      <trkpt lat="42.960212314501405" lon="-0.2055966854095459">
        <ele>861.8768806633936</ele>
        <time>2021-08-05T07:17:07.533Z</time>
      </trkpt>
      <trkpt lat="42.96021223068237" lon="-0.2055966854095459">
        <ele>862.1202922184436</ele>
        <time>2021-08-05T07:17:09.259Z</time>
      </trkpt>
      <trkpt lat="42.96008348464966" lon="-0.2059507369995117">
        <ele>862.4510764274177</ele>
        <time>2021-08-05T07:17:10.989Z</time>
      </trkpt>
      <trkpt lat="42.95982607640326" lon="-0.2064335346221924">
        <ele>862.7869583627005</ele>
        <time>2021-08-05T07:17:12.726Z</time>
      </trkpt>
      <trkpt lat="42.95976161956787" lon="-0.2065515518188477">
        <ele>863.0599922549002</ele>
        <time>2021-08-05T07:17:14.465Z</time>
      </trkpt>
      <trkpt lat="42.95954712666571" lon="-0.2068519592285156">
        <ele>863.3664991901203</ele>
        <time>2021-08-05T07:17:16.209Z</time>
      </trkpt>
      <trkpt lat="42.95952566899359" lon="-0.2068841457366943">
        <ele>863.6597855413529</ele>
        <time>2021-08-05T07:17:17.954Z</time>
      </trkpt>
      <trkpt lat="42.95935400761664" lon="-0.207141637802124">
        <ele>863.9467304336729</ele>
        <time>2021-08-05T07:17:19.703Z</time>
      </trkpt>
      <trkpt lat="42.95915015973151" lon="-0.2074527740478516">
        <ele>864.2448953945064</ele>
        <time>2021-08-05T07:17:21.457Z</time>
      </trkpt>
      <trkpt lat="42.95909651555121" lon="-0.2075600624084473">
        <ele>864.5658011753899</ele>
        <time>2021-08-05T07:17:23.212Z</time>
      </trkpt>
      <trkpt lat="42.95881756581366" lon="-0.2080857753753662">
        <ele>864.9468160277748</ele>
        <time>2021-08-05T07:17:24.975Z</time>
      </trkpt>
      <trkpt lat="42.958484971895814" lon="-0.2087080478668213">
        <ele>865.4113707570698</ele>
        <time>2021-08-05T07:17:26.747Z</time>
      </trkpt>
      <trkpt lat="42.95838841237128" lon="-0.2088582515716553">
        <ele>865.7711009699689</ele>
        <time>2021-08-05T07:17:28.521Z</time>
      </trkpt>
      <trkpt lat="42.95808800496161" lon="-0.2093732357025146">
        <ele>866.132890487125</ele>
        <time>2021-08-05T07:17:30.303Z</time>
      </trkpt>
      <trkpt lat="42.95808792114258" lon="-0.2093732357025146">
        <ele>866.4990182010131</ele>
        <time>2021-08-05T07:17:32.085Z</time>
      </trkpt>
      <trkpt lat="42.95766958035529" lon="-0.2100598812103271">
        <ele>866.9308413524654</ele>
        <time>2021-08-05T07:17:33.877Z</time>
      </trkpt>
      <trkpt lat="42.957218969240785" lon="-0.2107679843902588">
        <ele>867.2801411901299</ele>
        <time>2021-08-05T07:17:35.680Z</time>
      </trkpt>
      <trkpt lat="42.95707949437201" lon="-0.2110791206359863">
        <ele>867.6895802134806</ele>
        <time>2021-08-05T07:17:37.488Z</time>
      </trkpt>
      <trkpt lat="42.956972206011415" lon="-0.2114009857177734">
        <ele>868.0960909080598</ele>
        <time>2021-08-05T07:17:39.300Z</time>
      </trkpt>
      <trkpt lat="42.95687564648688" lon="-0.2116692066192627">
        <ele>868.5358083641187</ele>
        <time>2021-08-05T07:17:41.115Z</time>
      </trkpt>
      <trkpt lat="42.95682200230658" lon="-0.2118301391601562">
        <ele>868.979924113235</ele>
        <time>2021-08-05T07:17:42.932Z</time>
      </trkpt>
      <trkpt lat="42.95682191848755" lon="-0.2118301391601562">
        <ele>869.4223206425024</ele>
        <time>2021-08-05T07:17:44.749Z</time>
      </trkpt>
      <trkpt lat="42.95675762929022" lon="-0.2119910717010498">
        <ele>869.8921672311733</ele>
        <time>2021-08-05T07:17:46.568Z</time>
      </trkpt>
      <trkpt lat="42.95667179860175" lon="-0.2122271060943604">
        <ele>870.3962325289936</ele>
        <time>2021-08-05T07:17:48.391Z</time>
      </trkpt>
      <trkpt lat="42.956639528274536" lon="-0.2127313613891602">
        <ele>870.9753491080571</ele>
        <time>2021-08-05T07:17:50.220Z</time>
      </trkpt>
      <trkpt lat="42.956489408388734" lon="-0.2131927013397217">
        <ele>871.4967467448755</ele>
        <time>2021-08-05T07:17:52.054Z</time>
      </trkpt>
      <trkpt lat="42.956189000979066" lon="-0.2136754989624023">
        <ele>872.0515151379096</ele>
        <time>2021-08-05T07:17:53.896Z</time>
      </trkpt>
      <trkpt lat="42.956188917160034" lon="-0.2136754989624023">
        <ele>872.5917299138704</ele>
        <time>2021-08-05T07:17:55.738Z</time>
      </trkpt>
      <trkpt lat="42.956167459487915" lon="-0.2138364315032959">
        <ele>873.1895420165463</ele>
        <time>2021-08-05T07:17:57.582Z</time>
      </trkpt>
      <trkpt lat="42.956156730651855" lon="-0.2142441272735596">
        <ele>873.8528002202538</ele>
        <time>2021-08-05T07:17:59.431Z</time>
      </trkpt>
      <trkpt lat="42.956178188323975" lon="-0.2143728733062744">
        <ele>874.4799472246766</ele>
        <time>2021-08-05T07:18:01.281Z</time>
      </trkpt>
      <trkpt lat="42.95625337399542" lon="-0.2145874500274658">
        <ele>875.1530547965176</ele>
        <time>2021-08-05T07:18:03.134Z</time>
      </trkpt>
      <trkpt lat="42.95637130737305" lon="-0.2149093151092529">
        <ele>875.8127585082551</ele>
        <time>2021-08-05T07:18:04.991Z</time>
      </trkpt>
      <trkpt lat="42.95637139119208" lon="-0.2149307727813721">
        <ele>876.4929568108993</ele>
        <time>2021-08-05T07:18:06.848Z</time>
      </trkpt>
      <trkpt lat="42.956425035372376" lon="-0.2150487899780273">
        <ele>877.2117451709587</ele>
        <time>2021-08-05T07:18:08.707Z</time>
      </trkpt>
      <trkpt lat="42.956467950716615" lon="-0.2151346206665039">
        <ele>877.9443171608466</ele>
        <time>2021-08-05T07:18:10.567Z</time>
      </trkpt>
      <trkpt lat="42.95646786689758" lon="-0.2151346206665039">
        <ele>878.7158443891128</ele>
        <time>2021-08-05T07:18:12.427Z</time>
      </trkpt>
      <trkpt lat="42.95656442642212" lon="-0.2152633666992188">
        <ele>879.5091869085124</ele>
        <time>2021-08-05T07:18:14.289Z</time>
      </trkpt>
      <trkpt lat="42.95680046081543" lon="-0.2154672145843506">
        <ele>880.3215061304511</ele>
        <time>2021-08-05T07:18:16.156Z</time>
      </trkpt>
      <trkpt lat="42.956907749176025" lon="-0.215531587600708">
        <ele>881.212549984941</ele>
        <time>2021-08-05T07:18:18.025Z</time>
      </trkpt>
      <trkpt lat="42.95714386738837" lon="-0.2156281471252441">
        <ele>882.1497410348433</ele>
        <time>2021-08-05T07:18:19.898Z</time>
      </trkpt>
      <trkpt lat="42.95730471611023" lon="-0.2156281471252441">
        <ele>883.1766023271059</ele>
        <time>2021-08-05T07:18:21.773Z</time>
      </trkpt>
      <trkpt lat="42.957390546798706" lon="-0.215606689453125">
        <ele>884.2378306968037</ele>
        <time>2021-08-05T07:18:23.650Z</time>
      </trkpt>
      <trkpt lat="42.957476461306214" lon="-0.215531587600708">
        <ele>885.3547092093122</ele>
        <time>2021-08-05T07:18:25.528Z</time>
      </trkpt>
      <trkpt lat="42.95747637748718" lon="-0.215531587600708">
        <ele>886.4555629267991</ele>
        <time>2021-08-05T07:18:27.406Z</time>
      </trkpt>
      <trkpt lat="42.95759439468384" lon="-0.2154135704040527">
        <ele>887.6833002917747</ele>
        <time>2021-08-05T07:18:29.287Z</time>
      </trkpt>
      <trkpt lat="42.95774459838867" lon="-0.2152955532073975">
        <ele>888.9504866979931</ele>
        <time>2021-08-05T07:18:31.170Z</time>
      </trkpt>
      <trkpt lat="42.95798063278198" lon="-0.2151775360107422">
        <ele>890.3188329546667</ele>
        <time>2021-08-05T07:18:33.057Z</time>
      </trkpt>
      <trkpt lat="42.95812010765076" lon="-0.2150273323059082">
        <ele>891.6729814921903</ele>
        <time>2021-08-05T07:18:34.947Z</time>
      </trkpt>
      <trkpt lat="42.958409786224365" lon="-0.214458703994751">
        <ele>893.1788965761208</ele>
        <time>2021-08-05T07:18:36.845Z</time>
      </trkpt>
      <trkpt lat="42.9584527015686" lon="-0.2143621444702148">
        <ele>894.5647990100338</ele>
        <time>2021-08-05T07:18:38.745Z</time>
      </trkpt>
      <trkpt lat="42.95848488807678" lon="-0.2142333984375">
        <ele>895.9553066479946</ele>
        <time>2021-08-05T07:18:40.646Z</time>
      </trkpt>
      <trkpt lat="42.95851707458496" lon="-0.2138686180114746">
        <ele>897.3038240398567</ele>
        <time>2021-08-05T07:18:42.552Z</time>
      </trkpt>
      <trkpt lat="42.9585599899292" lon="-0.2137076854705811">
        <ele>898.7998365499222</ele>
        <time>2021-08-05T07:18:44.460Z</time>
      </trkpt>
      <trkpt lat="42.9586136341095" lon="-0.2135896682739258">
        <ele>900.3516435927731</ele>
        <time>2021-08-05T07:18:46.369Z</time>
      </trkpt>
      <trkpt lat="42.958688735961914" lon="-0.2135038375854492">
        <ele>901.9826497109793</ele>
        <time>2021-08-05T07:18:48.280Z</time>
      </trkpt>
      <trkpt lat="42.95886039733887" lon="-0.2133536338806152">
        <ele>903.7908232899608</ele>
        <time>2021-08-05T07:18:50.194Z</time>
      </trkpt>
      <trkpt lat="42.95897841453552" lon="-0.2132248878479004">
        <ele>905.5664155611053</ele>
        <time>2021-08-05T07:18:52.111Z</time>
      </trkpt>
      <trkpt lat="42.95920372009277" lon="-0.2128064632415771">
        <ele>907.2733930952779</ele>
        <time>2021-08-05T07:18:54.034Z</time>
      </trkpt>
      <trkpt lat="42.95932173728943" lon="-0.212634801864624">
        <ele>908.9912615770805</ele>
        <time>2021-08-05T07:18:55.959Z</time>
      </trkpt>
      <trkpt lat="42.959718788042665" lon="-0.2121734619140625">
        <ele>910.9532622819031</ele>
        <time>2021-08-05T07:18:57.893Z</time>
      </trkpt>
      <trkpt lat="42.95971870422363" lon="-0.2121734619140625">
        <ele>912.708111911713</ele>
        <time>2021-08-05T07:18:59.827Z</time>
      </trkpt>
      <trkpt lat="42.959965467453" lon="-0.2119052410125732">
        <ele>914.5861780873779</ele>
        <time>2021-08-05T07:19:01.766Z</time>
      </trkpt>
      <trkpt lat="42.96009421348572" lon="-0.2117335796356201">
        <ele>916.3814965510344</ele>
        <time>2021-08-05T07:19:03.708Z</time>
      </trkpt>
      <trkpt lat="42.960190773010254" lon="-0.2114331722259521">
        <ele>918.1463996427733</ele>
        <time>2021-08-05T07:19:05.654Z</time>
      </trkpt>
      <trkpt lat="42.96026587486267" lon="-0.2112829685211182">
        <ele>919.9944803105603</ele>
        <time>2021-08-05T07:19:07.602Z</time>
      </trkpt>
      <trkpt lat="42.96034097671509" lon="-0.2111971378326416">
        <ele>921.8701553402973</ele>
        <time>2021-08-05T07:19:09.551Z</time>
      </trkpt>
      <trkpt lat="42.96045899391174" lon="-0.2111756801605225">
        <ele>923.8258996213797</ele>
        <time>2021-08-05T07:19:11.502Z</time>
      </trkpt>
      <trkpt lat="42.96054482460022" lon="-0.2112078666687012">
        <ele>925.7949901854295</ele>
        <time>2021-08-05T07:19:13.455Z</time>
      </trkpt>
      <trkpt lat="42.96060919761658" lon="-0.2113151550292969">
        <ele>927.7714381136989</ele>
        <time>2021-08-05T07:19:15.409Z</time>
      </trkpt>
      <trkpt lat="42.96063073910773" lon="-0.21148681640625">
        <ele>929.7676551055413</ele>
        <time>2021-08-05T07:19:17.365Z</time>
      </trkpt>
      <trkpt lat="42.96063073910773" lon="-0.2124953269958496">
        <ele>932.0216432191622</ele>
        <time>2021-08-05T07:19:19.333Z</time>
      </trkpt>
      <trkpt lat="42.96061992645264" lon="-0.2130532264709473">
        <ele>934.0577602806763</ele>
        <time>2021-08-05T07:19:21.308Z</time>
      </trkpt>
      <trkpt lat="42.96056636609137" lon="-0.2134072780609131">
        <ele>936.0487235560637</ele>
        <time>2021-08-05T07:19:23.287Z</time>
      </trkpt>
      <trkpt lat="42.96056628227234" lon="-0.2134072780609131">
        <ele>937.9589514929603</ele>
        <time>2021-08-05T07:19:25.266Z</time>
      </trkpt>
      <trkpt lat="42.96053409576416" lon="-0.2135789394378662">
        <ele>939.8894269848802</ele>
        <time>2021-08-05T07:19:27.247Z</time>
      </trkpt>
      <trkpt lat="42.9605233669281" lon="-0.2137398719787598">
        <ele>941.8008592418536</ele>
        <time>2021-08-05T07:19:29.230Z</time>
      </trkpt>
      <trkpt lat="42.96053409576416" lon="-0.2138471603393555">
        <ele>943.7078315999894</ele>
        <time>2021-08-05T07:19:31.214Z</time>
      </trkpt>
      <trkpt lat="42.9605770111084" lon="-0.2139544486999512">
        <ele>945.619467778108</ele>
        <time>2021-08-05T07:19:33.200Z</time>
      </trkpt>
      <trkpt lat="42.960652112960815" lon="-0.2141046524047852">
        <ele>947.5157044315403</ele>
        <time>2021-08-05T07:19:35.188Z</time>
      </trkpt>
      <trkpt lat="42.9608775023371" lon="-0.2144157886505127">
        <ele>949.531135276952</ele>
        <time>2021-08-05T07:19:37.181Z</time>
      </trkpt>
      <trkpt lat="42.960877418518066" lon="-0.2144157886505127">
        <ele>951.3500545497818</ele>
        <time>2021-08-05T07:19:39.174Z</time>
      </trkpt>
      <trkpt lat="42.96096324920654" lon="-0.2146196365356445">
        <ele>953.2405615608848</ele>
        <time>2021-08-05T07:19:41.170Z</time>
      </trkpt>
      <trkpt lat="42.96100616455078" lon="-0.2149093151092529">
        <ele>955.1248457323675</ele>
        <time>2021-08-05T07:19:43.169Z</time>
      </trkpt>
      <trkpt lat="42.960963333025575" lon="-0.2155745029449463">
        <ele>956.9772610582488</ele>
        <time>2021-08-05T07:19:45.176Z</time>
      </trkpt>
      <trkpt lat="42.960888147354126" lon="-0.2164757251739502">
        <ele>958.8565340663603</ele>
        <time>2021-08-05T07:19:47.194Z</time>
      </trkpt>
      <trkpt lat="42.96090968884528" lon="-0.2169585227966309">
        <ele>960.7596631896422</ele>
        <time>2021-08-05T07:19:49.217Z</time>
      </trkpt>
      <trkpt lat="42.960909605026245" lon="-0.2169585227966309">
        <ele>962.4225593010156</ele>
        <time>2021-08-05T07:19:51.240Z</time>
      </trkpt>
      <trkpt lat="42.960909605026245" lon="-0.2171838283538818">
        <ele>964.104735519697</ele>
        <time>2021-08-05T07:19:53.266Z</time>
      </trkpt>
      <trkpt lat="42.96082377433777" lon="-0.2175056934356689">
        <ele>965.7143905876557</ele>
        <time>2021-08-05T07:19:55.296Z</time>
      </trkpt>
      <trkpt lat="42.96079158782959" lon="-0.2177095413208008">
        <ele>967.2843885176544</ele>
        <time>2021-08-05T07:19:57.328Z</time>
      </trkpt>
      <trkpt lat="42.96083458699286" lon="-0.2182137966156006">
        <ele>969.0615452904749</ele>
        <time>2021-08-05T07:19:59.366Z</time>
      </trkpt>
      <trkpt lat="42.96084531582892" lon="-0.2183318138122559">
        <ele>970.6266435543387</ele>
        <time>2021-08-05T07:20:01.406Z</time>
      </trkpt>
      <trkpt lat="42.96081304550171" lon="-0.2185249328613281">
        <ele>972.1109749582644</ele>
        <time>2021-08-05T07:20:03.448Z</time>
      </trkpt>
      <trkpt lat="42.96066292561591" lon="-0.2189540863037109">
        <ele>973.4421435962613</ele>
        <time>2021-08-05T07:20:05.496Z</time>
      </trkpt>
      <trkpt lat="42.960652112960815" lon="-0.2191257476806641">
        <ele>974.8227287755531</ele>
        <time>2021-08-05T07:20:07.546Z</time>
      </trkpt>
      <trkpt lat="42.960673570632935" lon="-0.219275951385498">
        <ele>976.2224567486211</ele>
        <time>2021-08-05T07:20:09.598Z</time>
      </trkpt>
      <trkpt lat="42.96073794364929" lon="-0.2194905281066895">
        <ele>977.6225815258736</ele>
        <time>2021-08-05T07:20:11.652Z</time>
      </trkpt>
      <trkpt lat="42.96083458699286" lon="-0.2199947834014893">
        <ele>979.121153649372</ele>
        <time>2021-08-05T07:20:13.712Z</time>
      </trkpt>
      <trkpt lat="42.96083450317383" lon="-0.2199947834014893">
        <ele>980.4564960421254</ele>
        <time>2021-08-05T07:20:15.772Z</time>
      </trkpt>
      <trkpt lat="42.96086668968201" lon="-0.2202737331390381">
        <ele>981.8667319144936</ele>
        <time>2021-08-05T07:20:17.836Z</time>
      </trkpt>
      <trkpt lat="42.960898876190186" lon="-0.2204132080078125">
        <ele>983.2231587595222</ele>
        <time>2021-08-05T07:20:19.901Z</time>
      </trkpt>
      <trkpt lat="42.960931062698364" lon="-0.2204775810241699">
        <ele>984.5573880725499</ele>
        <time>2021-08-05T07:20:21.967Z</time>
      </trkpt>
      <trkpt lat="42.9609739780426" lon="-0.2204990386962891">
        <ele>985.8902800794135</ele>
        <time>2021-08-05T07:20:24.034Z</time>
      </trkpt>
      <trkpt lat="42.96112418174744" lon="-0.2205204963684082">
        <ele>987.3947752249542</ele>
        <time>2021-08-05T07:20:26.103Z</time>
      </trkpt>
      <trkpt lat="42.961188554763794" lon="-0.2204668521881104">
        <ele>988.7605729216959</ele>
        <time>2021-08-05T07:20:28.174Z</time>
      </trkpt>
      <trkpt lat="42.96124219894409" lon="-0.2203488349914551">
        <ele>990.0894697724891</ele>
        <time>2021-08-05T07:20:30.246Z</time>
      </trkpt>
      <trkpt lat="42.96125292778015" lon="-0.2201879024505615">
        <ele>991.3377445256784</ele>
        <time>2021-08-05T07:20:32.320Z</time>
      </trkpt>
      <trkpt lat="42.961188554763794" lon="-0.2198553085327148">
        <ele>992.2879399254687</ele>
        <time>2021-08-05T07:20:34.398Z</time>
      </trkpt>
      <trkpt lat="42.961177825927734" lon="-0.2195870876312256">
        <ele>993.4745996955626</ele>
        <time>2021-08-05T07:20:36.479Z</time>
      </trkpt>
      <trkpt lat="42.96122074127197" lon="-0.219426155090332">
        <ele>994.7635684004031</ele>
        <time>2021-08-05T07:20:38.562Z</time>
      </trkpt>
      <trkpt lat="42.96129584312439" lon="-0.2193081378936768">
        <ele>996.106627167236</ele>
        <time>2021-08-05T07:20:40.647Z</time>
      </trkpt>
      <trkpt lat="42.961435317993164" lon="-0.2192330360412598">
        <ele>997.5546675573178</ele>
        <time>2021-08-05T07:20:42.735Z</time>
      </trkpt>
      <trkpt lat="42.96151041984558" lon="-0.2192223072052002">
        <ele>998.9513438076315</ele>
        <time>2021-08-05T07:20:44.824Z</time>
      </trkpt>
      <trkpt lat="42.9619824886322" lon="-0.2193617820739746">
        <ele>1000.737543641085</ele>
        <time>2021-08-05T07:20:46.921Z</time>
      </trkpt>
      <trkpt lat="42.96211123466492" lon="-0.2193725109100342">
        <ele>1002.1939968970654</ele>
        <time>2021-08-05T07:20:49.020Z</time>
      </trkpt>
      <trkpt lat="42.96221852302551" lon="-0.2193295955657959">
        <ele>1003.654986958937</ele>
        <time>2021-08-05T07:20:51.120Z</time>
      </trkpt>
      <trkpt lat="42.96228289604187" lon="-0.2192437648773193">
        <ele>1005.0570973157742</ele>
        <time>2021-08-05T07:20:53.222Z</time>
      </trkpt>
      <trkpt lat="42.96231508255005" lon="-0.2191579341888428">
        <ele>1006.4204467405127</ele>
        <time>2021-08-05T07:20:55.325Z</time>
      </trkpt>
      <trkpt lat="42.96232581138611" lon="-0.2190291881561279">
        <ele>1007.7548212215861</ele>
        <time>2021-08-05T07:20:57.430Z</time>
      </trkpt>
      <trkpt lat="42.96220779418945" lon="-0.2185893058776855">
        <ele>1008.9031065155921</ele>
        <time>2021-08-05T07:20:59.540Z</time>
      </trkpt>
      <trkpt lat="42.96221852302551" lon="-0.2184605598449707">
        <ele>1010.2399987920098</ele>
        <time>2021-08-05T07:21:01.652Z</time>
      </trkpt>
      <trkpt lat="42.96234726905823" lon="-0.2180850505828857">
        <ele>1011.7008005864336</ele>
        <time>2021-08-05T07:21:03.768Z</time>
      </trkpt>
      <trkpt lat="42.96246528625488" lon="-0.2179241180419922">
        <ele>1013.1322285964222</ele>
        <time>2021-08-05T07:21:05.887Z</time>
      </trkpt>
      <trkpt lat="42.96252974309027" lon="-0.2178812026977539">
        <ele>1014.5662919715494</ele>
        <time>2021-08-05T07:21:08.007Z</time>
      </trkpt>
      <trkpt lat="42.96260476112366" lon="-0.2178812026977539">
        <ele>1016.0433709589813</ele>
        <time>2021-08-05T07:21:10.128Z</time>
      </trkpt>
      <trkpt lat="42.96271204948425" lon="-0.2179133892059326">
        <ele>1017.5345689576233</ele>
        <time>2021-08-05T07:21:12.251Z</time>
      </trkpt>
      <trkpt lat="42.96280860900879" lon="-0.21797776222229">
        <ele>1019.0607558336678</ele>
        <time>2021-08-05T07:21:14.376Z</time>
      </trkpt>
      <trkpt lat="42.96286225318909" lon="-0.2180314064025879">
        <ele>1020.5762479760364</ele>
        <time>2021-08-05T07:21:16.502Z</time>
      </trkpt>
      <trkpt lat="42.962894439697266" lon="-0.2181708812713623">
        <ele>1022.1602035129713</ele>
        <time>2021-08-05T07:21:18.630Z</time>
      </trkpt>
      <trkpt lat="42.96288379468024" lon="-0.2184176445007324">
        <ele>1023.7353958847414</ele>
        <time>2021-08-05T07:21:20.761Z</time>
      </trkpt>
      <trkpt lat="42.96290525235236" lon="-0.2185571193695068">
        <ele>1025.2957216381533</ele>
        <time>2021-08-05T07:21:22.893Z</time>
      </trkpt>
      <trkpt lat="42.96294808387756" lon="-0.2186644077301025">
        <ele>1026.9045166285669</ele>
        <time>2021-08-05T07:21:25.027Z</time>
      </trkpt>
      <trkpt lat="42.96305537223816" lon="-0.2187609672546387">
        <ele>1028.5754667079539</ele>
        <time>2021-08-05T07:21:27.163Z</time>
      </trkpt>
      <trkpt lat="42.963162660598755" lon="-0.2187931537628174">
        <ele>1030.2491191746371</ele>
        <time>2021-08-05T07:21:29.301Z</time>
      </trkpt>
      <trkpt lat="42.96324849128723" lon="-0.2187716960906982">
        <ele>1031.9025975343752</ele>
        <time>2021-08-05T07:21:31.440Z</time>
      </trkpt>
      <trkpt lat="42.96333432197571" lon="-0.2187073230743408">
        <ele>1033.5573953591302</ele>
        <time>2021-08-05T07:21:33.581Z</time>
      </trkpt>
      <trkpt lat="42.9635488986969" lon="-0.2184927463531494">
        <ele>1035.2087125293774</ele>
        <time>2021-08-05T07:21:35.726Z</time>
      </trkpt>
      <trkpt lat="42.96386003494263" lon="-0.2180850505828857">
        <ele>1036.8711321718233</ele>
        <time>2021-08-05T07:21:37.878Z</time>
      </trkpt>
      <trkpt lat="42.96486854553223" lon="-0.2170443534851074">
        <ele>1039.1516850429666</ele>
        <time>2021-08-05T07:21:40.050Z</time>
      </trkpt>
      <trkpt lat="42.96509393490851" lon="-0.2167654037475586">
        <ele>1040.9615457635841</ele>
        <time>2021-08-05T07:21:42.227Z</time>
      </trkpt>
      <trkpt lat="42.96509385108948" lon="-0.2167654037475586">
        <ele>1042.6842128568474</ele>
        <time>2021-08-05T07:21:44.404Z</time>
      </trkpt>
      <trkpt lat="42.96526551246643" lon="-0.2165186405181885">
        <ele>1044.4576506926014</ele>
        <time>2021-08-05T07:21:46.585Z</time>
      </trkpt>
      <trkpt lat="42.965415716171265" lon="-0.2163577079772949">
        <ele>1046.2712776642802</ele>
        <time>2021-08-05T07:21:48.769Z</time>
      </trkpt>
      <trkpt lat="42.96555519104004" lon="-0.2162718772888184">
        <ele>1048.1267020890766</ele>
        <time>2021-08-05T07:21:50.955Z</time>
      </trkpt>
      <trkpt lat="42.96576976776123" lon="-0.2161967754364014">
        <ele>1050.0582604547003</ele>
        <time>2021-08-05T07:21:53.145Z</time>
      </trkpt>
      <trkpt lat="42.96583414077759" lon="-0.2161431312561035">
        <ele>1051.890834206079</ele>
        <time>2021-08-05T07:21:55.336Z</time>
      </trkpt>
      <trkpt lat="42.965930700302124" lon="-0.2160036563873291">
        <ele>1053.7360382331763</ele>
        <time>2021-08-05T07:21:57.529Z</time>
      </trkpt>
      <trkpt lat="42.965962970629334" lon="-0.2159178256988525">
        <ele>1055.5772387082013</ele>
        <time>2021-08-05T07:21:59.723Z</time>
      </trkpt>
      <trkpt lat="42.9659628868103" lon="-0.2159178256988525">
        <ele>1057.436437681347</ele>
        <time>2021-08-05T07:22:01.917Z</time>
      </trkpt>
      <trkpt lat="42.9660701751709" lon="-0.2155637741088867">
        <ele>1059.2951398944256</ele>
        <time>2021-08-05T07:22:04.116Z</time>
      </trkpt>
      <trkpt lat="42.966156005859375" lon="-0.2153170108795166">
        <ele>1061.1280036931373</ele>
        <time>2021-08-05T07:22:06.318Z</time>
      </trkpt>
      <trkpt lat="42.96620965003967" lon="-0.2152419090270996">
        <ele>1063.048727883668</ele>
        <time>2021-08-05T07:22:08.521Z</time>
      </trkpt>
      <trkpt lat="42.96628475189209" lon="-0.2151989936828613">
        <ele>1065.0300327787913</ele>
        <time>2021-08-05T07:22:10.726Z</time>
      </trkpt>
      <trkpt lat="42.96635985374451" lon="-0.2152097225189209">
        <ele>1067.0750290083733</ele>
        <time>2021-08-05T07:22:12.932Z</time>
      </trkpt>
      <trkpt lat="42.966424226760864" lon="-0.2152526378631592">
        <ele>1069.1679081527845</ele>
        <time>2021-08-05T07:22:15.139Z</time>
      </trkpt>
      <trkpt lat="42.966467225924134" lon="-0.2153170108795166">
        <ele>1071.2861656511245</ele>
        <time>2021-08-05T07:22:17.347Z</time>
      </trkpt>
      <trkpt lat="42.96648859977722" lon="-0.2154672145843506">
        <ele>1073.4684104116154</ele>
        <time>2021-08-05T07:22:19.557Z</time>
      </trkpt>
      <trkpt lat="42.966381311416626" lon="-0.2158963680267334">
        <ele>1075.6862222445425</ele>
        <time>2021-08-05T07:22:21.772Z</time>
      </trkpt>
      <trkpt lat="42.96639212407172" lon="-0.2162396907806396">
        <ele>1077.9872365013616</ele>
        <time>2021-08-05T07:22:23.991Z</time>
      </trkpt>
      <trkpt lat="42.96638139523566" lon="-0.216529369354248">
        <ele>1080.3013307311076</ele>
        <time>2021-08-05T07:22:26.214Z</time>
      </trkpt>
      <trkpt lat="42.96628475189209" lon="-0.2171945571899414">
        <ele>1082.7206770845132</ele>
        <time>2021-08-05T07:22:28.445Z</time>
      </trkpt>
      <trkpt lat="42.966123819351196" lon="-0.2176451683044434">
        <ele>1085.0416417223328</ele>
        <time>2021-08-05T07:22:30.681Z</time>
      </trkpt>
      <trkpt lat="42.96610236167908" lon="-0.2177631855010986">
        <ele>1087.3369728913892</ele>
        <time>2021-08-05T07:22:32.919Z</time>
      </trkpt>
      <trkpt lat="42.9660701751709" lon="-0.2182459831237793">
        <ele>1089.8789819819808</ele>
        <time>2021-08-05T07:22:35.163Z</time>
      </trkpt>
      <trkpt lat="42.965919971466064" lon="-0.2190613746643066">
        <ele>1092.22495867437</ele>
        <time>2021-08-05T07:22:37.416Z</time>
      </trkpt>
      <trkpt lat="42.965887784957886" lon="-0.219651460647583">
        <ele>1094.6785410953667</ele>
        <time>2021-08-05T07:22:39.676Z</time>
      </trkpt>
      <trkpt lat="42.96584486961365" lon="-0.2198123931884766">
        <ele>1097.0061313102601</ele>
        <time>2021-08-05T07:22:41.938Z</time>
      </trkpt>
      <trkpt lat="42.965683937072754" lon="-0.2200913429260254">
        <ele>1099.2520400449064</ele>
        <time>2021-08-05T07:22:44.205Z</time>
      </trkpt>
      <trkpt lat="42.9655659198761" lon="-0.2203917503356934">
        <ele>1101.3805585826688</ele>
        <time>2021-08-05T07:22:46.476Z</time>
      </trkpt>
      <trkpt lat="42.96550163067877" lon="-0.2208316326141357">
        <ele>1103.691020450006</ele>
        <time>2021-08-05T07:22:48.752Z</time>
      </trkpt>
      <trkpt lat="42.96550154685974" lon="-0.2208316326141357">
        <ele>1105.931136727012</ele>
        <time>2021-08-05T07:22:51.028Z</time>
      </trkpt>
      <trkpt lat="42.96548008918762" lon="-0.2211213111877441">
        <ele>1108.2334042147763</ele>
        <time>2021-08-05T07:22:53.307Z</time>
      </trkpt>
      <trkpt lat="42.96549081802368" lon="-0.2212285995483398">
        <ele>1110.5017653116843</ele>
        <time>2021-08-05T07:22:55.588Z</time>
      </trkpt>
      <trkpt lat="42.965641021728516" lon="-0.2217435836791992">
        <ele>1113.0632599085043</ele>
        <time>2021-08-05T07:22:57.875Z</time>
      </trkpt>
      <trkpt lat="42.965641021728516" lon="-0.2219259738922119">
        <ele>1115.3398456814414</ele>
        <time>2021-08-05T07:23:00.164Z</time>
      </trkpt>
      <trkpt lat="42.96556600369513" lon="-0.2221620082855225">
        <ele>1117.5136289384718</ele>
        <time>2021-08-05T07:23:02.456Z</time>
      </trkpt>
      <trkpt lat="42.96528697013855" lon="-0.222848653793335">
        <ele>1119.6922665740792</ele>
        <time>2021-08-05T07:23:04.757Z</time>
      </trkpt>
      <trkpt lat="42.96509385108948" lon="-0.2234172821044922">
        <ele>1122.014916586179</ele>
        <time>2021-08-05T07:23:07.066Z</time>
      </trkpt>
      <trkpt lat="42.96507239341736" lon="-0.2235996723175049">
        <ele>1124.1915604464573</ele>
        <time>2021-08-05T07:23:09.377Z</time>
      </trkpt>
      <trkpt lat="42.96513685025275" lon="-0.223846435546875">
        <ele>1126.4188625457261</ele>
        <time>2021-08-05T07:23:11.691Z</time>
      </trkpt>
      <trkpt lat="42.965179681777954" lon="-0.2239000797271729">
        <ele>1128.494619117616</ele>
        <time>2021-08-05T07:23:14.006Z</time>
      </trkpt>
      <trkpt lat="42.96527632512152" lon="-0.2239751815795898">
        <ele>1130.5919847225055</ele>
        <time>2021-08-05T07:23:16.323Z</time>
      </trkpt>
      <trkpt lat="42.965673208236694" lon="-0.2240288257598877">
        <ele>1132.8053557167768</ele>
        <time>2021-08-05T07:23:18.646Z</time>
      </trkpt>
      <trkpt lat="42.96583414077759" lon="-0.2240180969238281">
        <ele>1134.7362128427758</ele>
        <time>2021-08-05T07:23:20.972Z</time>
      </trkpt>
      <trkpt lat="42.96610236167908" lon="-0.2238893508911133">
        <ele>1136.6189660298478</ele>
        <time>2021-08-05T07:23:23.302Z</time>
      </trkpt>
      <trkpt lat="42.96624183654785" lon="-0.2238571643829346">
        <ele>1138.4441270991942</ele>
        <time>2021-08-05T07:23:25.635Z</time>
      </trkpt>
      <trkpt lat="42.96635993756354" lon="-0.2238571643829346">
        <ele>1140.2463064037195</ele>
        <time>2021-08-05T07:23:27.969Z</time>
      </trkpt>
      <trkpt lat="42.96635985374451" lon="-0.2238571643829346">
        <ele>1141.9943627807902</ele>
        <time>2021-08-05T07:23:30.303Z</time>
      </trkpt>
      <trkpt lat="42.96649932861328" lon="-0.2238893508911133">
        <ele>1143.71747896256</ele>
        <time>2021-08-05T07:23:32.640Z</time>
      </trkpt>
      <trkpt lat="42.966649532318115" lon="-0.2239644527435303">
        <ele>1145.4019800495182</ele>
        <time>2021-08-05T07:23:34.979Z</time>
      </trkpt>
      <trkpt lat="42.96701431274414" lon="-0.2243828773498535">
        <ele>1146.9804366162175</ele>
        <time>2021-08-05T07:23:37.326Z</time>
      </trkpt>
      <trkpt lat="42.96722888946533" lon="-0.2247154712677002">
        <ele>1148.691866556006</ele>
        <time>2021-08-05T07:23:39.678Z</time>
      </trkpt>
      <trkpt lat="42.96728253364563" lon="-0.224919319152832">
        <ele>1150.357336626042</ele>
        <time>2021-08-05T07:23:42.033Z</time>
      </trkpt>
      <trkpt lat="42.96729334630072" lon="-0.2250802516937256">
        <ele>1151.9558424496195</ele>
        <time>2021-08-05T07:23:44.390Z</time>
      </trkpt>
      <trkpt lat="42.96729326248169" lon="-0.2250802516937256">
        <ele>1153.4908504163386</ele>
        <time>2021-08-05T07:23:46.747Z</time>
      </trkpt>
      <trkpt lat="42.96728253364563" lon="-0.2251982688903809">
        <ele>1155.0129549851783</ele>
        <time>2021-08-05T07:23:49.105Z</time>
      </trkpt>
      <trkpt lat="42.96711087226868" lon="-0.2261745929718018">
        <ele>1156.882728498063</ele>
        <time>2021-08-05T07:23:51.475Z</time>
      </trkpt>
      <trkpt lat="42.96708941459656" lon="-0.226367712020874">
        <ele>1158.4138682893818</ele>
        <time>2021-08-05T07:23:53.847Z</time>
      </trkpt>
      <trkpt lat="42.96711087226868" lon="-0.2266144752502441">
        <ele>1159.928807843547</ele>
        <time>2021-08-05T07:23:56.222Z</time>
      </trkpt>
      <trkpt lat="42.96719670295715" lon="-0.227043628692627">
        <ele>1161.4379675199405</ele>
        <time>2021-08-05T07:23:58.602Z</time>
      </trkpt>
      <trkpt lat="42.96719670295715" lon="-0.2272045612335205">
        <ele>1162.883849959366</ele>
        <time>2021-08-05T07:24:00.984Z</time>
      </trkpt>
      <trkpt lat="42.967175329104066" lon="-0.2273225784301758">
        <ele>1164.317534355168</ele>
        <time>2021-08-05T07:24:03.367Z</time>
      </trkpt>
      <trkpt lat="42.967175245285034" lon="-0.2273225784301758">
        <ele>1165.693273984109</ele>
        <time>2021-08-05T07:24:05.750Z</time>
      </trkpt>
      <trkpt lat="42.96711087226868" lon="-0.2274727821350098">
        <ele>1167.1072886180489</ele>
        <time>2021-08-05T07:24:08.136Z</time>
      </trkpt>
      <trkpt lat="42.96701431274414" lon="-0.227590799331665">
        <ele>1168.5391407144255</ele>
        <time>2021-08-05T07:24:10.524Z</time>
      </trkpt>
      <trkpt lat="42.96678900718689" lon="-0.2278268337249756">
        <ele>1170.1045755718878</ele>
        <time>2021-08-05T07:24:12.916Z</time>
      </trkpt>
      <trkpt lat="42.96660661697388" lon="-0.2279341220855713">
        <ele>1171.5491575657534</ele>
        <time>2021-08-05T07:24:15.311Z</time>
      </trkpt>
      <trkpt lat="42.96648859977722" lon="-0.2279448509216309">
        <ele>1172.9213963947423</ele>
        <time>2021-08-05T07:24:17.708Z</time>
      </trkpt>
      <trkpt lat="42.966381311416626" lon="-0.2279019355773926">
        <ele>1174.2584425912346</ele>
        <time>2021-08-05T07:24:20.107Z</time>
      </trkpt>
      <trkpt lat="42.96611309051514" lon="-0.2276551723480225">
        <ele>1175.569015177152</ele>
        <time>2021-08-05T07:24:22.511Z</time>
      </trkpt>
      <trkpt lat="42.96595215797424" lon="-0.2275693416595459">
        <ele>1176.8510144501608</ele>
        <time>2021-08-05T07:24:24.918Z</time>
      </trkpt>
      <trkpt lat="42.96580195426941" lon="-0.2275371551513672">
        <ele>1178.1485491232024</ele>
        <time>2021-08-05T07:24:27.327Z</time>
      </trkpt>
      <trkpt lat="42.965683937072754" lon="-0.2275478839874268">
        <ele>1179.4683979700428</ele>
        <time>2021-08-05T07:24:29.738Z</time>
      </trkpt>
      <trkpt lat="42.96554446220398" lon="-0.2276229858398438">
        <ele>1180.7998747089077</ele>
        <time>2021-08-05T07:24:32.152Z</time>
      </trkpt>
      <trkpt lat="42.9654586315155" lon="-0.227741003036499">
        <ele>1182.2093299302762</ele>
        <time>2021-08-05T07:24:34.568Z</time>
      </trkpt>
      <trkpt lat="42.965383529663086" lon="-0.2279126644134521">
        <ele>1183.637685181876</ele>
        <time>2021-08-05T07:24:36.986Z</time>
      </trkpt>
      <trkpt lat="42.9653085116297" lon="-0.2281594276428223">
        <ele>1185.1448356396368</ele>
        <time>2021-08-05T07:24:39.407Z</time>
      </trkpt>
      <trkpt lat="42.9652548674494" lon="-0.2283632755279541">
        <ele>1186.6846332512746</ele>
        <time>2021-08-05T07:24:41.831Z</time>
      </trkpt>
      <trkpt lat="42.96507239341736" lon="-0.2290499210357666">
        <ele>1188.4641812463287</ele>
        <time>2021-08-05T07:24:44.263Z</time>
      </trkpt>
      <trkpt lat="42.964900732040405" lon="-0.2293932437896729">
        <ele>1190.260170391518</ele>
        <time>2021-08-05T07:24:46.700Z</time>
      </trkpt>
      <trkpt lat="42.96476125717163" lon="-0.2295541763305664">
        <ele>1191.7984539359763</ele>
        <time>2021-08-05T07:24:49.140Z</time>
      </trkpt>
      <trkpt lat="42.96452530659735" lon="-0.2297365665435791">
        <ele>1193.298491562742</ele>
        <time>2021-08-05T07:24:51.584Z</time>
      </trkpt>
      <trkpt lat="42.96434283256531" lon="-0.2299511432647705">
        <ele>1194.7995159643992</ele>
        <time>2021-08-05T07:24:54.032Z</time>
      </trkpt>
      <trkpt lat="42.96428918838501" lon="-0.2300477027893066">
        <ele>1196.3864998606114</ele>
        <time>2021-08-05T07:24:56.482Z</time>
      </trkpt>
      <trkpt lat="42.964214170351624" lon="-0.2304983139038086">
        <ele>1198.2036104585018</ele>
        <time>2021-08-05T07:24:58.937Z</time>
      </trkpt>
      <trkpt lat="42.96421408653259" lon="-0.2304983139038086">
        <ele>1199.8067768144438</ele>
        <time>2021-08-05T07:25:01.392Z</time>
      </trkpt>
      <trkpt lat="42.964171255007386" lon="-0.2307021617889404">
        <ele>1201.4985784869773</ele>
        <time>2021-08-05T07:25:03.850Z</time>
      </trkpt>
      <trkpt lat="42.96410688199103" lon="-0.2307987213134766">
        <ele>1203.2030690779507</ele>
        <time>2021-08-05T07:25:06.309Z</time>
      </trkpt>
      <trkpt lat="42.96403178013861" lon="-0.2308523654937744">
        <ele>1204.9309881312895</ele>
        <time>2021-08-05T07:25:08.769Z</time>
      </trkpt>
      <trkpt lat="42.963924407958984" lon="-0.2308845520019531">
        <ele>1206.709300463724</ele>
        <time>2021-08-05T07:25:11.231Z</time>
      </trkpt>
      <trkpt lat="42.96379566192627" lon="-0.2308738231658936">
        <ele>1208.4959001635784</ele>
        <time>2021-08-05T07:25:13.695Z</time>
      </trkpt>
      <trkpt lat="42.96364554204047" lon="-0.2308416366577148">
        <ele>1210.2500590210273</ele>
        <time>2021-08-05T07:25:16.162Z</time>
      </trkpt>
      <trkpt lat="42.963645458221436" lon="-0.2308416366577148">
        <ele>1212.0786209017642</ele>
        <time>2021-08-05T07:25:18.629Z</time>
      </trkpt>
      <trkpt lat="42.96355962753296" lon="-0.2308523654937744">
        <ele>1213.9109425703232</ele>
        <time>2021-08-05T07:25:21.097Z</time>
      </trkpt>
      <trkpt lat="42.96347379684448" lon="-0.2308845520019531">
        <ele>1215.8067224332003</ele>
        <time>2021-08-05T07:25:23.567Z</time>
      </trkpt>
      <trkpt lat="42.963377237319946" lon="-0.2309489250183105">
        <ele>1217.7836818752398</ele>
        <time>2021-08-05T07:25:26.038Z</time>
      </trkpt>
      <trkpt lat="42.963194847106934" lon="-0.2311313152313232">
        <ele>1219.8858533225641</ele>
        <time>2021-08-05T07:25:28.513Z</time>
      </trkpt>
      <trkpt lat="42.962937355041504" lon="-0.2313458919525146">
        <ele>1221.9310567276552</ele>
        <time>2021-08-05T07:25:30.993Z</time>
      </trkpt>
      <trkpt lat="42.96278715133667" lon="-0.2315282821655273">
        <ele>1224.0580189449918</ele>
        <time>2021-08-05T07:25:33.476Z</time>
      </trkpt>
      <trkpt lat="42.96270132064819" lon="-0.2316784858703613">
        <ele>1226.2438521723245</ele>
        <time>2021-08-05T07:25:35.961Z</time>
      </trkpt>
      <trkpt lat="42.96247601509094" lon="-0.2325260639190674">
        <ele>1228.7060113858233</ele>
        <time>2021-08-05T07:25:38.457Z</time>
      </trkpt>
      <trkpt lat="42.96236872673035" lon="-0.2329874038696289">
        <ele>1230.8743054823622</ele>
        <time>2021-08-05T07:25:40.958Z</time>
      </trkpt>
      <trkpt lat="42.96232581138611" lon="-0.2332770824432373">
        <ele>1233.2139638633296</ele>
        <time>2021-08-05T07:25:43.463Z</time>
      </trkpt>
      <trkpt lat="42.96233654022217" lon="-0.2335023880004883">
        <ele>1235.5456173035209</ele>
        <time>2021-08-05T07:25:45.971Z</time>
      </trkpt>
      <trkpt lat="42.96236881054938" lon="-0.2336418628692627">
        <ele>1237.8691865442825</ele>
        <time>2021-08-05T07:25:48.480Z</time>
      </trkpt>
      <trkpt lat="42.962669134140015" lon="-0.2345001697540283">
        <ele>1240.527350977458</ele>
        <time>2021-08-05T07:25:51.000Z</time>
      </trkpt>
      <trkpt lat="42.963151931762695" lon="-0.2362060546875">
        <ele>1243.1547772526953</ele>
        <time>2021-08-05T07:25:53.542Z</time>
      </trkpt>
      <trkpt lat="42.963420236483216" lon="-0.2366995811462402">
        <ele>1245.8792413630053</ele>
        <time>2021-08-05T07:25:56.091Z</time>
      </trkpt>
      <trkpt lat="42.9636025428772" lon="-0.2370965480804443">
        <ele>1248.435866444991</ele>
        <time>2021-08-05T07:25:58.646Z</time>
      </trkpt>
      <trkpt lat="42.96376347541809" lon="-0.2375149726867676">
        <ele>1251.0608090475678</ele>
        <time>2021-08-05T07:26:01.206Z</time>
      </trkpt>
      <trkpt lat="42.96395659446716" lon="-0.2381587028503418">
        <ele>1253.5234112286817</ele>
        <time>2021-08-05T07:26:03.774Z</time>
      </trkpt>
      <trkpt lat="42.96401023864746" lon="-0.2384269237518311">
        <ele>1255.9303707863355</ele>
        <time>2021-08-05T07:26:06.346Z</time>
      </trkpt>
      <trkpt lat="42.9639995098114" lon="-0.2386736869812012">
        <ele>1258.263483728936</ele>
        <time>2021-08-05T07:26:08.921Z</time>
      </trkpt>
      <trkpt lat="42.963902950286865" lon="-0.2389097213745117">
        <ele>1260.4645208570323</ele>
        <time>2021-08-05T07:26:11.499Z</time>
      </trkpt>
      <trkpt lat="42.963881492614746" lon="-0.2390599250793457">
        <ele>1262.7387122049918</ele>
        <time>2021-08-05T07:26:14.079Z</time>
      </trkpt>
      <trkpt lat="42.963902950286865" lon="-0.239253044128418">
        <ele>1265.0770635874744</ele>
        <time>2021-08-05T07:26:16.661Z</time>
      </trkpt>
      <trkpt lat="42.96396732330322" lon="-0.2394676208496094">
        <ele>1267.4443711429158</ele>
        <time>2021-08-05T07:26:19.246Z</time>
      </trkpt>
      <trkpt lat="42.964128255844116" lon="-0.2398109436035156">
        <ele>1269.8595741280676</ele>
        <time>2021-08-05T07:26:21.835Z</time>
      </trkpt>
      <trkpt lat="42.964160442352295" lon="-0.2399182319641113">
        <ele>1272.0561339364692</ele>
        <time>2021-08-05T07:26:24.426Z</time>
      </trkpt>
      <trkpt lat="42.964171171188354" lon="-0.2400469779968262">
        <ele>1274.2134885168352</ele>
        <time>2021-08-05T07:26:27.018Z</time>
      </trkpt>
      <trkpt lat="42.964160442352295" lon="-0.2401328086853027">
        <ele>1276.2924747031066</ele>
        <time>2021-08-05T07:26:29.611Z</time>
      </trkpt>
      <trkpt lat="42.964138984680176" lon="-0.2402186393737793">
        <ele>1278.3235413691552</ele>
        <time>2021-08-05T07:26:32.205Z</time>
      </trkpt>
      <trkpt lat="42.96376347541809" lon="-0.2408945560455322">
        <ele>1280.5312398072936</ele>
        <time>2021-08-05T07:26:34.809Z</time>
      </trkpt>
      <trkpt lat="42.96370983123779" lon="-0.2409589290618896">
        <ele>1282.523312957574</ele>
        <time>2021-08-05T07:26:37.414Z</time>
      </trkpt>
      <trkpt lat="42.963645458221436" lon="-0.2410125732421875">
        <ele>1284.4751625603205</ele>
        <time>2021-08-05T07:26:40.021Z</time>
      </trkpt>
      <trkpt lat="42.96351671218872" lon="-0.2410662174224854">
        <ele>1286.3894158046287</ele>
        <time>2021-08-05T07:26:42.630Z</time>
      </trkpt>
      <trkpt lat="42.96326994895935" lon="-0.2410554885864258">
        <ele>1288.2655727756537</ele>
        <time>2021-08-05T07:26:45.243Z</time>
      </trkpt>
      <trkpt lat="42.9630982875824" lon="-0.2410876750946045">
        <ele>1290.106573101507</ele>
        <time>2021-08-05T07:26:47.858Z</time>
      </trkpt>
      <trkpt lat="42.96294808387756" lon="-0.2411842346191406">
        <ele>1291.9308018964723</ele>
        <time>2021-08-05T07:26:50.476Z</time>
      </trkpt>
      <trkpt lat="42.96277650631964" lon="-0.2413451671600342">
        <ele>1293.7321732406226</ele>
        <time>2021-08-05T07:26:53.097Z</time>
      </trkpt>
      <trkpt lat="42.96277642250061" lon="-0.2413451671600342">
        <ele>1295.5001245966816</ele>
        <time>2021-08-05T07:26:55.718Z</time>
      </trkpt>
      <trkpt lat="42.96271204948425" lon="-0.2414524555206299">
        <ele>1297.2684434167663</ele>
        <time>2021-08-05T07:26:58.341Z</time>
      </trkpt>
      <trkpt lat="42.962690591812134" lon="-0.241624116897583">
        <ele>1299.0671284718387</ele>
        <time>2021-08-05T07:27:00.966Z</time>
      </trkpt>
      <trkpt lat="42.962690675631166" lon="-0.2417314052581787">
        <ele>1300.808751160066</ele>
        <time>2021-08-05T07:27:03.592Z</time>
      </trkpt>
      <trkpt lat="42.962690591812134" lon="-0.2418386936187744">
        <ele>1302.5595942634109</ele>
        <time>2021-08-05T07:27:06.220Z</time>
      </trkpt>
      <trkpt lat="42.96274423599243" lon="-0.2420425415039062">
        <ele>1304.3661882056667</ele>
        <time>2021-08-05T07:27:08.850Z</time>
      </trkpt>
      <trkpt lat="42.96281933784485" lon="-0.2422034740447998">
        <ele>1306.1603289058623</ele>
        <time>2021-08-05T07:27:11.482Z</time>
      </trkpt>
      <trkpt lat="42.962883710861206" lon="-0.2422893047332764">
        <ele>1308.0178368130494</ele>
        <time>2021-08-05T07:27:14.116Z</time>
      </trkpt>
      <trkpt lat="42.9629909992218" lon="-0.2423536777496338">
        <ele>1309.9517791233638</ele>
        <time>2021-08-05T07:27:16.752Z</time>
      </trkpt>
      <trkpt lat="42.963184118270874" lon="-0.2423751354217529">
        <ele>1311.9601892461715</ele>
        <time>2021-08-05T07:27:19.391Z</time>
      </trkpt>
      <trkpt lat="42.96332359313965" lon="-0.2424073219299316">
        <ele>1313.9876985526748</ele>
        <time>2021-08-05T07:27:22.032Z</time>
      </trkpt>
      <trkpt lat="42.96336650848389" lon="-0.2424395084381104">
        <ele>1315.9377167411112</ele>
        <time>2021-08-05T07:27:24.674Z</time>
      </trkpt>
      <trkpt lat="42.963409423828125" lon="-0.2424824237823486">
        <ele>1317.9276554815401</ele>
        <time>2021-08-05T07:27:27.317Z</time>
      </trkpt>
      <trkpt lat="42.96347379684448" lon="-0.2426433563232422">
        <ele>1319.9999488233939</ele>
        <time>2021-08-05T07:27:29.962Z</time>
      </trkpt>
      <trkpt lat="42.96347379684448" lon="-0.2428042888641357">
        <ele>1322.009305113239</ele>
        <time>2021-08-05T07:27:32.609Z</time>
      </trkpt>
      <trkpt lat="42.963409423828125" lon="-0.2429544925689697">
        <ele>1324.0124644054963</ele>
        <time>2021-08-05T07:27:35.258Z</time>
      </trkpt>
      <trkpt lat="42.963141202926636" lon="-0.2433300018310547">
        <ele>1326.129050034196</ele>
        <time>2021-08-05T07:27:37.913Z</time>
      </trkpt>
      <trkpt lat="42.96295881271362" lon="-0.2436840534210205">
        <ele>1328.2247557394908</ele>
        <time>2021-08-05T07:27:40.573Z</time>
      </trkpt>
      <trkpt lat="42.962647676467896" lon="-0.2444350719451904">
        <ele>1330.6390401539638</ele>
        <time>2021-08-05T07:27:43.243Z</time>
      </trkpt>
      <trkpt lat="42.96256184577942" lon="-0.2446174621582031">
        <ele>1332.8741601816027</ele>
        <time>2021-08-05T07:27:45.916Z</time>
      </trkpt>
      <trkpt lat="42.96246528625488" lon="-0.2447783946990967">
        <ele>1335.1000688235513</ele>
        <time>2021-08-05T07:27:48.591Z</time>
      </trkpt>
      <trkpt lat="42.96229362487793" lon="-0.2449822425842285">
        <ele>1337.3172696040995</ele>
        <time>2021-08-05T07:27:51.270Z</time>
      </trkpt>
      <trkpt lat="42.96132802963257" lon="-0.2459263801574707">
        <ele>1339.6148650239084</ele>
        <time>2021-08-05T07:27:53.968Z</time>
      </trkpt>
      <trkpt lat="42.96124219894409" lon="-0.246119499206543">
        <ele>1341.8120721227592</ele>
        <time>2021-08-05T07:27:56.669Z</time>
      </trkpt>
      <trkpt lat="42.9610276222229" lon="-0.2467739582061768">
        <ele>1344.2051925549831</ele>
        <time>2021-08-05T07:27:59.378Z</time>
      </trkpt>
      <trkpt lat="42.960898876190186" lon="-0.2472245693206787">
        <ele>1346.4940267003963</ele>
        <time>2021-08-05T07:28:02.093Z</time>
      </trkpt>
      <trkpt lat="42.96082377433777" lon="-0.247642993927002">
        <ele>1348.7438829996638</ele>
        <time>2021-08-05T07:28:04.813Z</time>
      </trkpt>
      <trkpt lat="42.96078085899353" lon="-0.2477931976318359">
        <ele>1351.0188176934043</ele>
        <time>2021-08-05T07:28:07.535Z</time>
      </trkpt>
      <trkpt lat="42.960695028305054" lon="-0.2479970455169678">
        <ele>1353.343905807396</ele>
        <time>2021-08-05T07:28:10.259Z</time>
      </trkpt>
      <trkpt lat="42.9605770111084" lon="-0.2482223510742188">
        <ele>1355.659979870213</ele>
        <time>2021-08-05T07:28:12.987Z</time>
      </trkpt>
      <trkpt lat="42.9604697227478" lon="-0.2483832836151123">
        <ele>1357.9114651049051</ele>
        <time>2021-08-05T07:28:15.717Z</time>
      </trkpt>
      <trkpt lat="42.96028733253479" lon="-0.2486085891723633">
        <ele>1360.091927781987</ele>
        <time>2021-08-05T07:28:18.451Z</time>
      </trkpt>
      <trkpt lat="42.9601263999939" lon="-0.2491235733032227">
        <ele>1362.3648322247022</ele>
        <time>2021-08-05T07:28:21.192Z</time>
      </trkpt>
      <trkpt lat="42.96004056930542" lon="-0.2494239807128906">
        <ele>1364.5485542312579</ele>
        <time>2021-08-05T07:28:23.936Z</time>
      </trkpt>
      <trkpt lat="42.96002984046936" lon="-0.2496170997619629">
        <ele>1366.758858891078</ele>
        <time>2021-08-05T07:28:26.683Z</time>
      </trkpt>
      <trkpt lat="42.9600727558136" lon="-0.2498960494995117">
        <ele>1368.939085708209</ele>
        <time>2021-08-05T07:28:29.433Z</time>
      </trkpt>
      <trkpt lat="42.960169315338135" lon="-0.2501749992370605">
        <ele>1371.226560750078</ele>
        <time>2021-08-05T07:28:32.187Z</time>
      </trkpt>
      <trkpt lat="42.96024441719055" lon="-0.2502608299255371">
        <ele>1373.5582847964006</ele>
        <time>2021-08-05T07:28:34.942Z</time>
      </trkpt>
      <trkpt lat="42.96036243438721" lon="-0.2503252029418945">
        <ele>1375.9434813458347</ele>
        <time>2021-08-05T07:28:37.699Z</time>
      </trkpt>
      <trkpt lat="42.96077013015747" lon="-0.2503573894500732">
        <ele>1378.5705506021757</ele>
        <time>2021-08-05T07:28:40.463Z</time>
      </trkpt>
      <trkpt lat="42.960920333862305" lon="-0.2503788471221924">
        <ele>1380.9007873334617</ele>
        <time>2021-08-05T07:28:43.229Z</time>
      </trkpt>
      <trkpt lat="42.96101689338684" lon="-0.2504539489746094">
        <ele>1383.1836029358738</ele>
        <time>2021-08-05T07:28:45.997Z</time>
      </trkpt>
      <trkpt lat="42.96109199523926" lon="-0.2505290508270264">
        <ele>1385.4491198319968</ele>
        <time>2021-08-05T07:28:48.767Z</time>
      </trkpt>
      <trkpt lat="42.961134910583496" lon="-0.2506792545318604">
        <ele>1387.7355053615424</ele>
        <time>2021-08-05T07:28:51.538Z</time>
      </trkpt>
      <trkpt lat="42.961156368255615" lon="-0.2508080005645752">
        <ele>1390.0061839104321</ele>
        <time>2021-08-05T07:28:54.311Z</time>
      </trkpt>
      <trkpt lat="42.961134910583496" lon="-0.2509796619415283">
        <ele>1392.2500558679926</ele>
        <time>2021-08-05T07:28:57.086Z</time>
      </trkpt>
      <trkpt lat="42.96096324920654" lon="-0.2515590190887451">
        <ele>1394.4495417217015</ele>
        <time>2021-08-05T07:28:59.868Z</time>
      </trkpt>
      <trkpt lat="42.960941791534424" lon="-0.2516984939575195">
        <ele>1396.64046234138</ele>
        <time>2021-08-05T07:29:02.652Z</time>
      </trkpt>
      <trkpt lat="42.96095252037048" lon="-0.2518379688262939">
        <ele>1398.850666380573</ele>
        <time>2021-08-05T07:29:05.438Z</time>
      </trkpt>
      <trkpt lat="42.9610276222229" lon="-0.2520096302032471">
        <ele>1401.1126693280785</ele>
        <time>2021-08-05T07:29:08.226Z</time>
      </trkpt>
      <trkpt lat="42.96121001243591" lon="-0.252234935760498">
        <ele>1403.5031402270624</ele>
        <time>2021-08-05T07:29:11.018Z</time>
      </trkpt>
      <trkpt lat="42.96126365661621" lon="-0.2523744106292725">
        <ele>1405.7733237792625</ele>
        <time>2021-08-05T07:29:13.812Z</time>
      </trkpt>
      <trkpt lat="42.96124219894409" lon="-0.2525460720062256">
        <ele>1407.9672502536996</ele>
        <time>2021-08-05T07:29:16.608Z</time>
      </trkpt>
      <trkpt lat="42.96119928359985" lon="-0.2527177333831787">
        <ele>1410.139351805763</ele>
        <time>2021-08-05T07:29:19.406Z</time>
      </trkpt>
      <trkpt lat="42.961177825927734" lon="-0.2528679370880127">
        <ele>1412.3493644491095</ele>
        <time>2021-08-05T07:29:22.206Z</time>
      </trkpt>
      <trkpt lat="42.961167097091675" lon="-0.2537798881530762">
        <ele>1415.1960014819924</ele>
        <time>2021-08-05T07:29:25.016Z</time>
      </trkpt>
      <trkpt lat="42.96114572323859" lon="-0.2538442611694336">
        <ele>1417.4009568759602</ele>
        <time>2021-08-05T07:29:27.827Z</time>
      </trkpt>
      <trkpt lat="42.961145639419556" lon="-0.2538442611694336">
        <ele>1419.5512293842726</ele>
        <time>2021-08-05T07:29:30.638Z</time>
      </trkpt>
      <trkpt lat="42.96112418174744" lon="-0.253908634185791">
        <ele>1421.7223923769586</ele>
        <time>2021-08-05T07:29:33.450Z</time>
      </trkpt>
      <trkpt lat="42.96105980873108" lon="-0.2539944648742676">
        <ele>1423.8748195347644</ele>
        <time>2021-08-05T07:29:36.264Z</time>
      </trkpt>
      <trkpt lat="42.96095252037048" lon="-0.2540373802185059">
        <ele>1425.9630962581473</ele>
        <time>2021-08-05T07:29:39.079Z</time>
      </trkpt>
      <trkpt lat="42.960695028305054" lon="-0.254209041595459">
        <ele>1428.0298889262053</ele>
        <time>2021-08-05T07:29:41.899Z</time>
      </trkpt>
      <trkpt lat="42.960448265075684" lon="-0.2545523643493652">
        <ele>1430.1125720886025</ele>
        <time>2021-08-05T07:29:44.725Z</time>
      </trkpt>
      <trkpt lat="42.96031951904297" lon="-0.2547776699066162">
        <ele>1432.1147258067251</ele>
        <time>2021-08-05T07:29:47.554Z</time>
      </trkpt>
      <trkpt lat="42.96028733253479" lon="-0.2549493312835693">
        <ele>1434.1677189343536</ele>
        <time>2021-08-05T07:29:50.385Z</time>
      </trkpt>
      <trkpt lat="42.96024441719055" lon="-0.2553248405456543">
        <ele>1436.1704093670082</ele>
        <time>2021-08-05T07:29:53.221Z</time>
      </trkpt>
      <trkpt lat="42.96027660369873" lon="-0.255582332611084">
        <ele>1438.145078528923</ele>
        <time>2021-08-05T07:29:56.060Z</time>
      </trkpt>
      <trkpt lat="42.96033024787903" lon="-0.2557754516601562">
        <ele>1440.0970127642554</ele>
        <time>2021-08-05T07:29:58.901Z</time>
      </trkpt>
      <trkpt lat="42.960405349731445" lon="-0.2558934688568115">
        <ele>1442.1273452058851</ele>
        <time>2021-08-05T07:30:01.744Z</time>
      </trkpt>
      <trkpt lat="42.96072721481323" lon="-0.2561831474304199">
        <ele>1444.3787896032973</ele>
        <time>2021-08-05T07:30:04.593Z</time>
      </trkpt>
      <trkpt lat="42.96075948514044" lon="-0.2562582492828369">
        <ele>1446.2807053629276</ele>
        <time>2021-08-05T07:30:07.443Z</time>
      </trkpt>
      <trkpt lat="42.96078085899353" lon="-0.2563011646270752">
        <ele>1448.1132226395966</ele>
        <time>2021-08-05T07:30:10.294Z</time>
      </trkpt>
      <trkpt lat="42.96081312932074" lon="-0.2564942836761475">
        <ele>1449.9168855087783</ele>
        <time>2021-08-05T07:30:13.147Z</time>
      </trkpt>
      <trkpt lat="42.96081304550171" lon="-0.2570199966430664">
        <ele>1451.696020434374</ele>
        <time>2021-08-05T07:30:16.006Z</time>
      </trkpt>
      <trkpt lat="42.96078085899353" lon="-0.2575457096099854">
        <ele>1453.4553366968353</ele>
        <time>2021-08-05T07:30:18.871Z</time>
      </trkpt>
      <trkpt lat="42.96055555343628" lon="-0.2585756778717041">
        <ele>1455.2752016829593</ele>
        <time>2021-08-05T07:30:21.749Z</time>
      </trkpt>
      <trkpt lat="42.96036243438721" lon="-0.2591443061828613">
        <ele>1456.8496935596281</ele>
        <time>2021-08-05T07:30:24.634Z</time>
      </trkpt>
      <trkpt lat="42.96033024787903" lon="-0.2593803405761719">
        <ele>1458.2674591188525</ele>
        <time>2021-08-05T07:30:27.522Z</time>
      </trkpt>
      <trkpt lat="42.96034097671509" lon="-0.2596378326416016">
        <ele>1459.6559044451415</ele>
        <time>2021-08-05T07:30:30.413Z</time>
      </trkpt>
      <trkpt lat="42.96037316322327" lon="-0.2598631381988525">
        <ele>1460.9639543456658</ele>
        <time>2021-08-05T07:30:33.307Z</time>
      </trkpt>
      <trkpt lat="42.96055555343628" lon="-0.2601635456085205">
        <ele>1462.257319834715</ele>
        <time>2021-08-05T07:30:36.205Z</time>
      </trkpt>
      <trkpt lat="42.96058773994446" lon="-0.2602493762969971">
        <ele>1463.3040960767762</ele>
        <time>2021-08-05T07:30:39.105Z</time>
      </trkpt>
      <trkpt lat="42.96060928143561" lon="-0.2608072757720947">
        <ele>1464.41199427001</ele>
        <time>2021-08-05T07:30:42.011Z</time>
      </trkpt>
      <trkpt lat="42.96063073910773" lon="-0.261375904083252">
        <ele>1465.2443128881869</ele>
        <time>2021-08-05T07:30:44.924Z</time>
      </trkpt>
      <trkpt lat="42.96064146794379" lon="-0.2615904808044434">
        <ele>1465.8551806621056</ele>
        <time>2021-08-05T07:30:47.839Z</time>
      </trkpt>
      <trkpt lat="42.960641384124756" lon="-0.2617728710174561">
        <ele>1466.3985433942225</ele>
        <time>2021-08-05T07:30:50.757Z</time>
      </trkpt>
      <trkpt lat="42.96054482460022" lon="-0.2627706527709961">
        <ele>1466.898210975302</ele>
        <time>2021-08-05T07:30:53.686Z</time>
      </trkpt>
      <trkpt lat="42.960448265075684" lon="-0.2635324001312256">
        <ele>1467.0678419830292</ele>
        <time>2021-08-05T07:30:56.624Z</time>
      </trkpt>
      <trkpt lat="42.960405349731445" lon="-0.2637577056884766">
        <ele>1467.151663568502</ele>
        <time>2021-08-05T07:30:59.565Z</time>
      </trkpt>
      <trkpt lat="42.96028733253479" lon="-0.2641546726226807">
        <ele>1467.136508860398</ele>
        <time>2021-08-05T07:31:02.511Z</time>
      </trkpt>
      <trkpt lat="42.960180044174194" lon="-0.2644121646881104">
        <ele>1467.1020688652966</ele>
        <time>2021-08-05T07:31:05.461Z</time>
      </trkpt>
      <trkpt lat="42.95999765396118" lon="-0.2647554874420166">
        <ele>1467.0289247747123</ele>
        <time>2021-08-05T07:31:08.416Z</time>
      </trkpt>
      <trkpt lat="42.959944009780884" lon="-0.264894962310791">
        <ele>1466.8299189369359</ele>
        <time>2021-08-05T07:31:11.372Z</time>
      </trkpt>
      <trkpt lat="42.959911823272705" lon="-0.265045166015625">
        <ele>1466.5222054487303</ele>
        <time>2021-08-05T07:31:14.330Z</time>
      </trkpt>
      <trkpt lat="42.959890365600586" lon="-0.2652490139007568">
        <ele>1466.0863107789346</ele>
        <time>2021-08-05T07:31:17.291Z</time>
      </trkpt>
      <trkpt lat="42.959418296813965" lon="-0.2676844596862793">
        <ele>1465.3499965872415</ele>
        <time>2021-08-05T07:31:20.281Z</time>
      </trkpt>
      <trkpt lat="42.95937538146973" lon="-0.2683067321777344">
        <ele>1464.7329045089941</ele>
        <time>2021-08-05T07:31:23.279Z</time>
      </trkpt>
      <trkpt lat="42.95934319496155" lon="-0.2684569358825684">
        <ele>1464.065410178406</ele>
        <time>2021-08-05T07:31:26.279Z</time>
      </trkpt>
      <trkpt lat="42.95921444892883" lon="-0.2687466144561768">
        <ele>1463.3281107335538</ele>
        <time>2021-08-05T07:31:29.283Z</time>
      </trkpt>
      <trkpt lat="42.95910716056824" lon="-0.268939733505249">
        <ele>1462.5076952817806</ele>
        <time>2021-08-05T07:31:32.289Z</time>
      </trkpt>
      <trkpt lat="42.95883893966675" lon="-0.2692830562591553">
        <ele>1461.769433185776</ele>
        <time>2021-08-05T07:31:35.301Z</time>
      </trkpt>
      <trkpt lat="42.9586136341095" lon="-0.2700340747833252">
        <ele>1460.6902850542438</ele>
        <time>2021-08-05T07:31:38.323Z</time>
      </trkpt>
      <trkpt lat="42.9585599899292" lon="-0.27016282081604">
        <ele>1459.6653759539242</ele>
        <time>2021-08-05T07:31:41.347Z</time>
      </trkpt>
      <trkpt lat="42.95834541320801" lon="-0.270463228225708">
        <ele>1458.681656245038</ele>
        <time>2021-08-05T07:31:44.375Z</time>
      </trkpt>
      <trkpt lat="42.95830249786377" lon="-0.2705812454223633">
        <ele>1457.6197897438933</ele>
        <time>2021-08-05T07:31:47.405Z</time>
      </trkpt>
      <trkpt lat="42.95828104019165" lon="-0.2706992626190186">
        <ele>1456.4611126793159</ele>
        <time>2021-08-05T07:31:50.436Z</time>
      </trkpt>
      <trkpt lat="42.95828104019165" lon="-0.2709245681762695">
        <ele>1455.2715451403626</ele>
        <time>2021-08-05T07:31:53.470Z</time>
      </trkpt>
      <trkpt lat="42.95831322669983" lon="-0.2711391448974609">
        <ele>1453.827090964586</ele>
        <time>2021-08-05T07:31:56.507Z</time>
      </trkpt>
      <trkpt lat="42.95835614204407" lon="-0.271536111831665">
        <ele>1452.2643288737752</ele>
        <time>2021-08-05T07:31:59.548Z</time>
      </trkpt>
      <trkpt lat="42.95834541320801" lon="-0.2717077732086182">
        <ele>1450.7034349751375</ele>
        <time>2021-08-05T07:32:02.591Z</time>
      </trkpt>
      <trkpt lat="42.95831322669983" lon="-0.2718794345855713">
        <ele>1449.1423733421911</ele>
        <time>2021-08-05T07:32:05.636Z</time>
      </trkpt>
      <trkpt lat="42.9581093788147" lon="-0.2725124359130859">
        <ele>1447.6527301594115</ele>
        <time>2021-08-05T07:32:08.690Z</time>
      </trkpt>
      <trkpt lat="42.9580557346344" lon="-0.2727162837982178">
        <ele>1445.9360513988277</ele>
        <time>2021-08-05T07:32:11.746Z</time>
      </trkpt>
      <trkpt lat="42.95804500579834" lon="-0.2728772163391113">
        <ele>1444.1447974501402</ele>
        <time>2021-08-05T07:32:14.804Z</time>
      </trkpt>
      <trkpt lat="42.95809864997864" lon="-0.2733922004699707">
        <ele>1442.1721018422672</ele>
        <time>2021-08-05T07:32:17.868Z</time>
      </trkpt>
      <trkpt lat="42.95821666717529" lon="-0.2737569808959961">
        <ele>1439.9229665295004</ele>
        <time>2021-08-05T07:32:20.937Z</time>
      </trkpt>
      <trkpt lat="42.958420515060425" lon="-0.2742290496826172">
        <ele>1437.7381726622398</ele>
        <time>2021-08-05T07:32:24.012Z</time>
      </trkpt>
      <trkpt lat="42.9584527015686" lon="-0.2744543552398682">
        <ele>1435.625484900409</ele>
        <time>2021-08-05T07:32:27.090Z</time>
      </trkpt>
      <trkpt lat="42.958409786224365" lon="-0.274583101272583">
        <ele>1433.5771905331508</ele>
        <time>2021-08-05T07:32:30.170Z</time>
      </trkpt>
      <trkpt lat="42.95828104019165" lon="-0.2748405933380127">
        <ele>1431.6438719914686</ele>
        <time>2021-08-05T07:32:33.253Z</time>
      </trkpt>
      <trkpt lat="42.95822739601135" lon="-0.2749693393707275">
        <ele>1429.4666593932295</ele>
        <time>2021-08-05T07:32:36.338Z</time>
      </trkpt>
      <trkpt lat="42.958141565322876" lon="-0.2754735946655273">
        <ele>1426.850211592608</ele>
        <time>2021-08-05T07:32:39.429Z</time>
      </trkpt>
      <trkpt lat="42.95786261558533" lon="-0.2765035629272461">
        <ele>1423.6581687133212</ele>
        <time>2021-08-05T07:32:42.533Z</time>
      </trkpt>
      <trkpt lat="42.95779824256897" lon="-0.2766001224517822">
        <ele>1421.1912186900877</ele>
        <time>2021-08-05T07:32:45.639Z</time>
      </trkpt>
      <trkpt lat="42.95771241188049" lon="-0.2766430377960205">
        <ele>1418.7835968046284</ele>
        <time>2021-08-05T07:32:48.746Z</time>
      </trkpt>
      <trkpt lat="42.95761585235596" lon="-0.2766108512878418">
        <ele>1416.4956919900105</ele>
        <time>2021-08-05T07:32:51.855Z</time>
      </trkpt>
      <trkpt lat="42.95734763145447" lon="-0.2764391899108887">
        <ele>1414.2014469686046</ele>
        <time>2021-08-05T07:32:54.968Z</time>
      </trkpt>
      <trkpt lat="42.957186698913574" lon="-0.2763640880584717">
        <ele>1411.877093635997</ele>
        <time>2021-08-05T07:32:58.084Z</time>
      </trkpt>
      <trkpt lat="42.95685410499573" lon="-0.276331901550293">
        <ele>1409.4423122490186</ele>
        <time>2021-08-05T07:33:01.205Z</time>
      </trkpt>
      <trkpt lat="42.95662879943848" lon="-0.2762675285339355">
        <ele>1407.1045174851515</ele>
        <time>2021-08-05T07:33:04.330Z</time>
      </trkpt>
      <trkpt lat="42.95647859573364" lon="-0.276256799697876">
        <ele>1404.7793364424244</ele>
        <time>2021-08-05T07:33:07.457Z</time>
      </trkpt>
      <trkpt lat="42.956414222717285" lon="-0.2762675285339355">
        <ele>1402.538179058955</ele>
        <time>2021-08-05T07:33:10.585Z</time>
      </trkpt>
      <trkpt lat="42.95631766319275" lon="-0.276331901550293">
        <ele>1400.286620209206</ele>
        <time>2021-08-05T07:33:13.715Z</time>
      </trkpt>
      <trkpt lat="42.955942153930664" lon="-0.2766215801239014">
        <ele>1398.0544329614343</ele>
        <time>2021-08-05T07:33:16.852Z</time>
      </trkpt>
      <trkpt lat="42.95573830604553" lon="-0.2768254280090332">
        <ele>1395.8526155130385</ele>
        <time>2021-08-05T07:33:19.993Z</time>
      </trkpt>
      <trkpt lat="42.955384254455566" lon="-0.2772116661071777">
        <ele>1393.7275864301528</ele>
        <time>2021-08-05T07:33:23.141Z</time>
      </trkpt>
      <trkpt lat="42.95531988143921" lon="-0.277329683303833">
        <ele>1391.7483700173457</ele>
        <time>2021-08-05T07:33:26.291Z</time>
      </trkpt>
      <trkpt lat="42.95530915260315" lon="-0.2774584293365479">
        <ele>1389.7725456643066</ele>
        <time>2021-08-05T07:33:29.443Z</time>
      </trkpt>
      <trkpt lat="42.95534133911133" lon="-0.2777266502380371">
        <ele>1387.8638899110117</ele>
        <time>2021-08-05T07:33:32.598Z</time>
      </trkpt>
      <trkpt lat="42.955405712127686" lon="-0.2780055999755859">
        <ele>1385.9478068317496</ele>
        <time>2021-08-05T07:33:35.756Z</time>
      </trkpt>
      <trkpt lat="42.955427169799805" lon="-0.2781987190246582">
        <ele>1384.195186227937</ele>
        <time>2021-08-05T07:33:38.917Z</time>
      </trkpt>
      <trkpt lat="42.95530915260315" lon="-0.2796685695648193">
        <ele>1382.4496242710097</ele>
        <time>2021-08-05T07:33:42.095Z</time>
      </trkpt>
      <trkpt lat="42.95523405075073" lon="-0.280001163482666">
        <ele>1381.0116195641397</ele>
        <time>2021-08-05T07:33:45.277Z</time>
      </trkpt>
      <trkpt lat="42.955180406570435" lon="-0.280376672744751">
        <ele>1379.2632960175024</ele>
        <time>2021-08-05T07:33:48.464Z</time>
      </trkpt>
      <trkpt lat="42.95511603355408" lon="-0.2805483341217041">
        <ele>1377.798424231788</ele>
        <time>2021-08-05T07:33:51.653Z</time>
      </trkpt>
      <trkpt lat="42.954912185668945" lon="-0.2809345722198486">
        <ele>1376.7887052194849</ele>
        <time>2021-08-05T07:33:54.847Z</time>
      </trkpt>
      <trkpt lat="42.95486927032471" lon="-0.2810955047607422">
        <ele>1375.717785454587</ele>
        <time>2021-08-05T07:33:58.043Z</time>
      </trkpt>
      <trkpt lat="42.95487999916077" lon="-0.2812349796295166">
        <ele>1374.606369522281</ele>
        <time>2021-08-05T07:34:01.241Z</time>
      </trkpt>
      <trkpt lat="42.95499801635742" lon="-0.2815890312194824">
        <ele>1372.9994265845773</ele>
        <time>2021-08-05T07:34:04.444Z</time>
      </trkpt>
      <trkpt lat="42.95501947402954" lon="-0.2818357944488525">
        <ele>1372.07005576983</ele>
        <time>2021-08-05T07:34:07.650Z</time>
      </trkpt>
      <trkpt lat="42.95496582984924" lon="-0.2824687957763672">
        <ele>1371.5027134728662</ele>
        <time>2021-08-05T07:34:10.863Z</time>
      </trkpt>
      <trkpt lat="42.954944372177124" lon="-0.2831125259399414">
        <ele>1370.417411153041</ele>
        <time>2021-08-05T07:34:14.084Z</time>
      </trkpt>
      <trkpt lat="42.95491226948798" lon="-0.2832520008087158">
        <ele>1370.0736390463182</ele>
        <time>2021-08-05T07:34:17.306Z</time>
      </trkpt>
      <trkpt lat="42.954912185668945" lon="-0.2832520008087158">
        <ele>1369.7306498888847</ele>
        <time>2021-08-05T07:34:20.528Z</time>
      </trkpt>
      <trkpt lat="42.954890727996826" lon="-0.2834022045135498">
        <ele>1369.524492363513</ele>
        <time>2021-08-05T07:34:23.752Z</time>
      </trkpt>
      <trkpt lat="42.95491226948798" lon="-0.2834987640380859">
        <ele>1369.2936202774144</ele>
        <time>2021-08-05T07:34:26.977Z</time>
      </trkpt>
      <trkpt lat="42.954912185668945" lon="-0.2834987640380859">
        <ele>1369.3802356766967</ele>
        <time>2021-08-05T07:34:30.202Z</time>
      </trkpt>
      <trkpt lat="42.9550302028656" lon="-0.2837884426116943">
        <ele>1369.246203876819</ele>
        <time>2021-08-05T07:34:33.431Z</time>
      </trkpt>
      <trkpt lat="42.95505166053772" lon="-0.2839386463165283">
        <ele>1369.5873853987723</ele>
        <time>2021-08-05T07:34:36.662Z</time>
      </trkpt>
      <trkpt lat="42.9550302028656" lon="-0.284121036529541">
        <ele>1370.107679530768</ele>
        <time>2021-08-05T07:34:39.895Z</time>
      </trkpt>
      <trkpt lat="42.954933643341064" lon="-0.284571647644043">
        <ele>1370.7485190394673</ele>
        <time>2021-08-05T07:34:43.134Z</time>
      </trkpt>
      <trkpt lat="42.95462250709534" lon="-0.2851295471191406">
        <ele>1371.7435997474593</ele>
        <time>2021-08-05T07:34:46.381Z</time>
      </trkpt>
      <trkpt lat="42.954397201538086" lon="-0.2856659889221191">
        <ele>1372.6011913167865</ele>
        <time>2021-08-05T07:34:49.635Z</time>
      </trkpt>
      <trkpt lat="42.95421481132507" lon="-0.2860093116760254">
        <ele>1373.9057433987637</ele>
        <time>2021-08-05T07:34:52.894Z</time>
      </trkpt>
      <trkpt lat="42.95409679412842" lon="-0.2863633632659912">
        <ele>1375.2650832740592</ele>
        <time>2021-08-05T07:34:56.158Z</time>
      </trkpt>
      <trkpt lat="42.95402177609503" lon="-0.2865028381347656">
        <ele>1376.6977402739606</ele>
        <time>2021-08-05T07:34:59.424Z</time>
      </trkpt>
      <trkpt lat="42.953946590423584" lon="-0.2866315841674805">
        <ele>1378.2697963711853</ele>
        <time>2021-08-05T07:35:02.692Z</time>
      </trkpt>
      <trkpt lat="42.953903675079346" lon="-0.2867388725280762">
        <ele>1379.9691828282305</ele>
        <time>2021-08-05T07:35:05.961Z</time>
      </trkpt>
      <trkpt lat="42.953903675079346" lon="-0.2868354320526123">
        <ele>1381.6328414548152</ele>
        <time>2021-08-05T07:35:09.231Z</time>
      </trkpt>
      <trkpt lat="42.953946590423584" lon="-0.2869963645935059">
        <ele>1383.3638395002304</ele>
        <time>2021-08-05T07:35:12.503Z</time>
      </trkpt>
      <trkpt lat="42.95401104725897" lon="-0.2872002124786377">
        <ele>1385.0029858203497</ele>
        <time>2021-08-05T07:35:15.778Z</time>
      </trkpt>
      <trkpt lat="42.95423626899719" lon="-0.2878117561340332">
        <ele>1386.7134236094644</ele>
        <time>2021-08-05T07:35:19.061Z</time>
      </trkpt>
      <trkpt lat="42.95430064201355" lon="-0.2880585193634033">
        <ele>1388.53032232664</ele>
        <time>2021-08-05T07:35:22.347Z</time>
      </trkpt>
      <trkpt lat="42.95435437001288" lon="-0.28839111328125">
        <ele>1390.7446723563771</ele>
        <time>2021-08-05T07:35:25.637Z</time>
      </trkpt>
      <trkpt lat="42.954386472702026" lon="-0.2885627746582031">
        <ele>1392.778890648839</ele>
        <time>2021-08-05T07:35:28.929Z</time>
      </trkpt>
      <trkpt lat="42.954440200701356" lon="-0.2886593341827393">
        <ele>1394.4449386213128</ele>
        <time>2021-08-05T07:35:32.223Z</time>
      </trkpt>
      <trkpt lat="42.954440116882324" lon="-0.2886593341827393">
        <ele>1396.3226384393347</ele>
        <time>2021-08-05T07:35:35.517Z</time>
      </trkpt>
      <trkpt lat="42.95460104942322" lon="-0.2888953685760498">
        <ele>1398.0591433152745</ele>
        <time>2021-08-05T07:35:38.814Z</time>
      </trkpt>
      <trkpt lat="42.95484781265259" lon="-0.2891099452972412">
        <ele>1400.0094764640794</ele>
        <time>2021-08-05T07:35:42.116Z</time>
      </trkpt>
      <trkpt lat="42.954901456832886" lon="-0.2891957759857178">
        <ele>1402.013481262511</ele>
        <time>2021-08-05T07:35:45.419Z</time>
      </trkpt>
      <trkpt lat="42.954944372177124" lon="-0.2892816066741943">
        <ele>1403.976168239872</ele>
        <time>2021-08-05T07:35:48.724Z</time>
      </trkpt>
      <trkpt lat="42.95496582984924" lon="-0.2893996238708496">
        <ele>1405.841520635609</ele>
        <time>2021-08-05T07:35:52.030Z</time>
      </trkpt>
      <trkpt lat="42.954965913668275" lon="-0.2895176410675049">
        <ele>1407.4299232415042</ele>
        <time>2021-08-05T07:35:55.337Z</time>
      </trkpt>
      <trkpt lat="42.95499801635742" lon="-0.2896356582641602">
        <ele>1409.4619485056749</ele>
        <time>2021-08-05T07:35:58.646Z</time>
      </trkpt>
      <trkpt lat="42.95506247319281" lon="-0.2897751331329346">
        <ele>1411.3161870346398</ele>
        <time>2021-08-05T07:36:01.957Z</time>
      </trkpt>
      <trkpt lat="42.955191219225526" lon="-0.2898931503295898">
        <ele>1412.9419081225587</ele>
        <time>2021-08-05T07:36:05.270Z</time>
      </trkpt>
      <trkpt lat="42.9558885935694" lon="-0.2906012535095215">
        <ele>1415.0986449349411</ele>
        <time>2021-08-05T07:36:08.597Z</time>
      </trkpt>
      <trkpt lat="42.95607089996338" lon="-0.2907192707061768">
        <ele>1415.749801513183</ele>
        <time>2021-08-05T07:36:11.927Z</time>
      </trkpt>
      <trkpt lat="42.956210458651185" lon="-0.2907407283782959">
        <ele>1415.5793574063273</ele>
        <time>2021-08-05T07:36:15.260Z</time>
      </trkpt>
      <trkpt lat="42.95621037483215" lon="-0.2907407283782959">
        <ele>1415.6085163239882</ele>
        <time>2021-08-05T07:36:18.593Z</time>
      </trkpt>
      <trkpt lat="42.95696139335632" lon="-0.290687084197998">
        <ele>1413.2077028757403</ele>
        <time>2021-08-05T07:36:21.938Z</time>
      </trkpt>
      <trkpt lat="42.957208240404725" lon="-0.2906227111816406">
        <ele>1411.8958410472424</ele>
        <time>2021-08-05T07:36:25.287Z</time>
      </trkpt>
      <trkpt lat="42.95735836029053" lon="-0.2905905246734619">
        <ele>1410.9450634156933</ele>
        <time>2021-08-05T07:36:28.638Z</time>
      </trkpt>
      <trkpt lat="42.9574013594538" lon="-0.2906012535095215">
        <ele>1409.9741586940436</ele>
        <time>2021-08-05T07:36:31.990Z</time>
      </trkpt>
      <trkpt lat="42.957401275634766" lon="-0.2906012535095215">
        <ele>1409.1843315851684</ele>
        <time>2021-08-05T07:36:35.342Z</time>
      </trkpt>
      <trkpt lat="42.957690954208374" lon="-0.2910089492797852">
        <ele>1408.1778069190204</ele>
        <time>2021-08-05T07:36:38.700Z</time>
      </trkpt>
      <trkpt lat="42.957948446273804" lon="-0.2910733222961426">
        <ele>1406.0528684085762</ele>
        <time>2021-08-05T07:36:42.063Z</time>
      </trkpt>
      <trkpt lat="42.95803427696228" lon="-0.2911698818206787">
        <ele>1404.7603814133613</ele>
        <time>2021-08-05T07:36:45.427Z</time>
      </trkpt>
      <trkpt lat="42.9580557346344" lon="-0.2912449836730957">
        <ele>1403.7904195116328</ele>
        <time>2021-08-05T07:36:48.792Z</time>
      </trkpt>
      <trkpt lat="42.95806646347046" lon="-0.2913522720336914">
        <ele>1402.9110968767413</ele>
        <time>2021-08-05T07:36:52.159Z</time>
      </trkpt>
      <trkpt lat="42.95803427696228" lon="-0.2916312217712402">
        <ele>1402.1434919983299</ele>
        <time>2021-08-05T07:36:55.529Z</time>
      </trkpt>
      <trkpt lat="42.95804500579834" lon="-0.2917277812957764">
        <ele>1401.010908522773</ele>
        <time>2021-08-05T07:36:58.900Z</time>
      </trkpt>
      <trkpt lat="42.95807719230652" lon="-0.2918136119842529">
        <ele>1399.8955979304328</ele>
        <time>2021-08-05T07:37:02.272Z</time>
      </trkpt>
      <trkpt lat="42.95813092030585" lon="-0.2918672561645508">
        <ele>1398.7074468723386</ele>
        <time>2021-08-05T07:37:05.645Z</time>
      </trkpt>
      <trkpt lat="42.958195209503174" lon="-0.2919638156890869">
        <ele>1397.5167028652154</ele>
        <time>2021-08-05T07:37:09.020Z</time>
      </trkpt>
      <trkpt lat="42.95824885368347" lon="-0.2920818328857422">
        <ele>1396.386048371251</ele>
        <time>2021-08-05T07:37:12.396Z</time>
      </trkpt>
      <trkpt lat="42.95829176902771" lon="-0.2922213077545166">
        <ele>1395.3541747247637</ele>
        <time>2021-08-05T07:37:15.774Z</time>
      </trkpt>
      <trkpt lat="42.95830249786377" lon="-0.2923715114593506">
        <ele>1394.4010094404794</ele>
        <time>2021-08-05T07:37:19.154Z</time>
      </trkpt>
      <trkpt lat="42.95827031135559" lon="-0.2927899360656738">
        <ele>1393.8070911630618</ele>
        <time>2021-08-05T07:37:22.539Z</time>
      </trkpt>
      <trkpt lat="42.95830249786377" lon="-0.2929830551147461">
        <ele>1392.9828503178956</ele>
        <time>2021-08-05T07:37:25.926Z</time>
      </trkpt>
      <trkpt lat="42.958399057388306" lon="-0.2931225299835205">
        <ele>1392.024971840874</ele>
        <time>2021-08-05T07:37:29.316Z</time>
      </trkpt>
      <trkpt lat="42.9585599899292" lon="-0.2932727336883545">
        <ele>1390.962953626155</ele>
        <time>2021-08-05T07:37:32.709Z</time>
      </trkpt>
      <trkpt lat="42.95878529548645" lon="-0.293734073638916">
        <ele>1390.1989607458495</ele>
        <time>2021-08-05T07:37:36.108Z</time>
      </trkpt>
      <trkpt lat="42.95932173728943" lon="-0.2944314479827881">
        <ele>1389.5661167899511</ele>
        <time>2021-08-05T07:37:39.519Z</time>
      </trkpt>
      <trkpt lat="42.95935392379761" lon="-0.2945387363433838">
        <ele>1389.1614273164641</ele>
        <time>2021-08-05T07:37:42.931Z</time>
      </trkpt>
      <trkpt lat="42.95937538146973" lon="-0.2946674823760986">
        <ele>1388.816927715419</ele>
        <time>2021-08-05T07:37:46.345Z</time>
      </trkpt>
      <trkpt lat="42.959407567977905" lon="-0.2949142456054688">
        <ele>1388.7082449370437</ele>
        <time>2021-08-05T07:37:49.762Z</time>
      </trkpt>
      <trkpt lat="42.95947194099426" lon="-0.295107364654541">
        <ele>1388.4635655279658</ele>
        <time>2021-08-05T07:37:53.181Z</time>
      </trkpt>
      <trkpt lat="42.9595685005188" lon="-0.2953112125396729">
        <ele>1388.2515083040603</ele>
        <time>2021-08-05T07:37:56.603Z</time>
      </trkpt>
      <trkpt lat="42.959879636764526" lon="-0.29563307762146">
        <ele>1387.4649942556453</ele>
        <time>2021-08-05T07:38:00.032Z</time>
      </trkpt>
      <trkpt lat="42.9601263999939" lon="-0.2957940101623535">
        <ele>1386.5699707695926</ele>
        <time>2021-08-05T07:38:03.465Z</time>
      </trkpt>
      <trkpt lat="42.96025514602661" lon="-0.2959012985229492">
        <ele>1386.2923965528735</ele>
        <time>2021-08-05T07:38:06.900Z</time>
      </trkpt>
      <trkpt lat="42.960394620895386" lon="-0.2961266040802002">
        <ele>1386.1762194263297</ele>
        <time>2021-08-05T07:38:10.339Z</time>
      </trkpt>
      <trkpt lat="42.96059846878052" lon="-0.2965235710144043">
        <ele>1386.185097824039</ele>
        <time>2021-08-05T07:38:13.783Z</time>
      </trkpt>
      <trkpt lat="42.96081304550171" lon="-0.2970921993255615">
        <ele>1386.297715227138</ele>
        <time>2021-08-05T07:38:17.235Z</time>
      </trkpt>
      <trkpt lat="42.960941791534424" lon="-0.2973604202270508">
        <ele>1386.628802569218</ele>
        <time>2021-08-05T07:38:20.691Z</time>
      </trkpt>
      <trkpt lat="42.96129584312439" lon="-0.297703742980957">
        <ele>1386.443648383176</ele>
        <time>2021-08-05T07:38:24.154Z</time>
      </trkpt>
      <trkpt lat="42.961671352386475" lon="-0.2979075908660889">
        <ele>1386.0224662668074</ele>
        <time>2021-08-05T07:38:27.623Z</time>
      </trkpt>
      <trkpt lat="42.96175718307495" lon="-0.298004150390625">
        <ele>1386.3093481587737</ele>
        <time>2021-08-05T07:38:31.094Z</time>
      </trkpt>
      <trkpt lat="42.962132692337036" lon="-0.2987444400787354">
        <ele>1387.5839203890587</ele>
        <time>2021-08-05T07:38:34.576Z</time>
      </trkpt>
      <trkpt lat="42.96231508255005" lon="-0.2989804744720459">
        <ele>1388.1689790048395</ele>
        <time>2021-08-05T07:38:38.062Z</time>
      </trkpt>
      <trkpt lat="42.962433099746704" lon="-0.2992486953735352">
        <ele>1388.6330001035262</ele>
        <time>2021-08-05T07:38:41.551Z</time>
      </trkpt>
      <trkpt lat="42.96257257461548" lon="-0.2994418144226074">
        <ele>1388.7979762448235</ele>
        <time>2021-08-05T07:38:45.043Z</time>
      </trkpt>
      <trkpt lat="42.96276569366455" lon="-0.3002035617828369">
        <ele>1389.6653667596927</ele>
        <time>2021-08-05T07:38:48.545Z</time>
      </trkpt>
      <trkpt lat="42.962915897369385" lon="-0.3005897998809814">
        <ele>1390.2479081365648</ele>
        <time>2021-08-05T07:38:52.052Z</time>
      </trkpt>
      <trkpt lat="42.96328067779541" lon="-0.3015983104705811">
        <ele>1390.5684894534</ele>
        <time>2021-08-05T07:38:55.572Z</time>
      </trkpt>
      <trkpt lat="42.96353816986084" lon="-0.3027892112731934">
        <ele>1391.3747164550466</ele>
        <time>2021-08-05T07:38:59.107Z</time>
      </trkpt>
      <trkpt lat="42.96370983123779" lon="-0.3032398223876953">
        <ele>1392.0585426486557</ele>
        <time>2021-08-05T07:39:02.648Z</time>
      </trkpt>
      <trkpt lat="42.96379566192627" lon="-0.3033149242401123">
        <ele>1392.6275611661993</ele>
        <time>2021-08-05T07:39:06.190Z</time>
      </trkpt>
      <trkpt lat="42.96387076377869" lon="-0.3033149242401123">
        <ele>1393.2527591599137</ele>
        <time>2021-08-05T07:39:09.734Z</time>
      </trkpt>
      <trkpt lat="42.964106798172" lon="-0.3032612800598145">
        <ele>1393.7259265962007</ele>
        <time>2021-08-05T07:39:13.281Z</time>
      </trkpt>
      <trkpt lat="42.964192628860474" lon="-0.3032183647155762">
        <ele>1394.5241242002264</ele>
        <time>2021-08-05T07:39:16.830Z</time>
      </trkpt>
      <trkpt lat="42.96427845954895" lon="-0.3031432628631592">
        <ele>1395.3390594454154</ele>
        <time>2021-08-05T07:39:20.381Z</time>
      </trkpt>
      <trkpt lat="42.964375019073486" lon="-0.3029608726501465">
        <ele>1396.157611888158</ele>
        <time>2021-08-05T07:39:23.934Z</time>
      </trkpt>
      <trkpt lat="42.964621782302856" lon="-0.3027892112731934">
        <ele>1397.144667236406</ele>
        <time>2021-08-05T07:39:27.492Z</time>
      </trkpt>
      <trkpt lat="42.96477198600769" lon="-0.3026175498962402">
        <ele>1398.1768677634882</ele>
        <time>2021-08-05T07:39:31.053Z</time>
      </trkpt>
      <trkpt lat="42.96525478363037" lon="-0.3022420406341553">
        <ele>1399.557365898218</ele>
        <time>2021-08-05T07:39:34.623Z</time>
      </trkpt>
      <trkpt lat="42.965887784957886" lon="-0.3018558025360107">
        <ele>1400.8549189061878</ele>
        <time>2021-08-05T07:39:38.204Z</time>
      </trkpt>
      <trkpt lat="42.9659628868103" lon="-0.3018450736999512">
        <ele>1401.9919775618537</ele>
        <time>2021-08-05T07:39:41.786Z</time>
      </trkpt>
      <trkpt lat="42.9660165309906" lon="-0.3018665313720703">
        <ele>1403.1167767061293</ele>
        <time>2021-08-05T07:39:45.369Z</time>
      </trkpt>
      <trkpt lat="42.96610236167908" lon="-0.3019523620605469">
        <ele>1404.2915785155508</ele>
        <time>2021-08-05T07:39:48.954Z</time>
      </trkpt>
      <trkpt lat="42.96627402305603" lon="-0.3022420406341553">
        <ele>1405.5775688442875</ele>
        <time>2021-08-05T07:39:52.543Z</time>
      </trkpt>
      <trkpt lat="42.966381311416626" lon="-0.3024673461914062">
        <ele>1407.0279654464757</ele>
        <time>2021-08-05T07:39:56.135Z</time>
      </trkpt>
      <trkpt lat="42.96647787094116" lon="-0.3026390075683594">
        <ele>1408.407220460233</ele>
        <time>2021-08-05T07:39:59.730Z</time>
      </trkpt>
      <trkpt lat="42.96655297279358" lon="-0.3027141094207764">
        <ele>1409.676365864269</ele>
        <time>2021-08-05T07:40:03.326Z</time>
      </trkpt>
      <trkpt lat="42.966649532318115" lon="-0.3027462959289551">
        <ele>1410.907655836636</ele>
        <time>2021-08-05T07:40:06.924Z</time>
      </trkpt>
      <trkpt lat="42.96683192253113" lon="-0.3027570247650146">
        <ele>1412.1430306781313</ele>
        <time>2021-08-05T07:40:10.525Z</time>
      </trkpt>
      <trkpt lat="42.96694993972778" lon="-0.3027248382568359">
        <ele>1413.2732739704043</ele>
        <time>2021-08-05T07:40:14.128Z</time>
      </trkpt>
      <trkpt lat="42.96710014343262" lon="-0.3026068210601807">
        <ele>1414.3196432692134</ele>
        <time>2021-08-05T07:40:17.733Z</time>
      </trkpt>
      <trkpt lat="42.96756156720221" lon="-0.3021347522735596">
        <ele>1415.1203289957562</ele>
        <time>2021-08-05T07:40:21.348Z</time>
      </trkpt>
      <trkpt lat="42.96770095825195" lon="-0.3020381927490234">
        <ele>1416.162072629436</ele>
        <time>2021-08-05T07:40:24.965Z</time>
      </trkpt>
      <trkpt lat="42.96778678894043" lon="-0.3019952774047852">
        <ele>1417.2285470315753</ele>
        <time>2021-08-05T07:40:28.583Z</time>
      </trkpt>
      <trkpt lat="42.967904806137085" lon="-0.301973819732666">
        <ele>1418.3496558257461</ele>
        <time>2021-08-05T07:40:32.203Z</time>
      </trkpt>
      <trkpt lat="42.96823740005493" lon="-0.3020274639129639">
        <ele>1419.914175132839</ele>
        <time>2021-08-05T07:40:35.829Z</time>
      </trkpt>
      <trkpt lat="42.96830177307129" lon="-0.3020060062408447">
        <ele>1421.0488664317381</ele>
        <time>2021-08-05T07:40:39.456Z</time>
      </trkpt>
      <trkpt lat="42.96836614608765" lon="-0.3019523620605469">
        <ele>1422.1129211685773</ele>
        <time>2021-08-05T07:40:43.084Z</time>
      </trkpt>
      <trkpt lat="42.968677282333374" lon="-0.3014910221099854">
        <ele>1422.6875302179499</ele>
        <time>2021-08-05T07:40:46.719Z</time>
      </trkpt>
      <trkpt lat="42.9689884185791" lon="-0.3012120723724365">
        <ele>1423.612839440194</ele>
        <time>2021-08-05T07:40:50.360Z</time>
      </trkpt>
      <trkpt lat="42.96977162361145" lon="-0.3005897998809814">
        <ele>1424.9386687536994</ele>
        <time>2021-08-05T07:40:54.016Z</time>
      </trkpt>
      <trkpt lat="42.969911098480225" lon="-0.3005039691925049">
        <ele>1425.839792940304</ele>
        <time>2021-08-05T07:40:57.674Z</time>
      </trkpt>
      <trkpt lat="42.96998628415167" lon="-0.3004932403564453">
        <ele>1426.7870489904567</ele>
        <time>2021-08-05T07:41:01.333Z</time>
      </trkpt>
      <trkpt lat="42.97006130218506" lon="-0.300525426864624">
        <ele>1427.7868067848776</ele>
        <time>2021-08-05T07:41:04.994Z</time>
      </trkpt>
      <trkpt lat="42.970125675201416" lon="-0.3006327152252197">
        <ele>1428.8050293513884</ele>
        <time>2021-08-05T07:41:08.656Z</time>
      </trkpt>
      <trkpt lat="42.97021150588989" lon="-0.3009653091430664">
        <ele>1430.0436416913103</ele>
        <time>2021-08-05T07:41:12.323Z</time>
      </trkpt>
      <trkpt lat="42.97027587890625" lon="-0.3011369705200195">
        <ele>1430.9981863723897</ele>
        <time>2021-08-05T07:41:15.992Z</time>
      </trkpt>
      <trkpt lat="42.970404624938965" lon="-0.3012871742248535">
        <ele>1431.9205745493246</ele>
        <time>2021-08-05T07:41:19.663Z</time>
      </trkpt>
      <trkpt lat="42.97094106674194" lon="-0.3017592430114746">
        <ele>1432.8637573008966</ele>
        <time>2021-08-05T07:41:23.345Z</time>
      </trkpt>
      <trkpt lat="42.971155643463135" lon="-0.3019201755523682">
        <ele>1433.714608574502</ele>
        <time>2021-08-05T07:41:27.031Z</time>
      </trkpt>
      <trkpt lat="42.97130584716797" lon="-0.3020811080932617">
        <ele>1434.4987159738025</ele>
        <time>2021-08-05T07:41:30.720Z</time>
      </trkpt>
      <trkpt lat="42.97147750854492" lon="-0.3023278713226318">
        <ele>1435.388931248397</ele>
        <time>2021-08-05T07:41:34.413Z</time>
      </trkpt>
      <trkpt lat="42.97172427177429" lon="-0.3028428554534912">
        <ele>1436.291507674942</ele>
        <time>2021-08-05T07:41:38.113Z</time>
      </trkpt>
      <trkpt lat="42.9720675945282" lon="-0.3034329414367676">
        <ele>1436.9885772265038</ele>
        <time>2021-08-05T07:41:41.822Z</time>
      </trkpt>
      <trkpt lat="42.97228217124939" lon="-0.3036904335021973">
        <ele>1437.6766641792374</ele>
        <time>2021-08-05T07:41:45.535Z</time>
      </trkpt>
      <trkpt lat="42.972421646118164" lon="-0.3039693832397461">
        <ele>1438.424866975997</ele>
        <time>2021-08-05T07:41:49.252Z</time>
      </trkpt>
      <trkpt lat="42.97256112098694" lon="-0.3041410446166992">
        <ele>1439.2375718553265</ele>
        <time>2021-08-05T07:41:52.972Z</time>
      </trkpt>
      <trkpt lat="42.97268986701965" lon="-0.3043448925018311">
        <ele>1440.438077925681</ele>
        <time>2021-08-05T07:41:56.695Z</time>
      </trkpt>
      <trkpt lat="42.97274351119995" lon="-0.3044092655181885">
        <ele>1441.335927190591</ele>
        <time>2021-08-05T07:42:00.420Z</time>
      </trkpt>
      <trkpt lat="42.97282934188843" lon="-0.3044521808624268">
        <ele>1442.1276545279932</ele>
        <time>2021-08-05T07:42:04.146Z</time>
      </trkpt>
      <trkpt lat="42.97300100326538" lon="-0.3044521808624268">
        <ele>1442.7824696629768</ele>
        <time>2021-08-05T07:42:07.875Z</time>
      </trkpt>
      <trkpt lat="42.973129749298096" lon="-0.3044307231903076">
        <ele>1443.3375724967302</ele>
        <time>2021-08-05T07:42:11.606Z</time>
      </trkpt>
      <trkpt lat="42.97321557998657" lon="-0.3044414520263672">
        <ele>1444.0080531808308</ele>
        <time>2021-08-05T07:42:15.338Z</time>
      </trkpt>
      <trkpt lat="42.97344088554382" lon="-0.3046238422393799">
        <ele>1444.7687702324183</ele>
        <time>2021-08-05T07:42:19.074Z</time>
      </trkpt>
      <trkpt lat="42.97351598739624" lon="-0.304645299911499">
        <ele>1445.5187760027184</ele>
        <time>2021-08-05T07:42:22.812Z</time>
      </trkpt>
      <trkpt lat="42.973676919937134" lon="-0.3046238422393799">
        <ele>1446.1362773484884</ele>
        <time>2021-08-05T07:42:26.552Z</time>
      </trkpt>
      <trkpt lat="42.97377347946167" lon="-0.304645299911499">
        <ele>1446.9422826989298</ele>
        <time>2021-08-05T07:42:30.294Z</time>
      </trkpt>
      <trkpt lat="42.97384858131409" lon="-0.3046774864196777">
        <ele>1447.9019021984939</ele>
        <time>2021-08-05T07:42:34.037Z</time>
      </trkpt>
      <trkpt lat="42.97393441200256" lon="-0.3047633171081543">
        <ele>1449.0163903565458</ele>
        <time>2021-08-05T07:42:37.782Z</time>
      </trkpt>
      <trkpt lat="42.974138259887695" lon="-0.3050744533538818">
        <ele>1450.3462400310616</ele>
        <time>2021-08-05T07:42:41.532Z</time>
      </trkpt>
      <trkpt lat="42.97427773475647" lon="-0.3052353858947754">
        <ele>1451.4553636928863</ele>
        <time>2021-08-05T07:42:45.285Z</time>
      </trkpt>
      <trkpt lat="42.974385023117065" lon="-0.3053319454193115">
        <ele>1452.3899029029103</ele>
        <time>2021-08-05T07:42:49.040Z</time>
      </trkpt>
      <trkpt lat="42.974610328674316" lon="-0.3054821491241455">
        <ele>1453.3744979981743</ele>
        <time>2021-08-05T07:42:52.799Z</time>
      </trkpt>
      <trkpt lat="42.97474980354309" lon="-0.3056645393371582">
        <ele>1454.6308689518587</ele>
        <time>2021-08-05T07:42:56.561Z</time>
      </trkpt>
      <trkpt lat="42.97479271888733" lon="-0.3057610988616943">
        <ele>1455.913195103301</ele>
        <time>2021-08-05T07:43:00.324Z</time>
      </trkpt>
      <trkpt lat="42.97481417655945" lon="-0.3059864044189453">
        <ele>1457.2968232815647</ele>
        <time>2021-08-05T07:43:04.090Z</time>
      </trkpt>
      <trkpt lat="42.974674701690674" lon="-0.3072202205657959">
        <ele>1458.8799565390086</ele>
        <time>2021-08-05T07:43:07.870Z</time>
      </trkpt>
      <trkpt lat="42.974621057510376" lon="-0.3074777126312256">
        <ele>1460.3978757465025</ele>
        <time>2021-08-05T07:43:11.654Z</time>
      </trkpt>
      <trkpt lat="42.9745352268219" lon="-0.3076708316802979">
        <ele>1462.1141401865775</ele>
        <time>2021-08-05T07:43:15.440Z</time>
      </trkpt>
      <trkpt lat="42.9744815826416" lon="-0.3077995777130127">
        <ele>1463.7913261233098</ele>
        <time>2021-08-05T07:43:19.228Z</time>
      </trkpt>
      <trkpt lat="42.97446012496948" lon="-0.307917594909668">
        <ele>1465.4511144844803</ele>
        <time>2021-08-05T07:43:23.017Z</time>
      </trkpt>
      <trkpt lat="42.9744815826416" lon="-0.3080141544342041">
        <ele>1467.05974041521</ele>
        <time>2021-08-05T07:43:26.808Z</time>
      </trkpt>
      <trkpt lat="42.974674701690674" lon="-0.3084433078765869">
        <ele>1468.7439873219596</ele>
        <time>2021-08-05T07:43:30.604Z</time>
      </trkpt>
      <trkpt lat="42.97483563423157" lon="-0.3087222576141357">
        <ele>1470.4075352210482</ele>
        <time>2021-08-05T07:43:34.405Z</time>
      </trkpt>
      <trkpt lat="42.974910819903016" lon="-0.3087973594665527">
        <ele>1471.9754285931049</ele>
        <time>2021-08-05T07:43:38.207Z</time>
      </trkpt>
      <trkpt lat="42.974910736083984" lon="-0.3087973594665527">
        <ele>1473.6778862250997</ele>
        <time>2021-08-05T07:43:42.009Z</time>
      </trkpt>
      <trkpt lat="42.97524333000183" lon="-0.3091299533843994">
        <ele>1475.4200706363972</ele>
        <time>2021-08-05T07:43:45.818Z</time>
      </trkpt>
      <trkpt lat="42.97558665275574" lon="-0.3097414970397949">
        <ele>1477.4483672294782</ele>
        <time>2021-08-05T07:43:49.636Z</time>
      </trkpt>
      <trkpt lat="42.976112365722656" lon="-0.3103530406951904">
        <ele>1479.067003901249</ele>
        <time>2021-08-05T07:43:53.465Z</time>
      </trkpt>
      <trkpt lat="42.976144552230835" lon="-0.3104496002197266">
        <ele>1480.9206815445596</ele>
        <time>2021-08-05T07:43:57.295Z</time>
      </trkpt>
      <trkpt lat="42.976166009902954" lon="-0.3106105327606201">
        <ele>1482.8020743589123</ele>
        <time>2021-08-05T07:44:01.127Z</time>
      </trkpt>
      <trkpt lat="42.976166009902954" lon="-0.3108251094818115">
        <ele>1484.6443981355692</ele>
        <time>2021-08-05T07:44:04.962Z</time>
      </trkpt>
      <trkpt lat="42.97603726387024" lon="-0.3114795684814453">
        <ele>1486.70772185972</ele>
        <time>2021-08-05T07:44:08.805Z</time>
      </trkpt>
      <trkpt lat="42.975876331329346" lon="-0.312187671661377">
        <ele>1488.6450623045405</ele>
        <time>2021-08-05T07:44:12.656Z</time>
      </trkpt>
      <trkpt lat="42.97573685646057" lon="-0.3125309944152832">
        <ele>1490.865453207026</ele>
        <time>2021-08-05T07:44:16.512Z</time>
      </trkpt>
      <trkpt lat="42.975661754608154" lon="-0.3127562999725342">
        <ele>1492.9083035417575</ele>
        <time>2021-08-05T07:44:20.371Z</time>
      </trkpt>
      <trkpt lat="42.975618839263916" lon="-0.3129494190216064">
        <ele>1494.7994906680756</ele>
        <time>2021-08-05T07:44:24.232Z</time>
      </trkpt>
      <trkpt lat="42.975651025772095" lon="-0.3131961822509766">
        <ele>1496.4596470696606</ele>
        <time>2021-08-05T07:44:28.096Z</time>
      </trkpt>
      <trkpt lat="42.97573685646057" lon="-0.3135073184967041">
        <ele>1498.0723125643206</ele>
        <time>2021-08-05T07:44:31.964Z</time>
      </trkpt>
      <trkpt lat="42.97568321228027" lon="-0.3142046928405762">
        <ele>1500.1199126048446</ele>
        <time>2021-08-05T07:44:35.840Z</time>
      </trkpt>
      <trkpt lat="42.975651025772095" lon="-0.3143763542175293">
        <ele>1502.073197104783</ele>
        <time>2021-08-05T07:44:39.718Z</time>
      </trkpt>
      <trkpt lat="42.97557592391968" lon="-0.3144943714141846">
        <ele>1504.096364112137</ele>
        <time>2021-08-05T07:44:43.598Z</time>
      </trkpt>
      <trkpt lat="42.97553300857544" lon="-0.3146231174468994">
        <ele>1505.9433413167508</ele>
        <time>2021-08-05T07:44:47.480Z</time>
      </trkpt>
      <trkpt lat="42.97553300857544" lon="-0.3146874904632568">
        <ele>1507.5934470301604</ele>
        <time>2021-08-05T07:44:51.363Z</time>
      </trkpt>
      <trkpt lat="42.975618839263916" lon="-0.31485915184021">
        <ele>1508.895677178333</ele>
        <time>2021-08-05T07:44:55.248Z</time>
      </trkpt>
      <trkpt lat="42.975640296936035" lon="-0.3150415420532227">
        <ele>1510.4676453737836</ele>
        <time>2021-08-05T07:44:59.135Z</time>
      </trkpt>
      <trkpt lat="42.975651025772095" lon="-0.3155779838562012">
        <ele>1512.1084226641337</ele>
        <time>2021-08-05T07:45:03.028Z</time>
      </trkpt>
      <trkpt lat="42.97570466995239" lon="-0.3164577484130859">
        <ele>1513.5378533076146</ele>
        <time>2021-08-05T07:45:06.932Z</time>
      </trkpt>
      <trkpt lat="42.97569394111633" lon="-0.3167366981506348">
        <ele>1515.0150350081224</ele>
        <time>2021-08-05T07:45:10.839Z</time>
      </trkpt>
      <trkpt lat="42.975651025772095" lon="-0.317004919052124">
        <ele>1516.5929663961556</ele>
        <time>2021-08-05T07:45:14.749Z</time>
      </trkpt>
      <trkpt lat="42.97555446624756" lon="-0.3173160552978516">
        <ele>1518.2117579541014</ele>
        <time>2021-08-05T07:45:18.663Z</time>
      </trkpt>
      <trkpt lat="42.975361347198486" lon="-0.3176379203796387">
        <ele>1520.0092657376485</ele>
        <time>2021-08-05T07:45:22.582Z</time>
      </trkpt>
      <trkpt lat="42.97505021095276" lon="-0.3178739547729492">
        <ele>1521.7145719316127</ele>
        <time>2021-08-05T07:45:26.507Z</time>
      </trkpt>
      <trkpt lat="42.974621057510376" lon="-0.3180885314941406">
        <ele>1523.4297728093866</ele>
        <time>2021-08-05T07:45:30.439Z</time>
      </trkpt>
      <trkpt lat="42.97452449798584" lon="-0.3181958198547363">
        <ele>1524.8653365136893</ele>
        <time>2021-08-05T07:45:34.373Z</time>
      </trkpt>
      <trkpt lat="42.9744815826416" lon="-0.3182709217071533">
        <ele>1526.3436749153366</ele>
        <time>2021-08-05T07:45:38.308Z</time>
      </trkpt>
      <trkpt lat="42.974427938461304" lon="-0.3183245658874512">
        <ele>1527.9495826082934</ele>
        <time>2021-08-05T07:45:42.244Z</time>
      </trkpt>
      <trkpt lat="42.974374294281006" lon="-0.3183245658874512">
        <ele>1529.7295035261122</ele>
        <time>2021-08-05T07:45:46.181Z</time>
      </trkpt>
      <trkpt lat="42.974170446395874" lon="-0.3182601928710938">
        <ele>1531.835331535748</ele>
        <time>2021-08-05T07:45:50.122Z</time>
      </trkpt>
      <trkpt lat="42.973923683166504" lon="-0.3181958198547363">
        <ele>1534.0665641445605</ele>
        <time>2021-08-05T07:45:54.067Z</time>
      </trkpt>
      <trkpt lat="42.97374129295349" lon="-0.3181850910186768">
        <ele>1536.1147848066437</ele>
        <time>2021-08-05T07:45:58.014Z</time>
      </trkpt>
      <trkpt lat="42.97332286834717" lon="-0.3180241584777832">
        <ele>1538.5500210287535</ele>
        <time>2021-08-05T07:46:01.968Z</time>
      </trkpt>
      <trkpt lat="42.97282934188843" lon="-0.3180241584777832">
        <ele>1540.636429131971</ele>
        <time>2021-08-05T07:46:05.930Z</time>
      </trkpt>
      <trkpt lat="42.972636222839355" lon="-0.3180885314941406">
        <ele>1542.739909677151</ele>
        <time>2021-08-05T07:46:09.896Z</time>
      </trkpt>
      <trkpt lat="42.97258257865906" lon="-0.3181421756744385">
        <ele>1544.741745362532</ele>
        <time>2021-08-05T07:46:13.863Z</time>
      </trkpt>
      <trkpt lat="42.97253966331482" lon="-0.3182172775268555">
        <ele>1546.6935987316986</ele>
        <time>2021-08-05T07:46:17.831Z</time>
      </trkpt>
      <trkpt lat="42.972421646118164" lon="-0.3189682960510254">
        <ele>1548.5898709615067</ele>
        <time>2021-08-05T07:46:21.808Z</time>
      </trkpt>
      <trkpt lat="42.972368001937866" lon="-0.3195154666900635">
        <ele>1550.3539846437466</ele>
        <time>2021-08-05T07:46:25.791Z</time>
      </trkpt>
      <trkpt lat="42.97224998474121" lon="-0.320277214050293">
        <ele>1552.3730491857364</ele>
        <time>2021-08-05T07:46:29.783Z</time>
      </trkpt>
      <trkpt lat="42.97223925590515" lon="-0.3205132484436035">
        <ele>1554.18801215153</ele>
        <time>2021-08-05T07:46:33.778Z</time>
      </trkpt>
      <trkpt lat="42.97227144241333" lon="-0.3207921981811523">
        <ele>1555.9877515400563</ele>
        <time>2021-08-05T07:46:37.776Z</time>
      </trkpt>
      <trkpt lat="42.97227144241333" lon="-0.3209102153778076">
        <ele>1557.7885026876631</ele>
        <time>2021-08-05T07:46:41.776Z</time>
      </trkpt>
      <trkpt lat="42.97220706939697" lon="-0.3211677074432373">
        <ele>1559.7647455778874</ele>
        <time>2021-08-05T07:46:45.779Z</time>
      </trkpt>
      <trkpt lat="42.972153425216675" lon="-0.3213179111480713">
        <ele>1561.6268917816105</ele>
        <time>2021-08-05T07:46:49.784Z</time>
      </trkpt>
      <trkpt lat="42.97193884849548" lon="-0.3217470645904541">
        <ele>1563.3092973599967</ele>
        <time>2021-08-05T07:46:53.795Z</time>
      </trkpt>
      <trkpt lat="42.97185301780701" lon="-0.3220045566558838">
        <ele>1564.9220530796913</ele>
        <time>2021-08-05T07:46:57.809Z</time>
      </trkpt>
      <trkpt lat="42.97177791595459" lon="-0.3221225738525391">
        <ele>1566.6377801217855</ele>
        <time>2021-08-05T07:47:01.825Z</time>
      </trkpt>
      <trkpt lat="42.97146677970886" lon="-0.3223264217376709">
        <ele>1569.0210822835224</ele>
        <time>2021-08-05T07:47:05.847Z</time>
      </trkpt>
      <trkpt lat="42.971413135528564" lon="-0.3224122524261475">
        <ele>1570.647789364477</ele>
        <time>2021-08-05T07:47:09.870Z</time>
      </trkpt>
      <trkpt lat="42.97135949134827" lon="-0.3226375579833984">
        <ele>1572.0179199795152</ele>
        <time>2021-08-05T07:47:13.896Z</time>
      </trkpt>
      <trkpt lat="42.97134876251221" lon="-0.3227555751800537">
        <ele>1573.3484601511518</ele>
        <time>2021-08-05T07:47:17.923Z</time>
      </trkpt>
      <trkpt lat="42.97135949134827" lon="-0.322873592376709">
        <ele>1574.6966030465346</ele>
        <time>2021-08-05T07:47:21.952Z</time>
      </trkpt>
      <trkpt lat="42.971434593200684" lon="-0.3230881690979004">
        <ele>1575.7218102801387</ele>
        <time>2021-08-05T07:47:25.983Z</time>
      </trkpt>
      <trkpt lat="42.97144532203674" lon="-0.3232061862945557">
        <ele>1577.041615035985</ele>
        <time>2021-08-05T07:47:30.016Z</time>
      </trkpt>
      <trkpt lat="42.971423864364624" lon="-0.3233456611633301">
        <ele>1578.3683246154628</ele>
        <time>2021-08-05T07:47:34.051Z</time>
      </trkpt>
      <trkpt lat="42.971370220184326" lon="-0.3235495090484619">
        <ele>1579.7116269960043</ele>
        <time>2021-08-05T07:47:38.088Z</time>
      </trkpt>
      <trkpt lat="42.97129511833191" lon="-0.3236889839172363">
        <ele>1580.9963699786072</ele>
        <time>2021-08-05T07:47:42.127Z</time>
      </trkpt>
      <trkpt lat="42.97122001647949" lon="-0.3237640857696533">
        <ele>1582.2576404632919</ele>
        <time>2021-08-05T07:47:46.168Z</time>
      </trkpt>
      <trkpt lat="42.97098398208618" lon="-0.3239035606384277">
        <ele>1583.738923665442</ele>
        <time>2021-08-05T07:47:50.213Z</time>
      </trkpt>
      <trkpt lat="42.970919609069824" lon="-0.3239893913269043">
        <ele>1584.8717241153777</ele>
        <time>2021-08-05T07:47:54.259Z</time>
      </trkpt>
      <trkpt lat="42.970876693725586" lon="-0.3240966796875">
        <ele>1585.9282035992874</ele>
        <time>2021-08-05T07:47:58.307Z</time>
      </trkpt>
      <trkpt lat="42.970876693725586" lon="-0.3242146968841553">
        <ele>1586.9366888915324</ele>
        <time>2021-08-05T07:48:02.356Z</time>
      </trkpt>
      <trkpt lat="42.97096252441406" lon="-0.3243541717529297">
        <ele>1587.949826770166</ele>
        <time>2021-08-05T07:48:06.407Z</time>
      </trkpt>
      <trkpt lat="42.97129511833191" lon="-0.3246009349822998">
        <ele>1588.7930401222573</ele>
        <time>2021-08-05T07:48:10.464Z</time>
      </trkpt>
      <trkpt lat="42.971423864364624" lon="-0.3246331214904785">
        <ele>1589.655942159459</ele>
        <time>2021-08-05T07:48:14.523Z</time>
      </trkpt>
      <trkpt lat="42.97157406806946" lon="-0.3246223926544189">
        <ele>1590.4565709982273</ele>
        <time>2021-08-05T07:48:18.585Z</time>
      </trkpt>
      <trkpt lat="42.97181010246277" lon="-0.3246974945068359">
        <ele>1591.238935721546</ele>
        <time>2021-08-05T07:48:22.651Z</time>
      </trkpt>
      <trkpt lat="42.97222852706909" lon="-0.3246760368347168">
        <ele>1592.160667134042</ele>
        <time>2021-08-05T07:48:26.723Z</time>
      </trkpt>
      <trkpt lat="42.97230362892151" lon="-0.3247189521789551">
        <ele>1593.1617748379813</ele>
        <time>2021-08-05T07:48:30.797Z</time>
      </trkpt>
      <trkpt lat="42.972389459609985" lon="-0.3248262405395508">
        <ele>1594.2059504286153</ele>
        <time>2021-08-05T07:48:34.872Z</time>
      </trkpt>
      <trkpt lat="42.97244310379028" lon="-0.3249228000640869">
        <ele>1595.2437466574736</ele>
        <time>2021-08-05T07:48:38.949Z</time>
      </trkpt>
      <trkpt lat="42.97248601913452" lon="-0.3250837326049805">
        <ele>1596.3768747233325</ele>
        <time>2021-08-05T07:48:43.028Z</time>
      </trkpt>
      <trkpt lat="42.97249674797058" lon="-0.3252661228179932">
        <ele>1597.504926357828</ele>
        <time>2021-08-05T07:48:47.109Z</time>
      </trkpt>
      <trkpt lat="42.9724645614624" lon="-0.3254163265228271">
        <ele>1598.6429130097727</ele>
        <time>2021-08-05T07:48:51.192Z</time>
      </trkpt>
      <trkpt lat="42.97238954342902" lon="-0.325620174407959">
        <ele>1599.8564757376844</ele>
        <time>2021-08-05T07:48:55.278Z</time>
      </trkpt>
      <trkpt lat="42.972389459609985" lon="-0.325620174407959">
        <ele>1600.9369627880296</ele>
        <time>2021-08-05T07:48:59.364Z</time>
      </trkpt>
      <trkpt lat="42.97223925590515" lon="-0.3258132934570312">
        <ele>1602.2198446938046</ele>
        <time>2021-08-05T07:49:03.453Z</time>
      </trkpt>
      <trkpt lat="42.971906661987305" lon="-0.3260707855224609">
        <ele>1603.5265819731214</ele>
        <time>2021-08-05T07:49:07.548Z</time>
      </trkpt>
      <trkpt lat="42.97178864479065" lon="-0.3261995315551758">
        <ele>1604.7556453945206</ele>
        <time>2021-08-05T07:49:11.645Z</time>
      </trkpt>
      <trkpt lat="42.97133803367615" lon="-0.3269612789154053">
        <ele>1605.872898992207</ele>
        <time>2021-08-05T07:49:15.754Z</time>
      </trkpt>
      <trkpt lat="42.97122001647949" lon="-0.3271973133087158">
        <ele>1607.1741022246142</ele>
        <time>2021-08-05T07:49:19.866Z</time>
      </trkpt>
      <trkpt lat="42.971177101135254" lon="-0.3273904323577881">
        <ele>1608.5548645375047</ele>
        <time>2021-08-05T07:49:23.981Z</time>
      </trkpt>
      <trkpt lat="42.971177101135254" lon="-0.3275191783905029">
        <ele>1609.8812759430948</ele>
        <time>2021-08-05T07:49:28.097Z</time>
      </trkpt>
      <trkpt lat="42.97123074531555" lon="-0.3276908397674561">
        <ele>1611.2853001899662</ele>
        <time>2021-08-05T07:49:32.215Z</time>
      </trkpt>
      <trkpt lat="42.97133803367615" lon="-0.3278732299804688">
        <ele>1612.6787620134858</ele>
        <time>2021-08-05T07:49:36.336Z</time>
      </trkpt>
      <trkpt lat="42.97148823738098" lon="-0.3280448913574219">
        <ele>1614.0501303347783</ele>
        <time>2021-08-05T07:49:40.460Z</time>
      </trkpt>
      <trkpt lat="42.97155261039734" lon="-0.3281521797180176">
        <ele>1615.5105075208248</ele>
        <time>2021-08-05T07:49:44.586Z</time>
      </trkpt>
      <trkpt lat="42.9715633392334" lon="-0.3282487392425537">
        <ele>1617.0777317138204</ele>
        <time>2021-08-05T07:49:48.713Z</time>
      </trkpt>
      <trkpt lat="42.97155261039734" lon="-0.3283560276031494">
        <ele>1618.6895666435807</ele>
        <time>2021-08-05T07:49:52.841Z</time>
      </trkpt>
      <trkpt lat="42.97147750854492" lon="-0.3286027908325195">
        <ele>1620.3967730616023</ele>
        <time>2021-08-05T07:49:56.972Z</time>
      </trkpt>
      <trkpt lat="42.97147750854492" lon="-0.3287100791931152">
        <ele>1622.0336064417859</ele>
        <time>2021-08-05T07:50:01.105Z</time>
      </trkpt>
      <trkpt lat="42.97152042388916" lon="-0.3290319442749023">
        <ele>1623.7338236502414</ele>
        <time>2021-08-05T07:50:05.241Z</time>
      </trkpt>
      <trkpt lat="42.971659982576966" lon="-0.3297507762908936">
        <ele>1625.858984557804</ele>
        <time>2021-08-05T07:50:09.386Z</time>
      </trkpt>
      <trkpt lat="42.971659898757935" lon="-0.3297507762908936">
        <ele>1627.6845869597082</ele>
        <time>2021-08-05T07:50:13.531Z</time>
      </trkpt>
      <trkpt lat="42.97177791595459" lon="-0.3301370143890381">
        <ele>1629.5695309566959</ele>
        <time>2021-08-05T07:50:17.681Z</time>
      </trkpt>
      <trkpt lat="42.971917390823364" lon="-0.3303945064544678">
        <ele>1631.4978908567812</ele>
        <time>2021-08-05T07:50:21.835Z</time>
      </trkpt>
      <trkpt lat="42.97205686569214" lon="-0.3307056427001953">
        <ele>1633.5508753064082</ele>
        <time>2021-08-05T07:50:25.993Z</time>
      </trkpt>
      <trkpt lat="42.97220706939697" lon="-0.3309202194213867">
        <ele>1635.5689364733792</ele>
        <time>2021-08-05T07:50:30.155Z</time>
      </trkpt>
      <trkpt lat="42.97223925590515" lon="-0.3310060501098633">
        <ele>1637.6742363353235</ele>
        <time>2021-08-05T07:50:34.318Z</time>
      </trkpt>
      <trkpt lat="42.97224998474121" lon="-0.3311240673065186">
        <ele>1639.8719572443053</ele>
        <time>2021-08-05T07:50:38.482Z</time>
      </trkpt>
      <trkpt lat="42.972164154052734" lon="-0.3315317630767822">
        <ele>1642.3649181728374</ele>
        <time>2021-08-05T07:50:42.651Z</time>
      </trkpt>
      <trkpt lat="42.972153425216675" lon="-0.3316926956176758">
        <ele>1644.715266419023</ele>
        <time>2021-08-05T07:50:46.822Z</time>
      </trkpt>
      <trkpt lat="42.972164154052734" lon="-0.3318750858306885">
        <ele>1647.1309504829128</ele>
        <time>2021-08-05T07:50:50.995Z</time>
      </trkpt>
      <trkpt lat="42.97223925590515" lon="-0.3319931030273438">
        <ele>1649.4257570945188</ele>
        <time>2021-08-05T07:50:55.170Z</time>
      </trkpt>
      <trkpt lat="42.97234654426575" lon="-0.3320467472076416">
        <ele>1651.746648795649</ele>
        <time>2021-08-05T07:50:59.347Z</time>
      </trkpt>
      <trkpt lat="42.97259330749512" lon="-0.3319716453552246">
        <ele>1653.9298945971727</ele>
        <time>2021-08-05T07:51:03.528Z</time>
      </trkpt>
      <trkpt lat="42.97278642654419" lon="-0.3319501876831055">
        <ele>1656.2450538424148</ele>
        <time>2021-08-05T07:51:07.712Z</time>
      </trkpt>
      <trkpt lat="42.97294735908508" lon="-0.3319716453552246">
        <ele>1658.669574493858</ele>
        <time>2021-08-05T07:51:11.899Z</time>
      </trkpt>
      <trkpt lat="42.973119020462036" lon="-0.3320145606994629">
        <ele>1661.2171425041836</ele>
        <time>2021-08-05T07:51:16.088Z</time>
      </trkpt>
      <trkpt lat="42.97335505485535" lon="-0.3321218490600586">
        <ele>1663.7786444857225</ele>
        <time>2021-08-05T07:51:20.281Z</time>
      </trkpt>
      <trkpt lat="42.973676919937134" lon="-0.3324222564697266">
        <ele>1666.533630624253</ele>
        <time>2021-08-05T07:51:24.481Z</time>
      </trkpt>
      <trkpt lat="42.97393441200256" lon="-0.3327333927154541">
        <ele>1669.0153565619232</ele>
        <time>2021-08-05T07:51:28.686Z</time>
      </trkpt>
      <trkpt lat="42.9740846157074" lon="-0.3330874443054199">
        <ele>1671.505101124905</ele>
        <time>2021-08-05T07:51:32.896Z</time>
      </trkpt>
      <trkpt lat="42.974363565444946" lon="-0.3339242935180664">
        <ele>1674.1758765933728</ele>
        <time>2021-08-05T07:51:37.117Z</time>
      </trkpt>
      <trkpt lat="42.97444939613342" lon="-0.3341174125671387">
        <ele>1676.5381969374591</ele>
        <time>2021-08-05T07:51:41.340Z</time>
      </trkpt>
      <trkpt lat="42.97471761703491" lon="-0.3344285488128662">
        <ele>1678.7499810170948</ele>
        <time>2021-08-05T07:51:45.569Z</time>
      </trkpt>
      <trkpt lat="42.97485709190369" lon="-0.3346431255340576">
        <ele>1680.961402040528</ele>
        <time>2021-08-05T07:51:49.801Z</time>
      </trkpt>
      <trkpt lat="42.974921464920044" lon="-0.3348469734191895">
        <ele>1683.2135889474876</ele>
        <time>2021-08-05T07:51:54.036Z</time>
      </trkpt>
      <trkpt lat="42.97499656677246" lon="-0.3350937366485596">
        <ele>1685.3791947004916</ele>
        <time>2021-08-05T07:51:58.274Z</time>
      </trkpt>
      <trkpt lat="42.97506093978882" lon="-0.3355443477630615">
        <ele>1687.653970803633</ele>
        <time>2021-08-05T07:52:02.517Z</time>
      </trkpt>
      <trkpt lat="42.975146770477295" lon="-0.3362953662872314">
        <ele>1689.8760895111686</ele>
        <time>2021-08-05T07:52:06.769Z</time>
      </trkpt>
      <trkpt lat="42.975146770477295" lon="-0.33683180809021">
        <ele>1691.9986838937166</ele>
        <time>2021-08-05T07:52:11.028Z</time>
      </trkpt>
      <trkpt lat="42.97521114349365" lon="-0.3371000289916992">
        <ele>1694.0196603737886</ele>
        <time>2021-08-05T07:52:15.290Z</time>
      </trkpt>
      <trkpt lat="42.97529697418213" lon="-0.3372502326965332">
        <ele>1695.8248431967158</ele>
        <time>2021-08-05T07:52:19.554Z</time>
      </trkpt>
      <trkpt lat="42.975404262542725" lon="-0.3373897075653076">
        <ele>1697.4692414367732</ele>
        <time>2021-08-05T07:52:23.821Z</time>
      </trkpt>
      <trkpt lat="42.97606945037842" lon="-0.3379368782043457">
        <ele>1698.859959820229</ele>
        <time>2021-08-05T07:52:28.100Z</time>
      </trkpt>
      <trkpt lat="42.976176738739014" lon="-0.3381085395812988">
        <ele>1700.2226581291893</ele>
        <time>2021-08-05T07:52:32.382Z</time>
      </trkpt>
      <trkpt lat="42.97626256942749" lon="-0.3383338451385498">
        <ele>1701.4879209551414</ele>
        <time>2021-08-05T07:52:36.667Z</time>
      </trkpt>
      <trkpt lat="42.976380586624146" lon="-0.338902473449707">
        <ele>1702.792580049714</ele>
        <time>2021-08-05T07:52:40.959Z</time>
      </trkpt>
      <trkpt lat="42.976423501968384" lon="-0.3390312194824219">
        <ele>1703.681260577754</ele>
        <time>2021-08-05T07:52:45.252Z</time>
      </trkpt>
      <trkpt lat="42.976627349853516" lon="-0.339503288269043">
        <ele>1704.5237369630986</ele>
        <time>2021-08-05T07:52:49.552Z</time>
      </trkpt>
      <trkpt lat="42.976627349853516" lon="-0.3396427631378174">
        <ele>1705.1226025735943</ele>
        <time>2021-08-05T07:52:53.853Z</time>
      </trkpt>
      <trkpt lat="42.97657370567322" lon="-0.3397929668426514">
        <ele>1705.5313179790141</ele>
        <time>2021-08-05T07:52:58.156Z</time>
      </trkpt>
      <trkpt lat="42.97652006149292" lon="-0.3398895263671875">
        <ele>1705.7758222805905</ele>
        <time>2021-08-05T07:53:02.461Z</time>
      </trkpt>
      <trkpt lat="42.97634840011597" lon="-0.3401899337768555">
        <ele>1705.7488854276044</ele>
        <time>2021-08-05T07:53:06.770Z</time>
      </trkpt>
      <trkpt lat="42.97628402709961" lon="-0.340425968170166">
        <ele>1705.5839050162472</ele>
        <time>2021-08-05T07:53:11.082Z</time>
      </trkpt>
      <trkpt lat="42.97627329826355" lon="-0.3407371044158936">
        <ele>1705.2597634397443</ele>
        <time>2021-08-05T07:53:15.398Z</time>
      </trkpt>
      <trkpt lat="42.97630548477173" lon="-0.3410160541534424">
        <ele>1704.8459288345166</ele>
        <time>2021-08-05T07:53:19.717Z</time>
      </trkpt>
      <trkpt lat="42.976391315460205" lon="-0.3412842750549316">
        <ele>1704.356073828157</ele>
        <time>2021-08-05T07:53:24.040Z</time>
      </trkpt>
      <trkpt lat="42.97652006149292" lon="-0.3415417671203613">
        <ele>1703.7203653419933</ele>
        <time>2021-08-05T07:53:28.366Z</time>
      </trkpt>
      <trkpt lat="42.97679901123047" lon="-0.3418958187103271">
        <ele>1702.8428270937368</ele>
        <time>2021-08-05T07:53:32.698Z</time>
      </trkpt>
      <trkpt lat="42.976906299591064" lon="-0.3420674800872803">
        <ele>1701.9315144602274</ele>
        <time>2021-08-05T07:53:37.033Z</time>
      </trkpt>
      <trkpt lat="42.97698140144348" lon="-0.3423142433166504">
        <ele>1700.83599724253</ele>
        <time>2021-08-05T07:53:41.371Z</time>
      </trkpt>
      <trkpt lat="42.97709941864014" lon="-0.3429150581359863">
        <ele>1699.4030703811004</ele>
        <time>2021-08-05T07:53:45.716Z</time>
      </trkpt>
      <trkpt lat="42.977153062820435" lon="-0.3430652618408203">
        <ele>1698.1170109683574</ele>
        <time>2021-08-05T07:53:50.063Z</time>
      </trkpt>
      <trkpt lat="42.97723889350891" lon="-0.343172550201416">
        <ele>1696.7721344110857</ele>
        <time>2021-08-05T07:53:54.412Z</time>
      </trkpt>
      <trkpt lat="42.97734618186951" lon="-0.3432154655456543">
        <ele>1695.4007116839034</ele>
        <time>2021-08-05T07:53:58.763Z</time>
      </trkpt>
      <trkpt lat="42.97747492790222" lon="-0.3432369232177734">
        <ele>1693.8893001698605</ele>
        <time>2021-08-05T07:54:03.116Z</time>
      </trkpt>
      <trkpt lat="42.97775387763977" lon="-0.3431296348571777">
        <ele>1692.3433840778328</ele>
        <time>2021-08-05T07:54:07.474Z</time>
      </trkpt>
      <trkpt lat="42.977871894836426" lon="-0.343022346496582">
        <ele>1690.7182723234457</ele>
        <time>2021-08-05T07:54:11.834Z</time>
      </trkpt>
      <trkpt lat="42.9780650138855" lon="-0.3427863121032715">
        <ele>1689.1935959763723</ele>
        <time>2021-08-05T07:54:16.198Z</time>
      </trkpt>
      <trkpt lat="42.97819375991821" lon="-0.3427433967590332">
        <ele>1687.3264672172404</ele>
        <time>2021-08-05T07:54:20.564Z</time>
      </trkpt>
      <trkpt lat="42.97849416732788" lon="-0.3427863121032715">
        <ele>1685.059430245267</ele>
        <time>2021-08-05T07:54:24.935Z</time>
      </trkpt>
      <trkpt lat="42.978869676589966" lon="-0.3427326679229736">
        <ele>1683.059663185999</ele>
        <time>2021-08-05T07:54:29.312Z</time>
      </trkpt>
      <trkpt lat="42.97894477844238" lon="-0.3427970409393311">
        <ele>1680.993390138426</ele>
        <time>2021-08-05T07:54:33.691Z</time>
      </trkpt>
      <trkpt lat="42.97897696495056" lon="-0.3428828716278076">
        <ele>1678.8640285368067</ele>
        <time>2021-08-05T07:54:38.071Z</time>
      </trkpt>
      <trkpt lat="42.97897704876959" lon="-0.3430008888244629">
        <ele>1676.6404912043577</ele>
        <time>2021-08-05T07:54:42.452Z</time>
      </trkpt>
      <trkpt lat="42.978891134262085" lon="-0.343097448348999">
        <ele>1674.3653829940547</ele>
        <time>2021-08-05T07:54:46.835Z</time>
      </trkpt>
      <trkpt lat="42.97874093055725" lon="-0.343097448348999">
        <ele>1672.1180326112199</ele>
        <time>2021-08-05T07:54:51.220Z</time>
      </trkpt>
      <trkpt lat="42.97852635383606" lon="-0.3430008888244629">
        <ele>1670.1367262658187</ele>
        <time>2021-08-05T07:54:55.609Z</time>
      </trkpt>
      <trkpt lat="42.978376150131226" lon="-0.3430008888244629">
        <ele>1668.0451494054828</ele>
        <time>2021-08-05T07:55:00.000Z</time>
      </trkpt>
      <trkpt lat="42.97823667526245" lon="-0.3430652618408203">
        <ele>1665.858007321176</ele>
        <time>2021-08-05T07:55:04.394Z</time>
      </trkpt>
      <trkpt lat="42.978161573410034" lon="-0.3431618213653564">
        <ele>1663.5352793021798</ele>
        <time>2021-08-05T07:55:08.789Z</time>
      </trkpt>
      <trkpt lat="42.97807574272156" lon="-0.343548059463501">
        <ele>1660.9501597903213</ele>
        <time>2021-08-05T07:55:13.189Z</time>
      </trkpt>
      <trkpt lat="42.97777533531189" lon="-0.3442025184631348">
        <ele>1658.4685686191883</ele>
        <time>2021-08-05T07:55:17.598Z</time>
      </trkpt>
      <trkpt lat="42.97748565673828" lon="-0.3446316719055176">
        <ele>1655.9595936027579</ele>
        <time>2021-08-05T07:55:22.014Z</time>
      </trkpt>
      <trkpt lat="42.97727108001709" lon="-0.3450930118560791">
        <ele>1653.4412752893077</ele>
        <time>2021-08-05T07:55:26.436Z</time>
      </trkpt>
      <trkpt lat="42.977153062820435" lon="-0.3452324867248535">
        <ele>1651.0148097717897</ele>
        <time>2021-08-05T07:55:30.861Z</time>
      </trkpt>
      <trkpt lat="42.9769492149353" lon="-0.3453397750854492">
        <ele>1648.4962677608928</ele>
        <time>2021-08-05T07:55:35.289Z</time>
      </trkpt>
      <trkpt lat="42.97682046890259" lon="-0.3453290462493896">
        <ele>1646.1045962654423</ele>
        <time>2021-08-05T07:55:39.719Z</time>
      </trkpt>
      <trkpt lat="42.9766058921814" lon="-0.3452432155609131">
        <ele>1643.7819749406844</ele>
        <time>2021-08-05T07:55:44.153Z</time>
      </trkpt>
      <trkpt lat="42.97645568847656" lon="-0.3451251983642578">
        <ele>1641.5453126842344</ele>
        <time>2021-08-05T07:55:48.590Z</time>
      </trkpt>
      <trkpt lat="42.97635921277106" lon="-0.3450071811676025">
        <ele>1639.3628743681256</ele>
        <time>2021-08-05T07:55:53.029Z</time>
      </trkpt>
      <trkpt lat="42.97626256942749" lon="-0.3448784351348877">
        <ele>1637.2284534414475</ele>
        <time>2021-08-05T07:55:57.470Z</time>
      </trkpt>
      <trkpt lat="42.976166009902954" lon="-0.3448355197906494">
        <ele>1635.0817875160428</ele>
        <time>2021-08-05T07:56:01.913Z</time>
      </trkpt>
      <trkpt lat="42.97609090805054" lon="-0.3448569774627686">
        <ele>1632.9040051246477</ele>
        <time>2021-08-05T07:56:06.357Z</time>
      </trkpt>
      <trkpt lat="42.97598361968994" lon="-0.3449857234954834">
        <ele>1630.6473499984374</ele>
        <time>2021-08-05T07:56:10.803Z</time>
      </trkpt>
      <trkpt lat="42.975876331329346" lon="-0.3451895713806152">
        <ele>1628.4176243611505</ele>
        <time>2021-08-05T07:56:15.252Z</time>
      </trkpt>
      <trkpt lat="42.97573685646057" lon="-0.3452861309051514">
        <ele>1626.315351307327</ele>
        <time>2021-08-05T07:56:19.704Z</time>
      </trkpt>
      <trkpt lat="42.975608110427856" lon="-0.3453290462493896">
        <ele>1624.2409534028793</ele>
        <time>2021-08-05T07:56:24.158Z</time>
      </trkpt>
      <trkpt lat="42.97550082206726" lon="-0.3452968597412109">
        <ele>1622.1855537859751</ele>
        <time>2021-08-05T07:56:28.614Z</time>
      </trkpt>
      <trkpt lat="42.975382804870605" lon="-0.3452003002166748">
        <ele>1620.157585971168</ele>
        <time>2021-08-05T07:56:33.072Z</time>
      </trkpt>
      <trkpt lat="42.97512539662421" lon="-0.344771146774292">
        <ele>1618.1883762435748</ele>
        <time>2021-08-05T07:56:37.536Z</time>
      </trkpt>
      <trkpt lat="42.97477126121521" lon="-0.3444921970367432">
        <ele>1616.0578336840576</ele>
        <time>2021-08-05T07:56:42.007Z</time>
      </trkpt>
      <trkpt lat="42.974642515182495" lon="-0.3444385528564453">
        <ele>1614.0824822656223</ele>
        <time>2021-08-05T07:56:46.480Z</time>
      </trkpt>
      <trkpt lat="42.97447085380554" lon="-0.3444385528564453">
        <ele>1612.1504620542296</ele>
        <time>2021-08-05T07:56:50.956Z</time>
      </trkpt>
      <trkpt lat="42.974363565444946" lon="-0.3445029258728027">
        <ele>1610.2619864397368</ele>
        <time>2021-08-05T07:56:55.434Z</time>
      </trkpt>
      <trkpt lat="42.97424563206732" lon="-0.3447175025939941">
        <ele>1608.3540078246374</ele>
        <time>2021-08-05T07:56:59.915Z</time>
      </trkpt>
      <trkpt lat="42.974170446395874" lon="-0.3450286388397217">
        <ele>1606.5074744742421</ele>
        <time>2021-08-05T07:57:04.400Z</time>
      </trkpt>
      <trkpt lat="42.97409534454346" lon="-0.3451681137084961">
        <ele>1604.6896005328442</ele>
        <time>2021-08-05T07:57:08.887Z</time>
      </trkpt>
      <trkpt lat="42.97396659851074" lon="-0.3452754020690918">
        <ele>1602.9162147447098</ele>
        <time>2021-08-05T07:57:13.376Z</time>
      </trkpt>
      <trkpt lat="42.97373064793646" lon="-0.3453719615936279">
        <ele>1601.1982016483284</ele>
        <time>2021-08-05T07:57:17.869Z</time>
      </trkpt>
      <trkpt lat="42.973666191101074" lon="-0.3454792499542236">
        <ele>1599.4089302113553</ele>
        <time>2021-08-05T07:57:22.364Z</time>
      </trkpt>
      <trkpt lat="42.973623275756836" lon="-0.3456401824951172">
        <ele>1597.593289714176</ele>
        <time>2021-08-05T07:57:26.861Z</time>
      </trkpt>
      <trkpt lat="42.973676919937134" lon="-0.3461122512817383">
        <ele>1595.499904084905</ele>
        <time>2021-08-05T07:57:31.363Z</time>
      </trkpt>
      <trkpt lat="42.973676919937134" lon="-0.3462517261505127">
        <ele>1593.6996268897058</ele>
        <time>2021-08-05T07:57:35.867Z</time>
      </trkpt>
      <trkpt lat="42.973623275756836" lon="-0.3463804721832275">
        <ele>1591.9179366614044</ele>
        <time>2021-08-05T07:57:40.373Z</time>
      </trkpt>
      <trkpt lat="42.9735267162323" lon="-0.3464770317077637">
        <ele>1590.1583114369123</ele>
        <time>2021-08-05T07:57:44.880Z</time>
      </trkpt>
      <trkpt lat="42.97345161437988" lon="-0.3465092182159424">
        <ele>1588.4354820158312</ele>
        <time>2021-08-05T07:57:49.389Z</time>
      </trkpt>
      <trkpt lat="42.97332286834717" lon="-0.3465092182159424">
        <ele>1586.6355637583197</ele>
        <time>2021-08-05T07:57:53.900Z</time>
      </trkpt>
      <trkpt lat="42.97295808792114" lon="-0.3464663028717041">
        <ele>1584.6577201850191</ele>
        <time>2021-08-05T07:57:58.417Z</time>
      </trkpt>
      <trkpt lat="42.97278642654419" lon="-0.3464126586914062">
        <ele>1582.837595180358</ele>
        <time>2021-08-05T07:58:02.936Z</time>
      </trkpt>
      <trkpt lat="42.97270059585571" lon="-0.3463375568389893">
        <ele>1581.1287687123463</ele>
        <time>2021-08-05T07:58:07.457Z</time>
      </trkpt>
      <trkpt lat="42.972646951675415" lon="-0.3461873531341553">
        <ele>1579.5358047380712</ele>
        <time>2021-08-05T07:58:11.980Z</time>
      </trkpt>
      <trkpt lat="42.972614765167236" lon="-0.3460264205932617">
        <ele>1578.006619478716</ele>
        <time>2021-08-05T07:58:16.505Z</time>
      </trkpt>
      <trkpt lat="42.972571849823" lon="-0.3458976745605469">
        <ele>1576.4737274509973</ele>
        <time>2021-08-05T07:58:21.032Z</time>
      </trkpt>
      <trkpt lat="42.97250747680664" lon="-0.3458011150360107">
        <ele>1574.915662295234</ele>
        <time>2021-08-05T07:58:25.560Z</time>
      </trkpt>
      <trkpt lat="42.97244310379028" lon="-0.345768928527832">
        <ele>1573.2827130163885</ele>
        <time>2021-08-05T07:58:30.089Z</time>
      </trkpt>
      <trkpt lat="42.9720675945282" lon="-0.3457581996917725">
        <ele>1571.650852507989</ele>
        <time>2021-08-05T07:58:34.624Z</time>
      </trkpt>
      <trkpt lat="42.97197103500366" lon="-0.3457903861999512">
        <ele>1569.917269847685</ele>
        <time>2021-08-05T07:58:39.161Z</time>
      </trkpt>
      <trkpt lat="42.971895933151245" lon="-0.3458762168884277">
        <ele>1568.0833590654147</ele>
        <time>2021-08-05T07:58:43.699Z</time>
      </trkpt>
      <trkpt lat="42.97185301780701" lon="-0.3460049629211426">
        <ele>1566.1724339366765</ele>
        <time>2021-08-05T07:58:48.239Z</time>
      </trkpt>
      <trkpt lat="42.97184237278998" lon="-0.3464555740356445">
        <ele>1563.8586988367601</ele>
        <time>2021-08-05T07:58:52.784Z</time>
      </trkpt>
      <trkpt lat="42.97182083129883" lon="-0.3466808795928955">
        <ele>1562.0265185302628</ele>
        <time>2021-08-05T07:58:57.332Z</time>
      </trkpt>
      <trkpt lat="42.97176718711853" lon="-0.3467667102813721">
        <ele>1560.1702516991404</ele>
        <time>2021-08-05T07:59:01.881Z</time>
      </trkpt>
      <trkpt lat="42.971713626757264" lon="-0.3467774391174316">
        <ele>1558.2609563504707</ele>
        <time>2021-08-05T07:59:06.431Z</time>
      </trkpt>
      <trkpt lat="42.97171354293823" lon="-0.3467774391174316">
        <ele>1556.4590977569483</ele>
        <time>2021-08-05T07:59:10.981Z</time>
      </trkpt>
      <trkpt lat="42.971638441085815" lon="-0.3467452526092529">
        <ele>1554.4894598629912</ele>
        <time>2021-08-05T07:59:15.533Z</time>
      </trkpt>
      <trkpt lat="42.97159552574158" lon="-0.3466486930847168">
        <ele>1552.602154067301</ele>
        <time>2021-08-05T07:59:20.086Z</time>
      </trkpt>
      <trkpt lat="42.97157406806946" lon="-0.3464877605438232">
        <ele>1550.7918879551385</ele>
        <time>2021-08-05T07:59:24.641Z</time>
      </trkpt>
      <trkpt lat="42.9715633392334" lon="-0.3462517261505127">
        <ele>1549.1652917441857</ele>
        <time>2021-08-05T07:59:29.199Z</time>
      </trkpt>
      <trkpt lat="42.9714560508728" lon="-0.3458333015441895">
        <ele>1547.6785045045028</ele>
        <time>2021-08-05T07:59:33.762Z</time>
      </trkpt>
      <trkpt lat="42.971413135528564" lon="-0.3457474708557129">
        <ele>1545.8515813288918</ele>
        <time>2021-08-05T07:59:38.326Z</time>
      </trkpt>
      <trkpt lat="42.97099471092224" lon="-0.3454685211181641">
        <ele>1543.454899656736</ele>
        <time>2021-08-05T07:59:42.897Z</time>
      </trkpt>
      <trkpt lat="42.97085523605347" lon="-0.3453397750854492">
        <ele>1541.2615915424471</ele>
        <time>2021-08-05T07:59:47.471Z</time>
      </trkpt>
      <trkpt lat="42.97080159187317" lon="-0.3452539443969727">
        <ele>1539.1582735793559</ele>
        <time>2021-08-05T07:59:52.046Z</time>
      </trkpt>
      <trkpt lat="42.970651388168335" lon="-0.3448891639709473">
        <ele>1537.0805970833096</ele>
        <time>2021-08-05T07:59:56.626Z</time>
      </trkpt>
      <trkpt lat="42.97047981061041" lon="-0.3445565700531006">
        <ele>1535.0160307399337</ele>
        <time>2021-08-05T08:00:01.211Z</time>
      </trkpt>
      <trkpt lat="42.97028660774231" lon="-0.3441488742828369">
        <ele>1532.9751273218103</ele>
        <time>2021-08-05T08:00:05.802Z</time>
      </trkpt>
      <trkpt lat="42.970179319381714" lon="-0.3440093994140625">
        <ele>1530.978134607391</ele>
        <time>2021-08-05T08:00:10.395Z</time>
      </trkpt>
      <trkpt lat="42.9699432849884" lon="-0.3438162803649902">
        <ele>1528.8941034729214</ele>
        <time>2021-08-05T08:00:14.993Z</time>
      </trkpt>
      <trkpt lat="42.969868183135986" lon="-0.3437304496765137">
        <ele>1526.9364030051825</ele>
        <time>2021-08-05T08:00:19.592Z</time>
      </trkpt>
      <trkpt lat="42.96982526779175" lon="-0.3435909748077393">
        <ele>1525.0133363352143</ele>
        <time>2021-08-05T08:00:24.193Z</time>
      </trkpt>
      <trkpt lat="42.96983599662781" lon="-0.3433012962341309">
        <ele>1523.3261690476047</ele>
        <time>2021-08-05T08:00:28.797Z</time>
      </trkpt>
      <trkpt lat="42.969889640808105" lon="-0.3429150581359863">
        <ele>1521.868157813008</ele>
        <time>2021-08-05T08:00:33.406Z</time>
      </trkpt>
      <trkpt lat="42.969878911972046" lon="-0.3427863121032715">
        <ele>1520.029531886435</ele>
        <time>2021-08-05T08:00:38.017Z</time>
      </trkpt>
      <trkpt lat="42.9695999622345" lon="-0.3420782089233398">
        <ele>1517.6989793272508</ele>
        <time>2021-08-05T08:00:42.637Z</time>
      </trkpt>
      <trkpt lat="42.96929955482483" lon="-0.341498851776123">
        <ele>1515.1870115433344</ele>
        <time>2021-08-05T08:00:47.265Z</time>
      </trkpt>
      <trkpt lat="42.96925663948059" lon="-0.3413486480712891">
        <ele>1513.2723860006363</ele>
        <time>2021-08-05T08:00:51.895Z</time>
      </trkpt>
      <trkpt lat="42.96925663948059" lon="-0.3412735462188721">
        <ele>1511.4872500872739</ele>
        <time>2021-08-05T08:00:56.526Z</time>
      </trkpt>
      <trkpt lat="42.96927818097174" lon="-0.3411769866943359">
        <ele>1509.7759756842197</ele>
        <time>2021-08-05T08:01:01.158Z</time>
      </trkpt>
      <trkpt lat="42.96927809715271" lon="-0.3411769866943359">
        <ele>1508.0518701181336</ele>
        <time>2021-08-05T08:01:05.790Z</time>
      </trkpt>
      <trkpt lat="42.969417572021484" lon="-0.3408122062683105">
        <ele>1506.6365257179493</ele>
        <time>2021-08-05T08:01:10.427Z</time>
      </trkpt>
      <trkpt lat="42.9694390296936" lon="-0.3406834602355957">
        <ele>1504.9960119133077</ele>
        <time>2021-08-05T08:01:15.066Z</time>
      </trkpt>
      <trkpt lat="42.969406843185425" lon="-0.3405439853668213">
        <ele>1503.284297512143</ele>
        <time>2021-08-05T08:01:19.706Z</time>
      </trkpt>
      <trkpt lat="42.96932101249695" lon="-0.3404152393341064">
        <ele>1501.4772307679696</ele>
        <time>2021-08-05T08:01:24.348Z</time>
      </trkpt>
      <trkpt lat="42.96925663948059" lon="-0.3402435779571533">
        <ele>1499.6951022575581</ele>
        <time>2021-08-05T08:01:28.993Z</time>
      </trkpt>
      <trkpt lat="42.96900987625122" lon="-0.3392887115478516">
        <ele>1497.826107560726</ele>
        <time>2021-08-05T08:01:33.650Z</time>
      </trkpt>
      <trkpt lat="42.96897768974304" lon="-0.3388381004333496">
        <ele>1496.323174644322</ele>
        <time>2021-08-05T08:01:38.312Z</time>
      </trkpt>
      <trkpt lat="42.968870401382446" lon="-0.3383231163024902">
        <ele>1494.7456661789713</ele>
        <time>2021-08-05T08:01:42.980Z</time>
      </trkpt>
      <trkpt lat="42.96882748603821" lon="-0.3380334377288818">
        <ele>1492.9957212178351</ele>
        <time>2021-08-05T08:01:47.652Z</time>
      </trkpt>
      <trkpt lat="42.96882748603821" lon="-0.3379261493682861">
        <ele>1491.4973300247523</ele>
        <time>2021-08-05T08:01:52.325Z</time>
      </trkpt>
      <trkpt lat="42.968924045562744" lon="-0.337529182434082">
        <ele>1490.1657219598587</ele>
        <time>2021-08-05T08:01:57.003Z</time>
      </trkpt>
      <trkpt lat="42.968902587890625" lon="-0.3374218940734863">
        <ele>1488.7297125266405</ele>
        <time>2021-08-05T08:02:01.682Z</time>
      </trkpt>
      <trkpt lat="42.96881675720215" lon="-0.3372609615325928">
        <ele>1487.2079205686584</ele>
        <time>2021-08-05T08:02:06.363Z</time>
      </trkpt>
      <trkpt lat="42.96880602836609" lon="-0.3371536731719971">
        <ele>1485.9205446292963</ele>
        <time>2021-08-05T08:02:11.046Z</time>
      </trkpt>
      <trkpt lat="42.968891859054565" lon="-0.3368854522705078">
        <ele>1485.0086850060534</ele>
        <time>2021-08-05T08:02:15.732Z</time>
      </trkpt>
      <trkpt lat="42.968891859054565" lon="-0.3367888927459717">
        <ele>1483.797921965865</ele>
        <time>2021-08-05T08:02:20.419Z</time>
      </trkpt>
      <trkpt lat="42.96885967254639" lon="-0.3367030620574951">
        <ele>1482.5114875774798</ele>
        <time>2021-08-05T08:02:25.107Z</time>
      </trkpt>
      <trkpt lat="42.96879529953003" lon="-0.3366494178771973">
        <ele>1481.133413174551</ele>
        <time>2021-08-05T08:02:29.797Z</time>
      </trkpt>
      <trkpt lat="42.96858072280884" lon="-0.3365743160247803">
        <ele>1479.4851989294264</ele>
        <time>2021-08-05T08:02:34.490Z</time>
      </trkpt>
      <trkpt lat="42.968398332595825" lon="-0.3365743160247803">
        <ele>1477.8694045234006</ele>
        <time>2021-08-05T08:02:39.186Z</time>
      </trkpt>
      <trkpt lat="42.96829104423523" lon="-0.3365206718444824">
        <ele>1476.4977681317253</ele>
        <time>2021-08-05T08:02:43.884Z</time>
      </trkpt>
      <trkpt lat="42.96804428100586" lon="-0.3362739086151123">
        <ele>1475.3006792563801</ele>
        <time>2021-08-05T08:02:48.587Z</time>
      </trkpt>
      <trkpt lat="42.96794772148132" lon="-0.3360271453857422">
        <ele>1474.4630131310773</ele>
        <time>2021-08-05T08:02:53.293Z</time>
      </trkpt>
      <trkpt lat="42.967904806137085" lon="-0.3359735012054443">
        <ele>1473.250362605464</ele>
        <time>2021-08-05T08:02:58.000Z</time>
      </trkpt>
      <trkpt lat="42.96785116195679" lon="-0.3359305858612061">
        <ele>1471.9908007400709</ele>
        <time>2021-08-05T08:03:02.708Z</time>
      </trkpt>
      <trkpt lat="42.96771168708801" lon="-0.3359091281890869">
        <ele>1470.5974034914434</ele>
        <time>2021-08-05T08:03:07.418Z</time>
      </trkpt>
      <trkpt lat="42.96760439872742" lon="-0.3358662128448486">
        <ele>1469.239821039442</ele>
        <time>2021-08-05T08:03:12.130Z</time>
      </trkpt>
      <trkpt lat="42.96734690666199" lon="-0.3356194496154785">
        <ele>1467.8507126272743</ele>
        <time>2021-08-05T08:03:16.847Z</time>
      </trkpt>
      <trkpt lat="42.967143058776855" lon="-0.3355765342712402">
        <ele>1466.3148524917801</ele>
        <time>2021-08-05T08:03:21.567Z</time>
      </trkpt>
      <trkpt lat="42.966928482055664" lon="-0.3355765342712402">
        <ele>1464.6095891302289</ele>
        <time>2021-08-05T08:03:26.291Z</time>
      </trkpt>
      <trkpt lat="42.96672463417053" lon="-0.3354907035827637">
        <ele>1462.9737688126875</ele>
        <time>2021-08-05T08:03:31.018Z</time>
      </trkpt>
      <trkpt lat="42.96654224395752" lon="-0.3353512287139893">
        <ele>1461.4663624049217</ele>
        <time>2021-08-05T08:03:35.749Z</time>
      </trkpt>
      <trkpt lat="42.96645641326904" lon="-0.3352439403533936">
        <ele>1459.9864678324045</ele>
        <time>2021-08-05T08:03:40.481Z</time>
      </trkpt>
      <trkpt lat="42.966392040252686" lon="-0.3350508213043213">
        <ele>1458.5664899674375</ele>
        <time>2021-08-05T08:03:45.216Z</time>
      </trkpt>
      <trkpt lat="42.966381311416626" lon="-0.3348147869110107">
        <ele>1457.2604513479532</ele>
        <time>2021-08-05T08:03:49.954Z</time>
      </trkpt>
      <trkpt lat="42.96630620956421" lon="-0.3345251083374023">
        <ele>1455.9719975059215</ele>
        <time>2021-08-05T08:03:54.695Z</time>
      </trkpt>
      <trkpt lat="42.96627402305603" lon="-0.3344714641571045">
        <ele>1454.431779080769</ele>
        <time>2021-08-05T08:03:59.437Z</time>
      </trkpt>
      <trkpt lat="42.966166734695435" lon="-0.3343963623046875">
        <ele>1452.7382991366912</ele>
        <time>2021-08-05T08:04:04.181Z</time>
      </trkpt>
      <trkpt lat="42.96595215797424" lon="-0.3344070911407471">
        <ele>1450.6890949437343</ele>
        <time>2021-08-05T08:04:08.929Z</time>
      </trkpt>
      <trkpt lat="42.965630292892456" lon="-0.3345251083374023">
        <ele>1448.5875502401682</ele>
        <time>2021-08-05T08:04:13.682Z</time>
      </trkpt>
      <trkpt lat="42.96557664871216" lon="-0.3345143795013428">
        <ele>1446.8691723000431</ele>
        <time>2021-08-05T08:04:18.436Z</time>
      </trkpt>
      <trkpt lat="42.965372800827026" lon="-0.3343105316162109">
        <ele>1445.0837480297344</ele>
        <time>2021-08-05T08:04:23.194Z</time>
      </trkpt>
      <trkpt lat="42.96529769897461" lon="-0.3341388702392578">
        <ele>1443.4120533017697</ele>
        <time>2021-08-05T08:04:27.954Z</time>
      </trkpt>
      <trkpt lat="42.96526551246643" lon="-0.333935022354126">
        <ele>1441.7842809658016</ele>
        <time>2021-08-05T08:04:32.717Z</time>
      </trkpt>
      <trkpt lat="42.96510457992554" lon="-0.3333663940429688">
        <ele>1439.733892044078</ele>
        <time>2021-08-05T08:04:37.487Z</time>
      </trkpt>
      <trkpt lat="42.96507239341736" lon="-0.3331840038299561">
        <ele>1437.9929162598924</ele>
        <time>2021-08-05T08:04:42.259Z</time>
      </trkpt>
      <trkpt lat="42.96507239341736" lon="-0.3329372406005859">
        <ele>1436.2928877187633</ele>
        <time>2021-08-05T08:04:47.034Z</time>
      </trkpt>
      <trkpt lat="42.96499729156494" lon="-0.3326904773712158">
        <ele>1434.4877377781474</ele>
        <time>2021-08-05T08:04:51.812Z</time>
      </trkpt>
      <trkpt lat="42.96497583389282" lon="-0.3325510025024414">
        <ele>1432.8387356329567</ele>
        <time>2021-08-05T08:04:56.592Z</time>
      </trkpt>
      <trkpt lat="42.96497583389282" lon="-0.3323793411254883">
        <ele>1431.2441907444772</ele>
        <time>2021-08-05T08:05:01.374Z</time>
      </trkpt>
      <trkpt lat="42.964932918548584" lon="-0.3322720527648926">
        <ele>1429.5302977271222</ele>
        <time>2021-08-05T08:05:06.157Z</time>
      </trkpt>
      <trkpt lat="42.96484708786011" lon="-0.3321754932403564">
        <ele>1427.683745954224</ele>
        <time>2021-08-05T08:05:10.942Z</time>
      </trkpt>
      <trkpt lat="42.96477198600769" lon="-0.3319931030273438">
        <ele>1426.179699577977</ele>
        <time>2021-08-05T08:05:15.729Z</time>
      </trkpt>
      <trkpt lat="42.96457886695862" lon="-0.3318428993225098">
        <ele>1424.2723582610913</ele>
        <time>2021-08-05T08:05:20.520Z</time>
      </trkpt>
      <trkpt lat="42.9645037651062" lon="-0.3317570686340332">
        <ele>1422.5412096623113</ele>
        <time>2021-08-05T08:05:25.312Z</time>
      </trkpt>
      <trkpt lat="42.96446084976196" lon="-0.3316605091094971">
        <ele>1420.8367578919724</ele>
        <time>2021-08-05T08:05:30.106Z</time>
      </trkpt>
      <trkpt lat="42.964375019073486" lon="-0.3315424919128418">
        <ele>1419.1002727558207</ele>
        <time>2021-08-05T08:05:34.902Z</time>
      </trkpt>
      <trkpt lat="42.964128255844116" lon="-0.3314459323883057">
        <ele>1417.129978812162</ele>
        <time>2021-08-05T08:05:39.702Z</time>
      </trkpt>
      <trkpt lat="42.96381711959839" lon="-0.3312742710113525">
        <ele>1415.35660866002</ele>
        <time>2021-08-05T08:05:44.507Z</time>
      </trkpt>
      <trkpt lat="42.963688373565674" lon="-0.3312420845031738">
        <ele>1413.3796613146515</ele>
        <time>2021-08-05T08:05:49.314Z</time>
      </trkpt>
      <trkpt lat="42.96358108520508" lon="-0.3312313556671143">
        <ele>1411.3922646915466</ele>
        <time>2021-08-05T08:05:54.123Z</time>
      </trkpt>
      <trkpt lat="42.96348452568054" lon="-0.3311562538146973">
        <ele>1409.3913889442888</ele>
        <time>2021-08-05T08:05:58.934Z</time>
      </trkpt>
      <trkpt lat="42.96336650848389" lon="-0.330888032913208">
        <ele>1407.6136808385825</ele>
        <time>2021-08-05T08:06:03.749Z</time>
      </trkpt>
      <trkpt lat="42.96326994895935" lon="-0.3306305408477783">
        <ele>1405.8656178508381</ele>
        <time>2021-08-05T08:06:08.567Z</time>
      </trkpt>
      <trkpt lat="42.9630982875824" lon="-0.3304696083068848">
        <ele>1403.9703469368974</ele>
        <time>2021-08-05T08:06:13.388Z</time>
      </trkpt>
      <trkpt lat="42.962937355041504" lon="-0.3303945064544678">
        <ele>1401.8961578426124</ele>
        <time>2021-08-05T08:06:18.212Z</time>
      </trkpt>
      <trkpt lat="42.96274431981146" lon="-0.3303730487823486">
        <ele>1399.9055896501063</ele>
        <time>2021-08-05T08:06:23.039Z</time>
      </trkpt>
      <trkpt lat="42.96250820159912" lon="-0.3304696083068848">
        <ele>1397.9286373028008</ele>
        <time>2021-08-05T08:06:27.870Z</time>
      </trkpt>
      <trkpt lat="42.96220779418945" lon="-0.3306305408477783">
        <ele>1395.9857147527237</ele>
        <time>2021-08-05T08:06:32.706Z</time>
      </trkpt>
      <trkpt lat="42.96184301376343" lon="-0.3308773040771484">
        <ele>1393.9062675345735</ele>
        <time>2021-08-05T08:06:37.549Z</time>
      </trkpt>
      <trkpt lat="42.96151041984558" lon="-0.331038236618042">
        <ele>1391.8878905653137</ele>
        <time>2021-08-05T08:06:42.397Z</time>
      </trkpt>
      <trkpt lat="42.96131730079651" lon="-0.3310918807983398">
        <ele>1389.97418033009</ele>
        <time>2021-08-05T08:06:47.248Z</time>
      </trkpt>
      <trkpt lat="42.96121001243591" lon="-0.3310918807983398">
        <ele>1388.1817743116862</ele>
        <time>2021-08-05T08:06:52.101Z</time>
      </trkpt>
      <trkpt lat="42.96112418174744" lon="-0.3310489654541016">
        <ele>1386.466185188823</ele>
        <time>2021-08-05T08:06:56.956Z</time>
      </trkpt>
      <trkpt lat="42.96103843487799" lon="-0.3310704231262207">
        <ele>1384.7035893080483</ele>
        <time>2021-08-05T08:07:01.812Z</time>
      </trkpt>
      <trkpt lat="42.96103835105896" lon="-0.3310704231262207">
        <ele>1383.0658780085562</ele>
        <time>2021-08-05T08:07:06.668Z</time>
      </trkpt>
      <trkpt lat="42.96086668968201" lon="-0.3311669826507568">
        <ele>1381.3405991272266</ele>
        <time>2021-08-05T08:07:11.527Z</time>
      </trkpt>
      <trkpt lat="42.96062001027167" lon="-0.3312206268310547">
        <ele>1379.7942153067193</ele>
        <time>2021-08-05T08:07:16.390Z</time>
      </trkpt>
      <trkpt lat="42.960437536239624" lon="-0.3312742710113525">
        <ele>1378.323241463861</ele>
        <time>2021-08-05T08:07:21.256Z</time>
      </trkpt>
      <trkpt lat="42.96035178937018" lon="-0.3313708305358887">
        <ele>1376.8265918053157</ele>
        <time>2021-08-05T08:07:26.124Z</time>
      </trkpt>
      <trkpt lat="42.959944093599916" lon="-0.3318536281585693">
        <ele>1375.2367330337984</ele>
        <time>2021-08-05T08:07:31.000Z</time>
      </trkpt>
      <trkpt lat="42.95990117825568" lon="-0.3319501876831055">
        <ele>1373.9065406488203</ele>
        <time>2021-08-05T08:07:35.878Z</time>
      </trkpt>
      <trkpt lat="42.95985826291144" lon="-0.332186222076416">
        <ele>1372.597380097239</ele>
        <time>2021-08-05T08:07:40.759Z</time>
      </trkpt>
      <trkpt lat="42.95980453491211" lon="-0.3324007987976074">
        <ele>1371.248437546187</ele>
        <time>2021-08-05T08:07:45.642Z</time>
      </trkpt>
      <trkpt lat="42.959729516878724" lon="-0.3324973583221436">
        <ele>1370.0479593699501</ele>
        <time>2021-08-05T08:07:50.527Z</time>
      </trkpt>
      <trkpt lat="42.95972943305969" lon="-0.3324973583221436">
        <ele>1369.0337388465605</ele>
        <time>2021-08-05T08:07:55.412Z</time>
      </trkpt>
      <trkpt lat="42.959643602371216" lon="-0.332561731338501">
        <ele>1367.998681862426</ele>
        <time>2021-08-05T08:08:00.299Z</time>
      </trkpt>
      <trkpt lat="42.9595148563385" lon="-0.3326153755187988">
        <ele>1367.0609257946749</ele>
        <time>2021-08-05T08:08:05.188Z</time>
      </trkpt>
      <trkpt lat="42.959386110305786" lon="-0.332636833190918">
        <ele>1366.2612951325877</ele>
        <time>2021-08-05T08:08:10.079Z</time>
      </trkpt>
      <trkpt lat="42.959203803911805" lon="-0.3325939178466797">
        <ele>1365.603949001326</ele>
        <time>2021-08-05T08:08:14.973Z</time>
      </trkpt>
      <trkpt lat="42.95910716056824" lon="-0.3326046466827393">
        <ele>1364.911467295731</ele>
        <time>2021-08-05T08:08:19.868Z</time>
      </trkpt>
      <trkpt lat="42.95880675315857" lon="-0.3327012062072754">
        <ele>1364.131369523878</ele>
        <time>2021-08-05T08:08:24.768Z</time>
      </trkpt>
      <trkpt lat="42.95872092247009" lon="-0.3326797485351562">
        <ele>1363.5769920336477</ele>
        <time>2021-08-05T08:08:29.670Z</time>
      </trkpt>
      <trkpt lat="42.958645820617676" lon="-0.3326475620269775">
        <ele>1363.1272717931738</ele>
        <time>2021-08-05T08:08:34.573Z</time>
      </trkpt>
      <trkpt lat="42.95847415924072" lon="-0.3324222564697266">
        <ele>1362.7638965816845</ele>
        <time>2021-08-05T08:08:39.480Z</time>
      </trkpt>
      <trkpt lat="42.95839914120734" lon="-0.3323686122894287">
        <ele>1362.435785343017</ele>
        <time>2021-08-05T08:08:44.388Z</time>
      </trkpt>
      <trkpt lat="42.958399057388306" lon="-0.3323686122894287">
        <ele>1362.0965610549579</ele>
        <time>2021-08-05T08:08:49.296Z</time>
      </trkpt>
      <trkpt lat="42.95827031135559" lon="-0.33233642578125">
        <ele>1361.816354265811</ele>
        <time>2021-08-05T08:08:54.206Z</time>
      </trkpt>
      <trkpt lat="42.958173835650086" lon="-0.3323471546173096">
        <ele>1361.4936118475382</ele>
        <time>2021-08-05T08:08:59.118Z</time>
      </trkpt>
      <trkpt lat="42.958130836486816" lon="-0.3323793411254883">
        <ele>1361.2218534648296</ele>
        <time>2021-08-05T08:09:04.030Z</time>
      </trkpt>
      <trkpt lat="42.95808792114258" lon="-0.3324544429779053">
        <ele>1360.946571042301</ele>
        <time>2021-08-05T08:09:08.944Z</time>
      </trkpt>
      <trkpt lat="42.95806646347046" lon="-0.3325510025024414">
        <ele>1360.6757869997746</ele>
        <time>2021-08-05T08:09:13.859Z</time>
      </trkpt>
      <trkpt lat="42.95806646347046" lon="-0.3326046466827393">
        <ele>1360.3951847300823</ele>
        <time>2021-08-05T08:09:18.774Z</time>
      </trkpt>
      <trkpt lat="42.95809864997864" lon="-0.3326690196990967">
        <ele>1360.0839344547624</ele>
        <time>2021-08-05T08:09:23.690Z</time>
      </trkpt>
      <trkpt lat="42.958216750994325" lon="-0.3327977657318115">
        <ele>1359.734454846291</ele>
        <time>2021-08-05T08:09:28.609Z</time>
      </trkpt>
      <trkpt lat="42.95821666717529" lon="-0.3327977657318115">
        <ele>1359.3926561458813</ele>
        <time>2021-08-05T08:09:33.528Z</time>
      </trkpt>
      <trkpt lat="42.95829176902771" lon="-0.3328943252563477">
        <ele>1359.0097342998458</ele>
        <time>2021-08-05T08:09:38.448Z</time>
      </trkpt>
      <trkpt lat="42.95846343040466" lon="-0.3329801559448242">
        <ele>1358.5768967093527</ele>
        <time>2021-08-05T08:09:43.371Z</time>
      </trkpt>
      <trkpt lat="42.95879602432251" lon="-0.3330016136169434">
        <ele>1358.057691089888</ele>
        <time>2021-08-05T08:09:48.300Z</time>
      </trkpt>
      <trkpt lat="42.95905351638794" lon="-0.3329479694366455">
        <ele>1357.5445030354188</ele>
        <time>2021-08-05T08:09:53.233Z</time>
      </trkpt>
      <trkpt lat="42.959171533584595" lon="-0.3329372406005859">
        <ele>1356.8863980434912</ele>
        <time>2021-08-05T08:09:58.168Z</time>
      </trkpt>
      <trkpt lat="42.959675872698426" lon="-0.3330338001251221">
        <ele>1355.9949103377762</ele>
        <time>2021-08-05T08:10:03.111Z</time>
      </trkpt>
      <trkpt lat="42.959718788042665" lon="-0.3330445289611816">
        <ele>1355.1947336106202</ele>
        <time>2021-08-05T08:10:08.055Z</time>
      </trkpt>
      <trkpt lat="42.95977243222296" lon="-0.3330552577972412">
        <ele>1354.3002179311056</ele>
        <time>2021-08-05T08:10:12.999Z</time>
      </trkpt>
      <trkpt lat="42.9598689917475" lon="-0.3330445289611816">
        <ele>1353.3054409790807</ele>
        <time>2021-08-05T08:10:17.945Z</time>
      </trkpt>
      <trkpt lat="42.95999773778021" lon="-0.3330230712890625">
        <ele>1352.227857058336</ele>
        <time>2021-08-05T08:10:22.893Z</time>
      </trkpt>
      <trkpt lat="42.96011575497687" lon="-0.3329801559448242">
        <ele>1351.0695468417366</ele>
        <time>2021-08-05T08:10:27.843Z</time>
      </trkpt>
      <trkpt lat="42.96025522984564" lon="-0.3328943252563477">
        <ele>1349.7075395610627</ele>
        <time>2021-08-05T08:10:32.795Z</time>
      </trkpt>
      <trkpt lat="42.96030879020691" lon="-0.3328406810760498">
        <ele>1348.258901816766</ele>
        <time>2021-08-05T08:10:37.748Z</time>
      </trkpt>
      <trkpt lat="42.96045899391174" lon="-0.3327763080596924">
        <ele>1346.6139626450536</ele>
        <time>2021-08-05T08:10:42.704Z</time>
      </trkpt>
      <trkpt lat="42.96054490841925" lon="-0.3327763080596924">
        <ele>1344.830869176572</ele>
        <time>2021-08-05T08:10:47.661Z</time>
      </trkpt>
      <trkpt lat="42.96054482460022" lon="-0.3327763080596924">
        <ele>1342.988113697441</ele>
        <time>2021-08-05T08:10:52.618Z</time>
      </trkpt>
      <trkpt lat="42.960630655288696" lon="-0.3327763080596924">
        <ele>1340.9425411550767</ele>
        <time>2021-08-05T08:10:57.577Z</time>
      </trkpt>
      <trkpt lat="42.96072721481323" lon="-0.3328084945678711">
        <ele>1338.722406756543</ele>
        <time>2021-08-05T08:11:02.537Z</time>
      </trkpt>
      <trkpt lat="42.96096324920654" lon="-0.3330552577972412">
        <ele>1336.1217828522545</ele>
        <time>2021-08-05T08:11:07.502Z</time>
      </trkpt>
      <trkpt lat="42.9610812664032" lon="-0.3330981731414795">
        <ele>1333.6905898249818</ele>
        <time>2021-08-05T08:11:12.469Z</time>
      </trkpt>
      <trkpt lat="42.961167097091675" lon="-0.3330552577972412">
        <ele>1331.2473430566793</ele>
        <time>2021-08-05T08:11:17.438Z</time>
      </trkpt>
      <trkpt lat="42.96148896217346" lon="-0.3326797485351562">
        <ele>1328.8027761201695</ele>
        <time>2021-08-05T08:11:22.413Z</time>
      </trkpt>
      <trkpt lat="42.96160697937012" lon="-0.3326153755187988">
        <ele>1326.0072108325746</ele>
        <time>2021-08-05T08:11:27.390Z</time>
      </trkpt>
      <trkpt lat="42.96172499656677" lon="-0.3325939178466797">
        <ele>1323.0463249405282</ele>
        <time>2021-08-05T08:11:32.369Z</time>
      </trkpt>
      <trkpt lat="42.96229362487793" lon="-0.3326261043548584">
        <ele>1319.9628399597607</ele>
        <time>2021-08-05T08:11:37.357Z</time>
      </trkpt>
      <trkpt lat="42.962400913238525" lon="-0.3326475620269775">
        <ele>1316.8413851362557</ele>
        <time>2021-08-05T08:11:42.347Z</time>
      </trkpt>
      <trkpt lat="42.96283006668091" lon="-0.3330230712890625">
        <ele>1313.0076780397308</ele>
        <time>2021-08-05T08:11:47.345Z</time>
      </trkpt>
      <trkpt lat="42.963194930925965" lon="-0.3333663940429688">
        <ele>1309.6466746511346</ele>
        <time>2021-08-05T08:11:52.350Z</time>
      </trkpt>
      <trkpt lat="42.963194847106934" lon="-0.3333663940429688">
        <ele>1306.3780564885947</ele>
        <time>2021-08-05T08:11:57.355Z</time>
      </trkpt>
      <trkpt lat="42.9632914904505" lon="-0.3334951400756836">
        <ele>1303.194548127302</ele>
        <time>2021-08-05T08:12:02.362Z</time>
      </trkpt>
      <trkpt lat="42.963645458221436" lon="-0.3341066837310791">
        <ele>1299.5883167902984</ele>
        <time>2021-08-05T08:12:07.379Z</time>
      </trkpt>
      <trkpt lat="42.96373128890991" lon="-0.3343641757965088">
        <ele>1295.8902984935012</ele>
        <time>2021-08-05T08:12:12.399Z</time>
      </trkpt>
      <trkpt lat="42.96407461166382" lon="-0.3351473808288574">
        <ele>1292.2159370407758</ele>
        <time>2021-08-05T08:12:17.430Z</time>
      </trkpt>
      <trkpt lat="42.96427845954895" lon="-0.3357481956481934">
        <ele>1288.7033869545228</ele>
        <time>2021-08-05T08:12:22.468Z</time>
      </trkpt>
      <trkpt lat="42.96436429023743" lon="-0.3364133834838867">
        <ele>1285.1709084099537</ele>
        <time>2021-08-05T08:12:27.514Z</time>
      </trkpt>
      <trkpt lat="42.9645037651062" lon="-0.3371965885162354">
        <ele>1281.365367453936</ele>
        <time>2021-08-05T08:12:32.570Z</time>
      </trkpt>
      <trkpt lat="42.9645037651062" lon="-0.3373897075653076">
        <ele>1277.82315493326</ele>
        <time>2021-08-05T08:12:37.628Z</time>
      </trkpt>
      <trkpt lat="42.96447157859802" lon="-0.33782958984375">
        <ele>1273.8508401318545</ele>
        <time>2021-08-05T08:12:42.691Z</time>
      </trkpt>
      <trkpt lat="42.9645037651062" lon="-0.3380012512207031">
        <ele>1270.2685837447657</ele>
        <time>2021-08-05T08:12:47.756Z</time>
      </trkpt>
      <trkpt lat="42.96455749310553" lon="-0.3381729125976562">
        <ele>1266.8134190137134</ele>
        <time>2021-08-05T08:12:52.824Z</time>
      </trkpt>
      <trkpt lat="42.9645574092865" lon="-0.3381729125976562">
        <ele>1263.548280525013</ele>
        <time>2021-08-05T08:12:57.892Z</time>
      </trkpt>
      <trkpt lat="42.964653968811035" lon="-0.3384518623352051">
        <ele>1260.4399693140033</ele>
        <time>2021-08-05T08:13:02.963Z</time>
      </trkpt>
      <trkpt lat="42.964675426483154" lon="-0.3385698795318604">
        <ele>1257.3305308557483</ele>
        <time>2021-08-05T08:13:08.036Z</time>
      </trkpt>
      <trkpt lat="42.964632511138916" lon="-0.3390634059906006">
        <ele>1254.045072120887</ele>
        <time>2021-08-05T08:13:13.114Z</time>
      </trkpt>
      <trkpt lat="42.964653968811035" lon="-0.339202880859375">
        <ele>1251.033801999828</ele>
        <time>2021-08-05T08:13:18.194Z</time>
      </trkpt>
      <trkpt lat="42.96473979949951" lon="-0.3394603729248047">
        <ele>1248.255563155618</ele>
        <time>2021-08-05T08:13:23.277Z</time>
      </trkpt>
      <trkpt lat="42.96476125717163" lon="-0.3399538993835449">
        <ele>1245.3636777371996</ele>
        <time>2021-08-05T08:13:28.366Z</time>
      </trkpt>
      <trkpt lat="42.96479344367981" lon="-0.340200662612915">
        <ele>1242.6409938674187</ele>
        <time>2021-08-05T08:13:33.458Z</time>
      </trkpt>
      <trkpt lat="42.964900732040405" lon="-0.3405976295471191">
        <ele>1240.060380304204</ele>
        <time>2021-08-05T08:13:38.555Z</time>
      </trkpt>
      <trkpt lat="42.964943647384644" lon="-0.3408122062683105">
        <ele>1237.4593802086238</ele>
        <time>2021-08-05T08:13:43.655Z</time>
      </trkpt>
      <trkpt lat="42.96501874923706" lon="-0.3417456150054932">
        <ele>1234.529961324995</ele>
        <time>2021-08-05T08:13:48.766Z</time>
      </trkpt>
      <trkpt lat="42.96507239341736" lon="-0.3421211242675781">
        <ele>1231.9636462394599</ele>
        <time>2021-08-05T08:13:53.881Z</time>
      </trkpt>
      <trkpt lat="42.96509385108948" lon="-0.3426361083984375">
        <ele>1229.3531184957446</ele>
        <time>2021-08-05T08:13:59.002Z</time>
      </trkpt>
      <trkpt lat="42.96510457992554" lon="-0.3430008888244629">
        <ele>1226.9292774677574</ele>
        <time>2021-08-05T08:14:04.128Z</time>
      </trkpt>
      <trkpt lat="42.96507239341736" lon="-0.3432369232177734">
        <ele>1224.5783861874702</ele>
        <time>2021-08-05T08:14:09.257Z</time>
      </trkpt>
      <trkpt lat="42.96499729156494" lon="-0.343397855758667">
        <ele>1222.2809196390563</ele>
        <time>2021-08-05T08:14:14.388Z</time>
      </trkpt>
      <trkpt lat="42.964900732040405" lon="-0.3434514999389648">
        <ele>1220.1474935952165</ele>
        <time>2021-08-05T08:14:19.520Z</time>
      </trkpt>
      <trkpt lat="42.96479344367981" lon="-0.3434193134307861">
        <ele>1218.1487276932658</ele>
        <time>2021-08-05T08:14:24.654Z</time>
      </trkpt>
      <trkpt lat="42.96471834182739" lon="-0.3433334827423096">
        <ele>1216.2988727513634</ele>
        <time>2021-08-05T08:14:29.790Z</time>
      </trkpt>
      <trkpt lat="42.96465405263007" lon="-0.343172550201416">
        <ele>1214.5897898934934</ele>
        <time>2021-08-05T08:14:34.928Z</time>
      </trkpt>
      <trkpt lat="42.964653968811035" lon="-0.343172550201416">
        <ele>1212.8963347367423</ele>
        <time>2021-08-05T08:14:40.066Z</time>
      </trkpt>
      <trkpt lat="42.964181900024414" lon="-0.3414881229400635">
        <ele>1211.0405694943613</ele>
        <time>2021-08-05T08:14:45.225Z</time>
      </trkpt>
      <trkpt lat="42.964149713516235" lon="-0.3413057327270508">
        <ele>1209.526239052122</ele>
        <time>2021-08-05T08:14:50.386Z</time>
      </trkpt>
      <trkpt lat="42.96407461166382" lon="-0.3400826454162598">
        <ele>1207.798091610237</ele>
        <time>2021-08-05T08:14:55.562Z</time>
      </trkpt>
      <trkpt lat="42.96407461166382" lon="-0.3399002552032471">
        <ele>1206.476727219848</ele>
        <time>2021-08-05T08:15:00.740Z</time>
      </trkpt>
      <trkpt lat="42.96404242515564" lon="-0.3397071361541748">
        <ele>1205.2302249868999</ele>
        <time>2021-08-05T08:15:05.920Z</time>
      </trkpt>
      <trkpt lat="42.96396732330322" lon="-0.3395247459411621">
        <ele>1203.9156240048792</ele>
        <time>2021-08-05T08:15:11.103Z</time>
      </trkpt>
      <trkpt lat="42.963902950286865" lon="-0.339428186416626">
        <ele>1202.6226139133623</ele>
        <time>2021-08-05T08:15:16.287Z</time>
      </trkpt>
      <trkpt lat="42.96381711959839" lon="-0.339353084564209">
        <ele>1201.3309207486607</ele>
        <time>2021-08-05T08:15:21.473Z</time>
      </trkpt>
      <trkpt lat="42.96374201774597" lon="-0.3393101692199707">
        <ele>1200.023451301028</ele>
        <time>2021-08-05T08:15:26.660Z</time>
      </trkpt>
      <trkpt lat="42.96359189786017" lon="-0.3392887115478516">
        <ele>1198.6652766746781</ele>
        <time>2021-08-05T08:15:31.850Z</time>
      </trkpt>
      <trkpt lat="42.96359181404114" lon="-0.3392887115478516">
        <ele>1197.5143089084672</ele>
        <time>2021-08-05T08:15:37.040Z</time>
      </trkpt>
      <trkpt lat="42.963430965319276" lon="-0.3393101692199707">
        <ele>1196.2163068273203</ele>
        <time>2021-08-05T08:15:42.232Z</time>
      </trkpt>
      <trkpt lat="42.96316274441779" lon="-0.3393745422363281">
        <ele>1194.8474619554822</ele>
        <time>2021-08-05T08:15:47.428Z</time>
      </trkpt>
      <trkpt lat="42.9630982875824" lon="-0.339428186416626">
        <ele>1193.6734130356044</ele>
        <time>2021-08-05T08:15:52.626Z</time>
      </trkpt>
      <trkpt lat="42.96303391456604" lon="-0.3395247459411621">
        <ele>1192.4817511007018</ele>
        <time>2021-08-05T08:15:57.825Z</time>
      </trkpt>
      <trkpt lat="42.96300172805786" lon="-0.3396105766296387">
        <ele>1191.3106942541374</ele>
        <time>2021-08-05T08:16:03.025Z</time>
      </trkpt>
      <trkpt lat="42.96300172805786" lon="-0.3397500514984131">
        <ele>1190.1261216773987</ele>
        <time>2021-08-05T08:16:08.227Z</time>
      </trkpt>
      <trkpt lat="42.96301245689392" lon="-0.3398466110229492">
        <ele>1188.9600006715336</ele>
        <time>2021-08-05T08:16:13.430Z</time>
      </trkpt>
      <trkpt lat="42.96332367695868" lon="-0.3406834602355957">
        <ele>1187.7946104856806</ele>
        <time>2021-08-05T08:16:18.644Z</time>
      </trkpt>
      <trkpt lat="42.96332359313965" lon="-0.3406834602355957">
        <ele>1186.6130169711846</ele>
        <time>2021-08-05T08:16:23.858Z</time>
      </trkpt>
      <trkpt lat="42.96347379684448" lon="-0.3411126136779785">
        <ele>1185.6525028598476</ele>
        <time>2021-08-05T08:16:29.078Z</time>
      </trkpt>
      <trkpt lat="42.96350598335266" lon="-0.3412842750549316">
        <ele>1184.3940361283326</ele>
        <time>2021-08-05T08:16:34.300Z</time>
      </trkpt>
      <trkpt lat="42.96347379684448" lon="-0.341649055480957">
        <ele>1182.8647217397627</ele>
        <time>2021-08-05T08:16:39.526Z</time>
      </trkpt>
      <trkpt lat="42.963473880663514" lon="-0.3419280052185059">
        <ele>1181.480524883319</ele>
        <time>2021-08-05T08:16:44.755Z</time>
      </trkpt>
      <trkpt lat="42.9633987788111" lon="-0.3422069549560547">
        <ele>1180.0346875552998</ele>
        <time>2021-08-05T08:16:49.988Z</time>
      </trkpt>
      <trkpt lat="42.96336650848389" lon="-0.3425395488739014">
        <ele>1178.6451113775306</ele>
        <time>2021-08-05T08:16:55.225Z</time>
      </trkpt>
      <trkpt lat="42.96330213546753" lon="-0.3428399562835693">
        <ele>1177.1473352880332</ele>
        <time>2021-08-05T08:17:00.466Z</time>
      </trkpt>
      <trkpt lat="42.96323776245117" lon="-0.3432047367095947">
        <ele>1175.569757332288</ele>
        <time>2021-08-05T08:17:05.711Z</time>
      </trkpt>
      <trkpt lat="42.96322703361511" lon="-0.3437626361846924">
        <ele>1173.523604536785</ele>
        <time>2021-08-05T08:17:10.962Z</time>
      </trkpt>
      <trkpt lat="42.96308755874634" lon="-0.3442668914794922">
        <ele>1171.4354807444713</ele>
        <time>2021-08-05T08:17:16.220Z</time>
      </trkpt>
      <trkpt lat="42.96311974525452" lon="-0.3446102142333984">
        <ele>1169.2091959248041</ele>
        <time>2021-08-05T08:17:21.482Z</time>
      </trkpt>
      <trkpt lat="42.96311974525452" lon="-0.3450179100036621">
        <ele>1167.0732893426264</ele>
        <time>2021-08-05T08:17:26.749Z</time>
      </trkpt>
      <trkpt lat="42.96302318572998" lon="-0.3455007076263428">
        <ele>1164.9011629044624</ele>
        <time>2021-08-05T08:17:32.022Z</time>
      </trkpt>
      <trkpt lat="42.96277642250061" lon="-0.3456079959869385">
        <ele>1163.074351621413</ele>
        <time>2021-08-05T08:17:37.299Z</time>
      </trkpt>
      <trkpt lat="42.962626218795776" lon="-0.3456401824951172">
        <ele>1161.121595144611</ele>
        <time>2021-08-05T08:17:42.578Z</time>
      </trkpt>
      <trkpt lat="42.96251893043518" lon="-0.3459835052490234">
        <ele>1159.036140854167</ele>
        <time>2021-08-05T08:17:47.861Z</time>
      </trkpt>
      <trkpt lat="42.96255111694336" lon="-0.347142219543457">
        <ele>1155.7755685253574</ele>
        <time>2021-08-05T08:17:53.158Z</time>
      </trkpt>
      <trkpt lat="42.96229362487793" lon="-0.348515510559082">
        <ele>1152.8583103229616</ele>
        <time>2021-08-05T08:17:58.472Z</time>
      </trkpt>
      <trkpt lat="42.962197149172425" lon="-0.3496098518371582">
        <ele>1150.0366114819803</ele>
        <time>2021-08-05T08:18:03.799Z</time>
      </trkpt>
      <trkpt lat="42.96222925186157" lon="-0.3496634960174561">
        <ele>1147.2821460876712</ele>
        <time>2021-08-05T08:18:09.127Z</time>
      </trkpt>
      <trkpt lat="42.96228289604187" lon="-0.3496420383453369">
        <ele>1144.434082987918</ele>
        <time>2021-08-05T08:18:14.455Z</time>
      </trkpt>
      <trkpt lat="42.96234726905823" lon="-0.3495562076568604">
        <ele>1141.5222232402102</ele>
        <time>2021-08-05T08:18:19.785Z</time>
      </trkpt>
      <trkpt lat="42.96235799789429" lon="-0.3492021560668945">
        <ele>1138.7859871348305</ele>
        <time>2021-08-05T08:18:25.119Z</time>
      </trkpt>
      <trkpt lat="42.962422370910645" lon="-0.3487515449523926">
        <ele>1135.8048314632056</ele>
        <time>2021-08-05T08:18:30.458Z</time>
      </trkpt>
      <trkpt lat="42.96277642250061" lon="-0.3477752208709717">
        <ele>1132.920964842211</ele>
        <time>2021-08-05T08:18:35.810Z</time>
      </trkpt>
      <trkpt lat="42.96301245689392" lon="-0.3476142883300781">
        <ele>1129.6349623665583</ele>
        <time>2021-08-05T08:18:41.166Z</time>
      </trkpt>
      <trkpt lat="42.96357035636902" lon="-0.3469491004943848">
        <ele>1126.1955737946228</ele>
        <time>2021-08-05T08:18:46.534Z</time>
      </trkpt>
      <trkpt lat="42.96375274658203" lon="-0.3462302684783936">
        <ele>1123.142437372525</ele>
        <time>2021-08-05T08:18:51.911Z</time>
      </trkpt>
      <trkpt lat="42.96380639076233" lon="-0.346144437789917">
        <ele>1120.027736234814</ele>
        <time>2021-08-05T08:18:57.290Z</time>
      </trkpt>
      <trkpt lat="42.9639458656311" lon="-0.3461337089538574">
        <ele>1116.6248398143673</ele>
        <time>2021-08-05T08:19:02.671Z</time>
      </trkpt>
      <trkpt lat="42.96398886479437" lon="-0.3461551666259766">
        <ele>1113.421730797731</ele>
        <time>2021-08-05T08:19:08.053Z</time>
      </trkpt>
      <trkpt lat="42.96407461166382" lon="-0.3463160991668701">
        <ele>1110.2188915848892</ele>
        <time>2021-08-05T08:19:13.437Z</time>
      </trkpt>
      <trkpt lat="42.9640531539917" lon="-0.3467023372650146">
        <ele>1106.954405358917</ele>
        <time>2021-08-05T08:19:18.825Z</time>
      </trkpt>
      <trkpt lat="42.96404242515564" lon="-0.347142219543457">
        <ele>1103.4776126397408</ele>
        <time>2021-08-05T08:19:24.219Z</time>
      </trkpt>
      <trkpt lat="42.96401023864746" lon="-0.347442626953125">
        <ele>1100.1691181305391</ele>
        <time>2021-08-05T08:19:29.616Z</time>
      </trkpt>
      <trkpt lat="42.96404242515564" lon="-0.3476142883300781">
        <ele>1096.933239892985</ele>
        <time>2021-08-05T08:19:35.015Z</time>
      </trkpt>
      <trkpt lat="42.964192628860474" lon="-0.3478395938873291">
        <ele>1093.7604249805368</ele>
        <time>2021-08-05T08:19:40.418Z</time>
      </trkpt>
      <trkpt lat="42.96427845954895" lon="-0.3481078147888184">
        <ele>1090.5381540285334</ele>
        <time>2021-08-05T08:19:45.824Z</time>
      </trkpt>
      <trkpt lat="42.96432137489319" lon="-0.3486013412475586">
        <ele>1087.340414341837</ele>
        <time>2021-08-05T08:19:51.236Z</time>
      </trkpt>
      <trkpt lat="42.96427845954895" lon="-0.348740816116333">
        <ele>1084.067038642644</ele>
        <time>2021-08-05T08:19:56.650Z</time>
      </trkpt>
      <trkpt lat="42.9639458656311" lon="-0.3491592407226562">
        <ele>1080.3921888105215</ele>
        <time>2021-08-05T08:20:02.071Z</time>
      </trkpt>
      <trkpt lat="42.963892221450806" lon="-0.3494489192962646">
        <ele>1077.0586383501034</ele>
        <time>2021-08-05T08:20:07.496Z</time>
      </trkpt>
      <trkpt lat="42.96378493309021" lon="-0.3503501415252686">
        <ele>1073.5870683828862</ele>
        <time>2021-08-05T08:20:12.931Z</time>
      </trkpt>
      <trkpt lat="42.96379566192627" lon="-0.3506076335906982">
        <ele>1070.37422005484</ele>
        <time>2021-08-05T08:20:18.369Z</time>
      </trkpt>
      <trkpt lat="42.96357044018805" lon="-0.3509724140167236">
        <ele>1066.8843691045968</ele>
        <time>2021-08-05T08:20:23.813Z</time>
      </trkpt>
      <trkpt lat="42.96357035636902" lon="-0.3509724140167236">
        <ele>1063.6422261240514</ele>
        <time>2021-08-05T08:20:29.257Z</time>
      </trkpt>
      <trkpt lat="42.96345233917236" lon="-0.3511655330657959">
        <ele>1060.2636651512457</ele>
        <time>2021-08-05T08:20:34.704Z</time>
      </trkpt>
      <trkpt lat="42.963398694992065" lon="-0.3514444828033447">
        <ele>1056.9036778795514</ele>
        <time>2021-08-05T08:20:40.154Z</time>
      </trkpt>
      <trkpt lat="42.963441610336304" lon="-0.3525066375732422">
        <ele>1053.4168321619422</ele>
        <time>2021-08-05T08:20:45.617Z</time>
      </trkpt>
      <trkpt lat="42.96354898251593" lon="-0.352935791015625">
        <ele>1050.1202789229399</ele>
        <time>2021-08-05T08:20:51.085Z</time>
      </trkpt>
      <trkpt lat="42.9635488986969" lon="-0.352935791015625">
        <ele>1046.8446574570755</ele>
        <time>2021-08-05T08:20:56.553Z</time>
      </trkpt>
      <trkpt lat="42.963656187057495" lon="-0.3532147407531738">
        <ele>1043.4031208187098</ele>
        <time>2021-08-05T08:21:02.025Z</time>
      </trkpt>
      <trkpt lat="42.9638493899256" lon="-0.3534078598022461">
        <ele>1040.0521839143184</ele>
        <time>2021-08-05T08:21:07.501Z</time>
      </trkpt>
      <trkpt lat="42.96398878097534" lon="-0.3536760807037354">
        <ele>1036.521306801277</ele>
        <time>2021-08-05T08:21:12.981Z</time>
      </trkpt>
      <trkpt lat="42.96407469548285" lon="-0.3539979457855225">
        <ele>1033.0923314596419</ele>
        <time>2021-08-05T08:21:18.465Z</time>
      </trkpt>
      <trkpt lat="42.96407461166382" lon="-0.3539979457855225">
        <ele>1029.7421544540898</ele>
        <time>2021-08-05T08:21:23.949Z</time>
      </trkpt>
      <trkpt lat="42.96411752700806" lon="-0.3541803359985352">
        <ele>1026.3570967518765</ele>
        <time>2021-08-05T08:21:29.435Z</time>
      </trkpt>
      <trkpt lat="42.96453595161438" lon="-0.3548884391784668">
        <ele>1022.643214716117</ele>
        <time>2021-08-05T08:21:34.931Z</time>
      </trkpt>
      <trkpt lat="42.96497583389282" lon="-0.355381965637207">
        <ele>1019.2487354465686</ele>
        <time>2021-08-05T08:21:40.437Z</time>
      </trkpt>
      <trkpt lat="42.96506174840033" lon="-0.3555107116699219">
        <ele>1015.8609813944555</ele>
        <time>2021-08-05T08:21:45.945Z</time>
      </trkpt>
      <trkpt lat="42.965168952941895" lon="-0.3556609153747559">
        <ele>1012.4086576052484</ele>
        <time>2021-08-05T08:21:51.455Z</time>
      </trkpt>
      <trkpt lat="42.96527632512152" lon="-0.355757474899292">
        <ele>1008.9310367485753</ele>
        <time>2021-08-05T08:21:56.967Z</time>
      </trkpt>
      <trkpt lat="42.9654586315155" lon="-0.3559291362762451">
        <ele>1005.2461579462661</ele>
        <time>2021-08-05T08:22:02.483Z</time>
      </trkpt>
      <trkpt lat="42.96565183438361" lon="-0.3561651706695557">
        <ele>1001.3504534501637</ele>
        <time>2021-08-05T08:22:08.003Z</time>
      </trkpt>
      <trkpt lat="42.965941512957215" lon="-0.357205867767334">
        <ele>997.6325753907149</ele>
        <time>2021-08-05T08:22:13.536Z</time>
      </trkpt>
      <trkpt lat="42.96605953015387" lon="-0.3576886653900146">
        <ele>993.8641729011076</ele>
        <time>2021-08-05T08:22:19.075Z</time>
      </trkpt>
      <trkpt lat="42.966177463531494" lon="-0.3581929206848145">
        <ele>989.9856750562085</ele>
        <time>2021-08-05T08:22:24.620Z</time>
      </trkpt>
      <trkpt lat="42.966231191530824" lon="-0.3587079048156738">
        <ele>986.0924157251286</ele>
        <time>2021-08-05T08:22:30.171Z</time>
      </trkpt>
      <trkpt lat="42.96626329421997" lon="-0.359351634979248">
        <ele>982.4346681274625</ele>
        <time>2021-08-05T08:22:35.730Z</time>
      </trkpt>
      <trkpt lat="42.96627410687506" lon="-0.3599309921264648">
        <ele>978.7160096261363</ele>
        <time>2021-08-05T08:22:41.296Z</time>
      </trkpt>
      <trkpt lat="42.9663170222193" lon="-0.3601348400115967">
        <ele>975.0443356366989</ele>
        <time>2021-08-05T08:22:46.864Z</time>
      </trkpt>
      <trkpt lat="42.96631693840027" lon="-0.3601348400115967">
        <ele>971.4753658308896</ele>
        <time>2021-08-05T08:22:52.432Z</time>
      </trkpt>
      <trkpt lat="42.966434955596924" lon="-0.3606605529785156">
        <ele>967.8279908969513</ele>
        <time>2021-08-05T08:22:58.007Z</time>
      </trkpt>
      <trkpt lat="42.96645641326904" lon="-0.3612720966339111">
        <ele>963.975424070795</ele>
        <time>2021-08-05T08:23:03.589Z</time>
      </trkpt>
      <trkpt lat="42.96672463417053" lon="-0.3624522686004639">
        <ele>960.284204849346</ele>
        <time>2021-08-05T08:23:09.185Z</time>
      </trkpt>
      <trkpt lat="42.966874837875366" lon="-0.3630423545837402">
        <ele>956.7424566755631</ele>
        <time>2021-08-05T08:23:14.789Z</time>
      </trkpt>
      <trkpt lat="42.96694993972778" lon="-0.3635680675506592">
        <ele>952.9052947617756</ele>
        <time>2021-08-05T08:23:20.399Z</time>
      </trkpt>
      <trkpt lat="42.966982210054994" lon="-0.3640615940093994">
        <ele>949.3103352588928</ele>
        <time>2021-08-05T08:23:26.015Z</time>
      </trkpt>
      <trkpt lat="42.967164516448975" lon="-0.3646945953369141">
        <ele>945.7530130392583</ele>
        <time>2021-08-05T08:23:31.639Z</time>
      </trkpt>
      <trkpt lat="42.96719670295715" lon="-0.364919900894165">
        <ele>942.3397360408019</ele>
        <time>2021-08-05T08:23:37.265Z</time>
      </trkpt>
      <trkpt lat="42.96722888946533" lon="-0.365445613861084">
        <ele>938.9570999398754</ele>
        <time>2021-08-05T08:23:42.898Z</time>
      </trkpt>
      <trkpt lat="42.96726107597351" lon="-0.365595817565918">
        <ele>935.7546138837188</ele>
        <time>2021-08-05T08:23:48.532Z</time>
      </trkpt>
      <trkpt lat="42.96748638153076" lon="-0.3661751747131348">
        <ele>932.7036816907796</ele>
        <time>2021-08-05T08:23:54.174Z</time>
      </trkpt>
      <trkpt lat="42.96759375371039" lon="-0.3666043281555176">
        <ele>929.4043867304471</ele>
        <time>2021-08-05T08:23:59.821Z</time>
      </trkpt>
      <trkpt lat="42.967679500579834" lon="-0.3670978546142578">
        <ele>926.493557483375</ele>
        <time>2021-08-05T08:24:05.474Z</time>
      </trkpt>
      <trkpt lat="42.96771168708801" lon="-0.3676235675811768">
        <ele>923.5325609179965</ele>
        <time>2021-08-05T08:24:11.134Z</time>
      </trkpt>
      <trkpt lat="42.96774387359619" lon="-0.3678274154663086">
        <ele>920.6920412754304</ele>
        <time>2021-08-05T08:24:16.796Z</time>
      </trkpt>
      <trkpt lat="42.96786189079285" lon="-0.368267297744751">
        <ele>917.7292973056583</ele>
        <time>2021-08-05T08:24:22.464Z</time>
      </trkpt>
      <trkpt lat="42.96794772148132" lon="-0.3685355186462402">
        <ele>914.9418133478246</ele>
        <time>2021-08-05T08:24:28.135Z</time>
      </trkpt>
      <trkpt lat="42.968151569366455" lon="-0.3689968585968018">
        <ele>912.2490716794107</ele>
        <time>2021-08-05T08:24:33.812Z</time>
      </trkpt>
      <trkpt lat="42.96829104423523" lon="-0.3695225715637207">
        <ele>909.5893697476827</ele>
        <time>2021-08-05T08:24:39.496Z</time>
      </trkpt>
      <trkpt lat="42.9685914516449" lon="-0.3700482845306396">
        <ele>907.0072656027971</ele>
        <time>2021-08-05T08:24:45.188Z</time>
      </trkpt>
      <trkpt lat="42.96878457069397" lon="-0.3704345226287842">
        <ele>904.4511487342875</ele>
        <time>2021-08-05T08:24:50.885Z</time>
      </trkpt>
      <trkpt lat="42.968870401382446" lon="-0.370638370513916">
        <ele>902.0345545294135</ele>
        <time>2021-08-05T08:24:56.585Z</time>
      </trkpt>
      <trkpt lat="42.968913316726685" lon="-0.37078857421875">
        <ele>899.7252289286334</ele>
        <time>2021-08-05T08:25:02.287Z</time>
      </trkpt>
      <trkpt lat="42.968924045562744" lon="-0.3709173202514648">
        <ele>897.4938982756921</ele>
        <time>2021-08-05T08:25:07.990Z</time>
      </trkpt>
      <trkpt lat="42.96885967254639" lon="-0.3712177276611328">
        <ele>895.2434086575902</ele>
        <time>2021-08-05T08:25:13.697Z</time>
      </trkpt>
      <trkpt lat="42.96883821487427" lon="-0.3713357448577881">
        <ele>893.1547602750468</ele>
        <time>2021-08-05T08:25:19.406Z</time>
      </trkpt>
      <trkpt lat="42.96884894371033" lon="-0.3714537620544434">
        <ele>891.1365192570743</ele>
        <time>2021-08-05T08:25:25.116Z</time>
      </trkpt>
      <trkpt lat="42.968881130218506" lon="-0.3716039657592773">
        <ele>889.2036964465351</ele>
        <time>2021-08-05T08:25:30.828Z</time>
      </trkpt>
      <trkpt lat="42.96906352043152" lon="-0.372011661529541">
        <ele>887.2347099853963</ele>
        <time>2021-08-05T08:25:36.545Z</time>
      </trkpt>
      <trkpt lat="42.96906352043152" lon="-0.3722691535949707">
        <ele>885.2426458246983</ele>
        <time>2021-08-05T08:25:42.265Z</time>
      </trkpt>
      <trkpt lat="42.9689884185791" lon="-0.3724515438079834">
        <ele>883.3503932379484</ele>
        <time>2021-08-05T08:25:47.988Z</time>
      </trkpt>
      <trkpt lat="42.96882748603821" lon="-0.3725695610046387">
        <ele>881.5013029509515</ele>
        <time>2021-08-05T08:25:53.714Z</time>
      </trkpt>
      <trkpt lat="42.96860218048096" lon="-0.3726339340209961">
        <ele>879.6512075935794</ele>
        <time>2021-08-05T08:25:59.443Z</time>
      </trkpt>
      <trkpt lat="42.96857007779181" lon="-0.3726232051849365">
        <ele>877.9800575817812</ele>
        <time>2021-08-05T08:26:05.173Z</time>
      </trkpt>
      <trkpt lat="42.96835541725159" lon="-0.3725481033325195">
        <ele>876.2084197944565</ele>
        <time>2021-08-05T08:26:10.907Z</time>
      </trkpt>
      <trkpt lat="42.968173027038574" lon="-0.3723657131195068">
        <ele>874.5504494764168</ele>
        <time>2021-08-05T08:26:16.644Z</time>
      </trkpt>
      <trkpt lat="42.96781897544861" lon="-0.3716897964477539">
        <ele>872.9337774328958</ele>
        <time>2021-08-05T08:26:22.391Z</time>
      </trkpt>
      <trkpt lat="42.96771168708801" lon="-0.3716361522674561">
        <ele>871.4622274301846</ele>
        <time>2021-08-05T08:26:28.140Z</time>
      </trkpt>
      <trkpt lat="42.9675829410553" lon="-0.3716361522674561">
        <ele>870.0191384404561</ele>
        <time>2021-08-05T08:26:33.891Z</time>
      </trkpt>
      <trkpt lat="42.96749711036682" lon="-0.3717219829559326">
        <ele>868.6117133900046</ele>
        <time>2021-08-05T08:26:39.643Z</time>
      </trkpt>
      <trkpt lat="42.967400550842285" lon="-0.3719043731689453">
        <ele>867.2186785838968</ele>
        <time>2021-08-05T08:26:45.398Z</time>
      </trkpt>
      <trkpt lat="42.967379093170166" lon="-0.3722262382507324">
        <ele>865.8434532864337</ele>
        <time>2021-08-05T08:26:51.157Z</time>
      </trkpt>
      <trkpt lat="42.967432821169496" lon="-0.3726553916931152">
        <ele>864.6077611757032</ele>
        <time>2021-08-05T08:26:56.921Z</time>
      </trkpt>
      <trkpt lat="42.967529296875" lon="-0.3735029697418213">
        <ele>863.534800303107</ele>
        <time>2021-08-05T08:27:02.695Z</time>
      </trkpt>
      <trkpt lat="42.96749711036682" lon="-0.3742647171020508">
        <ele>862.5189038611743</ele>
        <time>2021-08-05T08:27:08.478Z</time>
      </trkpt>
      <trkpt lat="42.96759366989136" lon="-0.3748548030853271">
        <ele>861.1627740932269</ele>
        <time>2021-08-05T08:27:14.268Z</time>
      </trkpt>
      <trkpt lat="42.967636585235596" lon="-0.3753268718719482">
        <ele>860.0105344731912</ele>
        <time>2021-08-05T08:27:20.064Z</time>
      </trkpt>
      <trkpt lat="42.96776533126831" lon="-0.3755414485931396">
        <ele>859.0857750556172</ele>
        <time>2021-08-05T08:27:25.863Z</time>
      </trkpt>
      <trkpt lat="42.967915534973145" lon="-0.3756701946258545">
        <ele>858.1073930067032</ele>
        <time>2021-08-05T08:27:31.665Z</time>
      </trkpt>
      <trkpt lat="42.9679799079895" lon="-0.3757989406585693">
        <ele>857.1896111965696</ele>
        <time>2021-08-05T08:27:37.469Z</time>
      </trkpt>
      <trkpt lat="42.96796917915344" lon="-0.3759598731994629">
        <ele>856.3160220431491</ele>
        <time>2021-08-05T08:27:43.275Z</time>
      </trkpt>
      <trkpt lat="42.96778687275946" lon="-0.3761529922485352">
        <ele>855.6807197365655</ele>
        <time>2021-08-05T08:27:49.084Z</time>
      </trkpt>
      <trkpt lat="42.96756156720221" lon="-0.3763782978057861">
        <ele>855.4164195170283</ele>
        <time>2021-08-05T08:27:54.898Z</time>
      </trkpt>
      <trkpt lat="42.96749711036682" lon="-0.3764641284942627">
        <ele>854.9760511239244</ele>
        <time>2021-08-05T08:28:00.713Z</time>
      </trkpt>
      <trkpt lat="42.96748638153076" lon="-0.3766036033630371">
        <ele>854.3822918022347</ele>
        <time>2021-08-05T08:28:06.530Z</time>
      </trkpt>
      <trkpt lat="42.96750783920288" lon="-0.3767859935760498">
        <ele>853.7600370406642</ele>
        <time>2021-08-05T08:28:12.349Z</time>
      </trkpt>
      <trkpt lat="42.96754002571106" lon="-0.3769254684448242">
        <ele>853.1828863724063</ele>
        <time>2021-08-05T08:28:18.170Z</time>
      </trkpt>
      <trkpt lat="42.96759366989136" lon="-0.3770327568054199">
        <ele>852.525900629859</ele>
        <time>2021-08-05T08:28:23.992Z</time>
      </trkpt>
      <trkpt lat="42.96782970428467" lon="-0.3773009777069092">
        <ele>851.289829555508</ele>
        <time>2021-08-05T08:28:29.819Z</time>
      </trkpt>
      <trkpt lat="42.967894077301025" lon="-0.3773975372314453">
        <ele>850.5740832244473</ele>
        <time>2021-08-05T08:28:35.648Z</time>
      </trkpt>
      <trkpt lat="42.967926263809204" lon="-0.3774940967559814">
        <ele>849.9971317575256</ele>
        <time>2021-08-05T08:28:41.478Z</time>
      </trkpt>
      <trkpt lat="42.967936992645264" lon="-0.3776013851165771">
        <ele>849.495094302855</ele>
        <time>2021-08-05T08:28:47.309Z</time>
      </trkpt>
      <trkpt lat="42.96794772148132" lon="-0.3779983520507812">
        <ele>849.2924149933037</ele>
        <time>2021-08-05T08:28:53.145Z</time>
      </trkpt>
      <trkpt lat="42.96796917915344" lon="-0.3781378269195557">
        <ele>848.7895372732603</ele>
        <time>2021-08-05T08:28:58.983Z</time>
      </trkpt>
      <trkpt lat="42.968162298202515" lon="-0.3785884380340576">
        <ele>847.9699068902444</ele>
        <time>2021-08-05T08:29:04.827Z</time>
      </trkpt>
      <trkpt lat="42.968183755874634" lon="-0.378727912902832">
        <ele>847.4329539281314</ele>
        <time>2021-08-05T08:29:10.672Z</time>
      </trkpt>
      <trkpt lat="42.968151569366455" lon="-0.3791570663452148">
        <ele>847.1800395604894</ele>
        <time>2021-08-05T08:29:16.522Z</time>
      </trkpt>
      <trkpt lat="42.968162298202515" lon="-0.3792428970336914">
        <ele>846.7377060397632</ele>
        <time>2021-08-05T08:29:22.373Z</time>
      </trkpt>
      <trkpt lat="42.96819448471069" lon="-0.3793179988861084">
        <ele>846.2536254270067</ele>
        <time>2021-08-05T08:29:28.225Z</time>
      </trkpt>
      <trkpt lat="42.96830177307129" lon="-0.379403829574585">
        <ele>845.6091474593429</ele>
        <time>2021-08-05T08:29:34.079Z</time>
      </trkpt>
      <trkpt lat="42.96836614608765" lon="-0.3794360160827637">
        <ele>845.0258573568881</ele>
        <time>2021-08-05T08:29:39.935Z</time>
      </trkpt>
      <trkpt lat="42.9685378074646" lon="-0.3794467449188232">
        <ele>844.2901389207468</ele>
        <time>2021-08-05T08:29:45.793Z</time>
      </trkpt>
      <trkpt lat="42.968688011169434" lon="-0.3795003890991211">
        <ele>843.7274796437923</ele>
        <time>2021-08-05T08:29:51.654Z</time>
      </trkpt>
      <trkpt lat="42.96874165534973" lon="-0.3795540332794189">
        <ele>843.2509504265321</ele>
        <time>2021-08-05T08:29:57.516Z</time>
      </trkpt>
      <trkpt lat="42.96882748603821" lon="-0.3797471523284912">
        <ele>842.7831751255985</ele>
        <time>2021-08-05T08:30:03.381Z</time>
      </trkpt>
      <trkpt lat="42.96884894371033" lon="-0.3799617290496826">
        <ele>842.4041799800079</ele>
        <time>2021-08-05T08:30:09.248Z</time>
      </trkpt>
      <trkpt lat="42.96883821487427" lon="-0.3800475597381592">
        <ele>842.1031552522477</ele>
        <time>2021-08-05T08:30:15.116Z</time>
      </trkpt>
      <trkpt lat="42.96877384185791" lon="-0.380176305770874">
        <ele>841.9239118548869</ele>
        <time>2021-08-05T08:30:20.986Z</time>
      </trkpt>
      <trkpt lat="42.968655824661255" lon="-0.3803372383117676">
        <ele>841.9395184859015</ele>
        <time>2021-08-05T08:30:26.859Z</time>
      </trkpt>
      <trkpt lat="42.968623638153076" lon="-0.3803908824920654">
        <ele>841.7409867558433</ele>
        <time>2021-08-05T08:30:32.732Z</time>
      </trkpt>
      <trkpt lat="42.96861290931702" lon="-0.3805732727050781">
        <ele>841.4934037888077</ele>
        <time>2021-08-05T08:30:38.608Z</time>
      </trkpt>
      <trkpt lat="42.968666553497314" lon="-0.3807127475738525">
        <ele>841.13656984366</ele>
        <time>2021-08-05T08:30:44.485Z</time>
      </trkpt>
      <trkpt lat="42.96881675720215" lon="-0.3808844089508057">
        <ele>840.6264559541703</ele>
        <time>2021-08-05T08:30:50.366Z</time>
      </trkpt>
      <trkpt lat="42.96888121403754" lon="-0.3809273242950439">
        <ele>840.2848411389596</ele>
        <time>2021-08-05T08:30:56.248Z</time>
      </trkpt>
      <trkpt lat="42.968881130218506" lon="-0.3809273242950439">
        <ele>840.0563531808161</ele>
        <time>2021-08-05T08:31:02.130Z</time>
      </trkpt>
      <trkpt lat="42.968934774398804" lon="-0.3809487819671631">
        <ele>839.7563956305232</ele>
        <time>2021-08-05T08:31:08.013Z</time>
      </trkpt>
      <trkpt lat="42.96900987625122" lon="-0.3809380531311035">
        <ele>839.40835914554</ele>
        <time>2021-08-05T08:31:13.897Z</time>
      </trkpt>
      <trkpt lat="42.96919226646423" lon="-0.3809058666229248">
        <ele>839.1024423219023</ele>
        <time>2021-08-05T08:31:19.784Z</time>
      </trkpt>
      <trkpt lat="42.96931028366089" lon="-0.3809380531311035">
        <ele>838.8730551940142</ele>
        <time>2021-08-05T08:31:25.673Z</time>
      </trkpt>
      <trkpt lat="42.96936392784119" lon="-0.3809916973114014">
        <ele>838.7099714198896</ele>
        <time>2021-08-05T08:31:31.563Z</time>
      </trkpt>
      <trkpt lat="42.969396114349365" lon="-0.3810560703277588">
        <ele>838.5532599145198</ele>
        <time>2021-08-05T08:31:37.454Z</time>
      </trkpt>
      <trkpt lat="42.969460571184754" lon="-0.3812599182128906">
        <ele>838.4587291165087</ele>
        <time>2021-08-05T08:31:43.347Z</time>
      </trkpt>
      <trkpt lat="42.96946048736572" lon="-0.3812599182128906">
        <ele>838.2859107471031</ele>
        <time>2021-08-05T08:31:49.240Z</time>
      </trkpt>
      <trkpt lat="42.96953558921814" lon="-0.3813672065734863">
        <ele>838.1660009054467</ele>
        <time>2021-08-05T08:31:55.135Z</time>
      </trkpt>
      <trkpt lat="42.969685792922974" lon="-0.3814637660980225">
        <ele>837.9516016869899</ele>
        <time>2021-08-05T08:32:01.033Z</time>
      </trkpt>
      <trkpt lat="42.96973943710327" lon="-0.3815174102783203">
        <ele>837.7401597302037</ele>
        <time>2021-08-05T08:32:06.932Z</time>
      </trkpt>
      <trkpt lat="42.96977162361145" lon="-0.3815925121307373">
        <ele>837.5301586066862</ele>
        <time>2021-08-05T08:32:12.832Z</time>
      </trkpt>
      <trkpt lat="42.96980381011963" lon="-0.3817105293273926">
        <ele>837.2897882955082</ele>
        <time>2021-08-05T08:32:18.733Z</time>
      </trkpt>
      <trkpt lat="42.96983599662781" lon="-0.3822147846221924">
        <ele>837.0542273763951</ele>
        <time>2021-08-05T08:32:24.640Z</time>
      </trkpt>
      <trkpt lat="42.96984672546387" lon="-0.3823757171630859">
        <ele>836.7201510269131</ele>
        <time>2021-08-05T08:32:30.549Z</time>
      </trkpt>
      <trkpt lat="42.969868183135986" lon="-0.3824722766876221">
        <ele>836.3467567949408</ele>
        <time>2021-08-05T08:32:36.459Z</time>
      </trkpt>
      <trkpt lat="42.969900369644165" lon="-0.3825259208679199">
        <ele>835.9317531659749</ele>
        <time>2021-08-05T08:32:42.370Z</time>
      </trkpt>
      <trkpt lat="42.969932556152344" lon="-0.3825581073760986">
        <ele>835.4685335687507</ele>
        <time>2021-08-05T08:32:48.282Z</time>
      </trkpt>
      <trkpt lat="42.969954097643495" lon="-0.3825473785400391">
        <ele>834.9598436011736</ele>
        <time>2021-08-05T08:32:54.194Z</time>
      </trkpt>
      <trkpt lat="42.96995401382446" lon="-0.3825473785400391">
        <ele>834.4087020347719</ele>
        <time>2021-08-05T08:33:00.106Z</time>
      </trkpt>
      <trkpt lat="42.9699969291687" lon="-0.3825151920318604">
        <ele>833.7660867155623</ele>
        <time>2021-08-05T08:33:06.019Z</time>
      </trkpt>
      <trkpt lat="42.97001838684082" lon="-0.3824079036712646">
        <ele>833.055861764295</ele>
        <time>2021-08-05T08:33:11.933Z</time>
      </trkpt>
      <trkpt lat="42.96996474266052" lon="-0.3821182250976562">
        <ele>832.3324969258657</ele>
        <time>2021-08-05T08:33:17.851Z</time>
      </trkpt>
      <trkpt lat="42.96997547149658" lon="-0.3816676139831543">
        <ele>831.4161817826032</ele>
        <time>2021-08-05T08:33:23.774Z</time>
      </trkpt>
      <trkpt lat="42.96996474266052" lon="-0.3815710544586182">
        <ele>830.5041758359309</ele>
        <time>2021-08-05T08:33:29.698Z</time>
      </trkpt>
      <trkpt lat="42.969932556152344" lon="-0.3814637660980225">
        <ele>829.525927688002</ele>
        <time>2021-08-05T08:33:35.623Z</time>
      </trkpt>
      <trkpt lat="42.96976089477539" lon="-0.3811526298522949">
        <ele>828.426784248145</ele>
        <time>2021-08-05T08:33:41.553Z</time>
      </trkpt>
      <trkpt lat="42.969675064086914" lon="-0.380852222442627">
        <ele>827.137789063446</ele>
        <time>2021-08-05T08:33:47.487Z</time>
      </trkpt>
      <trkpt lat="42.969675064086914" lon="-0.3806591033935547">
        <ele>825.7926247858086</ele>
        <time>2021-08-05T08:33:53.423Z</time>
      </trkpt>
      <trkpt lat="42.96969652175903" lon="-0.3806161880493164">
        <ele>824.421584530935</ele>
        <time>2021-08-05T08:33:59.360Z</time>
      </trkpt>
      <trkpt lat="42.969728792086244" lon="-0.3805947303771973">
        <ele>822.9554818989033</ele>
        <time>2021-08-05T08:34:05.297Z</time>
      </trkpt>
      <trkpt lat="42.96972870826721" lon="-0.3805947303771973">
        <ele>821.4465327315232</ele>
        <time>2021-08-05T08:34:11.234Z</time>
      </trkpt>
      <trkpt lat="42.96976089477539" lon="-0.3805947303771973">
        <ele>819.8044203304532</ele>
        <time>2021-08-05T08:34:17.172Z</time>
      </trkpt>
      <trkpt lat="42.96983599662781" lon="-0.3806483745574951">
        <ele>818.0674736169808</ele>
        <time>2021-08-05T08:34:23.111Z</time>
      </trkpt>
      <trkpt lat="42.97003984451294" lon="-0.3810024261474609">
        <ele>816.3214953072825</ele>
        <time>2021-08-05T08:34:29.055Z</time>
      </trkpt>
      <trkpt lat="42.97007203102112" lon="-0.3810882568359375">
        <ele>814.4450787223088</ele>
        <time>2021-08-05T08:34:35.001Z</time>
      </trkpt>
      <trkpt lat="42.97028660774231" lon="-0.382075309753418">
        <ele>812.5231148452403</ele>
        <time>2021-08-05T08:34:40.959Z</time>
      </trkpt>
      <trkpt lat="42.97034025192261" lon="-0.3821933269500732">
        <ele>810.416289733784</ele>
        <time>2021-08-05T08:34:46.918Z</time>
      </trkpt>
      <trkpt lat="42.970383167266846" lon="-0.3822791576385498">
        <ele>808.235603458093</ele>
        <time>2021-08-05T08:34:52.879Z</time>
      </trkpt>
      <trkpt lat="42.97045826911926" lon="-0.3823542594909668">
        <ele>805.9559495819528</ele>
        <time>2021-08-05T08:34:58.841Z</time>
      </trkpt>
      <trkpt lat="42.97053337097168" lon="-0.3824186325073242">
        <ele>803.5863231841952</ele>
        <time>2021-08-05T08:35:04.804Z</time>
      </trkpt>
      <trkpt lat="42.97098398208618" lon="-0.382697582244873">
        <ele>800.8716097249217</ele>
        <time>2021-08-05T08:35:10.775Z</time>
      </trkpt>
      <trkpt lat="42.97109127044678" lon="-0.3828263282775879">
        <ele>798.354108157338</ele>
        <time>2021-08-05T08:35:16.749Z</time>
      </trkpt>
      <trkpt lat="42.97153115272522" lon="-0.3841030597686768">
        <ele>795.6231057894678</ele>
        <time>2021-08-05T08:35:22.739Z</time>
      </trkpt>
      <trkpt lat="42.97181010246277" lon="-0.3847038745880127">
        <ele>792.6858022353538</ele>
        <time>2021-08-05T08:35:28.738Z</time>
      </trkpt>
      <trkpt lat="42.971885204315186" lon="-0.3851008415222168">
        <ele>789.8749379305328</ele>
        <time>2021-08-05T08:35:34.741Z</time>
      </trkpt>
      <trkpt lat="42.97184228897095" lon="-0.3855299949645996">
        <ele>787.179369999157</ele>
        <time>2021-08-05T08:35:40.749Z</time>
      </trkpt>
      <trkpt lat="42.97170281410217" lon="-0.3862595558166504">
        <ele>784.9632480494756</ele>
        <time>2021-08-05T08:35:46.766Z</time>
      </trkpt>
      <trkpt lat="42.972153425216675" lon="-0.3879225254058838">
        <ele>781.4182307901971</ele>
        <time>2021-08-05T08:35:52.804Z</time>
      </trkpt>
      <trkpt lat="42.97220706939697" lon="-0.3883731365203857">
        <ele>778.4648405199559</ele>
        <time>2021-08-05T08:35:58.847Z</time>
      </trkpt>
      <trkpt lat="42.972378730773926" lon="-0.3888022899627686">
        <ele>775.290235701659</ele>
        <time>2021-08-05T08:36:04.896Z</time>
      </trkpt>
      <trkpt lat="42.97258257865906" lon="-0.3891992568969727">
        <ele>772.2321469941924</ele>
        <time>2021-08-05T08:36:10.951Z</time>
      </trkpt>
      <trkpt lat="42.97273278236389" lon="-0.3897678852081299">
        <ele>769.3895756547798</ele>
        <time>2021-08-05T08:36:17.013Z</time>
      </trkpt>
      <trkpt lat="42.97280788421631" lon="-0.3901433944702148">
        <ele>766.4892214567926</ele>
        <time>2021-08-05T08:36:23.080Z</time>
      </trkpt>
      <trkpt lat="42.972915172576904" lon="-0.3905081748962402">
        <ele>763.5602786548782</ele>
        <time>2021-08-05T08:36:29.151Z</time>
      </trkpt>
      <trkpt lat="42.97311910428107" lon="-0.3909802436828613">
        <ele>760.3270678203261</ele>
        <time>2021-08-05T08:36:35.229Z</time>
      </trkpt>
      <trkpt lat="42.973119020462036" lon="-0.3909802436828613">
        <ele>757.7215605483091</ele>
        <time>2021-08-05T08:36:41.307Z</time>
      </trkpt>
      <trkpt lat="42.973140478134155" lon="-0.3910338878631592">
        <ele>755.1778697483107</ele>
        <time>2021-08-05T08:36:47.385Z</time>
      </trkpt>
      <trkpt lat="42.97320485115051" lon="-0.3911840915679932">
        <ele>752.6857078572572</ele>
        <time>2021-08-05T08:36:53.465Z</time>
      </trkpt>
      <trkpt lat="42.97322630882263" lon="-0.3913342952728271">
        <ele>750.2955373720217</ele>
        <time>2021-08-05T08:36:59.547Z</time>
      </trkpt>
      <trkpt lat="42.97323703765869" lon="-0.391387939453125">
        <ele>747.9889287780147</ele>
        <time>2021-08-05T08:37:05.630Z</time>
      </trkpt>
      <trkpt lat="42.973161935806274" lon="-0.3915703296661377">
        <ele>745.8184399085342</ele>
        <time>2021-08-05T08:37:11.715Z</time>
      </trkpt>
      <trkpt lat="42.97278642654419" lon="-0.3919994831085205">
        <ele>743.6554514436739</ele>
        <time>2021-08-05T08:37:17.808Z</time>
      </trkpt>
      <trkpt lat="42.97273278236389" lon="-0.3921067714691162">
        <ele>741.6096285143942</ele>
        <time>2021-08-05T08:37:23.903Z</time>
      </trkpt>
      <trkpt lat="42.97284015454352" lon="-0.3922677040100098">
        <ele>739.6511685523212</ele>
        <time>2021-08-05T08:37:30.000Z</time>
      </trkpt>
      <trkpt lat="42.972968900576234" lon="-0.392460823059082">
        <ele>737.5891910858658</ele>
        <time>2021-08-05T08:37:36.100Z</time>
      </trkpt>
      <trkpt lat="42.97307618893683" lon="-0.3926217555999756">
        <ele>735.6124793521446</ele>
        <time>2021-08-05T08:37:42.203Z</time>
      </trkpt>
      <trkpt lat="42.97311910428107" lon="-0.3926968574523926">
        <ele>733.7994445381948</ele>
        <time>2021-08-05T08:37:48.307Z</time>
      </trkpt>
      <trkpt lat="42.97315129078925" lon="-0.39276123046875">
        <ele>732.1043710581457</ele>
        <time>2021-08-05T08:37:54.412Z</time>
      </trkpt>
      <trkpt lat="42.97351607121527" lon="-0.3933405876159668">
        <ele>730.2696154272026</ele>
        <time>2021-08-05T08:38:00.526Z</time>
      </trkpt>
      <trkpt lat="42.973655546084046" lon="-0.3935658931732178">
        <ele>728.8467937941734</ele>
        <time>2021-08-05T08:38:06.643Z</time>
      </trkpt>
      <trkpt lat="42.973870038986206" lon="-0.3938770294189453">
        <ele>727.4537834490538</ele>
        <time>2021-08-05T08:38:12.765Z</time>
      </trkpt>
      <trkpt lat="42.973923683166504" lon="-0.3939735889434814">
        <ele>726.0973923930195</ele>
        <time>2021-08-05T08:38:18.889Z</time>
      </trkpt>
      <trkpt lat="42.97396659851074" lon="-0.3941237926483154">
        <ele>724.8564868596322</ele>
        <time>2021-08-05T08:38:25.015Z</time>
      </trkpt>
      <trkpt lat="42.97400951385498" lon="-0.3944027423858643">
        <ele>723.731707359221</ele>
        <time>2021-08-05T08:38:31.144Z</time>
      </trkpt>
      <trkpt lat="42.97402024269104" lon="-0.3947246074676514">
        <ele>722.750953312692</ele>
        <time>2021-08-05T08:38:37.277Z</time>
      </trkpt>
      <trkpt lat="42.97407388687134" lon="-0.3950464725494385">
        <ele>721.6074947329328</ele>
        <time>2021-08-05T08:38:43.414Z</time>
      </trkpt>
      <trkpt lat="42.974170446395874" lon="-0.3954434394836426">
        <ele>720.1590497451479</ele>
        <time>2021-08-05T08:38:49.556Z</time>
      </trkpt>
      <trkpt lat="42.974181175231934" lon="-0.3956687450408936">
        <ele>718.9397454783564</ele>
        <time>2021-08-05T08:38:55.700Z</time>
      </trkpt>
      <trkpt lat="42.974138259887695" lon="-0.3957974910736084">
        <ele>717.9431075777484</ele>
        <time>2021-08-05T08:39:01.846Z</time>
      </trkpt>
      <trkpt lat="42.97406315803528" lon="-0.3959691524505615">
        <ele>717.1516750706676</ele>
        <time>2021-08-05T08:39:07.994Z</time>
      </trkpt>
      <trkpt lat="42.9740309715271" lon="-0.3960871696472168">
        <ele>716.2468006189422</ele>
        <time>2021-08-05T08:39:14.144Z</time>
      </trkpt>
      <trkpt lat="42.97402024269104" lon="-0.3965592384338379">
        <ele>714.9134041344623</ele>
        <time>2021-08-05T08:39:20.299Z</time>
      </trkpt>
      <trkpt lat="42.97395586967468" lon="-0.3967845439910889">
        <ele>713.8898503163468</ele>
        <time>2021-08-05T08:39:26.457Z</time>
      </trkpt>
      <trkpt lat="42.97384858131409" lon="-0.3970742225646973">
        <ele>712.9502111191707</ele>
        <time>2021-08-05T08:39:32.619Z</time>
      </trkpt>
      <trkpt lat="42.97383785247803" lon="-0.3972029685974121">
        <ele>711.9676445826183</ele>
        <time>2021-08-05T08:39:38.782Z</time>
      </trkpt>
      <trkpt lat="42.97384858131409" lon="-0.3973424434661865">
        <ele>710.9508135932033</ele>
        <time>2021-08-05T08:39:44.947Z</time>
      </trkpt>
      <trkpt lat="42.973891496658325" lon="-0.3975033760070801">
        <ele>709.9004018984695</ele>
        <time>2021-08-05T08:39:51.114Z</time>
      </trkpt>
      <trkpt lat="42.97395586967468" lon="-0.3976428508758545">
        <ele>708.8534397805721</ele>
        <time>2021-08-05T08:39:57.283Z</time>
      </trkpt>
      <trkpt lat="42.974181175231934" lon="-0.3979218006134033">
        <ele>707.7234212224314</ele>
        <time>2021-08-05T08:40:03.457Z</time>
      </trkpt>
      <trkpt lat="42.97426700592041" lon="-0.3981149196624756">
        <ele>706.7745177313925</ele>
        <time>2021-08-05T08:40:09.634Z</time>
      </trkpt>
      <trkpt lat="42.97429919242859" lon="-0.39825439453125">
        <ele>705.8056401267385</ele>
        <time>2021-08-05T08:40:15.812Z</time>
      </trkpt>
      <trkpt lat="42.97434210777283" lon="-0.398705005645752">
        <ele>705.0035577999781</ele>
        <time>2021-08-05T08:40:21.996Z</time>
      </trkpt>
      <trkpt lat="42.97444939613342" lon="-0.3992307186126709">
        <ele>703.7083559252308</ele>
        <time>2021-08-05T08:40:28.186Z</time>
      </trkpt>
      <trkpt lat="42.97447085380554" lon="-0.3995096683502197">
        <ele>702.4369910138707</ele>
        <time>2021-08-05T08:40:34.379Z</time>
      </trkpt>
      <trkpt lat="42.97447085380554" lon="-0.399777889251709">
        <ele>701.1516162661155</ele>
        <time>2021-08-05T08:40:40.575Z</time>
      </trkpt>
      <trkpt lat="42.974417209625244" lon="-0.4003572463989258">
        <ele>699.847869867014</ele>
        <time>2021-08-05T08:40:46.778Z</time>
      </trkpt>
      <trkpt lat="42.974417209625244" lon="-0.4005396366119385">
        <ele>698.6537590481774</ele>
        <time>2021-08-05T08:40:52.983Z</time>
      </trkpt>
      <trkpt lat="42.97443866729736" lon="-0.4007220268249512">
        <ele>697.4093101940671</ele>
        <time>2021-08-05T08:40:59.191Z</time>
      </trkpt>
      <trkpt lat="42.974674701690674" lon="-0.4020416736602783">
        <ele>695.9148571527327</ele>
        <time>2021-08-05T08:41:05.415Z</time>
      </trkpt>
      <trkpt lat="42.974674701690674" lon="-0.402374267578125">
        <ele>694.3753217422412</ele>
        <time>2021-08-05T08:41:11.642Z</time>
      </trkpt>
      <trkpt lat="42.974664056673646" lon="-0.4027283191680908">
        <ele>692.9540482826758</ele>
        <time>2021-08-05T08:41:17.874Z</time>
      </trkpt>
      <trkpt lat="42.974663972854614" lon="-0.4027283191680908">
        <ele>691.5662407997698</ele>
        <time>2021-08-05T08:41:24.106Z</time>
      </trkpt>
      <trkpt lat="42.97472842969" lon="-0.4031145572662354">
        <ele>690.2441688797101</ele>
        <time>2021-08-05T08:41:30.342Z</time>
      </trkpt>
      <trkpt lat="42.97472834587097" lon="-0.4031145572662354">
        <ele>688.7959927345164</ele>
        <time>2021-08-05T08:41:36.578Z</time>
      </trkpt>
      <trkpt lat="42.97477126121521" lon="-0.4032540321350098">
        <ele>687.357855686824</ele>
        <time>2021-08-05T08:41:42.816Z</time>
      </trkpt>
      <trkpt lat="42.97482490539551" lon="-0.4033827781677246">
        <ele>685.8225726648409</ele>
        <time>2021-08-05T08:41:49.056Z</time>
      </trkpt>
      <trkpt lat="42.974878549575806" lon="-0.4035544395446777">
        <ele>684.1884160533087</ele>
        <time>2021-08-05T08:41:55.298Z</time>
      </trkpt>
      <trkpt lat="42.97495365142822" lon="-0.4040694236755371">
        <ele>682.544558090794</ele>
        <time>2021-08-05T08:42:01.546Z</time>
      </trkpt>
      <trkpt lat="42.97506093978882" lon="-0.4042518138885498">
        <ele>680.8049220196203</ele>
        <time>2021-08-05T08:42:07.797Z</time>
      </trkpt>
      <trkpt lat="42.97558665275574" lon="-0.4049813747406006">
        <ele>679.136533643627</ele>
        <time>2021-08-05T08:42:14.060Z</time>
      </trkpt>
      <trkpt lat="42.97573685646057" lon="-0.4050993919372559">
        <ele>677.37102515625</ele>
        <time>2021-08-05T08:42:20.326Z</time>
      </trkpt>
      <trkpt lat="42.976219737902284" lon="-0.4053246974945068">
        <ele>675.2532164966296</ele>
        <time>2021-08-05T08:42:26.600Z</time>
      </trkpt>
      <trkpt lat="42.976402044296265" lon="-0.4054534435272217">
        <ele>673.5658131644163</ele>
        <time>2021-08-05T08:42:32.877Z</time>
      </trkpt>
      <trkpt lat="42.97657370567322" lon="-0.4056465625762939">
        <ele>671.9760750938275</ele>
        <time>2021-08-05T08:42:39.158Z</time>
      </trkpt>
      <trkpt lat="42.97668099403381" lon="-0.4058611392974854">
        <ele>670.40456215485</ele>
        <time>2021-08-05T08:42:45.442Z</time>
      </trkpt>
      <trkpt lat="42.97684192657471" lon="-0.406644344329834">
        <ele>668.819024861039</ele>
        <time>2021-08-05T08:42:51.735Z</time>
      </trkpt>
      <trkpt lat="42.976917028427124" lon="-0.4068267345428467">
        <ele>667.1483606288546</ele>
        <time>2021-08-05T08:42:58.031Z</time>
      </trkpt>
      <trkpt lat="42.9770028591156" lon="-0.4069983959197998">
        <ele>665.4586546268738</ele>
        <time>2021-08-05T08:43:04.329Z</time>
      </trkpt>
      <trkpt lat="42.97707796096802" lon="-0.4070842266082764">
        <ele>663.8724395024858</ele>
        <time>2021-08-05T08:43:10.629Z</time>
      </trkpt>
      <trkpt lat="42.97722816467285" lon="-0.4071807861328125">
        <ele>662.244733437547</ele>
        <time>2021-08-05T08:43:16.931Z</time>
      </trkpt>
      <trkpt lat="42.977389097213745" lon="-0.4072773456573486">
        <ele>660.6256977883236</ele>
        <time>2021-08-05T08:43:23.236Z</time>
      </trkpt>
      <trkpt lat="42.97757148742676" lon="-0.4074060916900635">
        <ele>659.027013755819</ele>
        <time>2021-08-05T08:43:29.545Z</time>
      </trkpt>
      <trkpt lat="42.97768950462341" lon="-0.4075455665588379">
        <ele>657.5060328239199</ele>
        <time>2021-08-05T08:43:35.856Z</time>
      </trkpt>
      <trkpt lat="42.97777533531189" lon="-0.4076743125915527">
        <ele>656.0029425054856</ele>
        <time>2021-08-05T08:43:42.169Z</time>
      </trkpt>
      <trkpt lat="42.97785043716431" lon="-0.407867431640625">
        <ele>654.514456716078</ele>
        <time>2021-08-05T08:43:48.485Z</time>
      </trkpt>
      <trkpt lat="42.977914810180664" lon="-0.4080820083618164">
        <ele>653.0553385888319</ele>
        <time>2021-08-05T08:43:54.803Z</time>
      </trkpt>
      <trkpt lat="42.97794699668884" lon="-0.4083609580993652">
        <ele>651.645938888995</ele>
        <time>2021-08-05T08:44:01.125Z</time>
      </trkpt>
      <trkpt lat="42.97794699668884" lon="-0.4090368747711182">
        <ele>650.1917024548274</ele>
        <time>2021-08-05T08:44:07.455Z</time>
      </trkpt>
      <trkpt lat="42.9779577255249" lon="-0.4092192649841309">
        <ele>648.7441276153679</ele>
        <time>2021-08-05T08:44:13.787Z</time>
      </trkpt>
      <trkpt lat="42.97798991203308" lon="-0.4094231128692627">
        <ele>647.3007114060579</ele>
        <time>2021-08-05T08:44:20.121Z</time>
      </trkpt>
      <trkpt lat="42.97834396362305" lon="-0.4102599620819092">
        <ele>645.7538304789227</ele>
        <time>2021-08-05T08:44:26.467Z</time>
      </trkpt>
      <trkpt lat="42.978365421295166" lon="-0.4104423522949219">
        <ele>644.2561228224369</ele>
        <time>2021-08-05T08:44:32.815Z</time>
      </trkpt>
      <trkpt lat="42.978354692459106" lon="-0.4106569290161133">
        <ele>642.7571356652104</ele>
        <time>2021-08-05T08:44:39.165Z</time>
      </trkpt>
      <trkpt lat="42.97821521759033" lon="-0.4112577438354492">
        <ele>641.3607459625921</ele>
        <time>2021-08-05T08:44:45.523Z</time>
      </trkpt>
      <trkpt lat="42.978140115737915" lon="-0.4118907451629639">
        <ele>639.9786394384571</ele>
        <time>2021-08-05T08:44:51.888Z</time>
      </trkpt>
      <trkpt lat="42.97808647155762" lon="-0.412137508392334">
        <ele>638.4973528311972</ele>
        <time>2021-08-05T08:44:58.256Z</time>
      </trkpt>
      <trkpt lat="42.97782897949219" lon="-0.4128563404083252">
        <ele>637.2672152530373</ele>
        <time>2021-08-05T08:45:04.634Z</time>
      </trkpt>
      <trkpt lat="42.97778614796698" lon="-0.4131889343261719">
        <ele>635.5942253258804</ele>
        <time>2021-08-05T08:45:11.016Z</time>
      </trkpt>
      <trkpt lat="42.97778606414795" lon="-0.4131889343261719">
        <ele>634.1355749845741</ele>
        <time>2021-08-05T08:45:17.398Z</time>
      </trkpt>
      <trkpt lat="42.97773241996765" lon="-0.4136824607849121">
        <ele>632.308880230217</ele>
        <time>2021-08-05T08:45:23.785Z</time>
      </trkpt>
      <trkpt lat="42.977646589279175" lon="-0.4140472412109375">
        <ele>630.8994478772379</ele>
        <time>2021-08-05T08:45:30.177Z</time>
      </trkpt>
      <trkpt lat="42.9774534702301" lon="-0.4145944118499756">
        <ele>629.3418918177526</ele>
        <time>2021-08-05T08:45:36.576Z</time>
      </trkpt>
      <trkpt lat="42.977399826049805" lon="-0.4149055480957031">
        <ele>627.8091209125364</ele>
        <time>2021-08-05T08:45:42.979Z</time>
      </trkpt>
      <trkpt lat="42.977399826049805" lon="-0.4152059555053711">
        <ele>626.2676868900955</ele>
        <time>2021-08-05T08:45:49.385Z</time>
      </trkpt>
      <trkpt lat="42.97749638557434" lon="-0.4161715507507324">
        <ele>624.4682070839367</ele>
        <time>2021-08-05T08:45:55.803Z</time>
      </trkpt>
      <trkpt lat="42.97748574055731" lon="-0.4163432121276855">
        <ele>622.9059193868602</ele>
        <time>2021-08-05T08:46:02.223Z</time>
      </trkpt>
      <trkpt lat="42.97747501172125" lon="-0.4164612293243408">
        <ele>621.3247187420642</ele>
        <time>2021-08-05T08:46:08.644Z</time>
      </trkpt>
      <trkpt lat="42.97747492790222" lon="-0.4164612293243408">
        <ele>619.7450863858743</ele>
        <time>2021-08-05T08:46:15.065Z</time>
      </trkpt>
      <trkpt lat="42.97743201255798" lon="-0.4167079925537109">
        <ele>618.1061170691302</ele>
        <time>2021-08-05T08:46:21.489Z</time>
      </trkpt>
      <trkpt lat="42.97723889350891" lon="-0.4172337055206299">
        <ele>616.2338402646045</ele>
        <time>2021-08-05T08:46:27.920Z</time>
      </trkpt>
      <trkpt lat="42.97669172286987" lon="-0.4181027412414551">
        <ele>614.7235521394703</ele>
        <time>2021-08-05T08:46:34.365Z</time>
      </trkpt>
      <trkpt lat="42.97645568847656" lon="-0.418553352355957">
        <ele>613.1602937905656</ele>
        <time>2021-08-05T08:46:40.816Z</time>
      </trkpt>
      <trkpt lat="42.97619819641113" lon="-0.4195404052734375">
        <ele>610.9196252719967</ele>
        <time>2021-08-05T08:46:47.279Z</time>
      </trkpt>
      <trkpt lat="42.976112365722656" lon="-0.419776439666748">
        <ele>609.1593311796807</ele>
        <time>2021-08-05T08:46:53.745Z</time>
      </trkpt>
      <trkpt lat="42.97572612762451" lon="-0.4202699661254883">
        <ele>607.8822884717745</ele>
        <time>2021-08-05T08:47:00.220Z</time>
      </trkpt>
      <trkpt lat="42.975640296936035" lon="-0.4204308986663818">
        <ele>606.3093341027768</ele>
        <time>2021-08-05T08:47:06.697Z</time>
      </trkpt>
      <trkpt lat="42.975608110427856" lon="-0.4206240177154541">
        <ele>604.6018363504421</ele>
        <time>2021-08-05T08:47:13.177Z</time>
      </trkpt>
      <trkpt lat="42.975640296936035" lon="-0.4207313060760498">
        <ele>602.8639667972645</ele>
        <time>2021-08-05T08:47:19.658Z</time>
      </trkpt>
      <trkpt lat="42.975704753771424" lon="-0.4208385944366455">
        <ele>601.0679055668852</ele>
        <time>2021-08-05T08:47:26.141Z</time>
      </trkpt>
      <trkpt lat="42.97577977180481" lon="-0.4208707809448242">
        <ele>599.2898728160377</ele>
        <time>2021-08-05T08:47:32.625Z</time>
      </trkpt>
      <trkpt lat="42.975876331329346" lon="-0.4208707809448242">
        <ele>597.5089523397958</ele>
        <time>2021-08-05T08:47:39.110Z</time>
      </trkpt>
      <trkpt lat="42.97596216201782" lon="-0.4208064079284668">
        <ele>595.7862802646748</ele>
        <time>2021-08-05T08:47:45.597Z</time>
      </trkpt>
      <trkpt lat="42.9760479927063" lon="-0.420677661895752">
        <ele>594.0400983882109</ele>
        <time>2021-08-05T08:47:52.086Z</time>
      </trkpt>
      <trkpt lat="42.97626256942749" lon="-0.420001745223999">
        <ele>592.3013720232411</ele>
        <time>2021-08-05T08:47:58.584Z</time>
      </trkpt>
      <trkpt lat="42.97647714614868" lon="-0.4194331169128418">
        <ele>590.7635119561401</ele>
        <time>2021-08-05T08:48:05.089Z</time>
      </trkpt>
      <trkpt lat="42.97683119773865" lon="-0.4187572002410889">
        <ele>589.2334195725361</ele>
        <time>2021-08-05T08:48:11.604Z</time>
      </trkpt>
      <trkpt lat="42.97783970832825" lon="-0.4174268245697021">
        <ele>587.0229680528766</ele>
        <time>2021-08-05T08:48:18.141Z</time>
      </trkpt>
      <trkpt lat="42.97827959060669" lon="-0.4167079925537109">
        <ele>585.5434331709575</ele>
        <time>2021-08-05T08:48:24.689Z</time>
      </trkpt>
      <trkpt lat="42.97837623395026" lon="-0.4166114330291748">
        <ele>583.9197043032457</ele>
        <time>2021-08-05T08:48:31.239Z</time>
      </trkpt>
      <trkpt lat="42.978376150131226" lon="-0.4166114330291748">
        <ele>582.3703479587704</ele>
        <time>2021-08-05T08:48:37.789Z</time>
      </trkpt>
      <trkpt lat="42.978408420458436" lon="-0.4165685176849365">
        <ele>580.8222702326113</ele>
        <time>2021-08-05T08:48:44.340Z</time>
      </trkpt>
      <trkpt lat="42.97850497998297" lon="-0.4164612293243408">
        <ele>579.2659174924793</ele>
        <time>2021-08-05T08:48:50.893Z</time>
      </trkpt>
      <trkpt lat="42.97857999801636" lon="-0.4163646697998047">
        <ele>577.7782336726145</ele>
        <time>2021-08-05T08:48:57.448Z</time>
      </trkpt>
      <trkpt lat="42.97927737236023" lon="-0.4158496856689453">
        <ele>575.829014263996</ele>
        <time>2021-08-05T08:49:04.015Z</time>
      </trkpt>
      <trkpt lat="42.97942757606506" lon="-0.4155707359313965">
        <ele>574.3253558145489</ele>
        <time>2021-08-05T08:49:10.586Z</time>
      </trkpt>
      <trkpt lat="42.97953486442566" lon="-0.4153347015380859">
        <ele>572.8943671205537</ele>
        <time>2021-08-05T08:49:17.161Z</time>
      </trkpt>
      <trkpt lat="42.979631423950195" lon="-0.4149055480957031">
        <ele>571.5998898819648</ele>
        <time>2021-08-05T08:49:23.741Z</time>
      </trkpt>
      <trkpt lat="42.979674339294434" lon="-0.4147768020629883">
        <ele>570.2856294014667</ele>
        <time>2021-08-05T08:49:30.323Z</time>
      </trkpt>
      <trkpt lat="42.97974944114685" lon="-0.4146480560302734">
        <ele>568.9859628969938</ele>
        <time>2021-08-05T08:49:36.907Z</time>
      </trkpt>
      <trkpt lat="42.97980308532715" lon="-0.4146051406860352">
        <ele>567.7036029776209</ele>
        <time>2021-08-05T08:49:43.492Z</time>
      </trkpt>
      <trkpt lat="42.979878187179565" lon="-0.4145622253417969">
        <ele>566.4341378459292</ele>
        <time>2021-08-05T08:49:50.078Z</time>
      </trkpt>
      <trkpt lat="42.98000693321228" lon="-0.4146051406860352">
        <ele>565.1257296887061</ele>
        <time>2021-08-05T08:49:56.666Z</time>
      </trkpt>
      <trkpt lat="42.980103492736816" lon="-0.41473388671875">
        <ele>563.8083391055288</ele>
        <time>2021-08-05T08:50:03.256Z</time>
      </trkpt>
      <trkpt lat="42.980114221572876" lon="-0.4148626327514648">
        <ele>562.5439519139402</ele>
        <time>2021-08-05T08:50:09.848Z</time>
      </trkpt>
      <trkpt lat="42.980103492736816" lon="-0.4150021076202393">
        <ele>561.3136635847234</ele>
        <time>2021-08-05T08:50:16.441Z</time>
      </trkpt>
      <trkpt lat="42.979899644851685" lon="-0.4153239727020264">
        <ele>560.1936518778909</ele>
        <time>2021-08-05T08:50:23.039Z</time>
      </trkpt>
      <trkpt lat="42.979717338457704" lon="-0.4157209396362305">
        <ele>559.0033231984264</ele>
        <time>2021-08-05T08:50:29.643Z</time>
      </trkpt>
      <trkpt lat="42.979674339294434" lon="-0.4158282279968262">
        <ele>557.8351894816385</ele>
        <time>2021-08-05T08:50:36.248Z</time>
      </trkpt>
      <trkpt lat="42.979373931884766" lon="-0.4162895679473877">
        <ele>556.8078767198699</ele>
        <time>2021-08-05T08:50:42.860Z</time>
      </trkpt>
      <trkpt lat="42.97901996411383" lon="-0.4166543483734131">
        <ele>555.7641344626104</ele>
        <time>2021-08-05T08:50:49.480Z</time>
      </trkpt>
      <trkpt lat="42.978912675753236" lon="-0.4167723655700684">
        <ele>554.6700468101998</ele>
        <time>2021-08-05T08:50:56.102Z</time>
      </trkpt>
      <trkpt lat="42.978869676589966" lon="-0.4168152809143066">
        <ele>553.5635434544049</ele>
        <time>2021-08-05T08:51:02.725Z</time>
      </trkpt>
      <trkpt lat="42.978676641359925" lon="-0.4171371459960938">
        <ele>552.3740203717308</ele>
        <time>2021-08-05T08:51:09.352Z</time>
      </trkpt>
      <trkpt lat="42.97860153950751" lon="-0.4173088073730469">
        <ele>551.2232986530787</ele>
        <time>2021-08-05T08:51:15.982Z</time>
      </trkpt>
      <trkpt lat="42.97860145568848" lon="-0.4173088073730469">
        <ele>550.0784756865779</ele>
        <time>2021-08-05T08:51:22.612Z</time>
      </trkpt>
      <trkpt lat="42.97844052314758" lon="-0.4179096221923828">
        <ele>548.7340234344015</ele>
        <time>2021-08-05T08:51:29.249Z</time>
      </trkpt>
      <trkpt lat="42.97808647155762" lon="-0.4186713695526123">
        <ele>547.3459842177762</ele>
        <time>2021-08-05T08:51:35.897Z</time>
      </trkpt>
      <trkpt lat="42.97800072468817" lon="-0.4189395904541016">
        <ele>546.1076858693796</ele>
        <time>2021-08-05T08:51:42.548Z</time>
      </trkpt>
      <trkpt lat="42.97800072468817" lon="-0.4189717769622803">
        <ele>544.8968610534514</ele>
        <time>2021-08-05T08:51:49.200Z</time>
      </trkpt>
      <trkpt lat="42.97797918319702" lon="-0.4194760322570801">
        <ele>543.5498574131498</ele>
        <time>2021-08-05T08:51:55.858Z</time>
      </trkpt>
      <trkpt lat="42.97794699668884" lon="-0.4197657108306885">
        <ele>542.3899138102634</ele>
        <time>2021-08-05T08:52:02.519Z</time>
      </trkpt>
      <trkpt lat="42.97779679298401" lon="-0.4201734066009521">
        <ele>541.3463441148507</ele>
        <time>2021-08-05T08:52:09.185Z</time>
      </trkpt>
      <trkpt lat="42.97773241996765" lon="-0.4203987121582031">
        <ele>540.2090101935373</ele>
        <time>2021-08-05T08:52:15.854Z</time>
      </trkpt>
      <trkpt lat="42.97773241996765" lon="-0.4205060005187988">
        <ele>538.9456515405295</ele>
        <time>2021-08-05T08:52:22.525Z</time>
      </trkpt>
      <trkpt lat="42.97776460647583" lon="-0.4205918312072754">
        <ele>537.6679648682073</ele>
        <time>2021-08-05T08:52:29.197Z</time>
      </trkpt>
      <trkpt lat="42.97783970832825" lon="-0.4206669330596924">
        <ele>536.3296390370353</ele>
        <time>2021-08-05T08:52:35.870Z</time>
      </trkpt>
      <trkpt lat="42.97793626785278" lon="-0.4206991195678711">
        <ele>534.9264473902381</ele>
        <time>2021-08-05T08:52:42.545Z</time>
      </trkpt>
      <trkpt lat="42.97807574272156" lon="-0.4206669330596924">
        <ele>533.5381416417753</ele>
        <time>2021-08-05T08:52:49.222Z</time>
      </trkpt>
      <trkpt lat="42.97808647155762" lon="-0.4204630851745605">
        <ele>532.1267996905756</ele>
        <time>2021-08-05T08:52:55.901Z</time>
      </trkpt>
      <trkpt lat="42.97822594642639" lon="-0.4198086261749268">
        <ele>530.4337964279262</ele>
        <time>2021-08-05T08:53:02.588Z</time>
      </trkpt>
      <trkpt lat="42.97834396362305" lon="-0.419003963470459">
        <ele>529.0170990661943</ele>
        <time>2021-08-05T08:53:09.285Z</time>
      </trkpt>
      <trkpt lat="42.97842979431152" lon="-0.4188859462738037">
        <ele>527.641082239659</ele>
        <time>2021-08-05T08:53:15.984Z</time>
      </trkpt>
      <trkpt lat="42.978515625" lon="-0.4188001155853271">
        <ele>526.2592141151205</ele>
        <time>2021-08-05T08:53:22.685Z</time>
      </trkpt>
      <trkpt lat="42.97869801521301" lon="-0.4187572002410889">
        <ele>524.7555155745936</ele>
        <time>2021-08-05T08:53:29.389Z</time>
      </trkpt>
      <trkpt lat="42.97878384590149" lon="-0.4188108444213867">
        <ele>523.3808002643705</ele>
        <time>2021-08-05T08:53:36.094Z</time>
      </trkpt>
      <trkpt lat="42.97885903157294" lon="-0.4188859462738037">
        <ele>522.0727629340365</ele>
        <time>2021-08-05T08:53:42.801Z</time>
      </trkpt>
      <trkpt lat="42.978912591934204" lon="-0.4190146923065186">
        <ele>520.7711169236719</ele>
        <time>2021-08-05T08:53:49.509Z</time>
      </trkpt>
      <trkpt lat="42.97893404960632" lon="-0.4191005229949951">
        <ele>519.5809921652922</ele>
        <time>2021-08-05T08:53:56.219Z</time>
      </trkpt>
      <trkpt lat="42.978955591097474" lon="-0.4194438457489014">
        <ele>518.3464496611595</ele>
        <time>2021-08-05T08:54:02.933Z</time>
      </trkpt>
      <trkpt lat="42.97905206680298" lon="-0.4199159145355225">
        <ele>517.2262601636957</ele>
        <time>2021-08-05T08:54:09.652Z</time>
      </trkpt>
      <trkpt lat="42.97922372817993" lon="-0.4203450679779053">
        <ele>516.324513862643</ele>
        <time>2021-08-05T08:54:16.377Z</time>
      </trkpt>
      <trkpt lat="42.97934174537659" lon="-0.4204952716827393">
        <ele>515.4520318375784</ele>
        <time>2021-08-05T08:54:23.105Z</time>
      </trkpt>
      <trkpt lat="42.9794704914093" lon="-0.4205596446990967">
        <ele>514.6655354532343</ele>
        <time>2021-08-05T08:54:29.835Z</time>
      </trkpt>
      <trkpt lat="42.979706609621644" lon="-0.420602560043335">
        <ele>513.8916898111338</ele>
        <time>2021-08-05T08:54:36.569Z</time>
      </trkpt>
      <trkpt lat="42.97976025380194" lon="-0.4206240177154541">
        <ele>513.2340607216229</ele>
        <time>2021-08-05T08:54:43.304Z</time>
      </trkpt>
      <trkpt lat="42.98021078109741" lon="-0.4206991195678711">
        <ele>512.5777172476666</ele>
        <time>2021-08-05T08:54:50.046Z</time>
      </trkpt>
      <trkpt lat="42.98050045967102" lon="-0.4207420349121094">
        <ele>512.091613637486</ele>
        <time>2021-08-05T08:54:56.792Z</time>
      </trkpt>
      <trkpt lat="42.98102617263794" lon="-0.4208278656005859">
        <ele>511.7774396779847</ele>
        <time>2021-08-05T08:55:03.547Z</time>
      </trkpt>
      <trkpt lat="42.98110303469002" lon="-0.420850832015276">
        <ele>511.48677895461753</ele>
        <time>2021-08-05T08:55:10.303Z</time>
      </trkpt>
      <trkpt lat="42.981133460998535" lon="-0.4208600521087646">
        <ele>511.142641935292</ele>
        <time>2021-08-05T08:55:17.060Z</time>
      </trkpt>
      <trkpt lat="42.98123002052307" lon="-0.4209351539611816">
        <ele>511.0931023366017</ele>
        <time>2021-08-05T08:55:23.818Z</time>
      </trkpt>
      <trkpt lat="42.98134803771973" lon="-0.4211819171905518">
        <ele>511.13500975069053</ele>
        <time>2021-08-05T08:55:30.580Z</time>
      </trkpt>
      <trkpt lat="42.98136957921088" lon="-0.4212677478790283">
        <ele>511.2606209156303</ele>
        <time>2021-08-05T08:55:37.343Z</time>
      </trkpt>
      <trkpt lat="42.98138030804694" lon="-0.4213213920593262">
        <ele>511.4404847227187</ele>
        <time>2021-08-05T08:55:44.107Z</time>
      </trkpt>
      <trkpt lat="42.98150905407965" lon="-0.4218685626983643">
        <ele>511.7212390195771</ele>
        <time>2021-08-05T08:55:50.877Z</time>
      </trkpt>
      <trkpt lat="42.98151969909668" lon="-0.4219543933868408">
        <ele>512.047671978161</ele>
        <time>2021-08-05T08:55:57.648Z</time>
      </trkpt>
      <trkpt lat="42.98162707127631" lon="-0.4223942756652832">
        <ele>512.6263028083441</ele>
        <time>2021-08-05T08:56:04.425Z</time>
      </trkpt>
      <trkpt lat="42.98179864883423" lon="-0.423123836517334">
        <ele>512.933410896171</ele>
        <time>2021-08-05T08:56:11.211Z</time>
      </trkpt>
      <trkpt lat="42.98182019032538" lon="-0.4234457015991211">
        <ele>513.4731755491989</ele>
        <time>2021-08-05T08:56:18.001Z</time>
      </trkpt>
      <trkpt lat="42.9818416479975" lon="-0.4236710071563721">
        <ele>514.0374706730606</ele>
        <time>2021-08-05T08:56:24.793Z</time>
      </trkpt>
      <trkpt lat="42.98185237683356" lon="-0.4237353801727295">
        <ele>514.6142161891339</ele>
        <time>2021-08-05T08:56:31.586Z</time>
      </trkpt>
      <trkpt lat="42.981895292177796" lon="-0.4241645336151123">
        <ele>515.1667559195614</ele>
        <time>2021-08-05T08:56:38.384Z</time>
      </trkpt>
      <trkpt lat="42.981906021013856" lon="-0.4242932796478271">
        <ele>515.8231602875732</ele>
        <time>2021-08-05T08:56:45.184Z</time>
      </trkpt>
      <trkpt lat="42.98201330937445" lon="-0.4250657558441162">
        <ele>516.5576203179489</ele>
        <time>2021-08-05T08:56:51.993Z</time>
      </trkpt>
      <trkpt lat="42.98207759857178" lon="-0.4255056381225586">
        <ele>517.3840856554114</ele>
        <time>2021-08-05T08:56:58.807Z</time>
      </trkpt>
      <trkpt lat="42.982141971588135" lon="-0.42572021484375">
        <ele>518.1551252372593</ele>
        <time>2021-08-05T08:57:05.624Z</time>
      </trkpt>
      <trkpt lat="42.982292259112" lon="-0.4260742664337158">
        <ele>518.8505164868556</ele>
        <time>2021-08-05T08:57:12.446Z</time>
      </trkpt>
      <trkpt lat="42.98229217529297" lon="-0.4260742664337158">
        <ele>519.5603574843989</ele>
        <time>2021-08-05T08:57:19.268Z</time>
      </trkpt>
      <trkpt lat="42.98247464932501" lon="-0.4264926910400391">
        <ele>520.4461037273101</ele>
        <time>2021-08-05T08:57:26.095Z</time>
      </trkpt>
      <trkpt lat="42.98253902234137" lon="-0.4266214370727539">
        <ele>521.1040762276273</ele>
        <time>2021-08-05T08:57:32.924Z</time>
      </trkpt>
      <trkpt lat="42.982646226882935" lon="-0.4268789291381836">
        <ele>521.7280743352162</ele>
        <time>2021-08-05T08:57:39.757Z</time>
      </trkpt>
      <trkpt lat="42.98275351524353" lon="-0.4270505905151367">
        <ele>522.3949667541674</ele>
        <time>2021-08-05T08:57:46.592Z</time>
      </trkpt>
      <trkpt lat="42.98347234725952" lon="-0.4278874397277832">
        <ele>523.0234988238191</ele>
        <time>2021-08-05T08:57:53.443Z</time>
      </trkpt>
      <trkpt lat="42.983622550964355" lon="-0.4279625415802002">
        <ele>523.6321806400422</ele>
        <time>2021-08-05T08:58:00.296Z</time>
      </trkpt>
      <trkpt lat="42.98377275466919" lon="-0.4279732704162598">
        <ele>524.2143957960124</ele>
        <time>2021-08-05T08:58:07.152Z</time>
      </trkpt>
      <trkpt lat="42.98396587371826" lon="-0.4279196262359619">
        <ele>524.736887979547</ele>
        <time>2021-08-05T08:58:14.011Z</time>
      </trkpt>
      <trkpt lat="42.98429855145514" lon="-0.4277801513671875">
        <ele>525.1910552980748</ele>
        <time>2021-08-05T08:58:20.875Z</time>
      </trkpt>
      <trkpt lat="42.98433073796332" lon="-0.4277694225311279">
        <ele>525.6441141979697</ele>
        <time>2021-08-05T08:58:27.740Z</time>
      </trkpt>
      <trkpt lat="42.984373569488525" lon="-0.4277479648590088">
        <ele>526.0487223575267</ele>
        <time>2021-08-05T08:58:34.605Z</time>
      </trkpt>
      <trkpt lat="42.98473834991455" lon="-0.4275870323181152">
        <ele>526.4053819635791</ele>
        <time>2021-08-05T08:58:41.477Z</time>
      </trkpt>
      <trkpt lat="42.98480272293091" lon="-0.4275655746459961">
        <ele>526.7275727807402</ele>
        <time>2021-08-05T08:58:48.350Z</time>
      </trkpt>
      <trkpt lat="42.985167587175965" lon="-0.4274046421051025">
        <ele>527.1060060629454</ele>
        <time>2021-08-05T08:58:55.229Z</time>
      </trkpt>
      <trkpt lat="42.98554301261902" lon="-0.4272544384002686">
        <ele>527.3525991703234</ele>
        <time>2021-08-05T08:59:02.114Z</time>
      </trkpt>
      <trkpt lat="42.98581131733954" lon="-0.4271471500396729">
        <ele>527.4939572848352</ele>
        <time>2021-08-05T08:59:09.004Z</time>
      </trkpt>
      <trkpt lat="42.98585423268378" lon="-0.4271256923675537">
        <ele>527.5740968246149</ele>
        <time>2021-08-05T08:59:15.894Z</time>
      </trkpt>
      <trkpt lat="42.985854148864746" lon="-0.4271256923675537">
        <ele>527.5873024343298</ele>
        <time>2021-08-05T08:59:22.784Z</time>
      </trkpt>
      <trkpt lat="42.986197555437684" lon="-0.4269969463348389">
        <ele>527.5332584687853</ele>
        <time>2021-08-05T08:59:29.680Z</time>
      </trkpt>
      <trkpt lat="42.98643350601196" lon="-0.4268896579742432">
        <ele>527.4002984097314</ele>
        <time>2021-08-05T08:59:36.580Z</time>
      </trkpt>
      <trkpt lat="42.98705577850342" lon="-0.4265999794006348">
        <ele>527.2552380695594</ele>
        <time>2021-08-05T08:59:43.490Z</time>
      </trkpt>
      <trkpt lat="42.987409830093384" lon="-0.4264819622039795">
        <ele>526.976870248905</ele>
        <time>2021-08-05T08:59:50.406Z</time>
      </trkpt>
      <trkpt lat="42.987688863649964" lon="-0.4264390468597412">
        <ele>526.6214148637158</ele>
        <time>2021-08-05T08:59:57.327Z</time>
      </trkpt>
      <trkpt lat="42.98787125386298" lon="-0.4264175891876221">
        <ele>526.235191171148</ele>
        <time>2021-08-05T09:00:04.251Z</time>
      </trkpt>
      <trkpt lat="42.98798927105963" lon="-0.4263961315155029">
        <ele>525.7860446980512</ele>
        <time>2021-08-05T09:00:11.177Z</time>
      </trkpt>
      <trkpt lat="42.98797845840454" lon="-0.4263210296630859">
        <ele>525.2529209265422</ele>
        <time>2021-08-05T09:00:18.104Z</time>
      </trkpt>
      <trkpt lat="42.98801064491272" lon="-0.4262459278106689">
        <ele>524.6582686228899</ele>
        <time>2021-08-05T09:00:25.032Z</time>
      </trkpt>
      <trkpt lat="42.98808574676514" lon="-0.4262244701385498">
        <ele>524.019119011308</ele>
        <time>2021-08-05T09:00:31.961Z</time>
      </trkpt>
      <trkpt lat="42.98808583058417" lon="-0.4258489608764648">
        <ele>523.2589644972269</ele>
        <time>2021-08-05T09:00:38.894Z</time>
      </trkpt>
      <trkpt lat="42.98808574676514" lon="-0.4258489608764648">
        <ele>522.5155219020397</ele>
        <time>2021-08-05T09:00:45.827Z</time>
      </trkpt>
      <trkpt lat="42.98809655942023" lon="-0.4253339767456055">
        <ele>521.6532743421149</ele>
        <time>2021-08-05T09:00:52.766Z</time>
      </trkpt>
      <trkpt lat="42.988107204437256" lon="-0.4251301288604736">
        <ele>520.811684452349</ele>
        <time>2021-08-05T09:00:59.708Z</time>
      </trkpt>
      <trkpt lat="42.98810728825629" lon="-0.424797534942627">
        <ele>519.9038818447498</ele>
        <time>2021-08-05T09:01:06.654Z</time>
      </trkpt>
      <trkpt lat="42.988160848617554" lon="-0.4226839542388916">
        <ele>518.6033916991864</ele>
        <time>2021-08-05T09:01:13.624Z</time>
      </trkpt>
      <trkpt lat="42.98818230628967" lon="-0.4225337505340576">
        <ele>517.6295917747043</ele>
        <time>2021-08-05T09:01:20.596Z</time>
      </trkpt>
      <trkpt lat="42.98823595046997" lon="-0.4224264621734619">
        <ele>516.6279097525216</ele>
        <time>2021-08-05T09:01:27.570Z</time>
      </trkpt>
      <trkpt lat="42.98831105232239" lon="-0.4223620891571045">
        <ele>515.6049037325928</ele>
        <time>2021-08-05T09:01:34.545Z</time>
      </trkpt>
      <trkpt lat="42.988386154174805" lon="-0.4223513603210449">
        <ele>514.5780009248177</ele>
        <time>2021-08-05T09:01:41.521Z</time>
      </trkpt>
      <trkpt lat="42.989158714190125" lon="-0.4225015640258789">
        <ele>513.5041935472959</ele>
        <time>2021-08-05T09:01:48.510Z</time>
      </trkpt>
      <trkpt lat="42.98969507217407" lon="-0.4226088523864746">
        <ele>512.3697358155017</ele>
        <time>2021-08-05T09:01:55.508Z</time>
      </trkpt>
      <trkpt lat="42.98981308937073" lon="-0.422598123550415">
        <ele>511.291081551455</ele>
        <time>2021-08-05T09:02:02.507Z</time>
      </trkpt>
      <trkpt lat="42.989909648895264" lon="-0.4225766658782959">
        <ele>510.2085385423912</ele>
        <time>2021-08-05T09:02:09.508Z</time>
      </trkpt>
      <trkpt lat="42.99001693725586" lon="-0.4225122928619385">
        <ele>509.11620200377</ele>
        <time>2021-08-05T09:02:16.511Z</time>
      </trkpt>
      <trkpt lat="42.99049981869757" lon="-0.4221582412719727">
        <ele>508.0268361426101</ele>
        <time>2021-08-05T09:02:23.523Z</time>
      </trkpt>
      <trkpt lat="42.990617752075195" lon="-0.4221260547637939">
        <ele>506.96153271635535</ele>
        <time>2021-08-05T09:02:30.537Z</time>
      </trkpt>
      <trkpt lat="42.99073576927185" lon="-0.4221367835998535">
        <ele>505.8893741521797</ele>
        <time>2021-08-05T09:02:37.552Z</time>
      </trkpt>
      <trkpt lat="42.9912079218775" lon="-0.4222333431243896">
        <ele>504.78773854561325</ele>
        <time>2021-08-05T09:02:44.575Z</time>
      </trkpt>
      <trkpt lat="42.99157270230353" lon="-0.4223191738128662">
        <ele>503.7074689933821</ele>
        <time>2021-08-05T09:02:51.604Z</time>
      </trkpt>
      <trkpt lat="42.991658532992005" lon="-0.4223299026489258">
        <ele>502.67779091072987</ele>
        <time>2021-08-05T09:02:58.634Z</time>
      </trkpt>
      <trkpt lat="42.991658449172974" lon="-0.4223299026489258">
        <ele>501.6600187499071</ele>
        <time>2021-08-05T09:03:05.664Z</time>
      </trkpt>
      <trkpt lat="42.992152059450746" lon="-0.4224371910095215">
        <ele>500.66214423728854</ele>
        <time>2021-08-05T09:03:12.702Z</time>
      </trkpt>
      <trkpt lat="42.992151975631714" lon="-0.4224371910095215">
        <ele>499.6755561560251</ele>
        <time>2021-08-05T09:03:19.740Z</time>
      </trkpt>
      <trkpt lat="42.992377365008" lon="-0.4224586486816406">
        <ele>498.67343314717243</ele>
        <time>2021-08-05T09:03:26.782Z</time>
      </trkpt>
      <trkpt lat="42.992377281188965" lon="-0.4224586486816406">
        <ele>497.7237023871951</ele>
        <time>2021-08-05T09:03:33.824Z</time>
      </trkpt>
      <trkpt lat="42.9927743319422" lon="-0.4223942756652832">
        <ele>496.69380438902306</ele>
        <time>2021-08-05T09:03:40.872Z</time>
      </trkpt>
      <trkpt lat="42.99286016263068" lon="-0.4223835468292236">
        <ele>495.7589573333013</ele>
        <time>2021-08-05T09:03:47.922Z</time>
      </trkpt>
      <trkpt lat="42.99323558807373" lon="-0.4223406314849854">
        <ele>494.8760039376324</ele>
        <time>2021-08-05T09:03:54.978Z</time>
      </trkpt>
      <trkpt lat="42.99416899681091" lon="-0.4222226142883301">
        <ele>493.95312053939705</ele>
        <time>2021-08-05T09:04:02.049Z</time>
      </trkpt>
      <trkpt lat="42.99652934074402" lon="-0.4219543933868408">
        <ele>492.86333990854195</ele>
        <time>2021-08-05T09:04:09.158Z</time>
      </trkpt>
      <trkpt lat="42.99702286720276" lon="-0.4218363761901855">
        <ele>491.9651294097306</ele>
        <time>2021-08-05T09:04:16.275Z</time>
      </trkpt>
      <trkpt lat="42.997602224349976" lon="-0.4216432571411133">
        <ele>491.136305144578</ele>
        <time>2021-08-05T09:04:23.401Z</time>
      </trkpt>
      <trkpt lat="43.00086387433112" lon="-0.4202485084533691">
        <ele>490.3541737925043</ele>
        <time>2021-08-05T09:04:30.582Z</time>
      </trkpt>
      <trkpt lat="43.000863790512085" lon="-0.4202485084533691">
        <ele>489.6462275409642</ele>
        <time>2021-08-05T09:04:37.763Z</time>
      </trkpt>
      <trkpt lat="43.001121282577515" lon="-0.4201626777648926">
        <ele>489.07349592573416</ele>
        <time>2021-08-05T09:04:44.948Z</time>
      </trkpt>
      <trkpt lat="43.001368045806885" lon="-0.4201090335845947">
        <ele>488.51455698202324</ele>
        <time>2021-08-05T09:04:52.137Z</time>
      </trkpt>
      <trkpt lat="43.00158270634711" lon="-0.4200875759124756">
        <ele>487.9249419794469</ele>
        <time>2021-08-05T09:04:59.330Z</time>
      </trkpt>
      <trkpt lat="43.001582622528076" lon="-0.4200875759124756">
        <ele>487.33033182514293</ele>
        <time>2021-08-05T09:05:06.523Z</time>
      </trkpt>
      <trkpt lat="43.00193667411804" lon="-0.4200983047485352">
        <ele>486.64350291830465</ele>
        <time>2021-08-05T09:05:13.721Z</time>
      </trkpt>
      <trkpt lat="43.00222635269165" lon="-0.4201626777648926">
        <ele>485.9712320454962</ele>
        <time>2021-08-05T09:05:20.924Z</time>
      </trkpt>
      <trkpt lat="43.0029022693634" lon="-0.4204845428466797">
        <ele>485.4267392421518</ele>
        <time>2021-08-05T09:05:28.138Z</time>
      </trkpt>
      <trkpt lat="43.003878593444824" lon="-0.4210746288299561">
        <ele>484.64273402940387</ele>
        <time>2021-08-05T09:05:35.369Z</time>
      </trkpt>
      <trkpt lat="43.00427564419806" lon="-0.4212677478790283">
        <ele>484.25818525646616</ele>
        <time>2021-08-05T09:05:42.607Z</time>
      </trkpt>
      <trkpt lat="43.004629611968994" lon="-0.421450138092041">
        <ele>483.9117248574117</ele>
        <time>2021-08-05T09:05:49.851Z</time>
      </trkpt>
      <trkpt lat="43.00497301854193" lon="-0.4215359687805176">
        <ele>483.6573245222252</ele>
        <time>2021-08-05T09:05:57.101Z</time>
      </trkpt>
      <trkpt lat="43.005337715148926" lon="-0.4215359687805176">
        <ele>483.2296741229356</ele>
        <time>2021-08-05T09:06:04.357Z</time>
      </trkpt>
      <trkpt lat="43.005573749542236" lon="-0.4214823246002197">
        <ele>482.72874140284716</ele>
        <time>2021-08-05T09:06:11.617Z</time>
      </trkpt>
      <trkpt lat="43.00577759742737" lon="-0.4214072227478027">
        <ele>482.26326704348486</ele>
        <time>2021-08-05T09:06:18.880Z</time>
      </trkpt>
      <trkpt lat="43.00650715827942" lon="-0.4210102558135986">
        <ele>481.9602772331055</ele>
        <time>2021-08-05T09:06:26.155Z</time>
      </trkpt>
      <trkpt lat="43.00676465034485" lon="-0.4209136962890625">
        <ele>481.44372361282586</ele>
        <time>2021-08-05T09:06:33.435Z</time>
      </trkpt>
      <trkpt lat="43.00722599029541" lon="-0.4208278656005859">
        <ele>481.02139797235236</ele>
        <time>2021-08-05T09:06:40.722Z</time>
      </trkpt>
      <trkpt lat="43.0074942111969" lon="-0.4208385944366455">
        <ele>480.51450875217404</ele>
        <time>2021-08-05T09:06:48.014Z</time>
      </trkpt>
      <trkpt lat="43.00770878791809" lon="-0.4208707809448242">
        <ele>479.97511694785317</ele>
        <time>2021-08-05T09:06:55.309Z</time>
      </trkpt>
      <trkpt lat="43.00800919532776" lon="-0.4209351539611816">
        <ele>479.48036194282133</ele>
        <time>2021-08-05T09:07:02.609Z</time>
      </trkpt>
      <trkpt lat="43.0082989577204" lon="-0.4210317134857178">
        <ele>479.0063801141563</ele>
        <time>2021-08-05T09:07:09.914Z</time>
      </trkpt>
      <trkpt lat="43.0085027217865" lon="-0.4211068153381348">
        <ele>478.44850390231744</ele>
        <time>2021-08-05T09:07:17.222Z</time>
      </trkpt>
      <trkpt lat="43.00901770591736" lon="-0.4213857650756836">
        <ele>477.73001943001225</ele>
        <time>2021-08-05T09:07:24.539Z</time>
      </trkpt>
      <trkpt lat="43.0099618434906" lon="-0.4219973087310791">
        <ele>476.98788102273653</ele>
        <time>2021-08-05T09:07:31.873Z</time>
      </trkpt>
      <trkpt lat="43.01151752471924" lon="-0.422748327255249">
        <ele>476.49703545493185</ele>
        <time>2021-08-05T09:07:39.233Z</time>
      </trkpt>
      <trkpt lat="43.01190376281738" lon="-0.422898530960083">
        <ele>475.9664353842402</ele>
        <time>2021-08-05T09:07:46.599Z</time>
      </trkpt>
      <trkpt lat="43.01217198371887" lon="-0.4229736328125">
        <ele>475.3401579245424</ele>
        <time>2021-08-05T09:07:53.970Z</time>
      </trkpt>
      <trkpt lat="43.01276206970215" lon="-0.4230380058288574">
        <ele>474.69898988260366</ele>
        <time>2021-08-05T09:08:01.350Z</time>
      </trkpt>
      <trkpt lat="43.01421046257019" lon="-0.4230594635009766">
        <ele>474.21628187260205</ele>
        <time>2021-08-05T09:08:08.753Z</time>
      </trkpt>
      <trkpt lat="43.01499375142157" lon="-0.4229843616485596">
        <ele>473.67753257628715</ele>
        <time>2021-08-05T09:08:16.169Z</time>
      </trkpt>
      <trkpt lat="43.01499366760254" lon="-0.4229843616485596">
        <ele>473.02487629326345</ele>
        <time>2021-08-05T09:08:23.585Z</time>
      </trkpt>
      <trkpt lat="43.015165412798524" lon="-0.4229629039764404">
        <ele>472.38515053522644</ele>
        <time>2021-08-05T09:08:31.004Z</time>
      </trkpt>
      <trkpt lat="43.0154550075531" lon="-0.4229629039764404">
        <ele>471.6731489166991</ele>
        <time>2021-08-05T09:08:38.427Z</time>
      </trkpt>
      <trkpt lat="43.01647433079779" lon="-0.4230272769927979">
        <ele>470.7550497305623</ele>
        <time>2021-08-05T09:08:45.867Z</time>
      </trkpt>
      <trkpt lat="43.01667817868292" lon="-0.4230380058288574">
        <ele>469.97357590119935</ele>
        <time>2021-08-05T09:08:53.310Z</time>
      </trkpt>
      <trkpt lat="43.01667809486389" lon="-0.4230380058288574">
        <ele>469.233225084531</ele>
        <time>2021-08-05T09:09:00.753Z</time>
      </trkpt>
      <trkpt lat="43.01843770779669" lon="-0.4231560230255127">
        <ele>468.2408924082781</ele>
        <time>2021-08-05T09:09:08.224Z</time>
      </trkpt>
      <trkpt lat="43.01843762397766" lon="-0.4231560230255127">
        <ele>467.4774729595679</ele>
        <time>2021-08-05T09:09:15.695Z</time>
      </trkpt>
      <trkpt lat="43.01871657371521" lon="-0.4231560230255127">
        <ele>466.6832233887702</ele>
        <time>2021-08-05T09:09:23.171Z</time>
      </trkpt>
      <trkpt lat="43.02017569541931" lon="-0.422898530960083">
        <ele>465.81851123491305</ele>
        <time>2021-08-05T09:09:30.670Z</time>
      </trkpt>
      <trkpt lat="43.0204439163208" lon="-0.4228341579437256">
        <ele>465.00909391501165</ele>
        <time>2021-08-05T09:09:38.173Z</time>
      </trkpt>
      <trkpt lat="43.0229651927948" lon="-0.421900749206543">
        <ele>464.06502542272165</ele>
        <time>2021-08-05T09:09:45.718Z</time>
      </trkpt>
      <trkpt lat="43.02349090576172" lon="-0.4218578338623047">
        <ele>463.3604726877127</ele>
        <time>2021-08-05T09:09:53.272Z</time>
      </trkpt>
      <trkpt lat="43.02376985549927" lon="-0.4216647148132324">
        <ele>462.600757330511</ele>
        <time>2021-08-05T09:10:00.831Z</time>
      </trkpt>
      <trkpt lat="43.02379131317139" lon="-0.4215896129608154">
        <ele>461.81111435256594</ele>
        <time>2021-08-05T09:10:08.391Z</time>
      </trkpt>
      <trkpt lat="43.0238235834986" lon="-0.4215145111083984">
        <ele>461.0213895796006</ele>
        <time>2021-08-05T09:10:15.952Z</time>
      </trkpt>
      <trkpt lat="43.023866415023804" lon="-0.4214608669281006">
        <ele>460.23244557496736</ele>
        <time>2021-08-05T09:10:23.514Z</time>
      </trkpt>
      <trkpt lat="43.02393078804016" lon="-0.4214286804199219">
        <ele>459.4435845329249</ele>
        <time>2021-08-05T09:10:31.077Z</time>
      </trkpt>
      <trkpt lat="43.02399516105652" lon="-0.4214286804199219">
        <ele>458.65860626543144</ele>
        <time>2021-08-05T09:10:38.641Z</time>
      </trkpt>
      <trkpt lat="43.02404888905585" lon="-0.421450138092041">
        <ele>457.879827537409</ele>
        <time>2021-08-05T09:10:46.206Z</time>
      </trkpt>
      <trkpt lat="43.02413463592529" lon="-0.4215466976165771">
        <ele>457.10251471819856</ele>
        <time>2021-08-05T09:10:53.772Z</time>
      </trkpt>
      <trkpt lat="43.024563789367676" lon="-0.4215466976165771">
        <ele>456.3433169386866</ele>
        <time>2021-08-05T09:11:01.345Z</time>
      </trkpt>
      <trkpt lat="43.02497156895697" lon="-0.4215145111083984">
        <ele>455.5526460239153</ele>
        <time>2021-08-05T09:11:08.925Z</time>
      </trkpt>
      <trkpt lat="43.02497148513794" lon="-0.4215145111083984">
        <ele>454.8098269687557</ele>
        <time>2021-08-05T09:11:16.505Z</time>
      </trkpt>
      <trkpt lat="43.02576541900635" lon="-0.421525239944458">
        <ele>454.1207061305056</ele>
        <time>2021-08-05T09:11:24.098Z</time>
      </trkpt>
      <trkpt lat="43.02747130393982" lon="-0.4215896129608154">
        <ele>453.240376589015</ele>
        <time>2021-08-05T09:11:31.718Z</time>
      </trkpt>
      <trkpt lat="43.03017505444586" lon="-0.421750545501709">
        <ele>452.3967147574107</ele>
        <time>2021-08-05T09:11:39.381Z</time>
      </trkpt>
      <trkpt lat="43.03017497062683" lon="-0.421750545501709">
        <ele>451.70387416854226</ele>
        <time>2021-08-05T09:11:47.044Z</time>
      </trkpt>
      <trkpt lat="43.03138732910156" lon="-0.4217720031738281">
        <ele>451.0977728770861</ele>
        <time>2021-08-05T09:11:54.727Z</time>
      </trkpt>
      <trkpt lat="43.032588958740234" lon="-0.421825647354126">
        <ele>450.30658909869067</ele>
        <time>2021-08-05T09:12:02.429Z</time>
      </trkpt>
      <trkpt lat="43.03314685821533" lon="-0.4219114780426025">
        <ele>449.6980280545768</ele>
        <time>2021-08-05T09:12:10.140Z</time>
      </trkpt>
      <trkpt lat="43.03361892700195" lon="-0.4220294952392578">
        <ele>449.09222359314896</ele>
        <time>2021-08-05T09:12:17.858Z</time>
      </trkpt>
      <trkpt lat="43.036290407180786" lon="-0.4229629039764404">
        <ele>448.36364727106616</ele>
        <time>2021-08-05T09:12:25.621Z</time>
      </trkpt>
      <trkpt lat="43.03665518760681" lon="-0.423123836517334">
        <ele>447.85958329202833</ele>
        <time>2021-08-05T09:12:33.390Z</time>
      </trkpt>
      <trkpt lat="43.036869764328" lon="-0.4232203960418701">
        <ele>447.31562450727336</ele>
        <time>2021-08-05T09:12:41.162Z</time>
      </trkpt>
      <trkpt lat="43.03696640767157" lon="-0.4232311248779297">
        <ele>446.7910071689736</ele>
        <time>2021-08-05T09:12:48.936Z</time>
      </trkpt>
      <trkpt lat="43.0370306968689" lon="-0.4231882095336914">
        <ele>446.29046480023925</ele>
        <time>2021-08-05T09:12:56.711Z</time>
      </trkpt>
      <trkpt lat="43.03713798522949" lon="-0.4231882095336914">
        <ele>445.8168609894127</ele>
        <time>2021-08-05T09:13:04.488Z</time>
      </trkpt>
      <trkpt lat="43.03721308708191" lon="-0.4232418537139893">
        <ele>445.3743812307926</ele>
        <time>2021-08-05T09:13:12.266Z</time>
      </trkpt>
      <trkpt lat="43.03725608624518" lon="-0.4233384132385254">
        <ele>444.9673969780265</ele>
        <time>2021-08-05T09:13:20.045Z</time>
      </trkpt>
      <trkpt lat="43.03727746009827" lon="-0.4234671592712402">
        <ele>444.6001191191598</ele>
        <time>2021-08-05T09:13:27.826Z</time>
      </trkpt>
      <trkpt lat="43.03725600242615" lon="-0.4235637187957764">
        <ele>444.2729250464432</ele>
        <time>2021-08-05T09:13:35.608Z</time>
      </trkpt>
      <trkpt lat="43.03722381591797" lon="-0.4236388206481934">
        <ele>443.9491612889335</ele>
        <time>2021-08-05T09:13:43.391Z</time>
      </trkpt>
      <trkpt lat="43.03725600242615" lon="-0.4237782955169678">
        <ele>443.63656789464596</ele>
        <time>2021-08-05T09:13:51.176Z</time>
      </trkpt>
      <trkpt lat="43.03732045926154" lon="-0.4239070415496826">
        <ele>443.3573811799787</ele>
        <time>2021-08-05T09:13:58.963Z</time>
      </trkpt>
      <trkpt lat="43.03814657963812" lon="-0.4243254661560059">
        <ele>443.1427799952912</ele>
        <time>2021-08-05T09:14:06.764Z</time>
      </trkpt>
      <trkpt lat="43.03865075111389" lon="-0.424572229385376">
        <ele>442.9503155107943</ele>
        <time>2021-08-05T09:14:14.573Z</time>
      </trkpt>
      <trkpt lat="43.039283752441406" lon="-0.4248511791229248">
        <ele>442.72738901048785</ele>
        <time>2021-08-05T09:14:22.393Z</time>
      </trkpt>
      <trkpt lat="43.0420196056366" lon="-0.4257309436798096">
        <ele>442.43905453141826</ele>
        <time>2021-08-05T09:14:30.258Z</time>
      </trkpt>
      <trkpt lat="43.04340362548828" lon="-0.4264390468597412">
        <ele>442.2668161895234</ele>
        <time>2021-08-05T09:14:38.147Z</time>
      </trkpt>
      <trkpt lat="43.04363965988159" lon="-0.4266107082366943">
        <ele>442.29237850939626</ele>
        <time>2021-08-05T09:14:46.040Z</time>
      </trkpt>
      <trkpt lat="43.04370403289795" lon="-0.4266643524169922">
        <ele>442.3199412874067</ele>
        <time>2021-08-05T09:14:53.934Z</time>
      </trkpt>
      <trkpt lat="43.04381140507758" lon="-0.4267394542694092">
        <ele>442.38792577549566</ele>
        <time>2021-08-05T09:15:01.830Z</time>
      </trkpt>
      <trkpt lat="43.04446578025818" lon="-0.4272222518920898">
        <ele>442.4119401867102</ele>
        <time>2021-08-05T09:15:09.738Z</time>
      </trkpt>
      <trkpt lat="43.04512023925781" lon="-0.4276621341705322">
        <ele>442.6608197679571</ele>
        <time>2021-08-05T09:15:17.658Z</time>
      </trkpt>
      <trkpt lat="43.04660081863403" lon="-0.4289603233337402">
        <ele>442.80816318770974</ele>
        <time>2021-08-05T09:15:25.606Z</time>
      </trkpt>
      <trkpt lat="43.04715871810913" lon="-0.4292714595794678">
        <ele>443.09392876356264</ele>
        <time>2021-08-05T09:15:33.563Z</time>
      </trkpt>
      <trkpt lat="43.04814577102661" lon="-0.4296684265136719">
        <ele>443.37597517591007</ele>
        <time>2021-08-05T09:15:41.537Z</time>
      </trkpt>
      <trkpt lat="43.052018880844116" lon="-0.4307305812835693">
        <ele>444.01293762959153</ele>
        <time>2021-08-05T09:15:49.574Z</time>
      </trkpt>
      <trkpt lat="43.05201896466315" lon="-0.4307305812835693">
        <ele>444.3555349812432</ele>
        <time>2021-08-05T09:15:57.611Z</time>
      </trkpt>
      <trkpt lat="43.05320986546576" lon="-0.4310095310211182">
        <ele>444.7149393663225</ele>
        <time>2021-08-05T09:16:05.667Z</time>
      </trkpt>
      <trkpt lat="43.05386424064636" lon="-0.4311275482177734">
        <ele>445.20391815586163</ele>
        <time>2021-08-05T09:16:13.734Z</time>
      </trkpt>
      <trkpt lat="43.054572427645326" lon="-0.4313206672668457">
        <ele>445.6753335364396</ele>
        <time>2021-08-05T09:16:21.812Z</time>
      </trkpt>
      <trkpt lat="43.05488356389105" lon="-0.4313850402832031">
        <ele>446.1486874052074</ele>
        <time>2021-08-05T09:16:29.896Z</time>
      </trkpt>
      <trkpt lat="43.05495858192444" lon="-0.4314064979553223">
        <ele>446.6431429135206</ele>
        <time>2021-08-05T09:16:37.981Z</time>
      </trkpt>
      <trkpt lat="43.05511951446533" lon="-0.4314172267913818">
        <ele>447.1580529893316</ele>
        <time>2021-08-05T09:16:46.068Z</time>
      </trkpt>
      <trkpt lat="43.05523753166199" lon="-0.4313743114471436">
        <ele>447.67395831038175</ele>
        <time>2021-08-05T09:16:54.157Z</time>
      </trkpt>
      <trkpt lat="43.055419921875" lon="-0.431288480758667">
        <ele>448.2101958203316</ele>
        <time>2021-08-05T09:17:02.249Z</time>
      </trkpt>
      <trkpt lat="43.05543065071106" lon="-0.4316210746765137">
        <ele>448.82888717412</ele>
        <time>2021-08-05T09:17:10.345Z</time>
      </trkpt>
      <trkpt lat="43.05538773536682" lon="-0.4317390918731689">
        <ele>449.4595798060068</ele>
        <time>2021-08-05T09:17:18.443Z</time>
      </trkpt>
      <trkpt lat="43.05538773536682" lon="-0.4320287704467773">
        <ele>450.1305069027859</ele>
        <time>2021-08-05T09:17:26.544Z</time>
      </trkpt>
      <trkpt lat="43.05546283721924" lon="-0.4325222969055176">
        <ele>450.8836890800345</ele>
        <time>2021-08-05T09:17:34.651Z</time>
      </trkpt>
      <trkpt lat="43.05548429489136" lon="-0.4327583312988281">
        <ele>451.58341051908644</ele>
        <time>2021-08-05T09:17:42.761Z</time>
      </trkpt>
      <trkpt lat="43.0554735660553" lon="-0.4332411289215088">
        <ele>452.3467336357189</ele>
        <time>2021-08-05T09:17:50.877Z</time>
      </trkpt>
      <trkpt lat="43.05549502372742" lon="-0.433659553527832">
        <ele>453.1351786904629</ele>
        <time>2021-08-05T09:17:58.998Z</time>
      </trkpt>
      <trkpt lat="43.05549502372742" lon="-0.433884859085083">
        <ele>453.9016851252998</ele>
        <time>2021-08-05T09:18:07.121Z</time>
      </trkpt>
      <trkpt lat="43.05549510754645" lon="-0.433884859085083">
        <ele>454.6607489120313</ele>
        <time>2021-08-05T09:18:15.244Z</time>
      </trkpt>
      <trkpt lat="43.05554875172675" lon="-0.4340779781341553">
        <ele>455.45621725685277</ele>
        <time>2021-08-05T09:18:23.370Z</time>
      </trkpt>
      <trkpt lat="43.055559396743774" lon="-0.4342389106750488">
        <ele>456.2868860256765</ele>
        <time>2021-08-05T09:18:31.497Z</time>
      </trkpt>
      <trkpt lat="43.055516481399536" lon="-0.4345071315765381">
        <ele>457.1200179129247</ele>
        <time>2021-08-05T09:18:39.628Z</time>
      </trkpt>
      <trkpt lat="43.055527210235596" lon="-0.4345822334289551">
        <ele>457.9791692838478</ele>
        <time>2021-08-05T09:18:47.760Z</time>
      </trkpt>
      <trkpt lat="43.055559396743774" lon="-0.4346787929534912">
        <ele>458.8700227643291</ele>
        <time>2021-08-05T09:18:55.893Z</time>
      </trkpt>
      <trkpt lat="43.05567741394043" lon="-0.4347968101501465">
        <ele>459.81615778737296</ele>
        <time>2021-08-05T09:19:04.028Z</time>
      </trkpt>
      <trkpt lat="43.055795431137085" lon="-0.4349470138549805">
        <ele>460.80971332745037</ele>
        <time>2021-08-05T09:19:12.166Z</time>
      </trkpt>
      <trkpt lat="43.055827617645264" lon="-0.4352152347564697">
        <ele>461.8764616657447</ele>
        <time>2021-08-05T09:19:20.307Z</time>
      </trkpt>
      <trkpt lat="43.055827617645264" lon="-0.4353868961334229">
        <ele>462.94368226938354</ele>
        <time>2021-08-05T09:19:28.450Z</time>
      </trkpt>
      <trkpt lat="43.055806243792176" lon="-0.4355263710021973">
        <ele>464.02228524183533</ele>
        <time>2021-08-05T09:19:36.595Z</time>
      </trkpt>
      <trkpt lat="43.05575259961188" lon="-0.4358804225921631">
        <ele>465.1614339672919</ele>
        <time>2021-08-05T09:19:44.744Z</time>
      </trkpt>
      <trkpt lat="43.05584907531738" lon="-0.4361593723297119">
        <ele>466.36205863990403</ele>
        <time>2021-08-05T09:19:52.896Z</time>
      </trkpt>
      <trkpt lat="43.05589199066162" lon="-0.4364383220672607">
        <ele>467.6286505036272</ele>
        <time>2021-08-05T09:20:01.052Z</time>
      </trkpt>
      <trkpt lat="43.05594563484192" lon="-0.4365885257720947">
        <ele>468.8829987894561</ele>
        <time>2021-08-05T09:20:09.210Z</time>
      </trkpt>
      <trkpt lat="43.05599927902222" lon="-0.4366958141326904">
        <ele>470.1627575289244</ele>
        <time>2021-08-05T09:20:17.369Z</time>
      </trkpt>
      <trkpt lat="43.05612802505493" lon="-0.4367494583129883">
        <ele>471.4838225624994</ele>
        <time>2021-08-05T09:20:25.530Z</time>
      </trkpt>
      <trkpt lat="43.05639624595642" lon="-0.4365348815917969">
        <ele>472.8679482826353</ele>
        <time>2021-08-05T09:20:33.696Z</time>
      </trkpt>
      <trkpt lat="43.05649280548096" lon="-0.4365026950836182">
        <ele>474.31808494565223</ele>
        <time>2021-08-05T09:20:41.864Z</time>
      </trkpt>
      <trkpt lat="43.05658936500549" lon="-0.4365134239196777">
        <ele>475.8559158804951</ele>
        <time>2021-08-05T09:20:50.034Z</time>
      </trkpt>
      <trkpt lat="43.05684685707092" lon="-0.4365777969360352">
        <ele>477.63046418537226</ele>
        <time>2021-08-05T09:20:58.208Z</time>
      </trkpt>
      <trkpt lat="43.057061433792114" lon="-0.4365992546081543">
        <ele>479.5270887329218</ele>
        <time>2021-08-05T09:21:06.385Z</time>
      </trkpt>
      <trkpt lat="43.05713653564453" lon="-0.4366636276245117">
        <ele>481.2924051032969</ele>
        <time>2021-08-05T09:21:14.564Z</time>
      </trkpt>
      <trkpt lat="43.05716872215271" lon="-0.4368460178375244">
        <ele>483.02874614090456</ele>
        <time>2021-08-05T09:21:22.745Z</time>
      </trkpt>
      <trkpt lat="43.05724382400513" lon="-0.436931848526001">
        <ele>484.8399282179405</ele>
        <time>2021-08-05T09:21:30.927Z</time>
      </trkpt>
      <trkpt lat="43.05721172131598" lon="-0.4370498657226562">
        <ele>486.6238671663741</ele>
        <time>2021-08-05T09:21:39.111Z</time>
      </trkpt>
      <trkpt lat="43.05719026364386" lon="-0.4373502731323242">
        <ele>488.4125737711611</ele>
        <time>2021-08-05T09:21:47.298Z</time>
      </trkpt>
      <trkpt lat="43.05719017982483" lon="-0.4373502731323242">
        <ele>490.4004464311468</ele>
        <time>2021-08-05T09:21:55.485Z</time>
      </trkpt>
      <trkpt lat="43.05723309516907" lon="-0.4376721382141113">
        <ele>492.4275604629943</ele>
        <time>2021-08-05T09:22:03.676Z</time>
      </trkpt>
      <trkpt lat="43.05745840072632" lon="-0.4389381408691406">
        <ele>494.9100238961832</ele>
        <time>2021-08-05T09:22:11.883Z</time>
      </trkpt>
      <trkpt lat="43.05750131607056" lon="-0.4393672943115234">
        <ele>497.2673708906171</ele>
        <time>2021-08-05T09:22:20.095Z</time>
      </trkpt>
      <trkpt lat="43.057533502578735" lon="-0.4395818710327148">
        <ele>499.6305792537888</ele>
        <time>2021-08-05T09:22:28.309Z</time>
      </trkpt>
      <trkpt lat="43.057576501742005" lon="-0.4397428035736084">
        <ele>502.034782841994</ele>
        <time>2021-08-05T09:22:36.525Z</time>
      </trkpt>
      <trkpt lat="43.05765160359442" lon="-0.4398500919342041">
        <ele>504.4812914027867</ele>
        <time>2021-08-05T09:22:44.743Z</time>
      </trkpt>
      <trkpt lat="43.05768370628357" lon="-0.4398822784423828">
        <ele>506.9700031142493</ele>
        <time>2021-08-05T09:22:52.962Z</time>
      </trkpt>
      <trkpt lat="43.057758808135986" lon="-0.439903736114502">
        <ele>509.5443804435263</ele>
        <time>2021-08-05T09:23:01.182Z</time>
      </trkpt>
      <trkpt lat="43.05784463882446" lon="-0.4399359226226807">
        <ele>512.2040045974235</ele>
        <time>2021-08-05T09:23:09.403Z</time>
      </trkpt>
      <trkpt lat="43.05797346867621" lon="-0.4398822784423828">
        <ele>514.9148103905299</ele>
        <time>2021-08-05T09:23:17.626Z</time>
      </trkpt>
      <trkpt lat="43.05803784169257" lon="-0.4398393630981445">
        <ele>517.6573791494682</ele>
        <time>2021-08-05T09:23:25.851Z</time>
      </trkpt>
      <trkpt lat="43.05846691131592" lon="-0.4393351078033447">
        <ele>520.7275444282091</ele>
        <time>2021-08-05T09:23:34.085Z</time>
      </trkpt>
      <trkpt lat="43.05872440338135" lon="-0.4389810562133789">
        <ele>523.6936415230359</ele>
        <time>2021-08-05T09:23:42.324Z</time>
      </trkpt>
      <trkpt lat="43.058810234069824" lon="-0.4387879371643066">
        <ele>526.5517059249605</ele>
        <time>2021-08-05T09:23:50.566Z</time>
      </trkpt>
      <trkpt lat="43.05899262428284" lon="-0.438380241394043">
        <ele>529.3969025490801</ele>
        <time>2021-08-05T09:23:58.814Z</time>
      </trkpt>
      <trkpt lat="43.05912137031555" lon="-0.4382085800170898">
        <ele>532.3237971710026</ele>
        <time>2021-08-05T09:24:07.065Z</time>
      </trkpt>
      <trkpt lat="43.05938959121704" lon="-0.4380905628204346">
        <ele>535.4395258828974</ele>
        <time>2021-08-05T09:24:15.320Z</time>
      </trkpt>
      <trkpt lat="43.060516119003296" lon="-0.437929630279541">
        <ele>538.9998532181341</ele>
        <time>2021-08-05T09:24:23.593Z</time>
      </trkpt>
      <trkpt lat="43.06084871292114" lon="-0.4379189014434814">
        <ele>542.2614691622566</ele>
        <time>2021-08-05T09:24:31.872Z</time>
      </trkpt>
      <trkpt lat="43.061052560806274" lon="-0.4378974437713623">
        <ele>545.3914451882092</ele>
        <time>2021-08-05T09:24:40.154Z</time>
      </trkpt>
      <trkpt lat="43.06123495101929" lon="-0.4378223419189453">
        <ele>548.4639632517365</ele>
        <time>2021-08-05T09:24:48.439Z</time>
      </trkpt>
      <trkpt lat="43.06157827377319" lon="-0.4375541210174561">
        <ele>551.556654906314</ele>
        <time>2021-08-05T09:24:56.730Z</time>
      </trkpt>
      <trkpt lat="43.06165337562561" lon="-0.4375648498535156">
        <ele>554.6625893693322</ele>
        <time>2021-08-05T09:25:05.022Z</time>
      </trkpt>
      <trkpt lat="43.06172847747803" lon="-0.4376614093780518">
        <ele>557.8290204218688</ele>
        <time>2021-08-05T09:25:13.316Z</time>
      </trkpt>
      <trkpt lat="43.06174993515015" lon="-0.437779426574707">
        <ele>560.9569606578175</ele>
        <time>2021-08-05T09:25:21.611Z</time>
      </trkpt>
      <trkpt lat="43.06169629096985" lon="-0.4378652572631836">
        <ele>563.9977516941021</ele>
        <time>2021-08-05T09:25:29.908Z</time>
      </trkpt>
      <trkpt lat="43.06148171424866" lon="-0.438079833984375">
        <ele>566.9816894705748</ele>
        <time>2021-08-05T09:25:38.209Z</time>
      </trkpt>
      <trkpt lat="43.06119203567505" lon="-0.4384982585906982">
        <ele>570.0811132977203</ele>
        <time>2021-08-05T09:25:46.517Z</time>
      </trkpt>
      <trkpt lat="43.060526847839355" lon="-0.4392170906066895">
        <ele>573.367897063674</ele>
        <time>2021-08-05T09:25:54.838Z</time>
      </trkpt>
      <trkpt lat="43.06041955947876" lon="-0.4394745826721191">
        <ele>576.3372324540511</ele>
        <time>2021-08-05T09:26:03.163Z</time>
      </trkpt>
      <trkpt lat="43.06036591529846" lon="-0.4400324821472168">
        <ele>579.4609132739799</ele>
        <time>2021-08-05T09:26:11.494Z</time>
      </trkpt>
      <trkpt lat="43.06037664413452" lon="-0.4403436183929443">
        <ele>582.5488502392891</ele>
        <time>2021-08-05T09:26:19.829Z</time>
      </trkpt>
      <trkpt lat="43.060559034347534" lon="-0.4411697387695312">
        <ele>585.7965170434038</ele>
        <time>2021-08-05T09:26:28.174Z</time>
      </trkpt>
      <trkpt lat="43.060569763183594" lon="-0.4414057731628418">
        <ele>588.8147008196903</ele>
        <time>2021-08-05T09:26:36.522Z</time>
      </trkpt>
      <trkpt lat="43.060537576675415" lon="-0.4417598247528076">
        <ele>591.9058600881101</ele>
        <time>2021-08-05T09:26:44.874Z</time>
      </trkpt>
      <trkpt lat="43.060548305511475" lon="-0.4422318935394287">
        <ele>595.0812813609879</ele>
        <time>2021-08-05T09:26:53.232Z</time>
      </trkpt>
      <trkpt lat="43.06049474515021" lon="-0.4425537586212158">
        <ele>598.0115274188041</ele>
        <time>2021-08-05T09:27:01.594Z</time>
      </trkpt>
      <trkpt lat="43.06049466133118" lon="-0.4425537586212158">
        <ele>600.8710790865186</ele>
        <time>2021-08-05T09:27:09.956Z</time>
      </trkpt>
      <trkpt lat="43.060462474823" lon="-0.4427468776702881">
        <ele>603.6716805646337</ele>
        <time>2021-08-05T09:27:18.320Z</time>
      </trkpt>
      <trkpt lat="43.06048393249512" lon="-0.4430150985717773">
        <ele>606.5480216073571</ele>
        <time>2021-08-05T09:27:26.687Z</time>
      </trkpt>
      <trkpt lat="43.06063413619995" lon="-0.4435300827026367">
        <ele>609.6174552951986</ele>
        <time>2021-08-05T09:27:35.061Z</time>
      </trkpt>
      <trkpt lat="43.06061267852783" lon="-0.4437768459320068">
        <ele>612.493292592804</ele>
        <time>2021-08-05T09:27:43.437Z</time>
      </trkpt>
      <trkpt lat="43.06060194969177" lon="-0.4440557956695557">
        <ele>615.3397293010714</ele>
        <time>2021-08-05T09:27:51.817Z</time>
      </trkpt>
      <trkpt lat="43.06064486503601" lon="-0.444645881652832">
        <ele>618.3831711865505</ele>
        <time>2021-08-05T09:28:00.204Z</time>
      </trkpt>
      <trkpt lat="43.06060194969177" lon="-0.4448604583740234">
        <ele>621.1404214847141</ele>
        <time>2021-08-05T09:28:08.593Z</time>
      </trkpt>
      <trkpt lat="43.06060194969177" lon="-0.4449999332427979">
        <ele>623.8805460553441</ele>
        <time>2021-08-05T09:28:16.984Z</time>
      </trkpt>
      <trkpt lat="43.06063413619995" lon="-0.4450857639312744">
        <ele>626.6361766676298</ele>
        <time>2021-08-05T09:28:25.376Z</time>
      </trkpt>
      <trkpt lat="43.06070923805237" lon="-0.4451072216033936">
        <ele>629.4252561987872</ele>
        <time>2021-08-05T09:28:33.769Z</time>
      </trkpt>
      <trkpt lat="43.060795068740845" lon="-0.4450535774230957">
        <ele>632.1869751816419</ele>
        <time>2021-08-05T09:28:42.164Z</time>
      </trkpt>
      <trkpt lat="43.0609667301178" lon="-0.4446136951446533">
        <ele>634.8751452556344</ele>
        <time>2021-08-05T09:28:50.565Z</time>
      </trkpt>
      <trkpt lat="43.061084831133485" lon="-0.4443883895874023">
        <ele>637.5708378992804</ele>
        <time>2021-08-05T09:28:58.969Z</time>
      </trkpt>
      <trkpt lat="43.061342323198915" lon="-0.4440557956695557">
        <ele>640.3568199721699</ele>
        <time>2021-08-05T09:29:07.379Z</time>
      </trkpt>
      <trkpt lat="43.061546087265015" lon="-0.443723201751709">
        <ele>643.1614973906574</ele>
        <time>2021-08-05T09:29:15.794Z</time>
      </trkpt>
      <trkpt lat="43.06170701980591" lon="-0.4433691501617432">
        <ele>645.9821457354956</ele>
        <time>2021-08-05T09:29:24.214Z</time>
      </trkpt>
      <trkpt lat="43.06183576583862" lon="-0.4430043697357178">
        <ele>648.7859829547433</ele>
        <time>2021-08-05T09:29:32.638Z</time>
      </trkpt>
      <trkpt lat="43.062071800231934" lon="-0.4420816898345947">
        <ele>651.6741286386384</ele>
        <time>2021-08-05T09:29:41.074Z</time>
      </trkpt>
      <trkpt lat="43.06235074996948" lon="-0.441126823425293">
        <ele>654.6982797496277</ele>
        <time>2021-08-05T09:29:49.522Z</time>
      </trkpt>
      <trkpt lat="43.06232929229736" lon="-0.4405796527862549">
        <ele>657.2675440499461</ele>
        <time>2021-08-05T09:29:57.976Z</time>
      </trkpt>
      <trkpt lat="43.06236147880554" lon="-0.4404401779174805">
        <ele>659.9882826207161</ele>
        <time>2021-08-05T09:30:06.432Z</time>
      </trkpt>
      <trkpt lat="43.0624258518219" lon="-0.440375804901123">
        <ele>662.8036627595646</ele>
        <time>2021-08-05T09:30:14.889Z</time>
      </trkpt>
      <trkpt lat="43.06249022483826" lon="-0.4403543472290039">
        <ele>665.6380737525244</ele>
        <time>2021-08-05T09:30:23.347Z</time>
      </trkpt>
      <trkpt lat="43.06257605552673" lon="-0.4403650760650635">
        <ele>668.525725586313</ele>
        <time>2021-08-05T09:30:31.807Z</time>
      </trkpt>
      <trkpt lat="43.06264042854309" lon="-0.4404401779174805">
        <ele>671.3619401903352</ele>
        <time>2021-08-05T09:30:40.268Z</time>
      </trkpt>
      <trkpt lat="43.06266188621521" lon="-0.4405474662780762">
        <ele>674.1392045562047</ele>
        <time>2021-08-05T09:30:48.730Z</time>
      </trkpt>
      <trkpt lat="43.062533140182495" lon="-0.4409873485565186">
        <ele>676.7521878825214</ele>
        <time>2021-08-05T09:30:57.198Z</time>
      </trkpt>
      <trkpt lat="43.06260824203491" lon="-0.4416525363922119">
        <ele>679.8750629587911</ele>
        <time>2021-08-05T09:31:05.674Z</time>
      </trkpt>
      <trkpt lat="43.06261905469" lon="-0.4436159133911133">
        <ele>682.9706472492886</ele>
        <time>2021-08-05T09:31:14.173Z</time>
      </trkpt>
      <trkpt lat="43.06264051236212" lon="-0.4442811012268066">
        <ele>685.8722695121256</ele>
        <time>2021-08-05T09:31:22.680Z</time>
      </trkpt>
      <trkpt lat="43.062565326690674" lon="-0.4457831382751465">
        <ele>689.0495542195492</ele>
        <time>2021-08-05T09:31:31.204Z</time>
      </trkpt>
      <trkpt lat="43.06258678436279" lon="-0.4460728168487549">
        <ele>691.8433989429478</ele>
        <time>2021-08-05T09:31:39.732Z</time>
      </trkpt>
      <trkpt lat="43.06262969970703" lon="-0.4464268684387207">
        <ele>694.7288555994827</ele>
        <time>2021-08-05T09:31:48.264Z</time>
      </trkpt>
      <trkpt lat="43.062790632247925" lon="-0.4473710060119629">
        <ele>697.2634106970821</ele>
        <time>2021-08-05T09:31:56.807Z</time>
      </trkpt>
      <trkpt lat="43.06290864944458" lon="-0.4478216171264648">
        <ele>700.0938620889679</ele>
        <time>2021-08-05T09:32:05.356Z</time>
      </trkpt>
      <trkpt lat="43.0629301071167" lon="-0.4480147361755371">
        <ele>702.6904373463703</ele>
        <time>2021-08-05T09:32:13.907Z</time>
      </trkpt>
      <trkpt lat="43.06295164860785" lon="-0.4485082626342773">
        <ele>705.3239918905738</ele>
        <time>2021-08-05T09:32:22.464Z</time>
      </trkpt>
      <trkpt lat="43.06295156478882" lon="-0.4485082626342773">
        <ele>707.8726123980714</ele>
        <time>2021-08-05T09:32:31.021Z</time>
      </trkpt>
      <trkpt lat="43.06296229362488" lon="-0.448840856552124">
        <ele>710.5429882065644</ele>
        <time>2021-08-05T09:32:39.582Z</time>
      </trkpt>
      <trkpt lat="43.063005208969116" lon="-0.4491949081420898">
        <ele>713.2443154608764</ele>
        <time>2021-08-05T09:32:48.147Z</time>
      </trkpt>
      <trkpt lat="43.063015937805176" lon="-0.449366569519043">
        <ele>715.8067474847023</ele>
        <time>2021-08-05T09:32:56.714Z</time>
      </trkpt>
      <trkpt lat="43.06296237744391" lon="-0.4499351978302002">
        <ele>718.2638755118621</ele>
        <time>2021-08-05T09:33:05.288Z</time>
      </trkpt>
      <trkpt lat="43.06295164860785" lon="-0.4500746726989746">
        <ele>720.7286324140405</ele>
        <time>2021-08-05T09:33:13.864Z</time>
      </trkpt>
      <trkpt lat="43.0629301071167" lon="-0.4503858089447021">
        <ele>723.2086433893278</ele>
        <time>2021-08-05T09:33:22.443Z</time>
      </trkpt>
      <trkpt lat="43.06289792060852" lon="-0.4505574703216553">
        <ele>725.7413182016855</ele>
        <time>2021-08-05T09:33:31.024Z</time>
      </trkpt>
      <trkpt lat="43.06285500526428" lon="-0.4506862163543701">
        <ele>728.2702440186104</ele>
        <time>2021-08-05T09:33:39.607Z</time>
      </trkpt>
      <trkpt lat="43.06266188621521" lon="-0.4510939121246338">
        <ele>730.8402252474898</ele>
        <time>2021-08-05T09:33:48.196Z</time>
      </trkpt>
      <trkpt lat="43.062254190444946" lon="-0.4519200325012207">
        <ele>733.4928238613061</ele>
        <time>2021-08-05T09:33:56.796Z</time>
      </trkpt>
      <trkpt lat="43.062071800231934" lon="-0.4522418975830078">
        <ele>736.2514080269289</ele>
        <time>2021-08-05T09:34:05.401Z</time>
      </trkpt>
      <trkpt lat="43.06202896870673" lon="-0.4522848129272461">
        <ele>738.8229607805091</ele>
        <time>2021-08-05T09:34:14.007Z</time>
      </trkpt>
      <trkpt lat="43.061857307329774" lon="-0.4524672031402588">
        <ele>741.4603342425917</ele>
        <time>2021-08-05T09:34:22.616Z</time>
      </trkpt>
      <trkpt lat="43.06185722351074" lon="-0.4524672031402588">
        <ele>744.0720269865253</ele>
        <time>2021-08-05T09:34:31.225Z</time>
      </trkpt>
      <trkpt lat="43.06169637478888" lon="-0.4525744915008545">
        <ele>746.7359258108913</ele>
        <time>2021-08-05T09:34:39.837Z</time>
      </trkpt>
      <trkpt lat="43.06151398457587" lon="-0.4527139663696289">
        <ele>749.4555976196239</ele>
        <time>2021-08-05T09:34:48.453Z</time>
      </trkpt>
      <trkpt lat="43.06084871292114" lon="-0.4532182216644287">
        <ele>752.4474911868156</ele>
        <time>2021-08-05T09:34:57.081Z</time>
      </trkpt>
      <trkpt lat="43.06051620282233" lon="-0.4533791542053223">
        <ele>755.2895940628107</ele>
        <time>2021-08-05T09:35:05.714Z</time>
      </trkpt>
      <trkpt lat="43.060516119003296" lon="-0.4533791542053223">
        <ele>758.0699147292454</ele>
        <time>2021-08-05T09:35:14.347Z</time>
      </trkpt>
      <trkpt lat="43.06049474515021" lon="-0.4533898830413818">
        <ele>760.8919013118946</ele>
        <time>2021-08-05T09:35:22.981Z</time>
      </trkpt>
      <trkpt lat="43.06049466133118" lon="-0.4533898830413818">
        <ele>763.7436718844958</ele>
        <time>2021-08-05T09:35:31.615Z</time>
      </trkpt>
      <trkpt lat="43.060290813446045" lon="-0.453486442565918">
        <ele>766.6822289804636</ele>
        <time>2021-08-05T09:35:40.252Z</time>
      </trkpt>
      <trkpt lat="43.060065507888794" lon="-0.4536581039428711">
        <ele>769.7131428256064</ele>
        <time>2021-08-05T09:35:48.893Z</time>
      </trkpt>
      <trkpt lat="43.05996894836426" lon="-0.4538619518280029">
        <ele>772.8079780603132</ele>
        <time>2021-08-05T09:35:57.537Z</time>
      </trkpt>
      <trkpt lat="43.05984020233154" lon="-0.454108715057373">
        <ele>775.9118916671745</ele>
        <time>2021-08-05T09:36:06.185Z</time>
      </trkpt>
      <trkpt lat="43.059775829315186" lon="-0.45418381690979">
        <ele>778.9414015353419</ele>
        <time>2021-08-05T09:36:14.834Z</time>
      </trkpt>
      <trkpt lat="43.059775829315186" lon="-0.4542803764343262">
        <ele>782.0283901286011</ele>
        <time>2021-08-05T09:36:23.484Z</time>
      </trkpt>
      <trkpt lat="43.05986166000366" lon="-0.4544198513031006">
        <ele>785.1294051675457</ele>
        <time>2021-08-05T09:36:32.136Z</time>
      </trkpt>
      <trkpt lat="43.06039810180664" lon="-0.4548811912536621">
        <ele>788.6733314750988</ele>
        <time>2021-08-05T09:36:40.799Z</time>
      </trkpt>
      <trkpt lat="43.06088089942932" lon="-0.4552245140075684">
        <ele>792.1188191873898</ele>
        <time>2021-08-05T09:36:49.470Z</time>
      </trkpt>
      <trkpt lat="43.061771392822266" lon="-0.4556965827941895">
        <ele>795.854955097786</ele>
        <time>2021-08-05T09:36:58.157Z</time>
      </trkpt>
      <trkpt lat="43.06190013885498" lon="-0.455707311630249">
        <ele>798.8110865001848</ele>
        <time>2021-08-05T09:37:06.846Z</time>
      </trkpt>
      <trkpt lat="43.062061071395874" lon="-0.4558038711547852">
        <ele>801.8092037304107</ele>
        <time>2021-08-05T09:37:15.537Z</time>
      </trkpt>
      <trkpt lat="43.06216835975647" lon="-0.4559969902038574">
        <ele>804.8069761800714</ele>
        <time>2021-08-05T09:37:24.231Z</time>
      </trkpt>
      <trkpt lat="43.06216835975647" lon="-0.4562222957611084">
        <ele>807.7404252165668</ele>
        <time>2021-08-05T09:37:32.928Z</time>
      </trkpt>
      <trkpt lat="43.06209325790405" lon="-0.4564583301544189">
        <ele>810.5958059532022</ele>
        <time>2021-08-05T09:37:41.628Z</time>
      </trkpt>
      <trkpt lat="43.06196451187134" lon="-0.4566621780395508">
        <ele>813.4161273309155</ele>
        <time>2021-08-05T09:37:50.331Z</time>
      </trkpt>
      <trkpt lat="43.06158900260925" lon="-0.4569411277770996">
        <ele>816.2613222748853</ele>
        <time>2021-08-05T09:37:59.041Z</time>
      </trkpt>
      <trkpt lat="43.061524629592896" lon="-0.4570484161376953">
        <ele>818.9000580254401</ele>
        <time>2021-08-05T09:38:07.753Z</time>
      </trkpt>
      <trkpt lat="43.061524629592896" lon="-0.4571342468261719">
        <ele>821.4504303759963</ele>
        <time>2021-08-05T09:38:16.466Z</time>
      </trkpt>
      <trkpt lat="43.061535358428955" lon="-0.4572093486785889">
        <ele>823.9259284119153</ele>
        <time>2021-08-05T09:38:25.179Z</time>
      </trkpt>
      <trkpt lat="43.06159973144531" lon="-0.4572951793670654">
        <ele>826.343184873861</ele>
        <time>2021-08-05T09:38:33.894Z</time>
      </trkpt>
      <trkpt lat="43.06185722351074" lon="-0.457531213760376">
        <ele>828.8388359525729</ele>
        <time>2021-08-05T09:38:42.614Z</time>
      </trkpt>
      <trkpt lat="43.06195378303528" lon="-0.4575848579406738">
        <ele>831.1040560366079</ele>
        <time>2021-08-05T09:38:51.336Z</time>
      </trkpt>
      <trkpt lat="43.062071800231934" lon="-0.457606315612793">
        <ele>833.2659879233137</ele>
        <time>2021-08-05T09:39:00.059Z</time>
      </trkpt>
      <trkpt lat="43.06235074996948" lon="-0.4575955867767334">
        <ele>835.2848098623151</ele>
        <time>2021-08-05T09:39:08.787Z</time>
      </trkpt>
      <trkpt lat="43.062500953674316" lon="-0.4576492309570312">
        <ele>837.3361108458453</ele>
        <time>2021-08-05T09:39:17.517Z</time>
      </trkpt>
      <trkpt lat="43.0628228187561" lon="-0.4578530788421631">
        <ele>839.3433501249671</ele>
        <time>2021-08-05T09:39:26.253Z</time>
      </trkpt>
      <trkpt lat="43.06286581791937" lon="-0.4578530788421631">
        <ele>841.2272141419281</ele>
        <time>2021-08-05T09:39:34.990Z</time>
      </trkpt>
      <trkpt lat="43.06295156478882" lon="-0.4578852653503418">
        <ele>843.041599147463</ele>
        <time>2021-08-05T09:39:43.728Z</time>
      </trkpt>
      <trkpt lat="43.06309103965759" lon="-0.4578530788421631">
        <ele>844.8374620958294</ele>
        <time>2021-08-05T09:39:52.468Z</time>
      </trkpt>
      <trkpt lat="43.06320914067328" lon="-0.4577994346618652">
        <ele>846.5680548963239</ele>
        <time>2021-08-05T09:40:01.210Z</time>
      </trkpt>
      <trkpt lat="43.0633270740509" lon="-0.4577457904815674">
        <ele>848.2544356077086</ele>
        <time>2021-08-05T09:40:09.954Z</time>
      </trkpt>
      <trkpt lat="43.0634343624115" lon="-0.4577457904815674">
        <ele>849.8843282210762</ele>
        <time>2021-08-05T09:40:18.700Z</time>
      </trkpt>
      <trkpt lat="43.063498735427856" lon="-0.4577779769897461">
        <ele>851.4433555708174</ele>
        <time>2021-08-05T09:40:27.447Z</time>
      </trkpt>
      <trkpt lat="43.06365975178778" lon="-0.4579281806945801">
        <ele>852.9458333103528</ele>
        <time>2021-08-05T09:40:36.197Z</time>
      </trkpt>
      <trkpt lat="43.063777685165405" lon="-0.4580140113830566">
        <ele>854.3934718609191</ele>
        <time>2021-08-05T09:40:44.949Z</time>
      </trkpt>
      <trkpt lat="43.06392788887024" lon="-0.4580891132354736">
        <ele>855.7655036322865</ele>
        <time>2021-08-05T09:40:53.704Z</time>
      </trkpt>
      <trkpt lat="43.06411027908325" lon="-0.4581320285797119">
        <ele>857.1282732664182</ele>
        <time>2021-08-05T09:41:02.462Z</time>
      </trkpt>
      <trkpt lat="43.064292669296265" lon="-0.4581534862518311">
        <ele>858.5004664708094</ele>
        <time>2021-08-05T09:41:11.223Z</time>
      </trkpt>
      <trkpt lat="43.06446433067322" lon="-0.4581964015960693">
        <ele>859.8532473544504</ele>
        <time>2021-08-05T09:41:19.987Z</time>
      </trkpt>
      <trkpt lat="43.06468963623047" lon="-0.4583573341369629">
        <ele>861.1355344353559</ele>
        <time>2021-08-05T09:41:28.755Z</time>
      </trkpt>
      <trkpt lat="43.06511878967285" lon="-0.4587435722351074">
        <ele>862.4052883177737</ele>
        <time>2021-08-05T09:41:37.531Z</time>
      </trkpt>
      <trkpt lat="43.06523680686951" lon="-0.4587864875793457">
        <ele>863.5668466984075</ele>
        <time>2021-08-05T09:41:46.309Z</time>
      </trkpt>
      <trkpt lat="43.06533336639404" lon="-0.4588186740875244">
        <ele>864.6672453464913</ele>
        <time>2021-08-05T09:41:55.089Z</time>
      </trkpt>
      <trkpt lat="43.06541919708252" lon="-0.4588615894317627">
        <ele>865.699692745424</ele>
        <time>2021-08-05T09:42:03.870Z</time>
      </trkpt>
      <trkpt lat="43.06548357009888" lon="-0.4589581489562988">
        <ele>866.6226499306268</ele>
        <time>2021-08-05T09:42:12.653Z</time>
      </trkpt>
      <trkpt lat="43.06561231613159" lon="-0.4593336582183838">
        <ele>867.4638036027281</ele>
        <time>2021-08-05T09:42:21.440Z</time>
      </trkpt>
      <trkpt lat="43.065762519836426" lon="-0.4595482349395752">
        <ele>868.3384592257149</ele>
        <time>2021-08-05T09:42:30.231Z</time>
      </trkpt>
      <trkpt lat="43.06613802909851" lon="-0.4598057270050049">
        <ele>869.4932964077568</ele>
        <time>2021-08-05T09:42:39.029Z</time>
      </trkpt>
      <trkpt lat="43.06623458862305" lon="-0.459902286529541">
        <ele>870.2598572932534</ele>
        <time>2021-08-05T09:42:47.829Z</time>
      </trkpt>
      <trkpt lat="43.066277503967285" lon="-0.4600203037261963">
        <ele>870.8814906252665</ele>
        <time>2021-08-05T09:42:56.630Z</time>
      </trkpt>
      <trkpt lat="43.066298961639404" lon="-0.4601705074310303">
        <ele>871.4088151111434</ele>
        <time>2021-08-05T09:43:05.433Z</time>
      </trkpt>
      <trkpt lat="43.06632041931152" lon="-0.4610180854797363">
        <ele>872.0041413660996</ele>
        <time>2021-08-05T09:43:14.246Z</time>
      </trkpt>
      <trkpt lat="43.066309690475464" lon="-0.4614579677581787">
        <ele>872.4936318128214</ele>
        <time>2021-08-05T09:43:23.064Z</time>
      </trkpt>
      <trkpt lat="43.066256046295166" lon="-0.4616081714630127">
        <ele>872.8244747209324</ele>
        <time>2021-08-05T09:43:31.884Z</time>
      </trkpt>
      <trkpt lat="43.06615948677063" lon="-0.4617905616760254">
        <ele>873.0823060794758</ele>
        <time>2021-08-05T09:43:40.707Z</time>
      </trkpt>
      <trkpt lat="43.06594491004944" lon="-0.4624879360198975">
        <ele>873.4304319302915</ele>
        <time>2021-08-05T09:43:49.538Z</time>
      </trkpt>
      <trkpt lat="43.06571960449219" lon="-0.4629921913146973">
        <ele>873.4719378947098</ele>
        <time>2021-08-05T09:43:58.376Z</time>
      </trkpt>
      <trkpt lat="43.06562304496765" lon="-0.4632925987243652">
        <ele>873.5771458495259</ele>
        <time>2021-08-05T09:44:07.218Z</time>
      </trkpt>
      <trkpt lat="43.06549429893494" lon="-0.4637539386749268">
        <ele>873.6585804507728</ele>
        <time>2021-08-05T09:44:16.066Z</time>
      </trkpt>
      <trkpt lat="43.06536555290222" lon="-0.4640650749206543">
        <ele>873.6046765937704</ele>
        <time>2021-08-05T09:44:24.918Z</time>
      </trkpt>
      <trkpt lat="43.06535482406616" lon="-0.4641938209533691">
        <ele>873.5663943181565</ele>
        <time>2021-08-05T09:44:33.772Z</time>
      </trkpt>
      <trkpt lat="43.06536555290222" lon="-0.4644298553466797">
        <ele>873.487842479253</ele>
        <time>2021-08-05T09:44:42.629Z</time>
      </trkpt>
      <trkpt lat="43.06533336639404" lon="-0.4649341106414795">
        <ele>873.358250940651</ele>
        <time>2021-08-05T09:44:51.491Z</time>
      </trkpt>
      <trkpt lat="43.0653440952301" lon="-0.4651057720184326">
        <ele>873.155964818855</ele>
        <time>2021-08-05T09:45:00.355Z</time>
      </trkpt>
      <trkpt lat="43.06542992591858" lon="-0.4655027389526367">
        <ele>872.9484800327621</ele>
        <time>2021-08-05T09:45:09.224Z</time>
      </trkpt>
      <trkpt lat="43.06545146740973" lon="-0.4657173156738281">
        <ele>872.6801385558956</ele>
        <time>2021-08-05T09:45:18.096Z</time>
      </trkpt>
      <trkpt lat="43.06546211242676" lon="-0.4658246040344238">
        <ele>872.383638646621</ele>
        <time>2021-08-05T09:45:26.969Z</time>
      </trkpt>
      <trkpt lat="43.06540855206549" lon="-0.4670798778533936">
        <ele>872.007683715665</ele>
        <time>2021-08-05T09:45:35.857Z</time>
      </trkpt>
      <trkpt lat="43.06533336639404" lon="-0.4684317111968994">
        <ele>871.6021727115201</ele>
        <time>2021-08-05T09:45:44.761Z</time>
      </trkpt>
      <trkpt lat="43.065290451049805" lon="-0.4686248302459717">
        <ele>871.2901390059836</ele>
        <time>2021-08-05T09:45:53.667Z</time>
      </trkpt>
      <trkpt lat="43.06510806083679" lon="-0.4694080352783203">
        <ele>870.8215413421669</ele>
        <time>2021-08-05T09:46:02.583Z</time>
      </trkpt>
      <trkpt lat="43.065100936219096" lon="-0.4694491066038609">
        <ele>870.5426517807531</ele>
        <time>2021-08-05T09:46:11.499Z</time>
      </trkpt>
      <trkpt lat="43.06510102003813" lon="-0.4694489389657974">
        <ele>870.3058702019887</ele>
        <time>2021-08-05T09:46:20.415Z</time>
      </trkpt>
      <trkpt lat="43.065065229311585" lon="-0.4696547985076904">
        <ele>870.0883141256563</ele>
        <time>2021-08-05T09:46:29.334Z</time>
      </trkpt>
      <trkpt lat="43.065065145492554" lon="-0.4696547985076904">
        <ele>869.9460199187628</ele>
        <time>2021-08-05T09:46:38.253Z</time>
      </trkpt>
      <trkpt lat="43.065054416656494" lon="-0.4700303077697754">
        <ele>869.8489372671991</ele>
        <time>2021-08-05T09:46:47.176Z</time>
      </trkpt>
      <trkpt lat="43.06507587432861" lon="-0.4702877998352051">
        <ele>869.8722266843147</ele>
        <time>2021-08-05T09:46:56.102Z</time>
      </trkpt>
      <trkpt lat="43.065054416656494" lon="-0.4704701900482178">
        <ele>869.9628002210925</ele>
        <time>2021-08-05T09:47:05.030Z</time>
      </trkpt>
      <trkpt lat="43.065043687820435" lon="-0.4705023765563965">
        <ele>870.1182923229267</ele>
        <time>2021-08-05T09:47:13.959Z</time>
      </trkpt>
      <trkpt lat="43.065000772476196" lon="-0.4705774784088135">
        <ele>870.3731249190456</ele>
        <time>2021-08-05T09:47:22.889Z</time>
      </trkpt>
      <trkpt lat="43.06492575444281" lon="-0.4706740379333496">
        <ele>870.7317944044889</ele>
        <time>2021-08-05T09:47:31.821Z</time>
      </trkpt>
      <trkpt lat="43.06472190655768" lon="-0.4708993434906006">
        <ele>871.2059198661675</ele>
        <time>2021-08-05T09:47:40.757Z</time>
      </trkpt>
      <trkpt lat="43.06437849998474" lon="-0.4712533950805664">
        <ele>871.8044273177665</ele>
        <time>2021-08-05T09:47:49.700Z</time>
      </trkpt>
      <trkpt lat="43.064249753952026" lon="-0.4714250564575195">
        <ele>872.5044893521125</ele>
        <time>2021-08-05T09:47:58.646Z</time>
      </trkpt>
      <trkpt lat="43.0641318205744" lon="-0.4717791080474854">
        <ele>873.3198052518213</ele>
        <time>2021-08-05T09:48:07.596Z</time>
      </trkpt>
      <trkpt lat="43.06397080421448" lon="-0.472412109375">
        <ele>874.2547339361024</ele>
        <time>2021-08-05T09:48:16.554Z</time>
      </trkpt>
      <trkpt lat="43.06372404098511" lon="-0.4732275009155273">
        <ele>875.4068378823978</ele>
        <time>2021-08-05T09:48:25.522Z</time>
      </trkpt>
      <trkpt lat="43.0634880065918" lon="-0.4737639427185059">
        <ele>876.5988421638351</ele>
        <time>2021-08-05T09:48:34.498Z</time>
      </trkpt>
      <trkpt lat="43.06333780288696" lon="-0.473935604095459">
        <ele>877.9378556621241</ele>
        <time>2021-08-05T09:48:43.477Z</time>
      </trkpt>
      <trkpt lat="43.06272625923157" lon="-0.4742038249969482">
        <ele>879.5042065360494</ele>
        <time>2021-08-05T09:48:52.466Z</time>
      </trkpt>
      <trkpt lat="43.06258678436279" lon="-0.4744827747344971">
        <ele>881.1502023338562</ele>
        <time>2021-08-05T09:49:01.459Z</time>
      </trkpt>
      <trkpt lat="43.062286376953125" lon="-0.475383996963501">
        <ele>882.9321658595737</ele>
        <time>2021-08-05T09:49:10.464Z</time>
      </trkpt>
      <trkpt lat="43.061803579330444" lon="-0.4771435260772705">
        <ele>884.9538575932413</ele>
        <time>2021-08-05T09:49:19.491Z</time>
      </trkpt>
      <trkpt lat="43.061363697052" lon="-0.4782593250274658">
        <ele>887.0468193916506</ele>
        <time>2021-08-05T09:49:28.533Z</time>
      </trkpt>
      <trkpt lat="43.061288595199585" lon="-0.4783880710601807">
        <ele>889.299882908819</ele>
        <time>2021-08-05T09:49:37.576Z</time>
      </trkpt>
      <trkpt lat="43.06122422218323" lon="-0.4784739017486572">
        <ele>891.6948470273223</ele>
        <time>2021-08-05T09:49:46.621Z</time>
      </trkpt>
      <trkpt lat="43.06112766265869" lon="-0.4787206649780273">
        <ele>894.2505053513535</ele>
        <time>2021-08-05T09:49:55.669Z</time>
      </trkpt>
      <trkpt lat="43.060762882232666" lon="-0.4803299903869629">
        <ele>896.9770783786928</ele>
        <time>2021-08-05T09:50:04.737Z</time>
      </trkpt>
      <trkpt lat="43.060559034347534" lon="-0.4822397232055664">
        <ele>899.9496241966708</ele>
        <time>2021-08-05T09:50:13.828Z</time>
      </trkpt>
      <trkpt lat="43.060022592544556" lon="-0.4856300354003906">
        <ele>903.4994972035246</ele>
        <time>2021-08-05T09:50:22.959Z</time>
      </trkpt>
      <trkpt lat="43.059797286987305" lon="-0.4862630367279053">
        <ele>906.6691865361954</ele>
        <time>2021-08-05T09:50:32.098Z</time>
      </trkpt>
      <trkpt lat="43.05959343910217" lon="-0.4869067668914795">
        <ele>910.0253654502817</ele>
        <time>2021-08-05T09:50:41.246Z</time>
      </trkpt>
      <trkpt lat="43.059078538790345" lon="-0.4887092113494873">
        <ele>913.981729299205</ele>
        <time>2021-08-05T09:50:50.416Z</time>
      </trkpt>
      <trkpt lat="43.05907845497131" lon="-0.4887092113494873">
        <ele>917.1766828577299</ele>
        <time>2021-08-05T09:50:59.586Z</time>
      </trkpt>
      <trkpt lat="43.05898189544678" lon="-0.4889237880706787">
        <ele>920.5227146299206</ele>
        <time>2021-08-05T09:51:08.759Z</time>
      </trkpt>
      <trkpt lat="43.0589497089386" lon="-0.4890632629394531">
        <ele>923.9079304843829</ele>
        <time>2021-08-05T09:51:17.934Z</time>
      </trkpt>
      <trkpt lat="43.0589497089386" lon="-0.489116907119751">
        <ele>927.2568233376312</ele>
        <time>2021-08-05T09:51:27.110Z</time>
      </trkpt>
      <trkpt lat="43.05899262428284" lon="-0.4891705513000488">
        <ele>930.6291808711942</ele>
        <time>2021-08-05T09:51:36.287Z</time>
      </trkpt>
      <trkpt lat="43.059089267626405" lon="-0.4892349243164062">
        <ele>934.0739772895638</ele>
        <time>2021-08-05T09:51:45.465Z</time>
      </trkpt>
      <trkpt lat="43.05918574333191" lon="-0.4892349243164062">
        <ele>937.5175976949164</ele>
        <time>2021-08-05T09:51:54.645Z</time>
      </trkpt>
      <trkpt lat="43.059271574020386" lon="-0.4892027378082275">
        <ele>940.9195846611864</ele>
        <time>2021-08-05T09:52:03.826Z</time>
      </trkpt>
      <trkpt lat="43.05947542190552" lon="-0.4891061782836914">
        <ele>944.3523520407387</ele>
        <time>2021-08-05T09:52:13.011Z</time>
      </trkpt>
      <trkpt lat="43.059561252593994" lon="-0.4890203475952148">
        <ele>947.6508978940459</ele>
        <time>2021-08-05T09:52:22.197Z</time>
      </trkpt>
      <trkpt lat="43.05970072746277" lon="-0.4888379573822021">
        <ele>950.8827985247469</ele>
        <time>2021-08-05T09:52:31.387Z</time>
      </trkpt>
      <trkpt lat="43.060054779052734" lon="-0.4885697364807129">
        <ele>954.1485984871101</ele>
        <time>2021-08-05T09:52:40.583Z</time>
      </trkpt>
      <trkpt lat="43.060269355773926" lon="-0.4883122444152832">
        <ele>957.2942021790687</ele>
        <time>2021-08-05T09:52:49.784Z</time>
      </trkpt>
      <trkpt lat="43.06037664413452" lon="-0.4882371425628662">
        <ele>960.5102714577997</ele>
        <time>2021-08-05T09:52:58.987Z</time>
      </trkpt>
      <trkpt lat="43.06043028831482" lon="-0.4882156848907471">
        <ele>963.7031351621076</ele>
        <time>2021-08-05T09:53:08.190Z</time>
      </trkpt>
      <trkpt lat="43.06047320365906" lon="-0.4882478713989258">
        <ele>966.8594071263592</ele>
        <time>2021-08-05T09:53:17.394Z</time>
      </trkpt>
      <trkpt lat="43.06049466133118" lon="-0.4882800579071045">
        <ele>969.9807820406188</ele>
        <time>2021-08-05T09:53:26.599Z</time>
      </trkpt>
      <trkpt lat="43.060505390167236" lon="-0.4883337020874023">
        <ele>973.0666245945956</ele>
        <time>2021-08-05T09:53:35.804Z</time>
      </trkpt>
      <trkpt lat="43.06049466133118" lon="-0.4883873462677002">
        <ele>976.1359645426617</ele>
        <time>2021-08-05T09:53:45.010Z</time>
      </trkpt>
      <trkpt lat="43.060269355773926" lon="-0.4886126518249512">
        <ele>979.2503942995793</ele>
        <time>2021-08-05T09:53:54.221Z</time>
      </trkpt>
      <trkpt lat="43.06022644042969" lon="-0.4886984825134277">
        <ele>982.2636604595277</ele>
        <time>2021-08-05T09:54:03.433Z</time>
      </trkpt>
      <trkpt lat="43.060065507888794" lon="-0.4891812801361084">
        <ele>985.5913607920829</ele>
        <time>2021-08-05T09:54:12.651Z</time>
      </trkpt>
      <trkpt lat="43.05970072746277" lon="-0.4899430274963379">
        <ele>988.8050849489533</ele>
        <time>2021-08-05T09:54:21.880Z</time>
      </trkpt>
      <trkpt lat="43.05943250656128" lon="-0.4906296730041504">
        <ele>992.0182465974829</ele>
        <time>2021-08-05T09:54:31.118Z</time>
      </trkpt>
      <trkpt lat="43.05935740470886" lon="-0.4907691478729248">
        <ele>994.6809034203134</ele>
        <time>2021-08-05T09:54:40.358Z</time>
      </trkpt>
      <trkpt lat="43.05915355682373" lon="-0.4910480976104736">
        <ele>997.0871598852438</ele>
        <time>2021-08-05T09:54:49.602Z</time>
      </trkpt>
      <trkpt lat="43.059056997299194" lon="-0.4912519454956055">
        <ele>999.505793469707</ele>
        <time>2021-08-05T09:54:58.849Z</time>
      </trkpt>
      <trkpt lat="43.05897116661072" lon="-0.4915201663970947">
        <ele>1001.9162339654381</ele>
        <time>2021-08-05T09:55:08.100Z</time>
      </trkpt>
      <trkpt lat="43.058820962905884" lon="-0.4921853542327881">
        <ele>1004.2735013741866</ele>
        <time>2021-08-05T09:55:17.359Z</time>
      </trkpt>
      <trkpt lat="43.05868148803711" lon="-0.4924213886260986">
        <ele>1006.2529541510224</ele>
        <time>2021-08-05T09:55:26.621Z</time>
      </trkpt>
      <trkpt lat="43.05841326713562" lon="-0.492786169052124">
        <ele>1008.147417794793</ele>
        <time>2021-08-05T09:55:35.889Z</time>
      </trkpt>
      <trkpt lat="43.058359706774354" lon="-0.4929149150848389">
        <ele>1010.000567657559</ele>
        <time>2021-08-05T09:55:45.159Z</time>
      </trkpt>
      <trkpt lat="43.05835962295532" lon="-0.4930329322814941">
        <ele>1011.7318436856399</ele>
        <time>2021-08-05T09:55:54.431Z</time>
      </trkpt>
      <trkpt lat="43.05841326713562" lon="-0.493161678314209">
        <ele>1013.3875843825099</ele>
        <time>2021-08-05T09:56:03.704Z</time>
      </trkpt>
      <trkpt lat="43.05867075920105" lon="-0.4934084415435791">
        <ele>1015.2456487109403</ele>
        <time>2021-08-05T09:56:12.982Z</time>
      </trkpt>
      <trkpt lat="43.05874586105347" lon="-0.493462085723877">
        <ele>1016.625545150703</ele>
        <time>2021-08-05T09:56:22.262Z</time>
      </trkpt>
      <trkpt lat="43.05890679359436" lon="-0.493462085723877">
        <ele>1017.8495050389446</ele>
        <time>2021-08-05T09:56:31.544Z</time>
      </trkpt>
      <trkpt lat="43.05913209915161" lon="-0.4933011531829834">
        <ele>1018.7603054141034</ele>
        <time>2021-08-05T09:56:40.830Z</time>
      </trkpt>
      <trkpt lat="43.05921792984009" lon="-0.4931724071502686">
        <ele>1019.6459709890783</ele>
        <time>2021-08-05T09:56:50.118Z</time>
      </trkpt>
      <trkpt lat="43.059282302856445" lon="-0.4929685592651367">
        <ele>1020.3920556384569</ele>
        <time>2021-08-05T09:56:59.409Z</time>
      </trkpt>
      <trkpt lat="43.05937886238098" lon="-0.4924535751342773">
        <ele>1021.0606525046119</ele>
        <time>2021-08-05T09:57:08.706Z</time>
      </trkpt>
      <trkpt lat="43.05946469306946" lon="-0.4915738105773926">
        <ele>1021.5501523541247</ele>
        <time>2021-08-05T09:57:18.014Z</time>
      </trkpt>
      <trkpt lat="43.05949687957764" lon="-0.4914557933807373">
        <ele>1021.9860388178847</ele>
        <time>2021-08-05T09:57:27.323Z</time>
      </trkpt>
      <trkpt lat="43.059539794921875" lon="-0.4913592338562012">
        <ele>1022.3311231461093</ele>
        <time>2021-08-05T09:57:36.633Z</time>
      </trkpt>
      <trkpt lat="43.05971145629883" lon="-0.4911446571350098">
        <ele>1022.5562899217089</ele>
        <time>2021-08-05T09:57:45.947Z</time>
      </trkpt>
      <trkpt lat="43.05987238883972" lon="-0.4908764362335205">
        <ele>1022.6329698175447</ele>
        <time>2021-08-05T09:57:55.265Z</time>
      </trkpt>
      <trkpt lat="43.05993676185608" lon="-0.4908335208892822">
        <ele>1022.6723233048538</ele>
        <time>2021-08-05T09:58:04.584Z</time>
      </trkpt>
      <trkpt lat="43.05999040603638" lon="-0.4908442497253418">
        <ele>1022.671757538309</ele>
        <time>2021-08-05T09:58:13.904Z</time>
      </trkpt>
      <trkpt lat="43.060054779052734" lon="-0.4908764362335205">
        <ele>1022.6113976634439</ele>
        <time>2021-08-05T09:58:23.225Z</time>
      </trkpt>
      <trkpt lat="43.06010842323303" lon="-0.4909622669219971">
        <ele>1022.5163706614231</ele>
        <time>2021-08-05T09:58:32.548Z</time>
      </trkpt>
      <trkpt lat="43.06060194969177" lon="-0.4924321174621582">
        <ele>1022.171475656334</ele>
        <time>2021-08-05T09:58:41.890Z</time>
      </trkpt>
      <trkpt lat="43.06061267852783" lon="-0.4927432537078857">
        <ele>1021.9189494893778</ele>
        <time>2021-08-05T09:58:51.235Z</time>
      </trkpt>
      <trkpt lat="43.06049466133118" lon="-0.4931187629699707">
        <ele>1021.7169986476147</ele>
        <time>2021-08-05T09:59:00.585Z</time>
      </trkpt>
      <trkpt lat="43.060258626937866" lon="-0.4936444759368896">
        <ele>1021.4075325859638</ele>
        <time>2021-08-05T09:59:09.942Z</time>
      </trkpt>
      <trkpt lat="43.060065507888794" lon="-0.4941058158874512">
        <ele>1021.1629439609421</ele>
        <time>2021-08-05T09:59:19.306Z</time>
      </trkpt>
      <trkpt lat="43.060044050216675" lon="-0.4943525791168213">
        <ele>1020.8253379652606</ele>
        <time>2021-08-05T09:59:28.672Z</time>
      </trkpt>
      <trkpt lat="43.06007623672485" lon="-0.4946529865264893">
        <ele>1020.4276299151813</ele>
        <time>2021-08-05T09:59:38.042Z</time>
      </trkpt>
      <trkpt lat="43.06033372879028" lon="-0.4958117008209229">
        <ele>1020.0618829122684</ele>
        <time>2021-08-05T09:59:47.426Z</time>
      </trkpt>
      <trkpt lat="43.06037664413452" lon="-0.4959619045257568">
        <ele>1019.620313661507</ele>
        <time>2021-08-05T09:59:56.812Z</time>
      </trkpt>
      <trkpt lat="43.060462474823" lon="-0.4960906505584717">
        <ele>1019.12214233248</ele>
        <time>2021-08-05T10:00:06.200Z</time>
      </trkpt>
      <trkpt lat="43.060516119003296" lon="-0.49613356590271">
        <ele>1018.5641175420772</ele>
        <time>2021-08-05T10:00:15.589Z</time>
      </trkpt>
      <trkpt lat="43.06060194969177" lon="-0.4961764812469482">
        <ele>1017.9544280511743</ele>
        <time>2021-08-05T10:00:24.980Z</time>
      </trkpt>
      <trkpt lat="43.060784339904785" lon="-0.4961979389190674">
        <ele>1017.2781791653633</ele>
        <time>2021-08-05T10:00:34.374Z</time>
      </trkpt>
      <trkpt lat="43.06087017059326" lon="-0.4962301254272461">
        <ele>1016.6835171933966</ele>
        <time>2021-08-05T10:00:43.769Z</time>
      </trkpt>
      <trkpt lat="43.06114912033081" lon="-0.4963696002960205">
        <ele>1016.1428481690784</ele>
        <time>2021-08-05T10:00:53.169Z</time>
      </trkpt>
      <trkpt lat="43.06142807006836" lon="-0.4963803291320801">
        <ele>1015.4555529084776</ele>
        <time>2021-08-05T10:01:02.573Z</time>
      </trkpt>
      <trkpt lat="43.06170701980591" lon="-0.4964232444763184">
        <ele>1014.7634102600282</ele>
        <time>2021-08-05T10:01:11.982Z</time>
      </trkpt>
      <trkpt lat="43.06182503700256" lon="-0.4964661598205566">
        <ele>1014.1076736480227</ele>
        <time>2021-08-05T10:01:21.393Z</time>
      </trkpt>
      <trkpt lat="43.06193232536316" lon="-0.4965305328369141">
        <ele>1013.473935524474</ele>
        <time>2021-08-05T10:01:30.806Z</time>
      </trkpt>
      <trkpt lat="43.06225427426398" lon="-0.496906042098999">
        <ele>1012.8994638670563</ele>
        <time>2021-08-05T10:01:40.225Z</time>
      </trkpt>
      <trkpt lat="43.06237229146063" lon="-0.496981143951416">
        <ele>1012.2629934983729</ele>
        <time>2021-08-05T10:01:49.646Z</time>
      </trkpt>
      <trkpt lat="43.0623722076416" lon="-0.496981143951416">
        <ele>1011.6686056275037</ele>
        <time>2021-08-05T10:01:59.067Z</time>
      </trkpt>
      <trkpt lat="43.062554597854614" lon="-0.4970347881317139">
        <ele>1011.0938297007548</ele>
        <time>2021-08-05T10:02:08.491Z</time>
      </trkpt>
      <trkpt lat="43.06269407272339" lon="-0.4971420764923096">
        <ele>1010.4781987077959</ele>
        <time>2021-08-05T10:02:17.918Z</time>
      </trkpt>
      <trkpt lat="43.06294083595276" lon="-0.4974746704101562">
        <ele>1009.9788602136861</ele>
        <time>2021-08-05T10:02:27.350Z</time>
      </trkpt>
      <trkpt lat="43.06318759918213" lon="-0.4976999759674072">
        <ele>1009.4638261514451</ele>
        <time>2021-08-05T10:02:36.787Z</time>
      </trkpt>
      <trkpt lat="43.06341290473938" lon="-0.4980432987213135">
        <ele>1009.067919754684</ele>
        <time>2021-08-05T10:02:46.230Z</time>
      </trkpt>
      <trkpt lat="43.06373476982117" lon="-0.4984939098358154">
        <ele>1008.6084806324486</ele>
        <time>2021-08-05T10:02:55.680Z</time>
      </trkpt>
      <trkpt lat="43.063820600509644" lon="-0.4986011981964111">
        <ele>1008.2088335304244</ele>
        <time>2021-08-05T10:03:05.132Z</time>
      </trkpt>
      <trkpt lat="43.0639386177063" lon="-0.4986870288848877">
        <ele>1007.8222252606824</ele>
        <time>2021-08-05T10:03:14.586Z</time>
      </trkpt>
      <trkpt lat="43.06408882141113" lon="-0.4987084865570068">
        <ele>1007.4472290166498</ele>
        <time>2021-08-05T10:03:24.042Z</time>
      </trkpt>
      <trkpt lat="43.064281940460205" lon="-0.4986441135406494">
        <ele>1007.0395909639315</ele>
        <time>2021-08-05T10:03:33.502Z</time>
      </trkpt>
      <trkpt lat="43.06442141532898" lon="-0.4985368251800537">
        <ele>1006.6101107078484</ele>
        <time>2021-08-05T10:03:42.964Z</time>
      </trkpt>
      <trkpt lat="43.06471109390259" lon="-0.4982471466064453">
        <ele>1006.0639927947383</ele>
        <time>2021-08-05T10:03:52.432Z</time>
      </trkpt>
      <trkpt lat="43.064818382263184" lon="-0.4981827735900879">
        <ele>1005.7716578684584</ele>
        <time>2021-08-05T10:04:01.902Z</time>
      </trkpt>
      <trkpt lat="43.06493639945984" lon="-0.4982256889343262">
        <ele>1005.569662334768</ele>
        <time>2021-08-05T10:04:11.374Z</time>
      </trkpt>
      <trkpt lat="43.06499004364014" lon="-0.498279333114624">
        <ele>1005.4269340442911</ele>
        <time>2021-08-05T10:04:20.847Z</time>
      </trkpt>
      <trkpt lat="43.065043687820435" lon="-0.4983651638031006">
        <ele>1005.3535083398258</ele>
        <time>2021-08-05T10:04:30.321Z</time>
      </trkpt>
      <trkpt lat="43.06508660316467" lon="-0.498504638671875">
        <ele>1005.3519908004412</ele>
        <time>2021-08-05T10:04:39.797Z</time>
      </trkpt>
      <trkpt lat="43.06517243385315" lon="-0.4988265037536621">
        <ele>1005.4178118527993</ele>
        <time>2021-08-05T10:04:49.277Z</time>
      </trkpt>
      <trkpt lat="43.06523680686951" lon="-0.4991590976715088">
        <ele>1005.5271136858323</ele>
        <time>2021-08-05T10:04:58.761Z</time>
      </trkpt>
      <trkpt lat="43.065247535705566" lon="-0.4993307590484619">
        <ele>1005.6625624361427</ele>
        <time>2021-08-05T10:05:08.247Z</time>
      </trkpt>
      <trkpt lat="43.06523680686951" lon="-0.4998135566711426">
        <ele>1005.7612362721294</ele>
        <time>2021-08-05T10:05:17.739Z</time>
      </trkpt>
      <trkpt lat="43.06520462036133" lon="-0.5000495910644531">
        <ele>1006.0124684985876</ele>
        <time>2021-08-05T10:05:27.233Z</time>
      </trkpt>
      <trkpt lat="43.06499004364014" lon="-0.5010902881622314">
        <ele>1006.5010530174172</ele>
        <time>2021-08-05T10:05:36.740Z</time>
      </trkpt>
      <trkpt lat="43.06497931480408" lon="-0.501326322555542">
        <ele>1006.9330548580047</ele>
        <time>2021-08-05T10:05:46.250Z</time>
      </trkpt>
      <trkpt lat="43.06497931480408" lon="-0.5016696453094482">
        <ele>1007.4996896949499</ele>
        <time>2021-08-05T10:05:55.764Z</time>
      </trkpt>
      <trkpt lat="43.065000772476196" lon="-0.5018413066864014">
        <ele>1008.1040436139135</ele>
        <time>2021-08-05T10:06:05.280Z</time>
      </trkpt>
      <trkpt lat="43.065032958984375" lon="-0.5019271373748779">
        <ele>1008.7502453595756</ele>
        <time>2021-08-05T10:06:14.797Z</time>
      </trkpt>
      <trkpt lat="43.065065145492554" lon="-0.5019485950469971">
        <ele>1009.4226691492627</ele>
        <time>2021-08-05T10:06:24.315Z</time>
      </trkpt>
      <trkpt lat="43.06516170501709" lon="-0.5019915103912354">
        <ele>1010.2156147991604</ele>
        <time>2021-08-05T10:06:33.834Z</time>
      </trkpt>
      <trkpt lat="43.065301179885864" lon="-0.5019485950469971">
        <ele>1011.1508235414797</ele>
        <time>2021-08-05T10:06:43.356Z</time>
      </trkpt>
      <trkpt lat="43.06597709655762" lon="-0.5012297630310059">
        <ele>1011.9073935870016</ele>
        <time>2021-08-05T10:06:52.891Z</time>
      </trkpt>
      <trkpt lat="43.06687831878662" lon="-0.5005431175231934">
        <ele>1012.2523735537081</ele>
        <time>2021-08-05T10:07:02.443Z</time>
      </trkpt>
      <trkpt lat="43.067039251327515" lon="-0.5004572868347168">
        <ele>1013.2267180098424</ele>
        <time>2021-08-05T10:07:11.998Z</time>
      </trkpt>
      <trkpt lat="43.06711435317993" lon="-0.5004358291625977">
        <ele>1014.2629400010392</ele>
        <time>2021-08-05T10:07:21.554Z</time>
      </trkpt>
      <trkpt lat="43.06720026768744" lon="-0.5004465579986572">
        <ele>1015.365562704513</ele>
        <time>2021-08-05T10:07:31.111Z</time>
      </trkpt>
      <trkpt lat="43.06720018386841" lon="-0.5004465579986572">
        <ele>1016.4869222135533</ele>
        <time>2021-08-05T10:07:40.668Z</time>
      </trkpt>
      <trkpt lat="43.06744694709778" lon="-0.5005216598510742">
        <ele>1017.7459872172819</ele>
        <time>2021-08-05T10:07:50.229Z</time>
      </trkpt>
      <trkpt lat="43.067811727523804" lon="-0.5005431175231934">
        <ele>1018.9980070799224</ele>
        <time>2021-08-05T10:07:59.796Z</time>
      </trkpt>
      <trkpt lat="43.06796193122864" lon="-0.5006182193756104">
        <ele>1020.3037554625732</ele>
        <time>2021-08-05T10:08:09.366Z</time>
      </trkpt>
      <trkpt lat="43.06815505027771" lon="-0.5007791519165039">
        <ele>1021.6802803673393</ele>
        <time>2021-08-05T10:08:18.939Z</time>
      </trkpt>
      <trkpt lat="43.06841254234314" lon="-0.5008864402770996">
        <ele>1023.0030936960693</ele>
        <time>2021-08-05T10:08:28.517Z</time>
      </trkpt>
      <trkpt lat="43.068541288375854" lon="-0.5010044574737549">
        <ele>1024.4129776819457</ele>
        <time>2021-08-05T10:08:38.097Z</time>
      </trkpt>
      <trkpt lat="43.06889533996582" lon="-0.5015194416046143">
        <ele>1026.092686464331</ele>
        <time>2021-08-05T10:08:47.685Z</time>
      </trkpt>
      <trkpt lat="43.06920647621155" lon="-0.5018413066864014">
        <ele>1027.4285857708571</ele>
        <time>2021-08-05T10:08:57.280Z</time>
      </trkpt>
      <trkpt lat="43.06933522224426" lon="-0.502098798751831">
        <ele>1028.8933912148086</ele>
        <time>2021-08-05T10:09:06.878Z</time>
      </trkpt>
      <trkpt lat="43.0693781375885" lon="-0.5022168159484863">
        <ele>1030.3410176538</ele>
        <time>2021-08-05T10:09:16.478Z</time>
      </trkpt>
      <trkpt lat="43.06939959526062" lon="-0.5023562908172607">
        <ele>1031.7617624999295</ele>
        <time>2021-08-05T10:09:26.079Z</time>
      </trkpt>
      <trkpt lat="43.06946396827698" lon="-0.5028820037841797">
        <ele>1033.1526833722448</ele>
        <time>2021-08-05T10:09:35.687Z</time>
      </trkpt>
      <trkpt lat="43.06946396827698" lon="-0.5030643939971924">
        <ele>1034.5112486393857</ele>
        <time>2021-08-05T10:09:45.297Z</time>
      </trkpt>
      <trkpt lat="43.06942105293274" lon="-0.5035901069641113">
        <ele>1035.9016110456696</ele>
        <time>2021-08-05T10:09:54.913Z</time>
      </trkpt>
      <trkpt lat="43.06938886642456" lon="-0.503772497177124">
        <ele>1037.1970553670303</ele>
        <time>2021-08-05T10:10:04.531Z</time>
      </trkpt>
      <trkpt lat="43.06918501853943" lon="-0.504523515701294">
        <ele>1038.8092803332383</ele>
        <time>2021-08-05T10:10:14.159Z</time>
      </trkpt>
      <trkpt lat="43.06918501853943" lon="-0.5047059059143066">
        <ele>1040.0240591153345</ele>
        <time>2021-08-05T10:10:23.789Z</time>
      </trkpt>
      <trkpt lat="43.06921720504761" lon="-0.5049741268157959">
        <ele>1041.1918345474849</ele>
        <time>2021-08-05T10:10:33.422Z</time>
      </trkpt>
      <trkpt lat="43.069292306900024" lon="-0.5052316188812256">
        <ele>1042.314283853951</ele>
        <time>2021-08-05T10:10:43.058Z</time>
      </trkpt>
      <trkpt lat="43.06934595108032" lon="-0.5053496360778809">
        <ele>1043.2882459786892</ele>
        <time>2021-08-05T10:10:52.696Z</time>
      </trkpt>
      <trkpt lat="43.069506883621216" lon="-0.5056500434875488">
        <ele>1044.223749297307</ele>
        <time>2021-08-05T10:11:02.338Z</time>
      </trkpt>
      <trkpt lat="43.06973218917847" lon="-0.5061221122741699">
        <ele>1045.116913181864</ele>
        <time>2021-08-05T10:11:11.987Z</time>
      </trkpt>
      <trkpt lat="43.06983947753906" lon="-0.506218671798706">
        <ele>1045.7529134042693</ele>
        <time>2021-08-05T10:11:21.638Z</time>
      </trkpt>
      <trkpt lat="43.070032596588135" lon="-0.506293773651123">
        <ele>1046.223416985398</ele>
        <time>2021-08-05T10:11:31.292Z</time>
      </trkpt>
      <trkpt lat="43.07009696960449" lon="-0.5063366889953613">
        <ele>1046.599269742604</ele>
        <time>2021-08-05T10:11:40.947Z</time>
      </trkpt>
      <trkpt lat="43.07013988494873" lon="-0.5064117908477783">
        <ele>1046.8596127227854</ele>
        <time>2021-08-05T10:11:50.603Z</time>
      </trkpt>
      <trkpt lat="43.07032227516174" lon="-0.5068087577819824">
        <ele>1046.8772705062047</ele>
        <time>2021-08-05T10:12:00.265Z</time>
      </trkpt>
      <trkpt lat="43.0703866481781" lon="-0.5070340633392334">
        <ele>1046.78815189425</ele>
        <time>2021-08-05T10:12:09.930Z</time>
      </trkpt>
      <trkpt lat="43.07042956352234" lon="-0.5072057247161865">
        <ele>1046.5700688377704</ele>
        <time>2021-08-05T10:12:19.597Z</time>
      </trkpt>
      <trkpt lat="43.07047256268561" lon="-0.5075061321258545">
        <ele>1046.211114083774</ele>
        <time>2021-08-05T10:12:29.267Z</time>
      </trkpt>
      <trkpt lat="43.07047256268561" lon="-0.5076241493225098">
        <ele>1045.6811421250216</ele>
        <time>2021-08-05T10:12:38.939Z</time>
      </trkpt>
      <trkpt lat="43.07047247886658" lon="-0.507742166519165">
        <ele>1044.9834374784266</ele>
        <time>2021-08-05T10:12:48.612Z</time>
      </trkpt>
      <trkpt lat="43.07045102119446" lon="-0.5078494548797607">
        <ele>1044.0939561428772</ele>
        <time>2021-08-05T10:12:58.286Z</time>
      </trkpt>
      <trkpt lat="43.07039737701416" lon="-0.5079567432403564">
        <ele>1043.0146726946596</ele>
        <time>2021-08-05T10:13:07.962Z</time>
      </trkpt>
      <trkpt lat="43.07011851109564" lon="-0.508342981338501">
        <ele>1041.6757411826216</ele>
        <time>2021-08-05T10:13:17.644Z</time>
      </trkpt>
      <trkpt lat="43.06970000267029" lon="-0.5088794231414795">
        <ele>1040.2823647410335</ele>
        <time>2021-08-05T10:13:27.336Z</time>
      </trkpt>
      <trkpt lat="43.0694317817688" lon="-0.5091583728790283">
        <ele>1038.6010307657127</ele>
        <time>2021-08-05T10:13:37.033Z</time>
      </trkpt>
      <trkpt lat="43.06913137435913" lon="-0.5093944072723389">
        <ele>1036.6590738928685</ele>
        <time>2021-08-05T10:13:46.735Z</time>
      </trkpt>
      <trkpt lat="43.068552017211914" lon="-0.5098021030426025">
        <ele>1034.5790339204432</ele>
        <time>2021-08-05T10:13:56.448Z</time>
      </trkpt>
      <trkpt lat="43.068519830703735" lon="-0.5098879337310791">
        <ele>1032.4869226703527</ele>
        <time>2021-08-05T10:14:06.162Z</time>
      </trkpt>
      <trkpt lat="43.068509101867676" lon="-0.5099523067474365">
        <ele>1030.2176665953725</ele>
        <time>2021-08-05T10:14:15.877Z</time>
      </trkpt>
      <trkpt lat="43.068530559539795" lon="-0.5100059509277344">
        <ele>1027.7794236302204</ele>
        <time>2021-08-05T10:14:25.593Z</time>
      </trkpt>
      <trkpt lat="43.068562746047974" lon="-0.5100488662719727">
        <ele>1025.208691547577</ele>
        <time>2021-08-05T10:14:35.309Z</time>
      </trkpt>
      <trkpt lat="43.06870222091675" lon="-0.5101132392883301">
        <ele>1022.4390195761335</ele>
        <time>2021-08-05T10:14:45.028Z</time>
      </trkpt>
      <trkpt lat="43.06942105293274" lon="-0.5103063583374023">
        <ele>1019.0154527779159</ele>
        <time>2021-08-05T10:14:54.758Z</time>
      </trkpt>
      <trkpt lat="43.06986093521118" lon="-0.5105745792388916">
        <ele>1015.7145545801645</ele>
        <time>2021-08-05T10:15:04.496Z</time>
      </trkpt>
      <trkpt lat="43.06994676589966" lon="-0.5106604099273682">
        <ele>1012.3809864028697</ele>
        <time>2021-08-05T10:15:14.236Z</time>
      </trkpt>
      <trkpt lat="43.070011138916016" lon="-0.5107569694519043">
        <ele>1008.9159188910003</ele>
        <time>2021-08-05T10:15:23.977Z</time>
      </trkpt>
      <trkpt lat="43.07006478309631" lon="-0.5108749866485596">
        <ele>1005.3144867403139</ele>
        <time>2021-08-05T10:15:33.720Z</time>
      </trkpt>
      <trkpt lat="43.070290088653564" lon="-0.5115079879760742">
        <ele>1001.3049013280527</ele>
        <time>2021-08-05T10:15:43.471Z</time>
      </trkpt>
      <trkpt lat="43.07034373283386" lon="-0.5116903781890869">
        <ele>997.4724819411304</ele>
        <time>2021-08-05T10:15:53.224Z</time>
      </trkpt>
      <trkpt lat="43.07032227516174" lon="-0.5121517181396484">
        <ele>993.8422934540217</ele>
        <time>2021-08-05T10:16:02.983Z</time>
      </trkpt>
      <trkpt lat="43.0703330039978" lon="-0.5122268199920654">
        <ele>989.8817344398116</ele>
        <time>2021-08-05T10:16:12.743Z</time>
      </trkpt>
      <trkpt lat="43.07037591934204" lon="-0.512312650680542">
        <ele>985.7268492355672</ele>
        <time>2021-08-05T10:16:22.504Z</time>
      </trkpt>
      <trkpt lat="43.07048329152167" lon="-0.5124521255493164">
        <ele>981.4086067836272</ele>
        <time>2021-08-05T10:16:32.267Z</time>
      </trkpt>
      <trkpt lat="43.07048320770264" lon="-0.5124521255493164">
        <ele>977.1763031429143</ele>
        <time>2021-08-05T10:16:42.030Z</time>
      </trkpt>
      <trkpt lat="43.07071924209595" lon="-0.5128598213195801">
        <ele>972.6037904486436</ele>
        <time>2021-08-05T10:16:51.799Z</time>
      </trkpt>
      <trkpt lat="43.070751428604126" lon="-0.5129671096801758">
        <ele>968.120631755922</ele>
        <time>2021-08-05T10:17:01.570Z</time>
      </trkpt>
      <trkpt lat="43.070772886276245" lon="-0.5130743980407715">
        <ele>963.5707387354502</ele>
        <time>2021-08-05T10:17:11.342Z</time>
      </trkpt>
      <trkpt lat="43.070772886276245" lon="-0.5134713649749756">
        <ele>958.9096115410766</ele>
        <time>2021-08-05T10:17:21.119Z</time>
      </trkpt>
      <trkpt lat="43.070751428604126" lon="-0.5136430263519287">
        <ele>954.2376337493312</ele>
        <time>2021-08-05T10:17:30.898Z</time>
      </trkpt>
      <trkpt lat="43.07059049606323" lon="-0.5145120620727539">
        <ele>949.2015407729966</ele>
        <time>2021-08-05T10:17:40.687Z</time>
      </trkpt>
      <trkpt lat="43.07057976722717" lon="-0.5152201652526855">
        <ele>943.8866432266714</ele>
        <time>2021-08-05T10:17:50.485Z</time>
      </trkpt>
      <trkpt lat="43.07047247886658" lon="-0.5159282684326172">
        <ele>938.9437327274085</ele>
        <time>2021-08-05T10:18:00.291Z</time>
      </trkpt>
      <trkpt lat="43.07046175003052" lon="-0.5160355567932129">
        <ele>934.0840860419283</ele>
        <time>2021-08-05T10:18:10.098Z</time>
      </trkpt>
      <trkpt lat="43.07052620686591" lon="-0.5164539813995361">
        <ele>929.0028737378434</ele>
        <time>2021-08-05T10:18:19.910Z</time>
      </trkpt>
      <trkpt lat="43.070526123046875" lon="-0.5164539813995361">
        <ele>924.0249307181714</ele>
        <time>2021-08-05T10:18:29.722Z</time>
      </trkpt>
      <trkpt lat="43.070547580718994" lon="-0.5166900157928467">
        <ele>918.8654398159777</ele>
        <time>2021-08-05T10:18:39.537Z</time>
      </trkpt>
      <trkpt lat="43.070536851882935" lon="-0.5169045925140381">
        <ele>913.6984546219094</ele>
        <time>2021-08-05T10:18:49.355Z</time>
      </trkpt>
      <trkpt lat="43.07045102119446" lon="-0.5177521705627441">
        <ele>908.2007136265995</ele>
        <time>2021-08-05T10:18:59.183Z</time>
      </trkpt>
      <trkpt lat="43.07006478309631" lon="-0.5191898345947266">
        <ele>902.9182657893161</ele>
        <time>2021-08-05T10:19:09.029Z</time>
      </trkpt>
      <trkpt lat="43.070032596588135" lon="-0.5194473266601562">
        <ele>897.7603215800798</ele>
        <time>2021-08-05T10:19:18.878Z</time>
      </trkpt>
      <trkpt lat="43.070032596588135" lon="-0.5195653438568115">
        <ele>892.6523569023465</ele>
        <time>2021-08-05T10:19:28.728Z</time>
      </trkpt>
      <trkpt lat="43.07010769844055" lon="-0.5200052261352539">
        <ele>887.4093297582459</ele>
        <time>2021-08-05T10:19:38.583Z</time>
      </trkpt>
      <trkpt lat="43.07011842727661" lon="-0.5205094814300537">
        <ele>882.1574653680937</ele>
        <time>2021-08-05T10:19:48.444Z</time>
      </trkpt>
      <trkpt lat="43.070011138916016" lon="-0.5216360092163086">
        <ele>876.8820210004169</ele>
        <time>2021-08-05T10:19:58.319Z</time>
      </trkpt>
      <trkpt lat="43.07019352912903" lon="-0.5230951309204102">
        <ele>871.1064951348214</ele>
        <time>2021-08-05T10:20:08.211Z</time>
      </trkpt>
      <trkpt lat="43.070322358980775" lon="-0.5235457420349121">
        <ele>866.0739523416473</ele>
        <time>2021-08-05T10:20:18.109Z</time>
      </trkpt>
      <trkpt lat="43.07032227516174" lon="-0.5235457420349121">
        <ele>861.2410540743588</ele>
        <time>2021-08-05T10:20:28.007Z</time>
      </trkpt>
      <trkpt lat="43.07060122489929" lon="-0.524446964263916">
        <ele>856.1740830590829</ele>
        <time>2021-08-05T10:20:37.916Z</time>
      </trkpt>
      <trkpt lat="43.07090171612799" lon="-0.5254876613616943">
        <ele>850.7761098010968</ele>
        <time>2021-08-05T10:20:47.838Z</time>
      </trkpt>
      <trkpt lat="43.07090163230896" lon="-0.5254876613616943">
        <ele>846.1719320031277</ele>
        <time>2021-08-05T10:20:57.760Z</time>
      </trkpt>
      <trkpt lat="43.07097673416138" lon="-0.5257236957550049">
        <ele>841.433875182061</ele>
        <time>2021-08-05T10:21:07.685Z</time>
      </trkpt>
      <trkpt lat="43.07120203971863" lon="-0.5263030529022217">
        <ele>836.6909061027231</ele>
        <time>2021-08-05T10:21:17.618Z</time>
      </trkpt>
      <trkpt lat="43.071298599243164" lon="-0.5267751216888428">
        <ele>832.285168598346</ele>
        <time>2021-08-05T10:21:27.557Z</time>
      </trkpt>
      <trkpt lat="43.07141661643982" lon="-0.527193546295166">
        <ele>827.9265749250161</ele>
        <time>2021-08-05T10:21:37.501Z</time>
      </trkpt>
      <trkpt lat="43.07148098945618" lon="-0.5276334285736084">
        <ele>823.9388236377401</ele>
        <time>2021-08-05T10:21:47.450Z</time>
      </trkpt>
      <trkpt lat="43.071534633636475" lon="-0.5278587341308594">
        <ele>820.025619884823</ele>
        <time>2021-08-05T10:21:57.402Z</time>
      </trkpt>
      <trkpt lat="43.07164192199707" lon="-0.5279982089996338">
        <ele>816.0243946269684</ele>
        <time>2021-08-05T10:22:07.356Z</time>
      </trkpt>
      <trkpt lat="43.07170629501343" lon="-0.5280303955078125">
        <ele>812.0255621212559</ele>
        <time>2021-08-05T10:22:17.312Z</time>
      </trkpt>
      <trkpt lat="43.07196378707886" lon="-0.5280733108520508">
        <ele>807.7006835054274</ele>
        <time>2021-08-05T10:22:27.272Z</time>
      </trkpt>
      <trkpt lat="43.072049617767334" lon="-0.5281162261962891">
        <ele>803.8681294319006</ele>
        <time>2021-08-05T10:22:37.233Z</time>
      </trkpt>
      <trkpt lat="43.07213544845581" lon="-0.5281591415405273">
        <ele>800.0346377555313</ele>
        <time>2021-08-05T10:22:47.196Z</time>
      </trkpt>
      <trkpt lat="43.072253465652466" lon="-0.5282986164093018">
        <ele>796.3293735988086</ele>
        <time>2021-08-05T10:22:57.161Z</time>
      </trkpt>
      <trkpt lat="43.07237148284912" lon="-0.5285561084747314">
        <ele>792.7011496244015</ele>
        <time>2021-08-05T10:23:07.130Z</time>
      </trkpt>
      <trkpt lat="43.07246804237366" lon="-0.5290389060974121">
        <ele>789.5284365894075</ele>
        <time>2021-08-05T10:23:17.105Z</time>
      </trkpt>
      <trkpt lat="43.072500228881836" lon="-0.5291247367858887">
        <ele>786.0487834287483</ele>
        <time>2021-08-05T10:23:27.081Z</time>
      </trkpt>
      <trkpt lat="43.072779178619385" lon="-0.5295753479003906">
        <ele>782.2802919467713</ele>
        <time>2021-08-05T10:23:37.064Z</time>
      </trkpt>
      <trkpt lat="43.0729079246521" lon="-0.5297470092773438">
        <ele>778.8515256404814</ele>
        <time>2021-08-05T10:23:47.049Z</time>
      </trkpt>
      <trkpt lat="43.073036670684814" lon="-0.5298972129821777">
        <ele>775.4098922495957</ele>
        <time>2021-08-05T10:23:57.037Z</time>
      </trkpt>
      <trkpt lat="43.07332634925842" lon="-0.5301117897033691">
        <ele>771.4935712574982</ele>
        <time>2021-08-05T10:24:07.030Z</time>
      </trkpt>
      <trkpt lat="43.07339072227478" lon="-0.5301976203918457">
        <ele>768.022165554544</ele>
        <time>2021-08-05T10:24:17.025Z</time>
      </trkpt>
      <trkpt lat="43.07343363761902" lon="-0.5302941799163818">
        <ele>764.6409117237088</ele>
        <time>2021-08-05T10:24:27.021Z</time>
      </trkpt>
      <trkpt lat="43.073498010635376" lon="-0.530616044998169">
        <ele>761.1680605883621</ele>
        <time>2021-08-05T10:24:37.021Z</time>
      </trkpt>
      <trkpt lat="43.073508739471436" lon="-0.5307877063751221">
        <ele>757.776197138041</ele>
        <time>2021-08-05T10:24:47.023Z</time>
      </trkpt>
      <trkpt lat="43.073498010635376" lon="-0.5312061309814453">
        <ele>754.1318981299987</ele>
        <time>2021-08-05T10:24:57.030Z</time>
      </trkpt>
      <trkpt lat="43.07344436645508" lon="-0.5314421653747559">
        <ele>750.6400071143256</ele>
        <time>2021-08-05T10:25:07.040Z</time>
      </trkpt>
      <trkpt lat="43.07339072227478" lon="-0.5316245555877686">
        <ele>747.1624687140047</ele>
        <time>2021-08-05T10:25:17.052Z</time>
      </trkpt>
      <trkpt lat="43.07317614555359" lon="-0.5320107936859131">
        <ele>743.6958717710629</ele>
        <time>2021-08-05T10:25:27.070Z</time>
      </trkpt>
      <trkpt lat="43.07291865348816" lon="-0.5326330661773682">
        <ele>740.0954017084692</ele>
        <time>2021-08-05T10:25:37.096Z</time>
      </trkpt>
      <trkpt lat="43.07286500930786" lon="-0.5328261852264404">
        <ele>736.4706204037204</ele>
        <time>2021-08-05T10:25:47.125Z</time>
      </trkpt>
      <trkpt lat="43.07284355163574" lon="-0.5330836772918701">
        <ele>732.6512432649149</ele>
        <time>2021-08-05T10:25:57.157Z</time>
      </trkpt>
      <trkpt lat="43.0729079246521" lon="-0.5337703227996826">
        <ele>728.3758065712519</ele>
        <time>2021-08-05T10:26:07.197Z</time>
      </trkpt>
      <trkpt lat="43.07300456799567" lon="-0.5340492725372314">
        <ele>724.4143101116135</ele>
        <time>2021-08-05T10:26:17.241Z</time>
      </trkpt>
      <trkpt lat="43.073004484176636" lon="-0.5340492725372314">
        <ele>720.6294049507453</ele>
        <time>2021-08-05T10:26:27.285Z</time>
      </trkpt>
      <trkpt lat="43.07322978973389" lon="-0.5345427989959717">
        <ele>716.4727863971025</ele>
        <time>2021-08-05T10:26:37.335Z</time>
      </trkpt>
      <trkpt lat="43.07331562042236" lon="-0.5348646640777588">
        <ele>712.5411062949188</ele>
        <time>2021-08-05T10:26:47.389Z</time>
      </trkpt>
      <trkpt lat="43.0733585357666" lon="-0.5352401733398438">
        <ele>708.4814029644085</ele>
        <time>2021-08-05T10:26:57.448Z</time>
      </trkpt>
      <trkpt lat="43.0734121799469" lon="-0.5359053611755371">
        <ele>704.075986527442</ele>
        <time>2021-08-05T10:27:07.515Z</time>
      </trkpt>
      <trkpt lat="43.0734121799469" lon="-0.5361521244049072">
        <ele>699.9461587413971</ele>
        <time>2021-08-05T10:27:17.585Z</time>
      </trkpt>
      <trkpt lat="43.073240518569946" lon="-0.5372142791748047">
        <ele>695.5612755185261</ele>
        <time>2021-08-05T10:27:27.667Z</time>
      </trkpt>
      <trkpt lat="43.07320833206177" lon="-0.5375254154205322">
        <ele>691.3629766488002</ele>
        <time>2021-08-05T10:27:37.753Z</time>
      </trkpt>
      <trkpt lat="43.07322978973389" lon="-0.5379009246826172">
        <ele>687.1381199324942</ele>
        <time>2021-08-05T10:27:47.843Z</time>
      </trkpt>
      <trkpt lat="43.0733585357666" lon="-0.5387377738952637">
        <ele>682.5466602552463</ele>
        <time>2021-08-05T10:27:57.943Z</time>
      </trkpt>
      <trkpt lat="43.07343372143805" lon="-0.5389738082885742">
        <ele>678.0886876974089</ele>
        <time>2021-08-05T10:28:08.046Z</time>
      </trkpt>
      <trkpt lat="43.07343363761902" lon="-0.5389738082885742">
        <ele>673.8042187308399</ele>
        <time>2021-08-05T10:28:18.149Z</time>
      </trkpt>
      <trkpt lat="43.073498010635376" lon="-0.5391883850097656">
        <ele>669.4184423680845</ele>
        <time>2021-08-05T10:28:28.255Z</time>
      </trkpt>
      <trkpt lat="43.07369112968445" lon="-0.5396497249603271">
        <ele>664.96683231871</ele>
        <time>2021-08-05T10:28:38.367Z</time>
      </trkpt>
      <trkpt lat="43.073970079422" lon="-0.5401110649108887">
        <ele>660.327712078968</ele>
        <time>2021-08-05T10:28:48.486Z</time>
      </trkpt>
      <trkpt lat="43.07433485984802" lon="-0.5408084392547607">
        <ele>655.7525343127924</ele>
        <time>2021-08-05T10:28:58.615Z</time>
      </trkpt>
      <trkpt lat="43.07445287704468" lon="-0.5411410331726074">
        <ele>651.0279604192109</ele>
        <time>2021-08-05T10:29:08.749Z</time>
      </trkpt>
      <trkpt lat="43.074538707733154" lon="-0.5414307117462158">
        <ele>646.3600965279167</ele>
        <time>2021-08-05T10:29:18.886Z</time>
      </trkpt>
      <trkpt lat="43.07461380958557" lon="-0.5417418479919434">
        <ele>641.83035227355</ele>
        <time>2021-08-05T10:29:29.027Z</time>
      </trkpt>
      <trkpt lat="43.07461380958557" lon="-0.5420851707458496">
        <ele>637.4011174271682</ele>
        <time>2021-08-05T10:29:39.172Z</time>
      </trkpt>
      <trkpt lat="43.074527978897095" lon="-0.5426967144012451">
        <ele>632.9494389462666</ele>
        <time>2021-08-05T10:29:49.325Z</time>
      </trkpt>
      <trkpt lat="43.074538707733154" lon="-0.5429971218109131">
        <ele>628.4271648344974</ele>
        <time>2021-08-05T10:29:59.481Z</time>
      </trkpt>
      <trkpt lat="43.07459235191345" lon="-0.5433189868927002">
        <ele>623.773186852693</ele>
        <time>2021-08-05T10:30:09.641Z</time>
      </trkpt>
      <trkpt lat="43.074753284454346" lon="-0.5438661575317383">
        <ele>618.9440897836855</ele>
        <time>2021-08-05T10:30:19.808Z</time>
      </trkpt>
      <trkpt lat="43.074774742126465" lon="-0.544123649597168">
        <ele>614.4161647758104</ele>
        <time>2021-08-05T10:30:29.978Z</time>
      </trkpt>
      <trkpt lat="43.07463526725769" lon="-0.5449283123016357">
        <ele>609.7376347865065</ele>
        <time>2021-08-05T10:30:40.158Z</time>
      </trkpt>
      <trkpt lat="43.07463526725769" lon="-0.5452179908752441">
        <ele>605.3517346313481</ele>
        <time>2021-08-05T10:30:50.341Z</time>
      </trkpt>
      <trkpt lat="43.07468899525702" lon="-0.5454647541046143">
        <ele>600.98539786087</ele>
        <time>2021-08-05T10:31:00.527Z</time>
      </trkpt>
      <trkpt lat="43.07486057281494" lon="-0.5463123321533203">
        <ele>596.4163669175055</ele>
        <time>2021-08-05T10:31:10.723Z</time>
      </trkpt>
      <trkpt lat="43.07513952255249" lon="-0.5489945411682129">
        <ele>591.4727291041415</ele>
        <time>2021-08-05T10:31:20.951Z</time>
      </trkpt>
      <trkpt lat="43.07539701461792" lon="-0.5510759353637695">
        <ele>586.6691637176657</ele>
        <time>2021-08-05T10:31:31.204Z</time>
      </trkpt>
      <trkpt lat="43.0753755569458" lon="-0.5513012409210205">
        <ele>582.3885748679309</ele>
        <time>2021-08-05T10:31:41.460Z</time>
      </trkpt>
      <trkpt lat="43.07531118392944" lon="-0.5516231060028076">
        <ele>578.1009791439315</ele>
        <time>2021-08-05T10:31:51.720Z</time>
      </trkpt>
      <trkpt lat="43.075289726257324" lon="-0.5519235134124756">
        <ele>573.9153904999198</ele>
        <time>2021-08-05T10:32:01.983Z</time>
      </trkpt>
      <trkpt lat="43.075300455093384" lon="-0.5521273612976074">
        <ele>569.8817103067697</ele>
        <time>2021-08-05T10:32:12.248Z</time>
      </trkpt>
      <trkpt lat="43.07533264160156" lon="-0.5523419380187988">
        <ele>565.9967114298945</ele>
        <time>2021-08-05T10:32:22.516Z</time>
      </trkpt>
      <trkpt lat="43.07559013366699" lon="-0.5530714988708496">
        <ele>562.2787013921675</ele>
        <time>2021-08-05T10:32:32.794Z</time>
      </trkpt>
      <trkpt lat="43.07612657546997" lon="-0.5537259578704834">
        <ele>558.3825884865963</ele>
        <time>2021-08-05T10:32:43.083Z</time>
      </trkpt>
      <trkpt lat="43.076298236846924" lon="-0.5542194843292236">
        <ele>554.4700811789476</ele>
        <time>2021-08-05T10:32:53.378Z</time>
      </trkpt>
      <trkpt lat="43.076512813568115" lon="-0.5550456047058105">
        <ele>550.885751336252</ele>
        <time>2021-08-05T10:33:03.684Z</time>
      </trkpt>
      <trkpt lat="43.07667374610901" lon="-0.5560111999511719">
        <ele>547.3273992572704</ele>
        <time>2021-08-05T10:33:14.001Z</time>
      </trkpt>
      <trkpt lat="43.076802492141724" lon="-0.5566549301147461">
        <ele>543.9492815839391</ele>
        <time>2021-08-05T10:33:24.326Z</time>
      </trkpt>
      <trkpt lat="43.07689905166626" lon="-0.5570733547210693">
        <ele>540.6256842694052</ele>
        <time>2021-08-05T10:33:34.656Z</time>
      </trkpt>
      <trkpt lat="43.0768883228302" lon="-0.5575346946716309">
        <ele>537.1695596552308</ele>
        <time>2021-08-05T10:33:44.992Z</time>
      </trkpt>
      <trkpt lat="43.0768883228302" lon="-0.5576419830322266">
        <ele>534.0481770396451</ele>
        <time>2021-08-05T10:33:55.329Z</time>
      </trkpt>
      <trkpt lat="43.07690986432135" lon="-0.5577385425567627">
        <ele>531.0243956724239</ele>
        <time>2021-08-05T10:34:05.667Z</time>
      </trkpt>
      <trkpt lat="43.07692059315741" lon="-0.5578780174255371">
        <ele>528.048512507879</ele>
        <time>2021-08-05T10:34:16.007Z</time>
      </trkpt>
      <trkpt lat="43.07695269584656" lon="-0.5580925941467285">
        <ele>525.1265455978166</ele>
        <time>2021-08-05T10:34:26.349Z</time>
      </trkpt>
      <trkpt lat="43.077027881518006" lon="-0.5583500862121582">
        <ele>522.2490272408138</ele>
        <time>2021-08-05T10:34:36.695Z</time>
      </trkpt>
      <trkpt lat="43.077070796862245" lon="-0.5585217475891113">
        <ele>519.4792944883939</ele>
        <time>2021-08-05T10:34:47.043Z</time>
      </trkpt>
      <trkpt lat="43.0772424582392" lon="-0.5591225624084473">
        <ele>516.7642720760438</ele>
        <time>2021-08-05T10:34:57.398Z</time>
      </trkpt>
      <trkpt lat="43.07742476463318" lon="-0.5597019195556641">
        <ele>514.0585385931101</ele>
        <time>2021-08-05T10:35:07.761Z</time>
      </trkpt>
      <trkpt lat="43.07787537574768" lon="-0.5603134632110596">
        <ele>511.6504517591292</ele>
        <time>2021-08-05T10:35:18.134Z</time>
      </trkpt>
      <trkpt lat="43.077982664108276" lon="-0.5605924129486084">
        <ele>509.0922921149657</ele>
        <time>2021-08-05T10:35:28.511Z</time>
      </trkpt>
      <trkpt lat="43.07830452919006" lon="-0.5626416206359863">
        <ele>506.1607251338263</ele>
        <time>2021-08-05T10:35:38.912Z</time>
      </trkpt>
      <trkpt lat="43.07841181755066" lon="-0.5628669261932373">
        <ele>503.84301349230793</ele>
        <time>2021-08-05T10:35:49.316Z</time>
      </trkpt>
      <trkpt lat="43.078765869140625" lon="-0.563274621963501">
        <ele>501.80426368700955</ele>
        <time>2021-08-05T10:35:59.728Z</time>
      </trkpt>
      <trkpt lat="43.0789053440094" lon="-0.563349723815918">
        <ele>499.5258142203966</ele>
        <time>2021-08-05T10:36:10.142Z</time>
      </trkpt>
      <trkpt lat="43.07955980300903" lon="-0.5634140968322754">
        <ele>496.7467684583977</ele>
        <time>2021-08-05T10:36:20.567Z</time>
      </trkpt>
      <trkpt lat="43.07965636253357" lon="-0.5634462833404541">
        <ele>494.5800341756466</ele>
        <time>2021-08-05T10:36:30.993Z</time>
      </trkpt>
      <trkpt lat="43.079774463549256" lon="-0.5635643005371094">
        <ele>492.49614930264613</ele>
        <time>2021-08-05T10:36:41.422Z</time>
      </trkpt>
      <trkpt lat="43.07988175190985" lon="-0.5636823177337646">
        <ele>490.5164695168672</ele>
        <time>2021-08-05T10:36:51.853Z</time>
      </trkpt>
      <trkpt lat="43.07989248074591" lon="-0.5636930465698242">
        <ele>488.6676961666593</ele>
        <time>2021-08-05T10:37:02.284Z</time>
      </trkpt>
      <trkpt lat="43.07989239692688" lon="-0.5636930465698242">
        <ele>486.8821995195729</ele>
        <time>2021-08-05T10:37:12.715Z</time>
      </trkpt>
      <trkpt lat="43.0799674987793" lon="-0.5638432502746582">
        <ele>485.20400250726686</ele>
        <time>2021-08-05T10:37:23.148Z</time>
      </trkpt>
      <trkpt lat="43.080289363861084" lon="-0.5656886100769043">
        <ele>483.400247393586</ele>
        <time>2021-08-05T10:37:33.603Z</time>
      </trkpt>
      <trkpt lat="43.080267906188965" lon="-0.5662572383880615">
        <ele>481.7052758521196</ele>
        <time>2021-08-05T10:37:44.065Z</time>
      </trkpt>
      <trkpt lat="43.08020361699164" lon="-0.5666220188140869">
        <ele>480.15870250106104</ele>
        <time>2021-08-05T10:37:54.531Z</time>
      </trkpt>
      <trkpt lat="43.08008551597595" lon="-0.5673623085021973">
        <ele>478.6386446933484</ele>
        <time>2021-08-05T10:38:05.006Z</time>
      </trkpt>
      <trkpt lat="43.08012843132019" lon="-0.5676734447479248">
        <ele>477.1633676074524</ele>
        <time>2021-08-05T10:38:15.485Z</time>
      </trkpt>
      <trkpt lat="43.080332363024354" lon="-0.5682957172393799">
        <ele>475.7123921798642</ele>
        <time>2021-08-05T10:38:25.972Z</time>
      </trkpt>
      <trkpt lat="43.080493211746216" lon="-0.568767786026001">
        <ele>474.2375861209943</ele>
        <time>2021-08-05T10:38:36.465Z</time>
      </trkpt>
      <trkpt lat="43.080546939745545" lon="-0.5691969394683838">
        <ele>472.8160907447538</ele>
        <time>2021-08-05T10:38:46.963Z</time>
      </trkpt>
      <trkpt lat="43.080546855926514" lon="-0.5691969394683838">
        <ele>471.60557117355995</ele>
        <time>2021-08-05T10:38:57.461Z</time>
      </trkpt>
      <trkpt lat="43.08056831359863" lon="-0.5692934989929199">
        <ele>470.43977577322664</ele>
        <time>2021-08-05T10:39:07.960Z</time>
      </trkpt>
      <trkpt lat="43.080514669418335" lon="-0.570216178894043">
        <ele>469.1382734724109</ele>
        <time>2021-08-05T10:39:18.470Z</time>
      </trkpt>
      <trkpt lat="43.08055758476257" lon="-0.5705165863037109">
        <ele>468.00341591199515</ele>
        <time>2021-08-05T10:39:28.984Z</time>
      </trkpt>
      <trkpt lat="43.08062195777893" lon="-0.5707204341888428">
        <ele>466.99968700007526</ele>
        <time>2021-08-05T10:39:39.500Z</time>
      </trkpt>
      <trkpt lat="43.08092244900763" lon="-0.5711817741394043">
        <ele>465.95467714362354</ele>
        <time>2021-08-05T10:39:50.024Z</time>
      </trkpt>
      <trkpt lat="43.0809223651886" lon="-0.5711817741394043">
        <ele>465.00369957417473</ele>
        <time>2021-08-05T10:40:00.548Z</time>
      </trkpt>
      <trkpt lat="43.08105111122131" lon="-0.5713963508605957">
        <ele>464.0157992324713</ele>
        <time>2021-08-05T10:40:11.075Z</time>
      </trkpt>
      <trkpt lat="43.08112629689276" lon="-0.5716753005981445">
        <ele>463.06502124249675</ele>
        <time>2021-08-05T10:40:21.605Z</time>
      </trkpt>
      <trkpt lat="43.08112621307373" lon="-0.5716753005981445">
        <ele>462.20283718351135</ele>
        <time>2021-08-05T10:40:32.135Z</time>
      </trkpt>
      <trkpt lat="43.08119058609009" lon="-0.5720937252044678">
        <ele>461.2686976125676</ele>
        <time>2021-08-05T10:40:42.670Z</time>
      </trkpt>
      <trkpt lat="43.08121212758124" lon="-0.5723297595977783">
        <ele>460.37801708083134</ele>
        <time>2021-08-05T10:40:53.208Z</time>
      </trkpt>
      <trkpt lat="43.08121204376221" lon="-0.5723297595977783">
        <ele>459.5721854803752</ele>
        <time>2021-08-05T10:41:03.746Z</time>
      </trkpt>
      <trkpt lat="43.08121212758124" lon="-0.5729842185974121">
        <ele>458.8883652467057</ele>
        <time>2021-08-05T10:41:14.292Z</time>
      </trkpt>
      <trkpt lat="43.08121204376221" lon="-0.5729842185974121">
        <ele>458.0989831793353</ele>
        <time>2021-08-05T10:41:24.838Z</time>
      </trkpt>
      <trkpt lat="43.08114767074585" lon="-0.5732417106628418">
        <ele>457.36093600807334</ele>
        <time>2021-08-05T10:41:35.387Z</time>
      </trkpt>
      <trkpt lat="43.081018924713135" lon="-0.5735421180725098">
        <ele>456.62293499323505</ele>
        <time>2021-08-05T10:41:45.940Z</time>
      </trkpt>
      <trkpt lat="43.08069705963135" lon="-0.5742073059082031">
        <ele>455.5909586876469</ele>
        <time>2021-08-05T10:41:56.503Z</time>
      </trkpt>
      <trkpt lat="43.080525482073426" lon="-0.575108528137207">
        <ele>454.48434583828083</ele>
        <time>2021-08-05T10:42:07.076Z</time>
      </trkpt>
      <trkpt lat="43.080525398254395" lon="-0.575108528137207">
        <ele>453.6650276377252</ele>
        <time>2021-08-05T10:42:17.649Z</time>
      </trkpt>
      <trkpt lat="43.080514669418335" lon="-0.5753123760223389">
        <ele>452.79673288314825</ele>
        <time>2021-08-05T10:42:28.225Z</time>
      </trkpt>
      <trkpt lat="43.080536127090454" lon="-0.575484037399292">
        <ele>451.9379535717627</ele>
        <time>2021-08-05T10:42:38.803Z</time>
      </trkpt>
      <trkpt lat="43.080986738204956" lon="-0.5762457847595215">
        <ele>451.0674622505925</ele>
        <time>2021-08-05T10:42:49.392Z</time>
      </trkpt>
      <trkpt lat="43.08109402656555" lon="-0.5766105651855469">
        <ele>449.9366861010099</ele>
        <time>2021-08-05T10:42:59.986Z</time>
      </trkpt>
      <trkpt lat="43.08113694190979" lon="-0.5769753456115723">
        <ele>448.88861174311535</ele>
        <time>2021-08-05T10:43:10.584Z</time>
      </trkpt>
      <trkpt lat="43.08111548423767" lon="-0.5773615837097168">
        <ele>448.06644954441714</ele>
        <time>2021-08-05T10:43:21.187Z</time>
      </trkpt>
      <trkpt lat="43.080986738204956" lon="-0.578606128692627">
        <ele>447.0327884589701</ele>
        <time>2021-08-05T10:43:31.805Z</time>
      </trkpt>
      <trkpt lat="43.08095455169678" lon="-0.5787348747253418">
        <ele>446.0712011109229</ele>
        <time>2021-08-05T10:43:42.424Z</time>
      </trkpt>
      <trkpt lat="43.08089017868042" lon="-0.5788636207580566">
        <ele>445.04591967777026</ele>
        <time>2021-08-05T10:43:53.045Z</time>
      </trkpt>
      <trkpt lat="43.080782890319824" lon="-0.5789494514465332">
        <ele>443.89762256633395</ele>
        <time>2021-08-05T10:44:03.668Z</time>
      </trkpt>
      <trkpt lat="43.08065414428711" lon="-0.5789816379547119">
        <ele>442.6436265000357</ele>
        <time>2021-08-05T10:44:14.293Z</time>
      </trkpt>
      <trkpt lat="43.08046102523804" lon="-0.5789816379547119">
        <ele>441.369069589917</ele>
        <time>2021-08-05T10:44:24.921Z</time>
      </trkpt>
      <trkpt lat="43.080235719680786" lon="-0.5789279937744141">
        <ele>440.1473544603924</ele>
        <time>2021-08-05T10:44:35.553Z</time>
      </trkpt>
      <trkpt lat="43.08013916015625" lon="-0.5787992477416992">
        <ele>438.777589970221</ele>
        <time>2021-08-05T10:44:46.187Z</time>
      </trkpt>
      <trkpt lat="43.079978227615356" lon="-0.5781877040863037">
        <ele>437.23902862723776</ele>
        <time>2021-08-05T10:44:56.829Z</time>
      </trkpt>
      <trkpt lat="43.07990312576294" lon="-0.5781126022338867">
        <ele>435.9064388792499</ele>
        <time>2021-08-05T10:45:07.472Z</time>
      </trkpt>
      <trkpt lat="43.07981729507446" lon="-0.5781018733978271">
        <ele>434.3801756216325</ele>
        <time>2021-08-05T10:45:18.116Z</time>
      </trkpt>
      <trkpt lat="43.079752922058105" lon="-0.5781233310699463">
        <ele>432.75393455428093</ele>
        <time>2021-08-05T10:45:28.762Z</time>
      </trkpt>
      <trkpt lat="43.07964563369751" lon="-0.5782628059387207">
        <ele>430.88535942017904</ele>
        <time>2021-08-05T10:45:39.410Z</time>
      </trkpt>
      <trkpt lat="43.079248666763306" lon="-0.5788528919219971">
        <ele>429.10818138280763</ele>
        <time>2021-08-05T10:45:50.067Z</time>
      </trkpt>
      <trkpt lat="43.07914137840271" lon="-0.5790352821350098">
        <ele>427.2887111663871</ele>
        <time>2021-08-05T10:46:00.727Z</time>
      </trkpt>
      <trkpt lat="43.07911992073059" lon="-0.5792176723480225">
        <ele>425.4891581764688</ele>
        <time>2021-08-05T10:46:11.389Z</time>
      </trkpt>
      <trkpt lat="43.07911992073059" lon="-0.579754114151001">
        <ele>423.8195108441398</ele>
        <time>2021-08-05T10:46:22.058Z</time>
      </trkpt>
      <trkpt lat="43.07908773422241" lon="-0.5800116062164307">
        <ele>421.8568717621016</ele>
        <time>2021-08-05T10:46:32.730Z</time>
      </trkpt>
      <trkpt lat="43.07889461517334" lon="-0.5809450149536133">
        <ele>419.3515122675627</ele>
        <time>2021-08-05T10:46:43.413Z</time>
      </trkpt>
      <trkpt lat="43.07886242866516" lon="-0.5812454223632812">
        <ele>417.24792197182313</ele>
        <time>2021-08-05T10:46:54.099Z</time>
      </trkpt>
      <trkpt lat="43.07886242866516" lon="-0.5815780162811279">
        <ele>415.0949053675372</ele>
        <time>2021-08-05T10:47:04.789Z</time>
      </trkpt>
      <trkpt lat="43.07880878448486" lon="-0.5817925930023193">
        <ele>412.86266423879295</ele>
        <time>2021-08-05T10:47:15.482Z</time>
      </trkpt>
      <trkpt lat="43.07870149612427" lon="-0.5820930004119873">
        <ele>410.66389513857405</ele>
        <time>2021-08-05T10:47:26.179Z</time>
      </trkpt>
      <trkpt lat="43.07865858078003" lon="-0.5823075771331787">
        <ele>408.5678275546386</ele>
        <time>2021-08-05T10:47:36.879Z</time>
      </trkpt>
      <trkpt lat="43.07869076728821" lon="-0.5837345123291016">
        <ele>406.08006977303745</ele>
        <time>2021-08-05T10:47:47.595Z</time>
      </trkpt>
      <trkpt lat="43.07894825935364" lon="-0.5847322940826416">
        <ele>403.82129819331533</ele>
        <time>2021-08-05T10:47:58.324Z</time>
      </trkpt>
      <trkpt lat="43.078991174697876" lon="-0.5850327014923096">
        <ele>401.6122792635344</ele>
        <time>2021-08-05T10:48:09.056Z</time>
      </trkpt>
      <trkpt lat="43.079044818878174" lon="-0.5856549739837646">
        <ele>399.40796258439764</ele>
        <time>2021-08-05T10:48:19.796Z</time>
      </trkpt>
      <trkpt lat="43.07905554771423" lon="-0.585944652557373">
        <ele>397.1454052404005</ele>
        <time>2021-08-05T10:48:30.539Z</time>
      </trkpt>
      <trkpt lat="43.079034090042114" lon="-0.586169958114624">
        <ele>394.8321252718605</ele>
        <time>2021-08-05T10:48:41.285Z</time>
      </trkpt>
      <trkpt lat="43.07893753051758" lon="-0.5866849422454834">
        <ele>392.60109671906446</ele>
        <time>2021-08-05T10:48:52.037Z</time>
      </trkpt>
      <trkpt lat="43.07872303761542" lon="-0.5875003337860107">
        <ele>390.0741092259758</ele>
        <time>2021-08-05T10:49:02.799Z</time>
      </trkpt>
      <trkpt lat="43.07872295379639" lon="-0.5875003337860107">
        <ele>387.86627482811616</ele>
        <time>2021-08-05T10:49:13.561Z</time>
      </trkpt>
      <trkpt lat="43.078497648239136" lon="-0.5884444713592529">
        <ele>385.2689043651477</ele>
        <time>2021-08-05T10:49:24.335Z</time>
      </trkpt>
      <trkpt lat="43.07844408787787" lon="-0.5901503562927246">
        <ele>382.95310063098236</ele>
        <time>2021-08-05T10:49:35.129Z</time>
      </trkpt>
      <trkpt lat="43.07844400405884" lon="-0.5901503562927246">
        <ele>380.81764487417684</ele>
        <time>2021-08-05T10:49:45.923Z</time>
      </trkpt>
      <trkpt lat="43.07849773205817" lon="-0.5906009674072266">
        <ele>378.7239247936476</ele>
        <time>2021-08-05T10:49:56.722Z</time>
      </trkpt>
      <trkpt lat="43.078497648239136" lon="-0.5906009674072266">
        <ele>376.6572351010026</ele>
        <time>2021-08-05T10:50:07.521Z</time>
      </trkpt>
      <trkpt lat="43.078519105911255" lon="-0.5908477306365967">
        <ele>374.661630256051</ele>
        <time>2021-08-05T10:50:18.323Z</time>
      </trkpt>
      <trkpt lat="43.07848700322211" lon="-0.5916845798492432">
        <ele>372.5555817358345</ele>
        <time>2021-08-05T10:50:29.135Z</time>
      </trkpt>
      <trkpt lat="43.07844400405884" lon="-0.592339038848877">
        <ele>370.49418709514737</ele>
        <time>2021-08-05T10:50:39.955Z</time>
      </trkpt>
      <trkpt lat="43.07837971486151" lon="-0.5928754806518555">
        <ele>368.4910675672161</ele>
        <time>2021-08-05T10:50:50.781Z</time>
      </trkpt>
      <trkpt lat="43.07836898602545" lon="-0.5929398536682129">
        <ele>366.6324414779031</ele>
        <time>2021-08-05T10:51:01.608Z</time>
      </trkpt>
      <trkpt lat="43.07830452919006" lon="-0.5933797359466553">
        <ele>364.8886634584475</ele>
        <time>2021-08-05T10:51:12.440Z</time>
      </trkpt>
      <trkpt lat="43.07822942733765" lon="-0.5936479568481445">
        <ele>363.12966202262214</ele>
        <time>2021-08-05T10:51:23.275Z</time>
      </trkpt>
      <trkpt lat="43.07797193527222" lon="-0.5942916870117188">
        <ele>361.2814445254502</ele>
        <time>2021-08-05T10:51:34.119Z</time>
      </trkpt>
      <trkpt lat="43.07790756225586" lon="-0.5945920944213867">
        <ele>359.59139185997833</ele>
        <time>2021-08-05T10:51:44.967Z</time>
      </trkpt>
      <trkpt lat="43.07789691723883" lon="-0.5948925018310547">
        <ele>358.0145762077992</ele>
        <time>2021-08-05T10:51:55.818Z</time>
      </trkpt>
      <trkpt lat="43.07793974876404" lon="-0.5956971645355225">
        <ele>356.4417874242264</ele>
        <time>2021-08-05T10:52:06.679Z</time>
      </trkpt>
      <trkpt lat="43.07788610458374" lon="-0.595933198928833">
        <ele>354.85730651408545</ele>
        <time>2021-08-05T10:52:17.543Z</time>
      </trkpt>
      <trkpt lat="43.07771444320679" lon="-0.5963730812072754">
        <ele>353.2735463092111</ele>
        <time>2021-08-05T10:52:28.412Z</time>
      </trkpt>
      <trkpt lat="43.07740330696106" lon="-0.5968022346496582">
        <ele>351.70258984903467</ele>
        <time>2021-08-05T10:52:39.288Z</time>
      </trkpt>
      <trkpt lat="43.077285289764404" lon="-0.5970489978790283">
        <ele>350.3788362012104</ele>
        <time>2021-08-05T10:52:50.168Z</time>
      </trkpt>
      <trkpt lat="43.077231645584106" lon="-0.597306489944458">
        <ele>349.12887225206725</ele>
        <time>2021-08-05T10:53:01.051Z</time>
      </trkpt>
      <trkpt lat="43.07722091674805" lon="-0.598529577255249">
        <ele>347.819378808851</ele>
        <time>2021-08-05T10:53:11.948Z</time>
      </trkpt>
      <trkpt lat="43.07712435722351" lon="-0.5991411209106445">
        <ele>346.60701047215764</ele>
        <time>2021-08-05T10:53:22.853Z</time>
      </trkpt>
      <trkpt lat="43.076995611190796" lon="-0.59975266456604">
        <ele>345.4037931624076</ele>
        <time>2021-08-05T10:53:33.765Z</time>
      </trkpt>
      <trkpt lat="43.07698496617377" lon="-0.6000316143035889">
        <ele>344.3250155110047</ele>
        <time>2021-08-05T10:53:44.680Z</time>
      </trkpt>
      <trkpt lat="43.076984882354736" lon="-0.6000316143035889">
        <ele>343.3423232771489</ele>
        <time>2021-08-05T10:53:55.595Z</time>
      </trkpt>
      <trkpt lat="43.077049255371094" lon="-0.6006860733032227">
        <ele>342.5511393895305</ele>
        <time>2021-08-05T10:54:06.518Z</time>
      </trkpt>
      <trkpt lat="43.077038526535034" lon="-0.6010615825653076">
        <ele>341.75354216645354</ele>
        <time>2021-08-05T10:54:17.446Z</time>
      </trkpt>
      <trkpt lat="43.07690978050232" lon="-0.6023705005645752">
        <ele>340.75847002632804</ele>
        <time>2021-08-05T10:54:28.389Z</time>
      </trkpt>
      <trkpt lat="43.07690978050232" lon="-0.6026709079742432">
        <ele>339.917063243888</ele>
        <time>2021-08-05T10:54:39.336Z</time>
      </trkpt>
      <trkpt lat="43.07695269584656" lon="-0.6030786037445068">
        <ele>339.2244933599502</ele>
        <time>2021-08-05T10:54:50.287Z</time>
      </trkpt>
      <trkpt lat="43.07686686515808" lon="-0.6035828590393066">
        <ele>338.49935247207054</ele>
        <time>2021-08-05T10:55:01.245Z</time>
      </trkpt>
      <trkpt lat="43.07685613632202" lon="-0.6040334701538086">
        <ele>337.89451669950154</ele>
        <time>2021-08-05T10:55:12.208Z</time>
      </trkpt>
      <trkpt lat="43.0768883228302" lon="-0.6049561500549316">
        <ele>337.35920671112393</ele>
        <time>2021-08-05T10:55:23.182Z</time>
      </trkpt>
      <trkpt lat="43.0768883228302" lon="-0.6052672863006592">
        <ele>336.73164461068734</ele>
        <time>2021-08-05T10:55:34.159Z</time>
      </trkpt>
      <trkpt lat="43.07681322097778" lon="-0.6057500839233398">
        <ele>335.88224697196347</ele>
        <time>2021-08-05T10:55:45.142Z</time>
      </trkpt>
      <trkpt lat="43.07666301727295" lon="-0.6061255931854248">
        <ele>335.03343170561925</ele>
        <time>2021-08-05T10:55:56.130Z</time>
      </trkpt>
      <trkpt lat="43.076566541567445" lon="-0.6059432029724121">
        <ele>334.3491310002314</ele>
        <time>2021-08-05T10:56:07.121Z</time>
      </trkpt>
      <trkpt lat="43.0763840675354" lon="-0.6055140495300293">
        <ele>333.5949370773178</ele>
        <time>2021-08-05T10:56:18.118Z</time>
      </trkpt>
      <trkpt lat="43.076298320665956" lon="-0.605396032333374">
        <ele>333.0244560754609</ele>
        <time>2021-08-05T10:56:29.117Z</time>
      </trkpt>
      <trkpt lat="43.07620176114142" lon="-0.6053102016448975">
        <ele>332.51664740251044</ele>
        <time>2021-08-05T10:56:40.117Z</time>
      </trkpt>
      <trkpt lat="43.07597645558417" lon="-0.6051385402679443">
        <ele>332.1114719908082</ele>
        <time>2021-08-05T10:56:51.121Z</time>
      </trkpt>
      <trkpt lat="43.07592272758484" lon="-0.6051492691040039">
        <ele>331.6627486477283</ele>
        <time>2021-08-05T10:57:02.126Z</time>
      </trkpt>
      <trkpt lat="43.07585835456848" lon="-0.6051921844482422">
        <ele>331.21803057825525</ele>
        <time>2021-08-05T10:57:13.132Z</time>
      </trkpt>
      <trkpt lat="43.07555794715881" lon="-0.605471134185791">
        <ele>330.91534791746426</ele>
        <time>2021-08-05T10:57:24.144Z</time>
      </trkpt>
      <trkpt lat="43.07541847229004" lon="-0.6058037281036377">
        <ele>330.54971710357324</ele>
        <time>2021-08-05T10:57:35.161Z</time>
      </trkpt>
      <trkpt lat="43.07533264160156" lon="-0.6062650680541992">
        <ele>330.01436040720114</ele>
        <time>2021-08-05T10:57:46.183Z</time>
      </trkpt>
      <trkpt lat="43.075236082077026" lon="-0.6065762042999268">
        <ele>329.4832511573769</ele>
        <time>2021-08-05T10:57:57.209Z</time>
      </trkpt>
      <trkpt lat="43.07518243789673" lon="-0.606694221496582">
        <ele>329.00582465653224</ele>
        <time>2021-08-05T10:58:08.237Z</time>
      </trkpt>
      <trkpt lat="43.07509660720825" lon="-0.6067907810211182">
        <ele>328.5365626199947</ele>
        <time>2021-08-05T10:58:19.267Z</time>
      </trkpt>
      <trkpt lat="43.07491421699524" lon="-0.6068551540374756">
        <ele>328.1113942895081</ele>
        <time>2021-08-05T10:58:30.300Z</time>
      </trkpt>
      <trkpt lat="43.074753284454346" lon="-0.6068336963653564">
        <ele>327.7005125132064</ele>
        <time>2021-08-05T10:58:41.335Z</time>
      </trkpt>
      <trkpt lat="43.07458162307739" lon="-0.6067585945129395">
        <ele>327.274904775662</ele>
        <time>2021-08-05T10:58:52.373Z</time>
      </trkpt>
      <trkpt lat="43.07368040084839" lon="-0.6062757968902588">
        <ele>327.0974153034517</ele>
        <time>2021-08-05T10:59:03.427Z</time>
      </trkpt>
      <trkpt lat="43.0734658241272" lon="-0.6061899662017822">
        <ele>326.69740881768683</ele>
        <time>2021-08-05T10:59:14.484Z</time>
      </trkpt>
      <trkpt lat="43.07318687438965" lon="-0.606147050857544">
        <ele>326.03825029444033</ele>
        <time>2021-08-05T10:59:25.546Z</time>
      </trkpt>
      <trkpt lat="43.07267197407782" lon="-0.6061792373657227">
        <ele>325.13540775616235</ele>
        <time>2021-08-05T10:59:36.616Z</time>
      </trkpt>
      <trkpt lat="43.07238229550421" lon="-0.6062006950378418">
        <ele>324.5970043792626</ele>
        <time>2021-08-05T10:59:47.691Z</time>
      </trkpt>
      <trkpt lat="43.07197451591492" lon="-0.6062114238739014">
        <ele>323.9404393682315</ele>
        <time>2021-08-05T10:59:58.772Z</time>
      </trkpt>
      <trkpt lat="43.07193160057068" lon="-0.6062328815460205">
        <ele>323.39595507905744</ele>
        <time>2021-08-05T11:00:09.854Z</time>
      </trkpt>
      <trkpt lat="43.07191014289856" lon="-0.6062865257263184">
        <ele>322.86204482765993</ele>
        <time>2021-08-05T11:00:20.937Z</time>
      </trkpt>
      <trkpt lat="43.07194241322577" lon="-0.6063294410705566">
        <ele>322.30201797481357</ele>
        <time>2021-08-05T11:00:32.020Z</time>
      </trkpt>
      <trkpt lat="43.07244666852057" lon="-0.60699462890625">
        <ele>321.74731924591947</ele>
        <time>2021-08-05T11:00:43.115Z</time>
      </trkpt>
      <trkpt lat="43.072500228881836" lon="-0.6070482730865479">
        <ele>321.1090776923763</ele>
        <time>2021-08-05T11:00:54.211Z</time>
      </trkpt>
      <trkpt lat="43.07265043258667" lon="-0.6071770191192627">
        <ele>320.4115938057491</ele>
        <time>2021-08-05T11:01:05.309Z</time>
      </trkpt>
      <trkpt lat="43.074281215667725" lon="-0.6082606315612793">
        <ele>319.7731080431865</ele>
        <time>2021-08-05T11:01:16.437Z</time>
      </trkpt>
      <trkpt lat="43.07457089424133" lon="-0.608518123626709">
        <ele>319.16009752596585</ele>
        <time>2021-08-05T11:01:27.570Z</time>
      </trkpt>
      <trkpt lat="43.07581543922424" lon="-0.6097304821014404">
        <ele>318.43522093997007</ele>
        <time>2021-08-05T11:01:38.728Z</time>
      </trkpt>
      <trkpt lat="43.07685613632202" lon="-0.6109213829040527">
        <ele>317.81481135595436</ele>
        <time>2021-08-05T11:01:49.907Z</time>
      </trkpt>
      <trkpt lat="43.07752140797675" lon="-0.6117796897888184">
        <ele>317.3231425059388</ele>
        <time>2021-08-05T11:02:01.101Z</time>
      </trkpt>
      <trkpt lat="43.07795056141913" lon="-0.6122517585754395">
        <ele>316.8346521454221</ele>
        <time>2021-08-05T11:02:12.304Z</time>
      </trkpt>
      <trkpt lat="43.078272342681885" lon="-0.6125092506408691">
        <ele>316.40476461672245</ele>
        <time>2021-08-05T11:02:23.513Z</time>
      </trkpt>
      <trkpt lat="43.07868003845215" lon="-0.6127345561981201">
        <ele>316.07449446796676</ele>
        <time>2021-08-05T11:02:34.729Z</time>
      </trkpt>
      <trkpt lat="43.07913064956665" lon="-0.612863302230835">
        <ele>315.46209949382154</ele>
        <time>2021-08-05T11:02:45.952Z</time>
      </trkpt>
      <trkpt lat="43.079506158828735" lon="-0.6129169464111328">
        <ele>314.89709694302417</ele>
        <time>2021-08-05T11:02:57.181Z</time>
      </trkpt>
      <trkpt lat="43.07950624264777" lon="-0.6129169464111328">
        <ele>314.35907842564336</ele>
        <time>2021-08-05T11:03:08.410Z</time>
      </trkpt>
      <trkpt lat="43.07990312576294" lon="-0.6129813194274902">
        <ele>313.80434052222796</ele>
        <time>2021-08-05T11:03:19.646Z</time>
      </trkpt>
      <trkpt lat="43.08011778630316" lon="-0.6130564212799072">
        <ele>313.2947300401214</ele>
        <time>2021-08-05T11:03:30.885Z</time>
      </trkpt>
      <trkpt lat="43.08045029640198" lon="-0.6131958961486816">
        <ele>312.6334953871219</ele>
        <time>2021-08-05T11:03:42.130Z</time>
      </trkpt>
      <trkpt lat="43.08110483922064" lon="-0.613635778427124">
        <ele>312.1050521000209</ele>
        <time>2021-08-05T11:03:53.386Z</time>
      </trkpt>
      <trkpt lat="43.081737756729126" lon="-0.6140649318695068">
        <ele>311.6295342862061</ele>
        <time>2021-08-05T11:04:04.654Z</time>
      </trkpt>
      <trkpt lat="43.08214545249939" lon="-0.6143331527709961">
        <ele>311.44152711700605</ele>
        <time>2021-08-05T11:04:15.929Z</time>
      </trkpt>
      <trkpt lat="43.082435131073" lon="-0.6144618988037109">
        <ele>311.41345483073167</ele>
        <time>2021-08-05T11:04:27.209Z</time>
      </trkpt>
      <trkpt lat="43.08306813240051" lon="-0.6147515773773193">
        <ele>311.5849798704443</ele>
        <time>2021-08-05T11:04:38.499Z</time>
      </trkpt>
      <trkpt lat="43.08362603187561" lon="-0.6149446964263916">
        <ele>311.61943786372797</ele>
        <time>2021-08-05T11:04:49.799Z</time>
      </trkpt>
      <trkpt lat="43.0838406085968" lon="-0.6149983406066895">
        <ele>311.65827291328355</ele>
        <time>2021-08-05T11:05:01.102Z</time>
      </trkpt>
      <trkpt lat="43.08430194854736" lon="-0.6150519847869873">
        <ele>311.80762035202196</ele>
        <time>2021-08-05T11:05:12.413Z</time>
      </trkpt>
      <trkpt lat="43.08519244194031" lon="-0.615009069442749">
        <ele>312.18297932670623</ele>
        <time>2021-08-05T11:05:23.738Z</time>
      </trkpt>
      <trkpt lat="43.08541774749756" lon="-0.615009069442749">
        <ele>312.6687966056451</ele>
        <time>2021-08-05T11:05:35.066Z</time>
      </trkpt>
      <trkpt lat="43.08564305305481" lon="-0.6150412559509277">
        <ele>313.36331520007343</ele>
        <time>2021-08-05T11:05:46.398Z</time>
      </trkpt>
      <trkpt lat="43.08611520566046" lon="-0.615159273147583">
        <ele>314.29491724977856</ele>
        <time>2021-08-05T11:05:57.738Z</time>
      </trkpt>
      <trkpt lat="43.09007406234741" lon="-0.6161248683929443">
        <ele>315.1780376627187</ele>
        <time>2021-08-05T11:06:09.142Z</time>
      </trkpt>
      <trkpt lat="43.09041738510132" lon="-0.6162643432617188">
        <ele>316.3921303076776</ele>
        <time>2021-08-05T11:06:20.552Z</time>
      </trkpt>
      <trkpt lat="43.090739250183105" lon="-0.6164360046386719">
        <ele>317.71927598877585</ele>
        <time>2021-08-05T11:06:31.967Z</time>
      </trkpt>
      <trkpt lat="43.09114694595337" lon="-0.6167042255401611">
        <ele>319.195838026814</ele>
        <time>2021-08-05T11:06:43.390Z</time>
      </trkpt>
      <trkpt lat="43.091490268707275" lon="-0.6170475482940674">
        <ele>320.817947989488</ele>
        <time>2021-08-05T11:06:54.819Z</time>
      </trkpt>
      <trkpt lat="43.09334635734558" lon="-0.6190431118011475">
        <ele>322.8134636838968</ele>
        <time>2021-08-05T11:07:06.286Z</time>
      </trkpt>
      <trkpt lat="43.09334644116461" lon="-0.6190431118011475">
        <ele>324.93821580976635</ele>
        <time>2021-08-05T11:07:17.753Z</time>
      </trkpt>
      <trkpt lat="43.09498795308173" lon="-0.620802640914917">
        <ele>327.16650561857125</ele>
        <time>2021-08-05T11:07:29.254Z</time>
      </trkpt>
      <trkpt lat="43.09541710652411" lon="-0.6212639808654785">
        <ele>329.7066283120647</ele>
        <time>2021-08-05T11:07:40.763Z</time>
      </trkpt>
      <trkpt lat="43.09603929519653" lon="-0.6219398975372314">
        <ele>332.4862581524446</ele>
        <time>2021-08-05T11:07:52.285Z</time>
      </trkpt>
      <trkpt lat="43.09631824493408" lon="-0.6222081184387207">
        <ele>335.48961821015314</ele>
        <time>2021-08-05T11:08:03.812Z</time>
      </trkpt>
      <trkpt lat="43.09661865234375" lon="-0.622401237487793">
        <ele>338.6530211930652</ele>
        <time>2021-08-05T11:08:15.345Z</time>
      </trkpt>
      <trkpt lat="43.096511363983154" lon="-0.6226050853729248">
        <ele>345.75488994685804</ele>
        <time>2021-08-05T11:08:26.881Z</time>
      </trkpt>
      <trkpt lat="43.09638270176947" lon="-0.6227767467498779">
        <ele>349.68648354445156</ele>
        <time>2021-08-05T11:08:38.420Z</time>
      </trkpt>
      <trkpt lat="43.096243143081665" lon="-0.622948408126831">
        <ele>353.79843821580465</ele>
        <time>2021-08-05T11:08:49.962Z</time>
      </trkpt>
      <trkpt lat="43.09566378593445" lon="-0.6235706806182861">
        <ele>358.30608677234375</ele>
        <time>2021-08-05T11:09:01.515Z</time>
      </trkpt>
      <trkpt lat="43.095492124557495" lon="-0.6238281726837158">
        <ele>362.7688134137921</ele>
        <time>2021-08-05T11:09:13.072Z</time>
      </trkpt>
      <trkpt lat="43.09520244598389" lon="-0.6243538856506348">
        <ele>367.4982291008569</ele>
        <time>2021-08-05T11:09:24.637Z</time>
      </trkpt>
      <trkpt lat="43.0949342250824" lon="-0.6247186660766602">
        <ele>372.2893572765322</ele>
        <time>2021-08-05T11:09:36.208Z</time>
      </trkpt>
      <trkpt lat="43.094741106033325" lon="-0.6251692771911621">
        <ele>377.27977957605515</ele>
        <time>2021-08-05T11:09:47.785Z</time>
      </trkpt>
      <trkpt lat="43.09463381767273" lon="-0.6256842613220215">
        <ele>382.4319367882854</ele>
        <time>2021-08-05T11:09:59.369Z</time>
      </trkpt>
      <trkpt lat="43.0944299697876" lon="-0.6263279914855957">
        <ele>387.46963969817955</ele>
        <time>2021-08-05T11:10:10.961Z</time>
      </trkpt>
      <trkpt lat="43.09441932477057" lon="-0.6265318393707275">
        <ele>392.4345485965398</ele>
        <time>2021-08-05T11:10:22.555Z</time>
      </trkpt>
      <trkpt lat="43.09435486793518" lon="-0.6271862983703613">
        <ele>397.6741119390424</ele>
        <time>2021-08-05T11:10:34.157Z</time>
      </trkpt>
      <trkpt lat="43.094215393066406" lon="-0.6281304359436035">
        <ele>402.94117881322745</ele>
        <time>2021-08-05T11:10:45.770Z</time>
      </trkpt>
      <trkpt lat="43.09412956237793" lon="-0.6288492679595947">
        <ele>408.0711278424171</ele>
        <time>2021-08-05T11:10:57.392Z</time>
      </trkpt>
      <trkpt lat="43.09410810470581" lon="-0.6293964385986328">
        <ele>413.1366624712184</ele>
        <time>2021-08-05T11:11:09.020Z</time>
      </trkpt>
      <trkpt lat="43.09408664703369" lon="-0.63071608543396">
        <ele>418.37103225464665</ele>
        <time>2021-08-05T11:11:20.664Z</time>
      </trkpt>
      <trkpt lat="43.09410810470581" lon="-0.6309843063354492">
        <ele>423.1198527698483</ele>
        <time>2021-08-05T11:11:32.311Z</time>
      </trkpt>
      <trkpt lat="43.094322681427" lon="-0.6318747997283936">
        <ele>427.9079118153225</ele>
        <time>2021-08-05T11:11:43.969Z</time>
      </trkpt>
      <trkpt lat="43.09469819068909" lon="-0.6330227851867676">
        <ele>432.7107339704594</ele>
        <time>2021-08-05T11:11:55.642Z</time>
      </trkpt>
      <trkpt lat="43.094751834869385" lon="-0.6333231925964355">
        <ele>437.02056695974545</ele>
        <time>2021-08-05T11:12:07.318Z</time>
      </trkpt>
      <trkpt lat="43.0948269367218" lon="-0.6334733963012695">
        <ele>441.14805800500193</ele>
        <time>2021-08-05T11:12:18.996Z</time>
      </trkpt>
      <trkpt lat="43.0949342250824" lon="-0.633612871170044">
        <ele>445.0967491848028</ele>
        <time>2021-08-05T11:12:30.677Z</time>
      </trkpt>
      <trkpt lat="43.095030784606934" lon="-0.6336987018585205">
        <ele>448.7985843533251</ele>
        <time>2021-08-05T11:12:42.360Z</time>
      </trkpt>
      <trkpt lat="43.09514880180359" lon="-0.6337523460388184">
        <ele>452.3411408689376</ele>
        <time>2021-08-05T11:12:54.045Z</time>
      </trkpt>
      <trkpt lat="43.09520244598389" lon="-0.6338274478912354">
        <ele>455.57282782165566</ele>
        <time>2021-08-05T11:13:05.731Z</time>
      </trkpt>
      <trkpt lat="43.095256090164185" lon="-0.6340634822845459">
        <ele>458.46253486397865</ele>
        <time>2021-08-05T11:13:17.420Z</time>
      </trkpt>
      <trkpt lat="43.09532046318054" lon="-0.6341707706451416">
        <ele>461.1900566202157</ele>
        <time>2021-08-05T11:13:29.110Z</time>
      </trkpt>
      <trkpt lat="43.095470666885376" lon="-0.6342995166778564">
        <ele>463.77652595550825</ele>
        <time>2021-08-05T11:13:40.803Z</time>
      </trkpt>
      <trkpt lat="43.09556722640991" lon="-0.6344282627105713">
        <ele>465.99441938564485</ele>
        <time>2021-08-05T11:13:52.498Z</time>
      </trkpt>
      <trkpt lat="43.095771074295044" lon="-0.6348681449890137">
        <ele>467.98516307712856</ele>
        <time>2021-08-05T11:14:04.199Z</time>
      </trkpt>
      <trkpt lat="43.096028566360474" lon="-0.6357049942016602">
        <ele>469.54440642404563</ele>
        <time>2021-08-05T11:14:15.911Z</time>
      </trkpt>
      <trkpt lat="43.09606075286865" lon="-0.6358766555786133">
        <ele>470.87544475988904</ele>
        <time>2021-08-05T11:14:27.625Z</time>
      </trkpt>
      <trkpt lat="43.09608221054077" lon="-0.63620924949646">
        <ele>471.9426178808403</ele>
        <time>2021-08-05T11:14:39.343Z</time>
      </trkpt>
      <trkpt lat="43.09615731239319" lon="-0.6365954875946045">
        <ele>472.77984533292874</ele>
        <time>2021-08-05T11:14:51.066Z</time>
      </trkpt>
      <trkpt lat="43.09614658355713" lon="-0.6366491317749023">
        <ele>473.22858846575934</ele>
        <time>2021-08-05T11:15:02.789Z</time>
      </trkpt>
      <trkpt lat="43.09614666737616" lon="-0.6366491317749023">
        <ele>473.4256115416463</ele>
        <time>2021-08-05T11:15:14.512Z</time>
      </trkpt>
      <trkpt lat="43.09607148170471" lon="-0.6370782852172852">
        <ele>473.27203606784315</ele>
        <time>2021-08-05T11:15:26.241Z</time>
      </trkpt>
      <trkpt lat="43.09586763381958" lon="-0.6375932693481445">
        <ele>472.76563277686625</ele>
        <time>2021-08-05T11:15:37.976Z</time>
      </trkpt>
      <trkpt lat="43.09593200683594" lon="-0.63820481300354">
        <ele>471.985129116195</ele>
        <time>2021-08-05T11:15:49.719Z</time>
      </trkpt>
      <trkpt lat="43.09618949890137" lon="-0.6399428844451904">
        <ele>470.5727845453987</ele>
        <time>2021-08-05T11:16:01.482Z</time>
      </trkpt>
      <trkpt lat="43.09617877006531" lon="-0.6400179862976074">
        <ele>469.4969959085986</ele>
        <time>2021-08-05T11:16:13.246Z</time>
      </trkpt>
      <trkpt lat="43.09614658355713" lon="-0.6400823593139648">
        <ele>468.18990135354346</ele>
        <time>2021-08-05T11:16:25.011Z</time>
      </trkpt>
      <trkpt lat="43.09607148170471" lon="-0.6400930881500244">
        <ele>466.7076041753754</ele>
        <time>2021-08-05T11:16:36.777Z</time>
      </trkpt>
      <trkpt lat="43.09587836265564" lon="-0.640028715133667">
        <ele>465.00902956415786</ele>
        <time>2021-08-05T11:16:48.547Z</time>
      </trkpt>
      <trkpt lat="43.09581398963928" lon="-0.6400179862976074">
        <ele>463.1042522048813</ele>
        <time>2021-08-05T11:17:00.318Z</time>
      </trkpt>
      <trkpt lat="43.095760345458984" lon="-0.6400501728057861">
        <ele>460.9982667349957</ele>
        <time>2021-08-05T11:17:12.090Z</time>
      </trkpt>
      <trkpt lat="43.095749616622925" lon="-0.6401145458221436">
        <ele>458.7130959539675</ele>
        <time>2021-08-05T11:17:23.862Z</time>
      </trkpt>
      <trkpt lat="43.0957818031311" lon="-0.640178918838501">
        <ele>456.2910060830418</ele>
        <time>2021-08-05T11:17:35.635Z</time>
      </trkpt>
      <trkpt lat="43.09587836265564" lon="-0.6403398513793945">
        <ele>453.70174117249036</ele>
        <time>2021-08-05T11:17:47.411Z</time>
      </trkpt>
      <trkpt lat="43.095942735672" lon="-0.6404900550842285">
        <ele>450.984689862765</ele>
        <time>2021-08-05T11:17:59.189Z</time>
      </trkpt>
      <trkpt lat="43.096028566360474" lon="-0.6408548355102539">
        <ele>447.97970285277086</ele>
        <time>2021-08-05T11:18:10.971Z</time>
      </trkpt>
      <trkpt lat="43.096221685409546" lon="-0.6411552429199219">
        <ele>444.9214380187898</ele>
        <time>2021-08-05T11:18:22.758Z</time>
      </trkpt>
      <trkpt lat="43.096468448638916" lon="-0.641477108001709">
        <ele>441.70216190206156</ele>
        <time>2021-08-05T11:18:34.550Z</time>
      </trkpt>
      <trkpt lat="43.096725940704346" lon="-0.6419277191162109">
        <ele>438.26808883478236</ele>
        <time>2021-08-05T11:18:46.349Z</time>
      </trkpt>
      <trkpt lat="43.0969512462616" lon="-0.6424856185913086">
        <ele>434.90298609058306</ele>
        <time>2021-08-05T11:18:58.156Z</time>
      </trkpt>
      <trkpt lat="43.09714436531067" lon="-0.6428396701812744">
        <ele>431.5272680592773</ele>
        <time>2021-08-05T11:19:09.968Z</time>
      </trkpt>
      <trkpt lat="43.097208738327026" lon="-0.6430327892303467">
        <ele>428.07055055238675</ele>
        <time>2021-08-05T11:19:21.782Z</time>
      </trkpt>
      <trkpt lat="43.097240924835205" lon="-0.643225908279419">
        <ele>424.585926801759</ele>
        <time>2021-08-05T11:19:33.599Z</time>
      </trkpt>
      <trkpt lat="43.097262382507324" lon="-0.6436014175415039">
        <ele>421.0276787759601</ele>
        <time>2021-08-05T11:19:45.420Z</time>
      </trkpt>
      <trkpt lat="43.09744477272034" lon="-0.6447923183441162">
        <ele>417.518817329612</ele>
        <time>2021-08-05T11:19:57.255Z</time>
      </trkpt>
      <trkpt lat="43.097509145736694" lon="-0.6454038619995117">
        <ele>413.91769138761697</ele>
        <time>2021-08-05T11:20:09.097Z</time>
      </trkpt>
      <trkpt lat="43.09757351875305" lon="-0.6456398963928223">
        <ele>410.28167121602854</ele>
        <time>2021-08-05T11:20:20.942Z</time>
      </trkpt>
      <trkpt lat="43.09769153594971" lon="-0.6457793712615967">
        <ele>406.56006818859873</ele>
        <time>2021-08-05T11:20:32.790Z</time>
      </trkpt>
      <trkpt lat="43.09782028198242" lon="-0.6458866596221924">
        <ele>402.77252957779524</ele>
        <time>2021-08-05T11:20:44.640Z</time>
      </trkpt>
      <trkpt lat="43.09809923171997" lon="-0.645972490310669">
        <ele>398.9422167573541</ele>
        <time>2021-08-05T11:20:56.495Z</time>
      </trkpt>
      <trkpt lat="43.098260164260864" lon="-0.6460690498352051">
        <ele>395.1046118596728</ele>
        <time>2021-08-05T11:21:08.353Z</time>
      </trkpt>
      <trkpt lat="43.09837826527655" lon="-0.6462085247039795">
        <ele>391.26600146114964</ele>
        <time>2021-08-05T11:21:20.213Z</time>
      </trkpt>
      <trkpt lat="43.098464012145996" lon="-0.6466913223266602">
        <ele>387.3721575359704</ele>
        <time>2021-08-05T11:21:32.079Z</time>
      </trkpt>
      <trkpt lat="43.09844255447388" lon="-0.6468844413757324">
        <ele>383.4671635972808</ele>
        <time>2021-08-05T11:21:43.947Z</time>
      </trkpt>
      <trkpt lat="43.09815287590027" lon="-0.6480002403259277">
        <ele>379.06234783481995</ele>
        <time>2021-08-05T11:21:55.829Z</time>
      </trkpt>
      <trkpt lat="43.09810996055603" lon="-0.6482899188995361">
        <ele>375.052684728478</ele>
        <time>2021-08-05T11:22:07.715Z</time>
      </trkpt>
      <trkpt lat="43.09810996055603" lon="-0.6486654281616211">
        <ele>371.038884817681</ele>
        <time>2021-08-05T11:22:19.605Z</time>
      </trkpt>
      <trkpt lat="43.09817433357239" lon="-0.6492769718170166">
        <ele>367.0176946024708</ele>
        <time>2021-08-05T11:22:31.502Z</time>
      </trkpt>
      <trkpt lat="43.09833526611328" lon="-0.6502425670623779">
        <ele>362.9358932217499</ele>
        <time>2021-08-05T11:22:43.411Z</time>
      </trkpt>
      <trkpt lat="43.09845336712897" lon="-0.6504786014556885">
        <ele>359.18045444171184</ele>
        <time>2021-08-05T11:22:55.323Z</time>
      </trkpt>
      <trkpt lat="43.09861421585083" lon="-0.6507039070129395">
        <ele>355.46635392355256</ele>
        <time>2021-08-05T11:23:07.239Z</time>
      </trkpt>
      <trkpt lat="43.09889316558838" lon="-0.6512081623077393">
        <ele>351.6988481044152</ele>
        <time>2021-08-05T11:23:19.162Z</time>
      </trkpt>
      <trkpt lat="43.09893608093262" lon="-0.6513369083404541">
        <ele>348.16087571911146</ele>
        <time>2021-08-05T11:23:31.087Z</time>
      </trkpt>
      <trkpt lat="43.099011182785034" lon="-0.6518948078155518">
        <ele>344.54011146653204</ele>
        <time>2021-08-05T11:23:43.019Z</time>
      </trkpt>
      <trkpt lat="43.09908628463745" lon="-0.652238130569458">
        <ele>341.172757098529</ele>
        <time>2021-08-05T11:23:54.955Z</time>
      </trkpt>
      <trkpt lat="43.099225759506226" lon="-0.652463436126709">
        <ele>337.92445595249785</ele>
        <time>2021-08-05T11:24:06.894Z</time>
      </trkpt>
      <trkpt lat="43.099268674850464" lon="-0.6526565551757812">
        <ele>334.7932393545262</ele>
        <time>2021-08-05T11:24:18.836Z</time>
      </trkpt>
      <trkpt lat="43.099279487505555" lon="-0.6528818607330322">
        <ele>331.7871477580666</ele>
        <time>2021-08-05T11:24:30.780Z</time>
      </trkpt>
      <trkpt lat="43.09927940368652" lon="-0.6528818607330322">
        <ele>328.94030643775034</ele>
        <time>2021-08-05T11:24:42.724Z</time>
      </trkpt>
      <trkpt lat="43.099268674850464" lon="-0.6534183025360107">
        <ele>326.2023838633353</ele>
        <time>2021-08-05T11:24:54.675Z</time>
      </trkpt>
      <trkpt lat="43.09929013252258" lon="-0.6538045406341553">
        <ele>323.63479946760856</ele>
        <time>2021-08-05T11:25:06.630Z</time>
      </trkpt>
      <trkpt lat="43.099536979570985" lon="-0.6550383567810059">
        <ele>320.98171500311423</ele>
        <time>2021-08-05T11:25:18.600Z</time>
      </trkpt>
      <trkpt lat="43.099558437243104" lon="-0.6551671028137207">
        <ele>318.6462268701133</ele>
        <time>2021-08-05T11:25:30.572Z</time>
      </trkpt>
      <trkpt lat="43.09963345527649" lon="-0.6554782390594482">
        <ele>316.34918344242624</ele>
        <time>2021-08-05T11:25:42.548Z</time>
      </trkpt>
      <trkpt lat="43.099719285964966" lon="-0.6561434268951416">
        <ele>313.99224964157673</ele>
        <time>2021-08-05T11:25:54.532Z</time>
      </trkpt>
      <trkpt lat="43.099730014801025" lon="-0.6566476821899414">
        <ele>311.9443490146291</ele>
        <time>2021-08-05T11:26:06.521Z</time>
      </trkpt>
      <trkpt lat="43.09969782829285" lon="-0.6568300724029541">
        <ele>310.12401181331586</ele>
        <time>2021-08-05T11:26:18.513Z</time>
      </trkpt>
      <trkpt lat="43.09955835342407" lon="-0.6572163105010986">
        <ele>308.4423753671547</ele>
        <time>2021-08-05T11:26:30.510Z</time>
      </trkpt>
      <trkpt lat="43.099536979570985" lon="-0.6573235988616943">
        <ele>307.0349141388478</ele>
        <time>2021-08-05T11:26:42.508Z</time>
      </trkpt>
      <trkpt lat="43.09954762458801" lon="-0.65743088722229">
        <ele>305.8105866397467</ele>
        <time>2021-08-05T11:26:54.507Z</time>
      </trkpt>
      <trkpt lat="43.09962272644043" lon="-0.6575489044189453">
        <ele>304.7368347608526</ele>
        <time>2021-08-05T11:27:06.508Z</time>
      </trkpt>
      <trkpt lat="43.099740743637085" lon="-0.6576776504516602">
        <ele>303.785269929053</ele>
        <time>2021-08-05T11:27:18.511Z</time>
      </trkpt>
      <trkpt lat="43.099762201309204" lon="-0.657731294631958">
        <ele>303.06546121313886</ele>
        <time>2021-08-05T11:27:30.515Z</time>
      </trkpt>
      <trkpt lat="43.099708557128906" lon="-0.658031702041626">
        <ele>302.4986571838636</ele>
        <time>2021-08-05T11:27:42.523Z</time>
      </trkpt>
      <trkpt lat="43.099719285964966" lon="-0.6581604480743408">
        <ele>302.07319427307243</ele>
        <time>2021-08-05T11:27:54.532Z</time>
      </trkpt>
      <trkpt lat="43.099772930145264" lon="-0.658332109451294">
        <ele>301.7932253953557</ele>
        <time>2021-08-05T11:28:06.544Z</time>
      </trkpt>
      <trkpt lat="43.099805200472474" lon="-0.658653974533081">
        <ele>301.69815542745744</ele>
        <time>2021-08-05T11:28:18.559Z</time>
      </trkpt>
      <trkpt lat="43.0998158454895" lon="-0.6588256359100342">
        <ele>301.7670254128715</ele>
        <time>2021-08-05T11:28:30.576Z</time>
      </trkpt>
      <trkpt lat="43.09983730316162" lon="-0.6590509414672852">
        <ele>301.9740311757113</ele>
        <time>2021-08-05T11:28:42.596Z</time>
      </trkpt>
      <trkpt lat="43.09984803199768" lon="-0.6591796875">
        <ele>302.32836693560455</ele>
        <time>2021-08-05T11:28:54.618Z</time>
      </trkpt>
      <trkpt lat="43.0998694896698" lon="-0.6592762470245361">
        <ele>302.8071439890434</ele>
        <time>2021-08-05T11:29:06.641Z</time>
      </trkpt>
      <trkpt lat="43.09993394650519" lon="-0.6593620777130127">
        <ele>303.40589287039785</ele>
        <time>2021-08-05T11:29:18.665Z</time>
      </trkpt>
      <trkpt lat="43.10013771057129" lon="-0.6595122814178467">
        <ele>304.16130872256247</ele>
        <time>2021-08-05T11:29:30.693Z</time>
      </trkpt>
      <trkpt lat="43.10018062591553" lon="-0.6595873832702637">
        <ele>305.01004666132826</ele>
        <time>2021-08-05T11:29:42.722Z</time>
      </trkpt>
      <trkpt lat="43.10020208358765" lon="-0.6596946716308594">
        <ele>305.95849536826404</ele>
        <time>2021-08-05T11:29:54.752Z</time>
      </trkpt>
      <trkpt lat="43.10019135475159" lon="-0.6601130962371826">
        <ele>307.12436116518325</ele>
        <time>2021-08-05T11:30:06.787Z</time>
      </trkpt>
      <trkpt lat="43.10020208358765" lon="-0.6602632999420166">
        <ele>308.25457074398116</ele>
        <time>2021-08-05T11:30:18.824Z</time>
      </trkpt>
      <trkpt lat="43.100223541259766" lon="-0.6605207920074463">
        <ele>309.4451186707141</ele>
        <time>2021-08-05T11:30:30.864Z</time>
      </trkpt>
      <trkpt lat="43.10024508275092" lon="-0.6605637073516846">
        <ele>310.6521804452376</ele>
        <time>2021-08-05T11:30:42.905Z</time>
      </trkpt>
      <trkpt lat="43.10030937194824" lon="-0.6606388092041016">
        <ele>311.9472340302318</ele>
        <time>2021-08-05T11:30:54.947Z</time>
      </trkpt>
      <trkpt lat="43.10057759284973" lon="-0.660703182220459">
        <ele>313.3786718446788</ele>
        <time>2021-08-05T11:31:06.993Z</time>
      </trkpt>
      <trkpt lat="43.10088872909546" lon="-0.6608748435974121">
        <ele>314.7902144996642</ele>
        <time>2021-08-05T11:31:19.045Z</time>
      </trkpt>
      <trkpt lat="43.100963830947876" lon="-0.6609392166137695">
        <ele>316.12975583575883</ele>
        <time>2021-08-05T11:31:31.098Z</time>
      </trkpt>
      <trkpt lat="43.101049745455384" lon="-0.6610679626464844">
        <ele>317.51646968733735</ele>
        <time>2021-08-05T11:31:43.153Z</time>
      </trkpt>
      <trkpt lat="43.10113557614386" lon="-0.661475658416748">
        <ele>318.9392521014446</ele>
        <time>2021-08-05T11:31:55.213Z</time>
      </trkpt>
      <trkpt lat="43.10110330581665" lon="-0.6620550155639648">
        <ele>320.29631301897155</ele>
        <time>2021-08-05T11:32:07.280Z</time>
      </trkpt>
      <trkpt lat="43.101060474291444" lon="-0.6622052192687988">
        <ele>321.60902053188903</ele>
        <time>2021-08-05T11:32:19.349Z</time>
      </trkpt>
      <trkpt lat="43.10102820396423" lon="-0.6622910499572754">
        <ele>322.90417899230494</ele>
        <time>2021-08-05T11:32:31.419Z</time>
      </trkpt>
      <trkpt lat="43.10086727142334" lon="-0.6624734401702881">
        <ele>324.17673516840495</ele>
        <time>2021-08-05T11:32:43.492Z</time>
      </trkpt>
      <trkpt lat="43.100706338882446" lon="-0.6627523899078369">
        <ele>325.4485748563477</ele>
        <time>2021-08-05T11:32:55.569Z</time>
      </trkpt>
      <trkpt lat="43.100620592013" lon="-0.6629669666290283">
        <ele>326.6667309722721</ele>
        <time>2021-08-05T11:33:07.649Z</time>
      </trkpt>
      <trkpt lat="43.10020208358765" lon="-0.6638467311859131">
        <ele>327.7882199011541</ele>
        <time>2021-08-05T11:33:19.742Z</time>
      </trkpt>
      <trkpt lat="43.09965491294861" lon="-0.6649196147918701">
        <ele>329.03663726079554</ele>
        <time>2021-08-05T11:33:31.850Z</time>
      </trkpt>
      <trkpt lat="43.099526166915894" lon="-0.6651556491851807">
        <ele>330.14373107453014</ele>
        <time>2021-08-05T11:33:43.961Z</time>
      </trkpt>
      <trkpt lat="43.09819587506354" lon="-0.6670975685119629">
        <ele>331.22295022913454</ele>
        <time>2021-08-05T11:33:56.104Z</time>
      </trkpt>
      <trkpt lat="43.097712993621826" lon="-0.6678593158721924">
        <ele>332.1074626655098</ele>
        <time>2021-08-05T11:34:08.258Z</time>
      </trkpt>
      <trkpt lat="43.09742331504822" lon="-0.6683850288391113">
        <ele>333.2485658700663</ele>
        <time>2021-08-05T11:34:20.420Z</time>
      </trkpt>
      <trkpt lat="43.097240924835205" lon="-0.6687605381011963">
        <ele>334.2435125661296</ele>
        <time>2021-08-05T11:34:32.587Z</time>
      </trkpt>
      <trkpt lat="43.096768856048584" lon="-0.6700479984283447">
        <ele>335.3631549606361</ele>
        <time>2021-08-05T11:34:44.771Z</time>
      </trkpt>
      <trkpt lat="43.096715211868286" lon="-0.670241117477417">
        <ele>336.2050981779809</ele>
        <time>2021-08-05T11:34:56.958Z</time>
      </trkpt>
      <trkpt lat="43.09670448303223" lon="-0.6703698635101318">
        <ele>336.9900269568027</ele>
        <time>2021-08-05T11:35:09.146Z</time>
      </trkpt>
      <trkpt lat="43.09670448303223" lon="-0.6704986095428467">
        <ele>337.70268026666713</ele>
        <time>2021-08-05T11:35:21.336Z</time>
      </trkpt>
      <trkpt lat="43.096768856048584" lon="-0.6709921360015869">
        <ele>338.2816779137646</ele>
        <time>2021-08-05T11:35:33.532Z</time>
      </trkpt>
      <trkpt lat="43.096768856048584" lon="-0.6711530685424805">
        <ele>338.93694831935545</ele>
        <time>2021-08-05T11:35:45.729Z</time>
      </trkpt>
      <trkpt lat="43.096715211868286" lon="-0.6714427471160889">
        <ele>339.5396790240576</ele>
        <time>2021-08-05T11:35:57.930Z</time>
      </trkpt>
      <trkpt lat="43.09661865234375" lon="-0.6716573238372803">
        <ele>340.13756161225433</ele>
        <time>2021-08-05T11:36:10.134Z</time>
      </trkpt>
      <trkpt lat="43.096522092819214" lon="-0.6717860698699951">
        <ele>340.72540634417885</ele>
        <time>2021-08-05T11:36:22.340Z</time>
      </trkpt>
      <trkpt lat="43.09609293937683" lon="-0.6721186637878418">
        <ele>341.3864685973159</ele>
        <time>2021-08-05T11:36:34.554Z</time>
      </trkpt>
      <trkpt lat="43.095996379852295" lon="-0.6722474098205566">
        <ele>341.9305031214976</ele>
        <time>2021-08-05T11:36:46.770Z</time>
      </trkpt>
      <trkpt lat="43.0958890914917" lon="-0.6724405288696289">
        <ele>342.52896727853613</ele>
        <time>2021-08-05T11:36:58.989Z</time>
      </trkpt>
      <trkpt lat="43.09584617614746" lon="-0.6725907325744629">
        <ele>343.0501892295247</ele>
        <time>2021-08-05T11:37:11.210Z</time>
      </trkpt>
      <trkpt lat="43.09581398963928" lon="-0.6727409362792969">
        <ele>343.58957332084094</ele>
        <time>2021-08-05T11:37:23.433Z</time>
      </trkpt>
      <trkpt lat="43.095760345458984" lon="-0.6737923622131348">
        <ele>343.95670279694383</ele>
        <time>2021-08-05T11:37:35.668Z</time>
      </trkpt>
      <trkpt lat="43.09565314091742" lon="-0.6767106056213379">
        <ele>344.33604160233995</ele>
        <time>2021-08-05T11:37:47.937Z</time>
      </trkpt>
      <trkpt lat="43.095578039065" lon="-0.6788885593414307">
        <ele>345.210409115557</ele>
        <time>2021-08-05T11:38:00.232Z</time>
      </trkpt>
      <trkpt lat="43.09557795524597" lon="-0.6788885593414307">
        <ele>345.7148875226307</ele>
        <time>2021-08-05T11:38:12.527Z</time>
      </trkpt>
      <trkpt lat="43.095513666048646" lon="-0.6808733940124512">
        <ele>346.58471359485384</ele>
        <time>2021-08-05T11:38:24.845Z</time>
      </trkpt>
      <trkpt lat="43.09537410736084" lon="-0.6827616691589355">
        <ele>347.2713889109781</ele>
        <time>2021-08-05T11:38:37.185Z</time>
      </trkpt>
      <trkpt lat="43.09535264968872" lon="-0.6829977035522461">
        <ele>347.73363471638413</ele>
        <time>2021-08-05T11:38:49.528Z</time>
      </trkpt>
      <trkpt lat="43.09508442878723" lon="-0.6836307048797607">
        <ele>347.9958224538399</ele>
        <time>2021-08-05T11:39:01.880Z</time>
      </trkpt>
      <trkpt lat="43.09482702054083" lon="-0.6840920448303223">
        <ele>348.52260446595005</ele>
        <time>2021-08-05T11:39:14.239Z</time>
      </trkpt>
      <trkpt lat="43.09479475021362" lon="-0.6841456890106201">
        <ele>349.11260560630325</ele>
        <time>2021-08-05T11:39:26.598Z</time>
      </trkpt>
      <trkpt lat="43.09461236000061" lon="-0.6843066215515137">
        <ele>349.706352540687</ele>
        <time>2021-08-05T11:39:38.961Z</time>
      </trkpt>
      <trkpt lat="43.09414029121399" lon="-0.6844782829284668">
        <ele>350.3283106844604</ele>
        <time>2021-08-05T11:39:51.332Z</time>
      </trkpt>
      <trkpt lat="43.093990087509155" lon="-0.6845963001251221">
        <ele>351.0175098913687</ele>
        <time>2021-08-05T11:40:03.705Z</time>
      </trkpt>
      <trkpt lat="43.09391498565674" lon="-0.6848108768463135">
        <ele>351.7893168121837</ele>
        <time>2021-08-05T11:40:16.081Z</time>
      </trkpt>
      <trkpt lat="43.093775510787964" lon="-0.6857872009277344">
        <ele>352.6699384000732</ele>
        <time>2021-08-05T11:40:28.469Z</time>
      </trkpt>
      <trkpt lat="43.09316396713257" lon="-0.6869351863861084">
        <ele>353.5010201380379</ele>
        <time>2021-08-05T11:40:40.874Z</time>
      </trkpt>
      <trkpt lat="43.093024492263794" lon="-0.6872892379760742">
        <ele>354.34879225166276</ele>
        <time>2021-08-05T11:40:53.283Z</time>
      </trkpt>
      <trkpt lat="43.09293866157532" lon="-0.6878471374511719">
        <ele>355.29967374188584</ele>
        <time>2021-08-05T11:41:05.699Z</time>
      </trkpt>
      <trkpt lat="43.09294939041138" lon="-0.6883299350738525">
        <ele>356.3296875182255</ele>
        <time>2021-08-05T11:41:18.121Z</time>
      </trkpt>
      <trkpt lat="43.09293866157532" lon="-0.6887161731719971">
        <ele>357.53920617495555</ele>
        <time>2021-08-05T11:41:30.547Z</time>
      </trkpt>
      <trkpt lat="43.0928635597229" lon="-0.6891989707946777">
        <ele>358.9875320183595</ele>
        <time>2021-08-05T11:41:42.979Z</time>
      </trkpt>
      <trkpt lat="43.092734813690186" lon="-0.6895744800567627">
        <ele>360.1759092648686</ele>
        <time>2021-08-05T11:41:55.416Z</time>
      </trkpt>
      <trkpt lat="43.092498779296875" lon="-0.6899929046630859">
        <ele>361.3151971642432</ele>
        <time>2021-08-05T11:42:07.859Z</time>
      </trkpt>
      <trkpt lat="43.09239149093628" lon="-0.6904327869415283">
        <ele>362.54311054978814</ele>
        <time>2021-08-05T11:42:20.307Z</time>
      </trkpt>
      <trkpt lat="43.09213399887085" lon="-0.6912589073181152">
        <ele>363.77412138433147</ele>
        <time>2021-08-05T11:42:32.766Z</time>
      </trkpt>
      <trkpt lat="43.092037523165345" lon="-0.691688060760498">
        <ele>365.22352160728593</ele>
        <time>2021-08-05T11:42:45.230Z</time>
      </trkpt>
      <trkpt lat="43.092015981674194" lon="-0.6917953491210938">
        <ele>366.6987526134182</ele>
        <time>2021-08-05T11:42:57.695Z</time>
      </trkpt>
      <trkpt lat="43.091994524002075" lon="-0.6920957565307617">
        <ele>368.262737892616</ele>
        <time>2021-08-05T11:43:10.164Z</time>
      </trkpt>
      <trkpt lat="43.09205889701843" lon="-0.6928145885467529">
        <ele>369.94926816732874</ele>
        <time>2021-08-05T11:43:22.642Z</time>
      </trkpt>
      <trkpt lat="43.09208035469055" lon="-0.6931471824645996">
        <ele>371.57603941020864</ele>
        <time>2021-08-05T11:43:35.123Z</time>
      </trkpt>
      <trkpt lat="43.09221991337836" lon="-0.693587064743042">
        <ele>373.1711734519803</ele>
        <time>2021-08-05T11:43:47.610Z</time>
      </trkpt>
      <trkpt lat="43.0924129486084" lon="-0.6941986083984375">
        <ele>374.7652809214711</ele>
        <time>2021-08-05T11:44:00.105Z</time>
      </trkpt>
      <trkpt lat="43.09245586395264" lon="-0.6947779655456543">
        <ele>376.5363888075201</ele>
        <time>2021-08-05T11:44:12.607Z</time>
      </trkpt>
      <trkpt lat="43.09244513511658" lon="-0.6954753398895264">
        <ele>378.6657742105585</ele>
        <time>2021-08-05T11:44:25.117Z</time>
      </trkpt>
      <trkpt lat="43.09262752532959" lon="-0.6961297988891602">
        <ele>380.4255539890669</ele>
        <time>2021-08-05T11:44:37.635Z</time>
      </trkpt>
      <trkpt lat="43.09231638908386" lon="-0.6976103782653809">
        <ele>382.67624100099175</ele>
        <time>2021-08-05T11:44:50.171Z</time>
      </trkpt>
      <trkpt lat="43.092252016067505" lon="-0.6977391242980957">
        <ele>384.59153784063733</ele>
        <time>2021-08-05T11:45:02.709Z</time>
      </trkpt>
      <trkpt lat="43.0919623374939" lon="-0.6979966163635254">
        <ele>386.76772589373303</ele>
        <time>2021-08-05T11:45:15.252Z</time>
      </trkpt>
      <trkpt lat="43.0919623374939" lon="-0.6981468200683594">
        <ele>388.5937337886161</ele>
        <time>2021-08-05T11:45:27.797Z</time>
      </trkpt>
      <trkpt lat="43.092026710510254" lon="-0.6982648372650146">
        <ele>390.4044959879917</ele>
        <time>2021-08-05T11:45:40.344Z</time>
      </trkpt>
      <trkpt lat="43.092230558395386" lon="-0.6983828544616699">
        <ele>392.07457636855696</ele>
        <time>2021-08-05T11:45:52.895Z</time>
      </trkpt>
      <trkpt lat="43.09229493141174" lon="-0.6985223293304443">
        <ele>393.8691287366236</ele>
        <time>2021-08-05T11:46:05.447Z</time>
      </trkpt>
      <trkpt lat="43.09232711791992" lon="-0.6988227367401123">
        <ele>395.7251890801423</ele>
        <time>2021-08-05T11:46:18.003Z</time>
      </trkpt>
      <trkpt lat="43.09231638908386" lon="-0.6991231441497803">
        <ele>397.55698252011973</ele>
        <time>2021-08-05T11:46:30.563Z</time>
      </trkpt>
      <trkpt lat="43.092230558395386" lon="-0.6994986534118652">
        <ele>399.4225427174093</ele>
        <time>2021-08-05T11:46:43.127Z</time>
      </trkpt>
      <trkpt lat="43.09214472770691" lon="-0.6996810436248779">
        <ele>401.2869648781871</ele>
        <time>2021-08-05T11:46:55.694Z</time>
      </trkpt>
      <trkpt lat="43.091994524002075" lon="-0.6998312473297119">
        <ele>403.1569135432223</ele>
        <time>2021-08-05T11:47:08.264Z</time>
      </trkpt>
      <trkpt lat="43.09166193008423" lon="-0.700078010559082">
        <ele>405.1159368535345</ele>
        <time>2021-08-05T11:47:20.840Z</time>
      </trkpt>
      <trkpt lat="43.09159755706787" lon="-0.7002067565917969">
        <ele>406.86958607192935</ele>
        <time>2021-08-05T11:47:33.418Z</time>
      </trkpt>
      <trkpt lat="43.09164047241211" lon="-0.70037841796875">
        <ele>408.52813066010197</ele>
        <time>2021-08-05T11:47:45.998Z</time>
      </trkpt>
      <trkpt lat="43.091726303100586" lon="-0.7004427909851074">
        <ele>410.10512479693483</ele>
        <time>2021-08-05T11:47:58.579Z</time>
      </trkpt>
      <trkpt lat="43.09193015098572" lon="-0.7004106044769287">
        <ele>411.55117277710485</ele>
        <time>2021-08-05T11:48:11.164Z</time>
      </trkpt>
      <trkpt lat="43.09219837188721" lon="-0.7003891468048096">
        <ele>412.88962473935317</ele>
        <time>2021-08-05T11:48:23.753Z</time>
      </trkpt>
      <trkpt lat="43.092284202575684" lon="-0.7004320621490479">
        <ele>414.2925676938907</ele>
        <time>2021-08-05T11:48:36.343Z</time>
      </trkpt>
      <trkpt lat="43.09234857559204" lon="-0.7004964351654053">
        <ele>415.64721941182154</ele>
        <time>2021-08-05T11:48:48.935Z</time>
      </trkpt>
      <trkpt lat="43.09237003326416" lon="-0.7006895542144775">
        <ele>416.9995182855786</ele>
        <time>2021-08-05T11:49:01.529Z</time>
      </trkpt>
      <trkpt lat="43.09233784675598" lon="-0.7008397579193115">
        <ele>418.3321467863201</ele>
        <time>2021-08-05T11:49:14.125Z</time>
      </trkpt>
      <trkpt lat="43.092230558395386" lon="-0.7010543346405029">
        <ele>419.64524858099765</ele>
        <time>2021-08-05T11:49:26.724Z</time>
      </trkpt>
      <trkpt lat="43.09208035469055" lon="-0.7012903690338135">
        <ele>420.9143600043685</ele>
        <time>2021-08-05T11:49:39.326Z</time>
      </trkpt>
      <trkpt lat="43.0913507938385" lon="-0.7020092010498047">
        <ele>422.45710669663833</ele>
        <time>2021-08-05T11:49:51.943Z</time>
      </trkpt>
      <trkpt lat="43.091275691986084" lon="-0.7021486759185791">
        <ele>423.50493515419987</ele>
        <time>2021-08-05T11:50:04.562Z</time>
      </trkpt>
      <trkpt lat="43.091286420822144" lon="-0.7023096084594727">
        <ele>424.3959998578315</ele>
        <time>2021-08-05T11:50:17.183Z</time>
      </trkpt>
      <trkpt lat="43.09136152267456" lon="-0.7023954391479492">
        <ele>425.14231176400676</ele>
        <time>2021-08-05T11:50:29.805Z</time>
      </trkpt>
      <trkpt lat="43.0914580821991" lon="-0.7024383544921875">
        <ele>425.7543719438248</ele>
        <time>2021-08-05T11:50:42.429Z</time>
      </trkpt>
      <trkpt lat="43.09167265892029" lon="-0.7023847103118896">
        <ele>426.22495097827175</ele>
        <time>2021-08-05T11:50:55.056Z</time>
      </trkpt>
      <trkpt lat="43.09219837188721" lon="-0.7021808624267578">
        <ele>426.5377886443464</ele>
        <time>2021-08-05T11:51:07.692Z</time>
      </trkpt>
      <trkpt lat="43.09233784675598" lon="-0.7021594047546387">
        <ele>426.81283084654933</ele>
        <time>2021-08-05T11:51:20.330Z</time>
      </trkpt>
      <trkpt lat="43.09242367744446" lon="-0.7021808624267578">
        <ele>426.9891534003179</ele>
        <time>2021-08-05T11:51:32.970Z</time>
      </trkpt>
      <trkpt lat="43.092498779296875" lon="-0.7022666931152344">
        <ele>427.0894513164402</ele>
        <time>2021-08-05T11:51:45.611Z</time>
      </trkpt>
      <trkpt lat="43.09255242347717" lon="-0.7024061679840088">
        <ele>427.03894672474235</ele>
        <time>2021-08-05T11:51:58.254Z</time>
      </trkpt>
      <trkpt lat="43.09255242347717" lon="-0.7025778293609619">
        <ele>426.7655760098765</ele>
        <time>2021-08-05T11:52:10.899Z</time>
      </trkpt>
      <trkpt lat="43.09245594777167" lon="-0.703350305557251">
        <ele>426.50863731391183</ele>
        <time>2021-08-05T11:52:23.553Z</time>
      </trkpt>
      <trkpt lat="43.09245586395264" lon="-0.703350305557251">
        <ele>425.95309070304256</ele>
        <time>2021-08-05T11:52:36.207Z</time>
      </trkpt>
      <trkpt lat="43.09243440628052" lon="-0.7034897804260254">
        <ele>425.25454099284036</ele>
        <time>2021-08-05T11:52:48.863Z</time>
      </trkpt>
      <trkpt lat="43.0924129486084" lon="-0.704047679901123">
        <ele>424.45236154437015</ele>
        <time>2021-08-05T11:53:01.526Z</time>
      </trkpt>
      <trkpt lat="43.09282064437866" lon="-0.7041442394256592">
        <ele>423.4329285262845</ele>
        <time>2021-08-05T11:53:14.195Z</time>
      </trkpt>
      <trkpt lat="43.09313178062439" lon="-0.7041442394256592">
        <ele>422.28600817184815</ele>
        <time>2021-08-05T11:53:26.869Z</time>
      </trkpt>
      <trkpt lat="43.09406518936157" lon="-0.7040798664093018">
        <ele>420.9099337207786</ele>
        <time>2021-08-05T11:53:39.558Z</time>
      </trkpt>
      <trkpt lat="43.094279766082764" lon="-0.7042086124420166">
        <ele>419.46859179178205</ele>
        <time>2021-08-05T11:53:52.251Z</time>
      </trkpt>
      <trkpt lat="43.0948805809021" lon="-0.7048416137695312">
        <ele>417.8976891953478</ele>
        <time>2021-08-05T11:54:04.956Z</time>
      </trkpt>
      <trkpt lat="43.09497722424567" lon="-0.7048952579498291">
        <ele>416.0342251125751</ele>
        <time>2021-08-05T11:54:17.663Z</time>
      </trkpt>
      <trkpt lat="43.09506297111511" lon="-0.7049596309661865">
        <ele>414.0259816941108</ele>
        <time>2021-08-05T11:54:30.371Z</time>
      </trkpt>
      <trkpt lat="43.09536337852478" lon="-0.705024003982544">
        <ele>411.8806435081648</ele>
        <time>2021-08-05T11:54:43.084Z</time>
      </trkpt>
      <trkpt lat="43.095535123720765" lon="-0.7051205635070801">
        <ele>409.61161030048964</ele>
        <time>2021-08-05T11:54:55.800Z</time>
      </trkpt>
      <trkpt lat="43.09561014175415" lon="-0.7063329219818115">
        <ele>406.78381240238946</ele>
        <time>2021-08-05T11:55:08.530Z</time>
      </trkpt>
      <trkpt lat="43.095738887786865" lon="-0.7072126865386963">
        <ele>403.9990278046155</ele>
        <time>2021-08-05T11:55:21.271Z</time>
      </trkpt>
      <trkpt lat="43.0958354473114" lon="-0.7077062129974365">
        <ele>401.1393778147082</ele>
        <time>2021-08-05T11:55:34.018Z</time>
      </trkpt>
      <trkpt lat="43.09611439704895" lon="-0.7085645198822021">
        <ele>398.01068433549256</ele>
        <time>2021-08-05T11:55:46.776Z</time>
      </trkpt>
      <trkpt lat="43.0962432269007" lon="-0.7092082500457764">
        <ele>395.03812358399813</ele>
        <time>2021-08-05T11:55:59.542Z</time>
      </trkpt>
      <trkpt lat="43.096275329589844" lon="-0.7094335556030273">
        <ele>392.10842491689715</ele>
        <time>2021-08-05T11:56:12.310Z</time>
      </trkpt>
      <trkpt lat="43.096253871917725" lon="-0.709540843963623">
        <ele>389.13006769668084</ele>
        <time>2021-08-05T11:56:25.080Z</time>
      </trkpt>
      <trkpt lat="43.09606075286865" lon="-0.70961594581604">
        <ele>385.9940972291754</ele>
        <time>2021-08-05T11:56:37.853Z</time>
      </trkpt>
      <trkpt lat="43.09579253196716" lon="-0.7094120979309082">
        <ele>382.8887202792107</ele>
        <time>2021-08-05T11:56:50.631Z</time>
      </trkpt>
      <trkpt lat="43.0957818031311" lon="-0.7095301151275635">
        <ele>379.78483176812017</ele>
        <time>2021-08-05T11:57:03.410Z</time>
      </trkpt>
      <trkpt lat="43.09579253196716" lon="-0.7098197937011719">
        <ele>376.56063976062524</ele>
        <time>2021-08-05T11:57:16.193Z</time>
      </trkpt>
      <trkpt lat="43.09592127799988" lon="-0.7101845741271973">
        <ele>373.5320587179146</ele>
        <time>2021-08-05T11:57:28.980Z</time>
      </trkpt>
      <trkpt lat="43.09591054916382" lon="-0.7103240489959717">
        <ele>370.4721852720188</ele>
        <time>2021-08-05T11:57:41.769Z</time>
      </trkpt>
      <trkpt lat="43.095749616622925" lon="-0.7105278968811035">
        <ele>367.28132217130286</ele>
        <time>2021-08-05T11:57:54.562Z</time>
      </trkpt>
      <trkpt lat="43.095728158950806" lon="-0.7111072540283203">
        <ele>364.12790295700427</ele>
        <time>2021-08-05T11:58:07.361Z</time>
      </trkpt>
      <trkpt lat="43.09564232826233" lon="-0.7119333744049072">
        <ele>361.076033228916</ele>
        <time>2021-08-05T11:58:20.170Z</time>
      </trkpt>
      <trkpt lat="43.09561014175415" lon="-0.7120728492736816">
        <ele>358.1992884022501</ele>
        <time>2021-08-05T11:58:32.981Z</time>
      </trkpt>
      <trkpt lat="43.095513582229614" lon="-0.7123303413391113">
        <ele>355.34364568543356</ele>
        <time>2021-08-05T11:58:45.795Z</time>
      </trkpt>
      <trkpt lat="43.0952347163111" lon="-0.7127916812896729">
        <ele>352.3855135457226</ele>
        <time>2021-08-05T11:58:58.616Z</time>
      </trkpt>
      <trkpt lat="43.095234632492065" lon="-0.7127916812896729">
        <ele>349.76575771548676</ele>
        <time>2021-08-05T11:59:11.437Z</time>
      </trkpt>
      <trkpt lat="43.09508442878723" lon="-0.7130277156829834">
        <ele>347.14679030175165</ele>
        <time>2021-08-05T11:59:24.262Z</time>
      </trkpt>
      <trkpt lat="43.09495568275452" lon="-0.7133603096008301">
        <ele>344.6070874885228</ele>
        <time>2021-08-05T11:59:37.091Z</time>
      </trkpt>
      <trkpt lat="43.09492349624634" lon="-0.7135534286499023">
        <ele>342.2085677305024</ele>
        <time>2021-08-05T11:59:49.923Z</time>
      </trkpt>
      <trkpt lat="43.09495576657355" lon="-0.7137143611907959">
        <ele>339.96866650137656</ele>
        <time>2021-08-05T12:00:02.757Z</time>
      </trkpt>
      <trkpt lat="43.095020055770874" lon="-0.7138752937316895">
        <ele>337.82367959254975</ele>
        <time>2021-08-05T12:00:15.593Z</time>
      </trkpt>
      <trkpt lat="43.09517025947571" lon="-0.714111328125">
        <ele>335.8278198187232</ele>
        <time>2021-08-05T12:00:28.432Z</time>
      </trkpt>
      <trkpt lat="43.09522398747504" lon="-0.7143151760101318">
        <ele>333.8315873922277</ele>
        <time>2021-08-05T12:00:41.274Z</time>
      </trkpt>
      <trkpt lat="43.095223903656006" lon="-0.7143151760101318">
        <ele>332.0124583087887</ele>
        <time>2021-08-05T12:00:54.116Z</time>
      </trkpt>
      <trkpt lat="43.095234632492065" lon="-0.7144761085510254">
        <ele>330.2052912624123</ele>
        <time>2021-08-05T12:01:06.960Z</time>
      </trkpt>
      <trkpt lat="43.09522398747504" lon="-0.7147336006164551">
        <ele>328.4325236024579</ele>
        <time>2021-08-05T12:01:19.807Z</time>
      </trkpt>
      <trkpt lat="43.095213174819946" lon="-0.7147872447967529">
        <ele>326.8795532583455</ele>
        <time>2021-08-05T12:01:32.655Z</time>
      </trkpt>
      <trkpt lat="43.09520244598389" lon="-0.7149481773376465">
        <ele>325.45496216592375</ele>
        <time>2021-08-05T12:01:45.504Z</time>
      </trkpt>
      <trkpt lat="43.09514888562262" lon="-0.7153666019439697">
        <ele>324.13684711031203</ele>
        <time>2021-08-05T12:01:58.358Z</time>
      </trkpt>
      <trkpt lat="43.09511669911444" lon="-0.7155919075012207">
        <ele>322.9710006619782</ele>
        <time>2021-08-05T12:02:11.215Z</time>
      </trkpt>
      <trkpt lat="43.095073783770204" lon="-0.7159888744354248">
        <ele>321.8979312799072</ele>
        <time>2021-08-05T12:02:24.077Z</time>
      </trkpt>
      <trkpt lat="43.09506297111511" lon="-0.7163214683532715">
        <ele>320.8724315848343</ele>
        <time>2021-08-05T12:02:36.943Z</time>
      </trkpt>
      <trkpt lat="43.09511661529541" lon="-0.7164287567138672">
        <ele>319.9158699563517</ele>
        <time>2021-08-05T12:02:49.810Z</time>
      </trkpt>
      <trkpt lat="43.09514880180359" lon="-0.7164609432220459">
        <ele>319.0541402028292</ele>
        <time>2021-08-05T12:03:02.678Z</time>
      </trkpt>
      <trkpt lat="43.0953311920166" lon="-0.7165038585662842">
        <ele>318.24949782519934</ele>
        <time>2021-08-05T12:03:15.549Z</time>
      </trkpt>
      <trkpt lat="43.09539556503296" lon="-0.7165682315826416">
        <ele>317.5311874983564</ele>
        <time>2021-08-05T12:03:28.421Z</time>
      </trkpt>
      <trkpt lat="43.0954384803772" lon="-0.716632604598999">
        <ele>316.88079480895516</ele>
        <time>2021-08-05T12:03:41.294Z</time>
      </trkpt>
      <trkpt lat="43.09557795524597" lon="-0.7170295715332031">
        <ele>316.2734636610881</ele>
        <time>2021-08-05T12:03:54.172Z</time>
      </trkpt>
      <trkpt lat="43.09557795524597" lon="-0.7171368598937988">
        <ele>315.72871466407975</ele>
        <time>2021-08-05T12:04:07.052Z</time>
      </trkpt>
      <trkpt lat="43.095567310228944" lon="-0.7172119617462158">
        <ele>315.2395141851356</ele>
        <time>2021-08-05T12:04:19.932Z</time>
      </trkpt>
      <trkpt lat="43.0953848361969" lon="-0.7177269458770752">
        <ele>314.7962702213374</ele>
        <time>2021-08-05T12:04:32.819Z</time>
      </trkpt>
      <trkpt lat="43.09537419117987" lon="-0.7178127765655518">
        <ele>314.3898704168109</ele>
        <time>2021-08-05T12:04:45.707Z</time>
      </trkpt>
      <trkpt lat="43.09537410736084" lon="-0.7178986072540283">
        <ele>314.0169229802092</ele>
        <time>2021-08-05T12:04:58.596Z</time>
      </trkpt>
      <trkpt lat="43.09541702270508" lon="-0.7180595397949219">
        <ele>313.6849147791389</ele>
        <time>2021-08-05T12:05:11.487Z</time>
      </trkpt>
      <trkpt lat="43.09557795524597" lon="-0.7185530662536621">
        <ele>313.38002844844823</ele>
        <time>2021-08-05T12:05:24.385Z</time>
      </trkpt>
      <trkpt lat="43.09587836265564" lon="-0.7191216945648193">
        <ele>313.0515213985782</ele>
        <time>2021-08-05T12:05:37.291Z</time>
      </trkpt>
      <trkpt lat="43.095964193344116" lon="-0.719228982925415">
        <ele>312.76010888968034</ele>
        <time>2021-08-05T12:05:50.199Z</time>
      </trkpt>
      <trkpt lat="43.09611448086798" lon="-0.7193684577941895">
        <ele>312.48909516478136</ele>
        <time>2021-08-05T12:06:03.110Z</time>
      </trkpt>
      <trkpt lat="43.096296871080995" lon="-0.7195186614990234">
        <ele>312.22332470290485</ele>
        <time>2021-08-05T12:06:16.024Z</time>
      </trkpt>
      <trkpt lat="43.09686541557312" lon="-0.7199370861053467">
        <ele>311.9549046347138</ele>
        <time>2021-08-05T12:06:28.948Z</time>
      </trkpt>
      <trkpt lat="43.096961975097656" lon="-0.720055103302002">
        <ele>311.717487663274</ele>
        <time>2021-08-05T12:06:41.874Z</time>
      </trkpt>
      <trkpt lat="43.097208738327026" lon="-0.7204091548919678">
        <ele>311.46305157140677</ele>
        <time>2021-08-05T12:06:54.806Z</time>
      </trkpt>
      <trkpt lat="43.097305381670594" lon="-0.7205915451049805">
        <ele>311.2309495508214</ele>
        <time>2021-08-05T12:07:07.741Z</time>
      </trkpt>
      <trkpt lat="43.09738048352301" lon="-0.7208383083343506">
        <ele>311.00264976676146</ele>
        <time>2021-08-05T12:07:20.679Z</time>
      </trkpt>
      <trkpt lat="43.09736967086792" lon="-0.721052885055542">
        <ele>310.76039172025685</ele>
        <time>2021-08-05T12:07:33.619Z</time>
      </trkpt>
      <trkpt lat="43.0973482131958" lon="-0.7214176654815674">
        <ele>310.5172930771595</ele>
        <time>2021-08-05T12:07:46.564Z</time>
      </trkpt>
      <trkpt lat="43.09735894203186" lon="-0.7216429710388184">
        <ele>310.307476515638</ele>
        <time>2021-08-05T12:07:59.511Z</time>
      </trkpt>
      <trkpt lat="43.09744477272034" lon="-0.721825361251831">
        <ele>310.1015503321768</ele>
        <time>2021-08-05T12:08:12.461Z</time>
      </trkpt>
      <trkpt lat="43.09757351875305" lon="-0.7219326496124268">
        <ele>309.879743190588</ele>
        <time>2021-08-05T12:08:25.413Z</time>
      </trkpt>
      <trkpt lat="43.09784182347357" lon="-0.7219970226287842">
        <ele>309.6453030251921</ele>
        <time>2021-08-05T12:08:38.370Z</time>
      </trkpt>
      <trkpt lat="43.09834607876837" lon="-0.7222223281860352">
        <ele>309.3559893970527</ele>
        <time>2021-08-05T12:08:51.335Z</time>
      </trkpt>
      <trkpt lat="43.09918292798102" lon="-0.7229304313659668">
        <ele>308.9356107523399</ele>
        <time>2021-08-05T12:09:04.316Z</time>
      </trkpt>
      <trkpt lat="43.09918284416199" lon="-0.7229304313659668">
        <ele>308.67401261455245</ele>
        <time>2021-08-05T12:09:17.297Z</time>
      </trkpt>
      <trkpt lat="43.09968709945679" lon="-0.723423957824707">
        <ele>308.3360076584919</ele>
        <time>2021-08-05T12:09:30.288Z</time>
      </trkpt>
      <trkpt lat="43.10010560788214" lon="-0.7241106033325195">
        <ele>308.04747251202855</ele>
        <time>2021-08-05T12:09:43.289Z</time>
      </trkpt>
      <trkpt lat="43.10038447380066" lon="-0.7244002819061279">
        <ele>307.7597253041448</ele>
        <time>2021-08-05T12:09:56.296Z</time>
      </trkpt>
      <trkpt lat="43.100502490997314" lon="-0.724571943283081">
        <ele>307.520885548533</ele>
        <time>2021-08-05T12:10:09.306Z</time>
      </trkpt>
      <trkpt lat="43.10091027058661" lon="-0.7256340980529785">
        <ele>307.23950005417333</ele>
        <time>2021-08-05T12:10:22.330Z</time>
      </trkpt>
      <trkpt lat="43.10091018676758" lon="-0.7256340980529785">
        <ele>306.9858856824802</ele>
        <time>2021-08-05T12:10:35.354Z</time>
      </trkpt>
      <trkpt lat="43.10160756111145" lon="-0.7272219657897949">
        <ele>306.59960036481596</ele>
        <time>2021-08-05T12:10:48.399Z</time>
      </trkpt>
      <trkpt lat="43.10210108757019" lon="-0.7280588150024414">
        <ele>306.3258019477248</ele>
        <time>2021-08-05T12:11:01.457Z</time>
      </trkpt>
      <trkpt lat="43.102272748947144" lon="-0.7284557819366455">
        <ele>306.0848615208589</ele>
        <time>2021-08-05T12:11:14.520Z</time>
      </trkpt>
      <trkpt lat="43.10256242752075" lon="-0.7294642925262451">
        <ele>305.8484425409639</ele>
        <time>2021-08-05T12:11:27.596Z</time>
      </trkpt>
      <trkpt lat="43.1028413772583" lon="-0.7300221920013428">
        <ele>305.62709397403376</ele>
        <time>2021-08-05T12:11:40.680Z</time>
      </trkpt>
      <trkpt lat="43.10341000556946" lon="-0.7310092449188232">
        <ele>305.46988010519283</ele>
        <time>2021-08-05T12:11:53.779Z</time>
      </trkpt>
      <trkpt lat="43.10361385345459" lon="-0.7312774658203125">
        <ele>305.30436792540684</ele>
        <time>2021-08-05T12:12:06.882Z</time>
      </trkpt>
      <trkpt lat="43.10404300689697" lon="-0.7317066192626953">
        <ele>305.0851913766271</ele>
        <time>2021-08-05T12:12:19.994Z</time>
      </trkpt>
      <trkpt lat="43.104515075683594" lon="-0.7323074340820312">
        <ele>305.03881424993995</ele>
        <time>2021-08-05T12:12:33.116Z</time>
      </trkpt>
      <trkpt lat="43.10490131378174" lon="-0.7326936721801758">
        <ele>304.9198640242008</ele>
        <time>2021-08-05T12:12:46.246Z</time>
      </trkpt>
      <trkpt lat="43.10519107617438" lon="-0.733036994934082">
        <ele>304.8199934119252</ele>
        <time>2021-08-05T12:12:59.382Z</time>
      </trkpt>
      <trkpt lat="43.10519099235535" lon="-0.733036994934082">
        <ele>304.75212219180185</ele>
        <time>2021-08-05T12:13:12.518Z</time>
      </trkpt>
      <trkpt lat="43.10590982437134" lon="-0.7339596748352051">
        <ele>304.671516418102</ele>
        <time>2021-08-05T12:13:25.670Z</time>
      </trkpt>
      <trkpt lat="43.10641407966614" lon="-0.7344532012939453">
        <ele>304.5606674820531</ele>
        <time>2021-08-05T12:13:38.832Z</time>
      </trkpt>
      <trkpt lat="43.10693987645209" lon="-0.7348179817199707">
        <ele>304.5756528339226</ele>
        <time>2021-08-05T12:13:52.003Z</time>
      </trkpt>
      <trkpt lat="43.10759425163269" lon="-0.735161304473877">
        <ele>304.4402647075902</ele>
        <time>2021-08-05T12:14:05.185Z</time>
      </trkpt>
      <trkpt lat="43.108506202697754" lon="-0.7354938983917236">
        <ele>304.5200872181192</ele>
        <time>2021-08-05T12:14:18.382Z</time>
      </trkpt>
      <trkpt lat="43.10890316963196" lon="-0.7355690002441406">
        <ele>304.612989850389</ele>
        <time>2021-08-05T12:14:31.586Z</time>
      </trkpt>
      <trkpt lat="43.109504068270326" lon="-0.7356011867523193">
        <ele>304.8448823048788</ele>
        <time>2021-08-05T12:14:44.799Z</time>
      </trkpt>
      <trkpt lat="43.109503984451294" lon="-0.7356011867523193">
        <ele>304.92224818588096</ele>
        <time>2021-08-05T12:14:58.012Z</time>
      </trkpt>
      <trkpt lat="43.110201358795166" lon="-0.735633373260498">
        <ele>305.2782724010427</ele>
        <time>2021-08-05T12:15:11.237Z</time>
      </trkpt>
      <trkpt lat="43.11162829399109" lon="-0.7357513904571533">
        <ele>305.26073650712055</ele>
        <time>2021-08-05T12:15:24.484Z</time>
      </trkpt>
      <trkpt lat="43.111960887908936" lon="-0.7358050346374512">
        <ele>305.45760025212303</ele>
        <time>2021-08-05T12:15:37.737Z</time>
      </trkpt>
      <trkpt lat="43.11207890510559" lon="-0.735858678817749">
        <ele>305.5904774950534</ele>
        <time>2021-08-05T12:15:50.992Z</time>
      </trkpt>
      <trkpt lat="43.112229108810425" lon="-0.7359445095062256">
        <ele>305.73590671578074</ele>
        <time>2021-08-05T12:16:04.249Z</time>
      </trkpt>
      <trkpt lat="43.11232566833496" lon="-0.7360303401947021">
        <ele>305.8752106643622</ele>
        <time>2021-08-05T12:16:17.508Z</time>
      </trkpt>
      <trkpt lat="43.112465143203735" lon="-0.7361698150634766">
        <ele>306.02564229731354</ele>
        <time>2021-08-05T12:16:30.770Z</time>
      </trkpt>
      <trkpt lat="43.11285146512091" lon="-0.7367062568664551">
        <ele>306.1327573330713</ele>
        <time>2021-08-05T12:16:44.041Z</time>
      </trkpt>
      <trkpt lat="43.11354875564575" lon="-0.7376933097839355">
        <ele>306.11059531429294</ele>
        <time>2021-08-05T12:16:57.328Z</time>
      </trkpt>
      <trkpt lat="43.113462924957275" lon="-0.7378220558166504">
        <ele>306.2148454038162</ele>
        <time>2021-08-05T12:17:10.617Z</time>
      </trkpt>
      <trkpt lat="43.11342000961304" lon="-0.7379400730133057">
        <ele>306.29728089095283</ele>
        <time>2021-08-05T12:17:23.907Z</time>
      </trkpt>
      <trkpt lat="43.11338782310486" lon="-0.7380366325378418">
        <ele>306.3761155670489</ele>
        <time>2021-08-05T12:17:37.199Z</time>
      </trkpt>
      <trkpt lat="43.11335563659668" lon="-0.7382619380950928">
        <ele>306.4552919556704</ele>
        <time>2021-08-05T12:17:50.493Z</time>
      </trkpt>
      <trkpt lat="43.11336636543274" lon="-0.738605260848999">
        <ele>306.50181830062706</ele>
        <time>2021-08-05T12:18:03.791Z</time>
      </trkpt>
      <trkpt lat="43.11343082226813" lon="-0.7395064830780029">
        <ele>306.61879650071444</ele>
        <time>2021-08-05T12:18:17.100Z</time>
      </trkpt>
      <trkpt lat="43.1134307384491" lon="-0.7395064830780029">
        <ele>306.70891924745735</ele>
        <time>2021-08-05T12:18:30.409Z</time>
      </trkpt>
      <trkpt lat="43.113484382629395" lon="-0.7403004169464111">
        <ele>306.90182950114945</ele>
        <time>2021-08-05T12:18:43.727Z</time>
      </trkpt>
      <trkpt lat="43.11354875564575" lon="-0.740654468536377">
        <ele>306.96911796251936</ele>
        <time>2021-08-05T12:18:57.050Z</time>
      </trkpt>
      <trkpt lat="43.11366677284241" lon="-0.7411372661590576">
        <ele>307.0526421386695</ele>
        <time>2021-08-05T12:19:10.379Z</time>
      </trkpt>
      <trkpt lat="43.113709688186646" lon="-0.7414591312408447">
        <ele>307.08855935327654</ele>
        <time>2021-08-05T12:19:23.711Z</time>
      </trkpt>
      <trkpt lat="43.113688230514526" lon="-0.7417809963226318">
        <ele>307.176286600413</ele>
        <time>2021-08-05T12:19:37.047Z</time>
      </trkpt>
      <trkpt lat="43.113452196121216" lon="-0.742650032043457">
        <ele>307.3942603995006</ele>
        <time>2021-08-05T12:19:50.394Z</time>
      </trkpt>
      <trkpt lat="43.112990856170654" lon="-0.7441949844360352">
        <ele>307.60506098382376</ele>
        <time>2021-08-05T12:20:03.761Z</time>
      </trkpt>
      <trkpt lat="43.11261534690857" lon="-0.745697021484375">
        <ele>307.3966753271627</ele>
        <time>2021-08-05T12:20:17.146Z</time>
      </trkpt>
      <trkpt lat="43.11239004135132" lon="-0.7464480400085449">
        <ele>307.6884333035471</ele>
        <time>2021-08-05T12:20:30.541Z</time>
      </trkpt>
      <trkpt lat="43.11230421066284" lon="-0.7471776008605957">
        <ele>307.5402836897649</ele>
        <time>2021-08-05T12:20:43.944Z</time>
      </trkpt>
      <trkpt lat="43.11234720982611" lon="-0.7478320598602295">
        <ele>307.6337932882279</ele>
        <time>2021-08-05T12:20:57.355Z</time>
      </trkpt>
      <trkpt lat="43.11234712600708" lon="-0.7478320598602295">
        <ele>307.932655683332</ele>
        <time>2021-08-05T12:21:10.766Z</time>
      </trkpt>
      <trkpt lat="43.11265826225281" lon="-0.7492697238922119">
        <ele>308.20165038479456</ele>
        <time>2021-08-05T12:21:24.195Z</time>
      </trkpt>
      <trkpt lat="43.112744092941284" lon="-0.7501602172851562">
        <ele>308.6222097633125</ele>
        <time>2021-08-05T12:21:37.634Z</time>
      </trkpt>
      <trkpt lat="43.112733447924256" lon="-0.7515549659729004">
        <ele>309.1493621022007</ele>
        <time>2021-08-05T12:21:51.090Z</time>
      </trkpt>
      <trkpt lat="43.112711906433105" lon="-0.7526063919067383">
        <ele>309.53955132418105</ele>
        <time>2021-08-05T12:22:04.558Z</time>
      </trkpt>
      <trkpt lat="43.112722635269165" lon="-0.7550525665283203">
        <ele>310.7100445668177</ele>
        <time>2021-08-05T12:22:18.055Z</time>
      </trkpt>
      <trkpt lat="43.112711906433105" lon="-0.7556748390197754">
        <ele>311.28105514376045</ele>
        <time>2021-08-05T12:22:31.559Z</time>
      </trkpt>
      <trkpt lat="43.11264753341675" lon="-0.7561469078063965">
        <ele>311.8456780769826</ele>
        <time>2021-08-05T12:22:45.068Z</time>
      </trkpt>
      <trkpt lat="43.11245449818671" lon="-0.7570910453796387">
        <ele>312.43190674638123</ele>
        <time>2021-08-05T12:22:58.589Z</time>
      </trkpt>
      <trkpt lat="43.11235785484314" lon="-0.7575953006744385">
        <ele>312.991268343957</ele>
        <time>2021-08-05T12:23:12.116Z</time>
      </trkpt>
      <trkpt lat="43.11234720982611" lon="-0.7578635215759277">
        <ele>313.5009824614936</ele>
        <time>2021-08-05T12:23:25.646Z</time>
      </trkpt>
      <trkpt lat="43.11237939633429" lon="-0.7580459117889404">
        <ele>313.9837063775221</ele>
        <time>2021-08-05T12:23:39.178Z</time>
      </trkpt>
      <trkpt lat="43.112454414367676" lon="-0.7583248615264893">
        <ele>314.4611263929531</ele>
        <time>2021-08-05T12:23:52.714Z</time>
      </trkpt>
      <trkpt lat="43.1125617865473" lon="-0.7585287094116211">
        <ele>314.90801206311704</ele>
        <time>2021-08-05T12:24:06.253Z</time>
      </trkpt>
      <trkpt lat="43.11288365162909" lon="-0.7588720321655273">
        <ele>315.27093132975403</ele>
        <time>2021-08-05T12:24:19.798Z</time>
      </trkpt>
      <trkpt lat="43.11293729580939" lon="-0.7589256763458252">
        <ele>315.6518266479774</ele>
        <time>2021-08-05T12:24:33.344Z</time>
      </trkpt>
      <trkpt lat="43.113205432891846" lon="-0.7591831684112549">
        <ele>315.9879887422003</ele>
        <time>2021-08-05T12:24:46.896Z</time>
      </trkpt>
      <trkpt lat="43.11328053474426" lon="-0.7593011856079102">
        <ele>316.32279732907523</ele>
        <time>2021-08-05T12:25:00.450Z</time>
      </trkpt>
      <trkpt lat="43.11334490776062" lon="-0.7594835758209229">
        <ele>316.63524096124195</ele>
        <time>2021-08-05T12:25:14.006Z</time>
      </trkpt>
      <trkpt lat="43.11335572041571" lon="-0.75980544090271">
        <ele>316.92178781913924</ele>
        <time>2021-08-05T12:25:27.566Z</time>
      </trkpt>
      <trkpt lat="43.113259077072144" lon="-0.7603633403778076">
        <ele>317.2956113541818</ele>
        <time>2021-08-05T12:25:41.132Z</time>
      </trkpt>
      <trkpt lat="43.113237619400024" lon="-0.7605886459350586">
        <ele>317.59108566991017</ele>
        <time>2021-08-05T12:25:54.701Z</time>
      </trkpt>
      <trkpt lat="43.113248432055116" lon="-0.7616829872131348">
        <ele>317.83358448920137</ele>
        <time>2021-08-05T12:26:08.283Z</time>
      </trkpt>
      <trkpt lat="43.113248348236084" lon="-0.7620906829833984">
        <ele>318.1085892572586</ele>
        <time>2021-08-05T12:26:21.870Z</time>
      </trkpt>
      <trkpt lat="43.1132698059082" lon="-0.7624232769012451">
        <ele>318.3571328296357</ele>
        <time>2021-08-05T12:26:35.461Z</time>
      </trkpt>
      <trkpt lat="43.1132698059082" lon="-0.7626056671142578">
        <ele>318.52777862763446</ele>
        <time>2021-08-05T12:26:49.054Z</time>
      </trkpt>
      <trkpt lat="43.11315178871155" lon="-0.7635390758514404">
        <ele>318.58284216428854</ele>
        <time>2021-08-05T12:27:02.658Z</time>
      </trkpt>
      <trkpt lat="43.11314105987549" lon="-0.7639682292938232">
        <ele>318.6963568095781</ele>
        <time>2021-08-05T12:27:16.267Z</time>
      </trkpt>
      <trkpt lat="43.11317324638367" lon="-0.7640540599822998">
        <ele>318.82217070667696</ele>
        <time>2021-08-05T12:27:29.877Z</time>
      </trkpt>
      <trkpt lat="43.11315178871155" lon="-0.7641291618347168">
        <ele>318.9463312726499</ele>
        <time>2021-08-05T12:27:43.488Z</time>
      </trkpt>
      <trkpt lat="43.11310887336731" lon="-0.7641828060150146">
        <ele>319.0675291600342</ele>
        <time>2021-08-05T12:27:57.100Z</time>
      </trkpt>
      <trkpt lat="43.11308741569519" lon="-0.7641935348510742">
        <ele>319.18313460642923</ele>
        <time>2021-08-05T12:28:10.712Z</time>
      </trkpt>
      <trkpt lat="43.112969398498535" lon="-0.7644188404083252">
        <ele>319.3128631352952</ele>
        <time>2021-08-05T12:28:24.327Z</time>
      </trkpt>
      <trkpt lat="43.11215409077704" lon="-0.7673048973083496">
        <ele>319.42037968780664</ele>
        <time>2021-08-05T12:28:37.979Z</time>
      </trkpt>
      <trkpt lat="43.11215400695801" lon="-0.7673048973083496">
        <ele>319.54636737271096</ele>
        <time>2021-08-05T12:28:51.631Z</time>
      </trkpt>
      <trkpt lat="43.11182141304016" lon="-0.7689571380615234">
        <ele>319.6996346944413</ele>
        <time>2021-08-05T12:29:05.303Z</time>
      </trkpt>
      <trkpt lat="43.11168193817139" lon="-0.7693862915039062">
        <ele>319.8556503407116</ele>
        <time>2021-08-05T12:29:18.980Z</time>
      </trkpt>
      <trkpt lat="43.111478090286255" lon="-0.7698369026184082">
        <ele>319.9867127046208</ele>
        <time>2021-08-05T12:29:32.663Z</time>
      </trkpt>
      <trkpt lat="43.11131715774536" lon="-0.7700622081756592">
        <ele>320.1443419044598</ele>
        <time>2021-08-05T12:29:46.350Z</time>
      </trkpt>
      <trkpt lat="43.111231327056885" lon="-0.7701373100280762">
        <ele>320.3526209756685</ele>
        <time>2021-08-05T12:30:00.039Z</time>
      </trkpt>
      <trkpt lat="43.11103820800781" lon="-0.7702553272247314">
        <ele>320.5797043410788</ele>
        <time>2021-08-05T12:30:13.731Z</time>
      </trkpt>
      <trkpt lat="43.11061978340149" lon="-0.770416259765625">
        <ele>320.92602081015195</ele>
        <time>2021-08-05T12:30:27.430Z</time>
      </trkpt>
      <trkpt lat="43.11042666435242" lon="-0.7705450057983398">
        <ele>321.25595287385727</ele>
        <time>2021-08-05T12:30:41.133Z</time>
      </trkpt>
      <trkpt lat="43.11030864715576" lon="-0.7707059383392334">
        <ele>321.59103429096916</ele>
        <time>2021-08-05T12:30:54.838Z</time>
      </trkpt>
      <trkpt lat="43.110255086794496" lon="-0.7708346843719482">
        <ele>321.9832501684746</ele>
        <time>2021-08-05T12:31:08.545Z</time>
      </trkpt>
      <trkpt lat="43.110244357958436" lon="-0.770941972732544">
        <ele>322.4235736356464</ele>
        <time>2021-08-05T12:31:22.253Z</time>
      </trkpt>
      <trkpt lat="43.110255086794496" lon="-0.7712209224700928">
        <ele>322.8736081117636</ele>
        <time>2021-08-05T12:31:35.965Z</time>
      </trkpt>
      <trkpt lat="43.110276544466615" lon="-0.7718431949615479">
        <ele>323.42737007376024</ele>
        <time>2021-08-05T12:31:49.684Z</time>
      </trkpt>
      <trkpt lat="43.11027646064758" lon="-0.7721972465515137">
        <ele>324.0918610919132</ele>
        <time>2021-08-05T12:32:03.407Z</time>
      </trkpt>
      <trkpt lat="43.11041601933539" lon="-0.7760274410247803">
        <ele>324.78536151341126</ele>
        <time>2021-08-05T12:32:17.175Z</time>
      </trkpt>
      <trkpt lat="43.11042674817145" lon="-0.7765531539916992">
        <ele>325.672934039848</ele>
        <time>2021-08-05T12:32:30.949Z</time>
      </trkpt>
      <trkpt lat="43.11044820584357" lon="-0.777057409286499">
        <ele>326.67352563841723</ele>
        <time>2021-08-05T12:32:44.729Z</time>
      </trkpt>
      <trkpt lat="43.11044820584357" lon="-0.7772290706634521">
        <ele>327.5562593582922</ele>
        <time>2021-08-05T12:32:58.511Z</time>
      </trkpt>
      <trkpt lat="43.110480308532715" lon="-0.7781517505645752">
        <ele>328.56459707178533</ele>
        <time>2021-08-05T12:33:12.304Z</time>
      </trkpt>
      <trkpt lat="43.11056613922119" lon="-0.7784843444824219">
        <ele>329.5632205854474</ele>
        <time>2021-08-05T12:33:26.101Z</time>
      </trkpt>
      <trkpt lat="43.111006021499634" lon="-0.7797718048095703">
        <ele>330.63858902452347</ele>
        <time>2021-08-05T12:33:39.915Z</time>
      </trkpt>
      <trkpt lat="43.111445903778076" lon="-0.781177282333374">
        <ele>331.9097649169802</ele>
        <time>2021-08-05T12:33:53.747Z</time>
      </trkpt>
      <trkpt lat="43.11154246330261" lon="-0.781552791595459">
        <ele>332.9152311830667</ele>
        <time>2021-08-05T12:34:07.583Z</time>
      </trkpt>
      <trkpt lat="43.11158537864685" lon="-0.7819712162017822">
        <ele>333.98142889243024</ele>
        <time>2021-08-05T12:34:21.424Z</time>
      </trkpt>
      <trkpt lat="43.111553275957704" lon="-0.7827866077423096">
        <ele>335.01482559838723</ele>
        <time>2021-08-05T12:34:35.275Z</time>
      </trkpt>
      <trkpt lat="43.111553275957704" lon="-0.7829904556274414">
        <ele>336.0689122706342</ele>
        <time>2021-08-05T12:34:49.128Z</time>
      </trkpt>
      <trkpt lat="43.111510276794434" lon="-0.7838916778564453">
        <ele>336.75985180005705</ele>
        <time>2021-08-05T12:35:02.992Z</time>
      </trkpt>
      <trkpt lat="43.11143517494202" lon="-0.7841598987579346">
        <ele>338.0086281165367</ele>
        <time>2021-08-05T12:35:16.859Z</time>
      </trkpt>
      <trkpt lat="43.111263597384095" lon="-0.7844388484954834">
        <ele>339.3448838935517</ele>
        <time>2021-08-05T12:35:30.730Z</time>
      </trkpt>
      <trkpt lat="43.1111563090235" lon="-0.7845890522003174">
        <ele>340.631136571409</ele>
        <time>2021-08-05T12:35:44.604Z</time>
      </trkpt>
      <trkpt lat="43.110984563827515" lon="-0.7848894596099854">
        <ele>341.9431491183848</ele>
        <time>2021-08-05T12:35:58.482Z</time>
      </trkpt>
      <trkpt lat="43.1109094619751" lon="-0.7851147651672363">
        <ele>343.30283778734736</ele>
        <time>2021-08-05T12:36:12.363Z</time>
      </trkpt>
      <trkpt lat="43.11079144477844" lon="-0.7862520217895508">
        <ele>345.10099881940675</ele>
        <time>2021-08-05T12:36:26.258Z</time>
      </trkpt>
      <trkpt lat="43.110716342926025" lon="-0.7866168022155762">
        <ele>346.43927897614935</ele>
        <time>2021-08-05T12:36:40.157Z</time>
      </trkpt>
      <trkpt lat="43.11037302017212" lon="-0.7876253128051758">
        <ele>347.76360572734984</ele>
        <time>2021-08-05T12:36:54.069Z</time>
      </trkpt>
      <trkpt lat="43.110212087631226" lon="-0.7880115509033203">
        <ele>349.29198629532164</ele>
        <time>2021-08-05T12:37:07.986Z</time>
      </trkpt>
      <trkpt lat="43.1096971873194" lon="-0.7887411117553711">
        <ele>350.49667183539395</ele>
        <time>2021-08-05T12:37:21.915Z</time>
      </trkpt>
      <trkpt lat="43.10958981513977" lon="-0.7888913154602051">
        <ele>351.75397533322916</ele>
        <time>2021-08-05T12:37:35.847Z</time>
      </trkpt>
      <trkpt lat="43.10936450958252" lon="-0.7890629768371582">
        <ele>352.9310142906721</ele>
        <time>2021-08-05T12:37:49.783Z</time>
      </trkpt>
      <trkpt lat="43.10879588127136" lon="-0.7894062995910645">
        <ele>354.0824189125288</ele>
        <time>2021-08-05T12:38:03.729Z</time>
      </trkpt>
      <trkpt lat="43.10829162597656" lon="-0.789867639541626">
        <ele>355.4767799695255</ele>
        <time>2021-08-05T12:38:17.684Z</time>
      </trkpt>
      <trkpt lat="43.10779809951782" lon="-0.7903718948364258">
        <ele>356.7775856165672</ele>
        <time>2021-08-05T12:38:31.649Z</time>
      </trkpt>
      <trkpt lat="43.10758352279663" lon="-0.790715217590332">
        <ele>357.8992181282232</ele>
        <time>2021-08-05T12:38:45.620Z</time>
      </trkpt>
      <trkpt lat="43.107208013534546" lon="-0.7914769649505615">
        <ele>359.1656062853759</ele>
        <time>2021-08-05T12:38:59.601Z</time>
      </trkpt>
      <trkpt lat="43.106993436813354" lon="-0.7918739318847656">
        <ele>360.18075989273086</ele>
        <time>2021-08-05T12:39:13.588Z</time>
      </trkpt>
      <trkpt lat="43.10584545135498" lon="-0.7932257652282715">
        <ele>360.9077093621644</ele>
        <time>2021-08-05T12:39:27.599Z</time>
      </trkpt>
      <trkpt lat="43.10567378997803" lon="-0.7935690879821777">
        <ele>361.6728098038919</ele>
        <time>2021-08-05T12:39:41.615Z</time>
      </trkpt>
      <trkpt lat="43.105298364534974" lon="-0.7944917678833008">
        <ele>362.34397066801273</ele>
        <time>2021-08-05T12:39:55.644Z</time>
      </trkpt>
      <trkpt lat="43.10518026351929" lon="-0.794835090637207">
        <ele>362.85488173427996</ele>
        <time>2021-08-05T12:40:09.677Z</time>
      </trkpt>
      <trkpt lat="43.10457953251898" lon="-0.7963263988494873">
        <ele>363.2257929821689</ele>
        <time>2021-08-05T12:40:23.730Z</time>
      </trkpt>
      <trkpt lat="43.10373195447028" lon="-0.7985365390777588">
        <ele>363.6569752619165</ele>
        <time>2021-08-05T12:40:37.812Z</time>
      </trkpt>
      <trkpt lat="43.103731870651245" lon="-0.7985365390777588">
        <ele>363.69215445255327</ele>
        <time>2021-08-05T12:40:51.894Z</time>
      </trkpt>
      <trkpt lat="43.10343154706061" lon="-0.7992660999298096">
        <ele>363.7878292845103</ele>
        <time>2021-08-05T12:41:05.986Z</time>
      </trkpt>
      <trkpt lat="43.10310968197882" lon="-0.7999956607818604">
        <ele>363.6007187276656</ele>
        <time>2021-08-05T12:41:20.088Z</time>
      </trkpt>
      <trkpt lat="43.10310959815979" lon="-0.7999956607818604">
        <ele>363.14761905223554</ele>
        <time>2021-08-05T12:41:34.190Z</time>
      </trkpt>
      <trkpt lat="43.10293793678284" lon="-0.8004355430603027">
        <ele>362.5378604876754</ele>
        <time>2021-08-05T12:41:48.298Z</time>
      </trkpt>
      <trkpt lat="43.10288429260254" lon="-0.8007359504699707">
        <ele>361.6926186391802</ele>
        <time>2021-08-05T12:42:02.410Z</time>
      </trkpt>
      <trkpt lat="43.10288429260254" lon="-0.8013045787811279">
        <ele>360.6077486762284</ele>
        <time>2021-08-05T12:42:16.528Z</time>
      </trkpt>
      <trkpt lat="43.102970123291016" lon="-0.8026027679443359">
        <ele>359.179775496032</ele>
        <time>2021-08-05T12:42:30.661Z</time>
      </trkpt>
      <trkpt lat="43.1029486656189" lon="-0.8029031753540039">
        <ele>357.7443704103097</ele>
        <time>2021-08-05T12:42:44.798Z</time>
      </trkpt>
      <trkpt lat="43.1028413772583" lon="-0.8034825325012207">
        <ele>356.0645366279384</ele>
        <time>2021-08-05T12:42:58.942Z</time>
      </trkpt>
      <trkpt lat="43.10286283493042" lon="-0.8038151264190674">
        <ele>354.40665387060164</ele>
        <time>2021-08-05T12:43:13.090Z</time>
      </trkpt>
      <trkpt lat="43.10292720794678" lon="-0.8040404319763184">
        <ele>352.6382565304031</ele>
        <time>2021-08-05T12:43:27.241Z</time>
      </trkpt>
      <trkpt lat="43.10308814048767" lon="-0.8043515682220459">
        <ele>350.8345913690626</ele>
        <time>2021-08-05T12:43:41.396Z</time>
      </trkpt>
      <trkpt lat="43.10317405499518" lon="-0.8046305179595947">
        <ele>348.80414174178486</ele>
        <time>2021-08-05T12:43:55.555Z</time>
      </trkpt>
      <trkpt lat="43.10319542884827" lon="-0.8048880100250244">
        <ele>346.57904531703116</ele>
        <time>2021-08-05T12:44:09.717Z</time>
      </trkpt>
      <trkpt lat="43.10315251350403" lon="-0.8052313327789307">
        <ele>344.1571057891784</ele>
        <time>2021-08-05T12:44:23.883Z</time>
      </trkpt>
      <trkpt lat="43.10307749547064" lon="-0.8054995536804199">
        <ele>341.6821316661626</ele>
        <time>2021-08-05T12:44:38.052Z</time>
      </trkpt>
      <trkpt lat="43.10285210609436" lon="-0.8061754703521729">
        <ele>339.0267045573895</ele>
        <time>2021-08-05T12:44:52.230Z</time>
      </trkpt>
      <trkpt lat="43.10264825820923" lon="-0.8065509796142578">
        <ele>336.29710947389856</ele>
        <time>2021-08-05T12:45:06.413Z</time>
      </trkpt>
      <trkpt lat="43.102519512176514" lon="-0.8067119121551514">
        <ele>333.61174401324206</ele>
        <time>2021-08-05T12:45:20.599Z</time>
      </trkpt>
      <trkpt lat="43.1023907661438" lon="-0.8068513870239258">
        <ele>330.9038573795932</ele>
        <time>2021-08-05T12:45:34.788Z</time>
      </trkpt>
      <trkpt lat="43.10081362724304" lon="-0.8080959320068359">
        <ele>327.4299509254231</ele>
        <time>2021-08-05T12:45:49.006Z</time>
      </trkpt>
      <trkpt lat="43.10064196586609" lon="-0.8081710338592529">
        <ele>324.53553387128636</ele>
        <time>2021-08-05T12:46:03.227Z</time>
      </trkpt>
      <trkpt lat="43.100502490997314" lon="-0.8084392547607422">
        <ele>321.7303909280083</ele>
        <time>2021-08-05T12:46:17.452Z</time>
      </trkpt>
      <trkpt lat="43.100459575653076" lon="-0.8086538314819336">
        <ele>318.9215308715111</ele>
        <time>2021-08-05T12:46:31.679Z</time>
      </trkpt>
      <trkpt lat="43.100502490997314" lon="-0.808868408203125">
        <ele>316.20628343009696</ele>
        <time>2021-08-05T12:46:45.909Z</time>
      </trkpt>
      <trkpt lat="43.100513219833374" lon="-0.809093713760376">
        <ele>313.4410919425043</ele>
        <time>2021-08-05T12:47:00.142Z</time>
      </trkpt>
      <trkpt lat="43.10056686401367" lon="-0.8093833923339844">
        <ele>310.7289091170537</ele>
        <time>2021-08-05T12:47:14.378Z</time>
      </trkpt>
      <trkpt lat="43.10069561004639" lon="-0.8097052574157715">
        <ele>307.9620932814669</ele>
        <time>2021-08-05T12:47:28.618Z</time>
      </trkpt>
      <trkpt lat="43.10111411847174" lon="-0.8104884624481201">
        <ele>304.974337949012</ele>
        <time>2021-08-05T12:47:42.870Z</time>
      </trkpt>
      <trkpt lat="43.10111403465271" lon="-0.8104884624481201">
        <ele>302.435774968411</ele>
        <time>2021-08-05T12:47:57.122Z</time>
      </trkpt>
      <trkpt lat="43.10118913650513" lon="-0.8107137680053711">
        <ele>299.82933487711836</ele>
        <time>2021-08-05T12:48:11.377Z</time>
      </trkpt>
      <trkpt lat="43.1013822555542" lon="-0.8114111423492432">
        <ele>297.09255449123805</ele>
        <time>2021-08-05T12:48:25.640Z</time>
      </trkpt>
      <trkpt lat="43.10142517089844" lon="-0.8117330074310303">
        <ele>294.6923246428304</ele>
        <time>2021-08-05T12:48:39.907Z</time>
      </trkpt>
      <trkpt lat="43.10144662857056" lon="-0.8121192455291748">
        <ele>292.4659954832964</ele>
        <time>2021-08-05T12:48:54.179Z</time>
      </trkpt>
      <trkpt lat="43.10142517089844" lon="-0.8124303817749023">
        <ele>290.32517496283697</ele>
        <time>2021-08-05T12:49:08.454Z</time>
      </trkpt>
      <trkpt lat="43.10139298439026" lon="-0.812687873840332">
        <ele>288.28353430777463</ele>
        <time>2021-08-05T12:49:22.733Z</time>
      </trkpt>
      <trkpt lat="43.1011784914881" lon="-0.8137714862823486">
        <ele>286.55211631105254</ele>
        <time>2021-08-05T12:49:37.025Z</time>
      </trkpt>
      <trkpt lat="43.10108193196356" lon="-0.8141469955444336">
        <ele>284.7783561128502</ele>
        <time>2021-08-05T12:49:51.321Z</time>
      </trkpt>
      <trkpt lat="43.10103893280029" lon="-0.8143079280853271">
        <ele>282.98603424519195</ele>
        <time>2021-08-05T12:50:05.619Z</time>
      </trkpt>
      <trkpt lat="43.100963830947876" lon="-0.8144903182983398">
        <ele>281.2741272701018</ele>
        <time>2021-08-05T12:50:19.920Z</time>
      </trkpt>
      <trkpt lat="43.1008243560791" lon="-0.8147263526916504">
        <ele>279.61768278348234</ele>
        <time>2021-08-05T12:50:34.224Z</time>
      </trkpt>
      <trkpt lat="43.10067415237427" lon="-0.8149087429046631">
        <ele>277.9719690308576</ele>
        <time>2021-08-05T12:50:48.532Z</time>
      </trkpt>
      <trkpt lat="43.10053467750549" lon="-0.8150482177734375">
        <ele>276.3177304136651</ele>
        <time>2021-08-05T12:51:02.842Z</time>
      </trkpt>
      <trkpt lat="43.10036309994757" lon="-0.8151662349700928">
        <ele>274.7069015946536</ele>
        <time>2021-08-05T12:51:17.155Z</time>
      </trkpt>
      <trkpt lat="43.100287998095155" lon="-0.8151984214782715">
        <ele>273.1999394499335</ele>
        <time>2021-08-05T12:51:31.470Z</time>
      </trkpt>
      <trkpt lat="43.09959062375128" lon="-0.8154773712158203">
        <ele>271.3929643142685</ele>
        <time>2021-08-05T12:51:45.796Z</time>
      </trkpt>
      <trkpt lat="43.09959053993225" lon="-0.8154773712158203">
        <ele>270.03321830958043</ele>
        <time>2021-08-05T12:52:00.122Z</time>
      </trkpt>
      <trkpt lat="43.099461793899536" lon="-0.8155739307403564">
        <ele>268.57284575293215</ele>
        <time>2021-08-05T12:52:14.451Z</time>
      </trkpt>
      <trkpt lat="43.09934377670288" lon="-0.8157134056091309">
        <ele>267.176257839021</ele>
        <time>2021-08-05T12:52:28.782Z</time>
      </trkpt>
      <trkpt lat="43.09858202934265" lon="-0.8169364929199219">
        <ele>265.6334047517224</ele>
        <time>2021-08-05T12:52:43.132Z</time>
      </trkpt>
      <trkpt lat="43.09838891029358" lon="-0.8172905445098877">
        <ele>264.5161384546057</ele>
        <time>2021-08-05T12:52:57.487Z</time>
      </trkpt>
      <trkpt lat="43.098270976915956" lon="-0.8176553249359131">
        <ele>263.47072491875247</ele>
        <time>2021-08-05T12:53:11.847Z</time>
      </trkpt>
      <trkpt lat="43.09822806157172" lon="-0.8178806304931641">
        <ele>262.4725832189322</ele>
        <time>2021-08-05T12:53:26.210Z</time>
      </trkpt>
      <trkpt lat="43.09816368855536" lon="-0.8181703090667725">
        <ele>261.54080427815734</ele>
        <time>2021-08-05T12:53:40.576Z</time>
      </trkpt>
      <trkpt lat="43.097991943359375" lon="-0.8190286159515381">
        <ele>260.6856995462758</ele>
        <time>2021-08-05T12:53:54.953Z</time>
      </trkpt>
      <trkpt lat="43.09795984067023" lon="-0.8192431926727295">
        <ele>259.8530692888815</ele>
        <time>2021-08-05T12:54:09.332Z</time>
      </trkpt>
      <trkpt lat="43.097959756851196" lon="-0.8194470405578613">
        <ele>259.08062974247525</ele>
        <time>2021-08-05T12:54:23.713Z</time>
      </trkpt>
      <trkpt lat="43.09798129834235" lon="-0.8195221424102783">
        <ele>258.32717673949355</ele>
        <time>2021-08-05T12:54:38.095Z</time>
      </trkpt>
      <trkpt lat="43.097981214523315" lon="-0.8195221424102783">
        <ele>257.61345166061216</ele>
        <time>2021-08-05T12:54:52.477Z</time>
      </trkpt>
      <trkpt lat="43.09857130050659" lon="-0.82122802734375">
        <ele>256.9981100955886</ele>
        <time>2021-08-05T12:55:06.882Z</time>
      </trkpt>
      <trkpt lat="43.09937604703009" lon="-0.8234703540802002">
        <ele>256.20075600129366</ele>
        <time>2021-08-05T12:55:21.316Z</time>
      </trkpt>
      <trkpt lat="43.09965491294861" lon="-0.8242428302764893">
        <ele>255.53957697535253</ele>
        <time>2021-08-05T12:55:35.760Z</time>
      </trkpt>
      <trkpt lat="43.0998158454895" lon="-0.8246612548828125">
        <ele>254.93462724738495</ele>
        <time>2021-08-05T12:55:50.209Z</time>
      </trkpt>
      <trkpt lat="43.09996613301337" lon="-0.8249938488006592">
        <ele>254.38968112569242</ele>
        <time>2021-08-05T12:56:04.663Z</time>
      </trkpt>
      <trkpt lat="43.10014843940735" lon="-0.8253908157348633">
        <ele>253.8615514489868</ele>
        <time>2021-08-05T12:56:19.123Z</time>
      </trkpt>
      <trkpt lat="43.100234270095825" lon="-0.8256804943084717">
        <ele>253.45029992725026</ele>
        <time>2021-08-05T12:56:33.586Z</time>
      </trkpt>
      <trkpt lat="43.10027718544006" lon="-0.8259701728820801">
        <ele>252.99297626522105</ele>
        <time>2021-08-05T12:56:48.053Z</time>
      </trkpt>
      <trkpt lat="43.10027718544006" lon="-0.8263885974884033">
        <ele>252.52601721947156</ele>
        <time>2021-08-05T12:57:02.525Z</time>
      </trkpt>
      <trkpt lat="43.100212812423706" lon="-0.8266568183898926">
        <ele>252.07007099496673</ele>
        <time>2021-08-05T12:57:17.000Z</time>
      </trkpt>
      <trkpt lat="43.099976778030396" lon="-0.827246904373169">
        <ele>251.58755645361623</ele>
        <time>2021-08-05T12:57:31.483Z</time>
      </trkpt>
      <trkpt lat="43.09988021850586" lon="-0.8275794982910156">
        <ele>251.08981491718117</ele>
        <time>2021-08-05T12:57:45.970Z</time>
      </trkpt>
      <trkpt lat="43.09983730316162" lon="-0.8280086517333984">
        <ele>250.59790722297626</ele>
        <time>2021-08-05T12:58:00.462Z</time>
      </trkpt>
      <trkpt lat="43.099955320358276" lon="-0.8287596702575684">
        <ele>250.11364970356215</ele>
        <time>2021-08-05T12:58:14.963Z</time>
      </trkpt>
      <trkpt lat="43.1001163367182" lon="-0.8296287059783936">
        <ele>249.68422717956986</ele>
        <time>2021-08-05T12:58:29.475Z</time>
      </trkpt>
      <trkpt lat="43.10011625289917" lon="-0.8296287059783936">
        <ele>249.37893786162536</ele>
        <time>2021-08-05T12:58:43.987Z</time>
      </trkpt>
      <trkpt lat="43.10043820179999" lon="-0.8313882350921631">
        <ele>249.3516650211817</ele>
        <time>2021-08-05T12:58:58.520Z</time>
      </trkpt>
      <trkpt lat="43.10043811798096" lon="-0.8313882350921631">
        <ele>249.08310144510835</ele>
        <time>2021-08-05T12:59:13.053Z</time>
      </trkpt>
      <trkpt lat="43.10053467750549" lon="-0.8318603038787842">
        <ele>248.8435191137923</ele>
        <time>2021-08-05T12:59:27.592Z</time>
      </trkpt>
      <trkpt lat="43.10079216957092" lon="-0.8340060710906982">
        <ele>248.66656085066725</ele>
        <time>2021-08-05T12:59:42.156Z</time>
      </trkpt>
      <trkpt lat="43.10114630497992" lon="-0.8373105525970459">
        <ele>248.06225872889118</ele>
        <time>2021-08-05T12:59:56.759Z</time>
      </trkpt>
      <trkpt lat="43.10128569602966" lon="-0.8386409282684326">
        <ele>248.05046548987684</ele>
        <time>2021-08-05T13:00:11.378Z</time>
      </trkpt>
      <trkpt lat="43.10128569602966" lon="-0.8390486240386963">
        <ele>247.96601358681573</ele>
        <time>2021-08-05T13:00:26.002Z</time>
      </trkpt>
      <trkpt lat="43.101242780685425" lon="-0.8395099639892578">
        <ele>247.8059621307187</ele>
        <time>2021-08-05T13:00:40.631Z</time>
      </trkpt>
      <trkpt lat="43.10112476348877" lon="-0.8400571346282959">
        <ele>247.54927260203831</ele>
        <time>2021-08-05T13:00:55.267Z</time>
      </trkpt>
      <trkpt lat="43.10107111930847" lon="-0.840604305267334">
        <ele>247.37444542031477</ele>
        <time>2021-08-05T13:01:09.909Z</time>
      </trkpt>
      <trkpt lat="43.10104966163635" lon="-0.8409476280212402">
        <ele>247.12843167223502</ele>
        <time>2021-08-05T13:01:24.555Z</time>
      </trkpt>
      <trkpt lat="43.10112476348877" lon="-0.8416450023651123">
        <ele>246.80081893330595</ele>
        <time>2021-08-05T13:01:39.210Z</time>
      </trkpt>
      <trkpt lat="43.10136088170111" lon="-0.8428895473480225">
        <ele>246.61762240786888</ele>
        <time>2021-08-05T13:01:53.880Z</time>
      </trkpt>
      <trkpt lat="43.1013822555542" lon="-0.8432650566101074">
        <ele>246.5356836547504</ele>
        <time>2021-08-05T13:02:08.554Z</time>
      </trkpt>
      <trkpt lat="43.10135006904602" lon="-0.8452069759368896">
        <ele>246.46418497088217</ele>
        <time>2021-08-05T13:02:23.251Z</time>
      </trkpt>
      <trkpt lat="43.10137152671814" lon="-0.8458399772644043">
        <ele>246.28886136567507</ele>
        <time>2021-08-05T13:02:37.955Z</time>
      </trkpt>
      <trkpt lat="43.1015754584223" lon="-0.8474278450012207">
        <ele>246.30364228664234</ele>
        <time>2021-08-05T13:02:52.678Z</time>
      </trkpt>
      <trkpt lat="43.1016827467829" lon="-0.8483397960662842">
        <ele>246.20446973708812</ele>
        <time>2021-08-05T13:03:07.412Z</time>
      </trkpt>
      <trkpt lat="43.10187586583197" lon="-0.8497774600982666">
        <ele>246.2054277316938</ele>
        <time>2021-08-05T13:03:22.163Z</time>
      </trkpt>
      <trkpt lat="43.1019401550293" lon="-0.8501315116882324">
        <ele>246.21300787120003</ele>
        <time>2021-08-05T13:03:36.918Z</time>
      </trkpt>
      <trkpt lat="43.102047527208924" lon="-0.8505070209503174">
        <ele>246.17421613170535</ele>
        <time>2021-08-05T13:03:51.678Z</time>
      </trkpt>
      <trkpt lat="43.10204744338989" lon="-0.8505070209503174">
        <ele>246.13847709572548</ele>
        <time>2021-08-05T13:04:06.438Z</time>
      </trkpt>
      <trkpt lat="43.102240562438965" lon="-0.8508932590484619">
        <ele>246.17140427373903</ele>
        <time>2021-08-05T13:04:21.204Z</time>
      </trkpt>
      <trkpt lat="43.10235857963562" lon="-0.8510863780975342">
        <ele>246.21651292575314</ele>
        <time>2021-08-05T13:04:35.973Z</time>
      </trkpt>
      <trkpt lat="43.10257315635681" lon="-0.851365327835083">
        <ele>246.31426119468483</ele>
        <time>2021-08-05T13:04:50.746Z</time>
      </trkpt>
      <trkpt lat="43.10359239578247" lon="-0.8524703979492188">
        <ele>245.99816656724596</ele>
        <time>2021-08-05T13:05:05.540Z</time>
      </trkpt>
      <trkpt lat="43.10416102409363" lon="-0.853114128112793">
        <ele>246.0175580713401</ele>
        <time>2021-08-05T13:05:20.346Z</time>
      </trkpt>
      <trkpt lat="43.10433268547058" lon="-0.8533287048339844">
        <ele>246.00251340619212</ele>
        <time>2021-08-05T13:05:35.156Z</time>
      </trkpt>
      <trkpt lat="43.10454726219177" lon="-0.8536398410797119">
        <ele>245.93152936371416</ele>
        <time>2021-08-05T13:05:49.971Z</time>
      </trkpt>
      <trkpt lat="43.10511589050293" lon="-0.854562520980835">
        <ele>245.84806342817973</ele>
        <time>2021-08-05T13:06:04.800Z</time>
      </trkpt>
      <trkpt lat="43.10559868812561" lon="-0.8553993701934814">
        <ele>245.66802591559664</ele>
        <time>2021-08-05T13:06:19.641Z</time>
      </trkpt>
      <trkpt lat="43.10603857040405" lon="-0.8565044403076172">
        <ele>245.20100879052103</ele>
        <time>2021-08-05T13:06:34.497Z</time>
      </trkpt>
      <trkpt lat="43.106210231781006" lon="-0.8567941188812256">
        <ele>245.0075287148203</ele>
        <time>2021-08-05T13:06:49.357Z</time>
      </trkpt>
      <trkpt lat="43.10630679130554" lon="-0.8568906784057617">
        <ele>244.8374208054629</ele>
        <time>2021-08-05T13:07:04.219Z</time>
      </trkpt>
      <trkpt lat="43.10640335083008" lon="-0.8569550514221191">
        <ele>244.6750947647174</ele>
        <time>2021-08-05T13:07:19.083Z</time>
      </trkpt>
      <trkpt lat="43.10666084289551" lon="-0.8570623397827148">
        <ele>244.47387786887822</ele>
        <time>2021-08-05T13:07:33.951Z</time>
      </trkpt>
      <trkpt lat="43.10686469078064" lon="-0.8571159839630127">
        <ele>244.28686091476004</ele>
        <time>2021-08-05T13:07:48.823Z</time>
      </trkpt>
      <trkpt lat="43.10703635215759" lon="-0.8571910858154297">
        <ele>244.0340910955953</ele>
        <time>2021-08-05T13:08:03.698Z</time>
      </trkpt>
      <trkpt lat="43.1073260307312" lon="-0.8573627471923828">
        <ele>243.62965132568695</ele>
        <time>2021-08-05T13:08:18.578Z</time>
      </trkpt>
      <trkpt lat="43.107454776763916" lon="-0.8574700355529785">
        <ele>243.23796299750572</ele>
        <time>2021-08-05T13:08:33.460Z</time>
      </trkpt>
      <trkpt lat="43.107701539993286" lon="-0.857781171798706">
        <ele>242.80758276833174</ele>
        <time>2021-08-05T13:08:48.347Z</time>
      </trkpt>
      <trkpt lat="43.10786247253418" lon="-0.8580386638641357">
        <ele>242.365851238461</ele>
        <time>2021-08-05T13:09:03.238Z</time>
      </trkpt>
      <trkpt lat="43.10809850692749" lon="-0.858457088470459">
        <ele>241.72640623654036</ele>
        <time>2021-08-05T13:09:18.136Z</time>
      </trkpt>
      <trkpt lat="43.108259439468384" lon="-0.85868239402771">
        <ele>241.11815966847655</ele>
        <time>2021-08-05T13:09:33.037Z</time>
      </trkpt>
      <trkpt lat="43.10854911804199" lon="-0.8589935302734375">
        <ele>240.52173071885747</ele>
        <time>2021-08-05T13:09:47.944Z</time>
      </trkpt>
      <trkpt lat="43.10918211936951" lon="-0.8595621585845947">
        <ele>239.941065006163</ele>
        <time>2021-08-05T13:10:02.863Z</time>
      </trkpt>
      <trkpt lat="43.109493255615234" lon="-0.8597660064697266">
        <ele>239.4201150658719</ele>
        <time>2021-08-05T13:10:17.788Z</time>
      </trkpt>
      <trkpt lat="43.11005115509033" lon="-0.8600127696990967">
        <ele>238.9492308526934</ele>
        <time>2021-08-05T13:10:32.722Z</time>
      </trkpt>
      <trkpt lat="43.11030864715576" lon="-0.8600771427154541">
        <ele>238.2962903556463</ele>
        <time>2021-08-05T13:10:47.660Z</time>
      </trkpt>
      <trkpt lat="43.11094173230231" lon="-0.8600664138793945">
        <ele>237.8212139139314</ele>
        <time>2021-08-05T13:11:02.609Z</time>
      </trkpt>
      <trkpt lat="43.11108120717108" lon="-0.860055685043335">
        <ele>237.29504166142397</ele>
        <time>2021-08-05T13:11:17.560Z</time>
      </trkpt>
      <trkpt lat="43.111263597384095" lon="-0.8600449562072754">
        <ele>236.7691002359223</ele>
        <time>2021-08-05T13:11:32.514Z</time>
      </trkpt>
      <trkpt lat="43.111542547121644" lon="-0.860055685043335">
        <ele>236.30653942871936</ele>
        <time>2021-08-05T13:11:47.472Z</time>
      </trkpt>
      <trkpt lat="43.11154246330261" lon="-0.860055685043335">
        <ele>235.6832710222726</ele>
        <time>2021-08-05T13:12:02.430Z</time>
      </trkpt>
      <trkpt lat="43.111971616744995" lon="-0.8601522445678711">
        <ele>235.2021969834242</ele>
        <time>2021-08-05T13:12:17.395Z</time>
      </trkpt>
      <trkpt lat="43.11230421066284" lon="-0.8602809906005859">
        <ele>234.5989426857118</ele>
        <time>2021-08-05T13:12:32.366Z</time>
      </trkpt>
      <trkpt lat="43.114213943481445" lon="-0.8614826202392578">
        <ele>233.58957631752122</ele>
        <time>2021-08-05T13:12:47.370Z</time>
      </trkpt>
      <trkpt lat="43.114503705874085" lon="-0.8616542816162109">
        <ele>232.84897906175158</ele>
        <time>2021-08-05T13:13:02.379Z</time>
      </trkpt>
      <trkpt lat="43.114503622055054" lon="-0.8616542816162109">
        <ele>232.15909171679806</ele>
        <time>2021-08-05T13:13:17.388Z</time>
      </trkpt>
      <trkpt lat="43.11529755592346" lon="-0.8621585369110107">
        <ele>231.34093896369907</ele>
        <time>2021-08-05T13:13:32.411Z</time>
      </trkpt>
      <trkpt lat="43.115501487627625" lon="-0.8624053001403809">
        <ele>230.6436133725367</ele>
        <time>2021-08-05T13:13:47.439Z</time>
      </trkpt>
      <trkpt lat="43.11568387784064" lon="-0.8626306056976318">
        <ele>229.92855454878287</ele>
        <time>2021-08-05T13:14:02.471Z</time>
      </trkpt>
      <trkpt lat="43.115683794021606" lon="-0.8626306056976318">
        <ele>229.22552760258506</ele>
        <time>2021-08-05T13:14:17.503Z</time>
      </trkpt>
      <trkpt lat="43.115962743759155" lon="-0.8629202842712402">
        <ele>228.48381787962262</ele>
        <time>2021-08-05T13:14:32.540Z</time>
      </trkpt>
      <trkpt lat="43.116027200594544" lon="-0.8629631996154785">
        <ele>227.78503650505073</ele>
        <time>2021-08-05T13:14:47.578Z</time>
      </trkpt>
      <trkpt lat="43.11613448895514" lon="-0.8630275726318359">
        <ele>227.0648050684884</ele>
        <time>2021-08-05T13:15:02.618Z</time>
      </trkpt>
      <trkpt lat="43.11640270985663" lon="-0.8631777763366699">
        <ele>226.3090638948297</ele>
        <time>2021-08-05T13:15:17.663Z</time>
      </trkpt>
      <trkpt lat="43.1164026260376" lon="-0.8631777763366699">
        <ele>225.6449927225765</ele>
        <time>2021-08-05T13:15:32.708Z</time>
      </trkpt>
      <trkpt lat="43.11655291356146" lon="-0.8633601665496826">
        <ele>224.95286835132225</ele>
        <time>2021-08-05T13:15:47.756Z</time>
      </trkpt>
      <trkpt lat="43.1165958289057" lon="-0.8634674549102783">
        <ele>224.2894928706353</ele>
        <time>2021-08-05T13:16:02.806Z</time>
      </trkpt>
      <trkpt lat="43.11659574508667" lon="-0.8634674549102783">
        <ele>223.68114671330508</ele>
        <time>2021-08-05T13:16:17.856Z</time>
      </trkpt>
      <trkpt lat="43.11667084693909" lon="-0.8636927604675293">
        <ele>222.99519241330046</ele>
        <time>2021-08-05T13:16:32.908Z</time>
      </trkpt>
      <trkpt lat="43.117024982348084" lon="-0.8639180660247803">
        <ele>222.38361784004792</ele>
        <time>2021-08-05T13:16:47.967Z</time>
      </trkpt>
      <trkpt lat="43.11717510223389" lon="-0.8640146255493164">
        <ele>221.8924566865279</ele>
        <time>2021-08-05T13:17:03.028Z</time>
      </trkpt>
      <trkpt lat="43.11693915165961" lon="-0.8646690845489502">
        <ele>221.20064721619968</ele>
        <time>2021-08-05T13:17:18.098Z</time>
      </trkpt>
      <trkpt lat="43.1168532371521" lon="-0.8649051189422607">
        <ele>220.68894362400613</ele>
        <time>2021-08-05T13:17:33.171Z</time>
      </trkpt>
      <trkpt lat="43.11679967679083" lon="-0.8650767803192139">
        <ele>220.2523177743392</ele>
        <time>2021-08-05T13:17:48.246Z</time>
      </trkpt>
      <trkpt lat="43.1167995929718" lon="-0.8650767803192139">
        <ele>219.85952112574552</ele>
        <time>2021-08-05T13:18:03.321Z</time>
      </trkpt>
      <trkpt lat="43.1165958289057" lon="-0.8656668663024902">
        <ele>219.47707249547216</ele>
        <time>2021-08-05T13:18:18.404Z</time>
      </trkpt>
      <trkpt lat="43.11659574508667" lon="-0.8656668663024902">
        <ele>219.15877000036735</ele>
        <time>2021-08-05T13:18:33.487Z</time>
      </trkpt>
      <trkpt lat="43.11642416752875" lon="-0.8661174774169922">
        <ele>218.9348911641107</ele>
        <time>2021-08-05T13:18:48.576Z</time>
      </trkpt>
      <trkpt lat="43.11642408370972" lon="-0.8661174774169922">
        <ele>218.69013889269422</ele>
        <time>2021-08-05T13:19:03.665Z</time>
      </trkpt>
      <trkpt lat="43.116198778152466" lon="-0.8668148517608643">
        <ele>218.49392357529007</ele>
        <time>2021-08-05T13:19:18.763Z</time>
      </trkpt>
      <trkpt lat="43.11614513397217" lon="-0.8672225475311279">
        <ele>218.313346904643</ele>
        <time>2021-08-05T13:19:33.866Z</time>
      </trkpt>
      <trkpt lat="43.11615586280823" lon="-0.8673620223999023">
        <ele>218.1605862955998</ele>
        <time>2021-08-05T13:19:48.970Z</time>
      </trkpt>
      <trkpt lat="43.116198778152466" lon="-0.8675336837768555">
        <ele>218.0495875415661</ele>
        <time>2021-08-05T13:20:04.076Z</time>
      </trkpt>
      <trkpt lat="43.11638125218451" lon="-0.8680164813995361">
        <ele>217.96896882195887</ele>
        <time>2021-08-05T13:20:19.189Z</time>
      </trkpt>
      <trkpt lat="43.11638116836548" lon="-0.8680164813995361">
        <ele>217.91368684031843</ele>
        <time>2021-08-05T13:20:34.302Z</time>
      </trkpt>
      <trkpt lat="43.11740040779114" lon="-0.8706235885620117">
        <ele>217.85257345963208</ele>
        <time>2021-08-05T13:20:49.449Z</time>
      </trkpt>
      <trkpt lat="43.117936849594116" lon="-0.871964693069458">
        <ele>218.03707506204734</ele>
        <time>2021-08-05T13:21:04.614Z</time>
      </trkpt>
      <trkpt lat="43.11805486679077" lon="-0.8722972869873047">
        <ele>218.12865451192135</ele>
        <time>2021-08-05T13:21:19.784Z</time>
      </trkpt>
      <trkpt lat="43.11817296780646" lon="-0.8729088306427002">
        <ele>218.27025806771894</ele>
        <time>2021-08-05T13:21:34.961Z</time>
      </trkpt>
      <trkpt lat="43.11817288398743" lon="-0.8729088306427002">
        <ele>218.306133261434</ele>
        <time>2021-08-05T13:21:50.138Z</time>
      </trkpt>
      <trkpt lat="43.118473375216126" lon="-0.8747434616088867">
        <ele>218.51086111340106</ele>
        <time>2021-08-05T13:22:05.337Z</time>
      </trkpt>
      <trkpt lat="43.11852693557739" lon="-0.8751082420349121">
        <ele>218.5422783429907</ele>
        <time>2021-08-05T13:22:20.540Z</time>
      </trkpt>
      <trkpt lat="43.118516290560365" lon="-0.8755373954772949">
        <ele>218.58062895009417</ele>
        <time>2021-08-05T13:22:35.748Z</time>
      </trkpt>
      <trkpt lat="43.11846264638007" lon="-0.8757412433624268">
        <ele>218.62175656778425</ele>
        <time>2021-08-05T13:22:50.959Z</time>
      </trkpt>
      <trkpt lat="43.11835527420044" lon="-0.8759021759033203">
        <ele>218.67592586996665</ele>
        <time>2021-08-05T13:23:06.173Z</time>
      </trkpt>
      <trkpt lat="43.117550695315" lon="-0.8767175674438477">
        <ele>218.55709627564568</ele>
        <time>2021-08-05T13:23:21.403Z</time>
      </trkpt>
      <trkpt lat="43.11732538975775" lon="-0.8769643306732178">
        <ele>218.50734564030432</ele>
        <time>2021-08-05T13:23:36.637Z</time>
      </trkpt>
      <trkpt lat="43.11691769398749" lon="-0.8774363994598389">
        <ele>218.4574422462092</ele>
        <time>2021-08-05T13:23:51.880Z</time>
      </trkpt>
      <trkpt lat="43.11691761016846" lon="-0.8774363994598389">
        <ele>218.53636619684102</ele>
        <time>2021-08-05T13:24:07.123Z</time>
      </trkpt>
      <trkpt lat="43.11656355857849" lon="-0.877833366394043">
        <ele>218.59851033714835</ele>
        <time>2021-08-05T13:24:22.373Z</time>
      </trkpt>
      <trkpt lat="43.115394115448" lon="-0.8787345886230469">
        <ele>218.65994309786475</ele>
        <time>2021-08-05T13:24:37.645Z</time>
      </trkpt>
      <trkpt lat="43.11507225036621" lon="-0.8789169788360596">
        <ele>218.80362786099698</ele>
        <time>2021-08-05T13:24:52.922Z</time>
      </trkpt>
      <trkpt lat="43.11417102813721" lon="-0.8793032169342041">
        <ele>218.99573657311169</ele>
        <time>2021-08-05T13:25:08.214Z</time>
      </trkpt>
      <trkpt lat="43.11042666435242" lon="-0.8815670013427734">
        <ele>219.20299316180302</ele>
        <time>2021-08-05T13:25:23.572Z</time>
      </trkpt>
      <trkpt lat="43.11022290028632" lon="-0.8817601203918457">
        <ele>219.34909690083794</ele>
        <time>2021-08-05T13:25:38.934Z</time>
      </trkpt>
      <trkpt lat="43.110222816467285" lon="-0.8817601203918457">
        <ele>219.47249092189907</ele>
        <time>2021-08-05T13:25:54.296Z</time>
      </trkpt>
      <trkpt lat="43.1101477984339" lon="-0.8818674087524414">
        <ele>219.59860473832833</ele>
        <time>2021-08-05T13:26:09.659Z</time>
      </trkpt>
      <trkpt lat="43.109954595565796" lon="-0.8821678161621094">
        <ele>219.71834191489688</ele>
        <time>2021-08-05T13:26:25.027Z</time>
      </trkpt>
      <trkpt lat="43.10989030636847" lon="-0.8823609352111816">
        <ele>219.84548042306804</ele>
        <time>2021-08-05T13:26:40.398Z</time>
      </trkpt>
      <trkpt lat="43.10992240905762" lon="-0.8825540542602539">
        <ele>219.9926341815252</ele>
        <time>2021-08-05T13:26:55.771Z</time>
      </trkpt>
      <trkpt lat="43.109965324401855" lon="-0.8826828002929688">
        <ele>220.1366570369734</ele>
        <time>2021-08-05T13:27:11.146Z</time>
      </trkpt>
      <trkpt lat="43.1100941542536" lon="-0.8828866481781006">
        <ele>220.28100568236826</ele>
        <time>2021-08-05T13:27:26.524Z</time>
      </trkpt>
      <trkpt lat="43.11015844345093" lon="-0.8829939365386963">
        <ele>220.44327754985977</ele>
        <time>2021-08-05T13:27:41.903Z</time>
      </trkpt>
      <trkpt lat="43.110222816467285" lon="-0.8831548690795898">
        <ele>220.6116097442666</ele>
        <time>2021-08-05T13:27:57.285Z</time>
      </trkpt>
      <trkpt lat="43.11035164631903" lon="-0.8836269378662109">
        <ele>220.83347313413827</ele>
        <time>2021-08-05T13:28:12.672Z</time>
      </trkpt>
      <trkpt lat="43.1103515625" lon="-0.8838200569152832">
        <ele>221.07111707690726</ele>
        <time>2021-08-05T13:28:28.062Z</time>
      </trkpt>
      <trkpt lat="43.11031937599182" lon="-0.8839917182922363">
        <ele>221.32578440218498</ele>
        <time>2021-08-05T13:28:43.454Z</time>
      </trkpt>
      <trkpt lat="43.110255002975464" lon="-0.8841204643249512">
        <ele>221.5613174279809</ele>
        <time>2021-08-05T13:28:58.848Z</time>
      </trkpt>
      <trkpt lat="43.1101477984339" lon="-0.8842706680297852">
        <ele>221.80657590381176</ele>
        <time>2021-08-05T13:29:14.244Z</time>
      </trkpt>
      <trkpt lat="43.11005115509033" lon="-0.8843564987182617">
        <ele>222.0548415336096</ele>
        <time>2021-08-05T13:29:29.642Z</time>
      </trkpt>
      <trkpt lat="43.10992240905762" lon="-0.8844101428985596">
        <ele>222.3015168507949</ele>
        <time>2021-08-05T13:29:45.042Z</time>
      </trkpt>
      <trkpt lat="43.10938596725464" lon="-0.8844959735870361">
        <ele>222.54506429616657</ele>
        <time>2021-08-05T13:30:00.451Z</time>
      </trkpt>
      <trkpt lat="43.10913920402527" lon="-0.8845603466033936">
        <ele>222.83543938961157</ele>
        <time>2021-08-05T13:30:15.864Z</time>
      </trkpt>
      <trkpt lat="43.108989000320435" lon="-0.8846569061279297">
        <ele>223.12745344499064</ele>
        <time>2021-08-05T13:30:31.279Z</time>
      </trkpt>
      <trkpt lat="43.10881733894348" lon="-0.8847856521606445">
        <ele>223.42415634296987</ele>
        <time>2021-08-05T13:30:46.697Z</time>
      </trkpt>
      <trkpt lat="43.10863494873047" lon="-0.8850002288818359">
        <ele>223.75354267455154</ele>
        <time>2021-08-05T13:31:02.119Z</time>
      </trkpt>
      <trkpt lat="43.10733684338629" lon="-0.8863842487335205">
        <ele>224.1228323746699</ele>
        <time>2021-08-05T13:31:17.568Z</time>
      </trkpt>
      <trkpt lat="43.10590990819037" lon="-0.8877789974212646">
        <ele>224.51265346340796</ele>
        <time>2021-08-05T13:31:33.045Z</time>
      </trkpt>
      <trkpt lat="43.105201721191406" lon="-0.8883905410766602">
        <ele>224.82991035842485</ele>
        <time>2021-08-05T13:31:48.535Z</time>
      </trkpt>
      <trkpt lat="43.10503005981445" lon="-0.8886802196502686">
        <ele>225.23135588911222</ele>
        <time>2021-08-05T13:32:04.030Z</time>
      </trkpt>
      <trkpt lat="43.10486912727356" lon="-0.8890342712402344">
        <ele>225.6205994735015</ele>
        <time>2021-08-05T13:32:19.529Z</time>
      </trkpt>
      <trkpt lat="43.10442924499512" lon="-0.8906435966491699">
        <ele>226.16953586939545</ele>
        <time>2021-08-05T13:32:35.049Z</time>
      </trkpt>
      <trkpt lat="43.10416102409363" lon="-0.8912551403045654">
        <ele>226.65918547156508</ele>
        <time>2021-08-05T13:32:50.577Z</time>
      </trkpt>
      <trkpt lat="43.10412892140448" lon="-0.8914482593536377">
        <ele>227.14315110082066</ele>
        <time>2021-08-05T13:33:06.107Z</time>
      </trkpt>
      <trkpt lat="43.10412883758545" lon="-0.8914482593536377">
        <ele>227.62484776467892</ele>
        <time>2021-08-05T13:33:21.637Z</time>
      </trkpt>
      <trkpt lat="43.10403227806091" lon="-0.8919954299926758">
        <ele>228.22290074878276</ele>
        <time>2021-08-05T13:33:37.174Z</time>
      </trkpt>
      <trkpt lat="43.103721141815186" lon="-0.8924674987792969">
        <ele>228.8189437931535</ele>
        <time>2021-08-05T13:33:52.718Z</time>
      </trkpt>
      <trkpt lat="43.10358166694641" lon="-0.892789363861084">
        <ele>229.4074223603916</ele>
        <time>2021-08-05T13:34:08.267Z</time>
      </trkpt>
      <trkpt lat="43.10358175076544" lon="-0.8930575847625732">
        <ele>230.02145147186263</ele>
        <time>2021-08-05T13:34:23.819Z</time>
      </trkpt>
      <trkpt lat="43.10358175076544" lon="-0.8931970596313477">
        <ele>230.61375071428745</ele>
        <time>2021-08-05T13:34:39.372Z</time>
      </trkpt>
      <trkpt lat="43.103549564257264" lon="-0.8935940265655518">
        <ele>231.25403630467179</ele>
        <time>2021-08-05T13:34:54.930Z</time>
      </trkpt>
      <trkpt lat="43.10342073440552" lon="-0.8939266204833984">
        <ele>231.94871849873743</ele>
        <time>2021-08-05T13:35:10.493Z</time>
      </trkpt>
      <trkpt lat="43.10257315635681" lon="-0.8957934379577637">
        <ele>232.6662047954382</ele>
        <time>2021-08-05T13:35:26.081Z</time>
      </trkpt>
      <trkpt lat="43.10211181640625" lon="-0.8967483043670654">
        <ele>233.37650635181762</ele>
        <time>2021-08-05T13:35:41.683Z</time>
      </trkpt>
      <trkpt lat="43.10122140683234" lon="-0.8982610702514648">
        <ele>234.08071370944896</ele>
        <time>2021-08-05T13:35:57.307Z</time>
      </trkpt>
      <trkpt lat="43.101221323013306" lon="-0.8982610702514648">
        <ele>234.83794020550638</ele>
        <time>2021-08-05T13:36:12.931Z</time>
      </trkpt>
      <trkpt lat="43.10036301612854" lon="-0.8997201919555664">
        <ele>235.67339721099808</ele>
        <time>2021-08-05T13:36:28.577Z</time>
      </trkpt>
      <trkpt lat="43.10008406639099" lon="-0.8999669551849365">
        <ele>236.5153117364581</ele>
        <time>2021-08-05T13:36:44.229Z</time>
      </trkpt>
      <trkpt lat="43.09979438781738" lon="-0.9001815319061279">
        <ele>237.32323253055813</ele>
        <time>2021-08-05T13:36:59.886Z</time>
      </trkpt>
      <trkpt lat="43.09870004653931" lon="-0.9009218215942383">
        <ele>238.17699819307353</ele>
        <time>2021-08-05T13:37:15.562Z</time>
      </trkpt>
      <trkpt lat="43.09813150204718" lon="-0.9015333652496338">
        <ele>238.93595408920316</ele>
        <time>2021-08-05T13:37:31.250Z</time>
      </trkpt>
      <trkpt lat="43.09789546765387" lon="-0.9018659591674805">
        <ele>239.90802158162666</ele>
        <time>2021-08-05T13:37:46.944Z</time>
      </trkpt>
      <trkpt lat="43.097777366638184" lon="-0.9021449089050293">
        <ele>240.99834722339682</ele>
        <time>2021-08-05T13:38:02.641Z</time>
      </trkpt>
      <trkpt lat="43.09767007827759" lon="-0.9027135372161865">
        <ele>242.1549548484955</ele>
        <time>2021-08-05T13:38:18.345Z</time>
      </trkpt>
      <trkpt lat="43.097509145736694" lon="-0.9032070636749268">
        <ele>243.3429659645978</ele>
        <time>2021-08-05T13:38:34.055Z</time>
      </trkpt>
      <trkpt lat="43.09712290763855" lon="-0.9039044380187988">
        <ele>244.54248989841028</ele>
        <time>2021-08-05T13:38:49.776Z</time>
      </trkpt>
      <trkpt lat="43.097026348114014" lon="-0.9041404724121094">
        <ele>245.87051796122427</ele>
        <time>2021-08-05T13:39:05.500Z</time>
      </trkpt>
      <trkpt lat="43.09692978858948" lon="-0.9048163890838623">
        <ele>247.37776611518433</ele>
        <time>2021-08-05T13:39:21.232Z</time>
      </trkpt>
      <trkpt lat="43.09681177139282" lon="-0.9052455425262451">
        <ele>248.8129155530173</ele>
        <time>2021-08-05T13:39:36.969Z</time>
      </trkpt>
      <trkpt lat="43.09612512588501" lon="-0.9064793586730957">
        <ele>250.26856306828816</ele>
        <time>2021-08-05T13:39:52.725Z</time>
      </trkpt>
      <trkpt lat="43.094741106033325" lon="-0.9081745147705078">
        <ele>252.03278967539333</ele>
        <time>2021-08-05T13:40:08.510Z</time>
      </trkpt>
      <trkpt lat="43.09492349624634" lon="-0.9088611602783203">
        <ele>253.80508037935132</ele>
        <time>2021-08-05T13:40:24.304Z</time>
      </trkpt>
      <trkpt lat="43.094998598098755" lon="-0.9088397026062012">
        <ele>255.36867620763417</ele>
        <time>2021-08-05T13:40:40.099Z</time>
      </trkpt>
      <trkpt lat="43.09515953063965" lon="-0.9088718891143799">
        <ele>256.990326863027</ele>
        <time>2021-08-05T13:40:55.897Z</time>
      </trkpt>
      <trkpt lat="43.09534192085266" lon="-0.9089469909667969">
        <ele>258.63953796578375</ele>
        <time>2021-08-05T13:41:11.698Z</time>
      </trkpt>
      <trkpt lat="43.095524311065674" lon="-0.9089255332946777">
        <ele>260.304986899</ele>
        <time>2021-08-05T13:41:27.502Z</time>
      </trkpt>
      <trkpt lat="43.09568524360657" lon="-0.9088289737701416">
        <ele>261.9790673728793</ele>
        <time>2021-08-05T13:41:43.308Z</time>
      </trkpt>
      <trkpt lat="43.09589982032776" lon="-0.9088075160980225">
        <ele>263.71974959105734</ele>
        <time>2021-08-05T13:41:59.118Z</time>
      </trkpt>
      <trkpt lat="43.09587836265564" lon="-0.9090220928192139">
        <ele>265.37524630777045</ele>
        <time>2021-08-05T13:42:14.930Z</time>
      </trkpt>
      <trkpt lat="43.09612512588501" lon="-0.9089469909667969">
        <ele>267.15124335289005</ele>
        <time>2021-08-05T13:42:30.746Z</time>
      </trkpt>
      <trkpt lat="43.09632897377014" lon="-0.9086787700653076">
        <ele>268.87909278623124</ele>
        <time>2021-08-05T13:42:46.567Z</time>
      </trkpt>
      <trkpt lat="43.096522092819214" lon="-0.9087216854095459">
        <ele>270.6146157610752</ele>
        <time>2021-08-05T13:43:02.391Z</time>
      </trkpt>
      <trkpt lat="43.096779668703675" lon="-0.908818244934082">
        <ele>272.4570778119987</ele>
        <time>2021-08-05T13:43:18.219Z</time>
      </trkpt>
      <trkpt lat="43.09683322906494" lon="-0.9089255332946777">
        <ele>274.094698477814</ele>
        <time>2021-08-05T13:43:34.049Z</time>
      </trkpt>
      <trkpt lat="43.0967903137207" lon="-0.9090757369995117">
        <ele>275.6832281334234</ele>
        <time>2021-08-05T13:43:49.881Z</time>
      </trkpt>
      <trkpt lat="43.096779584884644" lon="-0.9096121788024902">
        <ele>277.3456687518914</ele>
        <time>2021-08-05T13:44:05.719Z</time>
      </trkpt>
      <trkpt lat="43.096725940704346" lon="-0.9102022647857666">
        <ele>279.0097080263625</ele>
        <time>2021-08-05T13:44:21.564Z</time>
      </trkpt>
      <trkpt lat="43.096736669540405" lon="-0.9111034870147705">
        <ele>280.6675049171411</ele>
        <time>2021-08-05T13:44:37.420Z</time>
      </trkpt>
      <trkpt lat="43.09670448303223" lon="-0.9112966060638428">
        <ele>282.147011666248</ele>
        <time>2021-08-05T13:44:53.278Z</time>
      </trkpt>
      <trkpt lat="43.09641480445862" lon="-0.911865234375">
        <ele>283.5634791035944</ele>
        <time>2021-08-05T13:45:09.144Z</time>
      </trkpt>
      <trkpt lat="43.0967903137207" lon="-0.9124767780303955">
        <ele>285.12678067828875</ele>
        <time>2021-08-05T13:45:25.019Z</time>
      </trkpt>
      <trkpt lat="43.09687614440918" lon="-0.9125196933746338">
        <ele>286.53523861995427</ele>
        <time>2021-08-05T13:45:40.896Z</time>
      </trkpt>
      <trkpt lat="43.097026348114014" lon="-0.9124875068664551">
        <ele>287.9097042543191</ele>
        <time>2021-08-05T13:45:56.775Z</time>
      </trkpt>
      <trkpt lat="43.09715509414673" lon="-0.9125089645385742">
        <ele>289.2710248904283</ele>
        <time>2021-08-05T13:46:12.656Z</time>
      </trkpt>
      <trkpt lat="43.097273111343384" lon="-0.9126162528991699">
        <ele>290.6491223795448</ele>
        <time>2021-08-05T13:46:28.540Z</time>
      </trkpt>
      <trkpt lat="43.09756278991699" lon="-0.9129595756530762">
        <ele>292.1280255085087</ele>
        <time>2021-08-05T13:46:44.430Z</time>
      </trkpt>
      <trkpt lat="43.09769153594971" lon="-0.9132921695709229">
        <ele>293.56422528767956</ele>
        <time>2021-08-05T13:47:00.324Z</time>
      </trkpt>
      <trkpt lat="43.098056400194764" lon="-0.9138178825378418">
        <ele>294.88506824227903</ele>
        <time>2021-08-05T13:47:16.227Z</time>
      </trkpt>
      <trkpt lat="43.098217248916626" lon="-0.9140110015869141">
        <ele>296.22845911804825</ele>
        <time>2021-08-05T13:47:32.133Z</time>
      </trkpt>
      <trkpt lat="43.09852838516235" lon="-0.9144723415374756">
        <ele>297.6322992533353</ele>
        <time>2021-08-05T13:47:48.047Z</time>
      </trkpt>
      <trkpt lat="43.09892535209656" lon="-0.914987325668335">
        <ele>299.0223817387996</ele>
        <time>2021-08-05T13:48:03.969Z</time>
      </trkpt>
      <trkpt lat="43.09919357299805" lon="-0.9157919883728027">
        <ele>300.13563889690755</ele>
        <time>2021-08-05T13:48:19.902Z</time>
      </trkpt>
      <trkpt lat="43.0993115901947" lon="-0.9159207344055176">
        <ele>301.4562393220192</ele>
        <time>2021-08-05T13:48:35.837Z</time>
      </trkpt>
      <trkpt lat="43.09954762458801" lon="-0.9166288375854492">
        <ele>303.0073279353328</ele>
        <time>2021-08-05T13:48:51.781Z</time>
      </trkpt>
      <trkpt lat="43.09957981109619" lon="-0.9167790412902832">
        <ele>304.549762849109</ele>
        <time>2021-08-05T13:49:07.727Z</time>
      </trkpt>
      <trkpt lat="43.09956908226013" lon="-0.9168970584869385">
        <ele>306.10509119290566</ele>
        <time>2021-08-05T13:49:23.674Z</time>
      </trkpt>
      <trkpt lat="43.09942960739136" lon="-0.9174978733062744">
        <ele>307.81591365523104</ele>
        <time>2021-08-05T13:49:39.629Z</time>
      </trkpt>
      <trkpt lat="43.0994188785553" lon="-0.9176373481750488">
        <ele>309.4748050004956</ele>
        <time>2021-08-05T13:49:55.585Z</time>
      </trkpt>
      <trkpt lat="43.09944033622742" lon="-0.9180772304534912">
        <ele>311.2092283390854</ele>
        <time>2021-08-05T13:50:11.547Z</time>
      </trkpt>
      <trkpt lat="43.09957989491522" lon="-0.9184527397155762">
        <ele>313.0850043189639</ele>
        <time>2021-08-05T13:50:27.514Z</time>
      </trkpt>
      <trkpt lat="43.09969782829285" lon="-0.9187638759613037">
        <ele>315.0018713378656</ele>
        <time>2021-08-05T13:50:43.485Z</time>
      </trkpt>
      <trkpt lat="43.0998158454895" lon="-0.9189999103546143">
        <ele>316.95491559189844</ele>
        <time>2021-08-05T13:50:59.459Z</time>
      </trkpt>
      <trkpt lat="43.10006260871887" lon="-0.9193432331085205">
        <ele>318.9259918072612</ele>
        <time>2021-08-05T13:51:15.439Z</time>
      </trkpt>
      <trkpt lat="43.10019135475159" lon="-0.919579267501831">
        <ele>320.9997476309982</ele>
        <time>2021-08-05T13:51:31.422Z</time>
      </trkpt>
      <trkpt lat="43.10043811798096" lon="-0.9204912185668945">
        <ele>323.16450181523203</ele>
        <time>2021-08-05T13:51:47.416Z</time>
      </trkpt>
      <trkpt lat="43.100502490997314" lon="-0.9210169315338135">
        <ele>325.6056883995091</ele>
        <time>2021-08-05T13:52:03.417Z</time>
      </trkpt>
      <trkpt lat="43.10059905052185" lon="-0.9214568138122559">
        <ele>328.34118082047246</ele>
        <time>2021-08-05T13:52:19.423Z</time>
      </trkpt>
      <trkpt lat="43.10067415237427" lon="-0.9215748310089111">
        <ele>331.03965706583335</ele>
        <time>2021-08-05T13:52:35.431Z</time>
      </trkpt>
      <trkpt lat="43.100759983062744" lon="-0.9216070175170898">
        <ele>333.77311152046445</ele>
        <time>2021-08-05T13:52:51.440Z</time>
      </trkpt>
      <trkpt lat="43.100974559783936" lon="-0.9215962886810303">
        <ele>336.63514753171</ele>
        <time>2021-08-05T13:53:07.453Z</time>
      </trkpt>
      <trkpt lat="43.101457357406616" lon="-0.9214997291564941">
        <ele>339.8461889939557</ele>
        <time>2021-08-05T13:53:23.474Z</time>
      </trkpt>
      <trkpt lat="43.101489543914795" lon="-0.921553373336792">
        <ele>342.8926326066128</ele>
        <time>2021-08-05T13:53:39.495Z</time>
      </trkpt>
      <trkpt lat="43.101500272750854" lon="-0.9216392040252686">
        <ele>346.0599995390543</ele>
        <time>2021-08-05T13:53:55.517Z</time>
      </trkpt>
      <trkpt lat="43.10144662857056" lon="-0.9217357635498047">
        <ele>349.2555151187945</ele>
        <time>2021-08-05T13:54:11.541Z</time>
      </trkpt>
      <trkpt lat="43.10110330581665" lon="-0.9221112728118896">
        <ele>352.4241631731971</ele>
        <time>2021-08-05T13:54:27.572Z</time>
      </trkpt>
      <trkpt lat="43.10081362724304" lon="-0.9227871894836426">
        <ele>355.96745004421905</ele>
        <time>2021-08-05T13:54:43.612Z</time>
      </trkpt>
      <trkpt lat="43.10064196586609" lon="-0.9233343601226807">
        <ele>359.5656413729772</ele>
        <time>2021-08-05T13:54:59.659Z</time>
      </trkpt>
      <trkpt lat="43.100513219833374" lon="-0.9243857860565186">
        <ele>363.6350894360713</ele>
        <time>2021-08-05T13:55:15.719Z</time>
      </trkpt>
      <trkpt lat="43.10043811798096" lon="-0.9246969223022461">
        <ele>367.4141206764101</ele>
        <time>2021-08-05T13:55:31.782Z</time>
      </trkpt>
      <trkpt lat="43.10036301612854" lon="-0.9249436855316162">
        <ele>371.12712817267277</ele>
        <time>2021-08-05T13:55:47.849Z</time>
      </trkpt>
      <trkpt lat="43.10028791427612" lon="-0.9250509738922119">
        <ele>374.73338985188946</ele>
        <time>2021-08-05T13:56:03.917Z</time>
      </trkpt>
      <trkpt lat="43.10018062591553" lon="-0.9251368045806885">
        <ele>378.3631101220516</ele>
        <time>2021-08-05T13:56:19.987Z</time>
      </trkpt>
      <trkpt lat="43.10007333755493" lon="-0.9251368045806885">
        <ele>382.06191893266157</ele>
        <time>2021-08-05T13:56:36.059Z</time>
      </trkpt>
      <trkpt lat="43.09980511665344" lon="-0.9249758720397949">
        <ele>385.59712967350026</ele>
        <time>2021-08-05T13:56:52.136Z</time>
      </trkpt>
      <trkpt lat="43.099268758669496" lon="-0.9248471260070801">
        <ele>389.33911772899694</ele>
        <time>2021-08-05T13:57:08.221Z</time>
      </trkpt>
      <trkpt lat="43.098978996276855" lon="-0.9248042106628418">
        <ele>393.3956482404478</ele>
        <time>2021-08-05T13:57:24.311Z</time>
      </trkpt>
      <trkpt lat="43.09883952140808" lon="-0.9248578548431396">
        <ele>397.4375362621075</ele>
        <time>2021-08-05T13:57:40.403Z</time>
      </trkpt>
      <trkpt lat="43.09852838516235" lon="-0.9250295162200928">
        <ele>401.62893400080327</ele>
        <time>2021-08-05T13:57:56.501Z</time>
      </trkpt>
      <trkpt lat="43.09807777404785" lon="-0.9254264831542969">
        <ele>405.6938350099566</ele>
        <time>2021-08-05T13:58:12.607Z</time>
      </trkpt>
      <trkpt lat="43.09788465499878" lon="-0.9258019924163818">
        <ele>409.7656074681015</ele>
        <time>2021-08-05T13:58:28.719Z</time>
      </trkpt>
      <trkpt lat="43.09784173965454" lon="-0.9259200096130371">
        <ele>413.73767703811177</ele>
        <time>2021-08-05T13:58:44.832Z</time>
      </trkpt>
      <trkpt lat="43.09780955314636" lon="-0.9260916709899902">
        <ele>417.72430501767735</ele>
        <time>2021-08-05T13:59:00.947Z</time>
      </trkpt>
      <trkpt lat="43.09780955314636" lon="-0.9267032146453857">
        <ele>421.939026200272</ele>
        <time>2021-08-05T13:59:17.069Z</time>
      </trkpt>
      <trkpt lat="43.09784173965454" lon="-0.9274649620056152">
        <ele>426.21550937961814</ele>
        <time>2021-08-05T13:59:33.200Z</time>
      </trkpt>
      <trkpt lat="43.09788465499878" lon="-0.9277439117431641">
        <ele>430.2041963468567</ele>
        <time>2021-08-05T13:59:49.335Z</time>
      </trkpt>
      <trkpt lat="43.097991943359375" lon="-0.9282159805297852">
        <ele>434.3266371095165</ele>
        <time>2021-08-05T14:00:05.476Z</time>
      </trkpt>
      <trkpt lat="43.09804558753967" lon="-0.928870439529419">
        <ele>438.2472622070576</ele>
        <time>2021-08-05T14:00:21.624Z</time>
      </trkpt>
      <trkpt lat="43.09808850288391" lon="-0.9290742874145508">
        <ele>441.98516601905305</ele>
        <time>2021-08-05T14:00:37.775Z</time>
      </trkpt>
      <trkpt lat="43.09815287590027" lon="-0.9292888641357422">
        <ele>445.70575290574806</ele>
        <time>2021-08-05T14:00:53.928Z</time>
      </trkpt>
      <trkpt lat="43.098270893096924" lon="-0.9295034408569336">
        <ele>449.4484025491482</ele>
        <time>2021-08-05T14:01:10.085Z</time>
      </trkpt>
      <trkpt lat="43.09868931770325" lon="-0.9298789501190186">
        <ele>453.53811389770567</ele>
        <time>2021-08-05T14:01:26.250Z</time>
      </trkpt>
      <trkpt lat="43.09909701347351" lon="-0.9303832054138184">
        <ele>457.0991441612547</ele>
        <time>2021-08-05T14:01:42.423Z</time>
      </trkpt>
      <trkpt lat="43.09938677586615" lon="-0.9305870532989502">
        <ele>460.80051412236367</ele>
        <time>2021-08-05T14:01:58.602Z</time>
      </trkpt>
      <trkpt lat="43.09953689575195" lon="-0.9307372570037842">
        <ele>464.17000369838314</ele>
        <time>2021-08-05T14:02:14.784Z</time>
      </trkpt>
      <trkpt lat="43.0999231338501" lon="-0.9312522411346436">
        <ele>467.5863198606021</ele>
        <time>2021-08-05T14:02:30.974Z</time>
      </trkpt>
      <trkpt lat="43.10038447380066" lon="-0.9315633773803711">
        <ele>470.90704119836903</ele>
        <time>2021-08-05T14:02:47.172Z</time>
      </trkpt>
      <trkpt lat="43.1009316444397" lon="-0.9318101406097412">
        <ele>474.02368209548274</ele>
        <time>2021-08-05T14:03:03.380Z</time>
      </trkpt>
      <trkpt lat="43.101017475128174" lon="-0.9319067001342773">
        <ele>476.92306245726024</ele>
        <time>2021-08-05T14:03:19.589Z</time>
      </trkpt>
      <trkpt lat="43.10107111930847" lon="-0.9320354461669922">
        <ele>479.6756312984536</ele>
        <time>2021-08-05T14:03:35.800Z</time>
      </trkpt>
      <trkpt lat="43.10111403465271" lon="-0.9322178363800049">
        <ele>482.27565759423464</ele>
        <time>2021-08-05T14:03:52.013Z</time>
      </trkpt>
      <trkpt lat="43.10116767883301" lon="-0.9323573112487793">
        <ele>484.8357653417885</ele>
        <time>2021-08-05T14:04:08.228Z</time>
      </trkpt>
      <trkpt lat="43.101242780685425" lon="-0.9324431419372559">
        <ele>487.385446784531</ele>
        <time>2021-08-05T14:04:24.445Z</time>
      </trkpt>
      <trkpt lat="43.10135006904602" lon="-0.9324753284454346">
        <ele>489.9261836570461</ele>
        <time>2021-08-05T14:04:40.664Z</time>
      </trkpt>
      <trkpt lat="43.10186505317688" lon="-0.9324753284454346">
        <ele>492.8340530793622</ele>
        <time>2021-08-05T14:04:56.891Z</time>
      </trkpt>
      <trkpt lat="43.10192942619324" lon="-0.9324967861175537">
        <ele>495.2041256720785</ele>
        <time>2021-08-05T14:05:13.119Z</time>
      </trkpt>
      <trkpt lat="43.10202598571777" lon="-0.9325611591339111">
        <ele>497.5501553620585</ele>
        <time>2021-08-05T14:05:29.349Z</time>
      </trkpt>
      <trkpt lat="43.1020797137171" lon="-0.9326362609863281">
        <ele>499.80176864389216</ele>
        <time>2021-08-05T14:05:45.580Z</time>
      </trkpt>
      <trkpt lat="43.10210108757019" lon="-0.9327971935272217">
        <ele>501.97659779785397</ele>
        <time>2021-08-05T14:06:01.813Z</time>
      </trkpt>
      <trkpt lat="43.10205817222595" lon="-0.9332478046417236">
        <ele>504.1031683711293</ele>
        <time>2021-08-05T14:06:18.051Z</time>
      </trkpt>
      <trkpt lat="43.10189723968506" lon="-0.933762788772583">
        <ele>506.2171464066802</ele>
        <time>2021-08-05T14:06:34.296Z</time>
      </trkpt>
      <trkpt lat="43.101714849472046" lon="-0.9341168403625488">
        <ele>508.3314651398033</ele>
        <time>2021-08-05T14:06:50.546Z</time>
      </trkpt>
      <trkpt lat="43.10163974761963" lon="-0.9343421459197998">
        <ele>510.61089586114576</ele>
        <time>2021-08-05T14:07:06.799Z</time>
      </trkpt>
      <trkpt lat="43.10154318809509" lon="-0.9345245361328125">
        <ele>512.8804266158461</ele>
        <time>2021-08-05T14:07:23.054Z</time>
      </trkpt>
      <trkpt lat="43.10141444206238" lon="-0.9346532821655273">
        <ele>515.1716231105702</ele>
        <time>2021-08-05T14:07:39.312Z</time>
      </trkpt>
      <trkpt lat="43.100974559783936" lon="-0.9348142147064209">
        <ele>517.2695182522773</ele>
        <time>2021-08-05T14:07:55.577Z</time>
      </trkpt>
      <trkpt lat="43.1008780002594" lon="-0.934910774230957">
        <ele>519.6157346730866</ele>
        <time>2021-08-05T14:08:11.844Z</time>
      </trkpt>
      <trkpt lat="43.100727796554565" lon="-0.9351253509521484">
        <ele>522.0950869492419</ele>
        <time>2021-08-05T14:08:28.115Z</time>
      </trkpt>
      <trkpt lat="43.10057759284973" lon="-0.935511589050293">
        <ele>524.7211004736406</ele>
        <time>2021-08-05T14:08:44.391Z</time>
      </trkpt>
      <trkpt lat="43.100534761324525" lon="-0.93558669090271">
        <ele>527.191913557698</ele>
        <time>2021-08-05T14:09:00.668Z</time>
      </trkpt>
      <trkpt lat="43.100459575653076" lon="-0.9357047080993652">
        <ele>529.7212123290974</ele>
        <time>2021-08-05T14:09:16.947Z</time>
      </trkpt>
      <trkpt lat="43.10038447380066" lon="-0.9359192848205566">
        <ele>532.378992400397</ele>
        <time>2021-08-05T14:09:33.228Z</time>
      </trkpt>
      <trkpt lat="43.100266456604004" lon="-0.9363913536071777">
        <ele>535.3493902923109</ele>
        <time>2021-08-05T14:09:49.515Z</time>
      </trkpt>
      <trkpt lat="43.10014852322638" lon="-0.9367024898529053">
        <ele>538.2375805826917</ele>
        <time>2021-08-05T14:10:05.806Z</time>
      </trkpt>
      <trkpt lat="43.100019693374634" lon="-0.937035083770752">
        <ele>541.1796066217205</ele>
        <time>2021-08-05T14:10:22.102Z</time>
      </trkpt>
      <trkpt lat="43.099740743637085" lon="-0.9372389316558838">
        <ele>543.9750367515146</ele>
        <time>2021-08-05T14:10:38.403Z</time>
      </trkpt>
      <trkpt lat="43.09967637062073" lon="-0.9373354911804199">
        <ele>546.9311961104788</ele>
        <time>2021-08-05T14:10:54.705Z</time>
      </trkpt>
      <trkpt lat="43.09939742088318" lon="-0.9378933906555176">
        <ele>550.2082953934371</ele>
        <time>2021-08-05T14:11:11.015Z</time>
      </trkpt>
      <trkpt lat="43.09917211532593" lon="-0.9384191036224365">
        <ele>553.3639683355548</ele>
        <time>2021-08-05T14:11:27.332Z</time>
      </trkpt>
      <trkpt lat="43.09909701347351" lon="-0.938955545425415">
        <ele>556.6084737966155</ele>
        <time>2021-08-05T14:11:43.656Z</time>
      </trkpt>
      <trkpt lat="43.09909709729254" lon="-0.938955545425415">
        <ele>559.7445945562575</ele>
        <time>2021-08-05T14:11:59.980Z</time>
      </trkpt>
      <trkpt lat="43.09935450553894" lon="-0.9396958351135254">
        <ele>563.2799684553919</ele>
        <time>2021-08-05T14:12:16.313Z</time>
      </trkpt>
      <trkpt lat="43.099472522735596" lon="-0.9402322769165039">
        <ele>566.7471438966268</ele>
        <time>2021-08-05T14:12:32.653Z</time>
      </trkpt>
      <trkpt lat="43.099526166915894" lon="-0.9405219554901123">
        <ele>570.1931328422123</ele>
        <time>2021-08-05T14:12:48.996Z</time>
      </trkpt>
      <trkpt lat="43.09954762458801" lon="-0.9407150745391846">
        <ele>573.5584597945613</ele>
        <time>2021-08-05T14:13:05.342Z</time>
      </trkpt>
      <trkpt lat="43.09953689575195" lon="-0.9411764144897461">
        <ele>576.9609481735517</ele>
        <time>2021-08-05T14:13:21.693Z</time>
      </trkpt>
      <trkpt lat="43.09955835342407" lon="-0.9419596195220947">
        <ele>580.4672861269805</ele>
        <time>2021-08-05T14:13:38.053Z</time>
      </trkpt>
      <trkpt lat="43.09945106506348" lon="-0.9429359436035156">
        <ele>584.1894876490353</ele>
        <time>2021-08-05T14:13:54.425Z</time>
      </trkpt>
      <trkpt lat="43.09930086135864" lon="-0.9434938430786133">
        <ele>587.5345536520596</ele>
        <time>2021-08-05T14:14:10.804Z</time>
      </trkpt>
      <trkpt lat="43.099215030670166" lon="-0.9439659118652344">
        <ele>590.845583286771</ele>
        <time>2021-08-05T14:14:27.189Z</time>
      </trkpt>
      <trkpt lat="43.098775148391724" lon="-0.9453070163726807">
        <ele>594.0130866377634</ele>
        <time>2021-08-05T14:14:43.591Z</time>
      </trkpt>
      <trkpt lat="43.09866786003113" lon="-0.9455108642578125">
        <ele>597.2498873926596</ele>
        <time>2021-08-05T14:14:59.996Z</time>
      </trkpt>
      <trkpt lat="43.09853911399841" lon="-0.9456932544708252">
        <ele>600.4336106160297</ele>
        <time>2021-08-05T14:15:16.404Z</time>
      </trkpt>
      <trkpt lat="43.09843190945685" lon="-0.9458005428314209">
        <ele>603.5847516046344</ele>
        <time>2021-08-05T14:15:32.814Z</time>
      </trkpt>
      <trkpt lat="43.09807777404785" lon="-0.9461009502410889">
        <ele>606.7314835336736</ele>
        <time>2021-08-05T14:15:49.231Z</time>
      </trkpt>
      <trkpt lat="43.09807785786688" lon="-0.9461009502410889">
        <ele>609.6839856897483</ele>
        <time>2021-08-05T14:16:05.648Z</time>
      </trkpt>
      <trkpt lat="43.09780955314636" lon="-0.946497917175293">
        <ele>612.6645211232258</ele>
        <time>2021-08-05T14:16:22.071Z</time>
      </trkpt>
      <trkpt lat="43.097734451293945" lon="-0.9466803073883057">
        <ele>615.5828151363775</ele>
        <time>2021-08-05T14:16:38.496Z</time>
      </trkpt>
      <trkpt lat="43.09773453511298" lon="-0.9466803073883057">
        <ele>618.3394292631142</ele>
        <time>2021-08-05T14:16:54.921Z</time>
      </trkpt>
      <trkpt lat="43.097015619277954" lon="-0.9482896327972412">
        <ele>621.7186025480386</ele>
        <time>2021-08-05T14:17:11.368Z</time>
      </trkpt>
      <trkpt lat="43.096779584884644" lon="-0.9489655494689941">
        <ele>624.5203040304921</ele>
        <time>2021-08-05T14:17:27.824Z</time>
      </trkpt>
      <trkpt lat="43.09665083885193" lon="-0.9494161605834961">
        <ele>627.131693506117</ele>
        <time>2021-08-05T14:17:44.286Z</time>
      </trkpt>
      <trkpt lat="43.09648999013007" lon="-0.949866771697998">
        <ele>629.6465164783092</ele>
        <time>2021-08-05T14:18:00.754Z</time>
      </trkpt>
      <trkpt lat="43.096479177474976" lon="-0.9498989582061768">
        <ele>632.002138040256</ele>
        <time>2021-08-05T14:18:17.222Z</time>
      </trkpt>
      <trkpt lat="43.096500635147095" lon="-0.9499526023864746">
        <ele>634.3045647123906</ele>
        <time>2021-08-05T14:18:33.691Z</time>
      </trkpt>
      <trkpt lat="43.09654355049133" lon="-0.9499633312225342">
        <ele>636.53048477574</ele>
        <time>2021-08-05T14:18:50.161Z</time>
      </trkpt>
      <trkpt lat="43.09658646583557" lon="-0.9499311447143555">
        <ele>638.6666544952764</ele>
        <time>2021-08-05T14:19:06.631Z</time>
      </trkpt>
      <trkpt lat="43.0966938380152" lon="-0.9496951103210449">
        <ele>640.7168188965297</ele>
        <time>2021-08-05T14:19:23.105Z</time>
      </trkpt>
      <trkpt lat="43.09690833091736" lon="-0.9493732452392578">
        <ele>642.7340054519968</ele>
        <time>2021-08-05T14:19:39.584Z</time>
      </trkpt>
      <trkpt lat="43.097015619277954" lon="-0.949244499206543">
        <ele>644.6765565731712</ele>
        <time>2021-08-05T14:19:56.065Z</time>
      </trkpt>
      <trkpt lat="43.09732675552368" lon="-0.9490084648132324">
        <ele>646.6472287568461</ele>
        <time>2021-08-05T14:20:12.552Z</time>
      </trkpt>
      <trkpt lat="43.09744477272034" lon="-0.9487617015838623">
        <ele>648.3617849089374</ele>
        <time>2021-08-05T14:20:29.042Z</time>
      </trkpt>
      <trkpt lat="43.097509145736694" lon="-0.948718786239624">
        <ele>650.0939536784088</ele>
        <time>2021-08-05T14:20:45.533Z</time>
      </trkpt>
      <trkpt lat="43.09755206108093" lon="-0.9487402439117432">
        <ele>651.8091155200573</ele>
        <time>2021-08-05T14:21:02.025Z</time>
      </trkpt>
      <trkpt lat="43.09756278991699" lon="-0.9488260746002197">
        <ele>653.4919640800828</ele>
        <time>2021-08-05T14:21:18.518Z</time>
      </trkpt>
      <trkpt lat="43.097466230392456" lon="-0.9491586685180664">
        <ele>655.2036435319396</ele>
        <time>2021-08-05T14:21:35.015Z</time>
      </trkpt>
      <trkpt lat="43.09744485653937" lon="-0.9493732452392578">
        <ele>656.8284660056163</ele>
        <time>2021-08-05T14:21:51.515Z</time>
      </trkpt>
      <trkpt lat="43.09743404388428" lon="-0.9496629238128662">
        <ele>658.4747764244896</ele>
        <time>2021-08-05T14:22:08.018Z</time>
      </trkpt>
      <trkpt lat="43.09739112854004" lon="-0.9499847888946533">
        <ele>660.086302017009</ele>
        <time>2021-08-05T14:22:24.525Z</time>
      </trkpt>
      <trkpt lat="43.09741258621216" lon="-0.950092077255249">
        <ele>661.6852164169567</ele>
        <time>2021-08-05T14:22:41.033Z</time>
      </trkpt>
      <trkpt lat="43.097476959228516" lon="-0.9502530097961426">
        <ele>663.3401619480055</ele>
        <time>2021-08-05T14:22:57.543Z</time>
      </trkpt>
      <trkpt lat="43.097498416900635" lon="-0.9503388404846191">
        <ele>664.9089766444927</ele>
        <time>2021-08-05T14:23:14.055Z</time>
      </trkpt>
      <trkpt lat="43.09749850071967" lon="-0.9503388404846191">
        <ele>666.4352154286482</ele>
        <time>2021-08-05T14:23:30.567Z</time>
      </trkpt>
      <trkpt lat="43.09754133224487" lon="-0.9505319595336914">
        <ele>668.0727669897709</ele>
        <time>2021-08-05T14:23:47.081Z</time>
      </trkpt>
      <trkpt lat="43.09754133224487" lon="-0.9508001804351807">
        <ele>669.6941150161031</ele>
        <time>2021-08-05T14:24:03.598Z</time>
      </trkpt>
      <trkpt lat="43.097509145736694" lon="-0.9509611129760742">
        <ele>671.2944539146245</ele>
        <time>2021-08-05T14:24:20.117Z</time>
      </trkpt>
      <trkpt lat="43.0974555015564" lon="-0.9511327743530273">
        <ele>672.9426691164228</ele>
        <time>2021-08-05T14:24:36.638Z</time>
      </trkpt>
      <trkpt lat="43.0972945690155" lon="-0.9514760971069336">
        <ele>674.6501670155619</ele>
        <time>2021-08-05T14:24:53.164Z</time>
      </trkpt>
      <trkpt lat="43.097262382507324" lon="-0.9515726566314697">
        <ele>676.4001287750762</ele>
        <time>2021-08-05T14:25:09.691Z</time>
      </trkpt>
      <trkpt lat="43.097251653671265" lon="-0.9520232677459717">
        <ele>678.351700348761</ele>
        <time>2021-08-05T14:25:26.224Z</time>
      </trkpt>
      <trkpt lat="43.097037160769105" lon="-0.9526026248931885">
        <ele>680.34154997139</ele>
        <time>2021-08-05T14:25:42.764Z</time>
      </trkpt>
      <trkpt lat="43.09688687324524" lon="-0.9530532360076904">
        <ele>682.4261741347996</ele>
        <time>2021-08-05T14:25:59.310Z</time>
      </trkpt>
      <trkpt lat="43.096779584884644" lon="-0.953289270401001">
        <ele>684.466706467294</ele>
        <time>2021-08-05T14:26:15.859Z</time>
      </trkpt>
      <trkpt lat="43.09655427932739" lon="-0.953514575958252">
        <ele>686.4811671503122</ele>
        <time>2021-08-05T14:26:32.413Z</time>
      </trkpt>
      <trkpt lat="43.09643626213074" lon="-0.9536647796630859">
        <ele>688.6207266772919</ele>
        <time>2021-08-05T14:26:48.969Z</time>
      </trkpt>
      <trkpt lat="43.09635043144226" lon="-0.9539008140563965">
        <ele>690.8817154148655</ele>
        <time>2021-08-05T14:27:05.528Z</time>
      </trkpt>
      <trkpt lat="43.096253871917725" lon="-0.9543192386627197">
        <ele>693.3484641123316</ele>
        <time>2021-08-05T14:27:22.092Z</time>
      </trkpt>
      <trkpt lat="43.09620022773743" lon="-0.9544265270233154">
        <ele>695.7890632181727</ele>
        <time>2021-08-05T14:27:38.658Z</time>
      </trkpt>
      <trkpt lat="43.095760345458984" lon="-0.9549200534820557">
        <ele>698.2967440632096</ele>
        <time>2021-08-05T14:27:55.233Z</time>
      </trkpt>
      <trkpt lat="43.09562087059021" lon="-0.9550166130065918">
        <ele>700.9244540395223</ele>
        <time>2021-08-05T14:28:11.811Z</time>
      </trkpt>
      <trkpt lat="43.095020055770874" lon="-0.9551990032196045">
        <ele>703.8944521598235</ele>
        <time>2021-08-05T14:28:28.398Z</time>
      </trkpt>
      <trkpt lat="43.094762563705444" lon="-0.9553921222686768">
        <ele>706.8617052956372</ele>
        <time>2021-08-05T14:28:44.990Z</time>
      </trkpt>
      <trkpt lat="43.09467673301697" lon="-0.9555637836456299">
        <ele>709.8015561503154</ele>
        <time>2021-08-05T14:29:01.585Z</time>
      </trkpt>
      <trkpt lat="43.09453725814819" lon="-0.9559392929077148">
        <ele>712.8901386125285</ele>
        <time>2021-08-05T14:29:18.185Z</time>
      </trkpt>
      <trkpt lat="43.09429049491882" lon="-0.9564006328582764">
        <ele>716.1326731507962</ele>
        <time>2021-08-05T14:29:34.791Z</time>
      </trkpt>
      <trkpt lat="43.09417247772217" lon="-0.956658124923706">
        <ele>719.3931614118877</ele>
        <time>2021-08-05T14:29:51.401Z</time>
      </trkpt>
      <trkpt lat="43.09379696846008" lon="-0.9570121765136719">
        <ele>722.6714873111011</ele>
        <time>2021-08-05T14:30:08.018Z</time>
      </trkpt>
      <trkpt lat="43.09365749359131" lon="-0.9571945667266846">
        <ele>725.9892357531307</ele>
        <time>2021-08-05T14:30:24.638Z</time>
      </trkpt>
      <trkpt lat="43.093496561050415" lon="-0.9574520587921143">
        <ele>729.4145993795553</ele>
        <time>2021-08-05T14:30:41.262Z</time>
      </trkpt>
      <trkpt lat="43.09335708618164" lon="-0.9579026699066162">
        <ele>733.0375652214013</ele>
        <time>2021-08-05T14:30:57.892Z</time>
      </trkpt>
      <trkpt lat="43.092767084017396" lon="-0.9588682651519775">
        <ele>736.7352972063703</ele>
        <time>2021-08-05T14:31:14.537Z</time>
      </trkpt>
      <trkpt lat="43.09260606765747" lon="-0.9592759609222412">
        <ele>740.2463234481874</ele>
        <time>2021-08-05T14:31:31.187Z</time>
      </trkpt>
      <trkpt lat="43.09243440628052" lon="-0.9598445892333984">
        <ele>743.9676638015225</ele>
        <time>2021-08-05T14:31:47.844Z</time>
      </trkpt>
      <trkpt lat="43.09229493141174" lon="-0.9603917598724365">
        <ele>747.6177864593149</ele>
        <time>2021-08-05T14:32:04.508Z</time>
      </trkpt>
      <trkpt lat="43.092262744903564" lon="-0.9606277942657471">
        <ele>751.1719572461826</ele>
        <time>2021-08-05T14:32:21.175Z</time>
      </trkpt>
      <trkpt lat="43.092230558395386" lon="-0.9610462188720703">
        <ele>754.8494154667271</ele>
        <time>2021-08-05T14:32:37.847Z</time>
      </trkpt>
      <trkpt lat="43.09220910072327" lon="-0.9611964225769043">
        <ele>758.309784467953</ele>
        <time>2021-08-05T14:32:54.521Z</time>
      </trkpt>
      <trkpt lat="43.09208035469055" lon="-0.9614646434783936">
        <ele>761.7333215342449</ele>
        <time>2021-08-05T14:33:11.198Z</time>
      </trkpt>
      <trkpt lat="43.0919086933136" lon="-0.9616577625274658">
        <ele>765.0980459364259</ele>
        <time>2021-08-05T14:33:27.879Z</time>
      </trkpt>
      <trkpt lat="43.091715574264526" lon="-0.9617328643798828">
        <ele>768.2710320022431</ele>
        <time>2021-08-05T14:33:44.563Z</time>
      </trkpt>
      <trkpt lat="43.09159755706787" lon="-0.9618186950683594">
        <ele>771.4532562606478</ele>
        <time>2021-08-05T14:34:01.249Z</time>
      </trkpt>
      <trkpt lat="43.09154391288757" lon="-0.9619796276092529">
        <ele>774.7153045285926</ele>
        <time>2021-08-05T14:34:17.937Z</time>
      </trkpt>
      <trkpt lat="43.091490268707275" lon="-0.9622156620025635">
        <ele>777.9385711596155</ele>
        <time>2021-08-05T14:34:34.628Z</time>
      </trkpt>
      <trkpt lat="43.091479539871216" lon="-0.9624302387237549">
        <ele>781.069292362969</ele>
        <time>2021-08-05T14:34:51.322Z</time>
      </trkpt>
      <trkpt lat="43.091511726379395" lon="-0.9627199172973633">
        <ele>784.1377257555175</ele>
        <time>2021-08-05T14:35:08.019Z</time>
      </trkpt>
      <trkpt lat="43.09156537055969" lon="-0.96305251121521">
        <ele>787.0493327567591</ele>
        <time>2021-08-05T14:35:24.720Z</time>
      </trkpt>
      <trkpt lat="43.091565454378724" lon="-0.96305251121521">
        <ele>789.7910557667967</ele>
        <time>2021-08-05T14:35:41.421Z</time>
      </trkpt>
      <trkpt lat="43.09154391288757" lon="-0.9631919860839844">
        <ele>792.4184829259948</ele>
        <time>2021-08-05T14:35:58.124Z</time>
      </trkpt>
      <trkpt lat="43.0914044380188" lon="-0.9635138511657715">
        <ele>794.9605717843791</ele>
        <time>2021-08-05T14:36:14.831Z</time>
      </trkpt>
      <trkpt lat="43.09137225151062" lon="-0.963674783706665">
        <ele>797.4168857531247</ele>
        <time>2021-08-05T14:36:31.540Z</time>
      </trkpt>
      <trkpt lat="43.09137225151062" lon="-0.9637713432312012">
        <ele>799.74187155859</ele>
        <time>2021-08-05T14:36:48.250Z</time>
      </trkpt>
      <trkpt lat="43.09138298034668" lon="-0.9639108180999756">
        <ele>801.9487385532154</ele>
        <time>2021-08-05T14:37:04.962Z</time>
      </trkpt>
      <trkpt lat="43.09144735336304" lon="-0.9642112255096436">
        <ele>804.134817508801</ele>
        <time>2021-08-05T14:37:21.678Z</time>
      </trkpt>
      <trkpt lat="43.09167265892029" lon="-0.9651017189025879">
        <ele>806.4036717413021</ele>
        <time>2021-08-05T14:37:38.405Z</time>
      </trkpt>
      <trkpt lat="43.091747760772705" lon="-0.9657132625579834">
        <ele>808.1678433701979</ele>
        <time>2021-08-05T14:37:55.139Z</time>
      </trkpt>
      <trkpt lat="43.09187650680542" lon="-0.9661102294921875">
        <ele>810.0171566296449</ele>
        <time>2021-08-05T14:38:11.878Z</time>
      </trkpt>
      <trkpt lat="43.092005252838135" lon="-0.9667110443115234">
        <ele>811.6790976434567</ele>
        <time>2021-08-05T14:38:28.624Z</time>
      </trkpt>
      <trkpt lat="43.09203743934631" lon="-0.9669148921966553">
        <ele>812.931017994461</ele>
        <time>2021-08-05T14:38:45.373Z</time>
      </trkpt>
      <trkpt lat="43.092026710510254" lon="-0.9671509265899658">
        <ele>813.9168281334512</ele>
        <time>2021-08-05T14:39:02.125Z</time>
      </trkpt>
      <trkpt lat="43.091983795166016" lon="-0.9675800800323486">
        <ele>814.65553527116</ele>
        <time>2021-08-05T14:39:18.882Z</time>
      </trkpt>
      <trkpt lat="43.09197315014899" lon="-0.9679234027862549">
        <ele>815.3562330228642</ele>
        <time>2021-08-05T14:39:35.643Z</time>
      </trkpt>
      <trkpt lat="43.09205889701843" lon="-0.9683418273925781">
        <ele>815.9679924664971</ele>
        <time>2021-08-05T14:39:52.409Z</time>
      </trkpt>
      <trkpt lat="43.09216618537903" lon="-0.9686744213104248">
        <ele>816.2722985006839</ele>
        <time>2021-08-05T14:40:09.179Z</time>
      </trkpt>
      <trkpt lat="43.092262744903564" lon="-0.9690713882446289">
        <ele>816.4069750086742</ele>
        <time>2021-08-05T14:40:25.954Z</time>
      </trkpt>
      <trkpt lat="43.09235938824713" lon="-0.9697794914245605">
        <ele>816.3071259372955</ele>
        <time>2021-08-05T14:40:42.737Z</time>
      </trkpt>
      <trkpt lat="43.09237003326416" lon="-0.9698653221130371">
        <ele>815.9675382976079</ele>
        <time>2021-08-05T14:40:59.521Z</time>
      </trkpt>
      <trkpt lat="43.09241303242743" lon="-0.9700798988342285">
        <ele>815.4954487563992</ele>
        <time>2021-08-05T14:41:16.308Z</time>
      </trkpt>
      <trkpt lat="43.09259533882141" lon="-0.970766544342041">
        <ele>814.8190597061536</ele>
        <time>2021-08-05T14:41:33.104Z</time>
      </trkpt>
      <trkpt lat="43.09262752532959" lon="-0.9711205959320068">
        <ele>813.8666877447806</ele>
        <time>2021-08-05T14:41:49.904Z</time>
      </trkpt>
      <trkpt lat="43.09263825416565" lon="-0.9717428684234619">
        <ele>812.7912637360855</ele>
        <time>2021-08-05T14:42:06.711Z</time>
      </trkpt>
      <trkpt lat="43.09270262718201" lon="-0.9724509716033936">
        <ele>811.4507809721456</ele>
        <time>2021-08-05T14:42:23.526Z</time>
      </trkpt>
      <trkpt lat="43.09284210205078" lon="-0.9743285179138184">
        <ele>809.5181570477106</ele>
        <time>2021-08-05T14:42:40.364Z</time>
      </trkpt>
      <trkpt lat="43.09294939041138" lon="-0.9754443168640137">
        <ele>807.7196156064833</ele>
        <time>2021-08-05T14:42:57.215Z</time>
      </trkpt>
      <trkpt lat="43.09294947423041" lon="-0.9754443168640137">
        <ele>806.3442033115574</ele>
        <time>2021-08-05T14:43:14.066Z</time>
      </trkpt>
      <trkpt lat="43.093013763427734" lon="-0.9756910800933838">
        <ele>804.7426670671949</ele>
        <time>2021-08-05T14:43:30.920Z</time>
      </trkpt>
      <trkpt lat="43.09314250946045" lon="-0.975959300994873">
        <ele>803.1775260785253</ele>
        <time>2021-08-05T14:43:47.778Z</time>
      </trkpt>
      <trkpt lat="43.093271255493164" lon="-0.9761309623718262">
        <ele>801.6465350627086</ele>
        <time>2021-08-05T14:44:04.638Z</time>
      </trkpt>
      <trkpt lat="43.09356093406677" lon="-0.9763669967651367">
        <ele>800.1027190450266</ele>
        <time>2021-08-05T14:44:21.504Z</time>
      </trkpt>
      <trkpt lat="43.09367895126343" lon="-0.976485013961792">
        <ele>798.6383031998341</ele>
        <time>2021-08-05T14:44:38.372Z</time>
      </trkpt>
      <trkpt lat="43.09383988380432" lon="-0.9766995906829834">
        <ele>797.2815060019476</ele>
        <time>2021-08-05T14:44:55.244Z</time>
      </trkpt>
      <trkpt lat="43.09393644332886" lon="-0.9767746925354004">
        <ele>795.9074589012638</ele>
        <time>2021-08-05T14:45:12.118Z</time>
      </trkpt>
      <trkpt lat="43.094022274017334" lon="-0.9768176078796387">
        <ele>794.5861641909746</ele>
        <time>2021-08-05T14:45:28.993Z</time>
      </trkpt>
      <trkpt lat="43.09410810470581" lon="-0.9768176078796387">
        <ele>793.3474956393337</ele>
        <time>2021-08-05T14:45:45.869Z</time>
      </trkpt>
      <trkpt lat="43.09433341026306" lon="-0.9766888618469238">
        <ele>792.2589846190159</ele>
        <time>2021-08-05T14:46:02.749Z</time>
      </trkpt>
      <trkpt lat="43.09444069862366" lon="-0.9768712520599365">
        <ele>791.2375848111914</ele>
        <time>2021-08-05T14:46:19.632Z</time>
      </trkpt>
      <trkpt lat="43.09469819068909" lon="-0.9774506092071533">
        <ele>790.2887785158338</ele>
        <time>2021-08-05T14:46:36.523Z</time>
      </trkpt>
      <trkpt lat="43.09480547904968" lon="-0.9777295589447021">
        <ele>789.4866207556574</ele>
        <time>2021-08-05T14:46:53.418Z</time>
      </trkpt>
      <trkpt lat="43.0953848361969" lon="-0.9795534610748291">
        <ele>789.0571497242781</ele>
        <time>2021-08-05T14:47:10.336Z</time>
      </trkpt>
      <trkpt lat="43.09541702270508" lon="-0.9797465801239014">
        <ele>788.4627246613647</ele>
        <time>2021-08-05T14:47:27.256Z</time>
      </trkpt>
      <trkpt lat="43.09544920921326" lon="-0.9802401065826416">
        <ele>788.0183966170819</ele>
        <time>2021-08-05T14:47:44.182Z</time>
      </trkpt>
      <trkpt lat="43.095492124557495" lon="-0.9805190563201904">
        <ele>787.7270045080236</ele>
        <time>2021-08-05T14:48:01.111Z</time>
      </trkpt>
      <trkpt lat="43.09562087059021" lon="-0.9809911251068115">
        <ele>787.5456438801389</ele>
        <time>2021-08-05T14:48:18.046Z</time>
      </trkpt>
      <trkpt lat="43.09567451477051" lon="-0.9813022613525391">
        <ele>787.4497572512648</ele>
        <time>2021-08-05T14:48:34.985Z</time>
      </trkpt>
      <trkpt lat="43.095760345458984" lon="-0.9816563129425049">
        <ele>787.5695782231169</ele>
        <time>2021-08-05T14:48:51.929Z</time>
      </trkpt>
      <trkpt lat="43.09581398963928" lon="-0.9819889068603516">
        <ele>787.7708011176812</ele>
        <time>2021-08-05T14:49:08.877Z</time>
      </trkpt>
      <trkpt lat="43.0958890914917" lon="-0.9826540946960449">
        <ele>788.0736776618219</ele>
        <time>2021-08-05T14:49:25.832Z</time>
      </trkpt>
      <trkpt lat="43.09592127799988" lon="-0.9832978248596191">
        <ele>788.641775942851</ele>
        <time>2021-08-05T14:49:42.795Z</time>
      </trkpt>
      <trkpt lat="43.095942735672" lon="-0.9834587574005127">
        <ele>789.2170703053109</ele>
        <time>2021-08-05T14:49:59.760Z</time>
      </trkpt>
      <trkpt lat="43.096007108688354" lon="-0.9836196899414062">
        <ele>789.9833926011071</ele>
        <time>2021-08-05T14:50:16.727Z</time>
      </trkpt>
      <trkpt lat="43.096221685409546" lon="-0.9840381145477295">
        <ele>790.9865654884052</ele>
        <time>2021-08-05T14:50:33.700Z</time>
      </trkpt>
      <trkpt lat="43.09661873616278" lon="-0.9845316410064697">
        <ele>792.1829979692021</ele>
        <time>2021-08-05T14:50:50.682Z</time>
      </trkpt>
      <trkpt lat="43.09687614440918" lon="-0.9849607944488525">
        <ele>793.3668774147015</ele>
        <time>2021-08-05T14:51:07.670Z</time>
      </trkpt>
      <trkpt lat="43.09687622822821" lon="-0.9849607944488525">
        <ele>794.7719024752068</ele>
        <time>2021-08-05T14:51:24.658Z</time>
      </trkpt>
      <trkpt lat="43.097466230392456" lon="-0.9859156608581543">
        <ele>796.5936039050439</ele>
        <time>2021-08-05T14:51:41.661Z</time>
      </trkpt>
      <trkpt lat="43.09764862060547" lon="-0.986248254776001">
        <ele>798.3152368618454</ele>
        <time>2021-08-05T14:51:58.669Z</time>
      </trkpt>
      <trkpt lat="43.0978524684906" lon="-0.9867095947265625">
        <ele>800.1970919204878</ele>
        <time>2021-08-05T14:52:15.683Z</time>
      </trkpt>
      <trkpt lat="43.09807777404785" lon="-0.9871065616607666">
        <ele>802.2430599273142</ele>
        <time>2021-08-05T14:52:32.703Z</time>
      </trkpt>
      <trkpt lat="43.09815287590027" lon="-0.9872674942016602">
        <ele>804.439216705932</ele>
        <time>2021-08-05T14:52:49.725Z</time>
      </trkpt>
      <trkpt lat="43.098206520080566" lon="-0.9874176979064941">
        <ele>806.7933195969116</ele>
        <time>2021-08-05T14:53:06.749Z</time>
      </trkpt>
      <trkpt lat="43.098270893096924" lon="-0.9882974624633789">
        <ele>809.4201325993647</ele>
        <time>2021-08-05T14:53:23.783Z</time>
      </trkpt>
      <trkpt lat="43.0984103679657" lon="-0.9890592098236084">
        <ele>812.2468119968905</ele>
        <time>2021-08-05T14:53:40.827Z</time>
      </trkpt>
      <trkpt lat="43.09845328330994" lon="-0.990443229675293">
        <ele>815.1745366401597</ele>
        <time>2021-08-05T14:53:57.887Z</time>
      </trkpt>
      <trkpt lat="43.09839963912964" lon="-0.9912264347076416">
        <ele>818.333575787175</ele>
        <time>2021-08-05T14:54:14.956Z</time>
      </trkpt>
      <trkpt lat="43.098496198654175" lon="-0.9927928447723389">
        <ele>821.4939788374832</ele>
        <time>2021-08-05T14:54:32.043Z</time>
      </trkpt>
      <trkpt lat="43.09858202934265" lon="-0.9932434558868408">
        <ele>824.7684112777201</ele>
        <time>2021-08-05T14:54:49.136Z</time>
      </trkpt>
      <trkpt lat="43.098968267440796" lon="-0.9944665431976318">
        <ele>828.4821177054826</ele>
        <time>2021-08-05T14:55:06.245Z</time>
      </trkpt>
      <trkpt lat="43.09904336929321" lon="-0.9948742389678955">
        <ele>831.9212167332071</ele>
        <time>2021-08-05T14:55:23.358Z</time>
      </trkpt>
      <trkpt lat="43.09906482696533" lon="-0.9963333606719971">
        <ele>835.7677115841857</ele>
        <time>2021-08-05T14:55:40.489Z</time>
      </trkpt>
      <trkpt lat="43.09904336929321" lon="-0.9967303276062012">
        <ele>839.4261992301315</ele>
        <time>2021-08-05T14:55:57.624Z</time>
      </trkpt>
      <trkpt lat="43.098989725112915" lon="-0.9969449043273926">
        <ele>843.1585278967204</ele>
        <time>2021-08-05T14:56:14.762Z</time>
      </trkpt>
      <trkpt lat="43.09887170791626" lon="-0.9972667694091797">
        <ele>846.9640781171877</ele>
        <time>2021-08-05T14:56:31.904Z</time>
      </trkpt>
      <trkpt lat="43.09882879257202" lon="-0.9974277019500732">
        <ele>850.8813230487776</ele>
        <time>2021-08-05T14:56:49.048Z</time>
      </trkpt>
      <trkpt lat="43.09882879257202" lon="-0.9977602958679199">
        <ele>854.9525690692153</ele>
        <time>2021-08-05T14:57:06.196Z</time>
      </trkpt>
      <trkpt lat="43.09885025024414" lon="-0.9984147548675537">
        <ele>859.1407848762235</ele>
        <time>2021-08-05T14:57:23.352Z</time>
      </trkpt>
      <trkpt lat="43.09888243675232" lon="-0.9987258911132812">
        <ele>863.3319060498711</ele>
        <time>2021-08-05T14:57:40.511Z</time>
      </trkpt>
      <trkpt lat="43.099011182785034" lon="-0.9994447231292725">
        <ele>867.6989373902616</ele>
        <time>2021-08-05T14:57:57.679Z</time>
      </trkpt>
      <trkpt lat="43.09913992881775" lon="-1.0000240802764893">
        <ele>872.2320841416408</ele>
        <time>2021-08-05T14:58:14.854Z</time>
      </trkpt>
      <trkpt lat="43.099247217178345" lon="-1.0006678104400635">
        <ele>876.813217762789</ele>
        <time>2021-08-05T14:58:32.037Z</time>
      </trkpt>
      <trkpt lat="43.09929013252258" lon="-1.0014402866363525">
        <ele>881.2697481986513</ele>
        <time>2021-08-05T14:58:49.229Z</time>
      </trkpt>
      <trkpt lat="43.09929013252258" lon="-1.0019123554229736">
        <ele>885.8007151635413</ele>
        <time>2021-08-05T14:59:06.427Z</time>
      </trkpt>
      <trkpt lat="43.099268674850464" lon="-1.0022234916687012">
        <ele>890.3292694914674</ele>
        <time>2021-08-05T14:59:23.628Z</time>
      </trkpt>
      <trkpt lat="43.09908628463745" lon="-1.0030710697174072">
        <ele>895.032650235134</ele>
        <time>2021-08-05T14:59:40.840Z</time>
      </trkpt>
      <trkpt lat="43.09887170791626" lon="-1.0037362575531006">
        <ele>899.6041841259414</ele>
        <time>2021-08-05T14:59:58.060Z</time>
      </trkpt>
      <trkpt lat="43.09887179173529" lon="-1.0037362575531006">
        <ele>904.1285970723545</ele>
        <time>2021-08-05T15:00:15.280Z</time>
      </trkpt>
      <trkpt lat="43.09878587722778" lon="-1.0040366649627686">
        <ele>908.6042978613548</ele>
        <time>2021-08-05T15:00:32.504Z</time>
      </trkpt>
      <trkpt lat="43.09836753644049" lon="-1.0049700736999512">
        <ele>913.3772103524554</ele>
        <time>2021-08-05T15:00:49.741Z</time>
      </trkpt>
      <trkpt lat="43.098227977752686" lon="-1.0052490234375">
        <ele>917.9799348744291</ele>
        <time>2021-08-05T15:01:06.982Z</time>
      </trkpt>
      <trkpt lat="43.09822806157172" lon="-1.0052490234375">
        <ele>922.5151774079416</ele>
        <time>2021-08-05T15:01:24.223Z</time>
      </trkpt>
      <trkpt lat="43.098002672195435" lon="-1.0057318210601807">
        <ele>927.1121046333018</ele>
        <time>2021-08-05T15:01:41.470Z</time>
      </trkpt>
      <trkpt lat="43.09758424758911" lon="-1.0064399242401123">
        <ele>931.7879445224486</ele>
        <time>2021-08-05T15:01:58.728Z</time>
      </trkpt>
      <trkpt lat="43.096522092819214" lon="-1.008521318435669">
        <ele>937.1714447743396</ele>
        <time>2021-08-05T15:02:16.016Z</time>
      </trkpt>
      <trkpt lat="43.09569597244263" lon="-1.0109782218933105">
        <ele>942.1590802989255</ele>
        <time>2021-08-05T15:02:33.335Z</time>
      </trkpt>
      <trkpt lat="43.09528827667236" lon="-1.0120618343353271">
        <ele>946.472637577659</ele>
        <time>2021-08-05T15:02:50.669Z</time>
      </trkpt>
      <trkpt lat="43.09511661529541" lon="-1.0127270221710205">
        <ele>950.8392325752723</ele>
        <time>2021-08-05T15:03:08.011Z</time>
      </trkpt>
      <trkpt lat="43.09495568275452" lon="-1.0132098197937012">
        <ele>955.1335122680068</ele>
        <time>2021-08-05T15:03:25.359Z</time>
      </trkpt>
      <trkpt lat="43.0948805809021" lon="-1.0134458541870117">
        <ele>959.2865565001537</ele>
        <time>2021-08-05T15:03:42.710Z</time>
      </trkpt>
      <trkpt lat="43.09475191868842" lon="-1.0142290592193604">
        <ele>963.4366393822224</ele>
        <time>2021-08-05T15:04:00.071Z</time>
      </trkpt>
      <trkpt lat="43.09471973218024" lon="-1.0145938396453857">
        <ele>967.3707441356125</ele>
        <time>2021-08-05T15:04:17.436Z</time>
      </trkpt>
      <trkpt lat="43.09474118985236" lon="-1.0151731967926025">
        <ele>971.471238422747</ele>
        <time>2021-08-05T15:04:34.808Z</time>
      </trkpt>
      <trkpt lat="43.09470891952515" lon="-1.0157310962677002">
        <ele>975.3301243426979</ele>
        <time>2021-08-05T15:04:52.186Z</time>
      </trkpt>
      <trkpt lat="43.09467673301697" lon="-1.0160958766937256">
        <ele>979.1566793768051</ele>
        <time>2021-08-05T15:05:09.569Z</time>
      </trkpt>
      <trkpt lat="43.09463381767273" lon="-1.0162997245788574">
        <ele>982.7905526919507</ele>
        <time>2021-08-05T15:05:26.954Z</time>
      </trkpt>
      <trkpt lat="43.09459090232849" lon="-1.016460657119751">
        <ele>986.2876701222951</ele>
        <time>2021-08-05T15:05:44.341Z</time>
      </trkpt>
      <trkpt lat="43.094483613967896" lon="-1.0166645050048828">
        <ele>989.5556262241121</ele>
        <time>2021-08-05T15:06:01.731Z</time>
      </trkpt>
      <trkpt lat="43.09430122375488" lon="-1.016857624053955">
        <ele>992.4241741743117</ele>
        <time>2021-08-05T15:06:19.125Z</time>
      </trkpt>
      <trkpt lat="43.094258308410645" lon="-1.0169219970703125">
        <ele>995.1865667663714</ele>
        <time>2021-08-05T15:06:36.520Z</time>
      </trkpt>
      <trkpt lat="43.094226121902466" lon="-1.017136573791504">
        <ele>997.9024870208295</ele>
        <time>2021-08-05T15:06:53.917Z</time>
      </trkpt>
      <trkpt lat="43.094247579574585" lon="-1.0175120830535889">
        <ele>1000.6035522849929</ele>
        <time>2021-08-05T15:07:11.319Z</time>
      </trkpt>
      <trkpt lat="43.0943763256073" lon="-1.0184133052825928">
        <ele>1003.3502017576592</ele>
        <time>2021-08-05T15:07:28.732Z</time>
      </trkpt>
      <trkpt lat="43.09439778327942" lon="-1.018756628036499">
        <ele>1005.7981732102867</ele>
        <time>2021-08-05T15:07:46.149Z</time>
      </trkpt>
      <trkpt lat="43.09438705444336" lon="-1.0191428661346436">
        <ele>1008.3475740941302</ele>
        <time>2021-08-05T15:08:03.570Z</time>
      </trkpt>
      <trkpt lat="43.09436559677124" lon="-1.0192501544952393">
        <ele>1010.4799942929455</ele>
        <time>2021-08-05T15:08:20.992Z</time>
      </trkpt>
      <trkpt lat="43.09433341026306" lon="-1.0193145275115967">
        <ele>1012.3828684991686</ele>
        <time>2021-08-05T15:08:38.415Z</time>
      </trkpt>
      <trkpt lat="43.094258308410645" lon="-1.0194003582000732">
        <ele>1014.1000754718281</ele>
        <time>2021-08-05T15:08:55.840Z</time>
      </trkpt>
      <trkpt lat="43.09412956237793" lon="-1.0194647312164307">
        <ele>1015.5601676057543</ele>
        <time>2021-08-05T15:09:13.267Z</time>
      </trkpt>
      <trkpt lat="43.09390425682068" lon="-1.019507646560669">
        <ele>1016.7016450531684</ele>
        <time>2021-08-05T15:09:30.698Z</time>
      </trkpt>
      <trkpt lat="43.09385061264038" lon="-1.0195398330688477">
        <ele>1017.9996461733435</ele>
        <time>2021-08-05T15:09:48.130Z</time>
      </trkpt>
      <trkpt lat="43.0938184261322" lon="-1.019604206085205">
        <ele>1019.2581502350429</ele>
        <time>2021-08-05T15:10:05.563Z</time>
      </trkpt>
      <trkpt lat="43.09380769729614" lon="-1.0197222232818604">
        <ele>1020.4673651496782</ele>
        <time>2021-08-05T15:10:22.997Z</time>
      </trkpt>
      <trkpt lat="43.09379696846008" lon="-1.0203015804290771">
        <ele>1021.6281559267036</ele>
        <time>2021-08-05T15:10:40.438Z</time>
      </trkpt>
      <trkpt lat="43.093775510787964" lon="-1.020655632019043">
        <ele>1022.7025904467903</ele>
        <time>2021-08-05T15:10:57.883Z</time>
      </trkpt>
      <trkpt lat="43.093743324279785" lon="-1.020880937576294">
        <ele>1023.5861729857991</ele>
        <time>2021-08-05T15:11:15.331Z</time>
      </trkpt>
      <trkpt lat="43.09365749359131" lon="-1.0212671756744385">
        <ele>1024.2348696530203</ele>
        <time>2021-08-05T15:11:32.783Z</time>
      </trkpt>
      <trkpt lat="43.09358239173889" lon="-1.021803617477417">
        <ele>1024.802189258393</ele>
        <time>2021-08-05T15:11:50.242Z</time>
      </trkpt>
      <trkpt lat="43.09359312057495" lon="-1.0219645500183105">
        <ele>1025.3831331301951</ele>
        <time>2021-08-05T15:12:07.703Z</time>
      </trkpt>
      <trkpt lat="43.09361457824707" lon="-1.022104024887085">
        <ele>1025.8587783309788</ele>
        <time>2021-08-05T15:12:25.165Z</time>
      </trkpt>
      <trkpt lat="43.09368968009949" lon="-1.0223615169525146">
        <ele>1026.2815738780962</ele>
        <time>2021-08-05T15:12:42.631Z</time>
      </trkpt>
      <trkpt lat="43.093775510787964" lon="-1.0225117206573486">
        <ele>1026.7612133208604</ele>
        <time>2021-08-05T15:13:00.099Z</time>
      </trkpt>
      <trkpt lat="43.094000816345215" lon="-1.0228443145751953">
        <ele>1027.4744827565205</ele>
        <time>2021-08-05T15:13:17.572Z</time>
      </trkpt>
      <trkpt lat="43.094033002853394" lon="-1.0229408740997314">
        <ele>1027.8064471146674</ele>
        <time>2021-08-05T15:13:35.046Z</time>
      </trkpt>
      <trkpt lat="43.09408664703369" lon="-1.0232734680175781">
        <ele>1027.9379567626574</ele>
        <time>2021-08-05T15:13:52.524Z</time>
      </trkpt>
      <trkpt lat="43.09419393539429" lon="-1.0236382484436035">
        <ele>1028.3874873363293</ele>
        <time>2021-08-05T15:14:10.007Z</time>
      </trkpt>
      <trkpt lat="43.09420466423035" lon="-1.0237669944763184">
        <ele>1028.557918657506</ele>
        <time>2021-08-05T15:14:27.491Z</time>
      </trkpt>
      <trkpt lat="43.094215393066406" lon="-1.023874282836914">
        <ele>1028.7986502247843</ele>
        <time>2021-08-05T15:14:44.977Z</time>
      </trkpt>
      <trkpt lat="43.09417247772217" lon="-1.0241103172302246">
        <ele>1028.9329506284805</ele>
        <time>2021-08-05T15:15:02.466Z</time>
      </trkpt>
      <trkpt lat="43.094033002853394" lon="-1.0243463516235352">
        <ele>1028.7958626502843</ele>
        <time>2021-08-05T15:15:19.958Z</time>
      </trkpt>
      <trkpt lat="43.094022274017334" lon="-1.0244321823120117">
        <ele>1028.8854810114622</ele>
        <time>2021-08-05T15:15:37.451Z</time>
      </trkpt>
      <trkpt lat="43.094033002853394" lon="-1.0245931148529053">
        <ele>1029.0592831457031</ele>
        <time>2021-08-05T15:15:54.946Z</time>
      </trkpt>
      <trkpt lat="43.09411883354187" lon="-1.02522611618042">
        <ele>1029.4253837919698</ele>
        <time>2021-08-05T15:16:12.449Z</time>
      </trkpt>
      <trkpt lat="43.09414029121399" lon="-1.025526523590088">
        <ele>1029.573668163398</ele>
        <time>2021-08-05T15:16:29.955Z</time>
      </trkpt>
      <trkpt lat="43.09414029121399" lon="-1.0258376598358154">
        <ele>1029.6836968639448</ele>
        <time>2021-08-05T15:16:47.465Z</time>
      </trkpt>
      <trkpt lat="43.09412956237793" lon="-1.0259342193603516">
        <ele>1029.7963024635073</ele>
        <time>2021-08-05T15:17:04.976Z</time>
      </trkpt>
      <trkpt lat="43.09410810470581" lon="-1.0260307788848877">
        <ele>1029.9033955214113</ele>
        <time>2021-08-05T15:17:22.488Z</time>
      </trkpt>
      <trkpt lat="43.094033002853394" lon="-1.0261595249176025">
        <ele>1029.9327014602397</ele>
        <time>2021-08-05T15:17:40.002Z</time>
      </trkpt>
      <trkpt lat="43.094000816345215" lon="-1.026245355606079">
        <ele>1030.0828245134785</ele>
        <time>2021-08-05T15:17:57.517Z</time>
      </trkpt>
      <trkpt lat="43.093990087509155" lon="-1.0264062881469727">
        <ele>1030.284785695481</ele>
        <time>2021-08-05T15:18:15.034Z</time>
      </trkpt>
      <trkpt lat="43.094033002853394" lon="-1.0267174243927002">
        <ele>1030.5952120029588</ele>
        <time>2021-08-05T15:18:32.555Z</time>
      </trkpt>
      <trkpt lat="43.09404373168945" lon="-1.0271894931793213">
        <ele>1030.9621158748323</ele>
        <time>2021-08-05T15:18:50.081Z</time>
      </trkpt>
      <trkpt lat="43.09416174888611" lon="-1.0278117656707764">
        <ele>1031.48767796726</ele>
        <time>2021-08-05T15:19:07.615Z</time>
      </trkpt>
      <trkpt lat="43.094258308410645" lon="-1.0282087326049805">
        <ele>1031.9346228898219</ele>
        <time>2021-08-05T15:19:25.154Z</time>
      </trkpt>
      <trkpt lat="43.09464454650879" lon="-1.0293781757354736">
        <ele>1032.5312895620514</ele>
        <time>2021-08-05T15:19:42.708Z</time>
      </trkpt>
      <trkpt lat="43.09466600418091" lon="-1.029592752456665">
        <ele>1033.200256037737</ele>
        <time>2021-08-05T15:20:00.264Z</time>
      </trkpt>
      <trkpt lat="43.09461236000061" lon="-1.030118465423584">
        <ele>1033.9884545967755</ele>
        <time>2021-08-05T15:20:17.827Z</time>
      </trkpt>
      <trkpt lat="43.09459090232849" lon="-1.0306549072265625">
        <ele>1034.9452678644411</ele>
        <time>2021-08-05T15:20:35.396Z</time>
      </trkpt>
      <trkpt lat="43.09460163116455" lon="-1.03096604347229">
        <ele>1035.9321537766632</ele>
        <time>2021-08-05T15:20:52.968Z</time>
      </trkpt>
      <trkpt lat="43.09462308883667" lon="-1.031191349029541">
        <ele>1036.9928675317863</ele>
        <time>2021-08-05T15:21:10.543Z</time>
      </trkpt>
      <trkpt lat="43.094741106033325" lon="-1.0318028926849365">
        <ele>1038.1814771698944</ele>
        <time>2021-08-05T15:21:28.126Z</time>
      </trkpt>
      <trkpt lat="43.094751834869385" lon="-1.0321033000946045">
        <ele>1039.434992090784</ele>
        <time>2021-08-05T15:21:45.712Z</time>
      </trkpt>
      <trkpt lat="43.09474118985236" lon="-1.0326075553894043">
        <ele>1040.8901006637157</ele>
        <time>2021-08-05T15:22:03.304Z</time>
      </trkpt>
      <trkpt lat="43.09455871582031" lon="-1.0331439971923828">
        <ele>1042.3781417347004</ele>
        <time>2021-08-05T15:22:20.903Z</time>
      </trkpt>
      <trkpt lat="43.0938184261322" lon="-1.0351181030273438">
        <ele>1043.678089523563</ele>
        <time>2021-08-05T15:22:38.528Z</time>
      </trkpt>
      <trkpt lat="43.093732595443726" lon="-1.0354185104370117">
        <ele>1045.3047711051422</ele>
        <time>2021-08-05T15:22:56.157Z</time>
      </trkpt>
      <trkpt lat="43.093711137771606" lon="-1.035761833190918">
        <ele>1046.89226445357</ele>
        <time>2021-08-05T15:23:13.790Z</time>
      </trkpt>
      <trkpt lat="43.09366822242737" lon="-1.0367381572723389">
        <ele>1048.6629863006863</ele>
        <time>2021-08-05T15:23:31.434Z</time>
      </trkpt>
      <trkpt lat="43.09368968009949" lon="-1.0368883609771729">
        <ele>1050.5771982700087</ele>
        <time>2021-08-05T15:23:49.080Z</time>
      </trkpt>
      <trkpt lat="43.093775510787964" lon="-1.0371780395507812">
        <ele>1052.6247248368563</ele>
        <time>2021-08-05T15:24:06.730Z</time>
      </trkpt>
      <trkpt lat="43.09409737586975" lon="-1.037907600402832">
        <ele>1054.8175415793285</ele>
        <time>2021-08-05T15:24:24.390Z</time>
      </trkpt>
      <trkpt lat="43.09415102005005" lon="-1.0380685329437256">
        <ele>1057.0107576661003</ele>
        <time>2021-08-05T15:24:42.052Z</time>
      </trkpt>
      <trkpt lat="43.09418320655823" lon="-1.0382616519927979">
        <ele>1059.2723423647783</ele>
        <time>2021-08-05T15:24:59.716Z</time>
      </trkpt>
      <trkpt lat="43.09419393539429" lon="-1.038529872894287">
        <ele>1061.6308075173724</ele>
        <time>2021-08-05T15:25:17.383Z</time>
      </trkpt>
      <trkpt lat="43.094226121902466" lon="-1.0387122631072998">
        <ele>1064.0026959356403</ele>
        <time>2021-08-05T15:25:35.052Z</time>
      </trkpt>
      <trkpt lat="43.094494342803955" lon="-1.0393238067626953">
        <ele>1066.4992436483071</ele>
        <time>2021-08-05T15:25:52.730Z</time>
      </trkpt>
      <trkpt lat="43.094773292541504" lon="-1.0398387908935547">
        <ele>1068.9658007341368</ele>
        <time>2021-08-05T15:26:10.415Z</time>
      </trkpt>
      <trkpt lat="43.094987869262695" lon="-1.0403752326965332">
        <ele>1071.5253944279466</ele>
        <time>2021-08-05T15:26:28.107Z</time>
      </trkpt>
      <trkpt lat="43.095030784606934" lon="-1.0406112670898438">
        <ele>1073.9095175971847</ele>
        <time>2021-08-05T15:26:45.802Z</time>
      </trkpt>
      <trkpt lat="43.095030784606934" lon="-1.0408151149749756">
        <ele>1076.2566947774894</ele>
        <time>2021-08-05T15:27:03.500Z</time>
      </trkpt>
      <trkpt lat="43.094998598098755" lon="-1.0409975051879883">
        <ele>1078.5275680178313</ele>
        <time>2021-08-05T15:27:21.200Z</time>
      </trkpt>
      <trkpt lat="43.09486985206604" lon="-1.041254997253418">
        <ele>1080.767662063045</ele>
        <time>2021-08-05T15:27:38.904Z</time>
      </trkpt>
      <trkpt lat="43.09470891952515" lon="-1.0414695739746094">
        <ele>1082.919867153798</ele>
        <time>2021-08-05T15:27:56.611Z</time>
      </trkpt>
      <trkpt lat="43.09455871582031" lon="-1.0415875911712646">
        <ele>1084.9794562579084</ele>
        <time>2021-08-05T15:28:14.321Z</time>
      </trkpt>
      <trkpt lat="43.09391498565674" lon="-1.041855812072754">
        <ele>1087.2029913854349</ele>
        <time>2021-08-05T15:28:32.042Z</time>
      </trkpt>
      <trkpt lat="43.09383988380432" lon="-1.0418987274169922">
        <ele>1088.957638008577</ele>
        <time>2021-08-05T15:28:49.764Z</time>
      </trkpt>
      <trkpt lat="43.09380769729614" lon="-1.0419416427612305">
        <ele>1090.5205392279677</ele>
        <time>2021-08-05T15:29:07.487Z</time>
      </trkpt>
      <trkpt lat="43.093754053115845" lon="-1.0420703887939453">
        <ele>1091.9079604543913</ele>
        <time>2021-08-05T15:29:25.211Z</time>
      </trkpt>
      <trkpt lat="43.09370040893555" lon="-1.0422742366790771">
        <ele>1093.0994085407847</ele>
        <time>2021-08-05T15:29:42.938Z</time>
      </trkpt>
      <trkpt lat="43.09367895126343" lon="-1.0425424575805664">
        <ele>1094.0672184174884</ele>
        <time>2021-08-05T15:30:00.668Z</time>
      </trkpt>
      <trkpt lat="43.09357166290283" lon="-1.043078899383545">
        <ele>1094.9123452671242</ele>
        <time>2021-08-05T15:30:18.405Z</time>
      </trkpt>
      <trkpt lat="43.09343218803406" lon="-1.0433149337768555">
        <ele>1095.4451617437758</ele>
        <time>2021-08-05T15:30:36.145Z</time>
      </trkpt>
      <trkpt lat="43.09338927268982" lon="-1.0434114933013916">
        <ele>1095.6050952590203</ele>
        <time>2021-08-05T15:30:53.887Z</time>
      </trkpt>
      <trkpt lat="43.09337854385376" lon="-1.0435938835144043">
        <ele>1095.4468563681567</ele>
        <time>2021-08-05T15:31:11.631Z</time>
      </trkpt>
      <trkpt lat="43.09337854385376" lon="-1.0441088676452637">
        <ele>1095.1182618533467</ele>
        <time>2021-08-05T15:31:29.381Z</time>
      </trkpt>
      <trkpt lat="43.0933678150177" lon="-1.044473648071289">
        <ele>1094.4785019282544</ele>
        <time>2021-08-05T15:31:47.135Z</time>
      </trkpt>
      <trkpt lat="43.09334635734558" lon="-1.0446560382843018">
        <ele>1093.4208417730301</ele>
        <time>2021-08-05T15:32:04.891Z</time>
      </trkpt>
      <trkpt lat="43.09330344200134" lon="-1.044774055480957">
        <ele>1091.9483557048848</ele>
        <time>2021-08-05T15:32:22.649Z</time>
      </trkpt>
      <trkpt lat="43.093228340148926" lon="-1.0448706150054932">
        <ele>1090.0756160226115</ele>
        <time>2021-08-05T15:32:40.408Z</time>
      </trkpt>
      <trkpt lat="43.0931104067713" lon="-1.0449349880218506">
        <ele>1087.8242445740898</ele>
        <time>2021-08-05T15:32:58.169Z</time>
      </trkpt>
      <trkpt lat="43.0928099155426" lon="-1.0450959205627441">
        <ele>1085.1418913670627</ele>
        <time>2021-08-05T15:33:15.936Z</time>
      </trkpt>
      <trkpt lat="43.09269189834595" lon="-1.0452032089233398">
        <ele>1082.1698167774832</ele>
        <time>2021-08-05T15:33:33.705Z</time>
      </trkpt>
      <trkpt lat="43.09262752532959" lon="-1.0452890396118164">
        <ele>1078.8566275177232</ele>
        <time>2021-08-05T15:33:51.475Z</time>
      </trkpt>
      <trkpt lat="43.09232711791992" lon="-1.045900583267212">
        <ele>1074.7624486199722</ele>
        <time>2021-08-05T15:34:09.254Z</time>
      </trkpt>
      <trkpt lat="43.09231638908386" lon="-1.0460186004638672">
        <ele>1070.6337589552031</ele>
        <time>2021-08-05T15:34:27.034Z</time>
      </trkpt>
      <trkpt lat="43.09234857559204" lon="-1.046050786972046">
        <ele>1066.2620795587961</ele>
        <time>2021-08-05T15:34:44.815Z</time>
      </trkpt>
      <trkpt lat="43.092530965805054" lon="-1.0460615158081055">
        <ele>1061.705469657281</ele>
        <time>2021-08-05T15:35:02.599Z</time>
      </trkpt>
      <trkpt lat="43.09260606765747" lon="-1.046125888824463">
        <ele>1056.7151883274846</ele>
        <time>2021-08-05T15:35:20.384Z</time>
      </trkpt>
      <trkpt lat="43.09264898300171" lon="-1.0462117195129395">
        <ele>1051.367504857846</ele>
        <time>2021-08-05T15:35:38.170Z</time>
      </trkpt>
      <trkpt lat="43.09308886528015" lon="-1.0476922988891602">
        <ele>1045.1589425194322</ele>
        <time>2021-08-05T15:35:55.975Z</time>
      </trkpt>
      <trkpt lat="43.093228340148926" lon="-1.0483038425445557">
        <ele>1038.7538197318668</ele>
        <time>2021-08-05T15:36:13.788Z</time>
      </trkpt>
      <trkpt lat="43.09360384941101" lon="-1.049666404724121">
        <ele>1031.7523911515104</ele>
        <time>2021-08-05T15:36:31.618Z</time>
      </trkpt>
      <trkpt lat="43.09411883354187" lon="-1.0509538650512695">
        <ele>1024.833371346172</ele>
        <time>2021-08-05T15:36:49.465Z</time>
      </trkpt>
      <trkpt lat="43.09420466423035" lon="-1.0511791706085205">
        <ele>1018.1820541147142</ele>
        <time>2021-08-05T15:37:07.315Z</time>
      </trkpt>
      <trkpt lat="43.09429049491882" lon="-1.051468849182129">
        <ele>1011.2841039375904</ele>
        <time>2021-08-05T15:37:25.169Z</time>
      </trkpt>
      <trkpt lat="43.09433341026306" lon="-1.0517048835754395">
        <ele>1004.2689200567803</ele>
        <time>2021-08-05T15:37:43.025Z</time>
      </trkpt>
      <trkpt lat="43.09438705444336" lon="-1.0522091388702393">
        <ele>997.0197973722804</ele>
        <time>2021-08-05T15:38:00.887Z</time>
      </trkpt>
      <trkpt lat="43.09438705444336" lon="-1.0529065132141113">
        <ele>989.676144596476</ele>
        <time>2021-08-05T15:38:18.758Z</time>
      </trkpt>
      <trkpt lat="43.09441924095154" lon="-1.0540974140167236">
        <ele>982.0992226712181</ele>
        <time>2021-08-05T15:38:36.643Z</time>
      </trkpt>
      <trkpt lat="43.094494342803955" lon="-1.055084466934204">
        <ele>974.4766917566474</ele>
        <time>2021-08-05T15:38:54.539Z</time>
      </trkpt>
      <trkpt lat="43.09465527534485" lon="-1.0562753677368164">
        <ele>966.6137596006109</ele>
        <time>2021-08-05T15:39:12.449Z</time>
      </trkpt>
      <trkpt lat="43.09554576873779" lon="-1.0615432262420654">
        <ele>957.5100146872555</ele>
        <time>2021-08-05T15:39:30.423Z</time>
      </trkpt>
      <trkpt lat="43.09558868408203" lon="-1.0617256164550781">
        <ele>950.2230869560283</ele>
        <time>2021-08-05T15:39:48.399Z</time>
      </trkpt>
      <trkpt lat="43.09567451477051" lon="-1.0619616508483887">
        <ele>942.9544201835388</ele>
        <time>2021-08-05T15:40:06.378Z</time>
      </trkpt>
      <trkpt lat="43.09581398963928" lon="-1.0622191429138184">
        <ele>935.8177177360858</ele>
        <time>2021-08-05T15:40:24.361Z</time>
      </trkpt>
      <trkpt lat="43.095814073458314" lon="-1.0622191429138184">
        <ele>928.9401118793312</ele>
        <time>2021-08-05T15:40:42.344Z</time>
      </trkpt>
      <trkpt lat="43.09586771763861" lon="-1.0623371601104736">
        <ele>922.1581162993359</ele>
        <time>2021-08-05T15:41:00.329Z</time>
      </trkpt>
      <trkpt lat="43.0963933467865" lon="-1.063474416732788">
        <ele>915.2253866167509</ele>
        <time>2021-08-05T15:41:18.329Z</time>
      </trkpt>
      <trkpt lat="43.096961975097656" lon="-1.0644078254699707">
        <ele>908.7968981800987</ele>
        <time>2021-08-05T15:41:36.344Z</time>
      </trkpt>
      <trkpt lat="43.09718736447394" lon="-1.0648906230926514">
        <ele>902.4421657315199</ele>
        <time>2021-08-05T15:41:54.365Z</time>
      </trkpt>
      <trkpt lat="43.09731602668762" lon="-1.0651910305023193">
        <ele>896.3783770258713</ele>
        <time>2021-08-05T15:42:12.390Z</time>
      </trkpt>
      <trkpt lat="43.09757351875305" lon="-1.0656952857971191">
        <ele>890.7353228382506</ele>
        <time>2021-08-05T15:42:30.423Z</time>
      </trkpt>
      <trkpt lat="43.09770226478577" lon="-1.0659849643707275">
        <ele>885.2614512476017</ele>
        <time>2021-08-05T15:42:48.459Z</time>
      </trkpt>
      <trkpt lat="43.09833526611328" lon="-1.067819595336914">
        <ele>879.7819593166228</ele>
        <time>2021-08-05T15:43:06.519Z</time>
      </trkpt>
      <trkpt lat="43.09862494468689" lon="-1.068817377090454">
        <ele>874.6973924762565</ele>
        <time>2021-08-05T15:43:24.592Z</time>
      </trkpt>
      <trkpt lat="43.09887170791626" lon="-1.0695254802703857">
        <ele>869.9453850248744</ele>
        <time>2021-08-05T15:43:42.674Z</time>
      </trkpt>
      <trkpt lat="43.098978996276855" lon="-1.0699331760406494">
        <ele>865.5058429588491</ele>
        <time>2021-08-05T15:44:00.761Z</time>
      </trkpt>
      <trkpt lat="43.09916138648987" lon="-1.0708022117614746">
        <ele>861.4682986362739</ele>
        <time>2021-08-05T15:44:18.859Z</time>
      </trkpt>
      <trkpt lat="43.09915065765381" lon="-1.0709095001220703">
        <ele>857.6442990243397</ele>
        <time>2021-08-05T15:44:36.958Z</time>
      </trkpt>
      <trkpt lat="43.09911847114563" lon="-1.0710060596466064">
        <ele>854.0656332909375</ele>
        <time>2021-08-05T15:44:55.058Z</time>
      </trkpt>
      <trkpt lat="43.09905409812927" lon="-1.0710382461547852">
        <ele>850.7325642745277</ele>
        <time>2021-08-05T15:45:13.159Z</time>
      </trkpt>
      <trkpt lat="43.098957538604736" lon="-1.0710489749908447">
        <ele>847.6875103669349</ele>
        <time>2021-08-05T15:45:31.262Z</time>
      </trkpt>
      <trkpt lat="43.098753690719604" lon="-1.0710489749908447">
        <ele>844.8440704394301</ele>
        <time>2021-08-05T15:45:49.368Z</time>
      </trkpt>
      <trkpt lat="43.098206520080566" lon="-1.0711777210235596">
        <ele>842.2946879071142</ele>
        <time>2021-08-05T15:46:07.483Z</time>
      </trkpt>
      <trkpt lat="43.09810996055603" lon="-1.0712206363677979">
        <ele>840.0219660321405</ele>
        <time>2021-08-05T15:46:25.600Z</time>
      </trkpt>
      <trkpt lat="43.098013401031494" lon="-1.0712957382202148">
        <ele>838.0252632392691</ele>
        <time>2021-08-05T15:46:43.718Z</time>
      </trkpt>
      <trkpt lat="43.09793829917908" lon="-1.0714137554168701">
        <ele>836.3080930603642</ele>
        <time>2021-08-05T15:47:01.838Z</time>
      </trkpt>
      <trkpt lat="43.097777366638184" lon="-1.0717034339904785">
        <ele>834.8012940716378</ele>
        <time>2021-08-05T15:47:19.963Z</time>
      </trkpt>
      <trkpt lat="43.09768080711365" lon="-1.0719609260559082">
        <ele>833.5787486578768</ele>
        <time>2021-08-05T15:47:38.091Z</time>
      </trkpt>
      <trkpt lat="43.09763789176941" lon="-1.0721969604492188">
        <ele>832.5790816772808</ele>
        <time>2021-08-05T15:47:56.222Z</time>
      </trkpt>
      <trkpt lat="43.09743404388428" lon="-1.07291579246521">
        <ele>831.5604289576319</ele>
        <time>2021-08-05T15:48:14.362Z</time>
      </trkpt>
      <trkpt lat="43.097262382507324" lon="-1.0737097263336182">
        <ele>830.94405562725</ele>
        <time>2021-08-05T15:48:32.511Z</time>
      </trkpt>
      <trkpt lat="43.09713363647461" lon="-1.0741066932678223">
        <ele>830.4899044686233</ele>
        <time>2021-08-05T15:48:50.666Z</time>
      </trkpt>
      <trkpt lat="43.09711217880249" lon="-1.0742568969726562">
        <ele>830.2605197997232</ele>
        <time>2021-08-05T15:49:08.822Z</time>
      </trkpt>
      <trkpt lat="43.09711217880249" lon="-1.0746431350708008">
        <ele>830.2437436681989</ele>
        <time>2021-08-05T15:49:26.983Z</time>
      </trkpt>
      <trkpt lat="43.09709072113037" lon="-1.0751259326934814">
        <ele>830.3105087145632</ele>
        <time>2021-08-05T15:49:45.150Z</time>
      </trkpt>
      <trkpt lat="43.09712290763855" lon="-1.075984239578247">
        <ele>830.734917713319</ele>
        <time>2021-08-05T15:50:03.327Z</time>
      </trkpt>
      <trkpt lat="43.09707999229431" lon="-1.0765206813812256">
        <ele>831.006070832158</ele>
        <time>2021-08-05T15:50:21.510Z</time>
      </trkpt>
      <trkpt lat="43.09709072113037" lon="-1.0766386985778809">
        <ele>831.6023030706408</ele>
        <time>2021-08-05T15:50:39.694Z</time>
      </trkpt>
      <trkpt lat="43.09711217880249" lon="-1.0767138004302979">
        <ele>832.3734969494926</ele>
        <time>2021-08-05T15:50:57.879Z</time>
      </trkpt>
      <trkpt lat="43.09715509414673" lon="-1.0767781734466553">
        <ele>833.3094974219291</ele>
        <time>2021-08-05T15:51:16.065Z</time>
      </trkpt>
      <trkpt lat="43.097240924835205" lon="-1.0768532752990723">
        <ele>834.3354525030766</ele>
        <time>2021-08-05T15:51:34.253Z</time>
      </trkpt>
      <trkpt lat="43.09745558537543" lon="-1.076960563659668">
        <ele>835.5311154310511</ele>
        <time>2021-08-05T15:51:52.445Z</time>
      </trkpt>
      <trkpt lat="43.09782028198242" lon="-1.0770785808563232">
        <ele>836.9808372318462</ele>
        <time>2021-08-05T15:52:10.643Z</time>
      </trkpt>
      <trkpt lat="43.097970485687256" lon="-1.0771751403808594">
        <ele>838.4471951921212</ele>
        <time>2021-08-05T15:52:28.843Z</time>
      </trkpt>
      <trkpt lat="43.0983030796051" lon="-1.077432632446289">
        <ele>840.1176538665533</ele>
        <time>2021-08-05T15:52:47.049Z</time>
      </trkpt>
      <trkpt lat="43.09845328330994" lon="-1.077561378479004">
        <ele>841.762663086101</ele>
        <time>2021-08-05T15:53:05.258Z</time>
      </trkpt>
      <trkpt lat="43.09870004653931" lon="-1.0778188705444336">
        <ele>843.3843823359982</ele>
        <time>2021-08-05T15:53:23.472Z</time>
      </trkpt>
      <trkpt lat="43.09890389442444" lon="-1.0779368877410889">
        <ele>845.1841725748006</ele>
        <time>2021-08-05T15:53:41.690Z</time>
      </trkpt>
      <trkpt lat="43.098989725112915" lon="-1.0779690742492676">
        <ele>846.9912709093144</ele>
        <time>2021-08-05T15:53:59.909Z</time>
      </trkpt>
      <trkpt lat="43.09911847114563" lon="-1.0779690742492676">
        <ele>848.9485349884924</ele>
        <time>2021-08-05T15:54:18.130Z</time>
      </trkpt>
      <trkpt lat="43.09927940368652" lon="-1.0780441761016846">
        <ele>850.9178606806535</ele>
        <time>2021-08-05T15:54:36.354Z</time>
      </trkpt>
      <trkpt lat="43.09955835342407" lon="-1.0782158374786377">
        <ele>852.8541576594622</ele>
        <time>2021-08-05T15:54:54.583Z</time>
      </trkpt>
      <trkpt lat="43.09993386268616" lon="-1.0785162448883057">
        <ele>854.9754353724072</ele>
        <time>2021-08-05T15:55:12.819Z</time>
      </trkpt>
      <trkpt lat="43.10020208358765" lon="-1.0786664485931396">
        <ele>856.8914405077986</ele>
        <time>2021-08-05T15:55:31.059Z</time>
      </trkpt>
      <trkpt lat="43.10020216740668" lon="-1.0786664485931396">
        <ele>858.6934451517775</ele>
        <time>2021-08-05T15:55:49.299Z</time>
      </trkpt>
      <trkpt lat="43.100266456604004" lon="-1.0787200927734375">
        <ele>860.4396584490528</ele>
        <time>2021-08-05T15:56:07.541Z</time>
      </trkpt>
      <trkpt lat="43.10030937194824" lon="-1.0790205001831055">
        <ele>861.8727128401731</ele>
        <time>2021-08-05T15:56:25.786Z</time>
      </trkpt>
      <trkpt lat="43.10034155845642" lon="-1.0791170597076416">
        <ele>863.4579011833678</ele>
        <time>2021-08-05T15:56:44.032Z</time>
      </trkpt>
      <trkpt lat="43.10043811798096" lon="-1.0792243480682373">
        <ele>865.0629333538836</ele>
        <time>2021-08-05T15:57:02.280Z</time>
      </trkpt>
      <trkpt lat="43.10060977935791" lon="-1.0793209075927734">
        <ele>866.7734095719558</ele>
        <time>2021-08-05T15:57:20.531Z</time>
      </trkpt>
      <trkpt lat="43.100759983062744" lon="-1.0794711112976074">
        <ele>868.4131783478202</ele>
        <time>2021-08-05T15:57:38.785Z</time>
      </trkpt>
      <trkpt lat="43.10084581375122" lon="-1.0796535015106201">
        <ele>869.9339701956382</ele>
        <time>2021-08-05T15:57:57.042Z</time>
      </trkpt>
      <trkpt lat="43.10089945793152" lon="-1.0798466205596924">
        <ele>871.2674784471901</ele>
        <time>2021-08-05T15:58:15.301Z</time>
      </trkpt>
      <trkpt lat="43.100963830947876" lon="-1.0799968242645264">
        <ele>872.6386832053267</ele>
        <time>2021-08-05T15:58:33.562Z</time>
      </trkpt>
      <trkpt lat="43.10110330581665" lon="-1.080232858657837">
        <ele>874.0546896669325</ele>
        <time>2021-08-05T15:58:51.827Z</time>
      </trkpt>
      <trkpt lat="43.10112476348877" lon="-1.0803508758544922">
        <ele>875.3034942603484</ele>
        <time>2021-08-05T15:59:10.093Z</time>
      </trkpt>
      <trkpt lat="43.10112476348877" lon="-1.0804152488708496">
        <ele>876.4284776617988</ele>
        <time>2021-08-05T15:59:28.360Z</time>
      </trkpt>
      <trkpt lat="43.10083508491516" lon="-1.0810482501983643">
        <ele>877.2445030170777</ele>
        <time>2021-08-05T15:59:46.636Z</time>
      </trkpt>
      <trkpt lat="43.100749254226685" lon="-1.081380844116211">
        <ele>878.0994711313871</ele>
        <time>2021-08-05T16:00:04.916Z</time>
      </trkpt>
      <trkpt lat="43.100706338882446" lon="-1.0816490650177002">
        <ele>878.9270172448935</ele>
        <time>2021-08-05T16:00:23.199Z</time>
      </trkpt>
      <trkpt lat="43.100738525390625" lon="-1.0819923877716064">
        <ele>880.0979876859773</ele>
        <time>2021-08-05T16:00:41.486Z</time>
      </trkpt>
      <trkpt lat="43.100727796554565" lon="-1.082078218460083">
        <ele>880.7805144983993</ele>
        <time>2021-08-05T16:00:59.774Z</time>
      </trkpt>
      <trkpt lat="43.10069561004639" lon="-1.0821425914764404">
        <ele>881.2589234193345</ele>
        <time>2021-08-05T16:01:18.063Z</time>
      </trkpt>
      <trkpt lat="43.10065269470215" lon="-1.0821640491485596">
        <ele>881.5331583024608</ele>
        <time>2021-08-05T16:01:36.353Z</time>
      </trkpt>
      <trkpt lat="43.100491762161255" lon="-1.0822391510009766">
        <ele>881.4262120515743</ele>
        <time>2021-08-05T16:01:54.646Z</time>
      </trkpt>
      <trkpt lat="43.10038447380066" lon="-1.0823678970336914">
        <ele>881.4392233920939</ele>
        <time>2021-08-05T16:02:12.941Z</time>
      </trkpt>
      <trkpt lat="43.100223541259766" lon="-1.082754135131836">
        <ele>881.5146639816022</ele>
        <time>2021-08-05T16:02:31.241Z</time>
      </trkpt>
      <trkpt lat="43.10008406639099" lon="-1.0831618309020996">
        <ele>881.3676135897515</ele>
        <time>2021-08-05T16:02:49.546Z</time>
      </trkpt>
      <trkpt lat="43.10004115104675" lon="-1.0833549499511719">
        <ele>881.0985122138954</ele>
        <time>2021-08-05T16:03:07.854Z</time>
      </trkpt>
      <trkpt lat="43.099998235702515" lon="-1.0836553573608398">
        <ele>880.6167583912131</ele>
        <time>2021-08-05T16:03:26.165Z</time>
      </trkpt>
      <trkpt lat="43.100019693374634" lon="-1.083977222442627">
        <ele>880.0003714417396</ele>
        <time>2021-08-05T16:03:44.480Z</time>
      </trkpt>
      <trkpt lat="43.10007333755493" lon="-1.0842454433441162">
        <ele>879.3264355531114</ele>
        <time>2021-08-05T16:04:02.798Z</time>
      </trkpt>
      <trkpt lat="43.10033082962036" lon="-1.08489990234375">
        <ele>878.8517497489297</ele>
        <time>2021-08-05T16:04:21.125Z</time>
      </trkpt>
      <trkpt lat="43.10034155845642" lon="-1.0850071907043457">
        <ele>877.9822063165825</ele>
        <time>2021-08-05T16:04:39.453Z</time>
      </trkpt>
      <trkpt lat="43.10029864311218" lon="-1.0855865478515625">
        <ele>876.9235703775717</ele>
        <time>2021-08-05T16:04:57.788Z</time>
      </trkpt>
      <trkpt lat="43.100244998931885" lon="-1.0860586166381836">
        <ele>875.7141605811399</ele>
        <time>2021-08-05T16:05:16.129Z</time>
      </trkpt>
      <trkpt lat="43.10015916824341" lon="-1.0864877700805664">
        <ele>874.5102324568437</ele>
        <time>2021-08-05T16:05:34.475Z</time>
      </trkpt>
      <trkpt lat="43.10007333755493" lon="-1.0868632793426514">
        <ele>873.181521769945</ele>
        <time>2021-08-05T16:05:52.826Z</time>
      </trkpt>
      <trkpt lat="43.09994459152222" lon="-1.087249517440796">
        <ele>871.692577293576</ele>
        <time>2021-08-05T16:06:11.182Z</time>
      </trkpt>
      <trkpt lat="43.09985876083374" lon="-1.0874533653259277">
        <ele>870.0072179696313</ele>
        <time>2021-08-05T16:06:29.540Z</time>
      </trkpt>
      <trkpt lat="43.09963345527649" lon="-1.0877001285552979">
        <ele>867.998706452933</ele>
        <time>2021-08-05T16:06:47.903Z</time>
      </trkpt>
      <trkpt lat="43.09955835342407" lon="-1.0878288745880127">
        <ele>865.9244055667275</ele>
        <time>2021-08-05T16:07:06.268Z</time>
      </trkpt>
      <trkpt lat="43.099515438079834" lon="-1.0879361629486084">
        <ele>863.7475205398368</ele>
        <time>2021-08-05T16:07:24.634Z</time>
      </trkpt>
      <trkpt lat="43.099504709243774" lon="-1.088043451309204">
        <ele>861.4332706944449</ele>
        <time>2021-08-05T16:07:43.002Z</time>
      </trkpt>
      <trkpt lat="43.099515438079834" lon="-1.0883867740631104">
        <ele>858.857923057814</ele>
        <time>2021-08-05T16:08:01.374Z</time>
      </trkpt>
      <trkpt lat="43.09955835342407" lon="-1.0885906219482422">
        <ele>856.2927034394943</ele>
        <time>2021-08-05T16:08:19.748Z</time>
      </trkpt>
      <trkpt lat="43.09964418411255" lon="-1.0887730121612549">
        <ele>853.654441736976</ele>
        <time>2021-08-05T16:08:38.125Z</time>
      </trkpt>
      <trkpt lat="43.09978365898132" lon="-1.0890305042266846">
        <ele>850.8636097233511</ele>
        <time>2021-08-05T16:08:56.506Z</time>
      </trkpt>
      <trkpt lat="43.10039520263672" lon="-1.0899639129638672">
        <ele>847.6900731193805</ele>
        <time>2021-08-05T16:09:14.901Z</time>
      </trkpt>
      <trkpt lat="43.10069561004639" lon="-1.0905969142913818">
        <ele>844.3116382172557</ele>
        <time>2021-08-05T16:09:33.305Z</time>
      </trkpt>
      <trkpt lat="43.10083508491516" lon="-1.090768575668335">
        <ele>841.0725344871493</ele>
        <time>2021-08-05T16:09:51.712Z</time>
      </trkpt>
      <trkpt lat="43.1009316444397" lon="-1.0908544063568115">
        <ele>837.789521776409</ele>
        <time>2021-08-05T16:10:10.121Z</time>
      </trkpt>
      <trkpt lat="43.10119986534119" lon="-1.0910582542419434">
        <ele>834.3212082490988</ele>
        <time>2021-08-05T16:10:28.535Z</time>
      </trkpt>
      <trkpt lat="43.10169339179993" lon="-1.0913264751434326">
        <ele>830.6214470888717</ele>
        <time>2021-08-05T16:10:46.957Z</time>
      </trkpt>
      <trkpt lat="43.10189723968506" lon="-1.0914552211761475">
        <ele>827.0434449175335</ele>
        <time>2021-08-05T16:11:05.383Z</time>
      </trkpt>
      <trkpt lat="43.10242295265198" lon="-1.091916561126709">
        <ele>823.2486286421454</ele>
        <time>2021-08-05T16:11:23.819Z</time>
      </trkpt>
      <trkpt lat="43.102519512176514" lon="-1.0920453071594238">
        <ele>819.5909237188273</ele>
        <time>2021-08-05T16:11:42.257Z</time>
      </trkpt>
      <trkpt lat="43.10260534286499" lon="-1.0922491550445557">
        <ele>815.8249487161718</ele>
        <time>2021-08-05T16:12:00.698Z</time>
      </trkpt>
      <trkpt lat="43.102712631225586" lon="-1.0925602912902832">
        <ele>811.9841107926112</ele>
        <time>2021-08-05T16:12:19.143Z</time>
      </trkpt>
      <trkpt lat="43.102787816897035" lon="-1.0929465293884277">
        <ele>808.0698630090292</ele>
        <time>2021-08-05T16:12:37.593Z</time>
      </trkpt>
      <trkpt lat="43.10280919075012" lon="-1.0931611061096191">
        <ele>804.2710923467905</ele>
        <time>2021-08-05T16:12:56.045Z</time>
      </trkpt>
      <trkpt lat="43.10281991958618" lon="-1.0935258865356445">
        <ele>800.4143488485538</ele>
        <time>2021-08-05T16:13:14.501Z</time>
      </trkpt>
      <trkpt lat="43.10277700424194" lon="-1.094040870666504">
        <ele>796.5935675210205</ele>
        <time>2021-08-05T16:13:32.963Z</time>
      </trkpt>
      <trkpt lat="43.102787733078" lon="-1.0942018032073975">
        <ele>792.7710119153021</ele>
        <time>2021-08-05T16:13:51.427Z</time>
      </trkpt>
      <trkpt lat="43.10283064842224" lon="-1.0944485664367676">
        <ele>788.9146233571539</ele>
        <time>2021-08-05T16:14:09.894Z</time>
      </trkpt>
      <trkpt lat="43.10287356376648" lon="-1.0946846008300781">
        <ele>785.103875530199</ele>
        <time>2021-08-05T16:14:28.364Z</time>
      </trkpt>
      <trkpt lat="43.103216886520386" lon="-1.0956072807312012">
        <ele>780.9914355442061</ele>
        <time>2021-08-05T16:14:46.846Z</time>
      </trkpt>
      <trkpt lat="43.103452920913696" lon="-1.0961329936981201">
        <ele>777.1348043924195</ele>
        <time>2021-08-05T16:15:05.335Z</time>
      </trkpt>
      <trkpt lat="43.1037962436676" lon="-1.0966908931732178">
        <ele>773.2862308786121</ele>
        <time>2021-08-05T16:15:23.833Z</time>
      </trkpt>
      <trkpt lat="43.10418248176575" lon="-1.0971951484680176">
        <ele>769.3855047701132</ele>
        <time>2021-08-05T16:15:42.340Z</time>
      </trkpt>
      <trkpt lat="43.104461431503296" lon="-1.0974740982055664">
        <ele>765.7044134551268</ele>
        <time>2021-08-05T16:16:00.852Z</time>
      </trkpt>
      <trkpt lat="43.10454726219177" lon="-1.0975170135498047">
        <ele>762.2555902017178</ele>
        <time>2021-08-05T16:16:19.366Z</time>
      </trkpt>
      <trkpt lat="43.10462236404419" lon="-1.0975384712219238">
        <ele>758.8757914654371</ele>
        <time>2021-08-05T16:16:37.881Z</time>
      </trkpt>
      <trkpt lat="43.104997873306274" lon="-1.0974526405334473">
        <ele>755.4748436960018</ele>
        <time>2021-08-05T16:16:56.402Z</time>
      </trkpt>
      <trkpt lat="43.10519099235535" lon="-1.0974526405334473">
        <ele>752.1009799841146</ele>
        <time>2021-08-05T16:17:14.926Z</time>
      </trkpt>
      <trkpt lat="43.105459213256836" lon="-1.0975170135498047">
        <ele>748.7171111090636</ele>
        <time>2021-08-05T16:17:33.454Z</time>
      </trkpt>
      <trkpt lat="43.10560941696167" lon="-1.097581386566162">
        <ele>745.5285973665107</ele>
        <time>2021-08-05T16:17:51.985Z</time>
      </trkpt>
      <trkpt lat="43.10567378997803" lon="-1.09763503074646">
        <ele>742.4462618445111</ele>
        <time>2021-08-05T16:18:10.517Z</time>
      </trkpt>
      <trkpt lat="43.10577034950256" lon="-1.0977637767791748">
        <ele>739.4235807311934</ele>
        <time>2021-08-05T16:18:29.051Z</time>
      </trkpt>
      <trkpt lat="43.10602784156799" lon="-1.0983860492706299">
        <ele>736.4080649165599</ele>
        <time>2021-08-05T16:18:47.594Z</time>
      </trkpt>
      <trkpt lat="43.10607075691223" lon="-1.0985469818115234">
        <ele>733.4851445205791</ele>
        <time>2021-08-05T16:19:06.139Z</time>
      </trkpt>
      <trkpt lat="43.10603857040405" lon="-1.0989439487457275">
        <ele>730.6790341066967</ele>
        <time>2021-08-05T16:19:24.688Z</time>
      </trkpt>
      <trkpt lat="43.106038654223084" lon="-1.0989439487457275">
        <ele>727.8762909143068</ele>
        <time>2021-08-05T16:19:43.237Z</time>
      </trkpt>
      <trkpt lat="43.10607075691223" lon="-1.099179983139038">
        <ele>725.0918793608585</ele>
        <time>2021-08-05T16:20:01.789Z</time>
      </trkpt>
      <trkpt lat="43.106199502944946" lon="-1.099609136581421">
        <ele>722.4033122546564</ele>
        <time>2021-08-05T16:20:20.347Z</time>
      </trkpt>
      <trkpt lat="43.1063175201416" lon="-1.1001670360565186">
        <ele>719.7624360149694</ele>
        <time>2021-08-05T16:20:38.911Z</time>
      </trkpt>
      <trkpt lat="43.10658574104309" lon="-1.101003885269165">
        <ele>716.8192472643402</ele>
        <time>2021-08-05T16:20:57.486Z</time>
      </trkpt>
      <trkpt lat="43.106735944747925" lon="-1.1012506484985352">
        <ele>714.0260338477055</ele>
        <time>2021-08-05T16:21:16.065Z</time>
      </trkpt>
      <trkpt lat="43.10690760612488" lon="-1.1014330387115479">
        <ele>711.2992295983822</ele>
        <time>2021-08-05T16:21:34.647Z</time>
      </trkpt>
      <trkpt lat="43.106982707977295" lon="-1.1015510559082031">
        <ele>708.6404001007679</ele>
        <time>2021-08-05T16:21:53.231Z</time>
      </trkpt>
      <trkpt lat="43.107250928878784" lon="-1.1021625995635986">
        <ele>705.8644142027886</ele>
        <time>2021-08-05T16:22:11.823Z</time>
      </trkpt>
      <trkpt lat="43.10741186141968" lon="-1.102452278137207">
        <ele>703.2675464030633</ele>
        <time>2021-08-05T16:22:30.420Z</time>
      </trkpt>
      <trkpt lat="43.107444047927856" lon="-1.1025488376617432">
        <ele>700.5836798840571</ele>
        <time>2021-08-05T16:22:49.018Z</time>
      </trkpt>
      <trkpt lat="43.10752987861633" lon="-1.102902889251709">
        <ele>697.7526166699565</ele>
        <time>2021-08-05T16:23:07.620Z</time>
      </trkpt>
      <trkpt lat="43.107744455337524" lon="-1.1033213138580322">
        <ele>695.0597663883841</ele>
        <time>2021-08-05T16:23:26.228Z</time>
      </trkpt>
      <trkpt lat="43.10804486274719" lon="-1.103975772857666">
        <ele>692.0634102393149</ele>
        <time>2021-08-05T16:23:44.845Z</time>
      </trkpt>
      <trkpt lat="43.10811996459961" lon="-1.1041152477264404">
        <ele>689.2889894444775</ele>
        <time>2021-08-05T16:24:03.464Z</time>
      </trkpt>
      <trkpt lat="43.108237981796265" lon="-1.1042547225952148">
        <ele>686.5734905473531</ele>
        <time>2021-08-05T16:24:22.086Z</time>
      </trkpt>
      <trkpt lat="43.10852766036987" lon="-1.1045336723327637">
        <ele>683.8903142972626</ele>
        <time>2021-08-05T16:24:40.714Z</time>
      </trkpt>
      <trkpt lat="43.108763694763184" lon="-1.1048126220703125">
        <ele>681.2431420877446</ele>
        <time>2021-08-05T16:24:59.347Z</time>
      </trkpt>
      <trkpt lat="43.108946084976196" lon="-1.1050593852996826">
        <ele>678.5767688630217</ele>
        <time>2021-08-05T16:25:17.984Z</time>
      </trkpt>
      <trkpt lat="43.10942888259888" lon="-1.1059391498565674">
        <ele>675.7356294860781</ele>
        <time>2021-08-05T16:25:36.634Z</time>
      </trkpt>
      <trkpt lat="43.10982593335211" lon="-1.1067652702331543">
        <ele>672.9716032553247</ele>
        <time>2021-08-05T16:25:55.295Z</time>
      </trkpt>
      <trkpt lat="43.10987949371338" lon="-1.10687255859375">
        <ele>670.4923680456725</ele>
        <time>2021-08-05T16:26:13.958Z</time>
      </trkpt>
      <trkpt lat="43.10993313789368" lon="-1.1070549488067627">
        <ele>667.9951601142375</ele>
        <time>2021-08-05T16:26:32.623Z</time>
      </trkpt>
      <trkpt lat="43.109954595565796" lon="-1.1072373390197754">
        <ele>665.5302868797562</ele>
        <time>2021-08-05T16:26:51.290Z</time>
      </trkpt>
      <trkpt lat="43.10993313789368" lon="-1.1078274250030518">
        <ele>663.0443118917979</ele>
        <time>2021-08-05T16:27:09.964Z</time>
      </trkpt>
      <trkpt lat="43.109965324401855" lon="-1.1083316802978516">
        <ele>660.541541183027</ele>
        <time>2021-08-05T16:27:28.644Z</time>
      </trkpt>
      <trkpt lat="43.109997594729066" lon="-1.1085784435272217">
        <ele>658.1801684858252</ele>
        <time>2021-08-05T16:27:47.327Z</time>
      </trkpt>
      <trkpt lat="43.11008334159851" lon="-1.1089324951171875">
        <ele>655.8228423972265</ele>
        <time>2021-08-05T16:28:06.014Z</time>
      </trkpt>
      <trkpt lat="43.11037302017212" lon="-1.1098551750183105">
        <ele>653.2532527247267</ele>
        <time>2021-08-05T16:28:24.713Z</time>
      </trkpt>
      <trkpt lat="43.110480308532715" lon="-1.1101019382476807">
        <ele>650.9612843400719</ele>
        <time>2021-08-05T16:28:43.415Z</time>
      </trkpt>
      <trkpt lat="43.11065196990967" lon="-1.110391616821289">
        <ele>648.7208736859417</ele>
        <time>2021-08-05T16:29:02.122Z</time>
      </trkpt>
      <trkpt lat="43.110780799761415" lon="-1.1107349395751953">
        <ele>646.4421359978162</ele>
        <time>2021-08-05T16:29:20.833Z</time>
      </trkpt>
      <trkpt lat="43.1108558177948" lon="-1.1110782623291016">
        <ele>644.3157775009063</ele>
        <time>2021-08-05T16:29:39.549Z</time>
      </trkpt>
      <trkpt lat="43.11086654663086" lon="-1.111292839050293">
        <ele>642.3349295984808</ele>
        <time>2021-08-05T16:29:58.267Z</time>
      </trkpt>
      <trkpt lat="43.11086663044989" lon="-1.111292839050293">
        <ele>640.3239984045138</ele>
        <time>2021-08-05T16:30:16.985Z</time>
      </trkpt>
      <trkpt lat="43.11084508895874" lon="-1.1113786697387695">
        <ele>638.3641530513515</ele>
        <time>2021-08-05T16:30:35.704Z</time>
      </trkpt>
      <trkpt lat="43.110716342926025" lon="-1.1116254329681396">
        <ele>636.4612309387196</ele>
        <time>2021-08-05T16:30:54.427Z</time>
      </trkpt>
      <trkpt lat="43.11066269874573" lon="-1.1117756366729736">
        <ele>634.4634996448583</ele>
        <time>2021-08-05T16:31:13.152Z</time>
      </trkpt>
      <trkpt lat="43.11064124107361" lon="-1.111915111541748">
        <ele>632.4451231867579</ele>
        <time>2021-08-05T16:31:31.878Z</time>
      </trkpt>
      <trkpt lat="43.11060905456543" lon="-1.1123442649841309">
        <ele>630.366676708336</ele>
        <time>2021-08-05T16:31:50.609Z</time>
      </trkpt>
      <trkpt lat="43.11063051223755" lon="-1.1127197742462158">
        <ele>628.2663439868547</ele>
        <time>2021-08-05T16:32:09.345Z</time>
      </trkpt>
      <trkpt lat="43.11067342758179" lon="-1.112912893295288">
        <ele>626.1843316579809</ele>
        <time>2021-08-05T16:32:28.083Z</time>
      </trkpt>
      <trkpt lat="43.11078071594238" lon="-1.1131811141967773">
        <ele>624.0274847135248</ele>
        <time>2021-08-05T16:32:46.825Z</time>
      </trkpt>
      <trkpt lat="43.11116695404053" lon="-1.1139428615570068">
        <ele>622.0110050627661</ele>
        <time>2021-08-05T16:33:05.578Z</time>
      </trkpt>
      <trkpt lat="43.111242055892944" lon="-1.1141574382781982">
        <ele>619.8457293519914</ele>
        <time>2021-08-05T16:33:24.333Z</time>
      </trkpt>
      <trkpt lat="43.11131715774536" lon="-1.1144256591796875">
        <ele>617.657289984378</ele>
        <time>2021-08-05T16:33:43.092Z</time>
      </trkpt>
      <trkpt lat="43.11138153076172" lon="-1.1149728298187256">
        <ele>615.3683674909225</ele>
        <time>2021-08-05T16:34:01.857Z</time>
      </trkpt>
      <trkpt lat="43.11140298843384" lon="-1.1155951023101807">
        <ele>612.8838822729119</ele>
        <time>2021-08-05T16:34:20.630Z</time>
      </trkpt>
      <trkpt lat="43.11153173446655" lon="-1.1167967319488525">
        <ele>610.2168301810947</ele>
        <time>2021-08-05T16:34:39.417Z</time>
      </trkpt>
      <trkpt lat="43.11159610748291" lon="-1.1172151565551758">
        <ele>607.5663967019134</ele>
        <time>2021-08-05T16:34:58.209Z</time>
      </trkpt>
      <trkpt lat="43.11163902282715" lon="-1.117633581161499">
        <ele>604.8991787869862</ele>
        <time>2021-08-05T16:35:17.006Z</time>
      </trkpt>
      <trkpt lat="43.111703395843506" lon="-1.1179125308990479">
        <ele>602.2384008078232</ele>
        <time>2021-08-05T16:35:35.806Z</time>
      </trkpt>
      <trkpt lat="43.11187505722046" lon="-1.1181914806365967">
        <ele>599.5266441875806</ele>
        <time>2021-08-05T16:35:54.610Z</time>
      </trkpt>
      <trkpt lat="43.112239837646484" lon="-1.1186957359313965">
        <ele>596.5380597648942</ele>
        <time>2021-08-05T16:36:13.423Z</time>
      </trkpt>
      <trkpt lat="43.1123685836792" lon="-1.118835210800171">
        <ele>593.679503787022</ele>
        <time>2021-08-05T16:36:32.238Z</time>
      </trkpt>
      <trkpt lat="43.112497329711914" lon="-1.1188781261444092">
        <ele>590.8490577263051</ele>
        <time>2021-08-05T16:36:51.055Z</time>
      </trkpt>
      <trkpt lat="43.11278700828552" lon="-1.1188995838165283">
        <ele>587.9085319822757</ele>
        <time>2021-08-05T16:37:09.877Z</time>
      </trkpt>
      <trkpt lat="43.112990856170654" lon="-1.1189961433410645">
        <ele>584.8752411672756</ele>
        <time>2021-08-05T16:37:28.703Z</time>
      </trkpt>
      <trkpt lat="43.113205432891846" lon="-1.1190497875213623">
        <ele>581.9047703253343</ele>
        <time>2021-08-05T16:37:47.532Z</time>
      </trkpt>
      <trkpt lat="43.11340928077698" lon="-1.1191892623901367">
        <ele>578.8205443121229</ele>
        <time>2021-08-05T16:38:06.365Z</time>
      </trkpt>
      <trkpt lat="43.113484382629395" lon="-1.1193394660949707">
        <ele>575.6556414898295</ele>
        <time>2021-08-05T16:38:25.200Z</time>
      </trkpt>
      <trkpt lat="43.11367750167847" lon="-1.119832992553711">
        <ele>572.3356974293793</ele>
        <time>2021-08-05T16:38:44.041Z</time>
      </trkpt>
      <trkpt lat="43.113720417022705" lon="-1.1200475692749023">
        <ele>569.0902253894205</ele>
        <time>2021-08-05T16:39:02.885Z</time>
      </trkpt>
      <trkpt lat="43.11376333236694" lon="-1.1204230785369873">
        <ele>565.7985649480161</ele>
        <time>2021-08-05T16:39:21.733Z</time>
      </trkpt>
      <trkpt lat="43.11383843421936" lon="-1.1208736896514893">
        <ele>562.3362523628778</ele>
        <time>2021-08-05T16:39:40.587Z</time>
      </trkpt>
      <trkpt lat="43.11401009559631" lon="-1.1216890811920166">
        <ele>558.9272107358719</ele>
        <time>2021-08-05T16:39:59.451Z</time>
      </trkpt>
      <trkpt lat="43.11406373977661" lon="-1.122053861618042">
        <ele>555.5378078375861</ele>
        <time>2021-08-05T16:40:18.319Z</time>
      </trkpt>
      <trkpt lat="43.11411738395691" lon="-1.1223113536834717">
        <ele>552.0319327498437</ele>
        <time>2021-08-05T16:40:37.190Z</time>
      </trkpt>
      <trkpt lat="43.1143319606781" lon="-1.122804880142212">
        <ele>548.4257334492546</ele>
        <time>2021-08-05T16:40:56.068Z</time>
      </trkpt>
      <trkpt lat="43.114696741104126" lon="-1.1234378814697266">
        <ele>544.9575603979908</ele>
        <time>2021-08-05T16:41:14.955Z</time>
      </trkpt>
      <trkpt lat="43.11512589454651" lon="-1.1244785785675049">
        <ele>541.2830036343191</ele>
        <time>2021-08-05T16:41:33.856Z</time>
      </trkpt>
      <trkpt lat="43.11552286148071" lon="-1.1252403259277344">
        <ele>537.8744074933807</ele>
        <time>2021-08-05T16:41:52.768Z</time>
      </trkpt>
      <trkpt lat="43.115726709365845" lon="-1.1255836486816406">
        <ele>534.4696049228564</ele>
        <time>2021-08-05T16:42:11.686Z</time>
      </trkpt>
      <trkpt lat="43.115994930267334" lon="-1.1259591579437256">
        <ele>530.9657496882237</ele>
        <time>2021-08-05T16:42:30.610Z</time>
      </trkpt>
      <trkpt lat="43.11609148979187" lon="-1.1260557174682617">
        <ele>527.747095118425</ele>
        <time>2021-08-05T16:42:49.536Z</time>
      </trkpt>
      <trkpt lat="43.116241693496704" lon="-1.1261522769927979">
        <ele>524.5521128476337</ele>
        <time>2021-08-05T16:43:08.464Z</time>
      </trkpt>
      <trkpt lat="43.11641335487366" lon="-1.1262166500091553">
        <ele>521.4036090745127</ele>
        <time>2021-08-05T16:43:27.395Z</time>
      </trkpt>
      <trkpt lat="43.11682105064392" lon="-1.1263132095336914">
        <ele>518.5114829084325</ele>
        <time>2021-08-05T16:43:46.333Z</time>
      </trkpt>
      <trkpt lat="43.116949796676636" lon="-1.1263883113861084">
        <ele>515.4850166730275</ele>
        <time>2021-08-05T16:44:05.273Z</time>
      </trkpt>
      <trkpt lat="43.11717510223389" lon="-1.126570701599121">
        <ele>512.5548713864121</ele>
        <time>2021-08-05T16:44:24.217Z</time>
      </trkpt>
      <trkpt lat="43.117250204086304" lon="-1.1266779899597168">
        <ele>509.5817103807598</ele>
        <time>2021-08-05T16:44:43.163Z</time>
      </trkpt>
      <trkpt lat="43.1173038482666" lon="-1.126796007156372">
        <ele>506.6772610326291</ele>
        <time>2021-08-05T16:45:02.111Z</time>
      </trkpt>
      <trkpt lat="43.11740040779114" lon="-1.1271822452545166">
        <ele>503.5888012545648</ele>
        <time>2021-08-05T16:45:21.063Z</time>
      </trkpt>
      <trkpt lat="43.117464780807495" lon="-1.1273002624511719">
        <ele>500.71260172452884</ele>
        <time>2021-08-05T16:45:40.017Z</time>
      </trkpt>
      <trkpt lat="43.11752915382385" lon="-1.127396821975708">
        <ele>497.9474225257281</ele>
        <time>2021-08-05T16:45:58.973Z</time>
      </trkpt>
      <trkpt lat="43.11779737472534" lon="-1.1276435852050781">
        <ele>495.26290468387015</ele>
        <time>2021-08-05T16:46:17.934Z</time>
      </trkpt>
      <trkpt lat="43.11853766441345" lon="-1.1284375190734863">
        <ele>492.40233422121815</ele>
        <time>2021-08-05T16:46:36.910Z</time>
      </trkpt>
      <trkpt lat="43.1188702583313" lon="-1.1287057399749756">
        <ele>489.7024601734728</ele>
        <time>2021-08-05T16:46:55.892Z</time>
      </trkpt>
      <trkpt lat="43.118999004364014" lon="-1.128770112991333">
        <ele>487.1260955026273</ele>
        <time>2021-08-05T16:47:14.876Z</time>
      </trkpt>
      <trkpt lat="43.11910629272461" lon="-1.1288022994995117">
        <ele>484.59362639262315</ele>
        <time>2021-08-05T16:47:33.862Z</time>
      </trkpt>
      <trkpt lat="43.119245767593384" lon="-1.128770112991333">
        <ele>482.06416074976744</ele>
        <time>2021-08-05T16:47:52.850Z</time>
      </trkpt>
      <trkpt lat="43.11934232711792" lon="-1.1286735534667969">
        <ele>479.5657837629433</ele>
        <time>2021-08-05T16:48:11.840Z</time>
      </trkpt>
      <trkpt lat="43.11938524246216" lon="-1.128544807434082">
        <ele>477.0904441543485</ele>
        <time>2021-08-05T16:48:30.832Z</time>
      </trkpt>
      <trkpt lat="43.11940670013428" lon="-1.128394603729248">
        <ele>474.6189126721931</ele>
        <time>2021-08-05T16:48:49.826Z</time>
      </trkpt>
      <trkpt lat="43.11939597129822" lon="-1.128222942352295">
        <ele>472.2138716195245</ele>
        <time>2021-08-05T16:49:08.822Z</time>
      </trkpt>
      <trkpt lat="43.119213581085205" lon="-1.1275684833526611">
        <ele>469.7470081033437</ele>
        <time>2021-08-05T16:49:27.826Z</time>
      </trkpt>
      <trkpt lat="43.119202852249146" lon="-1.1274075508117676">
        <ele>467.31363558573196</ele>
        <time>2021-08-05T16:49:46.832Z</time>
      </trkpt>
      <trkpt lat="43.119235038757324" lon="-1.1273002624511719">
        <ele>464.8755734553493</ele>
        <time>2021-08-05T16:50:05.839Z</time>
      </trkpt>
      <trkpt lat="43.11931014060974" lon="-1.1272144317626953">
        <ele>462.38644904573414</ele>
        <time>2021-08-05T16:50:24.848Z</time>
      </trkpt>
      <trkpt lat="43.119438886642456" lon="-1.1271071434020996">
        <ele>459.83970654834496</ele>
        <time>2021-08-05T16:50:43.859Z</time>
      </trkpt>
      <trkpt lat="43.11957836151123" lon="-1.126924753189087">
        <ele>457.31633146833724</ele>
        <time>2021-08-05T16:51:02.873Z</time>
      </trkpt>
      <trkpt lat="43.119953870773315" lon="-1.1263132095336914">
        <ele>454.65935709868904</ele>
        <time>2021-08-05T16:51:21.897Z</time>
      </trkpt>
      <trkpt lat="43.12008261680603" lon="-1.1259698867797852">
        <ele>452.0460245115559</ele>
        <time>2021-08-05T16:51:40.925Z</time>
      </trkpt>
      <trkpt lat="43.12012553215027" lon="-1.1259377002716064">
        <ele>449.57293056614515</ele>
        <time>2021-08-05T16:51:59.954Z</time>
      </trkpt>
      <trkpt lat="43.12015771865845" lon="-1.1259377002716064">
        <ele>447.10481172628647</ele>
        <time>2021-08-05T16:52:18.983Z</time>
      </trkpt>
      <trkpt lat="43.120211362838745" lon="-1.1259806156158447">
        <ele>444.5943433783955</ele>
        <time>2021-08-05T16:52:38.013Z</time>
      </trkpt>
      <trkpt lat="43.1203830242157" lon="-1.1262381076812744">
        <ele>441.9737163276914</ele>
        <time>2021-08-05T16:52:57.047Z</time>
      </trkpt>
      <trkpt lat="43.120458126068115" lon="-1.1263561248779297">
        <ele>439.366827111862</ele>
        <time>2021-08-05T16:53:16.083Z</time>
      </trkpt>
      <trkpt lat="43.12051177024841" lon="-1.1265277862548828">
        <ele>436.69827678956307</ele>
        <time>2021-08-05T16:53:35.121Z</time>
      </trkpt>
      <trkpt lat="43.12053322792053" lon="-1.1266887187957764">
        <ele>434.00191485221956</ele>
        <time>2021-08-05T16:53:54.161Z</time>
      </trkpt>
      <trkpt lat="43.12053322792053" lon="-1.1268925666809082">
        <ele>431.3296774584511</ele>
        <time>2021-08-05T16:54:13.204Z</time>
      </trkpt>
      <trkpt lat="43.12052249908447" lon="-1.1270534992218018">
        <ele>428.62796416301376</ele>
        <time>2021-08-05T16:54:32.249Z</time>
      </trkpt>
      <trkpt lat="43.120436668395996" lon="-1.1274504661560059">
        <ele>426.0491630971695</ele>
        <time>2021-08-05T16:54:51.298Z</time>
      </trkpt>
      <trkpt lat="43.12042593955994" lon="-1.1275362968444824">
        <ele>423.36083088790934</ele>
        <time>2021-08-05T16:55:10.348Z</time>
      </trkpt>
      <trkpt lat="43.120447397232056" lon="-1.1276328563690186">
        <ele>420.5872367214569</ele>
        <time>2021-08-05T16:55:29.400Z</time>
      </trkpt>
      <trkpt lat="43.120490312576294" lon="-1.1277186870574951">
        <ele>417.7523500346882</ele>
        <time>2021-08-05T16:55:48.453Z</time>
      </trkpt>
      <trkpt lat="43.1208336353302" lon="-1.1279869079589844">
        <ele>414.42670785892415</ele>
        <time>2021-08-05T16:56:07.512Z</time>
      </trkpt>
      <trkpt lat="43.12110185623169" lon="-1.128222942352295">
        <ele>411.4373321731051</ele>
        <time>2021-08-05T16:56:26.576Z</time>
      </trkpt>
      <trkpt lat="43.12137007713318" lon="-1.1283838748931885">
        <ele>408.3537058830374</ele>
        <time>2021-08-05T16:56:45.645Z</time>
      </trkpt>
      <trkpt lat="43.12180995941162" lon="-1.1288559436798096">
        <ele>405.15993576521475</ele>
        <time>2021-08-05T16:57:04.723Z</time>
      </trkpt>
      <trkpt lat="43.12204599380493" lon="-1.129070520401001">
        <ele>402.0313915760878</ele>
        <time>2021-08-05T16:57:23.805Z</time>
      </trkpt>
      <trkpt lat="43.12213182449341" lon="-1.1291885375976562">
        <ele>398.984589384218</ele>
        <time>2021-08-05T16:57:42.889Z</time>
      </trkpt>
      <trkpt lat="43.122217655181885" lon="-1.1293494701385498">
        <ele>395.8918267520503</ele>
        <time>2021-08-05T16:58:01.976Z</time>
      </trkpt>
      <trkpt lat="43.12221773900092" lon="-1.1293494701385498">
        <ele>392.86152650545546</ele>
        <time>2021-08-05T16:58:21.063Z</time>
      </trkpt>
      <trkpt lat="43.12233567237854" lon="-1.1296069622039795">
        <ele>389.68780813341607</ele>
        <time>2021-08-05T16:58:40.153Z</time>
      </trkpt>
      <trkpt lat="43.12251806259155" lon="-1.129918098449707">
        <ele>386.3882925265319</ele>
        <time>2021-08-05T16:58:59.248Z</time>
      </trkpt>
      <trkpt lat="43.122732639312744" lon="-1.1305725574493408">
        <ele>383.01211373328437</ele>
        <time>2021-08-05T16:59:18.351Z</time>
      </trkpt>
      <trkpt lat="43.12281847000122" lon="-1.130765676498413">
        <ele>379.88919651493575</ele>
        <time>2021-08-05T16:59:37.457Z</time>
      </trkpt>
      <trkpt lat="43.12309741973877" lon="-1.1311733722686768">
        <ele>376.5484385362546</ele>
        <time>2021-08-05T16:59:56.570Z</time>
      </trkpt>
      <trkpt lat="43.12331199645996" lon="-1.1315274238586426">
        <ele>373.2917066825082</ele>
        <time>2021-08-05T17:00:15.688Z</time>
      </trkpt>
      <trkpt lat="43.12336564064026" lon="-1.1316776275634766">
        <ele>370.1789196686491</ele>
        <time>2021-08-05T17:00:34.808Z</time>
      </trkpt>
      <trkpt lat="43.1233549118042" lon="-1.1317956447601318">
        <ele>367.0737387202035</ele>
        <time>2021-08-05T17:00:53.929Z</time>
      </trkpt>
      <trkpt lat="43.1233012676239" lon="-1.1319029331207275">
        <ele>363.9639713793439</ele>
        <time>2021-08-05T17:01:13.052Z</time>
      </trkpt>
      <trkpt lat="43.12301158905029" lon="-1.1322999000549316">
        <ele>360.6978684065624</ele>
        <time>2021-08-05T17:01:32.181Z</time>
      </trkpt>
      <trkpt lat="43.12266826629639" lon="-1.1328041553497314">
        <ele>357.40770779257673</ele>
        <time>2021-08-05T17:01:51.318Z</time>
      </trkpt>
      <trkpt lat="43.12258251942694" lon="-1.1330080032348633">
        <ele>354.277323541801</ele>
        <time>2021-08-05T17:02:10.458Z</time>
      </trkpt>
      <trkpt lat="43.122464418411255" lon="-1.1333191394805908">
        <ele>351.06109901594107</ele>
        <time>2021-08-05T17:02:29.602Z</time>
      </trkpt>
      <trkpt lat="43.122239196673036" lon="-1.1336088180541992">
        <ele>347.8562192911881</ele>
        <time>2021-08-05T17:02:48.751Z</time>
      </trkpt>
      <trkpt lat="43.122217655181885" lon="-1.1336302757263184">
        <ele>344.77696323697035</ele>
        <time>2021-08-05T17:03:07.901Z</time>
      </trkpt>
      <trkpt lat="43.12220701016486" lon="-1.133716106414795">
        <ele>341.6335288881162</ele>
        <time>2021-08-05T17:03:27.052Z</time>
      </trkpt>
      <trkpt lat="43.122260654345155" lon="-1.1337482929229736">
        <ele>338.51068472004636</ele>
        <time>2021-08-05T17:03:46.204Z</time>
      </trkpt>
      <trkpt lat="43.12232494354248" lon="-1.133737564086914">
        <ele>335.4433289368982</ele>
        <time>2021-08-05T17:04:05.357Z</time>
      </trkpt>
      <trkpt lat="43.122721910476685" lon="-1.1335766315460205">
        <ele>332.2948009967017</ele>
        <time>2021-08-05T17:04:24.516Z</time>
      </trkpt>
      <trkpt lat="43.122925758361816" lon="-1.133437156677246">
        <ele>329.2554107748589</ele>
        <time>2021-08-05T17:04:43.679Z</time>
      </trkpt>
      <trkpt lat="43.12309741973877" lon="-1.1333835124969482">
        <ele>326.2121311649755</ele>
        <time>2021-08-05T17:05:02.845Z</time>
      </trkpt>
      <trkpt lat="43.12356948852539" lon="-1.1334264278411865">
        <ele>322.93022688638405</ele>
        <time>2021-08-05T17:05:22.018Z</time>
      </trkpt>
      <trkpt lat="43.12388062477112" lon="-1.1334800720214844">
        <ele>319.86322153655044</ele>
        <time>2021-08-05T17:05:41.196Z</time>
      </trkpt>
      <trkpt lat="43.12437423504889" lon="-1.1333942413330078">
        <ele>316.7704806100535</ele>
        <time>2021-08-05T17:06:00.382Z</time>
      </trkpt>
      <trkpt lat="43.124438524246216" lon="-1.1333835124969482">
        <ele>313.948388060187</ele>
        <time>2021-08-05T17:06:19.569Z</time>
      </trkpt>
      <trkpt lat="43.12499642372131" lon="-1.1333942413330078">
        <ele>310.8439454096666</ele>
        <time>2021-08-05T17:06:38.765Z</time>
      </trkpt>
      <trkpt lat="43.12510371208191" lon="-1.1334693431854248">
        <ele>308.1325782904429</ele>
        <time>2021-08-05T17:06:57.963Z</time>
      </trkpt>
      <trkpt lat="43.12518962658942" lon="-1.1337590217590332">
        <ele>305.46727404182553</ele>
        <time>2021-08-05T17:07:17.165Z</time>
      </trkpt>
      <trkpt lat="43.125200271606445" lon="-1.1339843273162842">
        <ele>302.9111118885816</ele>
        <time>2021-08-05T17:07:36.370Z</time>
      </trkpt>
      <trkpt lat="43.12527537345886" lon="-1.134037971496582">
        <ele>300.42392251541474</ele>
        <time>2021-08-05T17:07:55.576Z</time>
      </trkpt>
      <trkpt lat="43.12559732235968" lon="-1.1341345310211182">
        <ele>297.8687394232003</ele>
        <time>2021-08-05T17:08:14.787Z</time>
      </trkpt>
      <trkpt lat="43.12559723854065" lon="-1.1341345310211182">
        <ele>295.54755186969254</ele>
        <time>2021-08-05T17:08:33.998Z</time>
      </trkpt>
      <trkpt lat="43.125693798065186" lon="-1.1342096328735352">
        <ele>293.25680880501636</ele>
        <time>2021-08-05T17:08:53.211Z</time>
      </trkpt>
      <trkpt lat="43.12574744224548" lon="-1.1342740058898926">
        <ele>291.0611735181217</ele>
        <time>2021-08-05T17:09:12.425Z</time>
      </trkpt>
      <trkpt lat="43.12581181526184" lon="-1.1349284648895264">
        <ele>288.9011877853232</ele>
        <time>2021-08-05T17:09:31.647Z</time>
      </trkpt>
      <trkpt lat="43.1263267993927" lon="-1.135786771774292">
        <ele>286.6307721611913</ele>
        <time>2021-08-05T17:09:50.882Z</time>
      </trkpt>
      <trkpt lat="43.12641263008118" lon="-1.136012077331543">
        <ele>284.64090191329865</ele>
        <time>2021-08-05T17:10:10.120Z</time>
      </trkpt>
      <trkpt lat="43.126713037490845" lon="-1.1375999450683594">
        <ele>282.41560923646756</ele>
        <time>2021-08-05T17:10:29.377Z</time>
      </trkpt>
      <trkpt lat="43.12670239247382" lon="-1.1377930641174316">
        <ele>280.4893295580845</ele>
        <time>2021-08-05T17:10:48.636Z</time>
      </trkpt>
      <trkpt lat="43.126702308654785" lon="-1.1377930641174316">
        <ele>278.73652791503446</ele>
        <time>2021-08-05T17:11:07.895Z</time>
      </trkpt>
      <trkpt lat="43.12684178352356" lon="-1.13783597946167">
        <ele>277.06311042936153</ele>
        <time>2021-08-05T17:11:27.157Z</time>
      </trkpt>
      <trkpt lat="43.127002799883485" lon="-1.1379218101501465">
        <ele>275.407239298428</ele>
        <time>2021-08-05T17:11:46.421Z</time>
      </trkpt>
      <trkpt lat="43.127968311309814" lon="-1.1384904384613037">
        <ele>273.8333932467235</ele>
        <time>2021-08-05T17:12:05.702Z</time>
      </trkpt>
      <trkpt lat="43.128011310473084" lon="-1.138533353805542">
        <ele>272.29857008649236</ele>
        <time>2021-08-05T17:12:24.984Z</time>
      </trkpt>
      <trkpt lat="43.12878370285034" lon="-1.1394023895263672">
        <ele>270.78890989349424</ele>
        <time>2021-08-05T17:12:44.282Z</time>
      </trkpt>
      <trkpt lat="43.129212940111756" lon="-1.1397457122802734">
        <ele>269.34525124209927</ele>
        <time>2021-08-05T17:13:03.588Z</time>
      </trkpt>
      <trkpt lat="43.12957763671875" lon="-1.1399924755096436">
        <ele>267.9101407204454</ele>
        <time>2021-08-05T17:13:22.901Z</time>
      </trkpt>
      <trkpt lat="43.13014634884894" lon="-1.1402606964111328">
        <ele>266.51821554576134</ele>
        <time>2021-08-05T17:13:42.223Z</time>
      </trkpt>
      <trkpt lat="43.13014626502991" lon="-1.1402606964111328">
        <ele>265.2655118436708</ele>
        <time>2021-08-05T17:14:01.545Z</time>
      </trkpt>
      <trkpt lat="43.13085445202887" lon="-1.1407220363616943">
        <ele>264.00139208691013</ele>
        <time>2021-08-05T17:14:20.880Z</time>
      </trkpt>
      <trkpt lat="43.131980895996094" lon="-1.141526699066162">
        <ele>262.78021727268174</ele>
        <time>2021-08-05T17:14:40.235Z</time>
      </trkpt>
      <trkpt lat="43.1323778629303" lon="-1.1417734622955322">
        <ele>261.6399142662681</ele>
        <time>2021-08-05T17:14:59.597Z</time>
      </trkpt>
      <trkpt lat="43.13344010151923" lon="-1.1423635482788086">
        <ele>260.51243521437675</ele>
        <time>2021-08-05T17:15:18.977Z</time>
      </trkpt>
      <trkpt lat="43.134201765060425" lon="-1.1428248882293701">
        <ele>259.5068297053208</ele>
        <time>2021-08-05T17:15:38.371Z</time>
      </trkpt>
      <trkpt lat="43.1343412399292" lon="-1.1429429054260254">
        <ele>258.4588237152243</ele>
        <time>2021-08-05T17:15:57.767Z</time>
      </trkpt>
      <trkpt lat="43.134491527453065" lon="-1.1431467533111572">
        <ele>257.41357058493617</ele>
        <time>2021-08-05T17:16:17.167Z</time>
      </trkpt>
      <trkpt lat="43.13465237617493" lon="-1.1434686183929443">
        <ele>256.41833194939835</ele>
        <time>2021-08-05T17:16:36.571Z</time>
      </trkpt>
      <trkpt lat="43.13488841056824" lon="-1.143801212310791">
        <ele>255.44648042059134</ele>
        <time>2021-08-05T17:16:55.981Z</time>
      </trkpt>
      <trkpt lat="43.13508161343634" lon="-1.1440157890319824">
        <ele>254.51603882469743</ele>
        <time>2021-08-05T17:17:15.395Z</time>
      </trkpt>
      <trkpt lat="43.13512452878058" lon="-1.1440587043762207">
        <ele>253.63642351306862</ele>
        <time>2021-08-05T17:17:34.810Z</time>
      </trkpt>
      <trkpt lat="43.13531756401062" lon="-1.1442410945892334">
        <ele>252.75910596997713</ele>
        <time>2021-08-05T17:17:54.228Z</time>
      </trkpt>
      <trkpt lat="43.1359076499939" lon="-1.144927740097046">
        <ele>251.8659086695643</ele>
        <time>2021-08-05T17:18:13.659Z</time>
      </trkpt>
      <trkpt lat="43.13606858253479" lon="-1.1451530456542969">
        <ele>251.04809626667304</ele>
        <time>2021-08-05T17:18:33.093Z</time>
      </trkpt>
      <trkpt lat="43.136969804763794" lon="-1.1466550827026367">
        <ele>250.16604260185068</ele>
        <time>2021-08-05T17:18:52.550Z</time>
      </trkpt>
      <trkpt lat="43.13777446746826" lon="-1.147921085357666">
        <ele>249.49132038084772</ele>
        <time>2021-08-05T17:19:12.027Z</time>
      </trkpt>
      <trkpt lat="43.13882597722113" lon="-1.1496162414550781">
        <ele>248.68400602444015</ele>
        <time>2021-08-05T17:19:31.530Z</time>
      </trkpt>
      <trkpt lat="43.14000606536865" lon="-1.1514294147491455">
        <ele>248.00889321867584</ele>
        <time>2021-08-05T17:19:51.061Z</time>
      </trkpt>
      <trkpt lat="43.14038157463074" lon="-1.1520302295684814">
        <ele>247.4049932315093</ele>
        <time>2021-08-05T17:20:10.601Z</time>
      </trkpt>
      <trkpt lat="43.14088591374457" lon="-1.153188943862915">
        <ele>246.77178562101443</ele>
        <time>2021-08-05T17:20:30.157Z</time>
      </trkpt>
      <trkpt lat="43.140960931777954" lon="-1.153264045715332">
        <ele>246.36074654773972</ele>
        <time>2021-08-05T17:20:49.715Z</time>
      </trkpt>
      <trkpt lat="43.14102538861334" lon="-1.1532855033874512">
        <ele>246.01379635421642</ele>
        <time>2021-08-05T17:21:09.274Z</time>
      </trkpt>
      <trkpt lat="43.141733491793275" lon="-1.1536073684692383">
        <ele>245.63787019296998</ele>
        <time>2021-08-05T17:21:28.845Z</time>
      </trkpt>
      <trkpt lat="43.141969526186585" lon="-1.1536931991577148">
        <ele>245.40010805287932</ele>
        <time>2021-08-05T17:21:48.420Z</time>
      </trkpt>
      <trkpt lat="43.14297795295715" lon="-1.1535751819610596">
        <ele>245.38764189290885</ele>
        <time>2021-08-05T17:22:08.011Z</time>
      </trkpt>
      <trkpt lat="43.143192529678345" lon="-1.1536180973052979">
        <ele>245.19702148764702</ele>
        <time>2021-08-05T17:22:27.605Z</time>
      </trkpt>
      <trkpt lat="43.14367541112006" lon="-1.1539185047149658">
        <ele>245.14267932665717</ele>
        <time>2021-08-05T17:22:47.208Z</time>
      </trkpt>
      <trkpt lat="43.143675327301025" lon="-1.1539185047149658">
        <ele>245.06538521598185</ele>
        <time>2021-08-05T17:23:06.811Z</time>
      </trkpt>
      <trkpt lat="43.1437611579895" lon="-1.1540794372558594">
        <ele>245.04756629893734</ele>
        <time>2021-08-05T17:23:26.416Z</time>
      </trkpt>
      <trkpt lat="43.14384707249701" lon="-1.154787540435791">
        <ele>244.9596770593914</ele>
        <time>2021-08-05T17:23:46.030Z</time>
      </trkpt>
      <trkpt lat="43.143932819366455" lon="-1.155635118484497">
        <ele>244.98317461748334</ele>
        <time>2021-08-05T17:24:05.654Z</time>
      </trkpt>
      <trkpt lat="43.14413666725159" lon="-1.1567294597625732">
        <ele>245.2132620027685</ele>
        <time>2021-08-05T17:24:25.291Z</time>
      </trkpt>
      <trkpt lat="43.14427614212036" lon="-1.1579525470733643">
        <ele>245.3767814318469</ele>
        <time>2021-08-05T17:24:44.942Z</time>
      </trkpt>
      <trkpt lat="43.144651651382446" lon="-1.1588752269744873">
        <ele>245.43697315266365</ele>
        <time>2021-08-05T17:25:04.606Z</time>
      </trkpt>
      <trkpt lat="43.144716024398804" lon="-1.1592507362365723">
        <ele>245.4483026896282</ele>
        <time>2021-08-05T17:25:24.274Z</time>
      </trkpt>
      <trkpt lat="43.144662380218506" lon="-1.1604952812194824">
        <ele>245.29761900132505</ele>
        <time>2021-08-05T17:25:43.957Z</time>
      </trkpt>
      <trkpt lat="43.144662380218506" lon="-1.1607098579406738">
        <ele>245.3827074113106</ele>
        <time>2021-08-05T17:26:03.642Z</time>
      </trkpt>
      <trkpt lat="43.144716024398804" lon="-1.161278486251831">
        <ele>245.5494129625868</ele>
        <time>2021-08-05T17:26:23.334Z</time>
      </trkpt>
      <trkpt lat="43.144705295562744" lon="-1.1614716053009033">
        <ele>245.67757014873945</ele>
        <time>2021-08-05T17:26:43.028Z</time>
      </trkpt>
      <trkpt lat="43.14464092254639" lon="-1.1620938777923584">
        <ele>245.84317045872382</ele>
        <time>2021-08-05T17:27:02.730Z</time>
      </trkpt>
      <trkpt lat="43.14464092254639" lon="-1.1623728275299072">
        <ele>245.976684718329</ele>
        <time>2021-08-05T17:27:22.435Z</time>
      </trkpt>
      <trkpt lat="43.144662380218506" lon="-1.1625337600708008">
        <ele>246.08109816683614</ele>
        <time>2021-08-05T17:27:42.142Z</time>
      </trkpt>
      <trkpt lat="43.144694566726685" lon="-1.1626839637756348">
        <ele>246.15063310301827</ele>
        <time>2021-08-05T17:28:01.851Z</time>
      </trkpt>
      <trkpt lat="43.14484477043152" lon="-1.1631238460540771">
        <ele>246.2037787625797</ele>
        <time>2021-08-05T17:28:21.565Z</time>
      </trkpt>
      <trkpt lat="43.14512372016907" lon="-1.164100170135498">
        <ele>246.33777550238221</ele>
        <time>2021-08-05T17:28:41.292Z</time>
      </trkpt>
      <trkpt lat="43.14510226249695" lon="-1.1642181873321533">
        <ele>246.29457241346077</ele>
        <time>2021-08-05T17:29:01.020Z</time>
      </trkpt>
      <trkpt lat="43.14504870213568" lon="-1.1643576622009277">
        <ele>246.21517873937836</ele>
        <time>2021-08-05T17:29:20.750Z</time>
      </trkpt>
      <trkpt lat="43.144919872283936" lon="-1.1647331714630127">
        <ele>246.1034403991518</ele>
        <time>2021-08-05T17:29:40.485Z</time>
      </trkpt>
      <trkpt lat="43.14481258392334" lon="-1.165248155593872">
        <ele>245.88602707351203</ele>
        <time>2021-08-05T17:30:00.226Z</time>
      </trkpt>
      <trkpt lat="43.1447696685791" lon="-1.1657309532165527">
        <ele>245.61054751860144</ele>
        <time>2021-08-05T17:30:19.973Z</time>
      </trkpt>
      <trkpt lat="43.1447696685791" lon="-1.1661386489868164">
        <ele>245.38341376745052</ele>
        <time>2021-08-05T17:30:39.724Z</time>
      </trkpt>
      <trkpt lat="43.1448233127594" lon="-1.1664175987243652">
        <ele>245.15505624150006</ele>
        <time>2021-08-05T17:30:59.479Z</time>
      </trkpt>
      <trkpt lat="43.14486631192267" lon="-1.1664819717407227">
        <ele>244.98743825762332</ele>
        <time>2021-08-05T17:31:19.235Z</time>
      </trkpt>
      <trkpt lat="43.144962787628174" lon="-1.1665570735931396">
        <ele>244.80505669258918</ele>
        <time>2021-08-05T17:31:38.993Z</time>
      </trkpt>
      <trkpt lat="43.14548850059509" lon="-1.1667180061340332">
        <ele>244.57164638106298</ele>
        <time>2021-08-05T17:31:58.759Z</time>
      </trkpt>
      <trkpt lat="43.14557433128357" lon="-1.166771650314331">
        <ele>244.3432050703428</ele>
        <time>2021-08-05T17:32:18.527Z</time>
      </trkpt>
      <trkpt lat="43.14663648605347" lon="-1.1679410934448242">
        <ele>243.94744545201894</ele>
        <time>2021-08-05T17:32:38.317Z</time>
      </trkpt>
      <trkpt lat="43.146711587905884" lon="-1.16804838180542">
        <ele>243.75806689792964</ele>
        <time>2021-08-05T17:32:58.108Z</time>
      </trkpt>
      <trkpt lat="43.14677596092224" lon="-1.1681878566741943">
        <ele>243.57168628147633</ele>
        <time>2021-08-05T17:33:17.901Z</time>
      </trkpt>
      <trkpt lat="43.14685114659369" lon="-1.1684668064117432">
        <ele>243.41424456152222</ele>
        <time>2021-08-05T17:33:37.698Z</time>
      </trkpt>
      <trkpt lat="43.14685106277466" lon="-1.1684668064117432">
        <ele>243.18261985612475</ele>
        <time>2021-08-05T17:33:57.495Z</time>
      </trkpt>
      <trkpt lat="43.146915435791016" lon="-1.1686921119689941">
        <ele>242.93314965070925</ele>
        <time>2021-08-05T17:34:17.295Z</time>
      </trkpt>
      <trkpt lat="43.147183656692505" lon="-1.1692821979522705">
        <ele>242.58220519972718</ele>
        <time>2021-08-05T17:34:37.103Z</time>
      </trkpt>
      <trkpt lat="43.14775228500366" lon="-1.1701512336730957">
        <ele>242.27014945363317</ele>
        <time>2021-08-05T17:34:56.924Z</time>
      </trkpt>
      <trkpt lat="43.148213624954224" lon="-1.1711275577545166">
        <ele>241.96049917202112</ele>
        <time>2021-08-05T17:35:16.759Z</time>
      </trkpt>
      <trkpt lat="43.148492658510804" lon="-1.1713850498199463">
        <ele>241.8343347868098</ele>
        <time>2021-08-05T17:35:36.599Z</time>
      </trkpt>
      <trkpt lat="43.1487500667572" lon="-1.1715245246887207">
        <ele>241.6507900835448</ele>
        <time>2021-08-05T17:35:56.444Z</time>
      </trkpt>
      <trkpt lat="43.149168491363525" lon="-1.1718356609344482">
        <ele>241.39804301420293</ele>
        <time>2021-08-05T17:36:16.296Z</time>
      </trkpt>
      <trkpt lat="43.14972639083862" lon="-1.1724579334259033">
        <ele>241.07295848783053</ele>
        <time>2021-08-05T17:36:36.160Z</time>
      </trkpt>
      <trkpt lat="43.150659799575806" lon="-1.1738312244415283">
        <ele>240.69227719159608</ele>
        <time>2021-08-05T17:36:56.046Z</time>
      </trkpt>
      <trkpt lat="43.15073490142822" lon="-1.1739814281463623">
        <ele>240.42029752952158</ele>
        <time>2021-08-05T17:37:15.934Z</time>
      </trkpt>
      <trkpt lat="43.15085300244391" lon="-1.1742603778839111">
        <ele>240.11280269881996</ele>
        <time>2021-08-05T17:37:35.826Z</time>
      </trkpt>
      <trkpt lat="43.150960206985474" lon="-1.1745500564575195">
        <ele>239.81699481458168</ele>
        <time>2021-08-05T17:37:55.722Z</time>
      </trkpt>
      <trkpt lat="43.15109976567328" lon="-1.1750006675720215">
        <ele>239.4889335471007</ele>
        <time>2021-08-05T17:38:15.623Z</time>
      </trkpt>
      <trkpt lat="43.151196241378784" lon="-1.1753332614898682">
        <ele>239.08834226416568</ele>
        <time>2021-08-05T17:38:35.529Z</time>
      </trkpt>
      <trkpt lat="43.15156110562384" lon="-1.1769318580627441">
        <ele>238.97784617584145</ele>
        <time>2021-08-05T17:38:55.454Z</time>
      </trkpt>
      <trkpt lat="43.15156102180481" lon="-1.1769318580627441">
        <ele>238.3774574651619</ele>
        <time>2021-08-05T17:39:15.379Z</time>
      </trkpt>
      <trkpt lat="43.151679039001465" lon="-1.1774897575378418">
        <ele>237.79435484967604</ele>
        <time>2021-08-05T17:39:35.311Z</time>
      </trkpt>
      <trkpt lat="43.15174341201782" lon="-1.1776936054229736">
        <ele>237.02296975912765</ele>
        <time>2021-08-05T17:39:55.246Z</time>
      </trkpt>
      <trkpt lat="43.15182932652533" lon="-1.1778759956359863">
        <ele>236.17332486343633</ele>
        <time>2021-08-05T17:40:15.183Z</time>
      </trkpt>
      <trkpt lat="43.15197944641113" lon="-1.178058385848999">
        <ele>235.26188004341793</ele>
        <time>2021-08-05T17:40:35.123Z</time>
      </trkpt>
      <trkpt lat="43.152966583147645" lon="-1.1791634559631348">
        <ele>234.17932583355974</ele>
        <time>2021-08-05T17:40:55.084Z</time>
      </trkpt>
      <trkpt lat="43.15411448478699" lon="-1.1804616451263428">
        <ele>232.97425286533712</ele>
        <time>2021-08-05T17:41:15.069Z</time>
      </trkpt>
      <trkpt lat="43.154178857803345" lon="-1.1806118488311768">
        <ele>231.7518820410444</ele>
        <time>2021-08-05T17:41:35.056Z</time>
      </trkpt>
      <trkpt lat="43.15422177314758" lon="-1.1807835102081299">
        <ele>230.45164727148497</ele>
        <time>2021-08-05T17:41:55.045Z</time>
      </trkpt>
      <trkpt lat="43.154447162523866" lon="-1.1821353435516357">
        <ele>228.9719500992859</ele>
        <time>2021-08-05T17:42:15.050Z</time>
      </trkpt>
      <trkpt lat="43.15459728240967" lon="-1.1830472946166992">
        <ele>227.53770975202406</ele>
        <time>2021-08-05T17:42:35.066Z</time>
      </trkpt>
      <trkpt lat="43.154940605163574" lon="-1.1846458911895752">
        <ele>225.95671093344544</ele>
        <time>2021-08-05T17:42:55.101Z</time>
      </trkpt>
      <trkpt lat="43.155144453048706" lon="-1.1852359771728516">
        <ele>224.56008953291752</ele>
        <time>2021-08-05T17:43:15.144Z</time>
      </trkpt>
      <trkpt lat="43.15526247024536" lon="-1.1854290962219238">
        <ele>223.27480525126285</ele>
        <time>2021-08-05T17:43:35.190Z</time>
      </trkpt>
      <trkpt lat="43.15558433532715" lon="-1.1858046054840088">
        <ele>221.99825831135013</ele>
        <time>2021-08-05T17:43:55.243Z</time>
      </trkpt>
      <trkpt lat="43.15615304745734" lon="-1.1863839626312256">
        <ele>220.4716335321669</ele>
        <time>2021-08-05T17:44:15.307Z</time>
      </trkpt>
      <trkpt lat="43.157182931900024" lon="-1.1874139308929443">
        <ele>219.09868739503207</ele>
        <time>2021-08-05T17:44:35.392Z</time>
      </trkpt>
      <trkpt lat="43.15885663032532" lon="-1.1889374256134033">
        <ele>217.47616859085343</ele>
        <time>2021-08-05T17:44:55.509Z</time>
      </trkpt>
      <trkpt lat="43.16228994168341" lon="-1.1920166015625">
        <ele>216.30475155814244</ele>
        <time>2021-08-05T17:45:15.691Z</time>
      </trkpt>
      <trkpt lat="43.16228985786438" lon="-1.1920166015625">
        <ele>215.05204269336053</ele>
        <time>2021-08-05T17:45:35.873Z</time>
      </trkpt>
      <trkpt lat="43.16237577237189" lon="-1.1920809745788574">
        <ele>213.8250062914571</ele>
        <time>2021-08-05T17:45:56.057Z</time>
      </trkpt>
      <trkpt lat="43.163427114486694" lon="-1.1927461624145508">
        <ele>212.40111865938374</ele>
        <time>2021-08-05T17:46:16.260Z</time>
      </trkpt>
      <trkpt lat="43.164381980895996" lon="-1.193314790725708">
        <ele>210.99862151932155</ele>
        <time>2021-08-05T17:46:36.479Z</time>
      </trkpt>
      <trkpt lat="43.164972150698304" lon="-1.1936795711517334">
        <ele>209.91025016827496</ele>
        <time>2021-08-05T17:46:56.709Z</time>
      </trkpt>
      <trkpt lat="43.165379762649536" lon="-1.1938726902008057">
        <ele>208.68106739025427</ele>
        <time>2021-08-05T17:47:16.945Z</time>
      </trkpt>
      <trkpt lat="43.16535838879645" lon="-1.1941730976104736">
        <ele>207.41803110907966</ele>
        <time>2021-08-05T17:47:37.185Z</time>
      </trkpt>
      <trkpt lat="43.16530466079712" lon="-1.1946988105773926">
        <ele>206.14145455441286</ele>
        <time>2021-08-05T17:47:57.431Z</time>
      </trkpt>
      <trkpt lat="43.165197456255555" lon="-1.1953210830688477">
        <ele>204.89912120811744</ele>
        <time>2021-08-05T17:48:17.685Z</time>
      </trkpt>
      <trkpt lat="43.165122270584106" lon="-1.195814609527588">
        <ele>203.6461204955052</ele>
        <time>2021-08-05T17:48:37.945Z</time>
      </trkpt>
      <trkpt lat="43.165122270584106" lon="-1.1960184574127197">
        <ele>202.2862612935166</ele>
        <time>2021-08-05T17:48:58.207Z</time>
      </trkpt>
      <trkpt lat="43.16514381207526" lon="-1.1961793899536133">
        <ele>200.905543867875</ele>
        <time>2021-08-05T17:49:18.471Z</time>
      </trkpt>
      <trkpt lat="43.165229642763734" lon="-1.1969411373138428">
        <ele>199.3838045871653</ele>
        <time>2021-08-05T17:49:38.744Z</time>
      </trkpt>
      <trkpt lat="43.16529393196106" lon="-1.1974239349365234">
        <ele>197.92428316898406</ele>
        <time>2021-08-05T17:49:59.023Z</time>
      </trkpt>
      <trkpt lat="43.16539057530463" lon="-1.198110580444336">
        <ele>196.6590797434056</ele>
        <time>2021-08-05T17:50:19.310Z</time>
      </trkpt>
      <trkpt lat="43.165658712387085" lon="-1.2006211280822754">
        <ele>195.2771701035347</ele>
        <time>2021-08-05T17:50:39.627Z</time>
      </trkpt>
      <trkpt lat="43.16565879620612" lon="-1.2006211280822754">
        <ele>194.15192112976595</ele>
        <time>2021-08-05T17:50:59.944Z</time>
      </trkpt>
      <trkpt lat="43.16586256027222" lon="-1.2025094032287598">
        <ele>192.76824022027438</ele>
        <time>2021-08-05T17:51:20.283Z</time>
      </trkpt>
      <trkpt lat="43.165937662124634" lon="-1.2032496929168701">
        <ele>191.8675227556956</ele>
        <time>2021-08-05T17:51:40.631Z</time>
      </trkpt>
      <trkpt lat="43.16602357663214" lon="-1.2035179138183594">
        <ele>190.93390391807003</ele>
        <time>2021-08-05T17:52:00.982Z</time>
      </trkpt>
      <trkpt lat="43.16607722081244" lon="-1.203550100326538">
        <ele>190.05488799820284</ele>
        <time>2021-08-05T17:52:21.334Z</time>
      </trkpt>
      <trkpt lat="43.16610940732062" lon="-1.2035930156707764">
        <ele>189.1838841148692</ele>
        <time>2021-08-05T17:52:41.687Z</time>
      </trkpt>
      <trkpt lat="43.166141510009766" lon="-1.203678846359253">
        <ele>188.32441672358735</ele>
        <time>2021-08-05T17:53:02.041Z</time>
      </trkpt>
      <trkpt lat="43.166141510009766" lon="-1.2038075923919678">
        <ele>187.45222266719452</ele>
        <time>2021-08-05T17:53:22.396Z</time>
      </trkpt>
      <trkpt lat="43.16609859466553" lon="-1.2038719654083252">
        <ele>186.63720443146582</ele>
        <time>2021-08-05T17:53:42.752Z</time>
      </trkpt>
      <trkpt lat="43.16607713699341" lon="-1.2039685249328613">
        <ele>185.8438305257668</ele>
        <time>2021-08-05T17:54:03.110Z</time>
      </trkpt>
      <trkpt lat="43.16604495048523" lon="-1.204226016998291">
        <ele>185.06822727918828</ele>
        <time>2021-08-05T17:54:23.471Z</time>
      </trkpt>
      <trkpt lat="43.166205966845155" lon="-1.2056100368499756">
        <ele>184.3130533026104</ele>
        <time>2021-08-05T17:54:43.848Z</time>
      </trkpt>
      <trkpt lat="43.16620588302612" lon="-1.2056100368499756">
        <ele>183.6018828081158</ele>
        <time>2021-08-05T17:55:04.225Z</time>
      </trkpt>
      <trkpt lat="43.166538560763" lon="-1.2086677551269531">
        <ele>182.8266584913036</ele>
        <time>2021-08-05T17:55:24.638Z</time>
      </trkpt>
      <trkpt lat="43.16653847694397" lon="-1.2086677551269531">
        <ele>182.16751540548546</ele>
        <time>2021-08-05T17:55:45.051Z</time>
      </trkpt>
      <trkpt lat="43.16654920578003" lon="-1.2087321281433105">
        <ele>181.509776411687</ele>
        <time>2021-08-05T17:56:05.465Z</time>
      </trkpt>
      <trkpt lat="43.16669940948486" lon="-1.2100732326507568">
        <ele>180.82698384312795</ele>
        <time>2021-08-05T17:56:25.895Z</time>
      </trkpt>
      <trkpt lat="43.166731679812074" lon="-1.2103307247161865">
        <ele>180.12471186252742</ele>
        <time>2021-08-05T17:56:46.328Z</time>
      </trkpt>
      <trkpt lat="43.16687115468085" lon="-1.2116503715515137">
        <ele>179.4151667717209</ele>
        <time>2021-08-05T17:57:06.777Z</time>
      </trkpt>
      <trkpt lat="43.166924798861146" lon="-1.212143898010254">
        <ele>178.80568430346528</ele>
        <time>2021-08-05T17:57:27.231Z</time>
      </trkpt>
      <trkpt lat="43.16702135838568" lon="-1.2130987644195557">
        <ele>178.1447816949009</ele>
        <time>2021-08-05T17:57:47.697Z</time>
      </trkpt>
      <trkpt lat="43.16702127456665" lon="-1.2130987644195557">
        <ele>177.49436625747595</ele>
        <time>2021-08-05T17:58:08.163Z</time>
      </trkpt>
      <trkpt lat="43.16710718907416" lon="-1.2138068675994873">
        <ele>176.7840777855606</ele>
        <time>2021-08-05T17:58:28.637Z</time>
      </trkpt>
      <trkpt lat="43.16727885045111" lon="-1.2154161930084229">
        <ele>176.01005368942327</ele>
        <time>2021-08-05T17:58:49.130Z</time>
      </trkpt>
      <trkpt lat="43.167461240664124" lon="-1.2168538570404053">
        <ele>175.42798284254278</ele>
        <time>2021-08-05T17:59:09.640Z</time>
      </trkpt>
      <trkpt lat="43.16770792007446" lon="-1.2194287776947021">
        <ele>174.77827742435625</ele>
        <time>2021-08-05T17:59:30.181Z</time>
      </trkpt>
      <trkpt lat="43.16781529225409" lon="-1.2204265594482422">
        <ele>174.091265827732</ele>
        <time>2021-08-05T17:59:50.734Z</time>
      </trkpt>
      <trkpt lat="43.16808351315558" lon="-1.2227332592010498">
        <ele>173.44690798009339</ele>
        <time>2021-08-05T18:00:11.314Z</time>
      </trkpt>
      <trkpt lat="43.16812642849982" lon="-1.2231838703155518">
        <ele>172.73320346331357</ele>
        <time>2021-08-05T18:00:31.899Z</time>
      </trkpt>
      <trkpt lat="43.168137073516846" lon="-1.2232911586761475">
        <ele>172.11856007777033</ele>
        <time>2021-08-05T18:00:52.485Z</time>
      </trkpt>
      <trkpt lat="43.16823371686041" lon="-1.2240850925445557">
        <ele>171.44431204394664</ele>
        <time>2021-08-05T18:01:13.081Z</time>
      </trkpt>
      <trkpt lat="43.16826590336859" lon="-1.2243640422821045">
        <ele>170.78329232233557</ele>
        <time>2021-08-05T18:01:33.680Z</time>
      </trkpt>
      <trkpt lat="43.16836246289313" lon="-1.225200891494751">
        <ele>170.0083114453469</ele>
        <time>2021-08-05T18:01:54.289Z</time>
      </trkpt>
      <trkpt lat="43.168684327974916" lon="-1.2281084060668945">
        <ele>169.2934038497571</ele>
        <time>2021-08-05T18:02:14.933Z</time>
      </trkpt>
      <trkpt lat="43.168684244155884" lon="-1.2281084060668945">
        <ele>168.67033445317588</ele>
        <time>2021-08-05T18:02:35.577Z</time>
      </trkpt>
      <trkpt lat="43.168695056810975" lon="-1.2282264232635498">
        <ele>168.01174061864208</ele>
        <time>2021-08-05T18:02:56.222Z</time>
      </trkpt>
      <trkpt lat="43.16878088749945" lon="-1.2289559841156006">
        <ele>167.3281830394085</ele>
        <time>2021-08-05T18:03:16.876Z</time>
      </trkpt>
      <trkpt lat="43.16885598935187" lon="-1.2295353412628174">
        <ele>166.51552944688558</ele>
        <time>2021-08-05T18:03:37.536Z</time>
      </trkpt>
      <trkpt lat="43.168877363204956" lon="-1.2298250198364258">
        <ele>165.85313325349227</ele>
        <time>2021-08-05T18:03:58.200Z</time>
      </trkpt>
      <trkpt lat="43.168898820877075" lon="-1.2309730052947998">
        <ele>165.1429721742083</ele>
        <time>2021-08-05T18:04:18.877Z</time>
      </trkpt>
      <trkpt lat="43.168909549713135" lon="-1.2320888042449951">
        <ele>164.3810177120971</ele>
        <time>2021-08-05T18:04:39.567Z</time>
      </trkpt>
      <trkpt lat="43.1688666343689" lon="-1.2323355674743652">
        <ele>163.76181876827636</ele>
        <time>2021-08-05T18:05:00.260Z</time>
      </trkpt>
      <trkpt lat="43.16877007484436" lon="-1.2325286865234375">
        <ele>163.13961612564412</ele>
        <time>2021-08-05T18:05:20.956Z</time>
      </trkpt>
      <trkpt lat="43.16854476928711" lon="-1.232668161392212">
        <ele>162.5425990381061</ele>
        <time>2021-08-05T18:05:41.656Z</time>
      </trkpt>
      <trkpt lat="43.16835173405707" lon="-1.232743263244629">
        <ele>162.03411543928144</ele>
        <time>2021-08-05T18:06:02.359Z</time>
      </trkpt>
      <trkpt lat="43.16831468604505" lon="-1.2327580153942108">
        <ele>161.6601061838361</ele>
        <time>2021-08-05T18:06:23.063Z</time>
      </trkpt>
      <trkpt lat="43.161884509027004" lon="-1.238835733383894">
        <ele>169.23927088266603</ele>
        <time>2021-08-05T16:05:45.000Z</time>
      </trkpt>
      <trkpt lat="43.16195726394653" lon="-1.2388265132904053">
        <ele>169.03432016646036</ele>
        <time>2021-08-05T16:05:45.001Z</time>
      </trkpt>
      <trkpt lat="43.16195726394653" lon="-1.2389016151428223">
        <ele>168.8599205419655</ele>
        <time>2021-08-05T16:05:45.003Z</time>
      </trkpt>
      <trkpt lat="43.16197872161865" lon="-1.2389552593231201">
        <ele>168.6659088145046</ele>
        <time>2021-08-05T16:05:45.006Z</time>
      </trkpt>
      <trkpt lat="43.16201090812683" lon="-1.2389981746673584">
        <ele>168.4679740966854</ele>
        <time>2021-08-05T16:05:45.009Z</time>
      </trkpt>
      <trkpt lat="43.162450874224305" lon="-1.2394380569458008">
        <ele>168.02935047344812</ele>
        <time>2021-08-05T16:05:45.021Z</time>
      </trkpt>
      <trkpt lat="43.1625045184046" lon="-1.2395024299621582">
        <ele>167.72123980629635</ele>
        <time>2021-08-05T16:05:45.034Z</time>
      </trkpt>
      <trkpt lat="43.16253662109375" lon="-1.239534616470337">
        <ele>167.4490532645602</ele>
        <time>2021-08-05T16:05:45.048Z</time>
      </trkpt>
      <trkpt lat="43.16261172294617" lon="-1.2396419048309326">
        <ele>167.20756655281338</ele>
        <time>2021-08-05T16:05:45.064Z</time>
      </trkpt>
      <trkpt lat="43.1626118067652" lon="-1.2396419048309326">
        <ele>166.99610598471293</ele>
        <time>2021-08-05T16:05:45.080Z</time>
      </trkpt>
      <trkpt lat="43.162761926651" lon="-1.2398457527160645">
        <ele>166.7443273820067</ele>
        <time>2021-08-05T16:05:45.099Z</time>
      </trkpt>
      <trkpt lat="43.16276201047003" lon="-1.2398457527160645">
        <ele>166.53262046761603</ele>
        <time>2021-08-05T16:05:45.118Z</time>
      </trkpt>
      <trkpt lat="43.16284775733948" lon="-1.2399423122406006">
        <ele>166.2962908507306</ele>
        <time>2021-08-05T16:05:45.139Z</time>
      </trkpt>
      <trkpt lat="43.16301941871643" lon="-1.2402105331420898">
        <ele>166.05809023010508</ele>
        <time>2021-08-05T16:05:45.164Z</time>
      </trkpt>
      <trkpt lat="43.16301950253546" lon="-1.2402105331420898">
        <ele>165.82448134726002</ele>
        <time>2021-08-05T16:05:45.189Z</time>
      </trkpt>
      <trkpt lat="43.163630962371826" lon="-1.241079568862915">
        <ele>165.5496473203288</ele>
        <time>2021-08-05T16:05:45.228Z</time>
      </trkpt>
      <trkpt lat="43.16374897956848" lon="-1.2412512302398682">
        <ele>165.2545826394125</ele>
        <time>2021-08-05T16:05:45.270Z</time>
      </trkpt>
      <trkpt lat="43.16385626792908" lon="-1.2414658069610596">
        <ele>164.96284738259976</ele>
        <time>2021-08-05T16:05:45.315Z</time>
      </trkpt>
      <trkpt lat="43.16402801312506" lon="-1.2421739101409912">
        <ele>164.78530968483597</ele>
        <time>2021-08-05T16:05:45.369Z</time>
      </trkpt>
      <trkpt lat="43.164135217666626" lon="-1.2424635887145996">
        <ele>164.4515865808283</ele>
        <time>2021-08-05T16:05:45.427Z</time>
      </trkpt>
      <trkpt lat="43.16429623402655" lon="-1.2427210807800293">
        <ele>164.16264665186048</ele>
        <time>2021-08-05T16:05:45.488Z</time>
      </trkpt>
      <trkpt lat="43.16441425122321" lon="-1.2428927421569824">
        <ele>163.87736948127713</ele>
        <time>2021-08-05T16:05:45.552Z</time>
      </trkpt>
      <trkpt lat="43.1645215395838" lon="-1.2430429458618164">
        <ele>163.47418265812587</ele>
        <time>2021-08-05T16:05:45.619Z</time>
      </trkpt>
      <trkpt lat="43.16466101445258" lon="-1.243225336074829">
        <ele>162.96429396838454</ele>
        <time>2021-08-05T16:05:45.689Z</time>
      </trkpt>
      <trkpt lat="43.164703929796815" lon="-1.2432897090911865">
        <ele>162.4682466025055</ele>
        <time>2021-08-05T16:05:45.760Z</time>
      </trkpt>
      <trkpt lat="43.16579818725586" lon="-1.244802474975586">
        <ele>161.27609195332218</ele>
        <time>2021-08-05T16:05:45.856Z</time>
      </trkpt>
      <trkpt lat="43.16579827107489" lon="-1.244802474975586">
        <ele>160.5684258722738</ele>
        <time>2021-08-05T16:05:45.952Z</time>
      </trkpt>
      <trkpt lat="43.16654928959906" lon="-1.2458324432373047">
        <ele>159.75894555124634</ele>
        <time>2021-08-05T16:05:46.065Z</time>
      </trkpt>
      <trkpt lat="43.166667222976685" lon="-1.245971918106079">
        <ele>159.09883623783264</ele>
        <time>2021-08-05T16:05:46.180Z</time>
      </trkpt>
      <trkpt lat="43.1667423248291" lon="-1.246047019958496">
        <ele>158.51144221711422</ele>
        <time>2021-08-05T16:05:46.297Z</time>
      </trkpt>
      <trkpt lat="43.16682823933661" lon="-1.2461113929748535">
        <ele>157.98834229413222</ele>
        <time>2021-08-05T16:05:46.415Z</time>
      </trkpt>
      <trkpt lat="43.16827663220465" lon="-1.2468194961547852">
        <ele>157.42356909922225</ele>
        <time>2021-08-05T16:05:46.558Z</time>
      </trkpt>
      <trkpt lat="43.169210040941834" lon="-1.2472808361053467">
        <ele>157.1348615859181</ele>
        <time>2021-08-05T16:05:46.717Z</time>
      </trkpt>
      <trkpt lat="43.16977866925299" lon="-1.247549057006836">
        <ele>156.66822175563266</ele>
        <time>2021-08-05T16:05:46.885Z</time>
      </trkpt>
      <trkpt lat="43.169971788302064" lon="-1.247645616531372">
        <ele>156.37177214202268</ele>
        <time>2021-08-05T16:05:47.057Z</time>
      </trkpt>
      <trkpt lat="43.17099094390869" lon="-1.2481284141540527">
        <ele>156.38104490675966</ele>
        <time>2021-08-05T16:05:47.246Z</time>
      </trkpt>
      <trkpt lat="43.17120552062988" lon="-1.2482893466949463">
        <ele>156.41179188162297</ele>
        <time>2021-08-05T16:05:47.439Z</time>
      </trkpt>
      <trkpt lat="43.171205604448915" lon="-1.2482893466949463">
        <ele>156.31866280930114</ele>
        <time>2021-08-05T16:05:47.632Z</time>
      </trkpt>
      <trkpt lat="43.171409368515015" lon="-1.2484395503997803">
        <ele>156.3847618305951</ele>
        <time>2021-08-05T16:05:47.829Z</time>
      </trkpt>
      <trkpt lat="43.171656131744385" lon="-1.2487077713012695">
        <ele>156.86176902279345</ele>
        <time>2021-08-05T16:05:48.031Z</time>
      </trkpt>
      <trkpt lat="43.17184925079346" lon="-1.249018907546997">
        <ele>157.26909826048188</ele>
        <time>2021-08-05T16:05:48.237Z</time>
      </trkpt>
      <trkpt lat="43.17260026931763" lon="-1.2506282329559326">
        <ele>156.47718241865175</ele>
        <time>2021-08-05T16:05:48.466Z</time>
      </trkpt>
      <trkpt lat="43.1727933883667" lon="-1.250917911529541">
        <ele>156.03159042250456</ele>
        <time>2021-08-05T16:05:48.699Z</time>
      </trkpt>
      <trkpt lat="43.17296504974365" lon="-1.2510788440704346">
        <ele>155.55508403113015</ele>
        <time>2021-08-05T16:05:48.936Z</time>
      </trkpt>
      <trkpt lat="43.1731903553009" lon="-1.2511968612670898">
        <ele>155.1883555358725</ele>
        <time>2021-08-05T16:05:49.177Z</time>
      </trkpt>
      <trkpt lat="43.17355513572693" lon="-1.2512075901031494">
        <ele>154.78592262989477</ele>
        <time>2021-08-05T16:05:49.423Z</time>
      </trkpt>
      <trkpt lat="43.17355521954596" lon="-1.2512075901031494">
        <ele>154.4845168101687</ele>
        <time>2021-08-05T16:05:49.669Z</time>
      </trkpt>
      <trkpt lat="43.173866271972656" lon="-1.251218318939209">
        <ele>154.20343059092087</ele>
        <time>2021-08-05T16:05:49.920Z</time>
      </trkpt>
      <trkpt lat="43.17407011985779" lon="-1.2512826919555664">
        <ele>153.98680862031688</ele>
        <time>2021-08-05T16:05:50.175Z</time>
      </trkpt>
      <trkpt lat="43.17427396774292" lon="-1.2514114379882812">
        <ele>153.8574881552031</ele>
        <time>2021-08-05T16:05:50.433Z</time>
      </trkpt>
      <trkpt lat="43.17445635795593" lon="-1.2516582012176514">
        <ele>153.81241386163373</ele>
        <time>2021-08-05T16:05:50.695Z</time>
      </trkpt>
      <trkpt lat="43.17489632405341" lon="-1.2525594234466553">
        <ele>153.83116985798645</ele>
        <time>2021-08-05T16:05:50.970Z</time>
      </trkpt>
      <trkpt lat="43.175432765856385" lon="-1.2536859512329102">
        <ele>153.90461691553548</ele>
        <time>2021-08-05T16:05:51.261Z</time>
      </trkpt>
      <trkpt lat="43.17780375480652" lon="-1.258610486984253">
        <ele>153.8909764576979</ele>
        <time>2021-08-05T16:05:51.621Z</time>
      </trkpt>
      <trkpt lat="43.17803978919983" lon="-1.2588787078857422">
        <ele>154.18349052088462</ele>
        <time>2021-08-05T16:05:51.986Z</time>
      </trkpt>
      <trkpt lat="43.17827590741217" lon="-1.2590610980987549">
        <ele>154.5991976272491</ele>
        <time>2021-08-05T16:05:52.355Z</time>
      </trkpt>
      <trkpt lat="43.17847967147827" lon="-1.2591361999511719">
        <ele>155.18146460306423</ele>
        <time>2021-08-05T16:05:52.727Z</time>
      </trkpt>
      <trkpt lat="43.17902684211731" lon="-1.2592649459838867">
        <ele>155.9686813066726</ele>
        <time>2021-08-05T16:05:53.108Z</time>
      </trkpt>
      <trkpt lat="43.17902692593634" lon="-1.2592649459838867">
        <ele>156.7978883310097</ele>
        <time>2021-08-05T16:05:53.489Z</time>
      </trkpt>
      <trkpt lat="43.17929514683783" lon="-1.2593185901641846">
        <ele>157.8538650547465</ele>
        <time>2021-08-05T16:05:53.875Z</time>
      </trkpt>
      <trkpt lat="43.17992806434631" lon="-1.259458065032959">
        <ele>158.97426966036357</ele>
        <time>2021-08-05T16:05:54.271Z</time>
      </trkpt>
      <trkpt lat="43.18082928657532" lon="-1.2595546245574951">
        <ele>160.68009176392366</ele>
        <time>2021-08-05T16:05:54.681Z</time>
      </trkpt>
      <trkpt lat="43.18082937039435" lon="-1.2595546245574951">
        <ele>161.87836034235698</ele>
        <time>2021-08-05T16:05:55.091Z</time>
      </trkpt>
      <trkpt lat="43.18103313446045" lon="-1.2595653533935547">
        <ele>163.2927333103383</ele>
        <time>2021-08-05T16:05:55.505Z</time>
      </trkpt>
      <trkpt lat="43.18124771118164" lon="-1.259533166885376">
        <ele>164.64594258808378</ele>
        <time>2021-08-05T16:05:55.922Z</time>
      </trkpt>
      <trkpt lat="43.18149447441101" lon="-1.259458065032959">
        <ele>165.975691048723</ele>
        <time>2021-08-05T16:05:56.343Z</time>
      </trkpt>
      <trkpt lat="43.181644678115845" lon="-1.259382963180542">
        <ele>167.09888392110008</ele>
        <time>2021-08-05T16:05:56.767Z</time>
      </trkpt>
      <trkpt lat="43.18180561065674" lon="-1.2592542171478271">
        <ele>168.02156569918577</ele>
        <time>2021-08-05T16:05:57.194Z</time>
      </trkpt>
      <trkpt lat="43.182406425476074" lon="-1.258631944656372">
        <ele>168.76533004410703</ele>
        <time>2021-08-05T16:05:57.633Z</time>
      </trkpt>
      <trkpt lat="43.182889223098755" lon="-1.2582242488861084">
        <ele>169.51853400145518</ele>
        <time>2021-08-05T16:05:58.081Z</time>
      </trkpt>
      <trkpt lat="43.18308234214783" lon="-1.2581062316894531">
        <ele>170.1972620097995</ele>
        <time>2021-08-05T16:05:58.532Z</time>
      </trkpt>
      <trkpt lat="43.183393478393555" lon="-1.2579882144927979">
        <ele>170.9990070797657</ele>
        <time>2021-08-05T16:05:58.988Z</time>
      </trkpt>
      <trkpt lat="43.18379052914679" lon="-1.2578701972961426">
        <ele>171.348943679777</ele>
        <time>2021-08-05T16:05:59.451Z</time>
      </trkpt>
      <trkpt lat="43.18405866622925" lon="-1.2578165531158447">
        <ele>171.57523364436034</ele>
        <time>2021-08-05T16:05:59.918Z</time>
      </trkpt>
      <trkpt lat="43.184659564867616" lon="-1.2577736377716064">
        <ele>171.64633686778936</ele>
        <time>2021-08-05T16:06:00.395Z</time>
      </trkpt>
      <trkpt lat="43.18474539555609" lon="-1.2577521800994873">
        <ele>171.52271412760516</ele>
        <time>2021-08-05T16:06:00.873Z</time>
      </trkpt>
      <trkpt lat="43.18494915962219" lon="-1.2577199935913086">
        <ele>171.2083499192986</ele>
        <time>2021-08-05T16:06:01.355Z</time>
      </trkpt>
      <trkpt lat="43.18532466888428" lon="-1.257559061050415">
        <ele>170.76738552898757</ele>
        <time>2021-08-05T16:06:01.843Z</time>
      </trkpt>
      <trkpt lat="43.18553924560547" lon="-1.2574410438537598">
        <ele>170.28929796717154</ele>
        <time>2021-08-05T16:06:02.335Z</time>
      </trkpt>
      <trkpt lat="43.1855393294245" lon="-1.2574410438537598">
        <ele>169.6652074773541</ele>
        <time>2021-08-05T16:06:02.827Z</time>
      </trkpt>
      <trkpt lat="43.185667991638184" lon="-1.2573230266571045">
        <ele>168.88472494536387</ele>
        <time>2021-08-05T16:06:03.321Z</time>
      </trkpt>
      <trkpt lat="43.18583965301514" lon="-1.2571406364440918">
        <ele>168.01215497373016</ele>
        <time>2021-08-05T16:06:03.818Z</time>
      </trkpt>
      <trkpt lat="43.18597912788391" lon="-1.2569153308868408">
        <ele>167.0060843662589</ele>
        <time>2021-08-05T16:06:04.319Z</time>
      </trkpt>
      <trkpt lat="43.18606495857239" lon="-1.2566900253295898">
        <ele>165.8952444516764</ele>
        <time>2021-08-05T16:06:04.823Z</time>
      </trkpt>
      <trkpt lat="43.186354637145996" lon="-1.255810260772705">
        <ele>164.70823288623524</ele>
        <time>2021-08-05T16:06:05.338Z</time>
      </trkpt>
      <trkpt lat="43.18641901016235" lon="-1.2555313110351562">
        <ele>163.5733140556868</ele>
        <time>2021-08-05T16:06:05.857Z</time>
      </trkpt>
      <trkpt lat="43.18645119667053" lon="-1.2553167343139648">
        <ele>162.28646278476526</ele>
        <time>2021-08-05T16:06:06.378Z</time>
      </trkpt>
      <trkpt lat="43.18650484085083" lon="-1.2548446655273438">
        <ele>161.00075416235092</ele>
        <time>2021-08-05T16:06:06.905Z</time>
      </trkpt>
      <trkpt lat="43.186612129211426" lon="-1.2541258335113525">
        <ele>159.65015310917784</ele>
        <time>2021-08-05T16:06:07.440Z</time>
      </trkpt>
      <trkpt lat="43.18663367070258" lon="-1.2538790702819824">
        <ele>158.4662433795628</ele>
        <time>2021-08-05T16:06:07.978Z</time>
      </trkpt>
      <trkpt lat="43.186665773391724" lon="-1.2534070014953613">
        <ele>157.2518818031452</ele>
        <time>2021-08-05T16:06:08.522Z</time>
      </trkpt>
      <trkpt lat="43.18668723106384" lon="-1.2532460689544678">
        <ele>156.1624072736688</ele>
        <time>2021-08-05T16:06:09.068Z</time>
      </trkpt>
      <trkpt lat="43.18674087524414" lon="-1.2531280517578125">
        <ele>155.124404856451</ele>
        <time>2021-08-05T16:06:09.615Z</time>
      </trkpt>
      <trkpt lat="43.18692326545715" lon="-1.252816915512085">
        <ele>154.1552565370534</ele>
        <time>2021-08-05T16:06:10.167Z</time>
      </trkpt>
      <trkpt lat="43.18706274032593" lon="-1.2526559829711914">
        <ele>153.31893380996274</ele>
        <time>2021-08-05T16:06:10.722Z</time>
      </trkpt>
      <trkpt lat="43.18719148635864" lon="-1.2525701522827148">
        <ele>152.5695541670134</ele>
        <time>2021-08-05T16:06:11.279Z</time>
      </trkpt>
      <trkpt lat="43.18730958737433" lon="-1.2525272369384766">
        <ele>151.89824148579206</ele>
        <time>2021-08-05T16:06:11.838Z</time>
      </trkpt>
      <trkpt lat="43.18847894668579" lon="-1.2523341178894043">
        <ele>151.542484999802</ele>
        <time>2021-08-05T16:06:12.416Z</time>
      </trkpt>
      <trkpt lat="43.18867206573486" lon="-1.2523233890533447">
        <ele>150.90952631478376</ele>
        <time>2021-08-05T16:06:12.997Z</time>
      </trkpt>
      <trkpt lat="43.188843727111816" lon="-1.2523448467254639">
        <ele>150.37714333193193</ele>
        <time>2021-08-05T16:06:13.581Z</time>
      </trkpt>
      <trkpt lat="43.1893265247345" lon="-1.2524843215942383">
        <ele>149.9090579190424</ele>
        <time>2021-08-05T16:06:14.173Z</time>
      </trkpt>
      <trkpt lat="43.18957328796387" lon="-1.2526130676269531">
        <ele>149.49269180942082</ele>
        <time>2021-08-05T16:06:14.769Z</time>
      </trkpt>
      <trkpt lat="43.189777135849" lon="-1.2528061866760254">
        <ele>149.16367467743177</ele>
        <time>2021-08-05T16:06:15.369Z</time>
      </trkpt>
      <trkpt lat="43.190646255388856" lon="-1.2537932395935059">
        <ele>148.77868214617706</ele>
        <time>2021-08-05T16:06:15.987Z</time>
      </trkpt>
      <trkpt lat="43.19141864776611" lon="-1.2547051906585693">
        <ele>148.34739722636903</ele>
        <time>2021-08-05T16:06:16.621Z</time>
      </trkpt>
      <trkpt lat="43.192148208618164" lon="-1.2552416324615479">
        <ele>148.45618312039898</ele>
        <time>2021-08-05T16:06:17.269Z</time>
      </trkpt>
      <trkpt lat="43.19254517555237" lon="-1.2554776668548584">
        <ele>147.93771428095863</ele>
        <time>2021-08-05T16:06:17.924Z</time>
      </trkpt>
      <trkpt lat="43.19334992207587" lon="-1.2558746337890625">
        <ele>147.1535583206395</ele>
        <time>2021-08-05T16:06:18.592Z</time>
      </trkpt>
      <trkpt lat="43.194122314453125" lon="-1.2562823295593262">
        <ele>147.07040622317822</ele>
        <time>2021-08-05T16:06:19.273Z</time>
      </trkpt>
      <trkpt lat="43.19412239827216" lon="-1.2562823295593262">
        <ele>146.90953486099556</ele>
        <time>2021-08-05T16:06:19.954Z</time>
      </trkpt>
      <trkpt lat="43.194401264190674" lon="-1.2563681602478027">
        <ele>146.87547264977383</ele>
        <time>2021-08-05T16:06:20.640Z</time>
      </trkpt>
      <trkpt lat="43.194594383239746" lon="-1.2563896179199219">
        <ele>146.78015836880837</ele>
        <time>2021-08-05T16:06:21.329Z</time>
      </trkpt>
      <trkpt lat="43.195130825042725" lon="-1.2563788890838623">
        <ele>146.63074656639745</ele>
        <time>2021-08-05T16:06:22.027Z</time>
      </trkpt>
      <trkpt lat="43.19568872451782" lon="-1.2564432621002197">
        <ele>146.53849244794134</ele>
        <time>2021-08-05T16:06:22.734Z</time>
      </trkpt>
      <trkpt lat="43.19701910018921" lon="-1.25693678855896">
        <ele>146.79750051192184</ele>
        <time>2021-08-05T16:06:23.463Z</time>
      </trkpt>
      <trkpt lat="43.1972873210907" lon="-1.2570655345916748">
        <ele>146.85437837412354</ele>
        <time>2021-08-05T16:06:24.196Z</time>
      </trkpt>
      <trkpt lat="43.19846749305725" lon="-1.2577736377716064">
        <ele>146.76467133441304</ele>
        <time>2021-08-05T16:06:24.950Z</time>
      </trkpt>
      <trkpt lat="43.19871425628662" lon="-1.2579345703125">
        <ele>147.0091585093694</ele>
        <time>2021-08-05T16:06:25.708Z</time>
      </trkpt>
      <trkpt lat="43.198885917663574" lon="-1.258084774017334">
        <ele>147.15267917289356</ele>
        <time>2021-08-05T16:06:26.470Z</time>
      </trkpt>
      <trkpt lat="43.19904685020447" lon="-1.2582886219024658">
        <ele>147.51306160433168</ele>
        <time>2021-08-05T16:06:27.235Z</time>
      </trkpt>
      <trkpt lat="43.199390172958374" lon="-1.258782148361206">
        <ele>148.25180693646143</ele>
        <time>2021-08-05T16:06:28.008Z</time>
      </trkpt>
      <trkpt lat="43.199626207351685" lon="-1.259007453918457">
        <ele>148.52100326877212</ele>
        <time>2021-08-05T16:06:28.786Z</time>
      </trkpt>
      <trkpt lat="43.20000171661377" lon="-1.2592864036560059">
        <ele>148.88988127608417</ele>
        <time>2021-08-05T16:06:29.570Z</time>
      </trkpt>
      <trkpt lat="43.2000018004328" lon="-1.2592864036560059">
        <ele>149.191143119853</ele>
        <time>2021-08-05T16:06:30.354Z</time>
      </trkpt>
      <trkpt lat="43.20017337799072" lon="-1.2594151496887207">
        <ele>149.6065416638911</ele>
        <time>2021-08-05T16:06:31.142Z</time>
      </trkpt>
      <trkpt lat="43.200613260269165" lon="-1.25968337059021">
        <ele>149.94515007583271</ele>
        <time>2021-08-05T16:06:31.937Z</time>
      </trkpt>
      <trkpt lat="43.200870752334595" lon="-1.2598121166229248">
        <ele>150.12952906597576</ele>
        <time>2021-08-05T16:06:32.737Z</time>
      </trkpt>
      <trkpt lat="43.20205092430115" lon="-1.2602519989013672">
        <ele>150.41135827675936</ele>
        <time>2021-08-05T16:06:33.556Z</time>
      </trkpt>
      <trkpt lat="43.20230841636658" lon="-1.2603700160980225">
        <ele>150.35246357913945</ele>
        <time>2021-08-05T16:06:34.380Z</time>
      </trkpt>
      <trkpt lat="43.20250153541565" lon="-1.2605524063110352">
        <ele>150.309980857943</ele>
        <time>2021-08-05T16:06:35.207Z</time>
      </trkpt>
      <trkpt lat="43.20266246795654" lon="-1.2607347965240479">
        <ele>150.3025959687275</ele>
        <time>2021-08-05T16:06:36.038Z</time>
      </trkpt>
      <trkpt lat="43.20315599441528" lon="-1.2614750862121582">
        <ele>150.2432537813047</ele>
        <time>2021-08-05T16:06:36.880Z</time>
      </trkpt>
      <trkpt lat="43.203349113464355" lon="-1.2617862224578857">
        <ele>150.16207359812594</ele>
        <time>2021-08-05T16:06:37.727Z</time>
      </trkpt>
      <trkpt lat="43.20351004600525" lon="-1.2621080875396729">
        <ele>150.0519551067723</ele>
        <time>2021-08-05T16:06:38.579Z</time>
      </trkpt>
      <trkpt lat="43.203617334365845" lon="-1.2623870372772217">
        <ele>150.00300283844606</ele>
        <time>2021-08-05T16:06:39.434Z</time>
      </trkpt>
      <trkpt lat="43.20369243621826" lon="-1.262805461883545">
        <ele>150.19176597066945</ele>
        <time>2021-08-05T16:06:40.295Z</time>
      </trkpt>
      <trkpt lat="43.2037353515625" lon="-1.2630951404571533">
        <ele>150.003853732489</ele>
        <time>2021-08-05T16:06:41.159Z</time>
      </trkpt>
      <trkpt lat="43.203864097595215" lon="-1.264350414276123">
        <ele>150.09553021534163</ele>
        <time>2021-08-05T16:06:42.038Z</time>
      </trkpt>
      <trkpt lat="43.20405721664429" lon="-1.2653374671936035">
        <ele>149.6158307218558</ele>
        <time>2021-08-05T16:06:42.929Z</time>
      </trkpt>
      <trkpt lat="43.20422887802124" lon="-1.266474723815918">
        <ele>149.240529931278</ele>
        <time>2021-08-05T16:06:43.833Z</time>
      </trkpt>
      <trkpt lat="43.20441126823425" lon="-1.2674403190612793">
        <ele>148.84449240019595</ele>
        <time>2021-08-05T16:06:44.749Z</time>
      </trkpt>
      <trkpt lat="43.20466876029968" lon="-1.2682878971099854">
        <ele>148.15619804667162</ele>
        <time>2021-08-05T16:06:45.676Z</time>
      </trkpt>
      <trkpt lat="43.20470094680786" lon="-1.2686848640441895">
        <ele>147.80565127363423</ele>
        <time>2021-08-05T16:06:46.607Z</time>
      </trkpt>
      <trkpt lat="43.204604387283325" lon="-1.2705516815185547">
        <ele>147.2935492755261</ele>
        <time>2021-08-05T16:06:47.560Z</time>
      </trkpt>
      <trkpt lat="43.20454001426697" lon="-1.2712490558624268">
        <ele>146.70119187880303</ele>
        <time>2021-08-05T16:06:48.522Z</time>
      </trkpt>
      <trkpt lat="43.20440053939819" lon="-1.272064447402954">
        <ele>146.62108705399697</ele>
        <time>2021-08-05T16:06:49.493Z</time>
      </trkpt>
      <trkpt lat="43.204357624053955" lon="-1.272493600845337">
        <ele>146.3346344647953</ele>
        <time>2021-08-05T16:06:50.469Z</time>
      </trkpt>
      <trkpt lat="43.204336166381836" lon="-1.272890567779541">
        <ele>146.09563070779143</ele>
        <time>2021-08-05T16:06:51.450Z</time>
      </trkpt>
      <trkpt lat="43.204336166381836" lon="-1.2732446193695068">
        <ele>145.80165428105664</ele>
        <time>2021-08-05T16:06:52.435Z</time>
      </trkpt>
      <trkpt lat="43.204357624053955" lon="-1.2735986709594727">
        <ele>145.54717151498363</ele>
        <time>2021-08-05T16:06:53.424Z</time>
      </trkpt>
      <trkpt lat="43.20443272590637" lon="-1.2738990783691406">
        <ele>145.134012955551</ele>
        <time>2021-08-05T16:06:54.417Z</time>
      </trkpt>
      <trkpt lat="43.20450782775879" lon="-1.2741351127624512">
        <ele>144.82176702877027</ele>
        <time>2021-08-05T16:06:55.413Z</time>
      </trkpt>
      <trkpt lat="43.20466876029968" lon="-1.2743926048278809">
        <ele>144.47005605627632</ele>
        <time>2021-08-05T16:06:56.413Z</time>
      </trkpt>
      <trkpt lat="43.204668844118714" lon="-1.2743926048278809">
        <ele>143.99201823160826</ele>
        <time>2021-08-05T16:06:57.413Z</time>
      </trkpt>
      <trkpt lat="43.204840421676636" lon="-1.2745749950408936">
        <ele>143.50304926343844</ele>
        <time>2021-08-05T16:06:58.417Z</time>
      </trkpt>
      <trkpt lat="43.205076456069946" lon="-1.2746930122375488">
        <ele>142.78413998873773</ele>
        <time>2021-08-05T16:06:59.425Z</time>
      </trkpt>
      <trkpt lat="43.20539832115173" lon="-1.274735927581787">
        <ele>142.11063608024202</ele>
        <time>2021-08-05T16:07:00.438Z</time>
      </trkpt>
      <trkpt lat="43.205634355545044" lon="-1.274714469909668">
        <ele>141.3994930582902</ele>
        <time>2021-08-05T16:07:01.455Z</time>
      </trkpt>
      <trkpt lat="43.206363916397095" lon="-1.2745964527130127">
        <ele>140.49121869753117</ele>
        <time>2021-08-05T16:07:02.483Z</time>
      </trkpt>
      <trkpt lat="43.2067608833313" lon="-1.2747037410736084">
        <ele>139.68313209029822</ele>
        <time>2021-08-05T16:07:03.518Z</time>
      </trkpt>
      <trkpt lat="43.20714712142944" lon="-1.2748754024505615">
        <ele>139.11785960355354</ele>
        <time>2021-08-05T16:07:04.559Z</time>
      </trkpt>
      <trkpt lat="43.20727586746216" lon="-1.2749505043029785">
        <ele>138.7478416436079</ele>
        <time>2021-08-05T16:07:05.603Z</time>
      </trkpt>
      <trkpt lat="43.20749044418335" lon="-1.2751221656799316">
        <ele>138.35546666282323</ele>
        <time>2021-08-05T16:07:06.650Z</time>
      </trkpt>
      <trkpt lat="43.207629919052124" lon="-1.2752938270568848">
        <ele>137.991562512317</ele>
        <time>2021-08-05T16:07:07.700Z</time>
      </trkpt>
      <trkpt lat="43.20781230926514" lon="-1.2755727767944336">
        <ele>137.89125038732087</ele>
        <time>2021-08-05T16:07:08.755Z</time>
      </trkpt>
      <trkpt lat="43.20794105529785" lon="-1.2758302688598633">
        <ele>137.76413054939923</ele>
        <time>2021-08-05T16:07:09.814Z</time>
      </trkpt>
      <trkpt lat="43.20830591954291" lon="-1.2767207622528076">
        <ele>137.93421858937666</ele>
        <time>2021-08-05T16:07:10.884Z</time>
      </trkpt>
      <trkpt lat="43.20853114128113" lon="-1.277310848236084">
        <ele>138.47382934372743</ele>
        <time>2021-08-05T16:07:11.962Z</time>
      </trkpt>
      <trkpt lat="43.20875653065741" lon="-1.277707815170288">
        <ele>138.76541292595317</ele>
        <time>2021-08-05T16:07:13.046Z</time>
      </trkpt>
      <trkpt lat="43.20898175239563" lon="-1.2780296802520752">
        <ele>138.5953930487633</ele>
        <time>2021-08-05T16:07:14.135Z</time>
      </trkpt>
      <trkpt lat="43.20960410870612" lon="-1.2788021564483643">
        <ele>138.39374190526107</ele>
        <time>2021-08-05T16:07:15.238Z</time>
      </trkpt>
      <trkpt lat="43.210387313738465" lon="-1.2798213958740234">
        <ele>136.97540171950752</ele>
        <time>2021-08-05T16:07:16.358Z</time>
      </trkpt>
      <trkpt lat="43.210612535476685" lon="-1.2801110744476318">
        <ele>136.59847119840197</ele>
        <time>2021-08-05T16:07:17.483Z</time>
      </trkpt>
      <trkpt lat="43.21097731590271" lon="-1.2804758548736572">
        <ele>135.926769463549</ele>
        <time>2021-08-05T16:07:18.615Z</time>
      </trkpt>
      <trkpt lat="43.21123480796814" lon="-1.2807762622833252">
        <ele>135.85948010912261</ele>
        <time>2021-08-05T16:07:19.753Z</time>
      </trkpt>
      <trkpt lat="43.21140646934509" lon="-1.2810337543487549">
        <ele>135.84318378886633</ele>
        <time>2021-08-05T16:07:20.895Z</time>
      </trkpt>
      <trkpt lat="43.21152448654175" lon="-1.2813663482666016">
        <ele>135.74541755913776</ele>
        <time>2021-08-05T16:07:22.041Z</time>
      </trkpt>
      <trkpt lat="43.211631774902344" lon="-1.281806230545044">
        <ele>135.79173790654608</ele>
        <time>2021-08-05T16:07:23.193Z</time>
      </trkpt>
      <trkpt lat="43.21166396141052" lon="-1.282181739807129">
        <ele>135.87960881838887</ele>
        <time>2021-08-05T16:07:24.349Z</time>
      </trkpt>
      <trkpt lat="43.211642587557435" lon="-1.2828147411346436">
        <ele>136.17920955534873</ele>
        <time>2021-08-05T16:07:25.512Z</time>
      </trkpt>
      <trkpt lat="43.211621046066284" lon="-1.283276081085205">
        <ele>136.55685837054023</ele>
        <time>2021-08-05T16:07:26.681Z</time>
      </trkpt>
      <trkpt lat="43.211631774902344" lon="-1.2838983535766602">
        <ele>136.98788344921593</ele>
        <time>2021-08-05T16:07:27.857Z</time>
      </trkpt>
      <trkpt lat="43.21173906326294" lon="-1.2845957279205322">
        <ele>137.4669974729198</ele>
        <time>2021-08-05T16:07:29.041Z</time>
      </trkpt>
      <trkpt lat="43.2118034362793" lon="-1.2849068641662598">
        <ele>137.85722304317358</ele>
        <time>2021-08-05T16:07:30.229Z</time>
      </trkpt>
      <trkpt lat="43.21194291114807" lon="-1.2852394580841064">
        <ele>138.27440198355956</ele>
        <time>2021-08-05T16:07:31.422Z</time>
      </trkpt>
      <trkpt lat="43.212103843688965" lon="-1.2855076789855957">
        <ele>138.3806993150316</ele>
        <time>2021-08-05T16:07:32.619Z</time>
      </trkpt>
      <trkpt lat="43.21243643760681" lon="-1.2860119342803955">
        <ele>138.27793716130753</ele>
        <time>2021-08-05T16:07:33.824Z</time>
      </trkpt>
      <trkpt lat="43.21301579475403" lon="-1.2867093086242676">
        <ele>138.1488411696221</ele>
        <time>2021-08-05T16:07:35.041Z</time>
      </trkpt>
      <trkpt lat="43.213101625442505" lon="-1.2868380546569824">
        <ele>138.29141332803684</ele>
        <time>2021-08-05T16:07:36.260Z</time>
      </trkpt>
      <trkpt lat="43.21316599845886" lon="-1.2870097160339355">
        <ele>138.34666493290075</ele>
        <time>2021-08-05T16:07:37.481Z</time>
      </trkpt>
      <trkpt lat="43.21324110031128" lon="-1.2873101234436035">
        <ele>138.4103581647552</ele>
        <time>2021-08-05T16:07:38.706Z</time>
      </trkpt>
      <trkpt lat="43.213316202163696" lon="-1.287750005722046">
        <ele>138.5351870534894</ele>
        <time>2021-08-05T16:07:39.936Z</time>
      </trkpt>
      <trkpt lat="43.213380575180054" lon="-1.2882328033447266">
        <ele>138.52553427958924</ele>
        <time>2021-08-05T16:07:41.172Z</time>
      </trkpt>
      <trkpt lat="43.21340203285217" lon="-1.288844347000122">
        <ele>138.52431386077035</ele>
        <time>2021-08-05T16:07:42.415Z</time>
      </trkpt>
      <trkpt lat="43.213316202163696" lon="-1.2905287742614746">
        <ele>138.83829744447422</ele>
        <time>2021-08-05T16:07:43.678Z</time>
      </trkpt>
      <trkpt lat="43.213326930999756" lon="-1.2910115718841553">
        <ele>138.58070558843332</ele>
        <time>2021-08-05T16:07:44.947Z</time>
      </trkpt>
      <trkpt lat="43.213369846343994" lon="-1.2918591499328613">
        <ele>138.25031243626574</ele>
        <time>2021-08-05T16:07:46.226Z</time>
      </trkpt>
      <trkpt lat="43.21340203285217" lon="-1.2921059131622314">
        <ele>138.02054412978924</ele>
        <time>2021-08-05T16:07:47.507Z</time>
      </trkpt>
      <trkpt lat="43.21346640586853" lon="-1.2923097610473633">
        <ele>137.66791515540888</ele>
        <time>2021-08-05T16:07:48.791Z</time>
      </trkpt>
      <trkpt lat="43.21354150772095" lon="-1.2924814224243164">
        <ele>137.60794373457313</ele>
        <time>2021-08-05T16:07:50.077Z</time>
      </trkpt>
      <trkpt lat="43.21424961090088" lon="-1.2936615943908691">
        <ele>137.5170058381685</ele>
        <time>2021-08-05T16:07:51.381Z</time>
      </trkpt>
      <trkpt lat="43.21450710296631" lon="-1.2940692901611328">
        <ele>137.02159252016452</ele>
        <time>2021-08-05T16:07:52.692Z</time>
      </trkpt>
      <trkpt lat="43.21465730667114" lon="-1.294262409210205">
        <ele>136.2156672324762</ele>
        <time>2021-08-05T16:07:54.006Z</time>
      </trkpt>
      <trkpt lat="43.215097188949585" lon="-1.2946271896362305">
        <ele>134.50720953174607</ele>
        <time>2021-08-05T16:07:55.328Z</time>
      </trkpt>
      <trkpt lat="43.215333223342896" lon="-1.2947666645050049">
        <ele>133.51547794153896</ele>
        <time>2021-08-05T16:07:56.654Z</time>
      </trkpt>
      <trkpt lat="43.215612173080444" lon="-1.2948846817016602">
        <ele>132.42810623721277</ele>
        <time>2021-08-05T16:07:57.985Z</time>
      </trkpt>
      <trkpt lat="43.216373920440674" lon="-1.2951850891113281">
        <ele>131.8232458104607</ele>
        <time>2021-08-05T16:07:59.329Z</time>
      </trkpt>
      <trkpt lat="43.217822313308716" lon="-1.295614242553711">
        <ele>130.32936351361488</ele>
        <time>2021-08-05T16:08:00.696Z</time>
      </trkpt>
      <trkpt lat="43.21871280670166" lon="-1.2960004806518555">
        <ele>129.26678941674072</ele>
        <time>2021-08-05T16:08:02.078Z</time>
      </trkpt>
      <trkpt lat="43.21919560432434" lon="-1.2962901592254639">
        <ele>128.2765647480246</ele>
        <time>2021-08-05T16:08:03.469Z</time>
      </trkpt>
      <trkpt lat="43.21990370750427" lon="-1.2969446182250977">
        <ele>127.7097208716459</ele>
        <time>2021-08-05T16:08:04.873Z</time>
      </trkpt>
      <trkpt lat="43.22018265724182" lon="-1.2971270084381104">
        <ele>126.79078369177216</ele>
        <time>2021-08-05T16:08:06.282Z</time>
      </trkpt>
      <trkpt lat="43.220365047454834" lon="-1.2972235679626465">
        <ele>125.85065650831442</ele>
        <time>2021-08-05T16:08:07.694Z</time>
      </trkpt>
      <trkpt lat="43.221341371536255" lon="-1.2975025177001953">
        <ele>124.69859607242267</ele>
        <time>2021-08-05T16:08:09.122Z</time>
      </trkpt>
      <trkpt lat="43.222821950912476" lon="-1.2980282306671143">
        <ele>123.14941417965193</ele>
        <time>2021-08-05T16:08:10.575Z</time>
      </trkpt>
      <trkpt lat="43.2231867313385" lon="-1.2981998920440674">
        <ele>122.13321177155525</ele>
        <time>2021-08-05T16:08:12.034Z</time>
      </trkpt>
      <trkpt lat="43.22362661361694" lon="-1.2984788417816162">
        <ele>121.28824855449403</ele>
        <time>2021-08-05T16:08:13.501Z</time>
      </trkpt>
      <trkpt lat="43.223830461502075" lon="-1.2986505031585693">
        <ele>120.58248789068156</ele>
        <time>2021-08-05T16:08:14.972Z</time>
      </trkpt>
      <trkpt lat="43.22383054532111" lon="-1.2986505031585693">
        <ele>119.88817720903728</ele>
        <time>2021-08-05T16:08:16.443Z</time>
      </trkpt>
      <trkpt lat="43.224055767059326" lon="-1.2988758087158203">
        <ele>119.30771850385408</ele>
        <time>2021-08-05T16:08:17.918Z</time>
      </trkpt>
      <trkpt lat="43.22428107261658" lon="-1.2991762161254883">
        <ele>118.83357025831518</ele>
        <time>2021-08-05T16:08:19.398Z</time>
      </trkpt>
      <trkpt lat="43.22444200515747" lon="-1.2994658946990967">
        <ele>118.38462499085907</ele>
        <time>2021-08-05T16:08:20.882Z</time>
      </trkpt>
      <trkpt lat="43.224570751190186" lon="-1.2997233867645264">
        <ele>117.90206752200936</ele>
        <time>2021-08-05T16:08:22.370Z</time>
      </trkpt>
      <trkpt lat="43.225075006484985" lon="-1.3009464740753174">
        <ele>117.45908081044126</ele>
        <time>2021-08-05T16:08:23.874Z</time>
      </trkpt>
      <trkpt lat="43.22507509030402" lon="-1.3009464740753174">
        <ele>117.10871125810966</ele>
        <time>2021-08-05T16:08:25.378Z</time>
      </trkpt>
      <trkpt lat="43.225128734484315" lon="-1.3010752201080322">
        <ele>116.83345290078236</ele>
        <time>2021-08-05T16:08:26.884Z</time>
      </trkpt>
      <trkpt lat="43.22518229484558" lon="-1.3011932373046875">
        <ele>116.62689175880882</ele>
        <time>2021-08-05T16:08:28.392Z</time>
      </trkpt>
      <trkpt lat="43.225321769714355" lon="-1.301504373550415">
        <ele>116.37994524841542</ele>
        <time>2021-08-05T16:08:29.904Z</time>
      </trkpt>
      <trkpt lat="43.22546124458313" lon="-1.3017618656158447">
        <ele>116.16074011070317</ele>
        <time>2021-08-05T16:08:31.420Z</time>
      </trkpt>
      <trkpt lat="43.225557804107666" lon="-1.3019120693206787">
        <ele>115.92744185554756</ele>
        <time>2021-08-05T16:08:32.938Z</time>
      </trkpt>
      <trkpt lat="43.225654447451234" lon="-1.3020086288452148">
        <ele>115.60964666818424</ele>
        <time>2021-08-05T16:08:34.458Z</time>
      </trkpt>
      <trkpt lat="43.22579383850098" lon="-1.3021695613861084">
        <ele>115.23704026382347</ele>
        <time>2021-08-05T16:08:35.981Z</time>
      </trkpt>
      <trkpt lat="43.22596549987793" lon="-1.3022875785827637">
        <ele>114.8905867870966</ele>
        <time>2021-08-05T16:08:37.507Z</time>
      </trkpt>
      <trkpt lat="43.22614789009094" lon="-1.3023734092712402">
        <ele>114.82279632972956</ele>
        <time>2021-08-05T16:08:39.036Z</time>
      </trkpt>
      <trkpt lat="43.226319551467896" lon="-1.302405595779419">
        <ele>114.75005095423322</ele>
        <time>2021-08-05T16:08:40.568Z</time>
      </trkpt>
      <trkpt lat="43.22650194168091" lon="-1.302405595779419">
        <ele>114.65651453109714</ele>
        <time>2021-08-05T16:08:42.103Z</time>
      </trkpt>
      <trkpt lat="43.226834535598755" lon="-1.3022661209106445">
        <ele>114.49891083735068</ele>
        <time>2021-08-05T16:08:43.643Z</time>
      </trkpt>
      <trkpt lat="43.22698473930359" lon="-1.3021481037139893">
        <ele>114.43021684013237</ele>
        <time>2021-08-05T16:08:45.186Z</time>
      </trkpt>
      <trkpt lat="43.22724223136902" lon="-1.3018691539764404">
        <ele>114.42056653841992</ele>
        <time>2021-08-05T16:08:46.734Z</time>
      </trkpt>
      <trkpt lat="43.2276713848114" lon="-1.3013648986816406">
        <ele>114.64047523907763</ele>
        <time>2021-08-05T16:08:48.291Z</time>
      </trkpt>
      <trkpt lat="43.227810859680176" lon="-1.3012468814849854">
        <ele>114.54147810719508</ele>
        <time>2021-08-05T16:08:49.851Z</time>
      </trkpt>
      <trkpt lat="43.228100538253784" lon="-1.3010752201080322">
        <ele>114.40650961483021</ele>
        <time>2021-08-05T16:08:51.416Z</time>
      </trkpt>
      <trkpt lat="43.2282829284668" lon="-1.3010001182556152">
        <ele>114.09135756927733</ele>
        <time>2021-08-05T16:08:52.984Z</time>
      </trkpt>
      <trkpt lat="43.22866916656494" lon="-1.3009250164031982">
        <ele>113.43465299839103</ele>
        <time>2021-08-05T16:08:54.558Z</time>
      </trkpt>
      <trkpt lat="43.229076862335205" lon="-1.3008713722229004">
        <ele>112.52907585876872</ele>
        <time>2021-08-05T16:08:56.139Z</time>
      </trkpt>
      <trkpt lat="43.229849338531494" lon="-1.3009357452392578">
        <ele>111.80907129508128</ele>
        <time>2021-08-05T16:08:57.732Z</time>
      </trkpt>
      <trkpt lat="43.230053186416626" lon="-1.3009250164031982">
        <ele>111.20344878190966</ele>
        <time>2021-08-05T16:08:59.329Z</time>
      </trkpt>
      <trkpt lat="43.23022484779358" lon="-1.30088210105896">
        <ele>110.49696024012869</ele>
        <time>2021-08-05T16:09:00.928Z</time>
      </trkpt>
      <trkpt lat="43.23042869567871" lon="-1.3008177280426025">
        <ele>109.69779626550799</ele>
        <time>2021-08-05T16:09:02.531Z</time>
      </trkpt>
      <trkpt lat="43.2306432723999" lon="-1.3006889820098877">
        <ele>108.92125326360467</ele>
        <time>2021-08-05T16:09:04.138Z</time>
      </trkpt>
      <trkpt lat="43.23080428875983" lon="-1.3005280494689941">
        <ele>108.24786465178336</ele>
        <time>2021-08-05T16:09:05.748Z</time>
      </trkpt>
      <trkpt lat="43.2322633266449" lon="-1.2991762161254883">
        <ele>107.49498625280569</ele>
        <time>2021-08-05T16:09:07.386Z</time>
      </trkpt>
      <trkpt lat="43.23226341046393" lon="-1.2991762161254883">
        <ele>106.89784483520418</ele>
        <time>2021-08-05T16:09:09.024Z</time>
      </trkpt>
      <trkpt lat="43.233336294069886" lon="-1.2981891632080078">
        <ele>106.27715887887705</ele>
        <time>2021-08-05T16:09:10.683Z</time>
      </trkpt>
      <trkpt lat="43.234623754397035" lon="-1.296987533569336">
        <ele>105.65885479521394</ele>
        <time>2021-08-05T16:09:12.367Z</time>
      </trkpt>
      <trkpt lat="43.23499917984009" lon="-1.2966763973236084">
        <ele>105.19297719410345</ele>
        <time>2021-08-05T16:09:14.058Z</time>
      </trkpt>
      <trkpt lat="43.235331773757935" lon="-1.296536922454834">
        <ele>104.8307509598718</ele>
        <time>2021-08-05T16:09:15.754Z</time>
      </trkpt>
      <trkpt lat="43.23644765652716" lon="-1.2963974475860596">
        <ele>104.64100868140409</ele>
        <time>2021-08-05T16:09:17.468Z</time>
      </trkpt>
      <trkpt lat="43.237102031707764" lon="-1.2963008880615234">
        <ele>104.55559498548742</ele>
        <time>2021-08-05T16:09:19.193Z</time>
      </trkpt>
      <trkpt lat="43.23801398277283" lon="-1.2960433959960938">
        <ele>104.43931449364214</ele>
        <time>2021-08-05T16:09:20.932Z</time>
      </trkpt>
      <trkpt lat="43.23801406659186" lon="-1.2960433959960938">
        <ele>104.48516573702267</ele>
        <time>2021-08-05T16:09:22.671Z</time>
      </trkpt>
      <trkpt lat="43.23825001716614" lon="-1.2960219383239746">
        <ele>104.63986383988089</ele>
        <time>2021-08-05T16:09:24.414Z</time>
      </trkpt>
      <trkpt lat="43.238561153411865" lon="-1.2960433959960938">
        <ele>104.89812557701688</ele>
        <time>2021-08-05T16:09:26.162Z</time>
      </trkpt>
      <trkpt lat="43.238829374313354" lon="-1.2961292266845703">
        <ele>105.2451105191321</ele>
        <time>2021-08-05T16:09:27.915Z</time>
      </trkpt>
      <trkpt lat="43.23896884918213" lon="-1.2962043285369873">
        <ele>105.67841634965153</ele>
        <time>2021-08-05T16:09:29.670Z</time>
      </trkpt>
      <trkpt lat="43.23970913887024" lon="-1.2966656684875488">
        <ele>106.37339396542004</ele>
        <time>2021-08-05T16:09:31.438Z</time>
      </trkpt>
      <trkpt lat="43.23970922268927" lon="-1.2966656684875488">
        <ele>106.9190791463887</ele>
        <time>2021-08-05T16:09:33.206Z</time>
      </trkpt>
      <trkpt lat="43.2397735118866" lon="-1.296708583831787">
        <ele>107.54028890323217</ele>
        <time>2021-08-05T16:09:34.975Z</time>
      </trkpt>
      <trkpt lat="43.23980578221381" lon="-1.2967193126678467">
        <ele>108.19253205225439</ele>
        <time>2021-08-05T16:09:36.745Z</time>
      </trkpt>
      <trkpt lat="43.2401704788208" lon="-1.2969231605529785">
        <ele>109.04179121397422</ele>
        <time>2021-08-05T16:09:38.521Z</time>
      </trkpt>
      <trkpt lat="43.24040659703314" lon="-1.2971055507659912">
        <ele>109.74503707619391</ele>
        <time>2021-08-05T16:09:40.301Z</time>
      </trkpt>
      <trkpt lat="43.240825021639466" lon="-1.2975561618804932">
        <ele>110.41032131682536</ele>
        <time>2021-08-05T16:09:42.090Z</time>
      </trkpt>
      <trkpt lat="43.2409752253443" lon="-1.2977170944213867">
        <ele>111.0900399865969</ele>
        <time>2021-08-05T16:09:43.882Z</time>
      </trkpt>
      <trkpt lat="43.24097514152527" lon="-1.2977170944213867">
        <ele>111.77058745054383</ele>
        <time>2021-08-05T16:09:45.674Z</time>
      </trkpt>
      <trkpt lat="43.24270248413086" lon="-1.2995517253875732">
        <ele>112.82905468151193</ele>
        <time>2021-08-05T16:09:47.501Z</time>
      </trkpt>
      <trkpt lat="43.24287414550781" lon="-1.2997877597808838">
        <ele>113.4805351421825</ele>
        <time>2021-08-05T16:09:49.332Z</time>
      </trkpt>
      <trkpt lat="43.24313163757324" lon="-1.3002490997314453">
        <ele>114.07805486127008</ele>
        <time>2021-08-05T16:09:51.170Z</time>
      </trkpt>
      <trkpt lat="43.243367755785584" lon="-1.300828456878662">
        <ele>114.62965553400142</ele>
        <time>2021-08-05T16:09:53.015Z</time>
      </trkpt>
      <trkpt lat="43.24336767196655" lon="-1.300828456878662">
        <ele>115.08098426761845</ele>
        <time>2021-08-05T16:09:54.860Z</time>
      </trkpt>
      <trkpt lat="43.243775367736816" lon="-1.3018476963043213">
        <ele>115.35002248462885</ele>
        <time>2021-08-05T16:09:56.719Z</time>
      </trkpt>
      <trkpt lat="43.24392557144165" lon="-1.302276849746704">
        <ele>115.74660653769247</ele>
        <time>2021-08-05T16:09:58.584Z</time>
      </trkpt>
      <trkpt lat="43.244054317474365" lon="-1.3028240203857422">
        <ele>116.01581699569513</ele>
        <time>2021-08-05T16:10:00.455Z</time>
      </trkpt>
      <trkpt lat="43.2441508769989" lon="-1.303328275680542">
        <ele>116.19672628901739</ele>
        <time>2021-08-05T16:10:02.332Z</time>
      </trkpt>
      <trkpt lat="43.24418314732611" lon="-1.3036823272705078">
        <ele>116.35260184153628</ele>
        <time>2021-08-05T16:10:04.214Z</time>
      </trkpt>
      <trkpt lat="43.24418306350708" lon="-1.3040149211883545">
        <ele>116.41803866209975</ele>
        <time>2021-08-05T16:10:06.099Z</time>
      </trkpt>
      <trkpt lat="43.24412941932678" lon="-1.3049590587615967">
        <ele>116.46096060672316</ele>
        <time>2021-08-05T16:10:07.996Z</time>
      </trkpt>
      <trkpt lat="43.2440544012934" lon="-1.3069546222686768">
        <ele>116.089023054444</ele>
        <time>2021-08-05T16:10:09.916Z</time>
      </trkpt>
      <trkpt lat="43.24401140213013" lon="-1.3082420825958252">
        <ele>115.96286752191632</ele>
        <time>2021-08-05T16:10:11.851Z</time>
      </trkpt>
      <trkpt lat="43.24402213096619" lon="-1.3084673881530762">
        <ele>115.8990176736908</ele>
        <time>2021-08-05T16:10:13.789Z</time>
      </trkpt>
      <trkpt lat="43.24416160583496" lon="-1.3093149662017822">
        <ele>115.74760974429935</ele>
        <time>2021-08-05T16:10:15.737Z</time>
      </trkpt>
      <trkpt lat="43.244311809539795" lon="-1.3099372386932373">
        <ele>115.70144880754927</ele>
        <time>2021-08-05T16:10:17.692Z</time>
      </trkpt>
      <trkpt lat="43.24447274208069" lon="-1.3105273246765137">
        <ele>115.78067564385933</ele>
        <time>2021-08-05T16:10:19.655Z</time>
      </trkpt>
      <trkpt lat="43.244826793670654" lon="-1.3114714622497559">
        <ele>115.74616885315604</ele>
        <time>2021-08-05T16:10:21.630Z</time>
      </trkpt>
      <trkpt lat="43.24513792991638" lon="-1.3121795654296875">
        <ele>115.50588886191248</ele>
        <time>2021-08-05T16:10:23.615Z</time>
      </trkpt>
      <trkpt lat="43.24581393040717" lon="-1.314014196395874">
        <ele>116.01877414540373</ele>
        <time>2021-08-05T16:10:25.624Z</time>
      </trkpt>
      <trkpt lat="43.245813846588135" lon="-1.314014196395874">
        <ele>115.92037321208406</ele>
        <time>2021-08-05T16:10:27.633Z</time>
      </trkpt>
      <trkpt lat="43.24586749076843" lon="-1.3141965866088867">
        <ele>115.81913526362823</ele>
        <time>2021-08-05T16:10:29.644Z</time>
      </trkpt>
      <trkpt lat="43.246060609817505" lon="-1.3150012493133545">
        <ele>115.60748535125575</ele>
        <time>2021-08-05T16:10:31.665Z</time>
      </trkpt>
      <trkpt lat="43.24618935585022" lon="-1.3153553009033203">
        <ele>115.77820569463486</ele>
        <time>2021-08-05T16:10:33.691Z</time>
      </trkpt>
      <trkpt lat="43.24638247489929" lon="-1.3157415390014648">
        <ele>115.47457106462349</ele>
        <time>2021-08-05T16:10:35.722Z</time>
      </trkpt>
      <trkpt lat="43.24675798416138" lon="-1.3164174556732178">
        <ele>114.49009451059774</ele>
        <time>2021-08-05T16:10:37.763Z</time>
      </trkpt>
      <trkpt lat="43.247058391571045" lon="-1.3170289993286133">
        <ele>114.45668772653285</ele>
        <time>2021-08-05T16:10:39.813Z</time>
      </trkpt>
      <trkpt lat="43.247230052948" lon="-1.3172757625579834">
        <ele>113.63998882299975</ele>
        <time>2021-08-05T16:10:41.867Z</time>
      </trkpt>
      <trkpt lat="43.24739098548889" lon="-1.317458152770996">
        <ele>113.44624696092048</ele>
        <time>2021-08-05T16:10:43.924Z</time>
      </trkpt>
      <trkpt lat="43.24761629104614" lon="-1.317662000656128">
        <ele>112.66399000558683</ele>
        <time>2021-08-05T16:10:45.985Z</time>
      </trkpt>
      <trkpt lat="43.248066902160645" lon="-1.3179516792297363">
        <ele>112.33356480010156</ele>
        <time>2021-08-05T16:10:48.054Z</time>
      </trkpt>
      <trkpt lat="43.248796463012695" lon="-1.3183915615081787">
        <ele>111.89037204499213</ele>
        <time>2021-08-05T16:10:50.136Z</time>
      </trkpt>
      <trkpt lat="43.24893593788147" lon="-1.3184452056884766">
        <ele>111.33883414344976</ele>
        <time>2021-08-05T16:10:52.220Z</time>
      </trkpt>
      <trkpt lat="43.24909687042236" lon="-1.3184881210327148">
        <ele>110.52544129324173</ele>
        <time>2021-08-05T16:10:54.307Z</time>
      </trkpt>
      <trkpt lat="43.24962258338928" lon="-1.318509578704834">
        <ele>109.484340495422</ele>
        <time>2021-08-05T16:10:56.402Z</time>
      </trkpt>
      <trkpt lat="43.250298500061035" lon="-1.3183379173278809">
        <ele>108.49470436828778</ele>
        <time>2021-08-05T16:10:58.508Z</time>
      </trkpt>
      <trkpt lat="43.25060963630676" lon="-1.3183164596557617">
        <ele>107.67496610326342</ele>
        <time>2021-08-05T16:11:00.619Z</time>
      </trkpt>
      <trkpt lat="43.251307010650635" lon="-1.3184452056884766">
        <ele>107.08254219263736</ele>
        <time>2021-08-05T16:11:02.742Z</time>
      </trkpt>
      <trkpt lat="43.251521587371826" lon="-1.3185417652130127">
        <ele>106.39106611661661</ele>
        <time>2021-08-05T16:11:04.868Z</time>
      </trkpt>
      <trkpt lat="43.25172543525696" lon="-1.3186383247375488">
        <ele>105.56941746285173</ele>
        <time>2021-08-05T16:11:06.998Z</time>
      </trkpt>
      <trkpt lat="43.25195074081421" lon="-1.3187885284423828">
        <ele>104.99371621276819</ele>
        <time>2021-08-05T16:11:09.132Z</time>
      </trkpt>
      <trkpt lat="43.25287342071533" lon="-1.3194751739501953">
        <ele>104.8731605218362</ele>
        <time>2021-08-05T16:11:11.283Z</time>
      </trkpt>
      <trkpt lat="43.25309872627258" lon="-1.3197219371795654">
        <ele>103.98441206987184</ele>
        <time>2021-08-05T16:11:13.438Z</time>
      </trkpt>
      <trkpt lat="43.25336694717407" lon="-1.320129632949829">
        <ele>103.2957314251203</ele>
        <time>2021-08-05T16:11:15.600Z</time>
      </trkpt>
      <trkpt lat="43.25353869237006" lon="-1.3204514980316162">
        <ele>102.54860368346634</ele>
        <time>2021-08-05T16:11:17.766Z</time>
      </trkpt>
      <trkpt lat="43.25365662574768" lon="-1.3206875324249268">
        <ele>101.94305656265959</ele>
        <time>2021-08-05T16:11:19.936Z</time>
      </trkpt>
      <trkpt lat="43.253817642107606" lon="-1.3209235668182373">
        <ele>101.74576995191151</ele>
        <time>2021-08-05T16:11:22.109Z</time>
      </trkpt>
      <trkpt lat="43.253817558288574" lon="-1.3209235668182373">
        <ele>101.36312994218706</ele>
        <time>2021-08-05T16:11:24.282Z</time>
      </trkpt>
      <trkpt lat="43.25396776199341" lon="-1.32110595703125">
        <ele>101.01343244991313</ele>
        <time>2021-08-05T16:11:26.459Z</time>
      </trkpt>
      <trkpt lat="43.25425744056702" lon="-1.3213634490966797">
        <ele>100.2228323406919</ele>
        <time>2021-08-05T16:11:28.641Z</time>
      </trkpt>
      <trkpt lat="43.254536390304565" lon="-1.321502923965454">
        <ele>99.98705087843584</ele>
        <time>2021-08-05T16:11:30.828Z</time>
      </trkpt>
      <trkpt lat="43.2547402381897" lon="-1.3215458393096924">
        <ele>99.97971843259731</ele>
        <time>2021-08-05T16:11:33.018Z</time>
      </trkpt>
      <trkpt lat="43.25493335723877" lon="-1.3215243816375732">
        <ele>100.01640544321403</ele>
        <time>2021-08-05T16:11:35.211Z</time>
      </trkpt>
      <trkpt lat="43.255115831270814" lon="-1.3214385509490967">
        <ele>100.16266965666907</ele>
        <time>2021-08-05T16:11:37.407Z</time>
      </trkpt>
      <trkpt lat="43.25511574745178" lon="-1.3214385509490967">
        <ele>100.31331488422273</ele>
        <time>2021-08-05T16:11:39.603Z</time>
      </trkpt>
      <trkpt lat="43.255287408828735" lon="-1.3212776184082031">
        <ele>100.47919140996039</ele>
        <time>2021-08-05T16:11:41.803Z</time>
      </trkpt>
      <trkpt lat="43.25540542602539" lon="-1.3210844993591309">
        <ele>100.84364281396708</ele>
        <time>2021-08-05T16:11:44.006Z</time>
      </trkpt>
      <trkpt lat="43.25546979904175" lon="-1.3209450244903564">
        <ele>101.28015178610525</ele>
        <time>2021-08-05T16:11:46.211Z</time>
      </trkpt>
      <trkpt lat="43.255555629730225" lon="-1.3205265998840332">
        <ele>102.05994904126172</ele>
        <time>2021-08-05T16:11:48.421Z</time>
      </trkpt>
      <trkpt lat="43.25566291809082" lon="-1.3201940059661865">
        <ele>102.46075181882716</ele>
        <time>2021-08-05T16:11:50.635Z</time>
      </trkpt>
      <trkpt lat="43.255791664123535" lon="-1.3199043273925781">
        <ele>102.87485171688736</ele>
        <time>2021-08-05T16:11:52.853Z</time>
      </trkpt>
      <trkpt lat="43.25590968132019" lon="-1.3197112083435059">
        <ele>103.32606471891043</ele>
        <time>2021-08-05T16:11:55.074Z</time>
      </trkpt>
      <trkpt lat="43.2560920715332" lon="-1.3194859027862549">
        <ele>103.81868969411042</ele>
        <time>2021-08-05T16:11:57.299Z</time>
      </trkpt>
      <trkpt lat="43.256306648254395" lon="-1.3192927837371826">
        <ele>104.17991986829122</ele>
        <time>2021-08-05T16:11:59.528Z</time>
      </trkpt>
      <trkpt lat="43.25649976730347" lon="-1.319185495376587">
        <ele>104.36553703063518</ele>
        <time>2021-08-05T16:12:01.760Z</time>
      </trkpt>
      <trkpt lat="43.25672507286072" lon="-1.319131851196289">
        <ele>104.49342573718357</ele>
        <time>2021-08-05T16:12:03.996Z</time>
      </trkpt>
      <trkpt lat="43.257057750597596" lon="-1.319131851196289">
        <ele>104.71578034806554</ele>
        <time>2021-08-05T16:12:06.237Z</time>
      </trkpt>
      <trkpt lat="43.25785160064697" lon="-1.3191425800323486">
        <ele>105.0660805715868</ele>
        <time>2021-08-05T16:12:08.491Z</time>
      </trkpt>
      <trkpt lat="43.25799107551575" lon="-1.3191533088684082">
        <ele>105.37846828176524</ele>
        <time>2021-08-05T16:12:10.747Z</time>
      </trkpt>
      <trkpt lat="43.258270025253296" lon="-1.3192284107208252">
        <ele>105.68516515121817</ele>
        <time>2021-08-05T16:12:13.008Z</time>
      </trkpt>
      <trkpt lat="43.25858116149902" lon="-1.31935715675354">
        <ele>105.97313777213469</ele>
        <time>2021-08-05T16:12:15.274Z</time>
      </trkpt>
      <trkpt lat="43.259289264678955" lon="-1.319732666015625">
        <ele>105.99177758655503</ele>
        <time>2021-08-05T16:12:17.552Z</time>
      </trkpt>
      <trkpt lat="43.25985789299011" lon="-1.320054531097412">
        <ele>106.65143748412933</ele>
        <time>2021-08-05T16:12:19.840Z</time>
      </trkpt>
      <trkpt lat="43.260029554367065" lon="-1.320183277130127">
        <ele>106.28733867381874</ele>
        <time>2021-08-05T16:12:22.131Z</time>
      </trkpt>
      <trkpt lat="43.26014757156372" lon="-1.3203012943267822">
        <ele>105.99089475731641</ele>
        <time>2021-08-05T16:12:24.424Z</time>
      </trkpt>
      <trkpt lat="43.26034069061279" lon="-1.3205480575561523">
        <ele>105.90807123832204</ele>
        <time>2021-08-05T16:12:26.722Z</time>
      </trkpt>
      <trkpt lat="43.260512351989746" lon="-1.3208162784576416">
        <ele>105.78032710550374</ele>
        <time>2021-08-05T16:12:29.024Z</time>
      </trkpt>
      <trkpt lat="43.261016607284546" lon="-1.3218247890472412">
        <ele>105.14509408309125</ele>
        <time>2021-08-05T16:12:31.340Z</time>
      </trkpt>
      <trkpt lat="43.26114535331726" lon="-1.3220500946044922">
        <ele>104.96934723514727</ele>
        <time>2021-08-05T16:12:33.659Z</time>
      </trkpt>
      <trkpt lat="43.262046575546265" lon="-1.323004961013794">
        <ele>104.57125355145277</ele>
        <time>2021-08-05T16:12:35.997Z</time>
      </trkpt>
      <trkpt lat="43.262304067611694" lon="-1.3232946395874023">
        <ele>104.04001478040362</ele>
        <time>2021-08-05T16:12:38.340Z</time>
      </trkpt>
      <trkpt lat="43.26241135597229" lon="-1.3234448432922363">
        <ele>103.2940645911272</ele>
        <time>2021-08-05T16:12:40.685Z</time>
      </trkpt>
      <trkpt lat="43.26261520385742" lon="-1.3237988948822021">
        <ele>101.60557112455793</ele>
        <time>2021-08-05T16:12:43.036Z</time>
      </trkpt>
      <trkpt lat="43.26348423957825" lon="-1.3254725933074951">
        <ele>100.13047464558488</ele>
        <time>2021-08-05T16:12:45.411Z</time>
      </trkpt>
      <trkpt lat="43.263816917315125" lon="-1.3259875774383545">
        <ele>99.71060221944063</ele>
        <time>2021-08-05T16:12:47.794Z</time>
      </trkpt>
      <trkpt lat="43.263816833496094" lon="-1.3259875774383545">
        <ele>98.52311436352966</ele>
        <time>2021-08-05T16:12:50.177Z</time>
      </trkpt>
      <trkpt lat="43.26449275016785" lon="-1.3268566131591797">
        <ele>97.01516765942523</ele>
        <time>2021-08-05T16:12:52.575Z</time>
      </trkpt>
      <trkpt lat="43.26534032821655" lon="-1.327897310256958">
        <ele>95.23624877929834</ele>
        <time>2021-08-05T16:12:54.991Z</time>
      </trkpt>
      <trkpt lat="43.265554904937744" lon="-1.3281869888305664">
        <ele>93.8130830896344</ele>
        <time>2021-08-05T16:12:57.412Z</time>
      </trkpt>
      <trkpt lat="43.26565146446228" lon="-1.32834792137146">
        <ele>92.59655673985966</ele>
        <time>2021-08-05T16:12:59.835Z</time>
      </trkpt>
      <trkpt lat="43.26591968536377" lon="-1.3288629055023193">
        <ele>90.90827978994653</ele>
        <time>2021-08-05T16:13:02.265Z</time>
      </trkpt>
      <trkpt lat="43.2660698890686" lon="-1.3292276859283447">
        <ele>89.73715365232817</ele>
        <time>2021-08-05T16:13:04.700Z</time>
      </trkpt>
      <trkpt lat="43.266541957855225" lon="-1.3305151462554932">
        <ele>88.42869616256887</ele>
        <time>2021-08-05T16:13:07.152Z</time>
      </trkpt>
      <trkpt lat="43.26668151654303" lon="-1.3310086727142334">
        <ele>87.26693717012641</ele>
        <time>2021-08-05T16:13:09.610Z</time>
      </trkpt>
      <trkpt lat="43.2667350769043" lon="-1.3314485549926758">
        <ele>86.23722885941544</ele>
        <time>2021-08-05T16:13:12.074Z</time>
      </trkpt>
      <trkpt lat="43.26673516072333" lon="-1.332489252090454">
        <ele>85.3458166220391</ele>
        <time>2021-08-05T16:13:14.550Z</time>
      </trkpt>
      <trkpt lat="43.26670289039612" lon="-1.3331329822540283">
        <ele>84.60635578461036</ele>
        <time>2021-08-05T16:13:17.033Z</time>
      </trkpt>
      <trkpt lat="43.26667070388794" lon="-1.3339591026306152">
        <ele>83.96476859817267</ele>
        <time>2021-08-05T16:13:19.526Z</time>
      </trkpt>
      <trkpt lat="43.26659560203552" lon="-1.334441900253296">
        <ele>83.4104582538055</ele>
        <time>2021-08-05T16:13:22.025Z</time>
      </trkpt>
      <trkpt lat="43.26645612716675" lon="-1.335064172744751">
        <ele>82.9484380095592</ele>
        <time>2021-08-05T16:13:24.531Z</time>
      </trkpt>
      <trkpt lat="43.2661771774292" lon="-1.3361155986785889">
        <ele>82.54363094258062</ele>
        <time>2021-08-05T16:13:27.050Z</time>
      </trkpt>
      <trkpt lat="43.26609134674072" lon="-1.3365447521209717">
        <ele>82.30453642923771</ele>
        <time>2021-08-05T16:13:29.575Z</time>
      </trkpt>
      <trkpt lat="43.266048431396484" lon="-1.3368451595306396">
        <ele>82.16386018465987</ele>
        <time>2021-08-05T16:13:32.103Z</time>
      </trkpt>
      <trkpt lat="43.266048431396484" lon="-1.3372528553009033">
        <ele>82.14961350930162</ele>
        <time>2021-08-05T16:13:34.636Z</time>
      </trkpt>
      <trkpt lat="43.266080701723695" lon="-1.3377678394317627">
        <ele>82.21102215124787</ele>
        <time>2021-08-05T16:13:37.175Z</time>
      </trkpt>
      <trkpt lat="43.26614499092102" lon="-1.338282823562622">
        <ele>82.3936116515342</ele>
        <time>2021-08-05T16:13:39.720Z</time>
      </trkpt>
      <trkpt lat="43.266359651461244" lon="-1.3390552997589111">
        <ele>82.75383691061268</ele>
        <time>2021-08-05T16:13:42.275Z</time>
      </trkpt>
      <trkpt lat="43.26635956764221" lon="-1.3390552997589111">
        <ele>83.07121872820362</ele>
        <time>2021-08-05T16:13:44.830Z</time>
      </trkpt>
      <trkpt lat="43.266520500183105" lon="-1.339505910873413">
        <ele>83.44522767129601</ele>
        <time>2021-08-05T16:13:47.391Z</time>
      </trkpt>
      <trkpt lat="43.26693892478943" lon="-1.3405895233154297">
        <ele>84.19988681860471</ele>
        <time>2021-08-05T16:13:49.966Z</time>
      </trkpt>
      <trkpt lat="43.267056941986084" lon="-1.3409864902496338">
        <ele>85.02610672266641</ele>
        <time>2021-08-05T16:13:52.546Z</time>
      </trkpt>
      <trkpt lat="43.267346704378724" lon="-1.3423383235931396">
        <ele>85.26267141829555</ele>
        <time>2021-08-05T16:13:55.142Z</time>
      </trkpt>
      <trkpt lat="43.26742172241211" lon="-1.3425850868225098">
        <ele>85.73940521698182</ele>
        <time>2021-08-05T16:13:57.742Z</time>
      </trkpt>
      <trkpt lat="43.26760411262512" lon="-1.3430571556091309">
        <ele>85.84982486003801</ele>
        <time>2021-08-05T16:14:00.348Z</time>
      </trkpt>
      <trkpt lat="43.26785087585449" lon="-1.3436150550842285">
        <ele>86.4362127812083</ele>
        <time>2021-08-05T16:14:02.961Z</time>
      </trkpt>
      <trkpt lat="43.268011808395386" lon="-1.3439476490020752">
        <ele>86.3640480956957</ele>
        <time>2021-08-05T16:14:05.579Z</time>
      </trkpt>
      <trkpt lat="43.26820492744446" lon="-1.3442695140838623">
        <ele>86.84955751952643</ele>
        <time>2021-08-05T16:14:08.202Z</time>
      </trkpt>
      <trkpt lat="43.26836585998535" lon="-1.3444948196411133">
        <ele>86.88153713958499</ele>
        <time>2021-08-05T16:14:10.829Z</time>
      </trkpt>
      <trkpt lat="43.26869853772223" lon="-1.3448810577392578">
        <ele>87.0639041148921</ele>
        <time>2021-08-05T16:14:13.463Z</time>
      </trkpt>
      <trkpt lat="43.2686984539032" lon="-1.3448810577392578">
        <ele>87.25538268060517</ele>
        <time>2021-08-05T16:14:16.097Z</time>
      </trkpt>
      <trkpt lat="43.26952465809882" lon="-1.3458359241485596">
        <ele>87.45898771387861</ele>
        <time>2021-08-05T16:14:18.748Z</time>
      </trkpt>
      <trkpt lat="43.26985716819763" lon="-1.3461899757385254">
        <ele>87.53583633713069</ele>
        <time>2021-08-05T16:14:21.406Z</time>
      </trkpt>
      <trkpt lat="43.27018976211548" lon="-1.346447467803955">
        <ele>87.33009405487988</ele>
        <time>2021-08-05T16:14:24.070Z</time>
      </trkpt>
      <trkpt lat="43.270554542541504" lon="-1.346672773361206">
        <ele>87.59754967876128</ele>
        <time>2021-08-05T16:14:26.740Z</time>
      </trkpt>
      <trkpt lat="43.27123045921326" lon="-1.3470375537872314">
        <ele>88.08618943643336</ele>
        <time>2021-08-05T16:14:29.422Z</time>
      </trkpt>
      <trkpt lat="43.27212103642523" lon="-1.347595453262329">
        <ele>88.103388365544</ele>
        <time>2021-08-05T16:14:32.119Z</time>
      </trkpt>
      <trkpt lat="43.2721209526062" lon="-1.347595453262329">
        <ele>87.98153225113248</ele>
        <time>2021-08-05T16:14:34.816Z</time>
      </trkpt>
      <trkpt lat="43.27219613827765" lon="-1.347649097442627">
        <ele>87.92828468990183</ele>
        <time>2021-08-05T16:14:37.515Z</time>
      </trkpt>
      <trkpt lat="43.27273258008063" lon="-1.3480782508850098">
        <ele>86.9573139216953</ele>
        <time>2021-08-05T16:14:40.224Z</time>
      </trkpt>
      <trkpt lat="43.27317237854004" lon="-1.3484430313110352">
        <ele>86.74897253019444</ele>
        <time>2021-08-05T16:14:42.941Z</time>
      </trkpt>
      <trkpt lat="43.273558700457215" lon="-1.3486897945404053">
        <ele>86.21717584492865</ele>
        <time>2021-08-05T16:14:45.665Z</time>
      </trkpt>
      <trkpt lat="43.273558616638184" lon="-1.3486897945404053">
        <ele>85.86553995764339</ele>
        <time>2021-08-05T16:14:48.389Z</time>
      </trkpt>
      <trkpt lat="43.274556398391724" lon="-1.3491404056549072">
        <ele>85.63315587414363</ele>
        <time>2021-08-05T16:14:51.130Z</time>
      </trkpt>
      <trkpt lat="43.275521993637085" lon="-1.3496124744415283">
        <ele>85.37966648233305</ele>
        <time>2021-08-05T16:14:53.887Z</time>
      </trkpt>
      <trkpt lat="43.276305282488465" lon="-1.3500738143920898">
        <ele>84.99802160233673</ele>
        <time>2021-08-05T16:14:56.658Z</time>
      </trkpt>
      <trkpt lat="43.276788080111146" lon="-1.3503527641296387">
        <ele>84.43107574636875</ele>
        <time>2021-08-05T16:14:59.437Z</time>
      </trkpt>
      <trkpt lat="43.27707767486572" lon="-1.3505244255065918">
        <ele>83.88945490229545</ele>
        <time>2021-08-05T16:15:02.221Z</time>
      </trkpt>
      <trkpt lat="43.27833294868469" lon="-1.351168155670166">
        <ele>83.32980983836217</ele>
        <time>2021-08-05T16:15:05.027Z</time>
      </trkpt>
      <trkpt lat="43.27865481376648" lon="-1.3513720035552979">
        <ele>82.77878810731926</ele>
        <time>2021-08-05T16:15:07.838Z</time>
      </trkpt>
      <trkpt lat="43.27889084815979" lon="-1.3515758514404297">
        <ele>82.35598936759456</ele>
        <time>2021-08-05T16:15:10.654Z</time>
      </trkpt>
      <trkpt lat="43.279030323028564" lon="-1.351715326309204">
        <ele>81.96745264254336</ele>
        <time>2021-08-05T16:15:13.472Z</time>
      </trkpt>
      <trkpt lat="43.279298543930054" lon="-1.352090835571289">
        <ele>81.39778538795315</ele>
        <time>2021-08-05T16:15:16.297Z</time>
      </trkpt>
      <trkpt lat="43.27959903515875" lon="-1.352466344833374">
        <ele>80.90182445128325</ele>
        <time>2021-08-05T16:15:19.128Z</time>
      </trkpt>
      <trkpt lat="43.27959895133972" lon="-1.352466344833374">
        <ele>80.45810634137209</ele>
        <time>2021-08-05T16:15:21.959Z</time>
      </trkpt>
      <trkpt lat="43.27992081642151" lon="-1.3528096675872803">
        <ele>80.00825745997072</ele>
        <time>2021-08-05T16:15:24.797Z</time>
      </trkpt>
      <trkpt lat="43.28022122383118" lon="-1.3530349731445312">
        <ele>79.58858034848535</ele>
        <time>2021-08-05T16:15:27.640Z</time>
      </trkpt>
      <trkpt lat="43.280521631240845" lon="-1.3532280921936035">
        <ele>79.19081583664041</ele>
        <time>2021-08-05T16:15:30.488Z</time>
      </trkpt>
      <trkpt lat="43.28106880187988" lon="-1.353517770767212">
        <ele>78.76456698863156</ele>
        <time>2021-08-05T16:15:33.346Z</time>
      </trkpt>
      <trkpt lat="43.28166961669922" lon="-1.3537859916687012">
        <ele>78.38956870604001</ele>
        <time>2021-08-05T16:15:36.214Z</time>
      </trkpt>
      <trkpt lat="43.28197002410889" lon="-1.3538932800292969">
        <ele>78.08007580334726</ele>
        <time>2021-08-05T16:15:39.087Z</time>
      </trkpt>
      <trkpt lat="43.28235626220703" lon="-1.3539683818817139">
        <ele>77.75963602113855</ele>
        <time>2021-08-05T16:15:41.966Z</time>
      </trkpt>
      <trkpt lat="43.28272104263306" lon="-1.3539791107177734">
        <ele>77.53774422381295</ele>
        <time>2021-08-05T16:15:44.851Z</time>
      </trkpt>
      <trkpt lat="43.282989263534546" lon="-1.3539469242095947">
        <ele>77.39905887741656</ele>
        <time>2021-08-05T16:15:47.740Z</time>
      </trkpt>
      <trkpt lat="43.28333258628845" lon="-1.3538289070129395">
        <ele>77.31805478094967</ele>
        <time>2021-08-05T16:15:50.635Z</time>
      </trkpt>
      <trkpt lat="43.2837188243866" lon="-1.3536357879638672">
        <ele>77.27239216029712</ele>
        <time>2021-08-05T16:15:53.536Z</time>
      </trkpt>
      <trkpt lat="43.2841694355011" lon="-1.3533782958984375">
        <ele>77.26484929373177</ele>
        <time>2021-08-05T16:15:56.445Z</time>
      </trkpt>
      <trkpt lat="43.284512758255005" lon="-1.3531529903411865">
        <ele>77.3099308811266</ele>
        <time>2021-08-05T16:15:59.360Z</time>
      </trkpt>
      <trkpt lat="43.28471660614014" lon="-1.3529813289642334">
        <ele>77.38768610614159</ele>
        <time>2021-08-05T16:16:02.279Z</time>
      </trkpt>
      <trkpt lat="43.28565009869635" lon="-1.352144479751587">
        <ele>77.64587401380776</ele>
        <time>2021-08-05T16:16:05.216Z</time>
      </trkpt>
      <trkpt lat="43.28582167625427" lon="-1.3520050048828125">
        <ele>77.80589353094017</ele>
        <time>2021-08-05T16:16:08.156Z</time>
      </trkpt>
      <trkpt lat="43.28606843948364" lon="-1.3518548011779785">
        <ele>77.96800682108956</ele>
        <time>2021-08-05T16:16:11.101Z</time>
      </trkpt>
      <trkpt lat="43.286497592926025" lon="-1.351693868637085">
        <ele>78.14508297840777</ele>
        <time>2021-08-05T16:16:14.053Z</time>
      </trkpt>
      <trkpt lat="43.286776542663574" lon="-1.3516294956207275">
        <ele>78.28635107588997</ele>
        <time>2021-08-05T16:16:17.009Z</time>
      </trkpt>
      <trkpt lat="43.28693747520447" lon="-1.3516080379486084">
        <ele>78.19400012165883</ele>
        <time>2021-08-05T16:16:19.968Z</time>
      </trkpt>
      <trkpt lat="43.28735589981079" lon="-1.351618766784668">
        <ele>77.9500504380444</ele>
        <time>2021-08-05T16:16:22.933Z</time>
      </trkpt>
      <trkpt lat="43.287538290023804" lon="-1.351640224456787">
        <ele>77.73079692285202</ele>
        <time>2021-08-05T16:16:25.901Z</time>
      </trkpt>
      <trkpt lat="43.28843951225281" lon="-1.351844072341919">
        <ele>77.422730545531</ele>
        <time>2021-08-05T16:16:28.884Z</time>
      </trkpt>
      <trkpt lat="43.288761377334595" lon="-1.3519513607025146">
        <ele>77.10816791326883</ele>
        <time>2021-08-05T16:16:31.872Z</time>
      </trkpt>
      <trkpt lat="43.29045653343201" lon="-1.3528847694396973">
        <ele>76.31332314684057</ele>
        <time>2021-08-05T16:16:34.890Z</time>
      </trkpt>
      <trkpt lat="43.290971517562866" lon="-1.3531208038330078">
        <ele>75.79927709160577</ele>
        <time>2021-08-05T16:16:37.916Z</time>
      </trkpt>
      <trkpt lat="43.29115390777588" lon="-1.3531851768493652">
        <ele>75.61024659552305</ele>
        <time>2021-08-05T16:16:40.945Z</time>
      </trkpt>
      <trkpt lat="43.29143285751343" lon="-1.3532280921936035">
        <ele>75.46911336570595</ele>
        <time>2021-08-05T16:16:43.979Z</time>
      </trkpt>
      <trkpt lat="43.291786909103394" lon="-1.3532495498657227">
        <ele>75.23089729215855</ele>
        <time>2021-08-05T16:16:47.018Z</time>
      </trkpt>
      <trkpt lat="43.291980028152466" lon="-1.3532495498657227">
        <ele>75.00550693847852</ele>
        <time>2021-08-05T16:16:50.061Z</time>
      </trkpt>
      <trkpt lat="43.29215168952942" lon="-1.353217363357544">
        <ele>74.80066951436214</ele>
        <time>2021-08-05T16:16:53.106Z</time>
      </trkpt>
      <trkpt lat="43.29232335090637" lon="-1.3531529903411865">
        <ele>74.60639706234062</ele>
        <time>2021-08-05T16:16:56.154Z</time>
      </trkpt>
      <trkpt lat="43.292527198791504" lon="-1.3530349731445312">
        <ele>74.54630420415126</ele>
        <time>2021-08-05T16:16:59.206Z</time>
      </trkpt>
      <trkpt lat="43.29284906387329" lon="-1.3528203964233398">
        <ele>74.486508345517</ele>
        <time>2021-08-05T16:17:02.263Z</time>
      </trkpt>
      <trkpt lat="43.29316020011902" lon="-1.3525736331939697">
        <ele>74.42253204529334</ele>
        <time>2021-08-05T16:17:05.326Z</time>
      </trkpt>
      <trkpt lat="43.29342842102051" lon="-1.3523483276367188">
        <ele>74.37562519484885</ele>
        <time>2021-08-05T16:17:08.394Z</time>
      </trkpt>
      <trkpt lat="43.29440474510193" lon="-1.351393461227417">
        <ele>74.71495436249617</ele>
        <time>2021-08-05T16:17:11.481Z</time>
      </trkpt>
      <trkpt lat="43.294973373413086" lon="-1.3508784770965576">
        <ele>74.69586016990493</ele>
        <time>2021-08-05T16:17:14.579Z</time>
      </trkpt>
      <trkpt lat="43.29528450965881" lon="-1.3506317138671875">
        <ele>74.55646927070485</ele>
        <time>2021-08-05T16:17:17.683Z</time>
      </trkpt>
      <trkpt lat="43.29585313796997" lon="-1.3503313064575195">
        <ele>74.55728466808938</ele>
        <time>2021-08-05T16:17:20.797Z</time>
      </trkpt>
      <trkpt lat="43.29617500305176" lon="-1.3502240180969238">
        <ele>74.35407321724148</ele>
        <time>2021-08-05T16:17:23.916Z</time>
      </trkpt>
      <trkpt lat="43.296775817871094" lon="-1.3501274585723877">
        <ele>74.17158837631098</ele>
        <time>2021-08-05T16:17:27.045Z</time>
      </trkpt>
      <trkpt lat="43.297269344329834" lon="-1.350095272064209">
        <ele>73.72248593817646</ele>
        <time>2021-08-05T16:17:30.182Z</time>
      </trkpt>
      <trkpt lat="43.298020362854004" lon="-1.3501596450805664">
        <ele>73.32870904806158</ele>
        <time>2021-08-05T16:17:33.331Z</time>
      </trkpt>
      <trkpt lat="43.298224210739136" lon="-1.3501596450805664">
        <ele>73.05870708637816</ele>
        <time>2021-08-05T16:17:36.483Z</time>
      </trkpt>
      <trkpt lat="43.298503160476685" lon="-1.3501274585723877">
        <ele>72.79519956613116</ele>
        <time>2021-08-05T16:17:39.639Z</time>
      </trkpt>
      <trkpt lat="43.2990288734436" lon="-1.350020170211792">
        <ele>72.63393901438073</ele>
        <time>2021-08-05T16:17:42.804Z</time>
      </trkpt>
      <trkpt lat="43.29937228001654" lon="-1.3499987125396729">
        <ele>72.54311220735124</ele>
        <time>2021-08-05T16:17:45.974Z</time>
      </trkpt>
      <trkpt lat="43.29937219619751" lon="-1.3499987125396729">
        <ele>72.47040235172793</ele>
        <time>2021-08-05T16:17:49.144Z</time>
      </trkpt>
      <trkpt lat="43.29990863800049" lon="-1.3500094413757324">
        <ele>72.40383566081687</ele>
        <time>2021-08-05T16:17:52.323Z</time>
      </trkpt>
      <trkpt lat="43.30069184303284" lon="-1.3498914241790771">
        <ele>72.43704589832268</ele>
        <time>2021-08-05T16:17:55.515Z</time>
      </trkpt>
      <trkpt lat="43.30116399563849" lon="-1.3499128818511963">
        <ele>72.51966664329734</ele>
        <time>2021-08-05T16:17:58.714Z</time>
      </trkpt>
      <trkpt lat="43.301517963409424" lon="-1.349945068359375">
        <ele>72.67512702606993</ele>
        <time>2021-08-05T16:18:01.919Z</time>
      </trkpt>
      <trkpt lat="43.301753997802734" lon="-1.350020170211792">
        <ele>72.85264873803123</ele>
        <time>2021-08-05T16:18:05.128Z</time>
      </trkpt>
      <trkpt lat="43.302998626604676" lon="-1.3505887985229492">
        <ele>73.16676708016786</ele>
        <time>2021-08-05T16:18:08.358Z</time>
      </trkpt>
      <trkpt lat="43.30333113670349" lon="-1.3507497310638428">
        <ele>73.54887295331179</ele>
        <time>2021-08-05T16:18:11.593Z</time>
      </trkpt>
      <trkpt lat="43.30365300178528" lon="-1.3509643077850342">
        <ele>73.92568026440304</ele>
        <time>2021-08-05T16:18:14.834Z</time>
      </trkpt>
      <trkpt lat="43.30391049385071" lon="-1.3512003421783447">
        <ele>74.38443051026894</ele>
        <time>2021-08-05T16:18:18.080Z</time>
      </trkpt>
      <trkpt lat="43.30414652824402" lon="-1.3515007495880127">
        <ele>74.85201375753027</ele>
        <time>2021-08-05T16:18:21.331Z</time>
      </trkpt>
      <trkpt lat="43.304253816604614" lon="-1.3516831398010254">
        <ele>75.43608156919227</ele>
        <time>2021-08-05T16:18:24.585Z</time>
      </trkpt>
      <trkpt lat="43.30439329147339" lon="-1.3519835472106934">
        <ele>76.12329655458996</ele>
        <time>2021-08-05T16:18:27.843Z</time>
      </trkpt>
      <trkpt lat="43.30486536026001" lon="-1.3531959056854248">
        <ele>77.23896336349691</ele>
        <time>2021-08-05T16:18:31.117Z</time>
      </trkpt>
      <trkpt lat="43.304951190948486" lon="-1.3534855842590332">
        <ele>77.99552275868336</ele>
        <time>2021-08-05T16:18:34.395Z</time>
      </trkpt>
      <trkpt lat="43.304983377456665" lon="-1.3537001609802246">
        <ele>78.70779937973643</ele>
        <time>2021-08-05T16:18:37.675Z</time>
      </trkpt>
      <trkpt lat="43.305004835128784" lon="-1.3539040088653564">
        <ele>79.40003141587724</ele>
        <time>2021-08-05T16:18:40.958Z</time>
      </trkpt>
      <trkpt lat="43.304994106292725" lon="-1.3540971279144287">
        <ele>80.04147401382374</ele>
        <time>2021-08-05T16:18:44.243Z</time>
      </trkpt>
      <trkpt lat="43.304983377456665" lon="-1.3542687892913818">
        <ele>80.70946871213583</ele>
        <time>2021-08-05T16:18:47.530Z</time>
      </trkpt>
      <trkpt lat="43.30490827560425" lon="-1.354590654373169">
        <ele>81.29970771956359</ele>
        <time>2021-08-05T16:18:50.821Z</time>
      </trkpt>
      <trkpt lat="43.304500579833984" lon="-1.3559424877166748">
        <ele>81.65518120707344</ele>
        <time>2021-08-05T16:18:54.129Z</time>
      </trkpt>
      <trkpt lat="43.304468393325806" lon="-1.3560926914215088">
        <ele>82.18120081494119</ele>
        <time>2021-08-05T16:18:57.439Z</time>
      </trkpt>
      <trkpt lat="43.30443629063666" lon="-1.3565433025360107">
        <ele>82.82194233230118</ele>
        <time>2021-08-05T16:19:00.754Z</time>
      </trkpt>
      <trkpt lat="43.30443620681763" lon="-1.3568115234375">
        <ele>83.45890404011485</ele>
        <time>2021-08-05T16:19:04.072Z</time>
      </trkpt>
      <trkpt lat="43.304468393325806" lon="-1.3570904731750488">
        <ele>84.14622380733209</ele>
        <time>2021-08-05T16:19:07.394Z</time>
      </trkpt>
      <trkpt lat="43.30458641052246" lon="-1.3576483726501465">
        <ele>84.74991971692529</ele>
        <time>2021-08-05T16:19:10.722Z</time>
      </trkpt>
      <trkpt lat="43.304704427719116" lon="-1.3580453395843506">
        <ele>85.20773563421764</ele>
        <time>2021-08-05T16:19:14.055Z</time>
      </trkpt>
      <trkpt lat="43.30488681793213" lon="-1.358635425567627">
        <ele>85.54064415530772</ele>
        <time>2021-08-05T16:19:17.396Z</time>
      </trkpt>
      <trkpt lat="43.304972648620605" lon="-1.3588714599609375">
        <ele>85.69691514785512</ele>
        <time>2021-08-05T16:19:20.740Z</time>
      </trkpt>
      <trkpt lat="43.3051335811615" lon="-1.3592040538787842">
        <ele>85.86751030257483</ele>
        <time>2021-08-05T16:19:24.089Z</time>
      </trkpt>
      <trkpt lat="43.30531605519354" lon="-1.3594937324523926">
        <ele>86.16265191385354</ele>
        <time>2021-08-05T16:19:27.442Z</time>
      </trkpt>
      <trkpt lat="43.305509090423584" lon="-1.3597726821899414">
        <ele>86.29059549060355</ele>
        <time>2021-08-05T16:19:30.800Z</time>
      </trkpt>
      <trkpt lat="43.30567002296448" lon="-1.3599765300750732">
        <ele>86.53088972923985</ele>
        <time>2021-08-05T16:19:34.161Z</time>
      </trkpt>
      <trkpt lat="43.30584168434143" lon="-1.3601481914520264">
        <ele>86.7382265639887</ele>
        <time>2021-08-05T16:19:37.526Z</time>
      </trkpt>
      <trkpt lat="43.305970430374146" lon="-1.360255479812622">
        <ele>86.93627542453032</ele>
        <time>2021-08-05T16:19:40.893Z</time>
      </trkpt>
      <trkpt lat="43.30610990524292" lon="-1.3603413105010986">
        <ele>87.18586417503619</ele>
        <time>2021-08-05T16:19:44.262Z</time>
      </trkpt>
      <trkpt lat="43.306249380111694" lon="-1.360384225845337">
        <ele>87.47692209539744</ele>
        <time>2021-08-05T16:19:47.634Z</time>
      </trkpt>
      <trkpt lat="43.30634593963623" lon="-1.360405683517456">
        <ele>87.76314421078082</ele>
        <time>2021-08-05T16:19:51.007Z</time>
      </trkpt>
      <trkpt lat="43.306474685668945" lon="-1.3603949546813965">
        <ele>88.11695605689573</ele>
        <time>2021-08-05T16:19:54.382Z</time>
      </trkpt>
      <trkpt lat="43.30660351552069" lon="-1.3603627681732178">
        <ele>88.53321703898234</ele>
        <time>2021-08-05T16:19:57.759Z</time>
      </trkpt>
      <trkpt lat="43.30686092376709" lon="-1.3602232933044434">
        <ele>89.05606107638627</ele>
        <time>2021-08-05T16:20:01.141Z</time>
      </trkpt>
      <trkpt lat="43.30731153488159" lon="-1.3598263263702393">
        <ele>89.61380265936367</ele>
        <time>2021-08-05T16:20:04.531Z</time>
      </trkpt>
      <trkpt lat="43.3075475692749" lon="-1.3595795631408691">
        <ele>90.21735805275031</ele>
        <time>2021-08-05T16:20:07.926Z</time>
      </trkpt>
      <trkpt lat="43.30767631530762" lon="-1.359407901763916">
        <ele>90.85534410158797</ele>
        <time>2021-08-05T16:20:11.324Z</time>
      </trkpt>
      <trkpt lat="43.30779433250427" lon="-1.3592040538787842">
        <ele>91.55423831313259</ele>
        <time>2021-08-05T16:20:14.725Z</time>
      </trkpt>
      <trkpt lat="43.30790162086487" lon="-1.3589680194854736">
        <ele>92.33336070740275</ele>
        <time>2021-08-05T16:20:18.129Z</time>
      </trkpt>
      <trkpt lat="43.307998180389404" lon="-1.3586890697479248">
        <ele>93.07033790534017</ele>
        <time>2021-08-05T16:20:21.537Z</time>
      </trkpt>
      <trkpt lat="43.30814846791327" lon="-1.3581740856170654">
        <ele>94.12374068176474</ele>
        <time>2021-08-05T16:20:24.951Z</time>
      </trkpt>
      <trkpt lat="43.30881357192993" lon="-1.3557815551757812">
        <ele>94.30416052262397</ele>
        <time>2021-08-05T16:20:28.395Z</time>
      </trkpt>
      <trkpt lat="43.30881365574896" lon="-1.3557815551757812">
        <ele>95.13779049486206</ele>
        <time>2021-08-05T16:20:31.839Z</time>
      </trkpt>
      <trkpt lat="43.30912470817566" lon="-1.3547301292419434">
        <ele>96.43511693453758</ele>
        <time>2021-08-05T16:20:35.297Z</time>
      </trkpt>
      <trkpt lat="43.309264183044434" lon="-1.354365348815918">
        <ele>97.3275748579757</ele>
        <time>2021-08-05T16:20:38.759Z</time>
      </trkpt>
      <trkpt lat="43.30938220024109" lon="-1.3541507720947266">
        <ele>98.31019368764207</ele>
        <time>2021-08-05T16:20:42.225Z</time>
      </trkpt>
      <trkpt lat="43.3100688457489" lon="-1.352841854095459">
        <ele>99.63277894691909</ele>
        <time>2021-08-05T16:20:45.709Z</time>
      </trkpt>
      <trkpt lat="43.3101761341095" lon="-1.3527131080627441">
        <ele>100.60042091989325</ele>
        <time>2021-08-05T16:20:49.196Z</time>
      </trkpt>
      <trkpt lat="43.31042289733887" lon="-1.352466344833374">
        <ele>101.59150538755921</ele>
        <time>2021-08-05T16:20:52.688Z</time>
      </trkpt>
      <trkpt lat="43.3105731010437" lon="-1.3522839546203613">
        <ele>102.62460201393318</ele>
        <time>2021-08-05T16:20:56.183Z</time>
      </trkpt>
      <trkpt lat="43.3111310005188" lon="-1.3512325286865234">
        <ele>103.51215479832337</ele>
        <time>2021-08-05T16:20:59.693Z</time>
      </trkpt>
      <trkpt lat="43.311238288879395" lon="-1.3510608673095703">
        <ele>104.6148808854791</ele>
        <time>2021-08-05T16:21:03.206Z</time>
      </trkpt>
      <trkpt lat="43.31134557723999" lon="-1.350942850112915">
        <ele>105.72023237863093</ele>
        <time>2021-08-05T16:21:06.721Z</time>
      </trkpt>
      <trkpt lat="43.31143140792847" lon="-1.350867748260498">
        <ele>106.81724307885932</ele>
        <time>2021-08-05T16:21:10.237Z</time>
      </trkpt>
      <trkpt lat="43.31166744232178" lon="-1.3507819175720215">
        <ele>107.94376996630693</ele>
        <time>2021-08-05T16:21:13.757Z</time>
      </trkpt>
      <trkpt lat="43.31193566322327" lon="-1.3507497310638428">
        <ele>109.2684867375954</ele>
        <time>2021-08-05T16:21:17.282Z</time>
      </trkpt>
      <trkpt lat="43.31242918968201" lon="-1.350771188735962">
        <ele>110.8203398737678</ele>
        <time>2021-08-05T16:21:20.815Z</time>
      </trkpt>
      <trkpt lat="43.312740325927734" lon="-1.3507068157196045">
        <ele>112.12315969966669</ele>
        <time>2021-08-05T16:21:24.353Z</time>
      </trkpt>
      <trkpt lat="43.31289052963257" lon="-1.3506317138671875">
        <ele>112.9756060530521</ele>
        <time>2021-08-05T16:21:27.893Z</time>
      </trkpt>
      <trkpt lat="43.312997817993164" lon="-1.3505566120147705">
        <ele>113.7362321735902</ele>
        <time>2021-08-05T16:21:31.435Z</time>
      </trkpt>
      <trkpt lat="43.31337332725525" lon="-1.3502025604248047">
        <ele>114.13094014803941</ele>
        <time>2021-08-05T16:21:34.984Z</time>
      </trkpt>
      <trkpt lat="43.31337341107428" lon="-1.3502025604248047">
        <ele>114.77999387056224</ele>
        <time>2021-08-05T16:21:38.533Z</time>
      </trkpt>
      <trkpt lat="43.3135449886322" lon="-1.3501274585723877">
        <ele>115.3229504032278</ele>
        <time>2021-08-05T16:21:42.085Z</time>
      </trkpt>
      <trkpt lat="43.31377029418945" lon="-1.3501489162445068">
        <ele>115.93334108829872</ele>
        <time>2021-08-05T16:21:45.641Z</time>
      </trkpt>
      <trkpt lat="43.313963413238525" lon="-1.350245475769043">
        <ele>116.55730380700469</ele>
        <time>2021-08-05T16:21:49.200Z</time>
      </trkpt>
      <trkpt lat="43.31428527832031" lon="-1.3504815101623535">
        <ele>117.16433501788853</ele>
        <time>2021-08-05T16:21:52.765Z</time>
      </trkpt>
      <trkpt lat="43.314467668533325" lon="-1.3505351543426514">
        <ele>117.4391292003557</ele>
        <time>2021-08-05T16:21:56.333Z</time>
      </trkpt>
      <trkpt lat="43.31462868489325" lon="-1.3504600524902344">
        <ele>117.45712343547575</ele>
        <time>2021-08-05T16:21:59.904Z</time>
      </trkpt>
      <trkpt lat="43.31465005874634" lon="-1.350417137145996">
        <ele>117.59681543218787</ele>
        <time>2021-08-05T16:22:03.475Z</time>
      </trkpt>
      <trkpt lat="43.314725160598755" lon="-1.3503849506378174">
        <ele>117.65164567408775</ele>
        <time>2021-08-05T16:22:07.048Z</time>
      </trkpt>
      <trkpt lat="43.31481099128723" lon="-1.3504064083099365">
        <ele>117.70779717547933</ele>
        <time>2021-08-05T16:22:10.622Z</time>
      </trkpt>
      <trkpt lat="43.31483253277838" lon="-1.3504493236541748">
        <ele>117.83728998280182</ele>
        <time>2021-08-05T16:22:14.197Z</time>
      </trkpt>
      <trkpt lat="43.31486463546753" lon="-1.3505566120147705">
        <ele>117.99931253730108</ele>
        <time>2021-08-05T16:22:17.773Z</time>
      </trkpt>
      <trkpt lat="43.31502556800842" lon="-1.350771188735962">
        <ele>118.23392893588195</ele>
        <time>2021-08-05T16:22:21.352Z</time>
      </trkpt>
      <trkpt lat="43.31514358520508" lon="-1.350867748260498">
        <ele>118.33635481667915</ele>
        <time>2021-08-05T16:22:24.934Z</time>
      </trkpt>
      <trkpt lat="43.315272415056825" lon="-1.351017951965332">
        <ele>118.64635930355108</ele>
        <time>2021-08-05T16:22:28.518Z</time>
      </trkpt>
      <trkpt lat="43.315454721450806" lon="-1.3512969017028809">
        <ele>118.97339541041333</ele>
        <time>2021-08-05T16:22:32.107Z</time>
      </trkpt>
      <trkpt lat="43.3155083656311" lon="-1.3514149188995361">
        <ele>119.18277802159908</ele>
        <time>2021-08-05T16:22:35.697Z</time>
      </trkpt>
      <trkpt lat="43.31558346748352" lon="-1.351640224456787">
        <ele>119.50903415167781</ele>
        <time>2021-08-05T16:22:39.290Z</time>
      </trkpt>
      <trkpt lat="43.31562638282776" lon="-1.3518548011779785">
        <ele>119.9525252177163</ele>
        <time>2021-08-05T16:22:42.886Z</time>
      </trkpt>
      <trkpt lat="43.31564784049988" lon="-1.35231614112854">
        <ele>120.46422547274653</ele>
        <time>2021-08-05T16:22:46.487Z</time>
      </trkpt>
      <trkpt lat="43.31564792431891" lon="-1.35231614112854">
        <ele>120.98817251367433</ele>
        <time>2021-08-05T16:22:50.088Z</time>
      </trkpt>
      <trkpt lat="43.31565856933594" lon="-1.3525629043579102">
        <ele>121.66942849071583</ele>
        <time>2021-08-05T16:22:53.692Z</time>
      </trkpt>
      <trkpt lat="43.315701484680176" lon="-1.3529706001281738">
        <ele>122.43060507626657</ele>
        <time>2021-08-05T16:22:57.301Z</time>
      </trkpt>
      <trkpt lat="43.31589460372925" lon="-1.3537538051605225">
        <ele>122.91426350137115</ele>
        <time>2021-08-05T16:23:00.920Z</time>
      </trkpt>
      <trkpt lat="43.315937519073486" lon="-1.3540220260620117">
        <ele>123.68020584738434</ele>
        <time>2021-08-05T16:23:04.542Z</time>
      </trkpt>
      <trkpt lat="43.315969705581665" lon="-1.354290246963501">
        <ele>124.64027958541968</ele>
        <time>2021-08-05T16:23:08.167Z</time>
      </trkpt>
      <trkpt lat="43.315991163253784" lon="-1.3550519943237305">
        <ele>125.89751353943939</ele>
        <time>2021-08-05T16:23:11.801Z</time>
      </trkpt>
      <trkpt lat="43.3160662651062" lon="-1.3555240631103516">
        <ele>127.106763963812</ele>
        <time>2021-08-05T16:23:15.441Z</time>
      </trkpt>
      <trkpt lat="43.31616282463074" lon="-1.355835199356079">
        <ele>128.29931737286108</ele>
        <time>2021-08-05T16:23:19.085Z</time>
      </trkpt>
      <trkpt lat="43.316227197647095" lon="-1.3560068607330322">
        <ele>129.5263089972146</ele>
        <time>2021-08-05T16:23:22.731Z</time>
      </trkpt>
      <trkpt lat="43.31635594367981" lon="-1.3563072681427002">
        <ele>130.74806748029147</ele>
        <time>2021-08-05T16:23:26.381Z</time>
      </trkpt>
      <trkpt lat="43.31664562225342" lon="-1.3568007946014404">
        <ele>131.86151546068746</ele>
        <time>2021-08-05T16:23:30.038Z</time>
      </trkpt>
      <trkpt lat="43.316763723269105" lon="-1.3570261001586914">
        <ele>133.08808638285262</ele>
        <time>2021-08-05T16:23:33.698Z</time>
      </trkpt>
      <trkpt lat="43.31727862358093" lon="-1.3579916954040527">
        <ele>134.41308512936737</ele>
        <time>2021-08-05T16:23:37.372Z</time>
      </trkpt>
      <trkpt lat="43.31755757331848" lon="-1.358656883239746">
        <ele>135.68601376007354</ele>
        <time>2021-08-05T16:23:41.055Z</time>
      </trkpt>
      <trkpt lat="43.31767559051514" lon="-1.3589894771575928">
        <ele>136.91253772664285</ele>
        <time>2021-08-05T16:23:44.743Z</time>
      </trkpt>
      <trkpt lat="43.31767567433417" lon="-1.3589894771575928">
        <ele>138.09599436011462</ele>
        <time>2021-08-05T16:23:48.431Z</time>
      </trkpt>
      <trkpt lat="43.31779360771179" lon="-1.3593649864196777">
        <ele>139.32997350061783</ele>
        <time>2021-08-05T16:23:52.123Z</time>
      </trkpt>
      <trkpt lat="43.317943811416626" lon="-1.3597297668457031">
        <ele>140.49189274412265</ele>
        <time>2021-08-05T16:23:55.820Z</time>
      </trkpt>
      <trkpt lat="43.31859835423529" lon="-1.3609635829925537">
        <ele>141.7221134961028</ele>
        <time>2021-08-05T16:23:59.535Z</time>
      </trkpt>
      <trkpt lat="43.318791473284364" lon="-1.3614141941070557">
        <ele>142.58867195392622</ele>
        <time>2021-08-05T16:24:03.256Z</time>
      </trkpt>
      <trkpt lat="43.31885584630072" lon="-1.3615643978118896">
        <ele>143.18796148327692</ele>
        <time>2021-08-05T16:24:06.979Z</time>
      </trkpt>
      <trkpt lat="43.319467306137085" lon="-1.3631844520568848">
        <ele>144.09437281150687</ele>
        <time>2021-08-05T16:24:10.724Z</time>
      </trkpt>
      <trkpt lat="43.3195424079895" lon="-1.3634097576141357">
        <ele>144.2526296546552</ele>
        <time>2021-08-05T16:24:14.472Z</time>
      </trkpt>
      <trkpt lat="43.31967115402222" lon="-1.3639354705810547">
        <ele>144.05692115490382</ele>
        <time>2021-08-05T16:24:18.226Z</time>
      </trkpt>
      <trkpt lat="43.31984281539917" lon="-1.3650083541870117">
        <ele>143.33123571629415</ele>
        <time>2021-08-05T16:24:21.993Z</time>
      </trkpt>
      <trkpt lat="43.31992864608765" lon="-1.3656842708587646">
        <ele>142.32738702382483</ele>
        <time>2021-08-05T16:24:25.768Z</time>
      </trkpt>
      <trkpt lat="43.319960832595825" lon="-1.36604905128479">
        <ele>141.18339878131732</ele>
        <time>2021-08-05T16:24:29.547Z</time>
      </trkpt>
      <trkpt lat="43.31993945874274" lon="-1.3665854930877686">
        <ele>139.7438602358107</ele>
        <time>2021-08-05T16:24:33.332Z</time>
      </trkpt>
      <trkpt lat="43.3198965433985" lon="-1.367250680923462">
        <ele>138.16201658340952</ele>
        <time>2021-08-05T16:24:37.125Z</time>
      </trkpt>
      <trkpt lat="43.31989645957947" lon="-1.3677763938903809">
        <ele>136.20033502520886</ele>
        <time>2021-08-05T16:24:40.924Z</time>
      </trkpt>
      <trkpt lat="43.319939374923706" lon="-1.368173360824585">
        <ele>134.06023582672955</ele>
        <time>2021-08-05T16:24:44.728Z</time>
      </trkpt>
      <trkpt lat="43.320293510332704" lon="-1.3697290420532227">
        <ele>131.59959575331615</ele>
        <time>2021-08-05T16:24:48.551Z</time>
      </trkpt>
      <trkpt lat="43.32035779953003" lon="-1.3699328899383545">
        <ele>128.96848114325104</ele>
        <time>2021-08-05T16:24:52.377Z</time>
      </trkpt>
      <trkpt lat="43.32062602043152" lon="-1.3706517219543457">
        <ele>125.85057351768567</ele>
        <time>2021-08-05T16:24:56.212Z</time>
      </trkpt>
      <trkpt lat="43.32090497016907" lon="-1.37154221534729">
        <ele>122.59580594447577</ele>
        <time>2021-08-05T16:25:00.058Z</time>
      </trkpt>
      <trkpt lat="43.32109808921814" lon="-1.3719499111175537">
        <ele>119.32112652053894</ele>
        <time>2021-08-05T16:25:03.910Z</time>
      </trkpt>
      <trkpt lat="43.321688175201416" lon="-1.3730120658874512">
        <ele>115.47652989061228</ele>
        <time>2021-08-05T16:25:07.778Z</time>
      </trkpt>
      <trkpt lat="43.32168825902045" lon="-1.3730120658874512">
        <ele>112.22455581937544</ele>
        <time>2021-08-05T16:25:11.646Z</time>
      </trkpt>
      <trkpt lat="43.32180619239807" lon="-1.3732802867889404">
        <ele>108.80550753183678</ele>
        <time>2021-08-05T16:25:15.517Z</time>
      </trkpt>
      <trkpt lat="43.3223105315119" lon="-1.3746321201324463">
        <ele>105.13130956594279</ele>
        <time>2021-08-05T16:25:19.406Z</time>
      </trkpt>
      <trkpt lat="43.32266449928284" lon="-1.3754689693450928">
        <ele>101.32068179027104</ele>
        <time>2021-08-05T16:25:23.306Z</time>
      </trkpt>
      <trkpt lat="43.32281470298767" lon="-1.3757801055908203">
        <ele>98.01110960332332</ele>
        <time>2021-08-05T16:25:27.211Z</time>
      </trkpt>
      <trkpt lat="43.32290053367615" lon="-1.3759303092956543">
        <ele>94.7633596030224</ele>
        <time>2021-08-05T16:25:31.118Z</time>
      </trkpt>
      <trkpt lat="43.32328677177429" lon="-1.3765203952789307">
        <ele>91.32618148324185</ele>
        <time>2021-08-05T16:25:35.034Z</time>
      </trkpt>
      <trkpt lat="43.323458433151245" lon="-1.3768208026885986">
        <ele>88.00851981439658</ele>
        <time>2021-08-05T16:25:38.955Z</time>
      </trkpt>
      <trkpt lat="43.32365155220032" lon="-1.3773787021636963">
        <ele>84.84293280225992</ele>
        <time>2021-08-05T16:25:42.883Z</time>
      </trkpt>
      <trkpt lat="43.32385548390448" lon="-1.3780546188354492">
        <ele>81.82602389232058</ele>
        <time>2021-08-05T16:25:46.819Z</time>
      </trkpt>
      <trkpt lat="43.32406997680664" lon="-1.3788378238677979">
        <ele>78.67250250920594</ele>
        <time>2021-08-05T16:25:50.765Z</time>
      </trkpt>
      <trkpt lat="43.32407006062567" lon="-1.3788378238677979">
        <ele>75.69745966938409</ele>
        <time>2021-08-05T16:25:54.711Z</time>
      </trkpt>
      <trkpt lat="43.324220180511475" lon="-1.3793528079986572">
        <ele>72.65053289938135</ele>
        <time>2021-08-05T16:25:58.664Z</time>
      </trkpt>
      <trkpt lat="43.32449913024902" lon="-1.3805115222930908">
        <ele>69.74640872160859</ele>
        <time>2021-08-05T16:26:02.631Z</time>
      </trkpt>
      <trkpt lat="43.32505702972412" lon="-1.382056474685669">
        <ele>66.58563549323574</ele>
        <time>2021-08-05T16:26:06.618Z</time>
      </trkpt>
      <trkpt lat="43.32532525062561" lon="-1.3827109336853027">
        <ele>63.809569135648196</ele>
        <time>2021-08-05T16:26:10.614Z</time>
      </trkpt>
      <trkpt lat="43.32624793052673" lon="-1.3844597339630127">
        <ele>61.222921682468986</ele>
        <time>2021-08-05T16:26:14.635Z</time>
      </trkpt>
      <trkpt lat="43.3266019821167" lon="-1.3850927352905273">
        <ele>58.72345211400388</ele>
        <time>2021-08-05T16:26:18.665Z</time>
      </trkpt>
      <trkpt lat="43.32678437232971" lon="-1.3853931427001953">
        <ele>56.331402131244715</ele>
        <time>2021-08-05T16:26:22.700Z</time>
      </trkpt>
      <trkpt lat="43.32738518714905" lon="-1.3862407207489014">
        <ele>53.99375590692466</ele>
        <time>2021-08-05T16:26:26.749Z</time>
      </trkpt>
      <trkpt lat="43.32756766118109" lon="-1.3865196704864502">
        <ele>51.87412281474535</ele>
        <time>2021-08-05T16:26:30.802Z</time>
      </trkpt>
      <trkpt lat="43.327771509066224" lon="-1.3868844509124756">
        <ele>50.153561002056165</ele>
        <time>2021-08-05T16:26:34.860Z</time>
      </trkpt>
      <trkpt lat="43.32803964614868" lon="-1.3874316215515137">
        <ele>48.46759580553879</ele>
        <time>2021-08-05T16:26:38.926Z</time>
      </trkpt>
      <trkpt lat="43.328179121017456" lon="-1.3877856731414795">
        <ele>46.944770972868184</ele>
        <time>2021-08-05T16:26:42.997Z</time>
      </trkpt>
      <trkpt lat="43.328447341918945" lon="-1.388547420501709">
        <ele>45.064821643066004</ele>
        <time>2021-08-05T16:26:47.078Z</time>
      </trkpt>
      <trkpt lat="43.328769290819764" lon="-1.3896310329437256">
        <ele>43.95402686176551</ele>
        <time>2021-08-05T16:26:51.172Z</time>
      </trkpt>
      <trkpt lat="43.32890876568854" lon="-1.390070915222168">
        <ele>43.31412363048649</ele>
        <time>2021-08-05T16:26:55.272Z</time>
      </trkpt>
      <trkpt lat="43.329230630770326" lon="-1.3911330699920654">
        <ele>42.5339139334216</ele>
        <time>2021-08-05T16:26:59.385Z</time>
      </trkpt>
      <trkpt lat="43.32959532737732" lon="-1.3923239707946777">
        <ele>42.28618519984507</ele>
        <time>2021-08-05T16:27:03.513Z</time>
      </trkpt>
      <trkpt lat="43.32959541119635" lon="-1.3923239707946777">
        <ele>42.35680800753393</ele>
        <time>2021-08-05T16:27:07.641Z</time>
      </trkpt>
      <trkpt lat="43.33086133003235" lon="-1.3964545726776123">
        <ele>43.45282339672491</ele>
        <time>2021-08-05T16:27:11.822Z</time>
      </trkpt>
      <trkpt lat="43.33086141385138" lon="-1.3964545726776123">
        <ele>43.985635579675474</ele>
        <time>2021-08-05T16:27:16.003Z</time>
      </trkpt>
      <trkpt lat="43.33095797337592" lon="-1.3967335224151611">
        <ele>44.66460955538449</ele>
        <time>2021-08-05T16:27:20.187Z</time>
      </trkpt>
      <trkpt lat="43.33120473660529" lon="-1.3975059986114502">
        <ele>45.69555792318231</ele>
        <time>2021-08-05T16:27:24.381Z</time>
      </trkpt>
      <trkpt lat="43.33126902580261" lon="-1.3976776599884033">
        <ele>46.81946609566852</ele>
        <time>2021-08-05T16:27:28.578Z</time>
      </trkpt>
      <trkpt lat="43.331269109621644" lon="-1.3976776599884033">
        <ele>48.04813462186352</ele>
        <time>2021-08-05T16:27:32.775Z</time>
      </trkpt>
      <trkpt lat="43.33186992444098" lon="-1.3992011547088623">
        <ele>49.80945433378369</ele>
        <time>2021-08-05T16:27:36.992Z</time>
      </trkpt>
      <trkpt lat="43.332223976030946" lon="-1.399930715560913">
        <ele>51.628225798271245</ele>
        <time>2021-08-05T16:27:41.219Z</time>
      </trkpt>
      <trkpt lat="43.33228826522827" lon="-1.4000380039215088">
        <ele>53.23444164197569</ele>
        <time>2021-08-05T16:27:45.448Z</time>
      </trkpt>
      <trkpt lat="43.332191705703735" lon="-1.4001667499542236">
        <ele>54.78463201423054</ele>
        <time>2021-08-05T16:27:49.679Z</time>
      </trkpt>
      <trkpt lat="43.33211668767035" lon="-1.4001882076263428">
        <ele>56.33744661885227</ele>
        <time>2021-08-05T16:27:53.911Z</time>
      </trkpt>
      <trkpt lat="43.33203077316284" lon="-1.4001131057739258">
        <ele>57.8618046924218</ele>
        <time>2021-08-05T16:27:58.145Z</time>
      </trkpt>
      <trkpt lat="43.33200931549072" lon="-1.400156021118164">
        <ele>59.491827202449386</ele>
        <time>2021-08-05T16:28:02.379Z</time>
      </trkpt>
      <trkpt lat="43.33199858665466" lon="-1.4002203941345215">
        <ele>61.13840014427831</ele>
        <time>2021-08-05T16:28:06.614Z</time>
      </trkpt>
      <trkpt lat="43.331998670473695" lon="-1.400434970855713">
        <ele>62.846558712220926</ele>
        <time>2021-08-05T16:28:10.851Z</time>
      </trkpt>
      <trkpt lat="43.3320415019989" lon="-1.4008212089538574">
        <ele>64.50615156873586</ele>
        <time>2021-08-05T16:28:15.093Z</time>
      </trkpt>
      <trkpt lat="43.33211668767035" lon="-1.4011430740356445">
        <ele>66.14726777787594</ele>
        <time>2021-08-05T16:28:19.339Z</time>
      </trkpt>
      <trkpt lat="43.33213806152344" lon="-1.401282548904419">
        <ele>67.76304543717472</ele>
        <time>2021-08-05T16:28:23.587Z</time>
      </trkpt>
      <trkpt lat="43.33213814534247" lon="-1.401282548904419">
        <ele>69.25155346402045</ele>
        <time>2021-08-05T16:28:27.835Z</time>
      </trkpt>
      <trkpt lat="43.33213806152344" lon="-1.4014220237731934">
        <ele>70.76910164586036</ele>
        <time>2021-08-05T16:28:32.084Z</time>
      </trkpt>
      <trkpt lat="43.3320951461792" lon="-1.401808261871338">
        <ele>72.26798339904633</ele>
        <time>2021-08-05T16:28:36.338Z</time>
      </trkpt>
      <trkpt lat="43.33208441734314" lon="-1.4024198055267334">
        <ele>73.83562463544195</ele>
        <time>2021-08-05T16:28:40.599Z</time>
      </trkpt>
      <trkpt lat="43.33210587501526" lon="-1.4026880264282227">
        <ele>75.20071361618199</ele>
        <time>2021-08-05T16:28:44.863Z</time>
      </trkpt>
      <trkpt lat="43.33229899406433" lon="-1.4034712314605713">
        <ele>76.56615329678445</ele>
        <time>2021-08-05T16:28:49.137Z</time>
      </trkpt>
      <trkpt lat="43.33234190940857" lon="-1.4037823677062988">
        <ele>77.61662982602343</ele>
        <time>2021-08-05T16:28:53.415Z</time>
      </trkpt>
      <trkpt lat="43.33234190940857" lon="-1.404029130935669">
        <ele>78.59460822186774</ele>
        <time>2021-08-05T16:28:57.695Z</time>
      </trkpt>
      <trkpt lat="43.33232053555548" lon="-1.4048874378204346">
        <ele>79.45430929521808</ele>
        <time>2021-08-05T16:29:01.985Z</time>
      </trkpt>
      <trkpt lat="43.33233118057251" lon="-1.4051127433776855">
        <ele>80.36027510009704</ele>
        <time>2021-08-05T16:29:06.278Z</time>
      </trkpt>
      <trkpt lat="43.33238490857184" lon="-1.4054346084594727">
        <ele>81.22203210538494</ele>
        <time>2021-08-05T16:29:10.575Z</time>
      </trkpt>
      <trkpt lat="43.332417011260986" lon="-1.4057564735412598">
        <ele>82.03132917502012</ele>
        <time>2021-08-05T16:29:14.876Z</time>
      </trkpt>
      <trkpt lat="43.332460010424256" lon="-1.4064431190490723">
        <ele>82.77246094685981</ele>
        <time>2021-08-05T16:29:19.185Z</time>
      </trkpt>
      <trkpt lat="43.3324921131134" lon="-1.4068830013275146">
        <ele>83.47171828896278</ele>
        <time>2021-08-05T16:29:23.499Z</time>
      </trkpt>
      <trkpt lat="43.33254584111273" lon="-1.4073443412780762">
        <ele>84.10539562776097</ele>
        <time>2021-08-05T16:29:27.818Z</time>
      </trkpt>
      <trkpt lat="43.33256729878485" lon="-1.4074945449829102">
        <ele>84.72909335875363</ele>
        <time>2021-08-05T16:29:32.139Z</time>
      </trkpt>
      <trkpt lat="43.33262085914612" lon="-1.407945156097412">
        <ele>85.39598574576792</ele>
        <time>2021-08-05T16:29:36.465Z</time>
      </trkpt>
      <trkpt lat="43.33267458714545" lon="-1.4081597328186035">
        <ele>85.97332042526006</ele>
        <time>2021-08-05T16:29:40.794Z</time>
      </trkpt>
      <trkpt lat="43.33274960517883" lon="-1.4084064960479736">
        <ele>86.53689108733279</ele>
        <time>2021-08-05T16:29:45.126Z</time>
      </trkpt>
      <trkpt lat="43.33277106285095" lon="-1.4085674285888672">
        <ele>87.0615020072266</ele>
        <time>2021-08-05T16:29:49.460Z</time>
      </trkpt>
      <trkpt lat="43.33276033401489" lon="-1.4087176322937012">
        <ele>87.56533440659186</ele>
        <time>2021-08-05T16:29:53.796Z</time>
      </trkpt>
      <trkpt lat="43.33264231681824" lon="-1.4093077182769775">
        <ele>88.12389457982762</ele>
        <time>2021-08-05T16:29:58.139Z</time>
      </trkpt>
      <trkpt lat="43.33263158798218" lon="-1.4096081256866455">
        <ele>88.55616548634018</ele>
        <time>2021-08-05T16:30:02.486Z</time>
      </trkpt>
      <trkpt lat="43.33265312947333" lon="-1.4103591442108154">
        <ele>89.07219016285285</ele>
        <time>2021-08-05T16:30:06.841Z</time>
      </trkpt>
      <trkpt lat="43.332663774490356" lon="-1.410895586013794">
        <ele>89.53148781776187</ele>
        <time>2021-08-05T16:30:11.203Z</time>
      </trkpt>
      <trkpt lat="43.332695960998535" lon="-1.4113354682922363">
        <ele>89.92810985454389</ele>
        <time>2021-08-05T16:30:15.570Z</time>
      </trkpt>
      <trkpt lat="43.33276033401489" lon="-1.4119255542755127">
        <ele>90.29414244447258</ele>
        <time>2021-08-05T16:30:19.944Z</time>
      </trkpt>
      <trkpt lat="43.33281397819519" lon="-1.412515640258789">
        <ele>90.58600721354728</ele>
        <time>2021-08-05T16:30:24.325Z</time>
      </trkpt>
      <trkpt lat="43.33273887634277" lon="-1.4127731323242188">
        <ele>90.81343524554151</ele>
        <time>2021-08-05T16:30:28.709Z</time>
      </trkpt>
      <trkpt lat="43.33238482475281" lon="-1.413266658782959">
        <ele>90.8500737559045</ele>
        <time>2021-08-05T16:30:33.101Z</time>
      </trkpt>
      <trkpt lat="43.33230972290039" lon="-1.41349196434021">
        <ele>91.10845802792946</ele>
        <time>2021-08-05T16:30:37.496Z</time>
      </trkpt>
      <trkpt lat="43.3322883490473" lon="-1.4135992527008057">
        <ele>91.3715053965592</ele>
        <time>2021-08-05T16:30:41.892Z</time>
      </trkpt>
      <trkpt lat="43.33226680755615" lon="-1.4137601852416992">
        <ele>91.63045995174528</ele>
        <time>2021-08-05T16:30:46.290Z</time>
      </trkpt>
      <trkpt lat="43.332213247194886" lon="-1.4146292209625244">
        <ele>92.01433456666038</ele>
        <time>2021-08-05T16:30:50.698Z</time>
      </trkpt>
      <trkpt lat="43.332191705703735" lon="-1.4150798320770264">
        <ele>92.47894649639946</ele>
        <time>2021-08-05T16:30:55.112Z</time>
      </trkpt>
      <trkpt lat="43.3320415019989" lon="-1.4159917831420898">
        <ele>93.09004609067216</ele>
        <time>2021-08-05T16:30:59.537Z</time>
      </trkpt>
      <trkpt lat="43.331966400146484" lon="-1.4168071746826172">
        <ele>93.62849572802975</ele>
        <time>2021-08-05T16:31:03.971Z</time>
      </trkpt>
      <trkpt lat="43.332020128145814" lon="-1.4169895648956299">
        <ele>94.04913736113667</ele>
        <time>2021-08-05T16:31:08.407Z</time>
      </trkpt>
      <trkpt lat="43.33210595883429" lon="-1.4171719551086426">
        <ele>94.4587020349465</ele>
        <time>2021-08-05T16:31:12.846Z</time>
      </trkpt>
      <trkpt lat="43.332191705703735" lon="-1.417311429977417">
        <ele>94.8454128596421</ele>
        <time>2021-08-05T16:31:17.287Z</time>
      </trkpt>
      <trkpt lat="43.3326530456543" lon="-1.4177298545837402">
        <ele>95.23118219731023</ele>
        <time>2021-08-05T16:31:21.737Z</time>
      </trkpt>
      <trkpt lat="43.332728147506714" lon="-1.4179444313049316">
        <ele>95.58700770735581</ele>
        <time>2021-08-05T16:31:26.190Z</time>
      </trkpt>
      <trkpt lat="43.33276033401489" lon="-1.4182448387145996">
        <ele>95.98335750333341</ele>
        <time>2021-08-05T16:31:30.646Z</time>
      </trkpt>
      <trkpt lat="43.33273887634277" lon="-1.4186739921569824">
        <ele>96.39103769847519</ele>
        <time>2021-08-05T16:31:35.107Z</time>
      </trkpt>
      <trkpt lat="43.332695960998535" lon="-1.4189958572387695">
        <ele>96.75460180654213</ele>
        <time>2021-08-05T16:31:39.572Z</time>
      </trkpt>
      <trkpt lat="43.33257794380188" lon="-1.4194142818450928">
        <ele>96.99650762173482</ele>
        <time>2021-08-05T16:31:44.042Z</time>
      </trkpt>
      <trkpt lat="43.33163380622864" lon="-1.4210236072540283">
        <ele>96.78690422542347</ele>
        <time>2021-08-05T16:31:48.536Z</time>
      </trkpt>
      <trkpt lat="43.33155870437622" lon="-1.4212274551391602">
        <ele>97.03907753005173</ele>
        <time>2021-08-05T16:31:53.033Z</time>
      </trkpt>
      <trkpt lat="43.331483602523804" lon="-1.421506404876709">
        <ele>97.30869563047759</ele>
        <time>2021-08-05T16:31:57.534Z</time>
      </trkpt>
      <trkpt lat="43.331451416015625" lon="-1.421806812286377">
        <ele>97.55565294061003</ele>
        <time>2021-08-05T16:32:02.038Z</time>
      </trkpt>
      <trkpt lat="43.331462144851685" lon="-1.4224827289581299">
        <ele>98.04689301552955</ele>
        <time>2021-08-05T16:32:06.550Z</time>
      </trkpt>
      <trkpt lat="43.33137631416321" lon="-1.4231479167938232">
        <ele>98.39647233772965</ele>
        <time>2021-08-05T16:32:11.070Z</time>
      </trkpt>
      <trkpt lat="43.33137631416321" lon="-1.424649953842163">
        <ele>98.70434643002929</ele>
        <time>2021-08-05T16:32:15.607Z</time>
      </trkpt>
      <trkpt lat="43.33135494031012" lon="-1.4247894287109375">
        <ele>98.94208974214425</ele>
        <time>2021-08-05T16:32:20.146Z</time>
      </trkpt>
      <trkpt lat="43.33131194114685" lon="-1.424928903579712">
        <ele>99.2009638050124</ele>
        <time>2021-08-05T16:32:24.687Z</time>
      </trkpt>
      <trkpt lat="43.33106517791748" lon="-1.4254117012023926">
        <ele>99.38067988429384</ele>
        <time>2021-08-05T16:32:29.235Z</time>
      </trkpt>
      <trkpt lat="43.33101153373718" lon="-1.4255726337432861">
        <ele>99.67279947986347</ele>
        <time>2021-08-05T16:32:33.785Z</time>
      </trkpt>
      <trkpt lat="43.330947160720825" lon="-1.4258944988250732">
        <ele>100.13230058696551</ele>
        <time>2021-08-05T16:32:38.339Z</time>
      </trkpt>
      <trkpt lat="43.33090424537659" lon="-1.426302194595337">
        <ele>100.73305201095815</ele>
        <time>2021-08-05T16:32:42.898Z</time>
      </trkpt>
      <trkpt lat="43.33090432919562" lon="-1.426302194595337">
        <ele>101.0940269850038</ele>
        <time>2021-08-05T16:32:47.457Z</time>
      </trkpt>
      <trkpt lat="43.33076477050781" lon="-1.4266884326934814">
        <ele>101.56451986468032</ele>
        <time>2021-08-05T16:32:52.021Z</time>
      </trkpt>
      <trkpt lat="43.33062537945807" lon="-1.4269137382507324">
        <ele>101.95677331027545</ele>
        <time>2021-08-05T16:32:56.588Z</time>
      </trkpt>
      <trkpt lat="43.33057165145874" lon="-1.426999568939209">
        <ele>102.38443657823699</ele>
        <time>2021-08-05T16:33:01.156Z</time>
      </trkpt>
      <trkpt lat="43.330475091934204" lon="-1.4270961284637451">
        <ele>102.80921950921055</ele>
        <time>2021-08-05T16:33:05.726Z</time>
      </trkpt>
      <trkpt lat="43.330271327868104" lon="-1.4272034168243408">
        <ele>103.17423003313246</ele>
        <time>2021-08-05T16:33:10.300Z</time>
      </trkpt>
      <trkpt lat="43.33005666732788" lon="-1.4273321628570557">
        <ele>103.66949323594301</ele>
        <time>2021-08-05T16:33:14.877Z</time>
      </trkpt>
      <trkpt lat="43.329949378967285" lon="-1.4274179935455322">
        <ele>104.2868050823943</ele>
        <time>2021-08-05T16:33:19.456Z</time>
      </trkpt>
      <trkpt lat="43.32986354827881" lon="-1.4275681972503662">
        <ele>104.9621860054886</ele>
        <time>2021-08-05T16:33:24.038Z</time>
      </trkpt>
      <trkpt lat="43.3295738697052" lon="-1.4282011985778809">
        <ele>105.88636095632566</ele>
        <time>2021-08-05T16:33:28.628Z</time>
      </trkpt>
      <trkpt lat="43.329445123672485" lon="-1.428447961807251">
        <ele>106.72037590553636</ele>
        <time>2021-08-05T16:33:33.222Z</time>
      </trkpt>
      <trkpt lat="43.32928419113159" lon="-1.4287376403808594">
        <ele>107.62375892020495</ele>
        <time>2021-08-05T16:33:37.820Z</time>
      </trkpt>
      <trkpt lat="43.32903742790222" lon="-1.4290916919708252">
        <ele>108.59918981626996</ele>
        <time>2021-08-05T16:33:42.424Z</time>
      </trkpt>
      <trkpt lat="43.328973054885864" lon="-1.4292097091674805">
        <ele>109.56629802298548</ele>
        <time>2021-08-05T16:33:47.030Z</time>
      </trkpt>
      <trkpt lat="43.328930139541626" lon="-1.4294135570526123">
        <ele>110.60714086505311</ele>
        <time>2021-08-05T16:33:51.638Z</time>
      </trkpt>
      <trkpt lat="43.32894095219672" lon="-1.4300572872161865">
        <ele>111.82811339854882</ele>
        <time>2021-08-05T16:33:56.254Z</time>
      </trkpt>
      <trkpt lat="43.328983783721924" lon="-1.430422067642212">
        <ele>113.0469311577057</ele>
        <time>2021-08-05T16:34:00.874Z</time>
      </trkpt>
      <trkpt lat="43.328983867540956" lon="-1.430422067642212">
        <ele>114.21201586256676</ele>
        <time>2021-08-05T16:34:05.494Z</time>
      </trkpt>
      <trkpt lat="43.32900524139404" lon="-1.4305615425109863">
        <ele>115.44650491058368</ele>
        <time>2021-08-05T16:34:10.116Z</time>
      </trkpt>
      <trkpt lat="43.32900524139404" lon="-1.4307332038879395">
        <ele>116.69919224755537</ele>
        <time>2021-08-05T16:34:14.740Z</time>
      </trkpt>
      <trkpt lat="43.32889795303345" lon="-1.4309477806091309">
        <ele>117.92917163851854</ele>
        <time>2021-08-05T16:34:19.367Z</time>
      </trkpt>
      <trkpt lat="43.328715562820435" lon="-1.4312052726745605">
        <ele>119.14505099712429</ele>
        <time>2021-08-05T16:34:23.998Z</time>
      </trkpt>
      <trkpt lat="43.3285117149353" lon="-1.4316344261169434">
        <ele>120.41025709571255</ele>
        <time>2021-08-05T16:34:28.635Z</time>
      </trkpt>
      <trkpt lat="43.32839369773865" lon="-1.432020664215088">
        <ele>121.75528032128241</ele>
        <time>2021-08-05T16:34:33.277Z</time>
      </trkpt>
      <trkpt lat="43.328222036361694" lon="-1.433318853378296">
        <ele>123.0514178770982</ele>
        <time>2021-08-05T16:34:37.934Z</time>
      </trkpt>
      <trkpt lat="43.32808256149292" lon="-1.434091329574585">
        <ele>124.39893273176898</ele>
        <time>2021-08-05T16:34:42.600Z</time>
      </trkpt>
      <trkpt lat="43.3280611038208" lon="-1.434413194656372">
        <ele>125.55125003340788</ele>
        <time>2021-08-05T16:34:47.270Z</time>
      </trkpt>
      <trkpt lat="43.32809329032898" lon="-1.4346814155578613">
        <ele>126.5751006882623</ele>
        <time>2021-08-05T16:34:51.943Z</time>
      </trkpt>
      <trkpt lat="43.32826495170593" lon="-1.4354002475738525">
        <ele>127.7550957562452</ele>
        <time>2021-08-05T16:34:56.625Z</time>
      </trkpt>
      <trkpt lat="43.32827568054199" lon="-1.4357221126556396">
        <ele>128.64254125486227</ele>
        <time>2021-08-05T16:35:01.311Z</time>
      </trkpt>
      <trkpt lat="43.32824349403381" lon="-1.4359581470489502">
        <ele>129.35869136989209</ele>
        <time>2021-08-05T16:35:06.000Z</time>
      </trkpt>
      <trkpt lat="43.3281683921814" lon="-1.436086893081665">
        <ele>129.86725619358867</ele>
        <time>2021-08-05T16:35:10.691Z</time>
      </trkpt>
      <trkpt lat="43.327728509902954" lon="-1.4364516735076904">
        <ele>130.26570928469397</ele>
        <time>2021-08-05T16:35:15.390Z</time>
      </trkpt>
      <trkpt lat="43.32738518714905" lon="-1.4368164539337158">
        <ele>130.3308200035868</ele>
        <time>2021-08-05T16:35:20.096Z</time>
      </trkpt>
      <trkpt lat="43.32733154296875" lon="-1.4368700981140137">
        <ele>130.25530264074823</ele>
        <time>2021-08-05T16:35:24.803Z</time>
      </trkpt>
      <trkpt lat="43.327181339263916" lon="-1.4370524883270264">
        <ele>129.98703017799497</ele>
        <time>2021-08-05T16:35:29.513Z</time>
      </trkpt>
      <trkpt lat="43.32709550857544" lon="-1.4372026920318604">
        <ele>129.56489354372013</ele>
        <time>2021-08-05T16:35:34.225Z</time>
      </trkpt>
      <trkpt lat="43.326977491378784" lon="-1.4376425743103027">
        <ele>128.83382679754772</ele>
        <time>2021-08-05T16:35:38.943Z</time>
      </trkpt>
      <trkpt lat="43.32684874534607" lon="-1.4379215240478516">
        <ele>127.96003104113294</ele>
        <time>2021-08-05T16:35:43.665Z</time>
      </trkpt>
      <trkpt lat="43.326677083969116" lon="-1.438157558441162">
        <ele>126.97705995500539</ele>
        <time>2021-08-05T16:35:48.391Z</time>
      </trkpt>
      <trkpt lat="43.32601189613342" lon="-1.4387261867523193">
        <ele>125.63352359362442</ele>
        <time>2021-08-05T16:35:53.129Z</time>
      </trkpt>
      <trkpt lat="43.32580804824829" lon="-1.438983678817749">
        <ele>124.65675975136851</ele>
        <time>2021-08-05T16:35:57.872Z</time>
      </trkpt>
      <trkpt lat="43.325732946395874" lon="-1.4391553401947021">
        <ele>123.62410116890375</ele>
        <time>2021-08-05T16:36:02.617Z</time>
      </trkpt>
      <trkpt lat="43.32566857337952" lon="-1.4393806457519531">
        <ele>122.51197859089802</ele>
        <time>2021-08-05T16:36:07.365Z</time>
      </trkpt>
      <trkpt lat="43.32551836967468" lon="-1.44020676612854">
        <ele>121.16674992854746</ele>
        <time>2021-08-05T16:36:12.123Z</time>
      </trkpt>
      <trkpt lat="43.32541108131409" lon="-1.4410221576690674">
        <ele>119.50297764203466</ele>
        <time>2021-08-05T16:36:16.890Z</time>
      </trkpt>
      <trkpt lat="43.325196504592896" lon="-1.4417839050292969">
        <ele>117.87572143321054</ele>
        <time>2021-08-05T16:36:21.667Z</time>
      </trkpt>
      <trkpt lat="43.32515358924866" lon="-1.4420521259307861">
        <ele>116.45182215894027</ele>
        <time>2021-08-05T16:36:26.447Z</time>
      </trkpt>
      <trkpt lat="43.3251428604126" lon="-1.44270658493042">
        <ele>115.05286817735183</ele>
        <time>2021-08-05T16:36:31.235Z</time>
      </trkpt>
      <trkpt lat="43.3250892162323" lon="-1.4429855346679688">
        <ele>113.88755498842038</ele>
        <time>2021-08-05T16:36:36.026Z</time>
      </trkpt>
      <trkpt lat="43.32501411437988" lon="-1.4432001113891602">
        <ele>112.82784715009926</ele>
        <time>2021-08-05T16:36:40.820Z</time>
      </trkpt>
      <trkpt lat="43.324981927871704" lon="-1.443328857421875">
        <ele>111.83766553492843</ele>
        <time>2021-08-05T16:36:45.616Z</time>
      </trkpt>
      <trkpt lat="43.324992656707764" lon="-1.4434576034545898">
        <ele>110.84216055008037</ele>
        <time>2021-08-05T16:36:50.413Z</time>
      </trkpt>
      <trkpt lat="43.325035655871034" lon="-1.4435648918151855">
        <ele>109.87304370690083</ele>
        <time>2021-08-05T16:36:55.211Z</time>
      </trkpt>
      <trkpt lat="43.32505711354315" lon="-1.443629264831543">
        <ele>108.98773063870557</ele>
        <time>2021-08-05T16:37:00.010Z</time>
      </trkpt>
      <trkpt lat="43.32519658841193" lon="-1.4440584182739258">
        <ele>108.17583022925815</ele>
        <time>2021-08-05T16:37:04.815Z</time>
      </trkpt>
      <trkpt lat="43.32530379295349" lon="-1.4443695545196533">
        <ele>107.41332689958529</ele>
        <time>2021-08-05T16:37:09.624Z</time>
      </trkpt>
      <trkpt lat="43.32541108131409" lon="-1.4449381828308105">
        <ele>106.69107528359442</ele>
        <time>2021-08-05T16:37:14.440Z</time>
      </trkpt>
      <trkpt lat="43.32550764083862" lon="-1.4457428455352783">
        <ele>105.72008842191987</ele>
        <time>2021-08-05T16:37:19.265Z</time>
      </trkpt>
      <trkpt lat="43.32562574185431" lon="-1.4462792873382568">
        <ele>104.88093378986952</ele>
        <time>2021-08-05T16:37:24.097Z</time>
      </trkpt>
      <trkpt lat="43.32567938603461" lon="-1.446526050567627">
        <ele>104.29396675432145</ele>
        <time>2021-08-05T16:37:28.932Z</time>
      </trkpt>
      <trkpt lat="43.32591533660889" lon="-1.4475774765014648">
        <ele>104.14085381270164</ele>
        <time>2021-08-05T16:37:33.780Z</time>
      </trkpt>
      <trkpt lat="43.325979709625244" lon="-1.4477169513702393">
        <ele>104.08792161586896</ele>
        <time>2021-08-05T16:37:38.629Z</time>
      </trkpt>
      <trkpt lat="43.32607626914978" lon="-1.4478135108947754">
        <ele>104.01938156950432</ele>
        <time>2021-08-05T16:37:43.480Z</time>
      </trkpt>
      <trkpt lat="43.32637667655945" lon="-1.4479422569274902">
        <ele>103.93283150350982</ele>
        <time>2021-08-05T16:37:48.336Z</time>
      </trkpt>
      <trkpt lat="43.32637676037848" lon="-1.4479422569274902">
        <ele>103.73839929614459</ele>
        <time>2021-08-05T16:37:53.192Z</time>
      </trkpt>
      <trkpt lat="43.3265483379364" lon="-1.4480066299438477">
        <ele>103.4843524530552</ele>
        <time>2021-08-05T16:37:58.051Z</time>
      </trkpt>
      <trkpt lat="43.32666635513306" lon="-1.4480924606323242">
        <ele>103.24552508682174</ele>
        <time>2021-08-05T16:38:02.912Z</time>
      </trkpt>
      <trkpt lat="43.32688101567328" lon="-1.4484035968780518">
        <ele>103.46638721955378</ele>
        <time>2021-08-05T16:38:07.778Z</time>
      </trkpt>
      <trkpt lat="43.327224254608154" lon="-1.4488649368286133">
        <ele>103.4168353934426</ele>
        <time>2021-08-05T16:38:12.652Z</time>
      </trkpt>
      <trkpt lat="43.32751393318176" lon="-1.4490795135498047">
        <ele>102.42401364287736</ele>
        <time>2021-08-05T16:38:17.531Z</time>
      </trkpt>
      <trkpt lat="43.32774996757507" lon="-1.4493048191070557">
        <ele>102.10823739637314</ele>
        <time>2021-08-05T16:38:22.415Z</time>
      </trkpt>
      <trkpt lat="43.32788944244385" lon="-1.4493799209594727">
        <ele>101.6320743632601</ele>
        <time>2021-08-05T16:38:27.301Z</time>
      </trkpt>
      <trkpt lat="43.32803964614868" lon="-1.4494121074676514">
        <ele>100.97684676118935</ele>
        <time>2021-08-05T16:38:32.190Z</time>
      </trkpt>
      <trkpt lat="43.32834005355835" lon="-1.4494013786315918">
        <ele>100.06517085654764</ele>
        <time>2021-08-05T16:38:37.084Z</time>
      </trkpt>
      <trkpt lat="43.32852244377136" lon="-1.4493584632873535">
        <ele>99.09614237687889</ele>
        <time>2021-08-05T16:38:41.981Z</time>
      </trkpt>
      <trkpt lat="43.32876920700073" lon="-1.449218988418579">
        <ele>97.89626477385158</ele>
        <time>2021-08-05T16:38:46.882Z</time>
      </trkpt>
      <trkpt lat="43.328983783721924" lon="-1.4492833614349365">
        <ele>97.06959906220415</ele>
        <time>2021-08-05T16:38:51.786Z</time>
      </trkpt>
      <trkpt lat="43.32929491996765" lon="-1.4492404460906982">
        <ele>95.82538850581179</ele>
        <time>2021-08-05T16:38:56.695Z</time>
      </trkpt>
      <trkpt lat="43.32988500595093" lon="-1.4493799209594727">
        <ele>94.69887806935886</ele>
        <time>2021-08-05T16:39:01.614Z</time>
      </trkpt>
      <trkpt lat="43.33061456680298" lon="-1.4498090744018555">
        <ele>93.70229593767301</ele>
        <time>2021-08-05T16:39:06.546Z</time>
      </trkpt>
      <trkpt lat="43.33078622817993" lon="-1.449819803237915">
        <ele>92.62562753915242</ele>
        <time>2021-08-05T16:39:11.480Z</time>
      </trkpt>
      <trkpt lat="43.330957889556885" lon="-1.449744701385498">
        <ele>91.52861561009992</ele>
        <time>2021-08-05T16:39:16.417Z</time>
      </trkpt>
      <trkpt lat="43.33115109242499" lon="-1.4494550228118896">
        <ele>90.69532493379279</ele>
        <time>2021-08-05T16:39:21.359Z</time>
      </trkpt>
      <trkpt lat="43.33135485649109" lon="-1.4489614963531494">
        <ele>89.83103797483521</ele>
        <time>2021-08-05T16:39:26.307Z</time>
      </trkpt>
      <trkpt lat="43.331483602523804" lon="-1.448124647140503">
        <ele>88.59208328297034</ele>
        <time>2021-08-05T16:39:31.265Z</time>
      </trkpt>
      <trkpt lat="43.331676721572876" lon="-1.447674036026001">
        <ele>87.85757840843601</ele>
        <time>2021-08-05T16:39:36.230Z</time>
      </trkpt>
      <trkpt lat="43.331977128982544" lon="-1.4473521709442139">
        <ele>86.9997623304267</ele>
        <time>2021-08-05T16:39:41.201Z</time>
      </trkpt>
      <trkpt lat="43.33261013031006" lon="-1.4472556114196777">
        <ele>85.7939303175646</ele>
        <time>2021-08-05T16:39:46.182Z</time>
      </trkpt>
      <trkpt lat="43.333232402801514" lon="-1.4470624923706055">
        <ele>85.06720485694113</ele>
        <time>2021-08-05T16:39:51.173Z</time>
      </trkpt>
      <trkpt lat="43.333425521850586" lon="-1.4469444751739502">
        <ele>84.49130512785543</ele>
        <time>2021-08-05T16:39:56.167Z</time>
      </trkpt>
      <trkpt lat="43.33358645439148" lon="-1.4467191696166992">
        <ele>84.10624721782186</ele>
        <time>2021-08-05T16:40:01.165Z</time>
      </trkpt>
      <trkpt lat="43.33389759063721" lon="-1.4458179473876953">
        <ele>83.66869549373911</ele>
        <time>2021-08-05T16:40:06.175Z</time>
      </trkpt>
      <trkpt lat="43.33401560783386" lon="-1.4455711841583252">
        <ele>83.30616921709014</ele>
        <time>2021-08-05T16:40:11.188Z</time>
      </trkpt>
      <trkpt lat="43.33413362503052" lon="-1.4454209804534912">
        <ele>82.9592838218793</ele>
        <time>2021-08-05T16:40:16.204Z</time>
      </trkpt>
      <trkpt lat="43.33413370884955" lon="-1.4454209804534912">
        <ele>82.71695392612041</ele>
        <time>2021-08-05T16:40:21.220Z</time>
      </trkpt>
      <trkpt lat="43.33429455757141" lon="-1.4453458786010742">
        <ele>82.48236650089177</ele>
        <time>2021-08-05T16:40:26.239Z</time>
      </trkpt>
      <trkpt lat="43.33449840545654" lon="-1.445324420928955">
        <ele>82.23444759419466</ele>
        <time>2021-08-05T16:40:31.261Z</time>
      </trkpt>
      <trkpt lat="43.334723711013794" lon="-1.445378065109253">
        <ele>82.12240797926641</ele>
        <time>2021-08-05T16:40:36.286Z</time>
      </trkpt>
      <trkpt lat="43.334959829226136" lon="-1.4455175399780273">
        <ele>82.21766302021317</ele>
        <time>2021-08-05T16:40:41.316Z</time>
      </trkpt>
      <trkpt lat="43.33563566207886" lon="-1.4460217952728271">
        <ele>82.37648945161037</ele>
        <time>2021-08-05T16:40:46.358Z</time>
      </trkpt>
      <trkpt lat="43.33583950996399" lon="-1.4461290836334229">
        <ele>82.15933988023443</ele>
        <time>2021-08-05T16:40:51.403Z</time>
      </trkpt>
      <trkpt lat="43.33613991737366" lon="-1.4462149143218994">
        <ele>81.9328680911904</ele>
        <time>2021-08-05T16:40:56.453Z</time>
      </trkpt>
      <trkpt lat="43.336258018389344" lon="-1.4462149143218994">
        <ele>81.66522971348036</ele>
        <time>2021-08-05T16:41:01.505Z</time>
      </trkpt>
      <trkpt lat="43.33634384907782" lon="-1.4462041854858398">
        <ele>81.28857136325382</ele>
        <time>2021-08-05T16:41:06.559Z</time>
      </trkpt>
      <trkpt lat="43.33656907081604" lon="-1.4461719989776611">
        <ele>80.75810831353297</ele>
        <time>2021-08-05T16:41:11.616Z</time>
      </trkpt>
      <trkpt lat="43.33698749542236" lon="-1.4461719989776611">
        <ele>80.18372458324687</ele>
        <time>2021-08-05T16:41:16.680Z</time>
      </trkpt>
      <trkpt lat="43.336923122406006" lon="-1.446676254272461">
        <ele>79.6948526034198</ele>
        <time>2021-08-05T16:41:21.750Z</time>
      </trkpt>
      <trkpt lat="43.336923122406006" lon="-1.4472341537475586">
        <ele>78.99788160898774</ele>
        <time>2021-08-05T16:41:26.826Z</time>
      </trkpt>
      <trkpt lat="43.33694466389716" lon="-1.4476311206817627">
        <ele>78.29430058563196</ele>
        <time>2021-08-05T16:41:31.907Z</time>
      </trkpt>
      <trkpt lat="43.336944580078125" lon="-1.4478027820587158">
        <ele>77.49140011447946</ele>
        <time>2021-08-05T16:41:36.990Z</time>
      </trkpt>
      <trkpt lat="43.33710559643805" lon="-1.4488756656646729">
        <ele>76.73636913900302</ele>
        <time>2021-08-05T16:41:42.086Z</time>
      </trkpt>
      <trkpt lat="43.33728790283203" lon="-1.4496052265167236">
        <ele>75.78597011717864</ele>
        <time>2021-08-05T16:41:47.191Z</time>
      </trkpt>
      <trkpt lat="43.337502563372254" lon="-1.4501845836639404">
        <ele>74.6989386104016</ele>
        <time>2021-08-05T16:41:52.303Z</time>
      </trkpt>
      <trkpt lat="43.33777070045471" lon="-1.4507746696472168">
        <ele>73.39767954711878</ele>
        <time>2021-08-05T16:41:57.424Z</time>
      </trkpt>
      <trkpt lat="43.33828568458557" lon="-1.4516222476959229">
        <ele>71.44813670767178</ele>
        <time>2021-08-05T16:42:02.557Z</time>
      </trkpt>
      <trkpt lat="43.33866127766669" lon="-1.4520728588104248">
        <ele>69.93897785565646</ele>
        <time>2021-08-05T16:42:07.698Z</time>
      </trkpt>
      <trkpt lat="43.33881139755249" lon="-1.4522981643676758">
        <ele>68.58945352753608</ele>
        <time>2021-08-05T16:42:12.843Z</time>
      </trkpt>
      <trkpt lat="43.33903678692877" lon="-1.4525771141052246">
        <ele>67.1943691214087</ele>
        <time>2021-08-05T16:42:17.993Z</time>
      </trkpt>
      <trkpt lat="43.33927273750305" lon="-1.4528131484985352">
        <ele>65.92377737867626</ele>
        <time>2021-08-05T16:42:23.147Z</time>
      </trkpt>
      <trkpt lat="43.33938010968268" lon="-1.4529740810394287">
        <ele>64.74278615240706</ele>
        <time>2021-08-05T16:42:28.304Z</time>
      </trkpt>
      <trkpt lat="43.33926200866699" lon="-1.453092098236084">
        <ele>63.732825730722844</ele>
        <time>2021-08-05T16:42:33.463Z</time>
      </trkpt>
      <trkpt lat="43.338768566027284" lon="-1.4535748958587646">
        <ele>62.78063154121829</ele>
        <time>2021-08-05T16:42:38.632Z</time>
      </trkpt>
      <trkpt lat="43.33857536315918" lon="-1.453789472579956">
        <ele>61.95851968658341</ele>
        <time>2021-08-05T16:42:43.805Z</time>
      </trkpt>
      <trkpt lat="43.3383930567652" lon="-1.4540576934814453">
        <ele>61.3220714562851</ele>
        <time>2021-08-05T16:42:48.982Z</time>
      </trkpt>
      <trkpt lat="43.33827495574951" lon="-1.4543044567108154">
        <ele>60.846822372583745</ele>
        <time>2021-08-05T16:42:54.163Z</time>
      </trkpt>
      <trkpt lat="43.33804965019226" lon="-1.4549267292022705">
        <ele>60.49884770810009</ele>
        <time>2021-08-05T16:42:59.352Z</time>
      </trkpt>
      <trkpt lat="43.33784580230713" lon="-1.4553987979888916">
        <ele>60.133116128830274</ele>
        <time>2021-08-05T16:43:04.547Z</time>
      </trkpt>
      <trkpt lat="43.33784588612616" lon="-1.4553987979888916">
        <ele>59.97192296498355</ele>
        <time>2021-08-05T16:43:09.742Z</time>
      </trkpt>
      <trkpt lat="43.33757758140564" lon="-1.4559030532836914">
        <ele>59.95089096781224</ele>
        <time>2021-08-05T16:43:14.945Z</time>
      </trkpt>
      <trkpt lat="43.33574295043945" lon="-1.4586174488067627">
        <ele>60.3706308452262</ele>
        <time>2021-08-05T16:43:20.191Z</time>
      </trkpt>
      <trkpt lat="43.33558201789856" lon="-1.4589285850524902">
        <ele>60.581866840640174</ele>
        <time>2021-08-05T16:43:25.441Z</time>
      </trkpt>
      <trkpt lat="43.33549618721008" lon="-1.4592289924621582">
        <ele>60.764385053599426</ele>
        <time>2021-08-05T16:43:30.695Z</time>
      </trkpt>
      <trkpt lat="43.335496271029115" lon="-1.4592289924621582">
        <ele>61.25900057539519</ele>
        <time>2021-08-05T16:43:35.949Z</time>
      </trkpt>
      <trkpt lat="43.335474729537964" lon="-1.4593684673309326">
        <ele>61.76478079127973</ele>
        <time>2021-08-05T16:43:41.205Z</time>
      </trkpt>
      <trkpt lat="43.33536744117737" lon="-1.4594435691833496">
        <ele>62.54937007039928</ele>
        <time>2021-08-05T16:43:46.463Z</time>
      </trkpt>
      <trkpt lat="43.335228050127625" lon="-1.4594972133636475">
        <ele>63.507606378943905</ele>
        <time>2021-08-05T16:43:51.723Z</time>
      </trkpt>
      <trkpt lat="43.335120677948" lon="-1.4595293998718262">
        <ele>64.58825525640835</ele>
        <time>2021-08-05T16:43:56.985Z</time>
      </trkpt>
      <trkpt lat="43.33486318588257" lon="-1.459883451461792">
        <ele>65.92205480166638</ele>
        <time>2021-08-05T16:44:02.253Z</time>
      </trkpt>
      <trkpt lat="43.33457350730896" lon="-1.4603233337402344">
        <ele>67.28095479956755</ele>
        <time>2021-08-05T16:44:07.527Z</time>
      </trkpt>
      <trkpt lat="43.33431601524353" lon="-1.4607739448547363">
        <ele>68.73833885762315</ele>
        <time>2021-08-05T16:44:12.808Z</time>
      </trkpt>
      <trkpt lat="43.334219455718994" lon="-1.4610099792480469">
        <ele>70.22691356760782</ele>
        <time>2021-08-05T16:44:18.092Z</time>
      </trkpt>
      <trkpt lat="43.334197998046875" lon="-1.4610743522644043">
        <ele>71.61856721140336</ele>
        <time>2021-08-05T16:44:23.377Z</time>
      </trkpt>
      <trkpt lat="43.334176540374756" lon="-1.4612460136413574">
        <ele>73.03416403565899</ele>
        <time>2021-08-05T16:44:28.664Z</time>
      </trkpt>
      <trkpt lat="43.334208726882935" lon="-1.4617180824279785">
        <ele>74.26848474902235</ele>
        <time>2021-08-05T16:44:33.957Z</time>
      </trkpt>
      <trkpt lat="43.334219455718994" lon="-1.462007761001587">
        <ele>75.73298427611613</ele>
        <time>2021-08-05T16:44:39.253Z</time>
      </trkpt>
      <trkpt lat="43.334208726882935" lon="-1.4621901512145996">
        <ele>77.28364737006711</ele>
        <time>2021-08-05T16:44:44.551Z</time>
      </trkpt>
      <trkpt lat="43.334176540374756" lon="-1.4622974395751953">
        <ele>78.91948468742814</ele>
        <time>2021-08-05T16:44:49.851Z</time>
      </trkpt>
      <trkpt lat="43.33412289619446" lon="-1.4624691009521484">
        <ele>80.48746363343034</ele>
        <time>2021-08-05T16:44:55.153Z</time>
      </trkpt>
      <trkpt lat="43.333961963653564" lon="-1.4627909660339355">
        <ele>82.20525220787472</ele>
        <time>2021-08-05T16:45:00.459Z</time>
      </trkpt>
      <trkpt lat="43.33382248878479" lon="-1.4629626274108887">
        <ele>84.01055769490318</ele>
        <time>2021-08-05T16:45:05.768Z</time>
      </trkpt>
      <trkpt lat="43.333693742752075" lon="-1.4630699157714844">
        <ele>85.85422283566577</ele>
        <time>2021-08-05T16:45:11.080Z</time>
      </trkpt>
      <trkpt lat="43.33314657211304" lon="-1.463477611541748">
        <ele>88.02262175702703</ele>
        <time>2021-08-05T16:45:16.402Z</time>
      </trkpt>
      <trkpt lat="43.33288908004761" lon="-1.463606357574463">
        <ele>90.02561981648384</ele>
        <time>2021-08-05T16:45:21.728Z</time>
      </trkpt>
      <trkpt lat="43.33263158798218" lon="-1.4636814594268799">
        <ele>92.0734418309258</ele>
        <time>2021-08-05T16:45:27.058Z</time>
      </trkpt>
      <trkpt lat="43.3325457572937" lon="-1.4637351036071777">
        <ele>93.95131339638766</ele>
        <time>2021-08-05T16:45:32.390Z</time>
      </trkpt>
      <trkpt lat="43.33252429962158" lon="-1.463778018951416">
        <ele>95.71298003061415</ele>
        <time>2021-08-05T16:45:37.722Z</time>
      </trkpt>
      <trkpt lat="43.3324921131134" lon="-1.4638960361480713">
        <ele>97.4296537968634</ele>
        <time>2021-08-05T16:45:43.056Z</time>
      </trkpt>
      <trkpt lat="43.332459926605225" lon="-1.4643466472625732">
        <ele>98.93812820421937</ele>
        <time>2021-08-05T16:45:48.395Z</time>
      </trkpt>
      <trkpt lat="43.332427740097046" lon="-1.4644968509674072">
        <ele>100.65557424272501</ele>
        <time>2021-08-05T16:45:53.736Z</time>
      </trkpt>
      <trkpt lat="43.33238482475281" lon="-1.4646470546722412">
        <ele>102.38415410548942</ele>
        <time>2021-08-05T16:45:59.079Z</time>
      </trkpt>
      <trkpt lat="43.33226680755615" lon="-1.464829444885254">
        <ele>104.19407797581212</ele>
        <time>2021-08-05T16:46:04.425Z</time>
      </trkpt>
      <trkpt lat="43.33199858665466" lon="-1.4650869369506836">
        <ele>106.10959445123416</ele>
        <time>2021-08-05T16:46:09.776Z</time>
      </trkpt>
      <trkpt lat="43.331687450408936" lon="-1.4653229713439941">
        <ele>108.13940788772841</ele>
        <time>2021-08-05T16:46:15.133Z</time>
      </trkpt>
      <trkpt lat="43.33149433135986" lon="-1.4654195308685303">
        <ele>110.11534862866762</ele>
        <time>2021-08-05T16:46:20.493Z</time>
      </trkpt>
      <trkpt lat="43.331193923950195" lon="-1.4655160903930664">
        <ele>112.25232977204189</ele>
        <time>2021-08-05T16:46:25.858Z</time>
      </trkpt>
      <trkpt lat="43.33111882209778" lon="-1.4655482769012451">
        <ele>113.98878259299602</ele>
        <time>2021-08-05T16:46:31.224Z</time>
      </trkpt>
      <trkpt lat="43.3310329914093" lon="-1.465623378753662">
        <ele>115.6782435244632</ele>
        <time>2021-08-05T16:46:36.592Z</time>
      </trkpt>
      <trkpt lat="43.33101153373718" lon="-1.4656662940979004">
        <ele>117.23156895488339</ele>
        <time>2021-08-05T16:46:41.960Z</time>
      </trkpt>
      <trkpt lat="43.330979347229004" lon="-1.4658057689666748">
        <ele>118.73101466850113</ele>
        <time>2021-08-05T16:46:47.330Z</time>
      </trkpt>
      <trkpt lat="43.33099007606506" lon="-1.4659881591796875">
        <ele>120.10629713174066</ele>
        <time>2021-08-05T16:46:52.702Z</time>
      </trkpt>
      <trkpt lat="43.3310329914093" lon="-1.4664280414581299">
        <ele>121.29559675580992</ele>
        <time>2021-08-05T16:46:58.079Z</time>
      </trkpt>
      <trkpt lat="43.33101153373718" lon="-1.4666533470153809">
        <ele>122.75890504530265</ele>
        <time>2021-08-05T16:47:03.459Z</time>
      </trkpt>
      <trkpt lat="43.330968618392944" lon="-1.4667820930480957">
        <ele>124.27374382019896</ele>
        <time>2021-08-05T16:47:08.841Z</time>
      </trkpt>
      <trkpt lat="43.33091497421265" lon="-1.4668679237365723">
        <ele>125.83448565538296</ele>
        <time>2021-08-05T16:47:14.224Z</time>
      </trkpt>
      <trkpt lat="43.330732583999634" lon="-1.4670610427856445">
        <ele>127.66181073747433</ele>
        <time>2021-08-05T16:47:19.611Z</time>
      </trkpt>
      <trkpt lat="43.330678939819336" lon="-1.467125415802002">
        <ele>129.2451685243986</ele>
        <time>2021-08-05T16:47:24.999Z</time>
      </trkpt>
      <trkpt lat="43.33064675331116" lon="-1.4672112464904785">
        <ele>130.7989389189455</ele>
        <time>2021-08-05T16:47:30.388Z</time>
      </trkpt>
      <trkpt lat="43.33062529563904" lon="-1.4673399925231934">
        <ele>132.3478330326478</ele>
        <time>2021-08-05T16:47:35.778Z</time>
      </trkpt>
      <trkpt lat="43.33062529563904" lon="-1.4677369594573975">
        <ele>133.87714678204304</ele>
        <time>2021-08-05T16:47:41.173Z</time>
      </trkpt>
      <trkpt lat="43.33060383796692" lon="-1.4679086208343506">
        <ele>135.42241573579025</ele>
        <time>2021-08-05T16:47:46.570Z</time>
      </trkpt>
      <trkpt lat="43.33056092262268" lon="-1.4679944515228271">
        <ele>137.0634875298175</ele>
        <time>2021-08-05T16:47:51.968Z</time>
      </trkpt>
      <trkpt lat="43.330475091934204" lon="-1.4680910110473633">
        <ele>138.82166451559155</ele>
        <time>2021-08-05T16:47:57.368Z</time>
      </trkpt>
      <trkpt lat="43.33016395568848" lon="-1.468348503112793">
        <ele>141.0617457762288</ele>
        <time>2021-08-05T16:48:02.774Z</time>
      </trkpt>
      <trkpt lat="43.33005666732788" lon="-1.4684772491455078">
        <ele>142.88715877066977</ele>
        <time>2021-08-05T16:48:08.182Z</time>
      </trkpt>
      <trkpt lat="43.329970836639404" lon="-1.4686381816864014">
        <ele>144.64925108351275</ele>
        <time>2021-08-05T16:48:13.593Z</time>
      </trkpt>
      <trkpt lat="43.329927921295166" lon="-1.468895673751831">
        <ele>146.26289103975478</ele>
        <time>2021-08-05T16:48:19.007Z</time>
      </trkpt>
      <trkpt lat="43.329949378967285" lon="-1.469120979309082">
        <ele>147.71198528467414</ele>
        <time>2021-08-05T16:48:24.423Z</time>
      </trkpt>
      <trkpt lat="43.33001375198364" lon="-1.4694750308990479">
        <ele>149.1190926699494</ele>
        <time>2021-08-05T16:48:29.844Z</time>
      </trkpt>
      <trkpt lat="43.33003520965576" lon="-1.4696896076202393">
        <ele>150.66261823457546</ele>
        <time>2021-08-05T16:48:35.267Z</time>
      </trkpt>
      <trkpt lat="43.33000302314758" lon="-1.4700758457183838">
        <ele>152.04973221142026</ele>
        <time>2021-08-05T16:48:40.695Z</time>
      </trkpt>
      <trkpt lat="43.329949378967285" lon="-1.470268964767456">
        <ele>153.6061675423103</ele>
        <time>2021-08-05T16:48:46.125Z</time>
      </trkpt>
      <trkpt lat="43.32985281944275" lon="-1.4704406261444092">
        <ele>155.27747331399598</ele>
        <time>2021-08-05T16:48:51.558Z</time>
      </trkpt>
      <trkpt lat="43.329670429229736" lon="-1.4705586433410645">
        <ele>157.16141252716747</ele>
        <time>2021-08-05T16:48:56.994Z</time>
      </trkpt>
      <trkpt lat="43.32953095436096" lon="-1.4706015586853027">
        <ele>159.04767446716102</ele>
        <time>2021-08-05T16:49:02.432Z</time>
      </trkpt>
      <trkpt lat="43.3290159702301" lon="-1.4706873893737793">
        <ele>161.58652688608043</ele>
        <time>2021-08-05T16:49:07.878Z</time>
      </trkpt>
      <trkpt lat="43.328930139541626" lon="-1.4707303047180176">
        <ele>163.38603455194757</ele>
        <time>2021-08-05T16:49:13.326Z</time>
      </trkpt>
      <trkpt lat="43.32886576652527" lon="-1.4708054065704346">
        <ele>165.09083858844187</ele>
        <time>2021-08-05T16:49:18.775Z</time>
      </trkpt>
      <trkpt lat="43.32881212234497" lon="-1.4709234237670898">
        <ele>166.70509002434582</ele>
        <time>2021-08-05T16:49:24.226Z</time>
      </trkpt>
      <trkpt lat="43.32877993583679" lon="-1.4713847637176514">
        <ele>168.06914211326318</ele>
        <time>2021-08-05T16:49:29.682Z</time>
      </trkpt>
      <trkpt lat="43.32862973213196" lon="-1.471771001815796">
        <ele>169.60961907163687</ele>
        <time>2021-08-05T16:49:35.143Z</time>
      </trkpt>
      <trkpt lat="43.32859754562378" lon="-1.4718997478485107">
        <ele>170.8731213750279</ele>
        <time>2021-08-05T16:49:40.606Z</time>
      </trkpt>
      <trkpt lat="43.32859754562378" lon="-1.4720284938812256">
        <ele>171.94133723837157</ele>
        <time>2021-08-05T16:49:46.070Z</time>
      </trkpt>
      <trkpt lat="43.328704833984375" lon="-1.472564935684204">
        <ele>172.66051567586533</ele>
        <time>2021-08-05T16:49:51.541Z</time>
      </trkpt>
      <trkpt lat="43.328704833984375" lon="-1.4727365970611572">
        <ele>173.48222244051465</ele>
        <time>2021-08-05T16:49:57.014Z</time>
      </trkpt>
      <trkpt lat="43.328672647476196" lon="-1.4728868007659912">
        <ele>174.2401129201873</ele>
        <time>2021-08-05T16:50:02.489Z</time>
      </trkpt>
      <trkpt lat="43.3285117149353" lon="-1.4732623100280762">
        <ele>175.06285928627102</ele>
        <time>2021-08-05T16:50:07.969Z</time>
      </trkpt>
      <trkpt lat="43.32829713821411" lon="-1.4736270904541016">
        <ele>175.6411284652799</ele>
        <time>2021-08-05T16:50:13.454Z</time>
      </trkpt>
      <trkpt lat="43.3280611038208" lon="-1.473938226699829">
        <ele>176.0642924581681</ele>
        <time>2021-08-05T16:50:18.945Z</time>
      </trkpt>
      <trkpt lat="43.32784652709961" lon="-1.4741528034210205">
        <ele>176.29586988867788</ele>
        <time>2021-08-05T16:50:24.440Z</time>
      </trkpt>
      <trkpt lat="43.327717781066895" lon="-1.4742279052734375">
        <ele>176.34623493657188</ele>
        <time>2021-08-05T16:50:29.937Z</time>
      </trkpt>
      <trkpt lat="43.3276641368866" lon="-1.4742600917816162">
        <ele>176.19626604102598</ele>
        <time>2021-08-05T16:50:35.435Z</time>
      </trkpt>
      <trkpt lat="43.32763203419745" lon="-1.4742708206176758">
        <ele>175.86609869370756</ele>
        <time>2021-08-05T16:50:40.934Z</time>
      </trkpt>
      <trkpt lat="43.327234983444214" lon="-1.4744210243225098">
        <ele>175.24614999560242</ele>
        <time>2021-08-05T16:50:46.439Z</time>
      </trkpt>
      <trkpt lat="43.32711696624756" lon="-1.4744961261749268">
        <ele>174.52788352678567</ele>
        <time>2021-08-05T16:50:51.946Z</time>
      </trkpt>
      <trkpt lat="43.32703113555908" lon="-1.4745819568634033">
        <ele>173.65136080558347</ele>
        <time>2021-08-05T16:50:57.455Z</time>
      </trkpt>
      <trkpt lat="43.32678437232971" lon="-1.4750003814697266">
        <ele>172.484717079964</ele>
        <time>2021-08-05T16:51:02.970Z</time>
      </trkpt>
      <trkpt lat="43.32602262496948" lon="-1.476362943649292">
        <ele>171.06143606191054</ele>
        <time>2021-08-05T16:51:08.505Z</time>
      </trkpt>
      <trkpt lat="43.32591533660889" lon="-1.4765238761901855">
        <ele>169.7617500529413</ele>
        <time>2021-08-05T16:51:14.043Z</time>
      </trkpt>
      <trkpt lat="43.32549691200256" lon="-1.476985216140747">
        <ele>168.33386126098804</ele>
        <time>2021-08-05T16:51:19.589Z</time>
      </trkpt>
      <trkpt lat="43.32535743713379" lon="-1.4771783351898193">
        <ele>166.81228332019225</ele>
        <time>2021-08-05T16:51:25.139Z</time>
      </trkpt>
      <trkpt lat="43.32527160644531" lon="-1.477339267730713">
        <ele>165.1839578807042</ele>
        <time>2021-08-05T16:51:30.691Z</time>
      </trkpt>
      <trkpt lat="43.32467079162598" lon="-1.478562355041504">
        <ele>163.36051464617373</ele>
        <time>2021-08-05T16:51:36.260Z</time>
      </trkpt>
      <trkpt lat="43.323994958773255" lon="-1.480032205581665">
        <ele>161.27638355501307</ele>
        <time>2021-08-05T16:51:41.849Z</time>
      </trkpt>
      <trkpt lat="43.32384467124939" lon="-1.4803004264831543">
        <ele>159.3195334653734</ele>
        <time>2021-08-05T16:51:47.442Z</time>
      </trkpt>
      <trkpt lat="43.32366228103638" lon="-1.4804935455322266">
        <ele>157.40240577286585</ele>
        <time>2021-08-05T16:51:53.039Z</time>
      </trkpt>
      <trkpt lat="43.3231258392334" lon="-1.4808690547943115">
        <ele>155.37348630410668</ele>
        <time>2021-08-05T16:51:58.646Z</time>
      </trkpt>
      <trkpt lat="43.32290053367615" lon="-1.4810514450073242">
        <ele>153.28374131191416</ele>
        <time>2021-08-05T16:52:04.257Z</time>
      </trkpt>
      <trkpt lat="43.322728872299194" lon="-1.4812660217285156">
        <ele>151.078913959751</ele>
        <time>2021-08-05T16:52:09.872Z</time>
      </trkpt>
      <trkpt lat="43.322213888168335" lon="-1.481931209564209">
        <ele>149.1867698131943</ele>
        <time>2021-08-05T16:52:15.498Z</time>
      </trkpt>
      <trkpt lat="43.32208514213562" lon="-1.4821350574493408">
        <ele>147.18405351038064</ele>
        <time>2021-08-05T16:52:21.127Z</time>
      </trkpt>
      <trkpt lat="43.32203149795532" lon="-1.4822638034820557">
        <ele>145.06208943438457</ele>
        <time>2021-08-05T16:52:26.758Z</time>
      </trkpt>
      <trkpt lat="43.32187056541443" lon="-1.4828109741210938">
        <ele>142.56113926907835</ele>
        <time>2021-08-05T16:52:32.396Z</time>
      </trkpt>
      <trkpt lat="43.32175254821777" lon="-1.4831435680389404">
        <ele>140.14523859271594</ele>
        <time>2021-08-05T16:52:38.038Z</time>
      </trkpt>
      <trkpt lat="43.32141995429993" lon="-1.4838945865631104">
        <ele>137.93308033382465</ele>
        <time>2021-08-05T16:52:43.690Z</time>
      </trkpt>
      <trkpt lat="43.32086205482483" lon="-1.484978199005127">
        <ele>135.06722573791492</ele>
        <time>2021-08-05T16:52:49.358Z</time>
      </trkpt>
      <trkpt lat="43.32051873207092" lon="-1.4855575561523438">
        <ele>132.60906367822238</ele>
        <time>2021-08-05T16:52:55.034Z</time>
      </trkpt>
      <trkpt lat="43.32029342651367" lon="-1.4858901500701904">
        <ele>130.19503791377338</ele>
        <time>2021-08-05T16:53:00.716Z</time>
      </trkpt>
      <trkpt lat="43.32000374794006" lon="-1.4862442016601562">
        <ele>127.78081903588455</ele>
        <time>2021-08-05T16:53:06.404Z</time>
      </trkpt>
      <trkpt lat="43.31978917121887" lon="-1.486448049545288">
        <ele>125.46077338366482</ele>
        <time>2021-08-05T16:53:12.096Z</time>
      </trkpt>
      <trkpt lat="43.318984508514404" lon="-1.4870059490203857">
        <ele>122.91852071706138</ele>
        <time>2021-08-05T16:53:17.803Z</time>
      </trkpt>
      <trkpt lat="43.31875920295715" lon="-1.4871776103973389">
        <ele>120.69357392099204</ele>
        <time>2021-08-05T16:53:23.514Z</time>
      </trkpt>
      <trkpt lat="43.31866264343262" lon="-1.4872848987579346">
        <ele>118.59398459505482</ele>
        <time>2021-08-05T16:53:29.227Z</time>
      </trkpt>
      <trkpt lat="43.318490982055664" lon="-1.4875209331512451">
        <ele>116.52478685504603</ele>
        <time>2021-08-05T16:53:34.944Z</time>
      </trkpt>
      <trkpt lat="43.318255031481385" lon="-1.4879286289215088">
        <ele>114.542966117358</ele>
        <time>2021-08-05T16:53:40.667Z</time>
      </trkpt>
      <trkpt lat="43.317986726760864" lon="-1.4884006977081299">
        <ele>112.63703099704222</ele>
        <time>2021-08-05T16:53:46.397Z</time>
      </trkpt>
      <trkpt lat="43.31758984364569" lon="-1.4889371395111084">
        <ele>110.78474661875742</ele>
        <time>2021-08-05T16:53:52.136Z</time>
      </trkpt>
      <trkpt lat="43.31740745343268" lon="-1.4891839027404785">
        <ele>109.07175031201444</ele>
        <time>2021-08-05T16:53:57.879Z</time>
      </trkpt>
      <trkpt lat="43.31716060638428" lon="-1.4894092082977295">
        <ele>107.43074965807409</ele>
        <time>2021-08-05T16:54:03.626Z</time>
      </trkpt>
      <trkpt lat="43.31683874130249" lon="-1.4896667003631592">
        <ele>105.86158891655302</ele>
        <time>2021-08-05T16:54:09.379Z</time>
      </trkpt>
      <trkpt lat="43.31661343574524" lon="-1.4898920059204102">
        <ele>104.42496054124373</ele>
        <time>2021-08-05T16:54:15.137Z</time>
      </trkpt>
      <trkpt lat="43.31652760505676" lon="-1.4900529384613037">
        <ele>103.0600175690872</ele>
        <time>2021-08-05T16:54:20.897Z</time>
      </trkpt>
      <trkpt lat="43.316452503204346" lon="-1.4902245998382568">
        <ele>101.78468007693456</ele>
        <time>2021-08-05T16:54:26.659Z</time>
      </trkpt>
      <trkpt lat="43.31555128097534" lon="-1.4926064014434814">
        <ele>100.41012723385481</ele>
        <time>2021-08-05T16:54:32.453Z</time>
      </trkpt>
      <trkpt lat="43.31534743309021" lon="-1.4930355548858643">
        <ele>99.3002669878698</ele>
        <time>2021-08-05T16:54:38.253Z</time>
      </trkpt>
      <trkpt lat="43.314489126205444" lon="-1.4944195747375488">
        <ele>98.03922031647075</ele>
        <time>2021-08-05T16:54:44.074Z</time>
      </trkpt>
      <trkpt lat="43.31431746482849" lon="-1.4946448802947998">
        <ele>97.0727304120862</ele>
        <time>2021-08-05T16:54:49.899Z</time>
      </trkpt>
      <trkpt lat="43.3135449886322" lon="-1.495513916015625">
        <ele>96.18240549201568</ele>
        <time>2021-08-05T16:54:55.740Z</time>
      </trkpt>
      <trkpt lat="43.313545072451234" lon="-1.495513916015625">
        <ele>95.45225608305344</ele>
        <time>2021-08-05T16:55:01.581Z</time>
      </trkpt>
      <trkpt lat="43.31307291984558" lon="-1.4959323406219482">
        <ele>94.59161855009661</ele>
        <time>2021-08-05T16:55:07.431Z</time>
      </trkpt>
      <trkpt lat="43.31216096878052" lon="-1.4971017837524414">
        <ele>93.85481561102185</ele>
        <time>2021-08-05T16:55:13.301Z</time>
      </trkpt>
      <trkpt lat="43.31159234046936" lon="-1.4976704120635986">
        <ele>93.5512546679214</ele>
        <time>2021-08-05T16:55:19.182Z</time>
      </trkpt>
      <trkpt lat="43.31159242428839" lon="-1.4976704120635986">
        <ele>93.04755112234696</ele>
        <time>2021-08-05T16:55:25.063Z</time>
      </trkpt>
      <trkpt lat="43.31145294941962" lon="-1.4979064464569092">
        <ele>92.65316503721607</ele>
        <time>2021-08-05T16:55:30.948Z</time>
      </trkpt>
      <trkpt lat="43.31134557723999" lon="-1.498185396194458">
        <ele>92.25484684080993</ele>
        <time>2021-08-05T16:55:36.836Z</time>
      </trkpt>
      <trkpt lat="43.31129193305969" lon="-1.4985179901123047">
        <ele>91.84759241064484</ele>
        <time>2021-08-05T16:55:42.728Z</time>
      </trkpt>
      <trkpt lat="43.31128120422363" lon="-1.4999663829803467">
        <ele>91.38635896531876</ele>
        <time>2021-08-05T16:55:48.637Z</time>
      </trkpt>
      <trkpt lat="43.31134557723999" lon="-1.5004277229309082">
        <ele>90.92188442935509</ele>
        <time>2021-08-05T16:55:54.552Z</time>
      </trkpt>
      <trkpt lat="43.311485052108765" lon="-1.5007495880126953">
        <ele>90.3717284357413</ele>
        <time>2021-08-05T16:56:00.471Z</time>
      </trkpt>
      <trkpt lat="43.31184983253479" lon="-1.5012216567993164">
        <ele>89.7298991089983</ele>
        <time>2021-08-05T16:56:06.398Z</time>
      </trkpt>
      <trkpt lat="43.31207513809204" lon="-1.5016508102416992">
        <ele>88.99103873982803</ele>
        <time>2021-08-05T16:56:12.331Z</time>
      </trkpt>
      <trkpt lat="43.31237554550171" lon="-1.5019619464874268">
        <ele>88.05612199360263</ele>
        <time>2021-08-05T16:56:18.270Z</time>
      </trkpt>
      <trkpt lat="43.3126437664032" lon="-1.502305269241333">
        <ele>87.08599773723756</ele>
        <time>2021-08-05T16:56:24.215Z</time>
      </trkpt>
      <trkpt lat="43.31292271614075" lon="-1.5027129650115967">
        <ele>85.79736033062086</ele>
        <time>2021-08-05T16:56:30.167Z</time>
      </trkpt>
      <trkpt lat="43.313008546829224" lon="-1.5029489994049072">
        <ele>84.76475369825883</ele>
        <time>2021-08-05T16:56:36.122Z</time>
      </trkpt>
      <trkpt lat="43.31307291984558" lon="-1.5032494068145752">
        <ele>83.75430303905824</ele>
        <time>2021-08-05T16:56:42.080Z</time>
      </trkpt>
      <trkpt lat="43.31308364868164" lon="-1.5034854412078857">
        <ele>82.72829965801063</ele>
        <time>2021-08-05T16:56:48.041Z</time>
      </trkpt>
      <trkpt lat="43.31307300366461" lon="-1.503753662109375">
        <ele>81.65550693726188</ele>
        <time>2021-08-05T16:56:54.005Z</time>
      </trkpt>
      <trkpt lat="43.31307291984558" lon="-1.503753662109375">
        <ele>80.69253926942477</ele>
        <time>2021-08-05T16:56:59.969Z</time>
      </trkpt>
      <trkpt lat="43.31305146217346" lon="-1.504300832748413">
        <ele>79.7578603300438</ele>
        <time>2021-08-05T16:57:05.940Z</time>
      </trkpt>
      <trkpt lat="43.3130943775177" lon="-1.5046226978302002">
        <ele>78.86327723746632</ele>
        <time>2021-08-05T16:57:11.915Z</time>
      </trkpt>
      <trkpt lat="43.31358790397644" lon="-1.5064036846160889">
        <ele>77.82329363193239</ele>
        <time>2021-08-05T16:57:17.912Z</time>
      </trkpt>
      <trkpt lat="43.31360936164856" lon="-1.5065217018127441">
        <ele>76.87983860185753</ele>
        <time>2021-08-05T16:57:23.910Z</time>
      </trkpt>
      <trkpt lat="43.31360944546759" lon="-1.5067362785339355">
        <ele>75.88660123595977</ele>
        <time>2021-08-05T16:57:29.911Z</time>
      </trkpt>
      <trkpt lat="43.31355571746826" lon="-1.5070688724517822">
        <ele>74.88487514856942</ele>
        <time>2021-08-05T16:57:35.916Z</time>
      </trkpt>
      <trkpt lat="43.313480615615845" lon="-1.507401466369629">
        <ele>73.96899839084057</ele>
        <time>2021-08-05T16:57:41.925Z</time>
      </trkpt>
      <trkpt lat="43.31329822540283" lon="-1.5080666542053223">
        <ele>73.23740778613652</ele>
        <time>2021-08-05T16:57:47.942Z</time>
      </trkpt>
      <trkpt lat="43.3130407333374" lon="-1.5091073513031006">
        <ele>72.57749535016909</ele>
        <time>2021-08-05T16:57:53.972Z</time>
      </trkpt>
      <trkpt lat="43.312987089157104" lon="-1.5092253684997559">
        <ele>71.95906751402867</ele>
        <time>2021-08-05T16:58:00.004Z</time>
      </trkpt>
      <trkpt lat="43.31290125846863" lon="-1.5093755722045898">
        <ele>71.39541394804569</ele>
        <time>2021-08-05T16:58:06.038Z</time>
      </trkpt>
      <trkpt lat="43.31262230873108" lon="-1.5096867084503174">
        <ele>70.87291582598357</ele>
        <time>2021-08-05T16:58:12.078Z</time>
      </trkpt>
      <trkpt lat="43.3125364780426" lon="-1.5098047256469727">
        <ele>70.42377588694693</ele>
        <time>2021-08-05T16:58:18.119Z</time>
      </trkpt>
      <trkpt lat="43.31241846084595" lon="-1.5100407600402832">
        <ele>69.98901453916827</ele>
        <time>2021-08-05T16:58:24.164Z</time>
      </trkpt>
      <trkpt lat="43.31228971481323" lon="-1.5103411674499512">
        <ele>69.63301080270705</ele>
        <time>2021-08-05T16:58:30.213Z</time>
      </trkpt>
      <trkpt lat="43.312214612960815" lon="-1.5105557441711426">
        <ele>69.33274229179312</ele>
        <time>2021-08-05T16:58:36.265Z</time>
      </trkpt>
      <trkpt lat="43.31209659576416" lon="-1.5108990669250488">
        <ele>69.06079641988916</ele>
        <time>2021-08-05T16:58:42.321Z</time>
      </trkpt>
      <trkpt lat="43.31196793355048" lon="-1.5114033222198486">
        <ele>68.82102132131031</ele>
        <time>2021-08-05T16:58:48.383Z</time>
      </trkpt>
      <trkpt lat="43.311967849731445" lon="-1.5114033222198486">
        <ele>68.6285923497814</ele>
        <time>2021-08-05T16:58:54.445Z</time>
      </trkpt>
      <trkpt lat="43.31182837486267" lon="-1.512315273284912">
        <ele>68.53961524278854</ele>
        <time>2021-08-05T16:59:00.518Z</time>
      </trkpt>
      <trkpt lat="43.31187129020691" lon="-1.5132379531860352">
        <ele>68.06336663078203</ele>
        <time>2021-08-05T16:59:06.602Z</time>
      </trkpt>
      <trkpt lat="43.31192493438721" lon="-1.5138816833496094">
        <ele>67.87968224436277</ele>
        <time>2021-08-05T16:59:12.694Z</time>
      </trkpt>
      <trkpt lat="43.312053764238954" lon="-1.5146005153656006">
        <ele>67.92209345161515</ele>
        <time>2021-08-05T16:59:18.794Z</time>
      </trkpt>
      <trkpt lat="43.31205368041992" lon="-1.5146005153656006">
        <ele>67.82815756572774</ele>
        <time>2021-08-05T16:59:24.894Z</time>
      </trkpt>
      <trkpt lat="43.312225341796875" lon="-1.5152764320373535">
        <ele>67.67913484256442</ele>
        <time>2021-08-05T16:59:31.003Z</time>
      </trkpt>
      <trkpt lat="43.31230044364929" lon="-1.5154480934143066">
        <ele>67.51955108286306</ele>
        <time>2021-08-05T16:59:37.114Z</time>
      </trkpt>
      <trkpt lat="43.31240773200989" lon="-1.5156090259552002">
        <ele>67.35697146390007</ele>
        <time>2021-08-05T16:59:43.227Z</time>
      </trkpt>
      <trkpt lat="43.31357725895941" lon="-1.5173685550689697">
        <ele>67.40577739596284</ele>
        <time>2021-08-05T16:59:49.368Z</time>
      </trkpt>
      <trkpt lat="43.313716650009155" lon="-1.5175938606262207">
        <ele>67.2506945989131</ele>
        <time>2021-08-05T16:59:55.513Z</time>
      </trkpt>
      <trkpt lat="43.313791835680604" lon="-1.5177762508392334">
        <ele>67.05628050828673</ele>
        <time>2021-08-05T17:00:01.660Z</time>
      </trkpt>
      <trkpt lat="43.31388831138611" lon="-1.5181732177734375">
        <ele>66.85541920167707</ele>
        <time>2021-08-05T17:00:07.812Z</time>
      </trkpt>
      <trkpt lat="43.31413507461548" lon="-1.519407033920288">
        <ele>66.52786557521573</ele>
        <time>2021-08-05T17:00:13.979Z</time>
      </trkpt>
      <trkpt lat="43.314199447631836" lon="-1.5196216106414795">
        <ele>66.14199981219535</ele>
        <time>2021-08-05T17:00:20.149Z</time>
      </trkpt>
      <trkpt lat="43.31426382064819" lon="-1.519761085510254">
        <ele>65.68114332879304</ele>
        <time>2021-08-05T17:00:26.321Z</time>
      </trkpt>
      <trkpt lat="43.31433892250061" lon="-1.5198791027069092">
        <ele>65.16674755245359</ele>
        <time>2021-08-05T17:00:32.494Z</time>
      </trkpt>
      <trkpt lat="43.31440329551697" lon="-1.5199434757232666">
        <ele>64.59598015987632</ele>
        <time>2021-08-05T17:00:38.669Z</time>
      </trkpt>
      <trkpt lat="43.31501483917236" lon="-1.5202438831329346">
        <ele>63.87384311858585</ele>
        <time>2021-08-05T17:00:44.854Z</time>
      </trkpt>
      <trkpt lat="43.315186500549316" lon="-1.5204155445098877">
        <ele>62.96602167481636</ele>
        <time>2021-08-05T17:00:51.043Z</time>
      </trkpt>
      <trkpt lat="43.31614136695862" lon="-1.521756649017334">
        <ele>62.02722390992187</ele>
        <time>2021-08-05T17:00:57.253Z</time>
      </trkpt>
      <trkpt lat="43.31688174046576" lon="-1.522829532623291">
        <ele>60.92127322417602</ele>
        <time>2021-08-05T17:01:03.481Z</time>
      </trkpt>
      <trkpt lat="43.31778287887573" lon="-1.5240848064422607">
        <ele>59.8597441340942</ele>
        <time>2021-08-05T17:01:09.729Z</time>
      </trkpt>
      <trkpt lat="43.31786870956421" lon="-1.5242242813110352">
        <ele>58.88066300803675</ele>
        <time>2021-08-05T17:01:15.979Z</time>
      </trkpt>
      <trkpt lat="43.317997455596924" lon="-1.524503231048584">
        <ele>57.853671858770674</ele>
        <time>2021-08-05T17:01:22.233Z</time>
      </trkpt>
      <trkpt lat="43.31806182861328" lon="-1.5247070789337158">
        <ele>56.654578049377434</ele>
        <time>2021-08-05T17:01:28.490Z</time>
      </trkpt>
      <trkpt lat="43.31809401512146" lon="-1.524900197982788">
        <ele>55.4771545742953</ele>
        <time>2021-08-05T17:01:34.749Z</time>
      </trkpt>
      <trkpt lat="43.31809401512146" lon="-1.5251898765563965">
        <ele>54.38513862689684</ele>
        <time>2021-08-05T17:01:41.012Z</time>
      </trkpt>
      <trkpt lat="43.31805109977722" lon="-1.525501012802124">
        <ele>53.23639239226122</ele>
        <time>2021-08-05T17:01:47.278Z</time>
      </trkpt>
      <trkpt lat="43.31755765713751" lon="-1.5284836292266846">
        <ele>52.02436447841238</ele>
        <time>2021-08-05T17:01:53.580Z</time>
      </trkpt>
      <trkpt lat="43.31755757331848" lon="-1.5284836292266846">
        <ele>50.80416723417463</ele>
        <time>2021-08-05T17:01:59.882Z</time>
      </trkpt>
      <trkpt lat="43.31706404685974" lon="-1.531519889831543">
        <ele>49.11956187804379</ele>
        <time>2021-08-05T17:02:06.220Z</time>
      </trkpt>
      <trkpt lat="43.317729234695435" lon="-1.5325713157653809">
        <ele>47.903933645974384</ele>
        <time>2021-08-05T17:02:12.575Z</time>
      </trkpt>
      <trkpt lat="43.31914552487433" lon="-1.534717082977295">
        <ele>46.38267516361432</ele>
        <time>2021-08-05T17:02:18.963Z</time>
      </trkpt>
      <trkpt lat="43.3191454410553" lon="-1.534717082977295">
        <ele>45.20129841806733</ele>
        <time>2021-08-05T17:02:25.351Z</time>
      </trkpt>
      <trkpt lat="43.319724798202515" lon="-1.5355861186981201">
        <ele>43.90779224626462</ele>
        <time>2021-08-05T17:02:31.753Z</time>
      </trkpt>
      <trkpt lat="43.31979990005493" lon="-1.5357255935668945">
        <ele>42.78323593870117</ele>
        <time>2021-08-05T17:02:38.157Z</time>
      </trkpt>
      <trkpt lat="43.31987500190735" lon="-1.5359187126159668">
        <ele>41.684182521596554</ele>
        <time>2021-08-05T17:02:44.564Z</time>
      </trkpt>
      <trkpt lat="43.319960832595825" lon="-1.5362513065338135">
        <ele>40.69733702821246</ele>
        <time>2021-08-05T17:02:50.975Z</time>
      </trkpt>
      <trkpt lat="43.319971561431885" lon="-1.5363585948944092">
        <ele>39.740922065699465</ele>
        <time>2021-08-05T17:02:57.387Z</time>
      </trkpt>
      <trkpt lat="43.32011103630066" lon="-1.5391910076141357">
        <ele>38.7726033076389</ele>
        <time>2021-08-05T17:03:03.832Z</time>
      </trkpt>
      <trkpt lat="43.32008957862854" lon="-1.539534330368042">
        <ele>37.87832424780207</ele>
        <time>2021-08-05T17:03:10.281Z</time>
      </trkpt>
      <trkpt lat="43.320003831759095" lon="-1.5398991107940674">
        <ele>37.02500013023452</ele>
        <time>2021-08-05T17:03:16.735Z</time>
      </trkpt>
      <trkpt lat="43.32000374794006" lon="-1.5398991107940674">
        <ele>36.24899127723255</ele>
        <time>2021-08-05T17:03:23.189Z</time>
      </trkpt>
      <trkpt lat="43.31883430480957" lon="-1.544126272201538">
        <ele>35.659823702419104</ele>
        <time>2021-08-05T17:03:29.695Z</time>
      </trkpt>
      <trkpt lat="43.31879138946533" lon="-1.544351577758789">
        <ele>34.90917419191098</ele>
        <time>2021-08-05T17:03:36.204Z</time>
      </trkpt>
      <trkpt lat="43.318748474121094" lon="-1.5447378158569336">
        <ele>34.21046549430031</ele>
        <time>2021-08-05T17:03:42.718Z</time>
      </trkpt>
      <trkpt lat="43.31875920295715" lon="-1.5451562404632568">
        <ele>33.58337898190295</ele>
        <time>2021-08-05T17:03:49.237Z</time>
      </trkpt>
      <trkpt lat="43.31878066062927" lon="-1.5453922748565674">
        <ele>32.99546344680536</ele>
        <time>2021-08-05T17:03:55.758Z</time>
      </trkpt>
      <trkpt lat="43.31882357597351" lon="-1.54557466506958">
        <ele>32.437362273622526</ele>
        <time>2021-08-05T17:04:02.282Z</time>
      </trkpt>
      <trkpt lat="43.318963050842285" lon="-1.5460467338562012">
        <ele>31.959042648548678</ele>
        <time>2021-08-05T17:04:08.812Z</time>
      </trkpt>
      <trkpt lat="43.31912398338318" lon="-1.5463900566101074">
        <ele>31.3915515202091</ele>
        <time>2021-08-05T17:04:15.346Z</time>
      </trkpt>
      <trkpt lat="43.31936001777649" lon="-1.5467548370361328">
        <ele>30.965081879689652</ele>
        <time>2021-08-05T17:04:21.886Z</time>
      </trkpt>
      <trkpt lat="43.3211624622345" lon="-1.5490078926086426">
        <ele>30.174707844778055</ele>
        <time>2021-08-05T17:04:28.465Z</time>
      </trkpt>
      <trkpt lat="43.321237647905946" lon="-1.5491259098052979">
        <ele>29.869794644736768</ele>
        <time>2021-08-05T17:04:35.046Z</time>
      </trkpt>
      <trkpt lat="43.32131266593933" lon="-1.5493297576904297">
        <ele>29.638467850836584</ele>
        <time>2021-08-05T17:04:41.630Z</time>
      </trkpt>
      <trkpt lat="43.3213556651026" lon="-1.5496408939361572">
        <ele>29.48812939224917</ele>
        <time>2021-08-05T17:04:48.217Z</time>
      </trkpt>
      <trkpt lat="43.32142003811896" lon="-1.55007004737854">
        <ele>29.40222186461275</ele>
        <time>2021-08-05T17:04:54.809Z</time>
      </trkpt>
      <trkpt lat="43.321462869644165" lon="-1.5503060817718506">
        <ele>29.39699591635602</ele>
        <time>2021-08-05T17:05:01.404Z</time>
      </trkpt>
      <trkpt lat="43.32152724266052" lon="-1.5504777431488037">
        <ele>29.483049504133405</ele>
        <time>2021-08-05T17:05:08.002Z</time>
      </trkpt>
      <trkpt lat="43.321462869644165" lon="-1.5505743026733398">
        <ele>29.626697326865994</ele>
        <time>2021-08-05T17:05:14.601Z</time>
      </trkpt>
      <trkpt lat="43.32140922546387" lon="-1.550745964050293">
        <ele>29.84392735070454</ele>
        <time>2021-08-05T17:05:21.202Z</time>
      </trkpt>
      <trkpt lat="43.32091569900513" lon="-1.5527307987213135">
        <ele>30.216755818111892</ele>
        <time>2021-08-05T17:05:27.828Z</time>
      </trkpt>
      <trkpt lat="43.32078695297241" lon="-1.5531063079833984">
        <ele>30.624128803391145</ele>
        <time>2021-08-05T17:05:34.459Z</time>
      </trkpt>
      <trkpt lat="43.32064747810364" lon="-1.5533745288848877">
        <ele>31.088313836686336</ele>
        <time>2021-08-05T17:05:41.093Z</time>
      </trkpt>
      <trkpt lat="43.32054018974304" lon="-1.5535032749176025">
        <ele>31.605980651851176</ele>
        <time>2021-08-05T17:05:47.730Z</time>
      </trkpt>
      <trkpt lat="43.32030423916876" lon="-1.553717851638794">
        <ele>32.19592320680235</ele>
        <time>2021-08-05T17:05:54.371Z</time>
      </trkpt>
      <trkpt lat="43.32007884979248" lon="-1.5539538860321045">
        <ele>32.852873139646924</ele>
        <time>2021-08-05T17:06:01.017Z</time>
      </trkpt>
      <trkpt lat="43.32003593444824" lon="-1.5540075302124023">
        <ele>33.56317333277956</ele>
        <time>2021-08-05T17:06:07.664Z</time>
      </trkpt>
      <trkpt lat="43.319960832595825" lon="-1.5541577339172363">
        <ele>34.35591949054187</ele>
        <time>2021-08-05T17:06:14.313Z</time>
      </trkpt>
      <trkpt lat="43.31989645957947" lon="-1.5543830394744873">
        <ele>35.20685512602678</ele>
        <time>2021-08-05T17:06:20.965Z</time>
      </trkpt>
      <trkpt lat="43.31962823867798" lon="-1.5557241439819336">
        <ele>36.231532603764634</ele>
        <time>2021-08-05T17:06:27.633Z</time>
      </trkpt>
      <trkpt lat="43.319488763809204" lon="-1.5563035011291504">
        <ele>37.300969061051944</ele>
        <time>2021-08-05T17:06:34.308Z</time>
      </trkpt>
      <trkpt lat="43.31941374577582" lon="-1.5565180778503418">
        <ele>38.34939183789531</ele>
        <time>2021-08-05T17:06:40.986Z</time>
      </trkpt>
      <trkpt lat="43.31936001777649" lon="-1.5566468238830566">
        <ele>39.41833449470381</ele>
        <time>2021-08-05T17:06:47.666Z</time>
      </trkpt>
      <trkpt lat="43.319209814071655" lon="-1.5568935871124268">
        <ele>40.54401276592927</ele>
        <time>2021-08-05T17:06:54.349Z</time>
      </trkpt>
      <trkpt lat="43.31880220212042" lon="-1.5574193000793457">
        <ele>41.71548404851836</ele>
        <time>2021-08-05T17:07:01.041Z</time>
      </trkpt>
      <trkpt lat="43.318705558776855" lon="-1.557537317276001">
        <ele>42.817309687793994</ele>
        <time>2021-08-05T17:07:07.735Z</time>
      </trkpt>
      <trkpt lat="43.31864126957953" lon="-1.557633876800537">
        <ele>43.94503246893591</ele>
        <time>2021-08-05T17:07:14.431Z</time>
      </trkpt>
      <trkpt lat="43.31837296485901" lon="-1.5580952167510986">
        <ele>45.15234652935346</ele>
        <time>2021-08-05T17:07:21.134Z</time>
      </trkpt>
      <trkpt lat="43.31810474395752" lon="-1.5585887432098389">
        <ele>46.41979577758505</ele>
        <time>2021-08-05T17:07:27.844Z</time>
      </trkpt>
      <trkpt lat="43.31795462407172" lon="-1.5588033199310303">
        <ele>47.659129088505196</ele>
        <time>2021-08-05T17:07:34.557Z</time>
      </trkpt>
      <trkpt lat="43.317954540252686" lon="-1.5588033199310303">
        <ele>48.83835316547967</ele>
        <time>2021-08-05T17:07:41.270Z</time>
      </trkpt>
      <trkpt lat="43.317739963531494" lon="-1.559082269668579">
        <ele>50.08501214541733</ele>
        <time>2021-08-05T17:07:47.988Z</time>
      </trkpt>
      <trkpt lat="43.31766486167908" lon="-1.559232473373413">
        <ele>51.28961683950733</ele>
        <time>2021-08-05T17:07:54.708Z</time>
      </trkpt>
      <trkpt lat="43.3176326751709" lon="-1.5593183040618896">
        <ele>52.49345007643153</ele>
        <time>2021-08-05T17:08:01.429Z</time>
      </trkpt>
      <trkpt lat="43.31756830215454" lon="-1.559661626815796">
        <ele>53.77836744989487</ele>
        <time>2021-08-05T17:08:08.155Z</time>
      </trkpt>
      <trkpt lat="43.317493200302124" lon="-1.5598440170288086">
        <ele>55.01173540596599</ele>
        <time>2021-08-05T17:08:14.883Z</time>
      </trkpt>
      <trkpt lat="43.31736445426941" lon="-1.5600156784057617">
        <ele>56.2319052268803</ele>
        <time>2021-08-05T17:08:21.614Z</time>
      </trkpt>
      <trkpt lat="43.317010486498475" lon="-1.560380458831787">
        <ele>57.492011978802914</ele>
        <time>2021-08-05T17:08:28.352Z</time>
      </trkpt>
      <trkpt lat="43.31701040267944" lon="-1.560380458831787">
        <ele>58.62870253088887</ele>
        <time>2021-08-05T17:08:35.090Z</time>
      </trkpt>
      <trkpt lat="43.3166241645813" lon="-1.5607774257659912">
        <ele>59.77363542399752</ele>
        <time>2021-08-05T17:08:41.836Z</time>
      </trkpt>
      <trkpt lat="43.31643104553223" lon="-1.5613031387329102">
        <ele>60.800760145474925</ele>
        <time>2021-08-05T17:08:48.589Z</time>
      </trkpt>
      <trkpt lat="43.316227197647095" lon="-1.5619683265686035">
        <ele>61.95189808711376</ele>
        <time>2021-08-05T17:08:55.350Z</time>
      </trkpt>
      <trkpt lat="43.315937519073486" lon="-1.5627729892730713">
        <ele>63.06229131550612</ele>
        <time>2021-08-05T17:09:02.121Z</time>
      </trkpt>
      <trkpt lat="43.31540107727051" lon="-1.564028263092041">
        <ele>64.04540194329759</ele>
        <time>2021-08-05T17:09:08.909Z</time>
      </trkpt>
      <trkpt lat="43.315293872728944" lon="-1.5643608570098877">
        <ele>64.97665993770778</ele>
        <time>2021-08-05T17:09:15.702Z</time>
      </trkpt>
      <trkpt lat="43.315250957384706" lon="-1.5645325183868408">
        <ele>65.82255405282157</ele>
        <time>2021-08-05T17:09:22.497Z</time>
      </trkpt>
      <trkpt lat="43.31506848335266" lon="-1.5652620792388916">
        <ele>66.54858119137783</ele>
        <time>2021-08-05T17:09:29.301Z</time>
      </trkpt>
      <trkpt lat="43.31483244895935" lon="-1.565777063369751">
        <ele>67.24250741554859</ele>
        <time>2021-08-05T17:09:36.112Z</time>
      </trkpt>
      <trkpt lat="43.31458568572998" lon="-1.5664100646972656">
        <ele>67.88196999888171</ele>
        <time>2021-08-05T17:09:42.931Z</time>
      </trkpt>
      <trkpt lat="43.31441402435303" lon="-1.5670323371887207">
        <ele>68.57251072801313</ele>
        <time>2021-08-05T17:09:49.758Z</time>
      </trkpt>
      <trkpt lat="43.314253091812134" lon="-1.5672791004180908">
        <ele>69.04822448982388</ele>
        <time>2021-08-05T17:09:56.589Z</time>
      </trkpt>
      <trkpt lat="43.31413507461548" lon="-1.5674185752868652">
        <ele>69.26525405622407</ele>
        <time>2021-08-05T17:10:03.422Z</time>
      </trkpt>
      <trkpt lat="43.313984870910645" lon="-1.567472219467163">
        <ele>69.33201017985078</ele>
        <time>2021-08-05T17:10:10.258Z</time>
      </trkpt>
      <trkpt lat="43.31393122673035" lon="-1.5674400329589844">
        <ele>69.24735368094161</ele>
        <time>2021-08-05T17:10:17.095Z</time>
      </trkpt>
      <trkpt lat="43.31385612487793" lon="-1.5673434734344482">
        <ele>69.0276645290545</ele>
        <time>2021-08-05T17:10:23.933Z</time>
      </trkpt>
      <trkpt lat="43.31366308964789" lon="-1.5672683715820312">
        <ele>68.63675508136052</ele>
        <time>2021-08-05T17:10:30.775Z</time>
      </trkpt>
      <trkpt lat="43.31366300582886" lon="-1.5672683715820312">
        <ele>68.07231010766283</ele>
        <time>2021-08-05T17:10:37.617Z</time>
      </trkpt>
      <trkpt lat="43.313480615615845" lon="-1.5672147274017334">
        <ele>67.38970417973621</ele>
        <time>2021-08-05T17:10:44.462Z</time>
      </trkpt>
      <trkpt lat="43.31318020820618" lon="-1.5671825408935547">
        <ele>66.48720369360674</ele>
        <time>2021-08-05T17:10:51.312Z</time>
      </trkpt>
      <trkpt lat="43.313008630648255" lon="-1.5672791004180908">
        <ele>65.49204132623508</ele>
        <time>2021-08-05T17:10:58.164Z</time>
      </trkpt>
      <trkpt lat="43.311742544174194" lon="-1.5688776969909668">
        <ele>64.35602977446855</ele>
        <time>2021-08-05T17:11:05.044Z</time>
      </trkpt>
      <trkpt lat="43.31136703491211" lon="-1.569371223449707">
        <ele>62.948660267923344</ele>
        <time>2021-08-05T17:11:11.932Z</time>
      </trkpt>
      <trkpt lat="43.31105589866638" lon="-1.5697360038757324">
        <ele>61.46651815447085</ele>
        <time>2021-08-05T17:11:18.827Z</time>
      </trkpt>
      <trkpt lat="43.31087350845337" lon="-1.5698862075805664">
        <ele>59.980647893139036</ele>
        <time>2021-08-05T17:11:25.725Z</time>
      </trkpt>
      <trkpt lat="43.31036925315857" lon="-1.570197343826294">
        <ele>58.166787414730265</ele>
        <time>2021-08-05T17:11:32.632Z</time>
      </trkpt>
      <trkpt lat="43.31016548909247" lon="-1.5703904628753662">
        <ele>56.585759155872275</ele>
        <time>2021-08-05T17:11:39.543Z</time>
      </trkpt>
      <trkpt lat="43.30992937088013" lon="-1.5712165832519531">
        <ele>55.00851178701627</ele>
        <time>2021-08-05T17:11:46.464Z</time>
      </trkpt>
      <trkpt lat="43.30987572669983" lon="-1.571366786956787">
        <ele>53.645460702415775</ele>
        <time>2021-08-05T17:11:53.387Z</time>
      </trkpt>
      <trkpt lat="43.30980062484741" lon="-1.571645736694336">
        <ele>52.36115744071557</ele>
        <time>2021-08-05T17:12:00.314Z</time>
      </trkpt>
      <trkpt lat="43.309693336486816" lon="-1.5720105171203613">
        <ele>51.194339572507985</ele>
        <time>2021-08-05T17:12:07.246Z</time>
      </trkpt>
      <trkpt lat="43.3096718788147" lon="-1.5721821784973145">
        <ele>50.09754843463361</ele>
        <time>2021-08-05T17:12:14.180Z</time>
      </trkpt>
      <trkpt lat="43.30968269146979" lon="-1.5722143650054932">
        <ele>49.10617670773489</ele>
        <time>2021-08-05T17:12:21.114Z</time>
      </trkpt>
      <trkpt lat="43.30966114997864" lon="-1.5723109245300293">
        <ele>48.2244085260122</ele>
        <time>2021-08-05T17:12:28.049Z</time>
      </trkpt>
      <trkpt lat="43.30959677696228" lon="-1.572343111038208">
        <ele>47.45833375179833</ele>
        <time>2021-08-05T17:12:34.985Z</time>
      </trkpt>
      <trkpt lat="43.309510946273804" lon="-1.5727615356445312">
        <ele>46.932239405122985</ele>
        <time>2021-08-05T17:12:41.926Z</time>
      </trkpt>
      <trkpt lat="43.3094681147486" lon="-1.5732550621032715">
        <ele>46.5264254256069</ele>
        <time>2021-08-05T17:12:48.873Z</time>
      </trkpt>
      <trkpt lat="43.309446573257446" lon="-1.5740489959716797">
        <ele>46.3848534198323</ele>
        <time>2021-08-05T17:12:55.829Z</time>
      </trkpt>
      <trkpt lat="43.30939292907715" lon="-1.5740704536437988">
        <ele>46.14447131363103</ele>
        <time>2021-08-05T17:13:02.786Z</time>
      </trkpt>
      <trkpt lat="43.30929636955261" lon="-1.574263572692871">
        <ele>46.06370282302785</ele>
        <time>2021-08-05T17:13:09.746Z</time>
      </trkpt>
      <trkpt lat="43.30886729992926" lon="-1.5752935409545898">
        <ele>45.86678624354656</ele>
        <time>2021-08-05T17:13:16.720Z</time>
      </trkpt>
      <trkpt lat="43.308759927749634" lon="-1.5756046772003174">
        <ele>45.92795687686046</ele>
        <time>2021-08-05T17:13:23.698Z</time>
      </trkpt>
      <trkpt lat="43.30867409706116" lon="-1.5761089324951172">
        <ele>46.14529332507469</ele>
        <time>2021-08-05T17:13:30.682Z</time>
      </trkpt>
      <trkpt lat="43.3086633682251" lon="-1.5765702724456787">
        <ele>46.53081051528798</ele>
        <time>2021-08-05T17:13:37.671Z</time>
      </trkpt>
      <trkpt lat="43.308695554733276" lon="-1.5769243240356445">
        <ele>47.11924573909404</ele>
        <time>2021-08-05T17:13:44.665Z</time>
      </trkpt>
      <trkpt lat="43.30880284309387" lon="-1.5774929523468018">
        <ele>47.85029814213311</ele>
        <time>2021-08-05T17:13:51.665Z</time>
      </trkpt>
      <trkpt lat="43.30881357192993" lon="-1.5776968002319336">
        <ele>48.76788357015315</ele>
        <time>2021-08-05T17:13:58.668Z</time>
      </trkpt>
      <trkpt lat="43.308759927749634" lon="-1.578587293624878">
        <ele>49.83994166387292</ele>
        <time>2021-08-05T17:14:05.681Z</time>
      </trkpt>
      <trkpt lat="43.308759927749634" lon="-1.5791988372802734">
        <ele>51.11413433603198</ele>
        <time>2021-08-05T17:14:12.701Z</time>
      </trkpt>
      <trkpt lat="43.308717012405396" lon="-1.5796387195587158">
        <ele>52.503105259151</ele>
        <time>2021-08-05T17:14:19.727Z</time>
      </trkpt>
      <trkpt lat="43.308727741241455" lon="-1.5798211097717285">
        <ele>54.03461740664623</ele>
        <time>2021-08-05T17:14:26.755Z</time>
      </trkpt>
      <trkpt lat="43.30882430076599" lon="-1.5802931785583496">
        <ele>55.72599735189121</ele>
        <time>2021-08-05T17:14:33.788Z</time>
      </trkpt>
      <trkpt lat="43.30866345204413" lon="-1.580357551574707">
        <ele>57.50545134836584</ele>
        <time>2021-08-05T17:14:40.824Z</time>
      </trkpt>
      <trkpt lat="43.3081591129303" lon="-1.5806150436401367">
        <ele>59.511311370638964</ele>
        <time>2021-08-05T17:14:47.869Z</time>
      </trkpt>
      <trkpt lat="43.30809473991394" lon="-1.580657958984375">
        <ele>61.56159742902733</ele>
        <time>2021-08-05T17:14:54.915Z</time>
      </trkpt>
      <trkpt lat="43.30785870552063" lon="-1.580958366394043">
        <ele>63.77928136223721</ele>
        <time>2021-08-05T17:15:01.966Z</time>
      </trkpt>
      <trkpt lat="43.30761194229126" lon="-1.5812373161315918">
        <ele>66.08935269409243</ele>
        <time>2021-08-05T17:15:09.022Z</time>
      </trkpt>
      <trkpt lat="43.30710768699646" lon="-1.581559181213379">
        <ele>68.6974960618154</ele>
        <time>2021-08-05T17:15:16.087Z</time>
      </trkpt>
      <trkpt lat="43.306957483291626" lon="-1.5816450119018555">
        <ele>71.0907563799063</ele>
        <time>2021-08-05T17:15:23.155Z</time>
      </trkpt>
      <trkpt lat="43.30617427825928" lon="-1.5820527076721191">
        <ele>74.07934140536219</ele>
        <time>2021-08-05T17:15:30.236Z</time>
      </trkpt>
      <trkpt lat="43.305466175079346" lon="-1.5822672843933105">
        <ele>76.83299487351806</ele>
        <time>2021-08-05T17:15:37.329Z</time>
      </trkpt>
      <trkpt lat="43.30532670021057" lon="-1.5823638439178467">
        <ele>79.13958344561652</ele>
        <time>2021-08-05T17:15:44.424Z</time>
      </trkpt>
      <trkpt lat="43.305240869522095" lon="-1.5824496746063232">
        <ele>81.36327323631878</ele>
        <time>2021-08-05T17:15:51.521Z</time>
      </trkpt>
      <trkpt lat="43.305208683013916" lon="-1.5824496746063232">
        <ele>83.45918192700334</ele>
        <time>2021-08-05T17:15:58.618Z</time>
      </trkpt>
      <trkpt lat="43.30487608909607" lon="-1.583007574081421">
        <ele>85.4585880408391</ele>
        <time>2021-08-05T17:16:05.724Z</time>
      </trkpt>
      <trkpt lat="43.304725885391235" lon="-1.5833079814910889">
        <ele>87.34100465105661</ele>
        <time>2021-08-05T17:16:12.834Z</time>
      </trkpt>
      <trkpt lat="43.30444701947272" lon="-1.5839409828186035">
        <ele>89.22759890843096</ele>
        <time>2021-08-05T17:16:19.953Z</time>
      </trkpt>
      <trkpt lat="43.30436118878424" lon="-1.584155559539795">
        <ele>90.85702872181749</ele>
        <time>2021-08-05T17:16:27.074Z</time>
      </trkpt>
      <trkpt lat="43.30416798591614" lon="-1.5848207473754883">
        <ele>92.31667113295619</ele>
        <time>2021-08-05T17:16:34.204Z</time>
      </trkpt>
      <trkpt lat="43.303974866867065" lon="-1.5856897830963135">
        <ele>93.65961426607093</ele>
        <time>2021-08-05T17:16:41.344Z</time>
      </trkpt>
      <trkpt lat="43.30391049385071" lon="-1.5858721733093262">
        <ele>94.8578700364491</ele>
        <time>2021-08-05T17:16:48.487Z</time>
      </trkpt>
      <trkpt lat="43.30384612083435" lon="-1.5859687328338623">
        <ele>95.9156103119694</ele>
        <time>2021-08-05T17:16:55.631Z</time>
      </trkpt>
      <trkpt lat="43.30364235676825" lon="-1.5862369537353516">
        <ele>96.84471335734153</ele>
        <time>2021-08-05T17:17:02.780Z</time>
      </trkpt>
      <trkpt lat="43.30308445729315" lon="-1.586923599243164">
        <ele>97.64239290898777</ele>
        <time>2021-08-05T17:17:09.941Z</time>
      </trkpt>
      <trkpt lat="43.3029664400965" lon="-1.587052345275879">
        <ele>98.31595876706294</ele>
        <time>2021-08-05T17:17:17.104Z</time>
      </trkpt>
      <trkpt lat="43.30283769406378" lon="-1.587202548980713">
        <ele>98.87049078498939</ele>
        <time>2021-08-05T17:17:24.270Z</time>
      </trkpt>
      <trkpt lat="43.30283761024475" lon="-1.587202548980713">
        <ele>99.32062619363029</ele>
        <time>2021-08-05T17:17:31.436Z</time>
      </trkpt>
      <trkpt lat="43.30260165967047" lon="-1.5874600410461426">
        <ele>99.71276781543229</ele>
        <time>2021-08-05T17:17:38.607Z</time>
      </trkpt>
      <trkpt lat="43.302204608917236" lon="-1.5879106521606445">
        <ele>100.0033765443825</ele>
        <time>2021-08-05T17:17:45.786Z</time>
      </trkpt>
      <trkpt lat="43.30214031971991" lon="-1.5880072116851807">
        <ele>100.16551191610597</ele>
        <time>2021-08-05T17:17:52.967Z</time>
      </trkpt>
      <trkpt lat="43.30207586288452" lon="-1.5881681442260742">
        <ele>100.25682866954347</ele>
        <time>2021-08-05T17:18:00.150Z</time>
      </trkpt>
      <trkpt lat="43.30203294754028" lon="-1.5883183479309082">
        <ele>100.27968745227471</ele>
        <time>2021-08-05T17:18:07.335Z</time>
      </trkpt>
      <trkpt lat="43.301990032196045" lon="-1.5886831283569336">
        <ele>100.32304225233675</ele>
        <time>2021-08-05T17:18:14.524Z</time>
      </trkpt>
      <trkpt lat="43.30188274383545" lon="-1.589294672012329">
        <ele>100.25599694630084</ele>
        <time>2021-08-05T17:18:21.720Z</time>
      </trkpt>
      <trkpt lat="43.30168962478638" lon="-1.5899062156677246">
        <ele>100.04931026558529</ele>
        <time>2021-08-05T17:18:28.924Z</time>
      </trkpt>
      <trkpt lat="43.30157160758972" lon="-1.5901529788970947">
        <ele>99.68762878481346</ele>
        <time>2021-08-05T17:18:36.132Z</time>
      </trkpt>
      <trkpt lat="43.301453590393066" lon="-1.5902817249298096">
        <ele>99.25109902548425</ele>
        <time>2021-08-05T17:18:43.342Z</time>
      </trkpt>
      <trkpt lat="43.30130338668823" lon="-1.5903997421264648">
        <ele>98.75552247314299</ele>
        <time>2021-08-05T17:18:50.555Z</time>
      </trkpt>
      <trkpt lat="43.30112108029425" lon="-1.5905070304870605">
        <ele>98.21123146581445</ele>
        <time>2021-08-05T17:18:57.771Z</time>
      </trkpt>
      <trkpt lat="43.30112099647522" lon="-1.5905070304870605">
        <ele>97.61967248837051</ele>
        <time>2021-08-05T17:19:04.987Z</time>
      </trkpt>
      <trkpt lat="43.30061674118042" lon="-1.5899062156677246">
        <ele>96.95345475747168</ele>
        <time>2021-08-05T17:19:12.214Z</time>
      </trkpt>
      <trkpt lat="43.30044507980347" lon="-1.589745283126831">
        <ele>96.28330661825845</ele>
        <time>2021-08-05T17:19:19.444Z</time>
      </trkpt>
      <trkpt lat="43.30031633377075" lon="-1.5896809101104736">
        <ele>95.66277129531113</ele>
        <time>2021-08-05T17:19:26.676Z</time>
      </trkpt>
      <trkpt lat="43.29938292503357" lon="-1.5893268585205078">
        <ele>94.99714615500221</ele>
        <time>2021-08-05T17:19:33.924Z</time>
      </trkpt>
      <trkpt lat="43.29910397529602" lon="-1.5893161296844482">
        <ele>94.42248638058834</ele>
        <time>2021-08-05T17:19:41.176Z</time>
      </trkpt>
      <trkpt lat="43.29832077026367" lon="-1.5895307064056396">
        <ele>93.72985398058485</ele>
        <time>2021-08-05T17:19:48.441Z</time>
      </trkpt>
      <trkpt lat="43.29806327819824" lon="-1.589595079421997">
        <ele>93.31610527015724</ele>
        <time>2021-08-05T17:19:55.710Z</time>
      </trkpt>
      <trkpt lat="43.29781651496887" lon="-1.589723825454712">
        <ele>93.06325381319078</ele>
        <time>2021-08-05T17:20:02.983Z</time>
      </trkpt>
      <trkpt lat="43.2975697517395" lon="-1.589949131011963">
        <ele>93.00542296679961</ele>
        <time>2021-08-05T17:20:10.261Z</time>
      </trkpt>
      <trkpt lat="43.29732298851013" lon="-1.5903246402740479">
        <ele>93.1941297142954</ele>
        <time>2021-08-05T17:20:17.545Z</time>
      </trkpt>
      <trkpt lat="43.29704403877258" lon="-1.5905392169952393">
        <ele>93.49277344975447</ele>
        <time>2021-08-05T17:20:24.834Z</time>
      </trkpt>
      <trkpt lat="43.29642176628113" lon="-1.590946912765503">
        <ele>93.92037567320014</ele>
        <time>2021-08-05T17:20:32.134Z</time>
      </trkpt>
      <trkpt lat="43.29564929008484" lon="-1.5915048122406006">
        <ele>94.73767151542755</ele>
        <time>2021-08-05T17:20:39.448Z</time>
      </trkpt>
      <trkpt lat="43.294984102249146" lon="-1.592191457748413">
        <ele>95.84284545323396</ele>
        <time>2021-08-05T17:20:46.775Z</time>
      </trkpt>
      <trkpt lat="43.294769525527954" lon="-1.5923738479614258">
        <ele>97.02775389588865</ele>
        <time>2021-08-05T17:20:54.106Z</time>
      </trkpt>
      <trkpt lat="43.2945442199707" lon="-1.5925025939941406">
        <ele>98.50311485268494</ele>
        <time>2021-08-05T17:21:01.441Z</time>
      </trkpt>
      <trkpt lat="43.29407215118408" lon="-1.5926635265350342">
        <ele>100.10177287858883</ele>
        <time>2021-08-05T17:21:08.784Z</time>
      </trkpt>
      <trkpt lat="43.293750286102295" lon="-1.5928244590759277">
        <ele>101.79701529187074</ele>
        <time>2021-08-05T17:21:16.133Z</time>
      </trkpt>
      <trkpt lat="43.29337477684021" lon="-1.5932643413543701">
        <ele>103.82996011045591</ele>
        <time>2021-08-05T17:21:23.489Z</time>
      </trkpt>
      <trkpt lat="43.293235301971436" lon="-1.5933501720428467">
        <ele>105.757275987754</ele>
        <time>2021-08-05T17:21:30.848Z</time>
      </trkpt>
      <trkpt lat="43.29284906387329" lon="-1.5934789180755615">
        <ele>107.80431958568091</ele>
        <time>2021-08-05T17:21:38.213Z</time>
      </trkpt>
      <trkpt lat="43.2926881313324" lon="-1.5935754776000977">
        <ele>109.82101775909281</ele>
        <time>2021-08-05T17:21:45.581Z</time>
      </trkpt>
      <trkpt lat="43.29184055328369" lon="-1.5942728519439697">
        <ele>112.0240919556185</ele>
        <time>2021-08-05T17:21:52.965Z</time>
      </trkpt>
      <trkpt lat="43.29164743423462" lon="-1.594465970993042">
        <ele>113.84415260954106</ele>
        <time>2021-08-05T17:22:00.353Z</time>
      </trkpt>
      <trkpt lat="43.29154014587402" lon="-1.5946054458618164">
        <ele>115.63512461301988</ele>
        <time>2021-08-05T17:22:07.743Z</time>
      </trkpt>
      <trkpt lat="43.29129338264465" lon="-1.59501314163208">
        <ele>117.51949288233396</ele>
        <time>2021-08-05T17:22:15.139Z</time>
      </trkpt>
      <trkpt lat="43.29116463661194" lon="-1.595163345336914">
        <ele>119.0364764184591</ele>
        <time>2021-08-05T17:22:22.538Z</time>
      </trkpt>
      <trkpt lat="43.290982246398926" lon="-1.5953028202056885">
        <ele>120.32785642753882</ele>
        <time>2021-08-05T17:22:29.940Z</time>
      </trkpt>
      <trkpt lat="43.290778398513794" lon="-1.595367193222046">
        <ele>121.4872020590004</ele>
        <time>2021-08-05T17:22:37.346Z</time>
      </trkpt>
      <trkpt lat="43.29058527946472" lon="-1.5954530239105225">
        <ele>122.57832448935116</ele>
        <time>2021-08-05T17:22:44.755Z</time>
      </trkpt>
      <trkpt lat="43.29042434692383" lon="-1.5955817699432373">
        <ele>123.64048798687439</ele>
        <time>2021-08-05T17:22:52.167Z</time>
      </trkpt>
      <trkpt lat="43.290274143218994" lon="-1.5958499908447266">
        <ele>124.63941385044865</ele>
        <time>2021-08-05T17:22:59.583Z</time>
      </trkpt>
      <trkpt lat="43.29020977020264" lon="-1.5961182117462158">
        <ele>125.51568092869493</ele>
        <time>2021-08-05T17:23:07.002Z</time>
      </trkpt>
      <trkpt lat="43.29013466835022" lon="-1.596815586090088">
        <ele>126.73910855355064</ele>
        <time>2021-08-05T17:23:14.429Z</time>
      </trkpt>
      <trkpt lat="43.29008102416992" lon="-1.5970087051391602">
        <ele>127.43007353700656</ele>
        <time>2021-08-05T17:23:21.859Z</time>
      </trkpt>
      <trkpt lat="43.290005922317505" lon="-1.5971481800079346">
        <ele>127.85728134516013</ele>
        <time>2021-08-05T17:23:29.291Z</time>
      </trkpt>
      <trkpt lat="43.28946956433356" lon="-1.5976524353027344">
        <ele>127.87047120204255</ele>
        <time>2021-08-05T17:23:36.733Z</time>
      </trkpt>
      <trkpt lat="43.28894376754761" lon="-1.5981781482696533">
        <ele>127.77154605170215</ele>
        <time>2021-08-05T17:23:44.186Z</time>
      </trkpt>
      <trkpt lat="43.288772106170654" lon="-1.598435640335083">
        <ele>127.60769383376667</ele>
        <time>2021-08-05T17:23:51.643Z</time>
      </trkpt>
      <trkpt lat="43.288471698760986" lon="-1.5989720821380615">
        <ele>127.30603126828947</ele>
        <time>2021-08-05T17:23:59.108Z</time>
      </trkpt>
      <trkpt lat="43.288289308547974" lon="-1.5993475914001465">
        <ele>127.05380958408375</ele>
        <time>2021-08-05T17:24:06.578Z</time>
      </trkpt>
      <trkpt lat="43.288021171465516" lon="-1.6000020503997803">
        <ele>126.76711209571366</ele>
        <time>2021-08-05T17:24:14.057Z</time>
      </trkpt>
      <trkpt lat="43.288021087646484" lon="-1.6000020503997803">
        <ele>126.40508837920923</ele>
        <time>2021-08-05T17:24:21.536Z</time>
      </trkpt>
      <trkpt lat="43.287978172302246" lon="-1.6001307964324951">
        <ele>126.01994123791039</ele>
        <time>2021-08-05T17:24:29.016Z</time>
      </trkpt>
      <trkpt lat="43.28781723976135" lon="-1.600635051727295">
        <ele>125.63561387185948</ele>
        <time>2021-08-05T17:24:36.503Z</time>
      </trkpt>
      <trkpt lat="43.28763484954834" lon="-1.6010856628417969">
        <ele>125.30870054357842</ele>
        <time>2021-08-05T17:24:43.996Z</time>
      </trkpt>
      <trkpt lat="43.287248611450195" lon="-1.601879596710205">
        <ele>124.77615445231645</ele>
        <time>2021-08-05T17:24:51.500Z</time>
      </trkpt>
      <trkpt lat="43.28660488128662" lon="-1.602780818939209">
        <ele>123.97819825041023</ele>
        <time>2021-08-05T17:24:59.019Z</time>
      </trkpt>
      <trkpt lat="43.286293745040894" lon="-1.6032850742340088">
        <ele>123.63241621840004</ele>
        <time>2021-08-05T17:25:06.545Z</time>
      </trkpt>
      <trkpt lat="43.28619718551636" lon="-1.6036176681518555">
        <ele>123.3268454416899</ele>
        <time>2021-08-05T17:25:14.076Z</time>
      </trkpt>
      <trkpt lat="43.28610062599182" lon="-1.6041111946105957">
        <ele>123.12405367941486</ele>
        <time>2021-08-05T17:25:21.613Z</time>
      </trkpt>
      <trkpt lat="43.28606843948364" lon="-1.6044330596923828">
        <ele>122.94738492187943</ele>
        <time>2021-08-05T17:25:29.153Z</time>
      </trkpt>
      <trkpt lat="43.2861328125" lon="-1.6050446033477783">
        <ele>123.03762004956081</ele>
        <time>2021-08-05T17:25:36.701Z</time>
      </trkpt>
      <trkpt lat="43.2860791683197" lon="-1.6053342819213867">
        <ele>123.1964866036369</ele>
        <time>2021-08-05T17:25:44.252Z</time>
      </trkpt>
      <trkpt lat="43.285993337631226" lon="-1.6055917739868164">
        <ele>123.41385892460096</ele>
        <time>2021-08-05T17:25:51.806Z</time>
      </trkpt>
      <trkpt lat="43.28583240509033" lon="-1.6058385372161865">
        <ele>123.75816298132938</ele>
        <time>2021-08-05T17:25:59.364Z</time>
      </trkpt>
      <trkpt lat="43.28511357307434" lon="-1.6067397594451904">
        <ele>124.32983495217631</ele>
        <time>2021-08-05T17:26:06.938Z</time>
      </trkpt>
      <trkpt lat="43.284995555877686" lon="-1.6070079803466797">
        <ele>124.95736456889925</ele>
        <time>2021-08-05T17:26:14.515Z</time>
      </trkpt>
      <trkpt lat="43.284974098205566" lon="-1.6074800491333008">
        <ele>125.5010716302298</ele>
        <time>2021-08-05T17:26:22.098Z</time>
      </trkpt>
      <trkpt lat="43.284995555877686" lon="-1.6077589988708496">
        <ele>126.06704640895555</ele>
        <time>2021-08-05T17:26:29.684Z</time>
      </trkpt>
      <trkpt lat="43.28505992889404" lon="-1.6085100173950195">
        <ele>126.66753812995682</ele>
        <time>2021-08-05T17:26:37.279Z</time>
      </trkpt>
      <trkpt lat="43.28510284423828" lon="-1.60874605178833">
        <ele>127.39236739757692</ele>
        <time>2021-08-05T17:26:44.877Z</time>
      </trkpt>
      <trkpt lat="43.2851243019104" lon="-1.608971357345581">
        <ele>128.20612752670505</ele>
        <time>2021-08-05T17:26:52.478Z</time>
      </trkpt>
      <trkpt lat="43.28508138656616" lon="-1.6092824935913086">
        <ele>129.22865729387374</ele>
        <time>2021-08-05T17:27:00.082Z</time>
      </trkpt>
      <trkpt lat="43.284974098205566" lon="-1.6095077991485596">
        <ele>130.30858655145465</ele>
        <time>2021-08-05T17:27:07.689Z</time>
      </trkpt>
      <trkpt lat="43.284480571746826" lon="-1.6099905967712402">
        <ele>131.68553519574215</ele>
        <time>2021-08-05T17:27:15.306Z</time>
      </trkpt>
      <trkpt lat="43.28430891036987" lon="-1.6102588176727295">
        <ele>132.66521130362818</ele>
        <time>2021-08-05T17:27:22.927Z</time>
      </trkpt>
      <trkpt lat="43.28421235084534" lon="-1.6105914115905762">
        <ele>133.7157505549314</ele>
        <time>2021-08-05T17:27:30.553Z</time>
      </trkpt>
      <trkpt lat="43.28412652015686" lon="-1.6112351417541504">
        <ele>134.74165884245633</ele>
        <time>2021-08-05T17:27:38.186Z</time>
      </trkpt>
      <trkpt lat="43.28407287597656" lon="-1.6116321086883545">
        <ele>135.65628199626235</ele>
        <time>2021-08-05T17:27:45.824Z</time>
      </trkpt>
      <trkpt lat="43.28405141830444" lon="-1.6120290756225586">
        <ele>136.55461374551004</ele>
        <time>2021-08-05T17:27:53.467Z</time>
      </trkpt>
      <trkpt lat="43.283997774124146" lon="-1.612393856048584">
        <ele>137.5251819748442</ele>
        <time>2021-08-05T17:28:01.114Z</time>
      </trkpt>
      <trkpt lat="43.28387975692749" lon="-1.6127586364746094">
        <ele>138.3738405417442</ele>
        <time>2021-08-05T17:28:08.766Z</time>
      </trkpt>
      <trkpt lat="43.283793926239014" lon="-1.6130590438842773">
        <ele>139.31827093150545</ele>
        <time>2021-08-05T17:28:16.421Z</time>
      </trkpt>
      <trkpt lat="43.283751010894775" lon="-1.6134238243103027">
        <ele>139.97834843895515</ele>
        <time>2021-08-05T17:28:24.081Z</time>
      </trkpt>
      <trkpt lat="43.283751010894775" lon="-1.6137993335723877">
        <ele>140.52048941986743</ele>
        <time>2021-08-05T17:28:31.745Z</time>
      </trkpt>
      <trkpt lat="43.28386902809143" lon="-1.614292860031128">
        <ele>141.23481619110606</ele>
        <time>2021-08-05T17:28:39.415Z</time>
      </trkpt>
      <trkpt lat="43.28385829925537" lon="-1.6145074367523193">
        <ele>142.01491327499318</ele>
        <time>2021-08-05T17:28:47.088Z</time>
      </trkpt>
      <trkpt lat="43.28380465507507" lon="-1.6147434711456299">
        <ele>142.97728803076308</ele>
        <time>2021-08-05T17:28:54.764Z</time>
      </trkpt>
      <trkpt lat="43.28365445137024" lon="-1.6151511669158936">
        <ele>143.92707447783204</ele>
        <time>2021-08-05T17:29:02.445Z</time>
      </trkpt>
      <trkpt lat="43.28362226486206" lon="-1.615387201309204">
        <ele>144.99092930024273</ele>
        <time>2021-08-05T17:29:10.129Z</time>
      </trkpt>
      <trkpt lat="43.28362226486206" lon="-1.6156017780303955">
        <ele>146.15974666859904</ele>
        <time>2021-08-05T17:29:17.815Z</time>
      </trkpt>
      <trkpt lat="43.28365445137024" lon="-1.6158592700958252">
        <ele>147.51294619238945</ele>
        <time>2021-08-05T17:29:25.504Z</time>
      </trkpt>
      <trkpt lat="43.28385829925537" lon="-1.6164815425872803">
        <ele>149.0933658393921</ele>
        <time>2021-08-05T17:29:33.201Z</time>
      </trkpt>
      <trkpt lat="43.284244537353516" lon="-1.617361307144165">
        <ele>150.24734752584544</ele>
        <time>2021-08-05T17:29:40.910Z</time>
      </trkpt>
      <trkpt lat="43.28460931777954" lon="-1.6185200214385986">
        <ele>152.1213407096363</ele>
        <time>2021-08-05T17:29:48.634Z</time>
      </trkpt>
      <trkpt lat="43.28471660614014" lon="-1.6189813613891602">
        <ele>153.7306010768949</ele>
        <time>2021-08-05T17:29:56.364Z</time>
      </trkpt>
      <trkpt lat="43.284727334976196" lon="-1.6193032264709473">
        <ele>155.58559804938818</ele>
        <time>2021-08-05T17:30:04.097Z</time>
      </trkpt>
      <trkpt lat="43.28465231694281" lon="-1.621180772781372">
        <ele>158.06295968821277</ele>
        <time>2021-08-05T17:30:11.852Z</time>
      </trkpt>
      <trkpt lat="43.28465223312378" lon="-1.621180772781372">
        <ele>160.27451253026095</ele>
        <time>2021-08-05T17:30:19.607Z</time>
      </trkpt>
      <trkpt lat="43.2845664024353" lon="-1.6216742992401123">
        <ele>162.70283256601692</ele>
        <time>2021-08-05T17:30:27.368Z</time>
      </trkpt>
      <trkpt lat="43.28455567359924" lon="-1.6220176219940186">
        <ele>165.24236384226356</ele>
        <time>2021-08-05T17:30:35.133Z</time>
      </trkpt>
      <trkpt lat="43.28464150428772" lon="-1.6225433349609375">
        <ele>168.03752189080222</ele>
        <time>2021-08-05T17:30:42.905Z</time>
      </trkpt>
      <trkpt lat="43.284512758255005" lon="-1.6245603561401367">
        <ele>171.46427892135978</ele>
        <time>2021-08-05T17:30:50.700Z</time>
      </trkpt>
      <trkpt lat="43.28444838523865" lon="-1.6249680519104004">
        <ele>174.50685426592693</ele>
        <time>2021-08-05T17:30:58.500Z</time>
      </trkpt>
      <trkpt lat="43.2841694355011" lon="-1.6260838508605957">
        <ele>177.7591153636489</ele>
        <time>2021-08-05T17:31:06.314Z</time>
      </trkpt>
      <trkpt lat="43.2837188243866" lon="-1.626598834991455">
        <ele>180.8718327595646</ele>
        <time>2021-08-05T17:31:14.137Z</time>
      </trkpt>
      <trkpt lat="43.283321941271424" lon="-1.6271674633026123">
        <ele>184.1418209713661</ele>
        <time>2021-08-05T17:31:21.969Z</time>
      </trkpt>
      <trkpt lat="43.28306436538696" lon="-1.6276288032531738">
        <ele>187.3903818446124</ele>
        <time>2021-08-05T17:31:29.808Z</time>
      </trkpt>
      <trkpt lat="43.28296780586243" lon="-1.6278541088104248">
        <ele>190.41358742184514</ele>
        <time>2021-08-05T17:31:37.650Z</time>
      </trkpt>
      <trkpt lat="43.28292489051819" lon="-1.6280579566955566">
        <ele>193.5768339013993</ele>
        <time>2021-08-05T17:31:45.495Z</time>
      </trkpt>
      <trkpt lat="43.28289270401001" lon="-1.6284120082855225">
        <ele>196.63294087712202</ele>
        <time>2021-08-05T17:31:53.344Z</time>
      </trkpt>
      <trkpt lat="43.282817685976624" lon="-1.6286158561706543">
        <ele>199.56822296048335</ele>
        <time>2021-08-05T17:32:01.196Z</time>
      </trkpt>
      <trkpt lat="43.2826030254364" lon="-1.628948450088501">
        <ele>202.45109111997508</ele>
        <time>2021-08-05T17:32:09.053Z</time>
      </trkpt>
      <trkpt lat="43.28180909156799" lon="-1.6300749778747559">
        <ele>205.86690914188765</ele>
        <time>2021-08-05T17:32:16.928Z</time>
      </trkpt>
      <trkpt lat="43.28166961669922" lon="-1.630246639251709">
        <ele>208.6577807327543</ele>
        <time>2021-08-05T17:32:24.806Z</time>
      </trkpt>
      <trkpt lat="43.28145503997803" lon="-1.6303431987762451">
        <ele>211.3175791696546</ele>
        <time>2021-08-05T17:32:32.688Z</time>
      </trkpt>
      <trkpt lat="43.280779123306274" lon="-1.6304826736450195">
        <ele>214.39369860043655</ele>
        <time>2021-08-05T17:32:40.581Z</time>
      </trkpt>
      <trkpt lat="43.2806396484375" lon="-1.630568504333496">
        <ele>216.70432656511687</ele>
        <time>2021-08-05T17:32:48.476Z</time>
      </trkpt>
      <trkpt lat="43.28046798706055" lon="-1.6307401657104492">
        <ele>218.83646354211402</ele>
        <time>2021-08-05T17:32:56.375Z</time>
      </trkpt>
      <trkpt lat="43.28041434288025" lon="-1.6309010982513428">
        <ele>220.73253557578033</ele>
        <time>2021-08-05T17:33:04.276Z</time>
      </trkpt>
      <trkpt lat="43.28042507171631" lon="-1.6310513019561768">
        <ele>222.30475448896755</ele>
        <time>2021-08-05T17:33:12.178Z</time>
      </trkpt>
      <trkpt lat="43.280478715896606" lon="-1.6312980651855469">
        <ele>223.62822105265957</ele>
        <time>2021-08-05T17:33:20.083Z</time>
      </trkpt>
      <trkpt lat="43.280543088912964" lon="-1.6314053535461426">
        <ele>224.645120161842</ele>
        <time>2021-08-05T17:33:27.990Z</time>
      </trkpt>
      <trkpt lat="43.28059673309326" lon="-1.6314697265625">
        <ele>225.40258814072277</ele>
        <time>2021-08-05T17:33:35.898Z</time>
      </trkpt>
      <trkpt lat="43.28070402145386" lon="-1.6315126419067383">
        <ele>225.8414747013357</ele>
        <time>2021-08-05T17:33:43.808Z</time>
      </trkpt>
      <trkpt lat="43.28081130981445" lon="-1.6315340995788574">
        <ele>226.02811682005205</ele>
        <time>2021-08-05T17:33:51.720Z</time>
      </trkpt>
      <trkpt lat="43.280993700027466" lon="-1.6314911842346191">
        <ele>225.89112108997801</ele>
        <time>2021-08-05T17:33:59.635Z</time>
      </trkpt>
      <trkpt lat="43.281251192092896" lon="-1.6313624382019043">
        <ele>225.6272494929064</ele>
        <time>2021-08-05T17:34:07.554Z</time>
      </trkpt>
      <trkpt lat="43.28132629394531" lon="-1.6313517093658447">
        <ele>225.25258097020304</ele>
        <time>2021-08-05T17:34:15.474Z</time>
      </trkpt>
      <trkpt lat="43.28142285346985" lon="-1.6313838958740234">
        <ele>224.71133837922895</ele>
        <time>2021-08-05T17:34:23.396Z</time>
      </trkpt>
      <trkpt lat="43.28187346458435" lon="-1.6318345069885254">
        <ele>224.22286658900896</ele>
        <time>2021-08-05T17:34:31.327Z</time>
      </trkpt>
      <trkpt lat="43.28210949897766" lon="-1.6320276260375977">
        <ele>223.43006958263732</ele>
        <time>2021-08-05T17:34:39.262Z</time>
      </trkpt>
      <trkpt lat="43.28236699104309" lon="-1.6321885585784912">
        <ele>222.3008344697488</ele>
        <time>2021-08-05T17:34:47.202Z</time>
      </trkpt>
      <trkpt lat="43.282538652420044" lon="-1.632392406463623">
        <ele>220.98331614593337</ele>
        <time>2021-08-05T17:34:55.145Z</time>
      </trkpt>
      <trkpt lat="43.282999992370605" lon="-1.6332077980041504">
        <ele>219.0882321441514</ele>
        <time>2021-08-05T17:35:03.100Z</time>
      </trkpt>
      <trkpt lat="43.2830536365509" lon="-1.6333365440368652">
        <ele>217.34664725404758</ele>
        <time>2021-08-05T17:35:11.057Z</time>
      </trkpt>
      <trkpt lat="43.28310736455023" lon="-1.6337335109710693">
        <ele>215.3509753081974</ele>
        <time>2021-08-05T17:35:19.019Z</time>
      </trkpt>
      <trkpt lat="43.2831072807312" lon="-1.6337335109710693">
        <ele>213.48063155091643</ele>
        <time>2021-08-05T17:35:26.981Z</time>
      </trkpt>
      <trkpt lat="43.28312873840332" lon="-1.6351711750030518">
        <ele>210.83015670360618</ele>
        <time>2021-08-05T17:35:34.960Z</time>
      </trkpt>
      <trkpt lat="43.28318238258362" lon="-1.6353857517242432">
        <ele>208.79333724014114</ele>
        <time>2021-08-05T17:35:42.941Z</time>
      </trkpt>
      <trkpt lat="43.28336477279663" lon="-1.6356968879699707">
        <ele>206.84928071168588</ele>
        <time>2021-08-05T17:35:50.927Z</time>
      </trkpt>
      <trkpt lat="43.28346133232117" lon="-1.6359436511993408">
        <ele>204.8753888838495</ele>
        <time>2021-08-05T17:35:58.916Z</time>
      </trkpt>
      <trkpt lat="43.283493518829346" lon="-1.636115312576294">
        <ele>202.78515108530894</ele>
        <time>2021-08-05T17:36:06.907Z</time>
      </trkpt>
      <trkpt lat="43.283493518829346" lon="-1.636265516281128">
        <ele>200.60863592548998</ele>
        <time>2021-08-05T17:36:14.900Z</time>
      </trkpt>
      <trkpt lat="43.28346133232117" lon="-1.6364264488220215">
        <ele>198.35763281755362</ele>
        <time>2021-08-05T17:36:22.895Z</time>
      </trkpt>
      <trkpt lat="43.28336477279663" lon="-1.6366302967071533">
        <ele>195.9795753680305</ele>
        <time>2021-08-05T17:36:30.893Z</time>
      </trkpt>
      <trkpt lat="43.28308582305908" lon="-1.6369950771331787">
        <ele>193.26951067176563</ele>
        <time>2021-08-05T17:36:38.897Z</time>
      </trkpt>
      <trkpt lat="43.28295707702637" lon="-1.6372525691986084">
        <ele>190.84689898866128</ele>
        <time>2021-08-05T17:36:46.905Z</time>
      </trkpt>
      <trkpt lat="43.28290343284607" lon="-1.6374456882476807">
        <ele>188.59332205076527</ele>
        <time>2021-08-05T17:36:54.915Z</time>
      </trkpt>
      <trkpt lat="43.28288197517395" lon="-1.6376066207885742">
        <ele>186.4483481709894</ele>
        <time>2021-08-05T17:37:02.927Z</time>
      </trkpt>
      <trkpt lat="43.28286051750183" lon="-1.6382718086242676">
        <ele>184.16462067427796</ele>
        <time>2021-08-05T17:37:10.947Z</time>
      </trkpt>
      <trkpt lat="43.28288197517395" lon="-1.6384649276733398">
        <ele>182.1791647784388</ele>
        <time>2021-08-05T17:37:18.969Z</time>
      </trkpt>
      <trkpt lat="43.28295707702637" lon="-1.6386258602142334">
        <ele>180.35972072742246</ele>
        <time>2021-08-05T17:37:26.993Z</time>
      </trkpt>
      <trkpt lat="43.28313946723938" lon="-1.638883352279663">
        <ele>178.67013037604494</ele>
        <time>2021-08-05T17:37:35.021Z</time>
      </trkpt>
      <trkpt lat="43.283268213272095" lon="-1.6391515731811523">
        <ele>176.9542626759901</ele>
        <time>2021-08-05T17:37:43.053Z</time>
      </trkpt>
      <trkpt lat="43.28332185745239" lon="-1.6393661499023438">
        <ele>175.20492423458234</ele>
        <time>2021-08-05T17:37:51.088Z</time>
      </trkpt>
      <trkpt lat="43.2833541277796" lon="-1.6396236419677734">
        <ele>173.4667534553988</ele>
        <time>2021-08-05T17:37:59.126Z</time>
      </trkpt>
      <trkpt lat="43.28337550163269" lon="-1.6398167610168457">
        <ele>171.88011944681318</ele>
        <time>2021-08-05T17:38:07.166Z</time>
      </trkpt>
      <trkpt lat="43.28345060348511" lon="-1.6399884223937988">
        <ele>170.5005799103457</ele>
        <time>2021-08-05T17:38:15.208Z</time>
      </trkpt>
      <trkpt lat="43.283536517992616" lon="-1.6400957107543945">
        <ele>169.30575698048213</ele>
        <time>2021-08-05T17:38:23.252Z</time>
      </trkpt>
      <trkpt lat="43.283536434173584" lon="-1.6400957107543945">
        <ele>168.172497189834</ele>
        <time>2021-08-05T17:38:31.296Z</time>
      </trkpt>
      <trkpt lat="43.28357934951782" lon="-1.6401493549346924">
        <ele>167.13178316266595</ele>
        <time>2021-08-05T17:38:39.341Z</time>
      </trkpt>
      <trkpt lat="43.283729553222656" lon="-1.6402459144592285">
        <ele>166.26947205406927</ele>
        <time>2021-08-05T17:38:47.389Z</time>
      </trkpt>
      <trkpt lat="43.28412652015686" lon="-1.6404283046722412">
        <ele>165.3601725041039</ele>
        <time>2021-08-05T17:38:55.444Z</time>
      </trkpt>
      <trkpt lat="43.284544944763184" lon="-1.64070725440979">
        <ele>164.1247211202575</ele>
        <time>2021-08-05T17:39:03.506Z</time>
      </trkpt>
      <trkpt lat="43.28466296195984" lon="-1.640760898590088">
        <ele>163.34373161616963</ele>
        <time>2021-08-05T17:39:11.570Z</time>
      </trkpt>
      <trkpt lat="43.284759521484375" lon="-1.6407930850982666">
        <ele>162.57746275125126</ele>
        <time>2021-08-05T17:39:19.636Z</time>
      </trkpt>
      <trkpt lat="43.28516721725464" lon="-1.6408145427703857">
        <ele>161.66834194874895</ele>
        <time>2021-08-05T17:39:27.708Z</time>
      </trkpt>
      <trkpt lat="43.28537106513977" lon="-1.640932559967041">
        <ele>161.05125844369985</ele>
        <time>2021-08-05T17:39:35.784Z</time>
      </trkpt>
      <trkpt lat="43.2856285572052" lon="-1.6412651538848877">
        <ele>160.07261085716246</ele>
        <time>2021-08-05T17:39:43.865Z</time>
      </trkpt>
      <trkpt lat="43.285768032073975" lon="-1.6413938999176025">
        <ele>159.06380730224137</ele>
        <time>2021-08-05T17:39:51.949Z</time>
      </trkpt>
      <trkpt lat="43.28592896461487" lon="-1.6415119171142578">
        <ele>158.08154444812612</ele>
        <time>2021-08-05T17:40:00.036Z</time>
      </trkpt>
      <trkpt lat="43.28615427017212" lon="-1.6415977478027344">
        <ele>157.49024565079873</ele>
        <time>2021-08-05T17:40:08.127Z</time>
      </trkpt>
      <trkpt lat="43.286293745040894" lon="-1.6416943073272705">
        <ele>156.89625516084874</ele>
        <time>2021-08-05T17:40:16.220Z</time>
      </trkpt>
      <trkpt lat="43.28639030456543" lon="-1.6418015956878662">
        <ele>156.26389318516053</ele>
        <time>2021-08-05T17:40:24.315Z</time>
      </trkpt>
      <trkpt lat="43.28644394874573" lon="-1.6419196128845215">
        <ele>155.56027684041055</ele>
        <time>2021-08-05T17:40:32.412Z</time>
      </trkpt>
      <trkpt lat="43.286497592926025" lon="-1.6420483589172363">
        <ele>154.75599508554683</ele>
        <time>2021-08-05T17:40:40.511Z</time>
      </trkpt>
      <trkpt lat="43.286529779434204" lon="-1.6422092914581299">
        <ele>153.8951463932994</ele>
        <time>2021-08-05T17:40:48.612Z</time>
      </trkpt>
      <trkpt lat="43.286529779434204" lon="-1.6424667835235596">
        <ele>153.0011634781029</ele>
        <time>2021-08-05T17:40:56.716Z</time>
      </trkpt>
      <trkpt lat="43.286508321762085" lon="-1.6427028179168701">
        <ele>152.22691292816506</ele>
        <time>2021-08-05T17:41:04.822Z</time>
      </trkpt>
      <trkpt lat="43.28643321990967" lon="-1.6431748867034912">
        <ele>151.64518995762725</ele>
        <time>2021-08-05T17:41:12.934Z</time>
      </trkpt>
      <trkpt lat="43.28636884689331" lon="-1.643432378768921">
        <ele>150.74707912161864</ele>
        <time>2021-08-05T17:41:21.049Z</time>
      </trkpt>
      <trkpt lat="43.28587532043457" lon="-1.6446447372436523">
        <ele>149.83309083725322</ele>
        <time>2021-08-05T17:41:29.180Z</time>
      </trkpt>
      <trkpt lat="43.28580021858215" lon="-1.6447734832763672">
        <ele>148.77006261206617</ele>
        <time>2021-08-05T17:41:37.313Z</time>
      </trkpt>
      <trkpt lat="43.285542726516724" lon="-1.6449666023254395">
        <ele>147.34626540599248</ele>
        <time>2021-08-05T17:41:45.451Z</time>
      </trkpt>
      <trkpt lat="43.28543543815613" lon="-1.6450202465057373">
        <ele>146.03152337734986</ele>
        <time>2021-08-05T17:41:53.591Z</time>
      </trkpt>
      <trkpt lat="43.28531742095947" lon="-1.6451597213745117">
        <ele>144.6998214607787</ele>
        <time>2021-08-05T17:42:01.733Z</time>
      </trkpt>
      <trkpt lat="43.285263776779175" lon="-1.6452455520629883">
        <ele>143.3952910528102</ele>
        <time>2021-08-05T17:42:09.877Z</time>
      </trkpt>
      <trkpt lat="43.28522086143494" lon="-1.6454815864562988">
        <ele>142.167527347322</ele>
        <time>2021-08-05T17:42:18.023Z</time>
      </trkpt>
      <trkpt lat="43.28514575958252" lon="-1.6456854343414307">
        <ele>140.81119586355283</ele>
        <time>2021-08-05T17:42:26.172Z</time>
      </trkpt>
      <trkpt lat="43.284995555877686" lon="-1.645900011062622">
        <ele>139.24027354779307</ele>
        <time>2021-08-05T17:42:34.325Z</time>
      </trkpt>
      <trkpt lat="43.284480571746826" lon="-1.6463077068328857">
        <ele>137.11090431093663</ele>
        <time>2021-08-05T17:42:42.487Z</time>
      </trkpt>
      <trkpt lat="43.28434109687805" lon="-1.6463828086853027">
        <ele>135.4591665005757</ele>
        <time>2021-08-05T17:42:50.652Z</time>
      </trkpt>
      <trkpt lat="43.284233808517456" lon="-1.6465330123901367">
        <ele>133.9477445470654</ele>
        <time>2021-08-05T17:42:58.819Z</time>
      </trkpt>
      <trkpt lat="43.2841694355011" lon="-1.6467046737670898">
        <ele>132.48303472567156</ele>
        <time>2021-08-05T17:43:06.988Z</time>
      </trkpt>
      <trkpt lat="43.28414797782898" lon="-1.6469299793243408">
        <ele>131.10958163978324</ele>
        <time>2021-08-05T17:43:15.160Z</time>
      </trkpt>
      <trkpt lat="43.28412652015686" lon="-1.6470801830291748">
        <ele>129.71863584868726</ele>
        <time>2021-08-05T17:43:23.334Z</time>
      </trkpt>
      <trkpt lat="43.28408360481262" lon="-1.6472196578979492">
        <ele>128.30595875225617</ele>
        <time>2021-08-05T17:43:31.509Z</time>
      </trkpt>
      <trkpt lat="43.284008502960205" lon="-1.6473913192749023">
        <ele>126.89857779255473</ele>
        <time>2021-08-05T17:43:39.687Z</time>
      </trkpt>
      <trkpt lat="43.28370809555054" lon="-1.6477560997009277">
        <ele>125.54991457983787</ele>
        <time>2021-08-05T17:43:47.871Z</time>
      </trkpt>
      <trkpt lat="43.28343987464905" lon="-1.6481530666351318">
        <ele>124.2789533340268</ele>
        <time>2021-08-05T17:43:56.062Z</time>
      </trkpt>
      <trkpt lat="43.283289670944214" lon="-1.648324728012085">
        <ele>122.73104859990681</ele>
        <time>2021-08-05T17:44:04.256Z</time>
      </trkpt>
      <trkpt lat="43.28315019607544" lon="-1.6484427452087402">
        <ele>121.15426590169483</ele>
        <time>2021-08-05T17:44:12.452Z</time>
      </trkpt>
      <trkpt lat="43.28289270401001" lon="-1.6485178470611572">
        <ele>119.45341062002268</ele>
        <time>2021-08-05T17:44:20.653Z</time>
      </trkpt>
      <trkpt lat="43.282796144485474" lon="-1.6485822200775146">
        <ele>117.94575856976968</ele>
        <time>2021-08-05T17:44:28.855Z</time>
      </trkpt>
      <trkpt lat="43.28269958496094" lon="-1.6486680507659912">
        <ele>116.44852768386036</ele>
        <time>2021-08-05T17:44:37.059Z</time>
      </trkpt>
      <trkpt lat="43.28262448310852" lon="-1.648796796798706">
        <ele>115.00011124908323</ele>
        <time>2021-08-05T17:44:45.265Z</time>
      </trkpt>
      <trkpt lat="43.28257083892822" lon="-1.6489899158477783">
        <ele>113.69311121096811</ele>
        <time>2021-08-05T17:44:53.473Z</time>
      </trkpt>
      <trkpt lat="43.28233480453491" lon="-1.6504061222076416">
        <ele>112.38712176066713</ele>
        <time>2021-08-05T17:45:01.698Z</time>
      </trkpt>
      <trkpt lat="43.28214168548584" lon="-1.6513073444366455">
        <ele>110.99078863326638</ele>
        <time>2021-08-05T17:45:09.934Z</time>
      </trkpt>
      <trkpt lat="43.282045209780335" lon="-1.6516292095184326">
        <ele>109.73701319728636</ele>
        <time>2021-08-05T17:45:18.174Z</time>
      </trkpt>
      <trkpt lat="43.282045125961304" lon="-1.6516292095184326">
        <ele>108.47474109179849</ele>
        <time>2021-08-05T17:45:26.414Z</time>
      </trkpt>
      <trkpt lat="43.28185200691223" lon="-1.6522085666656494">
        <ele>107.0299782023904</ele>
        <time>2021-08-05T17:45:34.662Z</time>
      </trkpt>
      <trkpt lat="43.28172326087952" lon="-1.652541160583496">
        <ele>105.64301735357404</ele>
        <time>2021-08-05T17:45:42.914Z</time>
      </trkpt>
      <trkpt lat="43.28164824284613" lon="-1.65269136428833">
        <ele>104.35254845232379</ele>
        <time>2021-08-05T17:45:51.168Z</time>
      </trkpt>
      <trkpt lat="43.2816481590271" lon="-1.65269136428833">
        <ele>103.21118616184489</ele>
        <time>2021-08-05T17:45:59.422Z</time>
      </trkpt>
      <trkpt lat="43.281540870666504" lon="-1.6530132293701172">
        <ele>101.92089792093728</ele>
        <time>2021-08-05T17:46:07.681Z</time>
      </trkpt>
      <trkpt lat="43.28147649765015" lon="-1.6534209251403809">
        <ele>100.77257242664822</ele>
        <time>2021-08-05T17:46:15.944Z</time>
      </trkpt>
      <trkpt lat="43.281487226486206" lon="-1.6541075706481934">
        <ele>99.8113761612374</ele>
        <time>2021-08-05T17:46:24.215Z</time>
      </trkpt>
      <trkpt lat="43.281530141830444" lon="-1.6544723510742188">
        <ele>98.88024455828159</ele>
        <time>2021-08-05T17:46:32.491Z</time>
      </trkpt>
      <trkpt lat="43.28168034553528" lon="-1.655212640762329">
        <ele>97.79401179212473</ele>
        <time>2021-08-05T17:46:40.776Z</time>
      </trkpt>
      <trkpt lat="43.281755447387695" lon="-1.6554057598114014">
        <ele>96.72591338838393</ele>
        <time>2021-08-05T17:46:49.063Z</time>
      </trkpt>
      <trkpt lat="43.28192710876465" lon="-1.6557276248931885">
        <ele>95.93126231059892</ele>
        <time>2021-08-05T17:46:57.355Z</time>
      </trkpt>
      <trkpt lat="43.28208804130554" lon="-1.6559958457946777">
        <ele>95.4186549684775</ele>
        <time>2021-08-05T17:47:05.651Z</time>
      </trkpt>
      <trkpt lat="43.28217387199402" lon="-1.6561675071716309">
        <ele>94.82442622936293</ele>
        <time>2021-08-05T17:47:13.949Z</time>
      </trkpt>
      <trkpt lat="43.28240999020636" lon="-1.6568326950073242">
        <ele>93.8004982834477</ele>
        <time>2021-08-05T17:47:22.256Z</time>
      </trkpt>
      <trkpt lat="43.282485008239746" lon="-1.6570258140563965">
        <ele>93.18903822387932</ele>
        <time>2021-08-05T17:47:30.566Z</time>
      </trkpt>
      <trkpt lat="43.282527923583984" lon="-1.657240390777588">
        <ele>92.59989530854152</ele>
        <time>2021-08-05T17:47:38.878Z</time>
      </trkpt>
      <trkpt lat="43.282538652420044" lon="-1.6574013233184814">
        <ele>92.07285773126006</ele>
        <time>2021-08-05T17:47:47.192Z</time>
      </trkpt>
      <trkpt lat="43.282506465911865" lon="-1.6578733921051025">
        <ele>91.79952517999618</ele>
        <time>2021-08-05T17:47:55.512Z</time>
      </trkpt>
      <trkpt lat="43.28247427940369" lon="-1.658087968826294">
        <ele>91.46332399383341</ele>
        <time>2021-08-05T17:48:03.834Z</time>
      </trkpt>
      <trkpt lat="43.282324159517884" lon="-1.6587746143341064">
        <ele>90.91216319774448</ele>
        <time>2021-08-05T17:48:12.165Z</time>
      </trkpt>
      <trkpt lat="43.282248973846436" lon="-1.6593003273010254">
        <ele>90.41131043237365</ele>
        <time>2021-08-05T17:48:20.502Z</time>
      </trkpt>
      <trkpt lat="43.282248973846436" lon="-1.6596651077270508">
        <ele>89.90791575571917</ele>
        <time>2021-08-05T17:48:28.843Z</time>
      </trkpt>
      <trkpt lat="43.282270431518555" lon="-1.659836769104004">
        <ele>89.53913171361773</ele>
        <time>2021-08-05T17:48:37.186Z</time>
      </trkpt>
      <trkpt lat="43.28232407569885" lon="-1.6599762439727783">
        <ele>89.29051146548511</ele>
        <time>2021-08-05T17:48:45.531Z</time>
      </trkpt>
      <trkpt lat="43.28240990638733" lon="-1.6600728034973145">
        <ele>89.1155153708649</ele>
        <time>2021-08-05T17:48:53.878Z</time>
      </trkpt>
      <trkpt lat="43.28280687332153" lon="-1.6602015495300293">
        <ele>89.10558447296543</ele>
        <time>2021-08-05T17:49:02.231Z</time>
      </trkpt>
      <trkpt lat="43.28284978866577" lon="-1.6602230072021484">
        <ele>88.93473097457519</ele>
        <time>2021-08-05T17:49:10.585Z</time>
      </trkpt>
      <trkpt lat="43.28288205899298" lon="-1.6602981090545654">
        <ele>88.74492963200626</ele>
        <time>2021-08-05T17:49:18.940Z</time>
      </trkpt>
      <trkpt lat="43.28290343284607" lon="-1.6603624820709229">
        <ele>88.54485323274872</ele>
        <time>2021-08-05T17:49:27.296Z</time>
      </trkpt>
      <trkpt lat="43.28294634819031" lon="-1.6604483127593994">
        <ele>88.35786385722838</ele>
        <time>2021-08-05T17:49:35.653Z</time>
      </trkpt>
      <trkpt lat="43.28294634819031" lon="-1.6605985164642334">
        <ele>88.15200793606999</ele>
        <time>2021-08-05T17:49:44.012Z</time>
      </trkpt>
      <trkpt lat="43.28291416168213" lon="-1.660759449005127">
        <ele>87.88972607576761</ele>
        <time>2021-08-05T17:49:52.373Z</time>
      </trkpt>
      <trkpt lat="43.282753229141235" lon="-1.661156415939331">
        <ele>87.56007225813764</ele>
        <time>2021-08-05T17:50:00.739Z</time>
      </trkpt>
      <trkpt lat="43.28269958496094" lon="-1.6613388061523438">
        <ele>87.18782725218706</ele>
        <time>2021-08-05T17:50:09.107Z</time>
      </trkpt>
      <trkpt lat="43.28261375427246" lon="-1.6615104675292969">
        <ele>86.71543800371802</ele>
        <time>2021-08-05T17:50:17.478Z</time>
      </trkpt>
      <trkpt lat="43.282527923583984" lon="-1.6617786884307861">
        <ele>86.12173610365159</ele>
        <time>2021-08-05T17:50:25.852Z</time>
      </trkpt>
      <trkpt lat="43.282495737075806" lon="-1.6619932651519775">
        <ele>85.52565408324203</ele>
        <time>2021-08-05T17:50:34.229Z</time>
      </trkpt>
      <trkpt lat="43.28243136405945" lon="-1.6631627082824707">
        <ele>85.20742055052808</ele>
        <time>2021-08-05T17:50:42.620Z</time>
      </trkpt>
      <trkpt lat="43.28239917755127" lon="-1.6634416580200195">
        <ele>84.37855997543433</ele>
        <time>2021-08-05T17:50:51.014Z</time>
      </trkpt>
      <trkpt lat="43.28210949897766" lon="-1.664503812789917">
        <ele>82.9876233323771</ele>
        <time>2021-08-05T17:50:59.421Z</time>
      </trkpt>
      <trkpt lat="43.28207731246948" lon="-1.664729118347168">
        <ele>81.97765645841649</ele>
        <time>2021-08-05T17:51:07.831Z</time>
      </trkpt>
      <trkpt lat="43.28206658363342" lon="-1.6649866104125977">
        <ele>80.94146178641876</ele>
        <time>2021-08-05T17:51:16.244Z</time>
      </trkpt>
      <trkpt lat="43.28208804130554" lon="-1.665329933166504">
        <ele>79.92294401938554</ele>
        <time>2021-08-05T17:51:24.661Z</time>
      </trkpt>
      <trkpt lat="43.28214168548584" lon="-1.6657698154449463">
        <ele>78.88051098115963</ele>
        <time>2021-08-05T17:51:33.083Z</time>
      </trkpt>
      <trkpt lat="43.28217395581305" lon="-1.6667461395263672">
        <ele>77.63891903846337</ele>
        <time>2021-08-05T17:51:41.516Z</time>
      </trkpt>
      <trkpt lat="43.28217387199402" lon="-1.6667461395263672">
        <ele>76.5261498768661</ele>
        <time>2021-08-05T17:51:49.949Z</time>
      </trkpt>
      <trkpt lat="43.28221678733826" lon="-1.6674542427062988">
        <ele>75.17953518926288</ele>
        <time>2021-08-05T17:51:58.391Z</time>
      </trkpt>
      <trkpt lat="43.282334888353944" lon="-1.667947769165039">
        <ele>73.9882731734568</ele>
        <time>2021-08-05T17:52:06.839Z</time>
      </trkpt>
      <trkpt lat="43.28258156776428" lon="-1.668848991394043">
        <ele>72.62942571486985</ele>
        <time>2021-08-05T17:52:15.298Z</time>
      </trkpt>
      <trkpt lat="43.28261383809149" lon="-1.669020652770996">
        <ele>71.42112340496622</ele>
        <time>2021-08-05T17:52:23.759Z</time>
      </trkpt>
      <trkpt lat="43.28268885612488" lon="-1.669321060180664">
        <ele>70.30640685905098</ele>
        <time>2021-08-05T17:52:32.224Z</time>
      </trkpt>
      <trkpt lat="43.282731771469116" lon="-1.6697072982788086">
        <ele>69.13443387726622</ele>
        <time>2021-08-05T17:52:40.693Z</time>
      </trkpt>
      <trkpt lat="43.282731771469116" lon="-1.6699862480163574">
        <ele>67.99203409913416</ele>
        <time>2021-08-05T17:52:49.166Z</time>
      </trkpt>
      <trkpt lat="43.28271039761603" lon="-1.6702008247375488">
        <ele>66.92183917507074</ele>
        <time>2021-08-05T17:52:57.641Z</time>
      </trkpt>
      <trkpt lat="43.28268893994391" lon="-1.6703832149505615">
        <ele>65.87115316231171</ele>
        <time>2021-08-05T17:53:06.118Z</time>
      </trkpt>
      <trkpt lat="43.28263521194458" lon="-1.6707801818847656">
        <ele>64.79463190134742</ele>
        <time>2021-08-05T17:53:14.600Z</time>
      </trkpt>
      <trkpt lat="43.28263521194458" lon="-1.6710269451141357">
        <ele>63.8088859255721</ele>
        <time>2021-08-05T17:53:23.085Z</time>
      </trkpt>
      <trkpt lat="43.28269966877997" lon="-1.671617031097412">
        <ele>62.905651185218524</ele>
        <time>2021-08-05T17:53:31.577Z</time>
      </trkpt>
      <trkpt lat="43.28269958496094" lon="-1.671617031097412">
        <ele>61.95743605975953</ele>
        <time>2021-08-05T17:53:40.069Z</time>
      </trkpt>
      <trkpt lat="43.28275331296027" lon="-1.6721320152282715">
        <ele>60.88884033417888</ele>
        <time>2021-08-05T17:53:48.567Z</time>
      </trkpt>
      <trkpt lat="43.282710313797" lon="-1.6728079319000244">
        <ele>59.93329542394339</ele>
        <time>2021-08-05T17:53:57.073Z</time>
      </trkpt>
      <trkpt lat="43.28262448310852" lon="-1.673494577407837">
        <ele>59.02837784907827</ele>
        <time>2021-08-05T17:54:05.587Z</time>
      </trkpt>
      <trkpt lat="43.282506465911865" lon="-1.6739773750305176">
        <ele>58.142594115544895</ele>
        <time>2021-08-05T17:54:14.107Z</time>
      </trkpt>
      <trkpt lat="43.28235634602606" lon="-1.6742563247680664">
        <ele>57.09340754303559</ele>
        <time>2021-08-05T17:54:22.631Z</time>
      </trkpt>
      <trkpt lat="43.28235626220703" lon="-1.6742563247680664">
        <ele>56.21526706330829</ele>
        <time>2021-08-05T17:54:31.155Z</time>
      </trkpt>
      <trkpt lat="43.282259702682495" lon="-1.6743957996368408">
        <ele>55.235166246801825</ele>
        <time>2021-08-05T17:54:39.681Z</time>
      </trkpt>
      <trkpt lat="43.282227516174316" lon="-1.674513816833496">
        <ele>54.354229346854794</ele>
        <time>2021-08-05T17:54:48.209Z</time>
      </trkpt>
      <trkpt lat="43.28218460083008" lon="-1.6747605800628662">
        <ele>53.49151980547032</ele>
        <time>2021-08-05T17:54:56.740Z</time>
      </trkpt>
      <trkpt lat="43.28217387199402" lon="-1.6750609874725342">
        <ele>52.64926445937138</ele>
        <time>2021-08-05T17:55:05.274Z</time>
      </trkpt>
      <trkpt lat="43.28213095664978" lon="-1.6752219200134277">
        <ele>51.770265704457955</ele>
        <time>2021-08-05T17:55:13.810Z</time>
      </trkpt>
      <trkpt lat="43.28206658363342" lon="-1.6753506660461426">
        <ele>50.88520220191536</ele>
        <time>2021-08-05T17:55:22.348Z</time>
      </trkpt>
      <trkpt lat="43.28192710876465" lon="-1.6755008697509766">
        <ele>49.92620286391626</ele>
        <time>2021-08-05T17:55:30.889Z</time>
      </trkpt>
      <trkpt lat="43.28185200691223" lon="-1.675640344619751">
        <ele>49.07878153598538</ele>
        <time>2021-08-05T17:55:39.432Z</time>
      </trkpt>
      <trkpt lat="43.28181982040405" lon="-1.675790548324585">
        <ele>48.32197734908456</ele>
        <time>2021-08-05T17:55:47.977Z</time>
      </trkpt>
      <trkpt lat="43.28181982040405" lon="-1.6759514808654785">
        <ele>47.64922748491301</ele>
        <time>2021-08-05T17:55:56.524Z</time>
      </trkpt>
      <trkpt lat="43.28185209073126" lon="-1.6761016845703125">
        <ele>47.05027346889423</ele>
        <time>2021-08-05T17:56:05.073Z</time>
      </trkpt>
      <trkpt lat="43.28189492225647" lon="-1.676337718963623">
        <ele>46.50074355016376</ele>
        <time>2021-08-05T17:56:13.624Z</time>
      </trkpt>
      <trkpt lat="43.2818950060755" lon="-1.6764450073242188">
        <ele>45.9332341867555</ele>
        <time>2021-08-05T17:56:22.177Z</time>
      </trkpt>
      <trkpt lat="43.28183054924011" lon="-1.676863431930542">
        <ele>45.25723530097015</ele>
        <time>2021-08-05T17:56:30.735Z</time>
      </trkpt>
      <trkpt lat="43.28174480237067" lon="-1.6771316528320312">
        <ele>44.694079471822874</ele>
        <time>2021-08-05T17:56:39.296Z</time>
      </trkpt>
      <trkpt lat="43.28172334469855" lon="-1.6772496700286865">
        <ele>44.22930995972469</ele>
        <time>2021-08-05T17:56:47.858Z</time>
      </trkpt>
      <trkpt lat="43.28169107437134" lon="-1.6775286197662354">
        <ele>43.8085378552028</ele>
        <time>2021-08-05T17:56:56.424Z</time>
      </trkpt>
      <trkpt lat="43.281733989715576" lon="-1.6777539253234863">
        <ele>43.46047193388166</ele>
        <time>2021-08-05T17:57:04.993Z</time>
      </trkpt>
      <trkpt lat="43.28176626004279" lon="-1.6781079769134521">
        <ele>43.15406403349017</ele>
        <time>2021-08-05T17:57:13.566Z</time>
      </trkpt>
      <trkpt lat="43.28180909156799" lon="-1.6783440113067627">
        <ele>42.89973145186342</ele>
        <time>2021-08-05T17:57:22.142Z</time>
      </trkpt>
      <trkpt lat="43.281787717714906" lon="-1.6787409782409668">
        <ele>42.6965843900799</ele>
        <time>2021-08-05T17:57:30.722Z</time>
      </trkpt>
      <trkpt lat="43.281776988878846" lon="-1.6788804531097412">
        <ele>42.51233302748561</ele>
        <time>2021-08-05T17:57:39.304Z</time>
      </trkpt>
      <trkpt lat="43.28174480237067" lon="-1.6792023181915283">
        <ele>42.339303240289</ele>
        <time>2021-08-05T17:57:47.890Z</time>
      </trkpt>
      <trkpt lat="43.28172326087952" lon="-1.6795456409454346">
        <ele>42.16380825722445</ele>
        <time>2021-08-05T17:57:56.480Z</time>
      </trkpt>
      <trkpt lat="43.28169115819037" lon="-1.6797065734863281">
        <ele>42.04523941216412</ele>
        <time>2021-08-05T17:58:05.072Z</time>
      </trkpt>
      <trkpt lat="43.28165888786316" lon="-1.6798460483551025">
        <ele>41.96034286050223</ele>
        <time>2021-08-05T17:58:13.665Z</time>
      </trkpt>
      <trkpt lat="43.28158378601074" lon="-1.679985523223877">
        <ele>41.919031384386415</ele>
        <time>2021-08-05T17:58:22.260Z</time>
      </trkpt>
      <trkpt lat="43.28155159950256" lon="-1.6801142692565918">
        <ele>41.90979229483105</ele>
        <time>2021-08-05T17:58:30.857Z</time>
      </trkpt>
      <trkpt lat="43.28157305717468" lon="-1.6805648803710938">
        <ele>41.864072885377254</ele>
        <time>2021-08-05T17:58:39.459Z</time>
      </trkpt>
      <trkpt lat="43.281562412157655" lon="-1.6806507110595703">
        <ele>41.896581903551805</ele>
        <time>2021-08-05T17:58:48.062Z</time>
      </trkpt>
      <trkpt lat="43.281497955322266" lon="-1.6807472705841064">
        <ele>41.96066283259999</ele>
        <time>2021-08-05T17:58:56.667Z</time>
      </trkpt>
      <trkpt lat="43.28143358230591" lon="-1.6808116436004639">
        <ele>42.050298595789826</ele>
        <time>2021-08-05T17:59:05.273Z</time>
      </trkpt>
      <trkpt lat="43.281283378601074" lon="-1.6808760166168213">
        <ele>42.161662901654054</ele>
        <time>2021-08-05T17:59:13.882Z</time>
      </trkpt>
      <trkpt lat="43.2811439037323" lon="-1.6809725761413574">
        <ele>42.283998247230286</ele>
        <time>2021-08-05T17:59:22.493Z</time>
      </trkpt>
      <trkpt lat="43.281036699190736" lon="-1.681058406829834">
        <ele>42.41154920139143</ele>
        <time>2021-08-05T17:59:31.106Z</time>
      </trkpt>
      <trkpt lat="43.281036615371704" lon="-1.681058406829834">
        <ele>42.53459313428143</ele>
        <time>2021-08-05T17:59:39.719Z</time>
      </trkpt>
      <trkpt lat="43.28096159733832" lon="-1.681230068206787">
        <ele>42.66207924280917</ele>
        <time>2021-08-05T17:59:48.334Z</time>
      </trkpt>
      <trkpt lat="43.280822122469544" lon="-1.6816699504852295">
        <ele>42.84655295909514</ele>
        <time>2021-08-05T17:59:56.955Z</time>
      </trkpt>
      <trkpt lat="43.28076847828925" lon="-1.6818523406982422">
        <ele>42.958678082304864</ele>
        <time>2021-08-05T18:00:05.578Z</time>
      </trkpt>
      <trkpt lat="43.280768394470215" lon="-1.6818523406982422">
        <ele>43.04552830000348</ele>
        <time>2021-08-05T18:00:14.201Z</time>
      </trkpt>
      <trkpt lat="43.28061819076538" lon="-1.6823351383209229">
        <ele>43.13881223470222</ele>
        <time>2021-08-05T18:00:22.830Z</time>
      </trkpt>
      <trkpt lat="43.28034996986389" lon="-1.6833114624023438">
        <ele>43.42139552767763</ele>
        <time>2021-08-05T18:00:31.472Z</time>
      </trkpt>
      <trkpt lat="43.280296325683594" lon="-1.6836225986480713">
        <ele>43.50837839351078</ele>
        <time>2021-08-05T18:00:40.117Z</time>
      </trkpt>
      <trkpt lat="43.28032851219177" lon="-1.684051752090454">
        <ele>43.48694905126517</ele>
        <time>2021-08-05T18:00:48.767Z</time>
      </trkpt>
      <trkpt lat="43.28033924102783" lon="-1.684330701828003">
        <ele>43.359041774812155</ele>
        <time>2021-08-05T18:00:57.421Z</time>
      </trkpt>
      <trkpt lat="43.28031778335571" lon="-1.6845130920410156">
        <ele>43.24558024018111</ele>
        <time>2021-08-05T18:01:06.077Z</time>
      </trkpt>
      <trkpt lat="43.28022122383118" lon="-1.6851568222045898">
        <ele>43.058406316550865</ele>
        <time>2021-08-05T18:01:14.740Z</time>
      </trkpt>
      <trkpt lat="43.280060375109315" lon="-1.6867554187774658">
        <ele>42.68292580050825</ele>
        <time>2021-08-05T18:01:23.422Z</time>
      </trkpt>
      <trkpt lat="43.28001745976508" lon="-1.6872382164001465">
        <ele>42.3630765607334</ele>
        <time>2021-08-05T18:01:32.110Z</time>
      </trkpt>
      <trkpt lat="43.27992081642151" lon="-1.6881072521209717">
        <ele>42.02381997611944</ele>
        <time>2021-08-05T18:01:40.808Z</time>
      </trkpt>
      <trkpt lat="43.2803822401911" lon="-1.6877853870391846">
        <ele>41.95705165767799</ele>
        <time>2021-08-05T18:01:49.515Z</time>
      </trkpt>
      <trkpt lat="43.28038215637207" lon="-1.6877853870391846">
        <ele>41.836088318324705</ele>
        <time>2021-08-05T18:01:58.222Z</time>
      </trkpt>
      <trkpt lat="43.2804895285517" lon="-1.6877102851867676">
        <ele>41.74828264654377</ele>
        <time>2021-08-05T18:02:06.931Z</time>
      </trkpt>
      <trkpt lat="43.28059681691229" lon="-1.6876673698425293">
        <ele>41.67247988447114</ele>
        <time>2021-08-05T18:02:15.641Z</time>
      </trkpt>
      <trkpt lat="43.28086495399475" lon="-1.687549352645874">
        <ele>41.62562254183253</ele>
        <time>2021-08-05T18:02:24.356Z</time>
      </trkpt>
      <trkpt lat="43.28110107220709" lon="-1.6875064373016357">
        <ele>41.718890923905235</ele>
        <time>2021-08-05T18:02:33.075Z</time>
      </trkpt>
      <trkpt lat="43.28118681907654" lon="-1.6875600814819336">
        <ele>41.7546601693094</ele>
        <time>2021-08-05T18:02:41.795Z</time>
      </trkpt>
      <trkpt lat="43.281229734420776" lon="-1.6876029968261719">
        <ele>41.76140371152966</ele>
        <time>2021-08-05T18:02:50.516Z</time>
      </trkpt>
      <trkpt lat="43.281261920928955" lon="-1.6876566410064697">
        <ele>41.761720451978356</ele>
        <time>2021-08-05T18:02:59.238Z</time>
      </trkpt>
      <trkpt lat="43.28143358230591" lon="-1.6886651515960693">
        <ele>41.72617668656182</ele>
        <time>2021-08-05T18:03:07.972Z</time>
      </trkpt>
      <trkpt lat="43.2814980391413" lon="-1.6888797283172607">
        <ele>41.75607939193766</ele>
        <time>2021-08-05T18:03:16.709Z</time>
      </trkpt>
      <trkpt lat="43.281551683321595" lon="-1.6890513896942139">
        <ele>41.777900092404316</ele>
        <time>2021-08-05T18:03:25.448Z</time>
      </trkpt>
      <trkpt lat="43.28162678517401" lon="-1.6893088817596436">
        <ele>41.75415925814374</ele>
        <time>2021-08-05T18:03:34.190Z</time>
      </trkpt>
      <trkpt lat="43.281744718551636" lon="-1.6896307468414307">
        <ele>41.636034863810906</ele>
        <time>2021-08-05T18:03:42.936Z</time>
      </trkpt>
      <trkpt lat="43.28190565109253" lon="-1.689995527267456">
        <ele>41.73226911805945</ele>
        <time>2021-08-05T18:03:51.687Z</time>
      </trkpt>
      <trkpt lat="43.28197010792792" lon="-1.6902101039886475">
        <ele>41.82760415399102</ele>
        <time>2021-08-05T18:04:00.441Z</time>
      </trkpt>
      <trkpt lat="43.282012939453125" lon="-1.6903495788574219">
        <ele>41.87286165379017</ele>
        <time>2021-08-05T18:04:09.197Z</time>
      </trkpt>
      <trkpt lat="43.282023668289185" lon="-1.6905534267425537">
        <ele>41.81278233847058</ele>
        <time>2021-08-05T18:04:17.955Z</time>
      </trkpt>
      <trkpt lat="43.282034397125244" lon="-1.691422462463379">
        <ele>41.52243909600725</ele>
        <time>2021-08-05T18:04:26.723Z</time>
      </trkpt>
      <trkpt lat="43.28207731246948" lon="-1.6918087005615234">
        <ele>41.492244449860706</ele>
        <time>2021-08-05T18:04:35.496Z</time>
      </trkpt>
      <trkpt lat="43.28220614232123" lon="-1.692194938659668">
        <ele>41.50562272211559</ele>
        <time>2021-08-05T18:04:44.274Z</time>
      </trkpt>
      <trkpt lat="43.2822060585022" lon="-1.692194938659668">
        <ele>41.465381315191465</ele>
        <time>2021-08-05T18:04:53.052Z</time>
      </trkpt>
      <trkpt lat="43.282281160354614" lon="-1.692495346069336">
        <ele>41.45205952812842</ele>
        <time>2021-08-05T18:05:01.833Z</time>
      </trkpt>
      <trkpt lat="43.28230261802673" lon="-1.692720651626587">
        <ele>41.44830991656983</ele>
        <time>2021-08-05T18:05:10.617Z</time>
      </trkpt>
      <trkpt lat="43.28234553337097" lon="-1.6933536529541016">
        <ele>40.98166373755525</ele>
        <time>2021-08-05T18:05:19.409Z</time>
      </trkpt>
      <trkpt lat="43.28235626220703" lon="-1.6940832138061523">
        <ele>40.80063776189047</ele>
        <time>2021-08-05T18:05:28.209Z</time>
      </trkpt>
      <trkpt lat="43.282281160354614" lon="-1.6948556900024414">
        <ele>40.869259940575475</ele>
        <time>2021-08-05T18:05:37.018Z</time>
      </trkpt>
      <trkpt lat="43.28217387199402" lon="-1.6956710815429688">
        <ele>41.21602705387635</ele>
        <time>2021-08-05T18:05:45.837Z</time>
      </trkpt>
      <trkpt lat="43.28165888786316" lon="-1.6987931728363037">
        <ele>41.236630148537685</ele>
        <time>2021-08-05T18:05:54.693Z</time>
      </trkpt>
      <trkpt lat="43.28160524368286" lon="-1.6990506649017334">
        <ele>41.51309172253431</ele>
        <time>2021-08-05T18:06:03.552Z</time>
      </trkpt>
      <trkpt lat="43.281508684158325" lon="-1.6993296146392822">
        <ele>41.90592342037057</ele>
        <time>2021-08-05T18:06:12.415Z</time>
      </trkpt>
      <trkpt lat="43.28114398755133" lon="-1.6999948024749756">
        <ele>42.65167650592417</ele>
        <time>2021-08-05T18:06:21.288Z</time>
      </trkpt>
      <trkpt lat="43.2811439037323" lon="-1.6999948024749756">
        <ele>42.95839818308625</ele>
        <time>2021-08-05T18:06:30.161Z</time>
      </trkpt>
      <trkpt lat="43.2809937838465" lon="-1.7001450061798096">
        <ele>43.493080125392424</ele>
        <time>2021-08-05T18:06:39.037Z</time>
      </trkpt>
      <trkpt lat="43.28091859817505" lon="-1.700209379196167">
        <ele>43.924344495523734</ele>
        <time>2021-08-05T18:06:47.914Z</time>
      </trkpt>
      <trkpt lat="43.280822122469544" lon="-1.7002308368682861">
        <ele>44.28335098485027</ele>
        <time>2021-08-05T18:06:56.793Z</time>
      </trkpt>
      <trkpt lat="43.28066110610962" lon="-1.7002630233764648">
        <ele>44.66505897083577</ele>
        <time>2021-08-05T18:07:05.674Z</time>
      </trkpt>
      <trkpt lat="43.28036069869995" lon="-1.7002201080322266">
        <ele>44.89569701718243</ele>
        <time>2021-08-05T18:07:14.560Z</time>
      </trkpt>
      <trkpt lat="43.280049562454224" lon="-1.7000699043273926">
        <ele>44.73678479905226</ele>
        <time>2021-08-05T18:07:23.451Z</time>
      </trkpt>
      <trkpt lat="43.27997454442084" lon="-1.6999948024749756">
        <ele>44.57884048338026</ele>
        <time>2021-08-05T18:07:32.344Z</time>
      </trkpt>
      <trkpt lat="43.27997446060181" lon="-1.6999948024749756">
        <ele>44.55662049993762</ele>
        <time>2021-08-05T18:07:41.237Z</time>
      </trkpt>
      <trkpt lat="43.27958822250366" lon="-1.6996514797210693">
        <ele>44.1578588704371</ele>
        <time>2021-08-05T18:07:50.137Z</time>
      </trkpt>
      <trkpt lat="43.279480934143066" lon="-1.6995978355407715">
        <ele>44.009927662864996</ele>
        <time>2021-08-05T18:07:59.039Z</time>
      </trkpt>
      <trkpt lat="43.27936300076544" lon="-1.699587106704712">
        <ele>43.85886125261857</ele>
        <time>2021-08-05T18:08:07.943Z</time>
      </trkpt>
      <trkpt lat="43.27936291694641" lon="-1.699587106704712">
        <ele>43.70418962984847</ele>
        <time>2021-08-05T18:08:16.847Z</time>
      </trkpt>
      <trkpt lat="43.27915906906128" lon="-1.6996192932128906">
        <ele>43.442786822615616</ele>
        <time>2021-08-05T18:08:25.754Z</time>
      </trkpt>
      <trkpt lat="43.279051780700684" lon="-1.699683666229248">
        <ele>43.23271934289734</ele>
        <time>2021-08-05T18:08:34.663Z</time>
      </trkpt>
      <trkpt lat="43.27871927060187" lon="-1.6999948024749756">
        <ele>43.087529317290894</ele>
        <time>2021-08-05T18:08:43.579Z</time>
      </trkpt>
      <trkpt lat="43.27871918678284" lon="-1.6999948024749756">
        <ele>42.89427816270255</ele>
        <time>2021-08-05T18:08:52.495Z</time>
      </trkpt>
      <trkpt lat="43.2786226272583" lon="-1.7000913619995117">
        <ele>42.72675650947049</ele>
        <time>2021-08-05T18:09:01.413Z</time>
      </trkpt>
      <trkpt lat="43.27857971191406" lon="-1.7001557350158691">
        <ele>42.567914441883175</ele>
        <time>2021-08-05T18:09:10.332Z</time>
      </trkpt>
      <trkpt lat="43.27846169471741" lon="-1.7002308368682861">
        <ele>42.35740513652671</ele>
        <time>2021-08-05T18:09:19.253Z</time>
      </trkpt>
      <trkpt lat="43.27840805053711" lon="-1.7003059387207031">
        <ele>42.19509470440866</ele>
        <time>2021-08-05T18:09:28.175Z</time>
      </trkpt>
      <trkpt lat="43.27835440635681" lon="-1.7003810405731201">
        <ele>42.03358357436038</ele>
        <time>2021-08-05T18:09:37.098Z</time>
      </trkpt>
      <trkpt lat="43.278257846832275" lon="-1.7004668712615967">
        <ele>41.842165803801066</ele>
        <time>2021-08-05T18:09:46.023Z</time>
      </trkpt>
      <trkpt lat="43.27792525291443" lon="-1.7007887363433838">
        <ele>41.64047219718767</ele>
        <time>2021-08-05T18:09:54.954Z</time>
      </trkpt>
      <trkpt lat="43.27781796455383" lon="-1.7009496688842773">
        <ele>41.444990699011626</ele>
        <time>2021-08-05T18:10:03.888Z</time>
      </trkpt>
      <trkpt lat="43.27771067619324" lon="-1.7012608051300049">
        <ele>41.346025561350956</ele>
        <time>2021-08-05T18:10:12.826Z</time>
      </trkpt>
      <trkpt lat="43.277539014816284" lon="-1.701979637145996">
        <ele>41.391721149264846</ele>
        <time>2021-08-05T18:10:21.773Z</time>
      </trkpt>
      <trkpt lat="43.2774103526026" lon="-1.7027842998504639">
        <ele>41.324315279003464</ele>
        <time>2021-08-05T18:10:30.729Z</time>
      </trkpt>
      <trkpt lat="43.27737808227539" lon="-1.7029130458831787">
        <ele>41.09903327781139</ele>
        <time>2021-08-05T18:10:39.687Z</time>
      </trkpt>
      <trkpt lat="43.27718496322632" lon="-1.7028486728668213">
        <ele>40.729276998287794</ele>
        <time>2021-08-05T18:10:48.648Z</time>
      </trkpt>
      <trkpt lat="43.277024030685425" lon="-1.7028272151947021">
        <ele>40.3610801253995</ele>
        <time>2021-08-05T18:10:57.612Z</time>
      </trkpt>
      <trkpt lat="43.2768524531275" lon="-1.702880859375">
        <ele>40.01502095772636</ele>
        <time>2021-08-05T18:11:06.579Z</time>
      </trkpt>
      <trkpt lat="43.27676662243903" lon="-1.702805757522583">
        <ele>39.790321907320504</ele>
        <time>2021-08-05T18:11:15.547Z</time>
      </trkpt>
      <trkpt lat="43.27658414840698" lon="-1.7027842998504639">
        <ele>39.60749551445167</ele>
        <time>2021-08-05T18:11:24.518Z</time>
      </trkpt>
      <trkpt lat="43.276498317718506" lon="-1.702730655670166">
        <ele>39.52447262248992</ele>
        <time>2021-08-05T18:11:33.491Z</time>
      </trkpt>
      <trkpt lat="43.276305198669434" lon="-1.702730655670166">
        <ele>39.47443371304568</ele>
        <time>2021-08-05T18:11:42.467Z</time>
      </trkpt>
      <trkpt lat="43.2761549949646" lon="-1.7026662826538086">
        <ele>39.507892437917434</ele>
        <time>2021-08-05T18:11:51.445Z</time>
      </trkpt>
      <trkpt lat="43.27594050206244" lon="-1.7023444175720215">
        <ele>39.5618589821195</ele>
        <time>2021-08-05T18:12:00.428Z</time>
      </trkpt>
      <trkpt lat="43.27567228116095" lon="-1.7024409770965576">
        <ele>39.86789131454204</ele>
        <time>2021-08-05T18:12:09.416Z</time>
      </trkpt>
      <trkpt lat="43.27548989094794" lon="-1.7024731636047363">
        <ele>40.21346677769524</ele>
        <time>2021-08-05T18:12:18.407Z</time>
      </trkpt>
      <trkpt lat="43.2749963644892" lon="-1.7024624347686768">
        <ele>41.032938527170586</ele>
        <time>2021-08-05T18:12:27.406Z</time>
      </trkpt>
      <trkpt lat="43.27486761845648" lon="-1.7024624347686768">
        <ele>41.74794972733069</ele>
        <time>2021-08-05T18:12:36.407Z</time>
      </trkpt>
      <trkpt lat="43.274770975112915" lon="-1.7024624347686768">
        <ele>42.39162344562501</ele>
        <time>2021-08-05T18:12:45.409Z</time>
      </trkpt>
      <trkpt lat="43.274513483047485" lon="-1.7048120498657227">
        <ele>42.506769670537906</ele>
        <time>2021-08-05T18:12:54.439Z</time>
      </trkpt>
      <trkpt lat="43.27443838119507" lon="-1.705305576324463">
        <ele>42.87146728712142</ele>
        <time>2021-08-05T18:13:03.475Z</time>
      </trkpt>
      <trkpt lat="43.27432036399841" lon="-1.705702543258667">
        <ele>43.3111707714622</ele>
        <time>2021-08-05T18:13:12.516Z</time>
      </trkpt>
      <trkpt lat="43.27432036399841" lon="-1.7062389850616455">
        <ele>43.61030306506024</ele>
        <time>2021-08-05T18:13:21.563Z</time>
      </trkpt>
      <trkpt lat="43.274320447817445" lon="-1.7062389850616455">
        <ele>43.91536184139721</ele>
        <time>2021-08-05T18:13:30.610Z</time>
      </trkpt>
      <trkpt lat="43.27430963516235" lon="-1.7067110538482666">
        <ele>44.16622635744481</ele>
        <time>2021-08-05T18:13:39.663Z</time>
      </trkpt>
      <trkpt lat="43.27420234680176" lon="-1.7078804969787598">
        <ele>44.55082165446605</ele>
        <time>2021-08-05T18:13:48.730Z</time>
      </trkpt>
      <trkpt lat="43.2741916179657" lon="-1.7080307006835938">
        <ele>44.74423629671724</ele>
        <time>2021-08-05T18:13:57.798Z</time>
      </trkpt>
      <trkpt lat="43.27415943145752" lon="-1.7086529731750488">
        <ele>45.11787786064238</ele>
        <time>2021-08-05T18:14:06.874Z</time>
      </trkpt>
      <trkpt lat="43.27414870262146" lon="-1.7090821266174316">
        <ele>45.24810448787803</ele>
        <time>2021-08-05T18:14:15.955Z</time>
      </trkpt>
      <trkpt lat="43.274277448654175" lon="-1.7097580432891846">
        <ele>44.885206138623516</ele>
        <time>2021-08-05T18:14:25.044Z</time>
      </trkpt>
      <trkpt lat="43.274545669555664" lon="-1.7107665538787842">
        <ele>44.95803268252131</ele>
        <time>2021-08-05T18:14:34.145Z</time>
      </trkpt>
      <trkpt lat="43.27462077140808" lon="-1.7110025882720947">
        <ele>44.7544933500599</ele>
        <time>2021-08-05T18:14:43.249Z</time>
      </trkpt>
      <trkpt lat="43.2746958732605" lon="-1.71112060546875">
        <ele>44.52560686890186</ele>
        <time>2021-08-05T18:14:52.355Z</time>
      </trkpt>
      <trkpt lat="43.274792516604066" lon="-1.7113137245178223">
        <ele>44.376167038665756</ele>
        <time>2021-08-05T18:15:01.464Z</time>
      </trkpt>
      <trkpt lat="43.27491044998169" lon="-1.711817979812622">
        <ele>44.12307991192851</ele>
        <time>2021-08-05T18:15:10.579Z</time>
      </trkpt>
      <trkpt lat="43.27496417798102" lon="-1.7120003700256348">
        <ele>43.989757337703125</ele>
        <time>2021-08-05T18:15:19.696Z</time>
      </trkpt>
      <trkpt lat="43.275017738342285" lon="-1.7121827602386475">
        <ele>43.87047162920858</ele>
        <time>2021-08-05T18:15:28.816Z</time>
      </trkpt>
      <trkpt lat="43.27517867088318" lon="-1.7124295234680176">
        <ele>43.727904615923194</ele>
        <time>2021-08-05T18:15:37.940Z</time>
      </trkpt>
      <trkpt lat="43.275253772735596" lon="-1.7126119136810303">
        <ele>43.765471281444945</ele>
        <time>2021-08-05T18:15:47.066Z</time>
      </trkpt>
      <trkpt lat="43.275489807128906" lon="-1.7129123210906982">
        <ele>43.86782184705325</ele>
        <time>2021-08-05T18:15:56.197Z</time>
      </trkpt>
      <trkpt lat="43.275736570358276" lon="-1.7130625247955322">
        <ele>44.08931074442411</ele>
        <time>2021-08-05T18:16:05.332Z</time>
      </trkpt>
      <trkpt lat="43.276273012161255" lon="-1.713244915008545">
        <ele>44.25728978508498</ele>
        <time>2021-08-05T18:16:14.476Z</time>
      </trkpt>
      <trkpt lat="43.27627309598029" lon="-1.713244915008545">
        <ele>44.310470599218306</ele>
        <time>2021-08-05T18:16:23.620Z</time>
      </trkpt>
      <trkpt lat="43.27661633491516" lon="-1.713341474533081">
        <ele>44.396842549681594</ele>
        <time>2021-08-05T18:16:32.770Z</time>
      </trkpt>
      <trkpt lat="43.27661641873419" lon="-1.713341474533081">
        <ele>44.47850183149342</ele>
        <time>2021-08-05T18:16:41.920Z</time>
      </trkpt>
      <trkpt lat="43.277238607406616" lon="-1.7135131359100342">
        <ele>44.72874982848401</ele>
        <time>2021-08-05T18:16:51.080Z</time>
      </trkpt>
      <trkpt lat="43.277742862701416" lon="-1.7135989665985107">
        <ele>44.906396390655615</ele>
        <time>2021-08-05T18:17:00.248Z</time>
      </trkpt>
      <trkpt lat="43.279030323028564" lon="-1.7138886451721191">
        <ele>44.811351322574865</ele>
        <time>2021-08-05T18:17:09.437Z</time>
      </trkpt>
      <trkpt lat="43.27939510345459" lon="-1.7139852046966553">
        <ele>44.74401131149695</ele>
        <time>2021-08-05T18:17:18.632Z</time>
      </trkpt>
      <trkpt lat="43.27939518727362" lon="-1.7139852046966553">
        <ele>44.8922745885278</ele>
        <time>2021-08-05T18:17:27.827Z</time>
      </trkpt>
      <trkpt lat="43.280017375946045" lon="-1.714167594909668">
        <ele>45.00442103244397</ele>
        <time>2021-08-05T18:17:37.032Z</time>
      </trkpt>
      <trkpt lat="43.28040361404419" lon="-1.7142534255981445">
        <ele>45.41411013800324</ele>
        <time>2021-08-05T18:17:46.243Z</time>
      </trkpt>
      <trkpt lat="43.280564630404115" lon="-1.714264154434204">
        <ele>45.67389638084062</ele>
        <time>2021-08-05T18:17:55.457Z</time>
      </trkpt>
      <trkpt lat="43.28060754574835" lon="-1.714264154434204">
        <ele>45.911535652057395</ele>
        <time>2021-08-05T18:18:04.672Z</time>
      </trkpt>
      <trkpt lat="43.281047344207764" lon="-1.7142963409423828">
        <ele>46.387988868409494</ele>
        <time>2021-08-05T18:18:13.894Z</time>
      </trkpt>
      <trkpt lat="43.28147649765015" lon="-1.7142319679260254">
        <ele>46.64081083321391</ele>
        <time>2021-08-05T18:18:23.123Z</time>
      </trkpt>
      <trkpt lat="43.28245282173157" lon="-1.7141568660736084">
        <ele>47.27457673915538</ele>
        <time>2021-08-05T18:18:32.367Z</time>
      </trkpt>
      <trkpt lat="43.28291416168213" lon="-1.7140603065490723">
        <ele>47.49856683979573</ele>
        <time>2021-08-05T18:18:41.619Z</time>
      </trkpt>
      <trkpt lat="43.284019231796265" lon="-1.7135131359100342">
        <ele>47.15102135492961</ele>
        <time>2021-08-05T18:18:50.890Z</time>
      </trkpt>
      <trkpt lat="43.28431963920593" lon="-1.713341474533081">
        <ele>47.24246658850552</ele>
        <time>2021-08-05T18:19:00.166Z</time>
      </trkpt>
      <trkpt lat="43.28485608100891" lon="-1.7130839824676514">
        <ele>47.56988081355125</ele>
        <time>2021-08-05T18:19:09.451Z</time>
      </trkpt>
      <trkpt lat="43.285274505615234" lon="-1.712944507598877">
        <ele>47.97013423970676</ele>
        <time>2021-08-05T18:19:18.743Z</time>
      </trkpt>
      <trkpt lat="43.285489082336426" lon="-1.7129230499267578">
        <ele>48.4741604772398</ele>
        <time>2021-08-05T18:19:28.038Z</time>
      </trkpt>
      <trkpt lat="43.28593969345093" lon="-1.7129552364349365">
        <ele>49.34694896242064</ele>
        <time>2021-08-05T18:19:37.340Z</time>
      </trkpt>
      <trkpt lat="43.28645467758179" lon="-1.7130303382873535">
        <ele>49.96940974679559</ele>
        <time>2021-08-05T18:19:46.651Z</time>
      </trkpt>
      <trkpt lat="43.2871413230896" lon="-1.7131590843200684">
        <ele>50.75258360546923</ele>
        <time>2021-08-05T18:19:55.973Z</time>
      </trkpt>
      <trkpt lat="43.287538290023804" lon="-1.713094711303711">
        <ele>51.41052419500875</ele>
        <time>2021-08-05T18:20:05.301Z</time>
      </trkpt>
      <trkpt lat="43.287720680236816" lon="-1.7129981517791748">
        <ele>51.805388446893495</ele>
        <time>2021-08-05T18:20:14.632Z</time>
      </trkpt>
      <trkpt lat="43.28806400299072" lon="-1.7127621173858643">
        <ele>51.82547723928947</ele>
        <time>2021-08-05T18:20:23.969Z</time>
      </trkpt>
      <trkpt lat="43.28839659690857" lon="-1.7126226425170898">
        <ele>52.176270674118506</ele>
        <time>2021-08-05T18:20:33.312Z</time>
      </trkpt>
      <trkpt lat="43.28883647918701" lon="-1.7124831676483154">
        <ele>52.84767010557539</ele>
        <time>2021-08-05T18:20:42.662Z</time>
      </trkpt>
      <trkpt lat="43.28920125961304" lon="-1.7125368118286133">
        <ele>54.00118756552433</ele>
        <time>2021-08-05T18:20:52.018Z</time>
      </trkpt>
      <trkpt lat="43.28954458236694" lon="-1.7127084732055664">
        <ele>54.95926563469743</ele>
        <time>2021-08-05T18:21:01.380Z</time>
      </trkpt>
      <trkpt lat="43.28969478607178" lon="-1.7128264904022217">
        <ele>55.50423207393539</ele>
        <time>2021-08-05T18:21:10.745Z</time>
      </trkpt>
      <trkpt lat="43.28989863395691" lon="-1.7130088806152344">
        <ele>55.6062129365499</ele>
        <time>2021-08-05T18:21:20.114Z</time>
      </trkpt>
      <trkpt lat="43.29009175300598" lon="-1.7132771015167236">
        <ele>55.73910303501416</ele>
        <time>2021-08-05T18:21:29.487Z</time>
      </trkpt>
      <trkpt lat="43.290231227874756" lon="-1.7136955261230469">
        <ele>55.352271485771894</ele>
        <time>2021-08-05T18:21:38.865Z</time>
      </trkpt>
      <trkpt lat="43.290510177612305" lon="-1.7153584957122803">
        <ele>54.46986923603427</ele>
        <time>2021-08-05T18:21:48.263Z</time>
      </trkpt>
      <trkpt lat="43.29054236412048" lon="-1.7154765129089355">
        <ele>53.9372956809531</ele>
        <time>2021-08-05T18:21:57.663Z</time>
      </trkpt>
      <trkpt lat="43.29054236412048" lon="-1.7155730724334717">
        <ele>53.36123595988226</ele>
        <time>2021-08-05T18:22:07.064Z</time>
      </trkpt>
      <trkpt lat="43.290724754333496" lon="-1.7165815830230713">
        <ele>52.44071803351649</ele>
        <time>2021-08-05T18:22:16.477Z</time>
      </trkpt>
      <trkpt lat="43.29083204269409" lon="-1.7173218727111816">
        <ele>51.77001208537234</ele>
        <time>2021-08-05T18:22:25.899Z</time>
      </trkpt>
      <trkpt lat="43.29095005989075" lon="-1.7179441452026367">
        <ele>50.79126270369454</ele>
        <time>2021-08-05T18:22:35.328Z</time>
      </trkpt>
      <trkpt lat="43.29110026359558" lon="-1.719135046005249">
        <ele>49.13191524527227</ele>
        <time>2021-08-05T18:22:44.772Z</time>
      </trkpt>
      <trkpt lat="43.2911217212677" lon="-1.719510555267334">
        <ele>47.67370304312868</ele>
        <time>2021-08-05T18:22:54.220Z</time>
      </trkpt>
      <trkpt lat="43.29113245010376" lon="-1.7201650142669678">
        <ele>46.29602072076786</ele>
        <time>2021-08-05T18:23:03.676Z</time>
      </trkpt>
      <trkpt lat="43.291035890579224" lon="-1.7223215103149414">
        <ele>44.96931874906975</ele>
        <time>2021-08-05T18:23:13.157Z</time>
      </trkpt>
      <trkpt lat="43.29108953475952" lon="-1.7233729362487793">
        <ele>43.64545687978134</ele>
        <time>2021-08-05T18:23:22.650Z</time>
      </trkpt>
      <trkpt lat="43.29107880592346" lon="-1.7262697219848633">
        <ele>42.67715430185761</ele>
        <time>2021-08-05T18:23:32.177Z</time>
      </trkpt>
      <trkpt lat="43.29105734825134" lon="-1.7274391651153564">
        <ele>41.128963641958194</ele>
        <time>2021-08-05T18:23:41.718Z</time>
      </trkpt>
      <trkpt lat="43.29107880592346" lon="-1.727750301361084">
        <ele>39.743951332781855</ele>
        <time>2021-08-05T18:23:51.262Z</time>
      </trkpt>
      <trkpt lat="43.29115390777588" lon="-1.7280292510986328">
        <ele>38.33097993506776</ele>
        <time>2021-08-05T18:24:00.810Z</time>
      </trkpt>
      <trkpt lat="43.29141139984131" lon="-1.728576421737671">
        <ele>37.072371361280176</ele>
        <time>2021-08-05T18:24:10.365Z</time>
      </trkpt>
      <trkpt lat="43.29141148366034" lon="-1.728576421737671">
        <ele>35.88087273376609</ele>
        <time>2021-08-05T18:24:19.920Z</time>
      </trkpt>
      <trkpt lat="43.2916796207428" lon="-1.7292201519012451">
        <ele>35.215003770267046</ele>
        <time>2021-08-05T18:24:29.484Z</time>
      </trkpt>
      <trkpt lat="43.29182982444763" lon="-1.729423999786377">
        <ele>34.439483226982986</ele>
        <time>2021-08-05T18:24:39.052Z</time>
      </trkpt>
      <trkpt lat="43.291980028152466" lon="-1.729574203491211">
        <ele>33.59813163736195</ele>
        <time>2021-08-05T18:24:48.622Z</time>
      </trkpt>
      <trkpt lat="43.29245209693909" lon="-1.729874610900879">
        <ele>32.086100688045285</ele>
        <time>2021-08-05T18:24:58.201Z</time>
      </trkpt>
      <trkpt lat="43.29262375831604" lon="-1.7299175262451172">
        <ele>30.8085715219572</ele>
        <time>2021-08-05T18:25:07.783Z</time>
      </trkpt>
      <trkpt lat="43.29291343688965" lon="-1.7299282550811768">
        <ele>29.621452263543606</ele>
        <time>2021-08-05T18:25:17.369Z</time>
      </trkpt>
      <trkpt lat="43.29305291175842" lon="-1.7298853397369385">
        <ele>28.497369228510387</ele>
        <time>2021-08-05T18:25:26.958Z</time>
      </trkpt>
      <trkpt lat="43.29329967498779" lon="-1.7297780513763428">
        <ele>27.411413186193695</ele>
        <time>2021-08-05T18:25:36.551Z</time>
      </trkpt>
      <trkpt lat="43.29344987869263" lon="-1.7297351360321045">
        <ele>26.583646567922795</ele>
        <time>2021-08-05T18:25:46.146Z</time>
      </trkpt>
      <trkpt lat="43.29356789588928" lon="-1.7297351360321045">
        <ele>26.036844152013753</ele>
        <time>2021-08-05T18:25:55.743Z</time>
      </trkpt>
      <trkpt lat="43.293567979708314" lon="-1.7297351360321045">
        <ele>25.614110449527026</ele>
        <time>2021-08-05T18:26:05.340Z</time>
      </trkpt>
      <trkpt lat="43.29361081123352" lon="-1.729724407196045">
        <ele>25.332856777171287</ele>
        <time>2021-08-05T18:26:14.938Z</time>
      </trkpt>
      <trkpt lat="43.29361089505255" lon="-1.729724407196045">
        <ele>25.188526204622995</ele>
        <time>2021-08-05T18:26:24.536Z</time>
      </trkpt>
      <trkpt lat="43.29379320144653" lon="-1.7297029495239258">
        <ele>25.179681453876974</ele>
        <time>2021-08-05T18:26:34.137Z</time>
      </trkpt>
      <trkpt lat="43.293793285265565" lon="-1.7297029495239258">
        <ele>25.316036923927083</ele>
        <time>2021-08-05T18:26:43.738Z</time>
      </trkpt>
      <trkpt lat="43.29413652420044" lon="-1.7296171188354492">
        <ele>25.563343337029476</ele>
        <time>2021-08-05T18:26:53.344Z</time>
      </trkpt>
      <trkpt lat="43.29430818557739" lon="-1.729649305343628">
        <ele>25.981730872689916</ele>
        <time>2021-08-05T18:27:02.953Z</time>
      </trkpt>
      <trkpt lat="43.29435110092163" lon="-1.7296385765075684">
        <ele>26.541049489564827</ele>
        <time>2021-08-05T18:27:12.563Z</time>
      </trkpt>
      <trkpt lat="43.294479846954346" lon="-1.7295634746551514">
        <ele>27.27433533561773</ele>
        <time>2021-08-05T18:27:22.175Z</time>
      </trkpt>
      <trkpt lat="43.294715881347656" lon="-1.7296385765075684">
        <ele>28.065963537359593</ele>
        <time>2021-08-05T18:27:31.791Z</time>
      </trkpt>
      <trkpt lat="43.29488754272461" lon="-1.729724407196045">
        <ele>28.79973460538298</ele>
        <time>2021-08-05T18:27:41.410Z</time>
      </trkpt>
      <trkpt lat="43.29509139060974" lon="-1.729896068572998">
        <ele>29.564057537762633</ele>
        <time>2021-08-05T18:27:51.033Z</time>
      </trkpt>
      <trkpt lat="43.29541325569153" lon="-1.7303359508514404">
        <ele>31.220371092348532</ele>
        <time>2021-08-05T18:28:00.663Z</time>
      </trkpt>
      <trkpt lat="43.29557418823242" lon="-1.7305076122283936">
        <ele>32.25809077446023</ele>
        <time>2021-08-05T18:28:10.296Z</time>
      </trkpt>
      <trkpt lat="43.29567074775696" lon="-1.7306041717529297">
        <ele>33.19416563258243</ele>
        <time>2021-08-05T18:28:19.931Z</time>
      </trkpt>
      <trkpt lat="43.29578876495361" lon="-1.7306792736053467">
        <ele>34.05629256032772</ele>
        <time>2021-08-05T18:28:29.568Z</time>
      </trkpt>
      <trkpt lat="43.296239376068115" lon="-1.730818748474121">
        <ele>34.79807188498391</ele>
        <time>2021-08-05T18:28:39.212Z</time>
      </trkpt>
      <trkpt lat="43.29763412475586" lon="-1.7315590381622314">
        <ele>35.11935486719309</ele>
        <time>2021-08-05T18:28:48.880Z</time>
      </trkpt>
      <trkpt lat="43.29783797264099" lon="-1.7316341400146484">
        <ele>35.97124718350737</ele>
        <time>2021-08-05T18:28:58.552Z</time>
      </trkpt>
      <trkpt lat="43.2980740070343" lon="-1.7316663265228271">
        <ele>36.61956261638674</ele>
        <time>2021-08-05T18:29:08.228Z</time>
      </trkpt>
      <trkpt lat="43.29836368560791" lon="-1.7317414283752441">
        <ele>37.245763177924125</ele>
        <time>2021-08-05T18:29:17.908Z</time>
      </trkpt>
      <trkpt lat="43.29869627952576" lon="-1.7317843437194824">
        <ele>37.669520250487565</ele>
        <time>2021-08-05T18:29:27.594Z</time>
      </trkpt>
      <trkpt lat="43.299018144607544" lon="-1.7319023609161377">
        <ele>38.166652875439134</ele>
        <time>2021-08-05T18:29:37.285Z</time>
      </trkpt>
      <trkpt lat="43.29931855201721" lon="-1.7320740222930908">
        <ele>38.4273545763552</ele>
        <time>2021-08-05T18:29:46.981Z</time>
      </trkpt>
      <trkpt lat="43.30029487609863" lon="-1.7328786849975586">
        <ele>38.93556983276978</ele>
        <time>2021-08-05T18:29:56.695Z</time>
      </trkpt>
      <trkpt lat="43.3007025718689" lon="-1.7331254482269287">
        <ele>38.88915161163534</ele>
        <time>2021-08-05T18:30:06.417Z</time>
      </trkpt>
      <trkpt lat="43.30183982849121" lon="-1.733694076538086">
        <ele>39.49446304478551</ele>
        <time>2021-08-05T18:30:16.158Z</time>
      </trkpt>
      <trkpt lat="43.30208659172058" lon="-1.7337477207183838">
        <ele>39.12854022687057</ele>
        <time>2021-08-05T18:30:25.903Z</time>
      </trkpt>
      <trkpt lat="43.30239772796631" lon="-1.733865737915039">
        <ele>38.245399407421004</ele>
        <time>2021-08-05T18:30:35.653Z</time>
      </trkpt>
      <trkpt lat="43.30288052558899" lon="-1.7339837551116943">
        <ele>37.11722862893128</ele>
        <time>2021-08-05T18:30:45.411Z</time>
      </trkpt>
      <trkpt lat="43.303213119506836" lon="-1.7341232299804688">
        <ele>36.2528242296007</ele>
        <time>2021-08-05T18:30:55.174Z</time>
      </trkpt>
      <trkpt lat="43.303470611572266" lon="-1.7341554164886475">
        <ele>35.00854675339738</ele>
        <time>2021-08-05T18:31:04.942Z</time>
      </trkpt>
      <trkpt lat="43.3034706953913" lon="-1.7341554164886475">
        <ele>34.16270766827375</ele>
        <time>2021-08-05T18:31:14.710Z</time>
      </trkpt>
      <trkpt lat="43.30480098724365" lon="-1.7343270778656006">
        <ele>33.289831160749245</ele>
        <time>2021-08-05T18:31:24.499Z</time>
      </trkpt>
      <trkpt lat="43.305230140686035" lon="-1.7344450950622559">
        <ele>32.44321544865879</ele>
        <time>2021-08-05T18:31:34.295Z</time>
      </trkpt>
      <trkpt lat="43.305487632751465" lon="-1.7345631122589111">
        <ele>31.679953179422412</ele>
        <time>2021-08-05T18:31:44.095Z</time>
      </trkpt>
      <trkpt lat="43.305948972702026" lon="-1.7348313331604004">
        <ele>30.475964378338787</ele>
        <time>2021-08-05T18:31:53.903Z</time>
      </trkpt>
      <trkpt lat="43.306753635406494" lon="-1.7354857921600342">
        <ele>29.746398905639644</ele>
        <time>2021-08-05T18:32:03.726Z</time>
      </trkpt>
      <trkpt lat="43.30683946609497" lon="-1.735517978668213">
        <ele>28.751794482334446</ele>
        <time>2021-08-05T18:32:13.551Z</time>
      </trkpt>
      <trkpt lat="43.307719230651855" lon="-1.7355287075042725">
        <ele>26.986236300060636</ele>
        <time>2021-08-05T18:32:23.390Z</time>
      </trkpt>
      <trkpt lat="43.30784797668457" lon="-1.7355501651763916">
        <ele>26.12817646452068</ele>
        <time>2021-08-05T18:32:33.231Z</time>
      </trkpt>
      <trkpt lat="43.307976722717285" lon="-1.7356359958648682">
        <ele>25.305402850656755</ele>
        <time>2021-08-05T18:32:43.074Z</time>
      </trkpt>
      <trkpt lat="43.308223485946655" lon="-1.735914945602417">
        <ele>25.118989855705543</ele>
        <time>2021-08-05T18:32:52.922Z</time>
      </trkpt>
      <trkpt lat="43.30830931663513" lon="-1.7359685897827148">
        <ele>24.490699491155862</ele>
        <time>2021-08-05T18:33:02.772Z</time>
      </trkpt>
      <trkpt lat="43.30936074256897" lon="-1.736290454864502">
        <ele>23.766442482723523</ele>
        <time>2021-08-05T18:33:12.639Z</time>
      </trkpt>
      <trkpt lat="43.30968260765076" lon="-1.7364192008972168">
        <ele>23.052699247531322</ele>
        <time>2021-08-05T18:33:22.511Z</time>
      </trkpt>
      <trkpt lat="43.30982208251953" lon="-1.736515760421753">
        <ele>22.399143319819675</ele>
        <time>2021-08-05T18:33:32.386Z</time>
      </trkpt>
      <trkpt lat="43.3100152015686" lon="-1.7367303371429443">
        <ele>21.991182685506175</ele>
        <time>2021-08-05T18:33:42.265Z</time>
      </trkpt>
      <trkpt lat="43.31011176109314" lon="-1.7369341850280762">
        <ele>21.61519940710116</ele>
        <time>2021-08-05T18:33:52.147Z</time>
      </trkpt>
      <trkpt lat="43.310208320617676" lon="-1.7372667789459229">
        <ele>21.58047685001992</ele>
        <time>2021-08-05T18:34:02.033Z</time>
      </trkpt>
      <trkpt lat="43.31031560897827" lon="-1.7380177974700928">
        <ele>21.437789247683213</ele>
        <time>2021-08-05T18:34:11.928Z</time>
      </trkpt>
      <trkpt lat="43.310465812683105" lon="-1.7394769191741943">
        <ele>21.828084122873392</ele>
        <time>2021-08-05T18:34:21.840Z</time>
      </trkpt>
      <trkpt lat="43.31078767776489" lon="-1.7400991916656494">
        <ele>21.382612339380238</ele>
        <time>2021-08-05T18:34:31.761Z</time>
      </trkpt>
      <trkpt lat="43.311249017715454" lon="-1.7407536506652832">
        <ele>20.954942596834155</ele>
        <time>2021-08-05T18:34:41.693Z</time>
      </trkpt>
      <trkpt lat="43.31138849258423" lon="-1.740807294845581">
        <ele>20.80008587101384</ele>
        <time>2021-08-05T18:34:51.627Z</time>
      </trkpt>
      <trkpt lat="43.311506509780884" lon="-1.740807294845581">
        <ele>20.659098428795218</ele>
        <time>2021-08-05T18:35:01.563Z</time>
      </trkpt>
      <trkpt lat="43.31179618835449" lon="-1.740710735321045">
        <ele>20.398075176920983</ele>
        <time>2021-08-05T18:35:11.504Z</time>
      </trkpt>
      <trkpt lat="43.311796272173524" lon="-1.740710735321045">
        <ele>20.405705434279497</ele>
        <time>2021-08-05T18:35:21.445Z</time>
      </trkpt>
      <trkpt lat="43.31187129020691" lon="-1.7406785488128662">
        <ele>20.523183623035656</ele>
        <time>2021-08-05T18:35:31.387Z</time>
      </trkpt>
      <trkpt lat="43.31187137402594" lon="-1.7406785488128662">
        <ele>20.61998815483981</ele>
        <time>2021-08-05T18:35:41.329Z</time>
      </trkpt>
      <trkpt lat="43.312214612960815" lon="-1.740506887435913">
        <ele>21.05174562836107</ele>
        <time>2021-08-05T18:35:51.277Z</time>
      </trkpt>
      <trkpt lat="43.31240773200989" lon="-1.7403781414031982">
        <ele>21.336609831852925</ele>
        <time>2021-08-05T18:36:01.228Z</time>
      </trkpt>
      <trkpt lat="43.31255793571472" lon="-1.7402064800262451">
        <ele>21.505216871891797</ele>
        <time>2021-08-05T18:36:11.182Z</time>
      </trkpt>
      <trkpt lat="43.312729597091675" lon="-1.7398953437805176">
        <ele>21.52975200554117</ele>
        <time>2021-08-05T18:36:21.141Z</time>
      </trkpt>
      <trkpt lat="43.31284761428833" lon="-1.7396271228790283">
        <ele>21.569400774225937</ele>
        <time>2021-08-05T18:36:31.103Z</time>
      </trkpt>
      <trkpt lat="43.31293344497681" lon="-1.7393910884857178">
        <ele>21.871590253212695</ele>
        <time>2021-08-05T18:36:41.069Z</time>
      </trkpt>
      <trkpt lat="43.31308364868164" lon="-1.739133596420288">
        <ele>22.24050343345253</ele>
        <time>2021-08-05T18:36:51.038Z</time>
      </trkpt>
      <trkpt lat="43.313233852386475" lon="-1.7389297485351562">
        <ele>22.69205139531615</ele>
        <time>2021-08-05T18:37:01.011Z</time>
      </trkpt>
      <trkpt lat="43.313437700271606" lon="-1.7387580871582031">
        <ele>23.227611718079316</ele>
        <time>2021-08-05T18:37:10.988Z</time>
      </trkpt>
      <trkpt lat="43.3135986328125" lon="-1.738661527633667">
        <ele>23.819576311124564</ele>
        <time>2021-08-05T18:37:20.967Z</time>
      </trkpt>
      <trkpt lat="43.313716650009155" lon="-1.7386400699615479">
        <ele>24.459529836224654</ele>
        <time>2021-08-05T18:37:30.948Z</time>
      </trkpt>
      <trkpt lat="43.31389904022217" lon="-1.7386829853057861">
        <ele>25.158537067817917</ele>
        <time>2021-08-05T18:37:40.932Z</time>
      </trkpt>
      <trkpt lat="43.31408143043518" lon="-1.7388010025024414">
        <ele>25.87677085102053</ele>
        <time>2021-08-05T18:37:50.920Z</time>
      </trkpt>
      <trkpt lat="43.314220905303955" lon="-1.7389190196990967">
        <ele>26.583920300757182</ele>
        <time>2021-08-05T18:38:00.910Z</time>
      </trkpt>
      <trkpt lat="43.31433892250061" lon="-1.7390799522399902">
        <ele>27.32059114983165</ele>
        <time>2021-08-05T18:38:10.903Z</time>
      </trkpt>
      <trkpt lat="43.31452131271362" lon="-1.7394232749938965">
        <ele>28.445885450521814</ele>
        <time>2021-08-05T18:38:20.901Z</time>
      </trkpt>
      <trkpt lat="43.31482172012329" lon="-1.740109920501709">
        <ele>29.29587276906466</ele>
        <time>2021-08-05T18:38:30.908Z</time>
      </trkpt>
      <trkpt lat="43.3150577545166" lon="-1.740506887435913">
        <ele>29.736347854606173</ele>
        <time>2021-08-05T18:38:40.921Z</time>
      </trkpt>
      <trkpt lat="43.31535816192627" lon="-1.740957498550415">
        <ele>30.326556027997576</ele>
        <time>2021-08-05T18:38:50.941Z</time>
      </trkpt>
      <trkpt lat="43.315690755844116" lon="-1.7413973808288574">
        <ele>30.575666824070602</ele>
        <time>2021-08-05T18:39:00.969Z</time>
      </trkpt>
      <trkpt lat="43.31580877304077" lon="-1.7415046691894531">
        <ele>30.489258408284478</ele>
        <time>2021-08-05T18:39:10.999Z</time>
      </trkpt>
      <trkpt lat="43.31609845161438" lon="-1.7417728900909424">
        <ele>30.551049461196463</ele>
        <time>2021-08-05T18:39:21.034Z</time>
      </trkpt>
      <trkpt lat="43.31640958786011" lon="-1.742008924484253">
        <ele>30.541239801735415</ele>
        <time>2021-08-05T18:39:31.075Z</time>
      </trkpt>
      <trkpt lat="43.31678509712219" lon="-1.7420518398284912">
        <ele>29.34943807433974</ele>
        <time>2021-08-05T18:39:41.122Z</time>
      </trkpt>
      <trkpt lat="43.31740736961365" lon="-1.74208402633667">
        <ele>28.669814939133552</ele>
        <time>2021-08-05T18:39:51.179Z</time>
      </trkpt>
      <trkpt lat="43.31756830215454" lon="-1.742105484008789">
        <ele>28.085046360628148</ele>
        <time>2021-08-05T18:40:01.239Z</time>
      </trkpt>
      <trkpt lat="43.31777215003967" lon="-1.7422235012054443">
        <ele>27.58402091949489</ele>
        <time>2021-08-05T18:40:11.302Z</time>
      </trkpt>
      <trkpt lat="43.317986726760864" lon="-1.7422771453857422">
        <ele>27.06163949428501</ele>
        <time>2021-08-05T18:40:21.369Z</time>
      </trkpt>
      <trkpt lat="43.31825494766235" lon="-1.7422878742218018">
        <ele>26.45294458709673</ele>
        <time>2021-08-05T18:40:31.440Z</time>
      </trkpt>
      <trkpt lat="43.31855535507202" lon="-1.7422771453857422">
        <ele>25.773137098472795</ele>
        <time>2021-08-05T18:40:41.516Z</time>
      </trkpt>
      <trkpt lat="43.31975698471069" lon="-1.742180585861206">
        <ele>25.302859793550866</ele>
        <time>2021-08-05T18:40:51.611Z</time>
      </trkpt>
      <trkpt lat="43.321237564086914" lon="-1.7419874668121338">
        <ele>24.414577603866014</ele>
        <time>2021-08-05T18:41:01.730Z</time>
      </trkpt>
      <trkpt lat="43.32134485244751" lon="-1.741955280303955">
        <ele>23.653779166537955</ele>
        <time>2021-08-05T18:41:11.851Z</time>
      </trkpt>
      <trkpt lat="43.32170971669257" lon="-1.7417514324188232">
        <ele>22.60660818430057</ele>
        <time>2021-08-05T18:41:21.978Z</time>
      </trkpt>
      <trkpt lat="43.32220324315131" lon="-1.7414724826812744">
        <ele>22.03558817965107</ele>
        <time>2021-08-05T18:41:32.114Z</time>
      </trkpt>
      <trkpt lat="43.322986364364624" lon="-1.7409682273864746">
        <ele>21.352090142722307</ele>
        <time>2021-08-05T18:41:42.263Z</time>
      </trkpt>
      <trkpt lat="43.322986448183656" lon="-1.7409682273864746">
        <ele>20.613022496494096</ele>
        <time>2021-08-05T18:41:52.412Z</time>
      </trkpt>
      <trkpt lat="43.3235228061676" lon="-1.7406141757965088">
        <ele>19.770142259851415</ele>
        <time>2021-08-05T18:42:02.571Z</time>
      </trkpt>
      <trkpt lat="43.323522889986634" lon="-1.7406141757965088">
        <ele>19.047914196853014</ele>
        <time>2021-08-05T18:42:12.730Z</time>
      </trkpt>
      <trkpt lat="43.3240270614624" lon="-1.7402708530426025">
        <ele>18.45889033844346</ele>
        <time>2021-08-05T18:42:22.898Z</time>
      </trkpt>
      <trkpt lat="43.324981927871704" lon="-1.7394554615020752">
        <ele>17.82838593228608</ele>
        <time>2021-08-05T18:42:33.084Z</time>
      </trkpt>
      <trkpt lat="43.32526087760925" lon="-1.7392945289611816">
        <ele>17.113561704038318</ele>
        <time>2021-08-05T18:42:43.275Z</time>
      </trkpt>
      <trkpt lat="43.325453996658325" lon="-1.7392194271087646">
        <ele>16.359952856223778</ele>
        <time>2021-08-05T18:42:53.469Z</time>
      </trkpt>
      <trkpt lat="43.32612991333008" lon="-1.739058494567871">
        <ele>15.635240821105487</ele>
        <time>2021-08-05T18:43:03.674Z</time>
      </trkpt>
      <trkpt lat="43.32781434059143" lon="-1.738736629486084">
        <ele>14.82177704473316</ele>
        <time>2021-08-05T18:43:13.906Z</time>
      </trkpt>
      <trkpt lat="43.32810401916504" lon="-1.7386829853057861">
        <ele>14.158682415925565</ele>
        <time>2021-08-05T18:43:24.143Z</time>
      </trkpt>
      <trkpt lat="43.32826495170593" lon="-1.7386722564697266">
        <ele>13.555921387099648</ele>
        <time>2021-08-05T18:43:34.382Z</time>
      </trkpt>
      <trkpt lat="43.32840442657471" lon="-1.7386937141418457">
        <ele>13.026733641747313</ele>
        <time>2021-08-05T18:43:44.624Z</time>
      </trkpt>
      <trkpt lat="43.32840451039374" lon="-1.7386937141418457">
        <ele>12.58161779680649</ele>
        <time>2021-08-05T18:43:54.866Z</time>
      </trkpt>
      <trkpt lat="43.3286190032959" lon="-1.7387902736663818">
        <ele>12.18242619303662</ele>
        <time>2021-08-05T18:44:05.111Z</time>
      </trkpt>
      <trkpt lat="43.32877993583679" lon="-1.7389190196990967">
        <ele>11.83412627623299</ele>
        <time>2021-08-05T18:44:15.359Z</time>
      </trkpt>
      <trkpt lat="43.32889803685248" lon="-1.739058494567871">
        <ele>11.55099518215587</ele>
        <time>2021-08-05T18:44:25.610Z</time>
      </trkpt>
      <trkpt lat="43.32902669906616" lon="-1.7392945289611816">
        <ele>11.474874378274617</ele>
        <time>2021-08-05T18:44:35.864Z</time>
      </trkpt>
      <trkpt lat="43.32929491996765" lon="-1.739959716796875">
        <ele>11.016026251300504</ele>
        <time>2021-08-05T18:44:46.127Z</time>
      </trkpt>
      <trkpt lat="43.32943447865546" lon="-1.7406463623046875">
        <ele>11.203139870023552</ele>
        <time>2021-08-05T18:44:56.398Z</time>
      </trkpt>
      <trkpt lat="43.329488039016724" lon="-1.7408931255340576">
        <ele>11.140112155955915</ele>
        <time>2021-08-05T18:45:06.672Z</time>
      </trkpt>
      <trkpt lat="43.32958468236029" lon="-1.7414939403533936">
        <ele>11.164135997614915</ele>
        <time>2021-08-05T18:45:16.954Z</time>
      </trkpt>
      <trkpt lat="43.329670429229736" lon="-1.7420732975006104">
        <ele>11.117001635074384</ele>
        <time>2021-08-05T18:45:27.242Z</time>
      </trkpt>
      <trkpt lat="43.32976698875427" lon="-1.7425346374511719">
        <ele>10.9106644087298</ele>
        <time>2021-08-05T18:45:37.536Z</time>
      </trkpt>
      <trkpt lat="43.329767072573304" lon="-1.7425346374511719">
        <ele>10.947321653018186</ele>
        <time>2021-08-05T18:45:47.830Z</time>
      </trkpt>
      <trkpt lat="43.33006739616394" lon="-1.7440152168273926">
        <ele>10.794159957961112</ele>
        <time>2021-08-05T18:45:58.142Z</time>
      </trkpt>
      <trkpt lat="43.330174684524536" lon="-1.744605302810669">
        <ele>11.069139467984153</ele>
        <time>2021-08-05T18:46:08.461Z</time>
      </trkpt>
      <trkpt lat="43.33038926124573" lon="-1.7455601692199707">
        <ele>11.373328344527348</ele>
        <time>2021-08-05T18:46:18.792Z</time>
      </trkpt>
      <trkpt lat="43.330485820770264" lon="-1.7461395263671875">
        <ele>11.394283565974177</ele>
        <time>2021-08-05T18:46:29.130Z</time>
      </trkpt>
      <trkpt lat="43.330732583999634" lon="-1.7467296123504639">
        <ele>11.52940412808999</ele>
        <time>2021-08-05T18:46:39.476Z</time>
      </trkpt>
      <trkpt lat="43.33076477050781" lon="-1.7468369007110596">
        <ele>11.899651547355969</ele>
        <time>2021-08-05T18:46:49.823Z</time>
      </trkpt>
      <trkpt lat="43.33076477050781" lon="-1.7469549179077148">
        <ele>12.361756009840356</ele>
        <time>2021-08-05T18:47:00.171Z</time>
      </trkpt>
      <trkpt lat="43.330732583999634" lon="-1.747051477432251">
        <ele>12.91955819753008</ele>
        <time>2021-08-05T18:47:10.521Z</time>
      </trkpt>
      <trkpt lat="43.330700397491455" lon="-1.7471373081207275">
        <ele>13.543107272980574</ele>
        <time>2021-08-05T18:47:20.872Z</time>
      </trkpt>
      <trkpt lat="43.3305823802948" lon="-1.7472553253173828">
        <ele>14.30285446015651</ele>
        <time>2021-08-05T18:47:31.225Z</time>
      </trkpt>
      <trkpt lat="43.33056092262268" lon="-1.7473089694976807">
        <ele>15.02880474940273</ele>
        <time>2021-08-05T18:47:41.579Z</time>
      </trkpt>
      <trkpt lat="43.33056092262268" lon="-1.747502088546753">
        <ele>15.84497207859905</ele>
        <time>2021-08-05T18:47:51.935Z</time>
      </trkpt>
      <trkpt lat="43.33059310913086" lon="-1.7480170726776123">
        <ele>16.68603443841125</ele>
        <time>2021-08-05T18:48:02.297Z</time>
      </trkpt>
      <trkpt lat="43.33074331283569" lon="-1.7489397525787354">
        <ele>17.22996875381088</ele>
        <time>2021-08-05T18:48:12.670Z</time>
      </trkpt>
      <trkpt lat="43.33082914352417" lon="-1.749272346496582">
        <ele>18.079171890920797</ele>
        <time>2021-08-05T18:48:23.047Z</time>
      </trkpt>
      <trkpt lat="43.33107590675354" lon="-1.749798059463501">
        <ele>18.890400992723535</ele>
        <time>2021-08-05T18:48:33.432Z</time>
      </trkpt>
      <trkpt lat="43.33124756813049" lon="-1.7502379417419434">
        <ele>19.867125446285403</ele>
        <time>2021-08-05T18:48:43.822Z</time>
      </trkpt>
      <trkpt lat="43.331483602523804" lon="-1.7507421970367432">
        <ele>20.775073621120086</ele>
        <time>2021-08-05T18:48:54.219Z</time>
      </trkpt>
      <trkpt lat="43.33163380622864" lon="-1.7510318756103516">
        <ele>21.704085799873898</ele>
        <time>2021-08-05T18:49:04.621Z</time>
      </trkpt>
      <trkpt lat="43.33190202713013" lon="-1.751471757888794">
        <ele>22.613620740297183</ele>
        <time>2021-08-05T18:49:15.029Z</time>
      </trkpt>
      <trkpt lat="43.332695960998535" lon="-1.7525017261505127">
        <ele>23.487987272254053</ele>
        <time>2021-08-05T18:49:25.455Z</time>
      </trkpt>
      <trkpt lat="43.33273887634277" lon="-1.7525982856750488">
        <ele>23.937987730043453</ele>
        <time>2021-08-05T18:49:35.882Z</time>
      </trkpt>
      <trkpt lat="43.33280324935913" lon="-1.7526841163635254">
        <ele>24.188875568730587</ele>
        <time>2021-08-05T18:49:46.311Z</time>
      </trkpt>
      <trkpt lat="43.33324313163757" lon="-1.7529845237731934">
        <ele>24.135913410163965</ele>
        <time>2021-08-05T18:49:56.747Z</time>
      </trkpt>
      <trkpt lat="43.33358645439148" lon="-1.7531991004943848">
        <ele>24.063735602197408</ele>
        <time>2021-08-05T18:50:07.189Z</time>
      </trkpt>
      <trkpt lat="43.333951234817505" lon="-1.753295660018921">
        <ele>23.850152104739493</ele>
        <time>2021-08-05T18:50:17.637Z</time>
      </trkpt>
      <trkpt lat="43.33436965942383" lon="-1.753370761871338">
        <ele>23.2817806582786</ele>
        <time>2021-08-05T18:50:28.092Z</time>
      </trkpt>
      <trkpt lat="43.33479881286621" lon="-1.753370761871338">
        <ele>22.44372511696843</ele>
        <time>2021-08-05T18:50:38.554Z</time>
      </trkpt>
      <trkpt lat="43.33507776260376" lon="-1.7533063888549805">
        <ele>21.454534447887653</ele>
        <time>2021-08-05T18:50:49.021Z</time>
      </trkpt>
      <trkpt lat="43.335206508636475" lon="-1.7532312870025635">
        <ele>20.41804534581963</ele>
        <time>2021-08-05T18:50:59.490Z</time>
      </trkpt>
      <trkpt lat="43.33534598350525" lon="-1.753091812133789">
        <ele>19.31400550632054</ele>
        <time>2021-08-05T18:51:09.962Z</time>
      </trkpt>
      <trkpt lat="43.33534606732428" lon="-1.753091812133789">
        <ele>18.290168519132756</ele>
        <time>2021-08-05T18:51:20.434Z</time>
      </trkpt>
      <trkpt lat="43.335464000701904" lon="-1.7528986930847168">
        <ele>17.061400183835524</ele>
        <time>2021-08-05T18:51:30.908Z</time>
      </trkpt>
      <trkpt lat="43.3355712890625" lon="-1.7526841163635254">
        <ele>15.736679996089297</ele>
        <time>2021-08-05T18:51:41.385Z</time>
      </trkpt>
      <trkpt lat="43.33581805229187" lon="-1.7522978782653809">
        <ele>14.301673276019354</ele>
        <time>2021-08-05T18:51:51.868Z</time>
      </trkpt>
      <trkpt lat="43.33598971366882" lon="-1.7521798610687256">
        <ele>13.189900905476662</ele>
        <time>2021-08-05T18:52:02.355Z</time>
      </trkpt>
      <trkpt lat="43.336172103881836" lon="-1.7521262168884277">
        <ele>12.126690955603905</ele>
        <time>2021-08-05T18:52:12.845Z</time>
      </trkpt>
      <trkpt lat="43.336676359176636" lon="-1.7521369457244873">
        <ele>11.025040045085108</ele>
        <time>2021-08-05T18:52:23.343Z</time>
      </trkpt>
      <trkpt lat="43.337202072143555" lon="-1.7523193359375">
        <ele>9.921696124180034</ele>
        <time>2021-08-05T18:52:33.849Z</time>
      </trkpt>
      <trkpt lat="43.33783507347107" lon="-1.7526841163635254">
        <ele>8.922833803253546</ele>
        <time>2021-08-05T18:52:44.366Z</time>
      </trkpt>
      <trkpt lat="43.33931565284729" lon="-1.7529845237731934">
        <ele>7.991225888604971</ele>
        <time>2021-08-05T18:52:54.907Z</time>
      </trkpt>
      <trkpt lat="43.339948654174805" lon="-1.7531132698059082">
        <ele>7.061878939479847</ele>
        <time>2021-08-05T18:53:05.458Z</time>
      </trkpt>
      <trkpt lat="43.34032416343689" lon="-1.753242015838623">
        <ele>6.377963253946366</ele>
        <time>2021-08-05T18:53:16.016Z</time>
      </trkpt>
      <trkpt lat="43.34102153778076" lon="-1.7536497116088867">
        <ele>5.853685705160856</ele>
        <time>2021-08-05T18:53:26.586Z</time>
      </trkpt>
      <trkpt lat="43.34160089492798" lon="-1.7542505264282227">
        <ele>4.921293300901601</ele>
        <time>2021-08-05T18:53:37.167Z</time>
      </trkpt>
      <trkpt lat="43.34208369255066" lon="-1.7550981044769287">
        <ele>4.294990671334067</ele>
        <time>2021-08-05T18:53:47.761Z</time>
      </trkpt>
      <trkpt lat="43.342673778533936" lon="-1.7561066150665283">
        <ele>3.7362566997456295</ele>
        <time>2021-08-05T18:53:58.370Z</time>
      </trkpt>
      <trkpt lat="43.34303855895996" lon="-1.7566752433776855">
        <ele>3.3030593208246612</ele>
        <time>2021-08-05T18:54:08.988Z</time>
      </trkpt>
      <trkpt lat="43.34338188171387" lon="-1.7573189735412598">
        <ele>2.868410232764746</ele>
        <time>2021-08-05T18:54:19.615Z</time>
      </trkpt>
      <trkpt lat="43.343585729599" lon="-1.757887601852417">
        <ele>2.680288467265736</ele>
        <time>2021-08-05T18:54:30.250Z</time>
      </trkpt>
      <trkpt lat="43.34373593330383" lon="-1.7584025859832764">
        <ele>2.527107147722467</ele>
        <time>2021-08-05T18:54:40.891Z</time>
      </trkpt>
      <trkpt lat="43.34385395050049" lon="-1.7591321468353271">
        <ele>2.322937144918205</ele>
        <time>2021-08-05T18:54:51.541Z</time>
      </trkpt>
      <trkpt lat="43.34386467933655" lon="-1.7606019973754883">
        <ele>1.7137975234821872</ele>
        <time>2021-08-05T18:55:02.208Z</time>
      </trkpt>
      <trkpt lat="43.34381103515625" lon="-1.7607200145721436">
        <ele>1.5778932369540883</ele>
        <time>2021-08-05T18:55:12.877Z</time>
      </trkpt>
      <trkpt lat="43.34381111897528" lon="-1.7607200145721436">
        <ele>1.5087143900930386</ele>
        <time>2021-08-05T18:55:23.546Z</time>
      </trkpt>
      <trkpt lat="43.34380030632019" lon="-1.7607629299163818">
        <ele>1.5005203995597283</ele>
        <time>2021-08-05T18:55:34.215Z</time>
      </trkpt>
      <trkpt lat="43.34374666213989" lon="-1.7608702182769775">
        <ele>1.5524370284523255</ele>
        <time>2021-08-05T18:55:44.886Z</time>
      </trkpt>
      <trkpt lat="43.34376811981201" lon="-1.7609667778015137">
        <ele>1.6599809053402226</ele>
        <time>2021-08-05T18:55:55.558Z</time>
      </trkpt>
      <trkpt lat="43.34376811981201" lon="-1.761084794998169">
        <ele>1.8182628307771547</ele>
        <time>2021-08-05T18:56:06.231Z</time>
      </trkpt>
      <trkpt lat="43.34386467933655" lon="-1.7613637447357178">
        <ele>1.9777991231540852</ele>
        <time>2021-08-05T18:56:16.908Z</time>
      </trkpt>
      <trkpt lat="43.34385395050049" lon="-1.7614388465881348">
        <ele>2.197373039147884</ele>
        <time>2021-08-05T18:56:27.586Z</time>
      </trkpt>
      <trkpt lat="43.343693017959595" lon="-1.7621791362762451">
        <ele>2.4556856229445825</ele>
        <time>2021-08-05T18:56:38.273Z</time>
      </trkpt>
      <trkpt lat="43.3435320854187" lon="-1.7625439167022705">
        <ele>2.7855069569701403</ele>
        <time>2021-08-05T18:56:48.965Z</time>
      </trkpt>
      <trkpt lat="43.34337115287781" lon="-1.762833595275879">
        <ele>3.1108769425612217</ele>
        <time>2021-08-05T18:56:59.661Z</time>
      </trkpt>
      <trkpt lat="43.343167304992676" lon="-1.7631018161773682">
        <ele>3.4895400247013635</ele>
        <time>2021-08-05T18:57:10.361Z</time>
      </trkpt>
      <trkpt lat="43.34316738881171" lon="-1.7631018161773682">
        <ele>3.8858495953464387</ele>
        <time>2021-08-05T18:57:21.061Z</time>
      </trkpt>
      <trkpt lat="43.34303864277899" lon="-1.7632842063903809">
        <ele>4.31111000017672</ele>
        <time>2021-08-05T18:57:31.764Z</time>
      </trkpt>
      <trkpt lat="43.3426308631897" lon="-1.7638421058654785">
        <ele>4.827385079330133</ele>
        <time>2021-08-05T18:57:42.477Z</time>
      </trkpt>
      <trkpt lat="43.3425772190094" lon="-1.7643463611602783">
        <ele>5.273046557284083</ele>
        <time>2021-08-05T18:57:53.196Z</time>
      </trkpt>
      <trkpt lat="43.34253430366516" lon="-1.7645823955535889">
        <ele>5.707461131870073</ele>
        <time>2021-08-05T18:58:03.917Z</time>
      </trkpt>
      <trkpt lat="43.342459201812744" lon="-1.764678955078125">
        <ele>6.163355803636428</ele>
        <time>2021-08-05T18:58:14.640Z</time>
      </trkpt>
      <trkpt lat="43.342459285631776" lon="-1.764678955078125">
        <ele>6.537185281571581</ele>
        <time>2021-08-05T18:58:25.363Z</time>
      </trkpt>
      <trkpt lat="43.342437744140625" lon="-1.7647111415863037">
        <ele>6.895334281480075</ele>
        <time>2021-08-05T18:58:36.087Z</time>
      </trkpt>
      <trkpt lat="43.34237337112427" lon="-1.7650866508483887">
        <ele>7.240572687752599</ele>
        <time>2021-08-05T18:58:46.815Z</time>
      </trkpt>
      <trkpt lat="43.34208369255066" lon="-1.7670929431915283">
        <ele>7.917073318883787</ele>
        <time>2021-08-05T18:58:57.567Z</time>
      </trkpt>
      <trkpt lat="43.34183692932129" lon="-1.769099235534668">
        <ele>7.8439185803606115</ele>
        <time>2021-08-05T18:59:08.343Z</time>
      </trkpt>
      <trkpt lat="43.34178328514099" lon="-1.7703545093536377">
        <ele>7.826912823049813</ele>
        <time>2021-08-05T18:59:19.133Z</time>
      </trkpt>
      <trkpt lat="43.341675996780396" lon="-1.7716848850250244">
        <ele>7.973865085790936</ele>
        <time>2021-08-05T18:59:29.939Z</time>
      </trkpt>
      <trkpt lat="43.34163308143616" lon="-1.7716741561889648">
        <ele>8.036691058826065</ele>
        <time>2021-08-05T18:59:40.746Z</time>
      </trkpt>
      <trkpt lat="43.34161170758307" lon="-1.772146224975586">
        <ele>8.156928458162463</ele>
        <time>2021-08-05T18:59:51.558Z</time>
      </trkpt>
      <trkpt lat="43.341675996780396" lon="-1.7742598056793213">
        <ele>8.078598270505175</ele>
        <time>2021-08-05T19:00:02.395Z</time>
      </trkpt>
      <trkpt lat="43.34164381027222" lon="-1.7746353149414062">
        <ele>7.795879206716825</ele>
        <time>2021-08-05T19:00:13.236Z</time>
      </trkpt>
      <trkpt lat="43.34157943725586" lon="-1.775064468383789">
        <ele>7.411059152246608</ele>
        <time>2021-08-05T19:00:24.082Z</time>
      </trkpt>
      <trkpt lat="43.34149360656738" lon="-1.7754614353179932">
        <ele>7.107334001803343</ele>
        <time>2021-08-05T19:00:34.933Z</time>
      </trkpt>
      <trkpt lat="43.341214740648866" lon="-1.7762339115142822">
        <ele>6.790862923713881</ele>
        <time>2021-08-05T19:00:45.794Z</time>
      </trkpt>
      <trkpt lat="43.34088206291199" lon="-1.7770493030548096">
        <ele>6.3398077073157575</ele>
        <time>2021-08-05T19:00:56.666Z</time>
      </trkpt>
      <trkpt lat="43.34079631604254" lon="-1.7783153057098389">
        <ele>5.530199486054146</ele>
        <time>2021-08-05T19:01:07.553Z</time>
      </trkpt>
      <trkpt lat="43.34079623222351" lon="-1.7783153057098389">
        <ele>5.134110805741864</ele>
        <time>2021-08-05T19:01:18.440Z</time>
      </trkpt>
      <trkpt lat="43.34077485837042" lon="-1.778637170791626">
        <ele>4.717130659108915</ele>
        <time>2021-08-05T19:01:29.331Z</time>
      </trkpt>
      <trkpt lat="43.34077477455139" lon="-1.778637170791626">
        <ele>4.359192560487703</ele>
        <time>2021-08-05T19:01:40.222Z</time>
      </trkpt>
      <trkpt lat="43.340710401535034" lon="-1.7797207832336426">
        <ele>3.9973491944425477</ele>
        <time>2021-08-05T19:01:51.126Z</time>
      </trkpt>
      <trkpt lat="43.340721130371094" lon="-1.7799031734466553">
        <ele>3.7094730823811966</ele>
        <time>2021-08-05T19:02:02.032Z</time>
      </trkpt>
      <trkpt lat="43.34079631604254" lon="-1.7802786827087402">
        <ele>3.4946140483302397</ele>
        <time>2021-08-05T19:02:12.942Z</time>
      </trkpt>
      <trkpt lat="43.34084987640381" lon="-1.7803645133972168">
        <ele>3.338780024422544</ele>
        <time>2021-08-05T19:02:23.854Z</time>
      </trkpt>
      <trkpt lat="43.34088206291199" lon="-1.780461072921753">
        <ele>3.2530568971474683</ele>
        <time>2021-08-05T19:02:34.767Z</time>
      </trkpt>
      <trkpt lat="43.34089279174805" lon="-1.780611276626587">
        <ele>3.244945132995067</ele>
        <time>2021-08-05T19:02:45.682Z</time>
      </trkpt>
      <trkpt lat="43.34089279174805" lon="-1.7806756496429443">
        <ele>3.3066994912782084</ele>
        <time>2021-08-05T19:02:56.597Z</time>
      </trkpt>
      <trkpt lat="43.340924978256226" lon="-1.7810404300689697">
        <ele>3.4217673268787263</ele>
        <time>2021-08-05T19:03:07.517Z</time>
      </trkpt>
      <trkpt lat="43.34098935127258" lon="-1.7813944816589355">
        <ele>3.6022462452920005</ele>
        <time>2021-08-05T19:03:18.441Z</time>
      </trkpt>
      <trkpt lat="43.34163308143616" lon="-1.7827785015106201">
        <ele>4.083879683638314</ele>
        <time>2021-08-05T19:03:29.384Z</time>
      </trkpt>
      <trkpt lat="43.342952728271484" lon="-1.7854714393615723">
        <ele>4.330907715054458</ele>
        <time>2021-08-05T19:03:40.365Z</time>
      </trkpt>
      <trkpt lat="43.342952812090516" lon="-1.7854714393615723">
        <ele>4.760474603976154</ele>
        <time>2021-08-05T19:03:51.346Z</time>
      </trkpt>
      <trkpt lat="43.343167304992676" lon="-1.7859327793121338">
        <ele>5.268556808117713</ele>
        <time>2021-08-05T19:04:02.333Z</time>
      </trkpt>
      <trkpt lat="43.34316738881171" lon="-1.7859327793121338">
        <ele>5.818065706761738</ele>
        <time>2021-08-05T19:04:13.320Z</time>
      </trkpt>
      <trkpt lat="43.3433819655329" lon="-1.7863726615905762">
        <ele>6.429396331519939</ele>
        <time>2021-08-05T19:04:24.314Z</time>
      </trkpt>
      <trkpt lat="43.343693017959595" lon="-1.7871880531311035">
        <ele>7.093484713839316</ele>
        <time>2021-08-05T19:04:35.318Z</time>
      </trkpt>
      <trkpt lat="43.34387540817261" lon="-1.7878961563110352">
        <ele>7.746577320529731</ele>
        <time>2021-08-05T19:04:46.331Z</time>
      </trkpt>
      <trkpt lat="43.34402561187744" lon="-1.7889797687530518">
        <ele>8.694657202981416</ele>
        <time>2021-08-05T19:04:57.357Z</time>
      </trkpt>
      <trkpt lat="43.34404706954956" lon="-1.789923906326294">
        <ele>9.587573655002506</ele>
        <time>2021-08-05T19:05:08.394Z</time>
      </trkpt>
      <trkpt lat="43.34406852722168" lon="-1.7904925346374512">
        <ele>10.336575530705499</ele>
        <time>2021-08-05T19:05:19.438Z</time>
      </trkpt>
      <trkpt lat="43.34411152638495" lon="-1.7918872833251953">
        <ele>11.118085265179369</ele>
        <time>2021-08-05T19:05:30.498Z</time>
      </trkpt>
      <trkpt lat="43.344197273254395" lon="-1.7922413349151611">
        <ele>11.63813725055847</ele>
        <time>2021-08-05T19:05:41.562Z</time>
      </trkpt>
      <trkpt lat="43.34432601928711" lon="-1.792616844177246">
        <ele>11.9078595805419</ele>
        <time>2021-08-05T19:05:52.631Z</time>
      </trkpt>
      <trkpt lat="43.344433307647705" lon="-1.7928314208984375">
        <ele>12.07704879490872</ele>
        <time>2021-08-05T19:06:03.703Z</time>
      </trkpt>
      <trkpt lat="43.34443339146674" lon="-1.7928314208984375">
        <ele>12.329376189615818</ele>
        <time>2021-08-05T19:06:14.775Z</time>
      </trkpt>
      <trkpt lat="43.34475517272949" lon="-1.793217658996582">
        <ele>12.247239427394426</ele>
        <time>2021-08-05T19:06:25.854Z</time>
      </trkpt>
      <trkpt lat="43.344969749450684" lon="-1.7934966087341309">
        <ele>12.231599044843055</ele>
        <time>2021-08-05T19:06:36.938Z</time>
      </trkpt>
      <trkpt lat="43.34508776664734" lon="-1.7937648296356201">
        <ele>12.388323752351951</ele>
        <time>2021-08-05T19:06:48.025Z</time>
      </trkpt>
      <trkpt lat="43.34510922431946" lon="-1.7938721179962158">
        <ele>12.453126222100908</ele>
        <time>2021-08-05T19:06:59.114Z</time>
      </trkpt>
      <trkpt lat="43.34510930813849" lon="-1.7938721179962158">
        <ele>12.442482355158944</ele>
        <time>2021-08-05T19:07:10.203Z</time>
      </trkpt>
      <trkpt lat="43.34513068199158" lon="-1.794065237045288">
        <ele>12.4259618994101</ele>
        <time>2021-08-05T19:07:21.294Z</time>
      </trkpt>
      <trkpt lat="43.34514141082764" lon="-1.7945051193237305">
        <ele>12.377817893928633</ele>
        <time>2021-08-05T19:07:32.390Z</time>
      </trkpt>
      <trkpt lat="43.34510922431946" lon="-1.7948698997497559">
        <ele>12.278887078954858</ele>
        <time>2021-08-05T19:07:43.490Z</time>
      </trkpt>
      <trkpt lat="43.34498047828674" lon="-1.795964241027832">
        <ele>11.850101965150182</ele>
        <time>2021-08-05T19:07:54.603Z</time>
      </trkpt>
      <trkpt lat="43.344980562105775" lon="-1.795964241027832">
        <ele>11.639045069479787</ele>
        <time>2021-08-05T19:08:05.716Z</time>
      </trkpt>
      <trkpt lat="43.344948375597596" lon="-1.7962753772735596">
        <ele>11.34985257545188</ele>
        <time>2021-08-05T19:08:16.833Z</time>
      </trkpt>
      <trkpt lat="43.34492691792548" lon="-1.7964470386505127">
        <ele>11.070558681465599</ele>
        <time>2021-08-05T19:08:27.952Z</time>
      </trkpt>
      <trkpt lat="43.34488391876221" lon="-1.7966938018798828">
        <ele>10.811485657450715</ele>
        <time>2021-08-05T19:08:39.074Z</time>
      </trkpt>
      <trkpt lat="43.34486246109009" lon="-1.79701566696167">
        <ele>10.561699888690583</ele>
        <time>2021-08-05T19:08:50.200Z</time>
      </trkpt>
      <trkpt lat="43.344905376434326" lon="-1.7975413799285889">
        <ele>10.34867477492771</ele>
        <time>2021-08-05T19:09:01.332Z</time>
      </trkpt>
      <trkpt lat="43.34490546025336" lon="-1.7975413799285889">
        <ele>10.02403374636631</ele>
        <time>2021-08-05T19:09:12.464Z</time>
      </trkpt>
      <trkpt lat="43.344969749450684" lon="-1.7978847026824951">
        <ele>9.712384651698622</ele>
        <time>2021-08-05T19:09:23.600Z</time>
      </trkpt>
      <trkpt lat="43.3450448513031" lon="-1.7981743812561035">
        <ele>9.343451627497835</ele>
        <time>2021-08-05T19:09:34.740Z</time>
      </trkpt>
      <trkpt lat="43.34536671638489" lon="-1.7990648746490479">
        <ele>9.01885559901468</ele>
        <time>2021-08-05T19:09:45.891Z</time>
      </trkpt>
      <trkpt lat="43.34536680020392" lon="-1.7990648746490479">
        <ele>8.653057415428405</ele>
        <time>2021-08-05T19:09:57.042Z</time>
      </trkpt>
      <trkpt lat="43.34551692008972" lon="-1.7994511127471924">
        <ele>8.105575911190783</ele>
        <time>2021-08-05T19:10:08.198Z</time>
      </trkpt>
      <trkpt lat="43.345667123794556" lon="-1.7998158931732178">
        <ele>7.728411215821504</ele>
        <time>2021-08-05T19:10:19.359Z</time>
      </trkpt>
      <trkpt lat="43.34578522481024" lon="-1.8000411987304688">
        <ele>7.333364222300217</ele>
        <time>2021-08-05T19:10:30.523Z</time>
      </trkpt>
      <trkpt lat="43.34589242935181" lon="-1.800234317779541">
        <ele>7.021930046852162</ele>
        <time>2021-08-05T19:10:41.690Z</time>
      </trkpt>
      <trkpt lat="43.345903158187866" lon="-1.8002879619598389">
        <ele>6.784664805073154</ele>
        <time>2021-08-05T19:10:52.858Z</time>
      </trkpt>
      <trkpt lat="43.34589242935181" lon="-1.8003630638122559">
        <ele>6.582832077111952</ele>
        <time>2021-08-05T19:11:04.027Z</time>
      </trkpt>
      <trkpt lat="43.34581732749939" lon="-1.800534725189209">
        <ele>6.429768172704948</ele>
        <time>2021-08-05T19:11:15.198Z</time>
      </trkpt>
      <trkpt lat="43.34557056427002" lon="-1.8008887767791748">
        <ele>6.320291304662406</ele>
        <time>2021-08-05T19:11:26.375Z</time>
      </trkpt>
      <trkpt lat="43.34543117322028" lon="-1.8011677265167236">
        <ele>6.161346028326433</ele>
        <time>2021-08-05T19:11:37.556Z</time>
      </trkpt>
      <trkpt lat="43.345431089401245" lon="-1.8011677265167236">
        <ele>6.032551350728302</ele>
        <time>2021-08-05T19:11:48.737Z</time>
      </trkpt>
      <trkpt lat="43.345431089401245" lon="-1.8012642860412598">
        <ele>5.899996961779552</ele>
        <time>2021-08-05T19:11:59.919Z</time>
      </trkpt>
      <trkpt lat="43.345420360565186" lon="-1.801360845565796">
        <ele>5.815795942418438</ele>
        <time>2021-08-05T19:12:11.102Z</time>
      </trkpt>
      <trkpt lat="43.34557056427002" lon="-1.8016183376312256">
        <ele>5.74870111457736</ele>
        <time>2021-08-05T19:12:22.289Z</time>
      </trkpt>
      <trkpt lat="43.34581732749939" lon="-1.8017899990081787">
        <ele>5.656202786446844</ele>
        <time>2021-08-05T19:12:33.480Z</time>
      </trkpt>
      <trkpt lat="43.34593542851508" lon="-1.8018543720245361">
        <ele>5.565890951447848</ele>
        <time>2021-08-05T19:12:44.673Z</time>
      </trkpt>
      <trkpt lat="43.345935344696045" lon="-1.8018543720245361">
        <ele>5.451118061912494</ele>
        <time>2021-08-05T19:12:55.866Z</time>
      </trkpt>
      <trkpt lat="43.345956886187196" lon="-1.8018543720245361">
        <ele>5.325232213962655</ele>
        <time>2021-08-05T19:13:07.060Z</time>
      </trkpt>
      <trkpt lat="43.345967615023255" lon="-1.8018543720245361">
        <ele>5.181737618479914</ele>
        <time>2021-08-05T19:13:18.254Z</time>
      </trkpt>
      <trkpt lat="43.34608563221991" lon="-1.8018865585327148">
        <ele>5.012568525394386</ele>
        <time>2021-08-05T19:13:29.450Z</time>
      </trkpt>
      <trkpt lat="43.34608554840088" lon="-1.8018865585327148">
        <ele>4.828094009770984</ele>
        <time>2021-08-05T19:13:40.646Z</time>
      </trkpt>
      <trkpt lat="43.34612854756415" lon="-1.8018758296966553">
        <ele>4.616524828598984</ele>
        <time>2021-08-05T19:13:51.843Z</time>
      </trkpt>
      <trkpt lat="43.34627866744995" lon="-1.8018543720245361">
        <ele>4.374280626321815</ele>
        <time>2021-08-05T19:14:03.042Z</time>
      </trkpt>
      <trkpt lat="43.346740091219544" lon="-1.8015861511230469">
        <ele>4.074328999204861</ele>
        <time>2021-08-05T19:14:14.249Z</time>
      </trkpt>
      <trkpt lat="43.34715851582587" lon="-1.8013393878936768">
        <ele>3.7430765315689576</ele>
        <time>2021-08-05T19:14:25.463Z</time>
      </trkpt>
      <trkpt lat="43.347158432006836" lon="-1.8013393878936768">
        <ele>3.5089906220688034</ele>
        <time>2021-08-05T19:14:36.677Z</time>
      </trkpt>
      <trkpt lat="43.34729799069464" lon="-1.8012535572052002">
        <ele>3.2358472985647717</ele>
        <time>2021-08-05T19:14:47.894Z</time>
      </trkpt>
      <trkpt lat="43.34754475392401" lon="-1.8011033535003662">
        <ele>2.945163096393048</ele>
        <time>2021-08-05T19:14:59.115Z</time>
      </trkpt>
      <trkpt lat="43.34778078831732" lon="-1.8009638786315918">
        <ele>2.705449464694035</ele>
        <time>2021-08-05T19:15:10.340Z</time>
      </trkpt>
      <trkpt lat="43.34878929890692" lon="-1.8003523349761963">
        <ele>2.5003715822477623</ele>
        <time>2021-08-05T19:15:21.583Z</time>
      </trkpt>
      <trkpt lat="43.349003875628114" lon="-1.8002235889434814">
        <ele>2.288482437213225</ele>
        <time>2021-08-05T19:15:32.830Z</time>
      </trkpt>
      <trkpt lat="43.34931492805481" lon="-1.8000519275665283">
        <ele>2.082357229001241</ele>
        <time>2021-08-05T19:15:44.082Z</time>
      </trkpt>
      <trkpt lat="43.34980845451355" lon="-1.7998051643371582">
        <ele>1.9330292494930483</ele>
        <time>2021-08-05T19:15:55.342Z</time>
      </trkpt>
      <trkpt lat="43.34996938705444" lon="-1.799483299255371">
        <ele>1.7054455647389974</ele>
        <time>2021-08-05T19:16:06.607Z</time>
      </trkpt>
      <trkpt lat="43.35029133595526" lon="-1.7992901802062988">
        <ele>1.514869184902113</ele>
        <time>2021-08-05T19:16:17.878Z</time>
      </trkpt>
      <trkpt lat="43.35035562515259" lon="-1.7992472648620605">
        <ele>1.3684598110792343</ele>
        <time>2021-08-05T19:16:29.150Z</time>
      </trkpt>
      <trkpt lat="43.35051655769348" lon="-1.7990648746490479">
        <ele>1.2201356305230342</ele>
        <time>2021-08-05T19:16:40.425Z</time>
      </trkpt>
      <trkpt lat="43.350699031725526" lon="-1.7988824844360352">
        <ele>1.1483288629794108</ele>
        <time>2021-08-05T19:16:51.704Z</time>
      </trkpt>
      <trkpt lat="43.350698947906494" lon="-1.7988824844360352">
        <ele>1.1047432075327224</ele>
        <time>2021-08-05T19:17:02.983Z</time>
      </trkpt>
      <trkpt lat="43.350988710299134" lon="-1.7985820770263672">
        <ele>1.0855117764144508</ele>
        <time>2021-08-05T19:17:14.267Z</time>
      </trkpt>
      <trkpt lat="43.3509886264801" lon="-1.7985820770263672">
        <ele>1.0810333633897256</ele>
        <time>2021-08-05T19:17:25.551Z</time>
      </trkpt>
      <trkpt lat="43.35106372833252" lon="-1.7984962463378906">
        <ele>1.1030636469939374</ele>
        <time>2021-08-05T19:17:36.837Z</time>
      </trkpt>
      <trkpt lat="43.35109599865973" lon="-1.7985713481903076">
        <ele>1.112055736989603</ele>
        <time>2021-08-05T19:17:48.124Z</time>
      </trkpt>
      <trkpt lat="43.35132122039795" lon="-1.7983031272888184">
        <ele>1.1633717519990734</ele>
        <time>2021-08-05T19:17:59.416Z</time>
      </trkpt>
      <trkpt lat="43.35205078125" lon="-1.797337532043457">
        <ele>1.203169448091382</ele>
        <time>2021-08-05T19:18:10.724Z</time>
      </trkpt>
      <trkpt lat="43.35238337516785" lon="-1.7968976497650146">
        <ele>1.1422497451691382</ele>
        <time>2021-08-05T19:18:22.039Z</time>
      </trkpt>
      <trkpt lat="43.3525550365448" lon="-1.7967474460601807">
        <ele>1.0208932769760528</ele>
        <time>2021-08-05T19:18:33.358Z</time>
      </trkpt>
      <trkpt lat="43.352683782577515" lon="-1.7966830730438232">
        <ele>0.8442722716931654</ele>
        <time>2021-08-05T19:18:44.679Z</time>
      </trkpt>
      <trkpt lat="43.35312366485596" lon="-1.7965328693389893">
        <ele>0.5757627582194709</ele>
        <time>2021-08-05T19:18:56.007Z</time>
      </trkpt>
      <trkpt lat="43.35355290211737" lon="-1.7963719367980957">
        <ele>0.3666313273338078</ele>
        <time>2021-08-05T19:19:07.342Z</time>
      </trkpt>
      <trkpt lat="43.35521578788757" lon="-1.7957711219787598">
        <ele>0.1214973831413968</ele>
        <time>2021-08-05T19:19:18.705Z</time>
      </trkpt>
      <trkpt lat="43.35564502514899" lon="-1.7955994606018066">
        <ele>0.1700023502249405</ele>
        <time>2021-08-05T19:19:30.075Z</time>
      </trkpt>
      <trkpt lat="43.355934619903564" lon="-1.7954492568969727">
        <ele>0.2448289824575597</ele>
        <time>2021-08-05T19:19:41.450Z</time>
      </trkpt>
      <trkpt lat="43.35632094182074" lon="-1.7951059341430664">
        <ele>0.3749627464973442</ele>
        <time>2021-08-05T19:19:52.832Z</time>
      </trkpt>
      <trkpt lat="43.35632085800171" lon="-1.7951059341430664">
        <ele>0.4117333059683757</ele>
        <time>2021-08-05T19:20:04.214Z</time>
      </trkpt>
      <trkpt lat="43.35682511329651" lon="-1.794494390487671">
        <ele>0.5367096397116862</ele>
        <time>2021-08-05T19:20:15.607Z</time>
      </trkpt>
      <trkpt lat="43.35759767331183" lon="-1.7936575412750244">
        <ele>0.412647530811695</ele>
        <time>2021-08-05T19:20:27.016Z</time>
      </trkpt>
      <trkpt lat="43.3575975894928" lon="-1.7936575412750244">
        <ele>0.4218517059793813</ele>
        <time>2021-08-05T19:20:38.425Z</time>
      </trkpt>
      <trkpt lat="43.357897996902466" lon="-1.793367862701416">
        <ele>0.4317867563186372</ele>
        <time>2021-08-05T19:20:49.840Z</time>
      </trkpt>
      <trkpt lat="43.358702659606934" lon="-1.7924880981445312">
        <ele>0.4788246051530942</ele>
        <time>2021-08-05T19:21:01.271Z</time>
      </trkpt>
      <trkpt lat="43.35874415002763" lon="-1.792448703199625">
        <ele>0.4831199582544878</ele>
        <time>2021-08-05T19:21:12.703Z</time>
      </trkpt>
    </trkseg>
  </trk>
</gpx>
